{
  "fields": [{"id":"_id","type":"int"},{"id":"dev_id","type":"numeric"},{"id":"dev_model","type":"text"},{"id":"dev_manufactor","type":"text"},{"id":"dev_serial","type":"text"},{"id":"dev_latitude","type":"numeric"},{"id":"dev_longitude","type":"numeric"},{"id":"dev_street","type":"text"},{"id":"dev_street_no","type":"text"},{"id":"dev_city","type":"text"},{"id":"dev_name","type":"text"},{"id":"id","type":"numeric"},{"id":"dev_send_time","type":"timestamp"},{"id":"dev_state","type":"numeric"},{"id":"dev_state_description","type":"text"},{"id":"dev_temperature","type":"numeric"},{"id":"dev_humidity","type":"numeric"},{"id":"dev_pressure","type":"numeric"},{"id":"dev_pm_1","type":"numeric"},{"id":"dev_pm_2_5","type":"numeric"},{"id":"dev_pm_10","type":"numeric"}],
  "records": [
    [1,363171,"Vazduh","Libelium","0004A30B0021DF70",44.979,16.7091,"","","Prijedor","",20045641,"2023-05-29T11:26:01",3,"NO ERROR",27.83,65.5,1000.46,0.37,0.43,0.43],
    [2,363171,"Vazduh","Libelium","0004A30B0021DF70",44.979,16.7091,"","","Prijedor","",20045606,"2023-05-29T11:20:34",3,"NO ERROR",28.57,54,998.42,0.38,0.57,0.59],
    [3,363171,"Vazduh","Libelium","0004A30B0021DF70",44.979,16.7091,"","","Prijedor","",20045598,"2023-05-29T11:19:00",3,"NO ERROR",28.81,57.6,998.43,0.28,0.38,0.38],
    [4,363171,"Vazduh","Libelium","0004A30B0021DF70",44.979,16.7091,"","","Prijedor","",20045543,"2023-05-29T11:12:57",3,"NO ERROR",25.52,68.6,1000.57,0.27,0.45,0.74],
    [5,363171,"Vazduh","Libelium","0004A30B0021DF70",44.979,16.7091,"","","Prijedor","",20046076,"2023-05-29T12:26:43",3,"NO ERROR",25.29,62.2,1000.24,0.6,0.86,0.87],
    [6,363171,"Vazduh","Libelium","0004A30B0021DF70",44.979,16.7091,"","","Prijedor","",20046513,"2023-05-29T13:27:25",3,"NO ERROR",21.2,95.2,1000.19,0.83,1.51,26.44],
    [7,363171,"Vazduh","Libelium","0004A30B0021DF70",44.979,16.7091,"","","Prijedor","",20046942,"2023-05-29T14:28:13",3,"NO ERROR",17.57,100,1000.13,0.97,1.19,1.2],
    [8,363171,"Vazduh","Libelium","0004A30B0021DF70",44.979,16.7091,"","","Prijedor","",20047359,"2023-05-29T15:28:55",3,"NO ERROR",20.01,100,999.84,0.4,0.48,0.48],
    [9,363171,"Vazduh","Libelium","0004A30B0021DF70",44.979,16.7091,"","","Prijedor","",20047850,"2023-05-29T16:29:37",3,"NO ERROR",25.97,67.9,999.55,0.18,0.25,0.25],
    [10,363171,"Vazduh","Libelium","0004A30B0021DF70",44.979,16.7091,"","","Prijedor","",20048290,"2023-05-29T17:30:19",3,"NO ERROR",25.48,61.8,999.4,0.18,0.28,0.28],
    [11,363171,"Vazduh","Libelium","0004A30B0021DF70",44.979,16.7091,"","","Prijedor","",20048744,"2023-05-29T18:31:01",3,"NO ERROR",22.82,74.4,999.27,0.39,0.58,1.05],
    [12,363171,"Vazduh","Libelium","0004A30B0021DF70",44.979,16.7091,"","","Prijedor","",20049201,"2023-05-29T19:31:42",3,"NO ERROR",21.56,84.3,999.55,0.23,0.29,0.3],
    [13,363171,"Vazduh","Libelium","0004A30B0021DF70",44.979,16.7091,"","","Prijedor","",20049661,"2023-05-29T20:32:24",3,"NO ERROR",19.99,90.4,999.99,0.61,0.71,0.71],
    [14,363171,"Vazduh","Libelium","0004A30B0021DF70",44.979,16.7091,"","","Prijedor","",20052249,"2023-05-29T21:33:12",3,"NO ERROR",18.65,100,1000.52,0.28,0.35,0.36],
    [15,363171,"Vazduh","Libelium","0004A30B0021DF70",44.979,16.7091,"","","Prijedor","",20054121,"2023-05-29T22:33:54",3,"NO ERROR",18.81,100,1001.59,1.05,1.57,1.75],
    [16,363171,"Vazduh","Libelium","0004A30B0021DF70",44.979,16.7091,"","","Prijedor","",20055431,"2023-05-29T23:34:36",3,"NO ERROR",16.76,100,1001.09,0.34,0.41,0.41],
    [17,363171,"Vazduh","Libelium","0004A30B0021DF70",44.979,16.7091,"","","Prijedor","",20056914,"2023-05-30T00:35:18",3,"NO ERROR",16.12,100,1000.56,0.83,0.98,0.99],
    [18,363171,"Vazduh","Libelium","0004A30B0021DF70",44.979,16.7091,"","","Prijedor","",20058209,"2023-05-30T01:36:00",3,"NO ERROR",15.59,100,1000.48,1.06,1.29,1.29],
    [19,363171,"Vazduh","Libelium","0004A30B0021DF70",44.979,16.7091,"","","Prijedor","",20059332,"2023-05-30T02:36:42",3,"NO ERROR",15.2,100,1000.89,1.03,1.24,1.25],
    [20,363171,"Vazduh","Libelium","0004A30B0021DF70",44.979,16.7091,"","","Prijedor","",20060478,"2023-05-30T03:37:23",3,"NO ERROR",15.2,100,1000.92,1.09,1.28,1.28],
    [21,363171,"Vazduh","Libelium","0004A30B0021DF70",44.979,16.7091,"","","Prijedor","",20061556,"2023-05-30T04:38:05",3,"NO ERROR",14.91,100,1000.87,2.03,2.58,2.84],
    [22,363171,"Vazduh","Libelium","0004A30B0021DF70",44.979,16.7091,"","","Prijedor","",20062104,"2023-05-30T05:38:47",3,"NO ERROR",14.61,100,1001.12,0.61,0.68,0.68],
    [23,363171,"Vazduh","Libelium","0004A30B0021DF70",44.979,16.7091,"","","Prijedor","",20062583,"2023-05-30T06:39:29",3,"NO ERROR",15,100,1001.71,1.16,1.3,1.3],
    [24,363171,"Vazduh","Libelium","0004A30B0021DF70",44.979,16.7091,"","","Prijedor","",20063028,"2023-05-30T07:40:11",3,"NO ERROR",16.32,100,1002.01,0.25,0.3,0.3],
    [25,363171,"Vazduh","Libelium","0004A30B0021DF70",44.979,16.7091,"","","Prijedor","",20063489,"2023-05-30T08:40:53",3,"NO ERROR",16.47,100,1002.36,0.34,0.39,0.39],
    [26,363171,"Vazduh","Libelium","0004A30B0021DF70",44.979,16.7091,"","","Prijedor","",20063937,"2023-05-30T09:41:35",3,"NO ERROR",19.28,100,1002.39,0.12,0.14,0.14],
    [27,363171,"Vazduh","Libelium","0004A30B0021DF70",44.979,16.7091,"","","Prijedor","",20064401,"2023-05-30T10:42:17",3,"NO ERROR",20.07,100,1002.21,0.43,0.45,0.45],
    [28,363171,"Vazduh","Libelium","0004A30B0021DF70",44.979,16.7091,"","","Prijedor","",20064850,"2023-05-30T11:42:59",3,"NO ERROR",22.17,88.5,1002.18,0.46,0.61,0.61],
    [29,363171,"Vazduh","Libelium","0004A30B0021DF70",44.979,16.7091,"","","Prijedor","",20065318,"2023-05-30T12:43:47",3,"NO ERROR",24.41,78.2,1001.83,0.15,0.19,0.19],
    [30,363171,"Vazduh","Libelium","0004A30B0021DF70",44.979,16.7091,"","","Prijedor","",20065770,"2023-05-30T13:44:29",3,"NO ERROR",22.52,83.5,1001.32,0.46,0.66,0.68],
    [31,363171,"Vazduh","Libelium","0004A30B0021DF70",44.979,16.7091,"","","Prijedor","",20066217,"2023-05-30T14:45:12",3,"NO ERROR",21.62,90,1001.15,0.36,0.63,0.73],
    [32,363171,"Vazduh","Libelium","0004A30B0021DF70",44.979,16.7091,"","","Prijedor","",20066647,"2023-05-30T15:45:54",3,"NO ERROR",19.08,100,1000.89,0.81,1.13,1.14],
    [33,363171,"Vazduh","Libelium","0004A30B0021DF70",44.979,16.7091,"","","Prijedor","",20067113,"2023-05-30T16:46:36",3,"NO ERROR",19.14,100,1001.31,0.4,0.52,0.52],
    [34,363171,"Vazduh","Libelium","0004A30B0021DF70",44.979,16.7091,"","","Prijedor","",20067574,"2023-05-30T17:47:18",3,"NO ERROR",18.79,100,1001.52,0.61,0.83,0.84],
    [35,363171,"Vazduh","Libelium","0004A30B0021DF70",44.979,16.7091,"","","Prijedor","",20068038,"2023-05-30T18:48:00",3,"NO ERROR",17.88,100,1002.41,0.9,1.19,1.37],
    [36,363171,"Vazduh","Libelium","0004A30B0021DF70",44.979,16.7091,"","","Prijedor","",20068481,"2023-05-30T19:48:42",3,"NO ERROR",16.21,100,1003.07,1.29,1.55,1.56],
    [37,363171,"Vazduh","Libelium","0004A30B0021DF70",44.979,16.7091,"","","Prijedor","",20069081,"2023-05-30T20:49:24",3,"NO ERROR",15.71,100,1003.65,0.77,0.98,0.99],
    [38,363171,"Vazduh","Libelium","0004A30B0021DF70",44.979,16.7091,"","","Prijedor","",20071567,"2023-05-30T21:50:06",3,"NO ERROR",15.69,100,1003.84,1.68,2.18,2.42],
    [39,363171,"Vazduh","Libelium","0004A30B0021DF70",44.979,16.7091,"","","Prijedor","",20073225,"2023-05-30T22:50:48",3,"NO ERROR",15.61,100,1003.82,1.42,1.77,1.78],
    [40,363171,"Vazduh","Libelium","0004A30B0021DF70",44.979,16.7091,"","","Prijedor","",20074581,"2023-05-30T23:51:30",3,"NO ERROR",15.22,100,1003.65,1.83,2.22,2.22],
    [41,363171,"Vazduh","Libelium","0004A30B0021DF70",44.979,16.7091,"","","Prijedor","",20076110,"2023-05-31T00:52:12",3,"NO ERROR",14.78,100,1003.26,8.14,9.92,10.08],
    [42,363171,"Vazduh","Libelium","0004A30B0021DF70",44.979,16.7091,"","","Prijedor","",20077284,"2023-05-31T01:52:54",3,"NO ERROR",15.1,100,1003.27,6.17,7.27,7.29],
    [43,363171,"Vazduh","Libelium","0004A30B0021DF70",44.979,16.7091,"","","Prijedor","",20078479,"2023-05-31T02:53:36",3,"NO ERROR",15.04,100,1003.37,2.18,2.44,2.44],
    [44,363171,"Vazduh","Libelium","0004A30B0021DF70",44.979,16.7091,"","","Prijedor","",20079617,"2023-05-31T03:54:19",3,"NO ERROR",15.02,100,1003.41,6.06,7.12,7.14],
    [45,363171,"Vazduh","Libelium","0004A30B0021DF70",44.979,16.7091,"","","Prijedor","",20080642,"2023-05-31T04:55:01",3,"NO ERROR",14.95,100,1003.3,6.61,7.91,7.93],
    [46,363171,"Vazduh","Libelium","0004A30B0021DF70",44.979,16.7091,"","","Prijedor","",20081120,"2023-05-31T05:55:43",3,"NO ERROR",15.14,100,1003.49,5.14,6.27,6.29],
    [47,363171,"Vazduh","Libelium","0004A30B0021DF70",44.979,16.7091,"","","Prijedor","",20081587,"2023-05-31T06:56:25",3,"NO ERROR",15.56,100,1003.73,0.53,0.61,0.61],
    [48,363171,"Vazduh","Libelium","0004A30B0021DF70",44.979,16.7091,"","","Prijedor","",20082042,"2023-05-31T07:57:07",3,"NO ERROR",16.94,100,1003.96,0.23,0.33,0.35],
    [49,363171,"Vazduh","Libelium","0004A30B0021DF70",44.979,16.7091,"","","Prijedor","",20082558,"2023-05-31T08:57:49",3,"NO ERROR",17.21,100,1004.26,0.42,0.57,0.58],
    [50,363171,"Vazduh","Libelium","0004A30B0021DF70",44.979,16.7091,"","","Prijedor","",20083010,"2023-05-31T09:58:31",3,"NO ERROR",16.84,100,1004.25,1.08,1.39,1.4],
    [51,363171,"Vazduh","Libelium","0004A30B0021DF70",44.979,16.7091,"","","Prijedor","",20083477,"2023-05-31T10:59:13",3,"NO ERROR",16.56,100,1004.45,2.1,2.53,2.54],
    [52,363171,"Vazduh","Libelium","0004A30B0021DF70",44.979,16.7091,"","","Prijedor","",20083914,"2023-05-31T11:59:54",3,"NO ERROR",16.83,100,1004.53,0.89,0.99,0.99],
    [53,363171,"Vazduh","Libelium","0004A30B0021DF70",44.979,16.7091,"","","Prijedor","",20084405,"2023-05-31T13:00:35",3,"NO ERROR",17.54,100,1004.38,0.26,0.31,0.31],
    [54,363171,"Vazduh","Libelium","0004A30B0021DF70",44.979,16.7091,"","","Prijedor","",20084864,"2023-05-31T14:01:17",3,"NO ERROR",20.84,100,1003.99,0.19,0.21,0.21],
    [55,363171,"Vazduh","Libelium","0004A30B0021DF70",44.979,16.7091,"","","Prijedor","",20085341,"2023-05-31T15:01:59",3,"NO ERROR",21.52,99.9,1003.84,0.27,0.39,0.4],
    [56,363171,"Vazduh","Libelium","0004A30B0021DF70",44.979,16.7091,"","","Prijedor","",20085841,"2023-05-31T16:02:41",3,"NO ERROR",22.77,90.4,1003.49,0.2,0.21,0.21],
    [57,363171,"Vazduh","Libelium","0004A30B0021DF70",44.979,16.7091,"","","Prijedor","",20086353,"2023-05-31T17:03:24",3,"NO ERROR",21.08,95.4,1003.21,0.56,0.93,1.1],
    [58,363171,"Vazduh","Libelium","0004A30B0021DF70",44.979,16.7091,"","","Prijedor","",20086815,"2023-05-31T18:04:12",3,"NO ERROR",20.91,100,1003.05,0.27,0.35,0.35],
    [59,363171,"Vazduh","Libelium","0004A30B0021DF70",44.979,16.7091,"","","Prijedor","",20087268,"2023-05-31T19:04:54",3,"NO ERROR",20.45,100,1003.2,0.15,0.23,0.24],
    [60,363171,"Vazduh","Libelium","0004A30B0021DF70",44.979,16.7091,"","","Prijedor","",20087714,"2023-05-31T20:05:42",3,"NO ERROR",18.69,100,1003.29,0.36,0.39,0.39],
    [61,363171,"Vazduh","Libelium","0004A30B0021DF70",44.979,16.7091,"","","Prijedor","",20089247,"2023-05-31T21:06:24",3,"NO ERROR",17.71,100,1003.66,0.47,0.56,0.56],
    [62,363171,"Vazduh","Libelium","0004A30B0021DF70",44.979,16.7091,"","","Prijedor","",20091500,"2023-05-31T22:07:06",3,"NO ERROR",16.76,100,1003.95,1.05,1.3,1.31],
    [63,363171,"Vazduh","Libelium","0004A30B0021DF70",44.979,16.7091,"","","Prijedor","",20092994,"2023-05-31T23:07:48",3,"NO ERROR",15.96,100,1003.52,1.04,1.26,1.26],
    [64,363171,"Vazduh","Libelium","0004A30B0021DF70",44.979,16.7091,"","","Prijedor","",20094457,"2023-06-01T00:08:30",3,"NO ERROR",15.34,100,1003.58,2.23,2.79,2.8],
    [65,363171,"Vazduh","Libelium","0004A30B0021DF70",44.979,16.7091,"","","Prijedor","",20095744,"2023-06-01T01:09:24",3,"NO ERROR",14.97,100,1003.63,1.46,1.87,1.97],
    [66,363171,"Vazduh","Libelium","0004A30B0021DF70",44.979,16.7091,"","","Prijedor","",20096921,"2023-06-01T02:10:06",3,"NO ERROR",14.48,100,1003.44,3.45,3.99,3.99],
    [67,363171,"Vazduh","Libelium","0004A30B0021DF70",44.979,16.7091,"","","Prijedor","",20098080,"2023-06-01T03:10:48",3,"NO ERROR",14.37,100,1003.51,1.71,2.53,6.28],
    [68,363171,"Vazduh","Libelium","0004A30B0021DF70",44.979,16.7091,"","","Prijedor","",20099212,"2023-06-01T04:11:30",3,"NO ERROR",14.18,100,1003.02,2.96,3.5,3.99],
    [69,363171,"Vazduh","Libelium","0004A30B0021DF70",44.979,16.7091,"","","Prijedor","",20100048,"2023-06-01T05:12:18",3,"NO ERROR",14.07,100,1002.59,5.8,11.65,119.84],
    [70,363171,"Vazduh","Libelium","0004A30B0021DF70",44.979,16.7091,"","","Prijedor","",20100498,"2023-06-01T06:13:00",3,"NO ERROR",14.07,100,1002.99,1.8,1.99,1.99],
    [71,363171,"Vazduh","Libelium","0004A30B0021DF70",44.979,16.7091,"","","Prijedor","",20100937,"2023-06-01T07:13:42",3,"NO ERROR",15.08,100,1003.08,0.76,0.97,0.98],
    [72,363171,"Vazduh","Libelium","0004A30B0021DF70",44.979,16.7091,"","","Prijedor","",20101410,"2023-06-01T08:14:24",3,"NO ERROR",16.28,100,1003.35,0.7,0.78,0.78],
    [73,363171,"Vazduh","Libelium","0004A30B0021DF70",44.979,16.7091,"","","Prijedor","",20101893,"2023-06-01T09:15:06",3,"NO ERROR",18.19,100,1003.52,0.25,0.29,0.29],
    [74,363171,"Vazduh","Libelium","0004A30B0021DF70",44.979,16.7091,"","","Prijedor","",20102346,"2023-06-01T10:15:48",3,"NO ERROR",21.72,95.5,1003.14,0.52,0.66,0.68],
    [75,363171,"Vazduh","Libelium","0004A30B0021DF70",44.979,16.7091,"","","Prijedor","",20102783,"2023-06-01T11:16:30",3,"NO ERROR",23.34,82,1002.72,0.65,0.84,0.84],
    [76,363171,"Vazduh","Libelium","0004A30B0021DF70",44.979,16.7091,"","","Prijedor","",20103294,"2023-06-01T12:17:12",3,"NO ERROR",25.74,72.1,1002.11,0.36,0.42,0.42],
    [77,363171,"Vazduh","Libelium","0004A30B0021DF70",44.979,16.7091,"","","Prijedor","",20103746,"2023-06-01T13:17:54",3,"NO ERROR",24.84,72.3,1001.49,0.28,0.34,0.34],
    [78,363171,"Vazduh","Libelium","0004A30B0021DF70",44.979,16.7091,"","","Prijedor","",20104216,"2023-06-01T14:18:36",3,"NO ERROR",26.52,66.6,1000.58,0.39,0.57,0.64],
    [79,363171,"Vazduh","Libelium","0004A30B0021DF70",44.979,16.7091,"","","Prijedor","",20104686,"2023-06-01T15:19:18",3,"NO ERROR",28.85,60.2,999.87,0.49,0.64,0.65],
    [80,363171,"Vazduh","Libelium","0004A30B0021DF70",44.979,16.7091,"","","Prijedor","",20105163,"2023-06-01T16:20:00",3,"NO ERROR",29.9,53.3,998.84,0.3,0.44,0.45],
    [81,363171,"Vazduh","Libelium","0004A30B0021DF70",44.979,16.7091,"","","Prijedor","",20105655,"2023-06-01T17:20:42",3,"NO ERROR",27.36,62.2,998.89,0.31,0.4,0.41],
    [82,363171,"Vazduh","Libelium","0004A30B0021DF70",44.979,16.7091,"","","Prijedor","",20106118,"2023-06-01T18:21:24",3,"NO ERROR",24.45,75.1,998.33,0.31,0.34,0.34],
    [83,363171,"Vazduh","Libelium","0004A30B0021DF70",44.979,16.7091,"","","Prijedor","",20106539,"2023-06-01T19:22:07",3,"NO ERROR",23.01,85.6,998.32,0.47,0.6,0.61],
    [84,363171,"Vazduh","Libelium","0004A30B0021DF70",44.979,16.7091,"","","Prijedor","",20107031,"2023-06-01T20:22:49",3,"NO ERROR",22.2,97.3,998.56,0.24,0.32,0.33],
    [85,363171,"Vazduh","Libelium","0004A30B0021DF70",44.979,16.7091,"","","Prijedor","",20109211,"2023-06-01T21:23:31",3,"NO ERROR",20.4,100,999,0.97,1.14,1.14],
    [86,363171,"Vazduh","Libelium","0004A30B0021DF70",44.979,16.7091,"","","Prijedor","",20110680,"2023-06-01T22:24:13",3,"NO ERROR",19.09,100,999.11,0.54,0.7,0.78],
    [87,363171,"Vazduh","Libelium","0004A30B0021DF70",44.979,16.7091,"","","Prijedor","",20111732,"2023-06-01T23:24:55",3,"NO ERROR",18.56,100,998.98,0.53,0.66,0.67],
    [88,363171,"Vazduh","Libelium","0004A30B0021DF70",44.979,16.7091,"","","Prijedor","",20112963,"2023-06-02T00:25:37",3,"NO ERROR",17.04,100,998.82,0.65,0.81,0.83],
    [89,363171,"Vazduh","Libelium","0004A30B0021DF70",44.979,16.7091,"","","Prijedor","",20114037,"2023-06-02T01:26:18",3,"NO ERROR",16.66,100,998.4,0.81,0.99,0.99],
    [90,363171,"Vazduh","Libelium","0004A30B0021DF70",44.979,16.7091,"","","Prijedor","",20115163,"2023-06-02T02:27:00",3,"NO ERROR",15.9,100,998.32,0.64,0.73,0.73],
    [91,363171,"Vazduh","Libelium","0004A30B0021DF70",44.979,16.7091,"","","Prijedor","",20116393,"2023-06-02T03:27:42",3,"NO ERROR",15.85,100,998.29,1.05,1.36,2.74],
    [92,363171,"Vazduh","Libelium","0004A30B0021DF70",44.979,16.7091,"","","Prijedor","",20117567,"2023-06-02T04:28:24",3,"NO ERROR",15.99,100,998.29,7.15,10.19,36.36],
    [93,363171,"Vazduh","Libelium","0004A30B0021DF70",44.979,16.7091,"","","Prijedor","",20118236,"2023-06-02T05:29:06",3,"NO ERROR",15.74,100,998.37,8.8,12.62,127.99],
    [94,363171,"Vazduh","Libelium","0004A30B0021DF70",44.979,16.7091,"","","Prijedor","",20118733,"2023-06-02T06:29:48",3,"NO ERROR",15.97,100,998.65,1.4,3.59,92.79],
    [95,363171,"Vazduh","Libelium","0004A30B0021DF70",44.979,16.7091,"","","Prijedor","",20119202,"2023-06-02T07:30:31",3,"NO ERROR",18.04,100,998.68,0.33,0.39,0.39],
    [96,363171,"Vazduh","Libelium","0004A30B0021DF70",44.979,16.7091,"","","Prijedor","",20119714,"2023-06-02T08:31:13",3,"NO ERROR",19.81,100,998.85,0.14,0.18,0.19],
    [97,363171,"Vazduh","Libelium","0004A30B0021DF70",44.979,16.7091,"","","Prijedor","",20120191,"2023-06-02T09:31:55",3,"NO ERROR",25.5,74.6,998.69,0.52,0.72,0.77],
    [98,363171,"Vazduh","Libelium","0004A30B0021DF70",44.979,16.7091,"","","Prijedor","",20120681,"2023-06-02T10:32:37",3,"NO ERROR",25.43,77.5,998.57,0.43,0.56,0.57],
    [99,363171,"Vazduh","Libelium","0004A30B0021DF70",44.979,16.7091,"","","Prijedor","",20121147,"2023-06-02T11:33:19",3,"NO ERROR",26.5,71.2,997.94,0.17,0.27,0.28],
    [100,363171,"Vazduh","Libelium","0004A30B0021DF70",44.979,16.7091,"","","Prijedor","",20121641,"2023-06-02T12:34:01",3,"NO ERROR",26.79,64.1,997.58,0.18,0.28,0.52],
    [101,363171,"Vazduh","Libelium","0004A30B0021DF70",44.979,16.7091,"","","Prijedor","",20122159,"2023-06-02T13:34:43",3,"NO ERROR",21.88,95.3,997.32,0.4,0.52,0.52],
    [102,363171,"Vazduh","Libelium","0004A30B0021DF70",44.979,16.7091,"","","Prijedor","",20122634,"2023-06-02T14:35:25",3,"NO ERROR",27.97,67.4,996.8,0.18,0.24,0.24],
    [103,363171,"Vazduh","Libelium","0004A30B0021DF70",44.979,16.7091,"","","Prijedor","",20123102,"2023-06-02T15:36:07",3,"NO ERROR",28.83,57.6,996.28,0.29,0.32,0.32],
    [104,363171,"Vazduh","Libelium","0004A30B0021DF70",44.979,16.7091,"","","Prijedor","",20123586,"2023-06-02T16:36:49",3,"NO ERROR",24.2,68.7,996.88,0.3,0.44,0.47],
    [105,363171,"Vazduh","Libelium","0004A30B0021DF70",44.979,16.7091,"","","Prijedor","",20124074,"2023-06-02T17:37:31",3,"NO ERROR",22.07,86.8,996.99,0.94,1.17,1.19],
    [106,363171,"Vazduh","Libelium","0004A30B0021DF70",44.979,16.7091,"","","Prijedor","",20124569,"2023-06-02T18:38:13",3,"NO ERROR",22.68,87.1,996.67,1.1,1.39,1.52],
    [107,363171,"Vazduh","Libelium","0004A30B0021DF70",44.979,16.7091,"","","Prijedor","",20125052,"2023-06-02T19:38:55",3,"NO ERROR",22.05,91,997.07,0.95,1.08,1.08],
    [108,363171,"Vazduh","Libelium","0004A30B0021DF70",44.979,16.7091,"","","Prijedor","",20125536,"2023-06-02T20:39:37",3,"NO ERROR",20.06,100,997.14,1.26,1.59,1.6],
    [109,363171,"Vazduh","Libelium","0004A30B0021DF70",44.979,16.7091,"","","Prijedor","",20128167,"2023-06-02T21:40:20",3,"NO ERROR",19,100,998.12,1.77,2.23,3.71],
    [110,363171,"Vazduh","Libelium","0004A30B0021DF70",44.979,16.7091,"","","Prijedor","",20130193,"2023-06-02T22:41:02",3,"NO ERROR",18.13,100,998.62,2.5,2.99,3],
    [111,363171,"Vazduh","Libelium","0004A30B0021DF70",44.979,16.7091,"","","Prijedor","",20131674,"2023-06-02T23:41:44",3,"NO ERROR",17.65,100,998.86,1.39,1.72,1.75],
    [112,363171,"Vazduh","Libelium","0004A30B0021DF70",44.979,16.7091,"","","Prijedor","",20133375,"2023-06-03T00:42:26",3,"NO ERROR",16.54,100,998.65,3.92,4.85,5.25],
    [113,363171,"Vazduh","Libelium","0004A30B0021DF70",44.979,16.7091,"","","Prijedor","",20134675,"2023-06-03T01:43:08",3,"NO ERROR",15.77,100,998.88,5.98,7.02,7.04],
    [114,363171,"Vazduh","Libelium","0004A30B0021DF70",44.979,16.7091,"","","Prijedor","",20135887,"2023-06-03T02:43:49",3,"NO ERROR",15.52,100,999.07,1.93,2.26,2.26],
    [115,363171,"Vazduh","Libelium","0004A30B0021DF70",44.979,16.7091,"","","Prijedor","",20137031,"2023-06-03T03:44:31",3,"NO ERROR",15.35,100,999.38,5.07,7.27,50.29],
    [116,363171,"Vazduh","Libelium","0004A30B0021DF70",44.979,16.7091,"","","Prijedor","",20138129,"2023-06-03T04:45:13",3,"NO ERROR",15.13,100,999.68,6.56,11.5,203.16],
    [117,363171,"Vazduh","Libelium","0004A30B0021DF70",44.979,16.7091,"","","Prijedor","",20138615,"2023-06-03T05:45:55",3,"NO ERROR",14.94,100,1000.33,2.87,4.01,37.79],
    [118,363171,"Vazduh","Libelium","0004A30B0021DF70",44.979,16.7091,"","","Prijedor","",20139086,"2023-06-03T06:46:43",3,"NO ERROR",15.8,100,1000.87,0.44,0.65,8.47],
    [119,363171,"Vazduh","Libelium","0004A30B0021DF70",44.979,16.7091,"","","Prijedor","",20139582,"2023-06-03T07:47:25",3,"NO ERROR",20.82,93.6,1001.29,0.25,0.37,0.48],
    [120,363171,"Vazduh","Libelium","0004A30B0021DF70",44.979,16.7091,"","","Prijedor","",20140084,"2023-06-03T08:48:07",3,"NO ERROR",22.05,75.2,1001.84,0.22,0.27,0.27],
    [121,363171,"Vazduh","Libelium","0004A30B0021DF70",44.979,16.7091,"","","Prijedor","",20140559,"2023-06-03T09:48:50",3,"NO ERROR",22.59,74.5,1002.3,0.31,0.52,0.6],
    [122,363171,"Vazduh","Libelium","0004A30B0021DF70",44.979,16.7091,"","","Prijedor","",20141043,"2023-06-03T10:49:32",3,"NO ERROR",21.3,79.5,1002.84,0.4,0.58,0.59],
    [123,363171,"Vazduh","Libelium","0004A30B0021DF70",44.979,16.7091,"","","Prijedor","",20141514,"2023-06-03T11:50:14",3,"NO ERROR",22.45,77.5,1003.1,0.39,0.52,0.54],
    [124,363171,"Vazduh","Libelium","0004A30B0021DF70",44.979,16.7091,"","","Prijedor","",20141999,"2023-06-03T12:50:56",3,"NO ERROR",24.3,71.1,1002.68,0.77,1.13,1.15],
    [125,363171,"Vazduh","Libelium","0004A30B0021DF70",44.979,16.7091,"","","Prijedor","",20142496,"2023-06-03T13:51:38",3,"NO ERROR",24.96,67.7,1002.38,0.31,0.42,0.44],
    [126,363171,"Vazduh","Libelium","0004A30B0021DF70",44.979,16.7091,"","","Prijedor","",20142962,"2023-06-03T14:52:20",3,"NO ERROR",27.44,60.4,1001.83,0.32,0.36,0.37],
    [127,363171,"Vazduh","Libelium","0004A30B0021DF70",44.979,16.7091,"","","Prijedor","",20143424,"2023-06-03T15:53:02",3,"NO ERROR",25.16,67.5,1001.74,0.33,0.43,0.44],
    [128,363171,"Vazduh","Libelium","0004A30B0021DF70",44.979,16.7091,"","","Prijedor","",20143901,"2023-06-03T16:53:44",3,"NO ERROR",26.87,63,1001.21,0.23,0.28,0.28],
    [129,363171,"Vazduh","Libelium","0004A30B0021DF70",44.979,16.7091,"","","Prijedor","",20144359,"2023-06-03T17:54:26",3,"NO ERROR",25.79,61.9,1001.01,0.65,0.93,1.07],
    [130,363171,"Vazduh","Libelium","0004A30B0021DF70",44.979,16.7091,"","","Prijedor","",20144830,"2023-06-03T18:55:08",3,"NO ERROR",24.33,65.4,1001.39,0.42,0.54,0.55],
    [131,363171,"Vazduh","Libelium","0004A30B0021DF70",44.979,16.7091,"","","Prijedor","",20145296,"2023-06-03T19:55:50",3,"NO ERROR",22.88,71.6,1001.54,0.43,0.47,0.47],
    [132,363171,"Vazduh","Libelium","0004A30B0021DF70",44.979,16.7091,"","","Prijedor","",20146276,"2023-06-03T20:56:32",3,"NO ERROR",20.34,100,1001.94,0.64,0.83,0.84],
    [133,363171,"Vazduh","Libelium","0004A30B0021DF70",44.979,16.7091,"","","Prijedor","",20148737,"2023-06-03T21:57:14",3,"NO ERROR",20.12,97.1,1002.68,0.58,0.8,0.9],
    [134,363171,"Vazduh","Libelium","0004A30B0021DF70",44.979,16.7091,"","","Prijedor","",20150560,"2023-06-03T22:57:57",3,"NO ERROR",18.5,100,1002.76,0.55,1.05,1.32],
    [135,363171,"Vazduh","Libelium","0004A30B0021DF70",44.979,16.7091,"","","Prijedor","",20152035,"2023-06-03T23:58:39",3,"NO ERROR",17.35,100,1002.73,0.54,0.77,0.89],
    [136,363171,"Vazduh","Libelium","0004A30B0021DF70",44.979,16.7091,"","","Prijedor","",20153423,"2023-06-04T00:59:21",3,"NO ERROR",16.24,100,1002.58,0.82,1.01,1.02],
    [137,363171,"Vazduh","Libelium","0004A30B0021DF70",44.979,16.7091,"","","Prijedor","",20154678,"2023-06-04T02:00:03",3,"NO ERROR",15.91,100,1002.3,0.75,1.21,1.47],
    [138,363171,"Vazduh","Libelium","0004A30B0021DF70",44.979,16.7091,"","","Prijedor","",20155925,"2023-06-04T03:00:45",3,"NO ERROR",14.71,100,1002.26,0.85,1.35,1.49],
    [139,363171,"Vazduh","Libelium","0004A30B0021DF70",44.979,16.7091,"","","Prijedor","",20157140,"2023-06-04T04:01:27",3,"NO ERROR",14.46,100,1002.15,0.96,2.49,57.9],
    [140,363171,"Vazduh","Libelium","0004A30B0021DF70",44.979,16.7091,"","","Prijedor","",20158115,"2023-06-04T05:02:09",3,"NO ERROR",14,100,1002.57,1.49,2.01,26.48],
    [141,363171,"Vazduh","Libelium","0004A30B0021DF70",44.979,16.7091,"","","Prijedor","",20158599,"2023-06-04T06:02:51",3,"NO ERROR",14.48,100,1002.8,2.89,4.32,14.31],
    [142,363171,"Vazduh","Libelium","0004A30B0021DF70",44.979,16.7091,"","","Prijedor","",20159105,"2023-06-04T07:03:32",3,"NO ERROR",14.99,100,1002.97,1.03,6.25,246.6],
    [143,363171,"Vazduh","Libelium","0004A30B0021DF70",44.979,16.7091,"","","Prijedor","",20159572,"2023-06-04T08:04:14",3,"NO ERROR",17.86,100,1003.34,0.45,0.55,0.55],
    [144,363171,"Vazduh","Libelium","0004A30B0021DF70",44.979,16.7091,"","","Prijedor","",20160076,"2023-06-04T09:05:09",3,"NO ERROR",24.34,75.4,1003.14,0.47,0.59,0.6],
    [145,363171,"Vazduh","Libelium","0004A30B0021DF70",44.979,16.7091,"","","Prijedor","",20160553,"2023-06-04T10:05:50",3,"NO ERROR",24.75,73.9,1003.08,0.64,0.79,0.8],
    [146,363171,"Vazduh","Libelium","0004A30B0021DF70",44.979,16.7091,"","","Prijedor","",20161037,"2023-06-04T11:06:32",3,"NO ERROR",25.63,67,1002.83,0.41,0.51,0.52],
    [147,363171,"Vazduh","Libelium","0004A30B0021DF70",44.979,16.7091,"","","Prijedor","",20161517,"2023-06-04T12:07:15",3,"NO ERROR",25.1,70.7,1002.61,0.37,0.48,0.49],
    [148,363171,"Vazduh","Libelium","0004A30B0021DF70",44.979,16.7091,"","","Prijedor","",20162022,"2023-06-04T13:07:57",3,"NO ERROR",26.35,66.3,1001.95,0.57,0.71,0.71],
    [149,363171,"Vazduh","Libelium","0004A30B0021DF70",44.979,16.7091,"","","Prijedor","",20162492,"2023-06-04T14:08:38",3,"NO ERROR",29.97,48.4,1001.63,0.35,0.53,0.61],
    [150,363171,"Vazduh","Libelium","0004A30B0021DF70",44.979,16.7091,"","","Prijedor","",20162942,"2023-06-04T15:09:20",3,"NO ERROR",28.83,49.7,1001.77,0.14,0.17,0.18],
    [151,363171,"Vazduh","Libelium","0004A30B0021DF70",44.979,16.7091,"","","Prijedor","",20163418,"2023-06-04T16:10:01",3,"NO ERROR",25.59,80.9,1002.05,0.71,0.9,0.92],
    [152,363171,"Vazduh","Libelium","0004A30B0021DF70",44.979,16.7091,"","","Prijedor","",20163916,"2023-06-04T17:10:43",3,"NO ERROR",24.9,82.8,1001.82,0.6,0.92,1.17],
    [153,363171,"Vazduh","Libelium","0004A30B0021DF70",44.979,16.7091,"","","Prijedor","",20164370,"2023-06-04T18:11:25",3,"NO ERROR",24.69,83.4,1001.81,0.7,0.81,0.81],
    [154,363171,"Vazduh","Libelium","0004A30B0021DF70",44.979,16.7091,"","","Prijedor","",20164804,"2023-06-04T19:12:19",3,"NO ERROR",20.28,88.8,1002.58,0.24,0.33,0.35],
    [155,363171,"Vazduh","Libelium","0004A30B0021DF70",44.979,16.7091,"","","Prijedor","",20165281,"2023-06-04T20:13:01",3,"NO ERROR",18.91,100,1002.76,0.68,0.98,1.13],
    [156,363171,"Vazduh","Libelium","0004A30B0021DF70",44.979,16.7091,"","","Prijedor","",20166831,"2023-06-04T21:13:43",3,"NO ERROR",18.65,100,1002.95,0.37,0.45,0.45],
    [157,363171,"Vazduh","Libelium","0004A30B0021DF70",44.979,16.7091,"","","Prijedor","",20168668,"2023-06-04T22:14:25",3,"NO ERROR",17.72,100,1003.2,0.59,0.87,1.32],
    [158,363171,"Vazduh","Libelium","0004A30B0021DF70",44.979,16.7091,"","","Prijedor","",20170164,"2023-06-04T23:15:07",3,"NO ERROR",17.23,100,1003.16,1.18,1.58,1.61],
    [159,363171,"Vazduh","Libelium","0004A30B0021DF70",44.979,16.7091,"","","Prijedor","",20171797,"2023-06-05T00:15:49",3,"NO ERROR",16.67,100,1002.74,1.3,1.64,1.72],
    [160,363171,"Vazduh","Libelium","0004A30B0021DF70",44.979,16.7091,"","","Prijedor","",20173230,"2023-06-05T01:16:32",3,"NO ERROR",15.79,100,1002.67,1.87,2.17,2.18],
    [161,363171,"Vazduh","Libelium","0004A30B0021DF70",44.979,16.7091,"","","Prijedor","",20174516,"2023-06-05T02:17:14",3,"NO ERROR",15.35,100,1002.84,2.64,3.1,3.1],
    [162,363171,"Vazduh","Libelium","0004A30B0021DF70",44.979,16.7091,"","","Prijedor","",20175802,"2023-06-05T03:17:55",3,"NO ERROR",15.2,100,1002.68,2.63,4.44,16.04],
    [163,363171,"Vazduh","Libelium","0004A30B0021DF70",44.979,16.7091,"","","Prijedor","",20177061,"2023-06-05T04:18:37",3,"NO ERROR",15.35,100,1002.36,4.96,5.83,9.85],
    [164,363171,"Vazduh","Libelium","0004A30B0021DF70",44.979,16.7091,"","","Prijedor","",20177783,"2023-06-05T05:19:19",3,"NO ERROR",15.2,100,1002.35,10.77,13.22,180.51],
    [165,363171,"Vazduh","Libelium","0004A30B0021DF70",44.979,16.7091,"","","Prijedor","",20178250,"2023-06-05T06:20:00",3,"NO ERROR",15.71,100,1001.93,2.5,3.67,29.42],
    [166,363171,"Vazduh","Libelium","0004A30B0021DF70",44.979,16.7091,"","","Prijedor","",20178724,"2023-06-05T07:20:42",3,"NO ERROR",16.3,100,1002.5,1.08,1.43,1.47],
    [167,363171,"Vazduh","Libelium","0004A30B0021DF70",44.979,16.7091,"","","Prijedor","",20179205,"2023-06-05T08:21:24",3,"NO ERROR",16.88,100,1002.54,0.68,0.78,0.79],
    [168,363171,"Vazduh","Libelium","0004A30B0021DF70",44.979,16.7091,"","","Prijedor","",20179690,"2023-06-05T09:22:06",3,"NO ERROR",17.66,100,1002.97,0.44,0.53,0.53],
    [169,363171,"Vazduh","Libelium","0004A30B0021DF70",44.979,16.7091,"","","Prijedor","",20180153,"2023-06-05T10:22:48",3,"NO ERROR",17.85,100,1003.23,0.17,0.17,0.17],
    [170,363171,"Vazduh","Libelium","0004A30B0021DF70",44.979,16.7091,"","","Prijedor","",20180618,"2023-06-05T11:23:30",3,"NO ERROR",18.09,100,1002.91,0.52,0.6,0.6],
    [171,363171,"Vazduh","Libelium","0004A30B0021DF70",44.979,16.7091,"","","Prijedor","",20181076,"2023-06-05T12:24:12",3,"NO ERROR",21.12,100,1002.24,0.49,0.61,0.61],
    [172,363171,"Vazduh","Libelium","0004A30B0021DF70",44.979,16.7091,"","","Prijedor","",20181559,"2023-06-05T13:24:55",3,"NO ERROR",20.43,100,1002.23,0.3,0.37,0.37],
    [173,363171,"Vazduh","Libelium","0004A30B0021DF70",44.979,16.7091,"","","Prijedor","",20182022,"2023-06-05T14:25:37",3,"NO ERROR",20.29,100,1001.93,0.4,0.44,0.44],
    [174,363171,"Vazduh","Libelium","0004A30B0021DF70",44.979,16.7091,"","","Prijedor","",20182493,"2023-06-05T15:26:19",3,"NO ERROR",20.24,100,1001.71,0.41,0.47,0.47],
    [175,363171,"Vazduh","Libelium","0004A30B0021DF70",44.979,16.7091,"","","Prijedor","",20182993,"2023-06-05T16:27:00",3,"NO ERROR",21.29,100,1001.43,0.3,0.32,0.32],
    [176,363171,"Vazduh","Libelium","0004A30B0021DF70",44.979,16.7091,"","","Prijedor","",20183470,"2023-06-05T17:27:42",3,"NO ERROR",21.24,100,1000.92,0.31,0.38,0.4],
    [177,363171,"Vazduh","Libelium","0004A30B0021DF70",44.979,16.7091,"","","Prijedor","",20183954,"2023-06-05T18:28:24",3,"NO ERROR",20.44,100,1000.86,0.79,0.88,0.88],
    [178,363171,"Vazduh","Libelium","0004A30B0021DF70",44.979,16.7091,"","","Prijedor","",20184417,"2023-06-05T19:29:06",3,"NO ERROR",20.16,100,1000.86,0.5,0.58,0.58],
    [179,363171,"Vazduh","Libelium","0004A30B0021DF70",44.979,16.7091,"","","Prijedor","",20184895,"2023-06-05T20:29:48",3,"NO ERROR",19.17,100,1001.09,1.28,1.77,1.87],
    [180,363171,"Vazduh","Libelium","0004A30B0021DF70",44.979,16.7091,"","","Prijedor","",20187289,"2023-06-05T21:30:36",3,"NO ERROR",18.47,100,1001.3,1.68,1.95,2.06],
    [181,363171,"Vazduh","Libelium","0004A30B0021DF70",44.979,16.7091,"","","Prijedor","",20189243,"2023-06-05T22:31:18",3,"NO ERROR",18.36,100,1001.36,2.38,3.07,3.25],
    [182,363171,"Vazduh","Libelium","0004A30B0021DF70",44.979,16.7091,"","","Prijedor","",20190738,"2023-06-05T23:32:00",3,"NO ERROR",18.22,100,1001.45,2.43,2.93,2.98],
    [183,363171,"Vazduh","Libelium","0004A30B0021DF70",44.979,16.7091,"","","Prijedor","",20192291,"2023-06-06T00:32:42",3,"NO ERROR",17.82,100,1001.43,3.08,3.69,3.72],
    [184,363171,"Vazduh","Libelium","0004A30B0021DF70",44.979,16.7091,"","","Prijedor","",20193472,"2023-06-06T01:33:24",3,"NO ERROR",17.6,100,1000.84,5.34,6.61,6.75],
    [185,363171,"Vazduh","Libelium","0004A30B0021DF70",44.979,16.7091,"","","Prijedor","",20194632,"2023-06-06T02:34:06",3,"NO ERROR",17.28,100,1000.6,8.76,10.52,10.56],
    [186,363171,"Vazduh","Libelium","0004A30B0021DF70",44.979,16.7091,"","","Prijedor","",20195807,"2023-06-06T03:34:49",3,"NO ERROR",17.32,100,1000.61,3.24,3.71,3.72],
    [187,363171,"Vazduh","Libelium","0004A30B0021DF70",44.979,16.7091,"","","Prijedor","",20196981,"2023-06-06T04:35:37",3,"NO ERROR",17.7,100,1000.75,1.88,2.19,2.19],
    [188,363171,"Vazduh","Libelium","0004A30B0021DF70",44.979,16.7091,"","","Prijedor","",20197517,"2023-06-06T05:36:19",3,"NO ERROR",17.68,100,1000.8,2.29,2.79,2.82],
    [189,363171,"Vazduh","Libelium","0004A30B0021DF70",44.979,16.7091,"","","Prijedor","",20198003,"2023-06-06T06:37:00",3,"NO ERROR",18.19,100,1000.97,1.99,2.21,2.21],
    [190,363171,"Vazduh","Libelium","0004A30B0021DF70",44.979,16.7091,"","","Prijedor","",20198499,"2023-06-06T07:37:42",3,"NO ERROR",19.19,100,1000.89,1.82,2.03,2.03],
    [191,363171,"Vazduh","Libelium","0004A30B0021DF70",44.979,16.7091,"","","Prijedor","",20198980,"2023-06-06T08:38:24",3,"NO ERROR",20.24,100,1001.14,1.48,1.69,1.7],
    [192,363171,"Vazduh","Libelium","0004A30B0021DF70",44.979,16.7091,"","","Prijedor","",20199473,"2023-06-06T09:39:06",3,"NO ERROR",21.53,100,1001.23,0.59,0.76,0.84],
    [193,363171,"Vazduh","Libelium","0004A30B0021DF70",44.979,16.7091,"","","Prijedor","",20200000,"2023-06-06T10:39:48",3,"NO ERROR",22.13,100,1001.23,0.31,0.33,0.33],
    [194,363171,"Vazduh","Libelium","0004A30B0021DF70",44.979,16.7091,"","","Prijedor","",20200511,"2023-06-06T11:40:30",3,"NO ERROR",22.84,98,1001.15,0.72,0.82,0.82],
    [195,363171,"Vazduh","Libelium","0004A30B0021DF70",44.979,16.7091,"","","Prijedor","",20201010,"2023-06-06T12:41:12",3,"NO ERROR",24.65,85.3,1000.87,0.27,0.3,0.31],
    [196,363171,"Vazduh","Libelium","0004A30B0021DF70",44.979,16.7091,"","","Prijedor","",20201484,"2023-06-06T13:41:54",3,"NO ERROR",25.5,75.3,1000.56,0.21,0.29,0.29],
    [197,363171,"Vazduh","Libelium","0004A30B0021DF70",44.979,16.7091,"","","Prijedor","",20201976,"2023-06-06T14:42:36",3,"NO ERROR",27.42,64.7,999.89,0.18,0.22,0.22],
    [198,363171,"Vazduh","Libelium","0004A30B0021DF70",44.979,16.7091,"","","Prijedor","",20202459,"2023-06-06T15:43:18",3,"NO ERROR",25.86,73.6,999.7,0.5,0.67,0.76],
    [199,363171,"Vazduh","Libelium","0004A30B0021DF70",44.979,16.7091,"","","Prijedor","",20202903,"2023-06-06T16:44:01",3,"NO ERROR",24.08,77.4,999.51,0.4,0.63,0.74],
    [200,363171,"Vazduh","Libelium","0004A30B0021DF70",44.979,16.7091,"","","Prijedor","",20203345,"2023-06-06T17:44:49",3,"NO ERROR",20.15,100,1000.19,0.79,0.9,0.9],
    [201,363171,"Vazduh","Libelium","0004A30B0021DF70",44.979,16.7091,"","","Prijedor","",20203798,"2023-06-06T18:45:31",3,"NO ERROR",16.88,100,1001.29,0.39,0.59,0.71],
    [202,363171,"Vazduh","Libelium","0004A30B0021DF70",44.979,16.7091,"","","Prijedor","",20204262,"2023-06-06T19:46:25",3,"NO ERROR",16.97,100,1001.49,0.4,0.61,0.74],
    [203,363171,"Vazduh","Libelium","0004A30B0021DF70",44.979,16.7091,"","","Prijedor","",20204719,"2023-06-06T20:47:07",3,"NO ERROR",16.85,100,1001.62,0.88,1.05,1.06],
    [204,363171,"Vazduh","Libelium","0004A30B0021DF70",44.979,16.7091,"","","Prijedor","",20207880,"2023-06-06T21:47:49",3,"NO ERROR",16.82,100,1002.09,0.71,1.1,1.62],
    [205,363171,"Vazduh","Libelium","0004A30B0021DF70",44.979,16.7091,"","","Prijedor","",20209759,"2023-06-06T22:48:31",3,"NO ERROR",16.11,100,1002.22,0.88,1.39,1.66],
    [206,363171,"Vazduh","Libelium","0004A30B0021DF70",44.979,16.7091,"","","Prijedor","",20211251,"2023-06-06T23:49:13",3,"NO ERROR",15.38,100,1002.37,1.41,1.79,1.84],
    [207,363171,"Vazduh","Libelium","0004A30B0021DF70",44.979,16.7091,"","","Prijedor","",20212838,"2023-06-07T00:49:55",3,"NO ERROR",14.75,100,1002.25,5.9,8.42,75.81],
    [208,363171,"Vazduh","Libelium","0004A30B0021DF70",44.979,16.7091,"","","Prijedor","",20214155,"2023-06-07T01:50:37",3,"NO ERROR",14.93,100,1002.15,4.78,7.11,17.47],
    [209,363171,"Vazduh","Libelium","0004A30B0021DF70",44.979,16.7091,"","","Prijedor","",20215319,"2023-06-07T02:51:19",3,"NO ERROR",15.07,100,1002.1,3.35,8.79,296.55],
    [210,363171,"Vazduh","Libelium","0004A30B0021DF70",44.979,16.7091,"","","Prijedor","",20216501,"2023-06-07T03:52:01",3,"NO ERROR",14.58,100,1001.84,3.6,10.28,245.39],
    [211,363171,"Vazduh","Libelium","0004A30B0021DF70",44.979,16.7091,"","","Prijedor","",20217495,"2023-06-07T04:52:44",3,"NO ERROR",14.33,100,1001.82,1.16,2.18,93.81],
    [212,363171,"Vazduh","Libelium","0004A30B0021DF70",44.979,16.7091,"","","Prijedor","",20218000,"2023-06-07T05:53:26",3,"NO ERROR",15,100,1002.04,1.08,2.22,71.68],
    [213,363171,"Vazduh","Libelium","0004A30B0021DF70",44.979,16.7091,"","","Prijedor","",20218539,"2023-06-07T06:54:08",3,"NO ERROR",15.87,100,1002.2,0.47,0.55,0.55],
    [214,363171,"Vazduh","Libelium","0004A30B0021DF70",44.979,16.7091,"","","Prijedor","",20219049,"2023-06-07T07:54:50",3,"NO ERROR",16.77,100,1002.56,0.07,0.07,0.07],
    [215,363171,"Vazduh","Libelium","0004A30B0021DF70",44.979,16.7091,"","","Prijedor","",20219540,"2023-06-07T08:55:31",3,"NO ERROR",23.2,89.1,1002.41,0.32,0.55,0.56],
    [216,363171,"Vazduh","Libelium","0004A30B0021DF70",44.979,16.7091,"","","Prijedor","",20220000,"2023-06-07T09:56:13",3,"NO ERROR",23.52,85,1002.41,0.1,0.13,0.13],
    [217,363171,"Vazduh","Libelium","0004A30B0021DF70",44.979,16.7091,"","","Prijedor","",20220466,"2023-06-07T10:56:55",3,"NO ERROR",24.38,81.4,1002.18,0.17,0.29,0.67],
    [218,363171,"Vazduh","Libelium","0004A30B0021DF70",44.979,16.7091,"","","Prijedor","",20220921,"2023-06-07T11:57:37",3,"NO ERROR",24.1,83.2,1001.96,0.22,0.35,0.47],
    [219,363171,"Vazduh","Libelium","0004A30B0021DF70",44.979,16.7091,"","","Prijedor","",20221430,"2023-06-07T12:58:19",3,"NO ERROR",24.38,80,1001.63,0.08,0.17,0.25],
    [220,363171,"Vazduh","Libelium","0004A30B0021DF70",44.979,16.7091,"","","Prijedor","",20221909,"2023-06-07T13:59:01",3,"NO ERROR",27.11,63.5,1000.87,0.09,0.12,0.12],
    [221,363171,"Vazduh","Libelium","0004A30B0021DF70",44.979,16.7091,"","","Prijedor","",20222409,"2023-06-07T14:59:43",3,"NO ERROR",27.83,62,1000.27,0,0.08,0.38],
    [222,363171,"Vazduh","Libelium","0004A30B0021DF70",44.979,16.7091,"","","Prijedor","",20222873,"2023-06-07T16:00:25",3,"NO ERROR",28.52,56.4,1000.03,0.11,0.13,0.13],
    [223,363171,"Vazduh","Libelium","0004A30B0021DF70",44.979,16.7091,"","","Prijedor","",20223376,"2023-06-07T17:01:07",3,"NO ERROR",27.27,61,999.55,0.1,0.15,0.15],
    [224,363171,"Vazduh","Libelium","0004A30B0021DF70",44.979,16.7091,"","","Prijedor","",20223838,"2023-06-07T18:01:50",3,"NO ERROR",26.13,62.6,999.34,0.07,0.1,0.1],
    [225,363171,"Vazduh","Libelium","0004A30B0021DF70",44.979,16.7091,"","","Prijedor","",20224325,"2023-06-07T19:02:32",3,"NO ERROR",24.83,67.8,999.12,0.11,0.17,0.17],
    [226,363171,"Vazduh","Libelium","0004A30B0021DF70",44.979,16.7091,"","","Prijedor","",20224817,"2023-06-07T20:03:14",3,"NO ERROR",23.71,72.8,999.36,0.13,0.16,0.17],
    [227,363171,"Vazduh","Libelium","0004A30B0021DF70",44.979,16.7091,"","","Prijedor","",20225942,"2023-06-07T21:03:56",3,"NO ERROR",21.53,90.1,999.76,0.7,0.77,0.78],
    [228,363171,"Vazduh","Libelium","0004A30B0021DF70",44.979,16.7091,"","","Prijedor","",20227741,"2023-06-07T22:04:38",3,"NO ERROR",19.94,100,1000.47,0.11,0.17,0.18],
    [229,363171,"Vazduh","Libelium","0004A30B0021DF70",44.979,16.7091,"","","Prijedor","",20229072,"2023-06-07T23:05:20",3,"NO ERROR",18.53,100,1000.36,0.09,0.1,0.1],
    [230,363171,"Vazduh","Libelium","0004A30B0021DF70",44.979,16.7091,"","","Prijedor","",20230492,"2023-06-08T00:06:02",3,"NO ERROR",17.91,100,1000.41,0.14,0.21,0.22],
    [231,363171,"Vazduh","Libelium","0004A30B0021DF70",44.979,16.7091,"","","Prijedor","",20231736,"2023-06-08T01:06:44",3,"NO ERROR",16.93,100,1000.31,0.33,0.61,0.74],
    [232,363171,"Vazduh","Libelium","0004A30B0021DF70",44.979,16.7091,"","","Prijedor","",20232847,"2023-06-08T02:07:26",3,"NO ERROR",16.24,100,1000,0.15,0.2,0.2],
    [233,363171,"Vazduh","Libelium","0004A30B0021DF70",44.979,16.7091,"","","Prijedor","",20233986,"2023-06-08T03:08:08",3,"NO ERROR",15.72,100,1000.03,1.13,1.64,1.71],
    [234,363171,"Vazduh","Libelium","0004A30B0021DF70",44.979,16.7091,"","","Prijedor","",20235145,"2023-06-08T04:08:50",3,"NO ERROR",15.29,100,999.95,0.71,0.87,0.88],
    [235,363171,"Vazduh","Libelium","0004A30B0021DF70",44.979,16.7091,"","","Prijedor","",20235991,"2023-06-08T05:09:32",3,"NO ERROR",14.58,100,1000.3,3.5,5.67,80.35],
    [236,363171,"Vazduh","Libelium","0004A30B0021DF70",44.979,16.7091,"","","Prijedor","",20236485,"2023-06-08T06:10:15",3,"NO ERROR",15.07,100,1000.57,0.43,1.68,112.24],
    [237,363171,"Vazduh","Libelium","0004A30B0021DF70",44.979,16.7091,"","","Prijedor","",20236988,"2023-06-08T07:10:57",3,"NO ERROR",15.89,100,1000.62,0.35,0.54,0.55],
    [238,363171,"Vazduh","Libelium","0004A30B0021DF70",44.979,16.7091,"","","Prijedor","",20237479,"2023-06-08T08:11:39",3,"NO ERROR",18.49,100,1000.44,0.13,0.19,0.19],
    [239,363171,"Vazduh","Libelium","0004A30B0021DF70",44.979,16.7091,"","","Prijedor","",20238016,"2023-06-08T09:12:21",3,"NO ERROR",24.55,83.1,1000.54,0.21,0.27,0.27],
    [240,363171,"Vazduh","Libelium","0004A30B0021DF70",44.979,16.7091,"","","Prijedor","",20238518,"2023-06-08T10:13:03",3,"NO ERROR",25.73,78.9,1000.2,0.22,0.31,0.31],
    [241,363171,"Vazduh","Libelium","0004A30B0021DF70",44.979,16.7091,"","","Prijedor","",20238979,"2023-06-08T11:13:45",3,"NO ERROR",25.97,72.8,999.79,0.05,0.12,0.2],
    [242,363171,"Vazduh","Libelium","0004A30B0021DF70",44.979,16.7091,"","","Prijedor","",20239462,"2023-06-08T12:14:27",3,"NO ERROR",25.66,69.9,999.15,0.1,0.1,0.1],
    [243,363171,"Vazduh","Libelium","0004A30B0021DF70",44.979,16.7091,"","","Prijedor","",20239968,"2023-06-08T13:15:09",3,"NO ERROR",27.97,60.4,998.14,0.02,0.09,0.17],
    [244,363171,"Vazduh","Libelium","0004A30B0021DF70",44.979,16.7091,"","","Prijedor","",20240444,"2023-06-08T14:15:51",3,"NO ERROR",28.12,57.6,997.69,0.06,0.11,0.11],
    [245,363171,"Vazduh","Libelium","0004A30B0021DF70",44.979,16.7091,"","","Prijedor","",20240925,"2023-06-08T15:16:33",3,"NO ERROR",31.92,48.4,997.19,0.08,0.2,1.56],
    [246,363171,"Vazduh","Libelium","0004A30B0021DF70",44.979,16.7091,"","","Prijedor","",20241419,"2023-06-08T16:17:15",3,"NO ERROR",25.8,69.5,997.17,0.34,0.38,0.38],
    [247,363171,"Vazduh","Libelium","0004A30B0021DF70",44.979,16.7091,"","","Prijedor","",20241908,"2023-06-08T17:17:57",3,"NO ERROR",21.03,100,997.93,0.9,1.32,1.49],
    [248,363171,"Vazduh","Libelium","0004A30B0021DF70",44.979,16.7091,"","","Prijedor","",20242381,"2023-06-08T18:18:40",3,"NO ERROR",22.16,100,997.39,0.19,0.21,0.21],
    [249,363171,"Vazduh","Libelium","0004A30B0021DF70",44.979,16.7091,"","","Prijedor","",20242842,"2023-06-08T19:19:28",3,"NO ERROR",21.03,100,997.63,0.45,0.58,0.58],
    [250,363171,"Vazduh","Libelium","0004A30B0021DF70",44.979,16.7091,"","","Prijedor","",20243317,"2023-06-08T20:20:09",3,"NO ERROR",20.2,100,997.3,0.39,0.56,0.59],
    [251,363171,"Vazduh","Libelium","0004A30B0021DF70",44.979,16.7091,"","","Prijedor","",20245271,"2023-06-08T21:20:50",3,"NO ERROR",18.94,100,997.85,0.6,0.75,0.75],
    [252,363171,"Vazduh","Libelium","0004A30B0021DF70",44.979,16.7091,"","","Prijedor","",20247793,"2023-06-08T22:21:31",3,"NO ERROR",18.1,100,998.09,1.13,1.91,2.23],
    [253,363171,"Vazduh","Libelium","0004A30B0021DF70",44.979,16.7091,"","","Prijedor","",20249593,"2023-06-08T23:22:13",3,"NO ERROR",17.35,100,998.43,4.3,8.07,102.09],
    [254,363171,"Vazduh","Libelium","0004A30B0021DF70",44.979,16.7091,"","","Prijedor","",20251279,"2023-06-09T00:22:55",3,"NO ERROR",17.6,100,998.52,1.3,1.63,37.44],
    [255,363171,"Vazduh","Libelium","0004A30B0021DF70",44.979,16.7091,"","","Prijedor","",20252670,"2023-06-09T01:23:37",3,"NO ERROR",17.84,100,997.91,1.45,1.94,2.1],
    [256,363171,"Vazduh","Libelium","0004A30B0021DF70",44.979,16.7091,"","","Prijedor","",20253958,"2023-06-09T02:24:19",3,"NO ERROR",17.52,100,997.85,1.09,1.43,1.46],
    [257,363171,"Vazduh","Libelium","0004A30B0021DF70",44.979,16.7091,"","","Prijedor","",20255136,"2023-06-09T03:25:01",3,"NO ERROR",17.17,100,997.92,2.74,3.57,21.19],
    [258,363171,"Vazduh","Libelium","0004A30B0021DF70",44.979,16.7091,"","","Prijedor","",20256348,"2023-06-09T04:25:43",3,"NO ERROR",17.04,100,997.56,2.89,4.34,47.81],
    [259,363171,"Vazduh","Libelium","0004A30B0021DF70",44.979,16.7091,"","","Prijedor","",20256973,"2023-06-09T05:26:25",3,"NO ERROR",17.2,100,997.97,1.79,2.29,2.42],
    [260,363171,"Vazduh","Libelium","0004A30B0021DF70",44.979,16.7091,"","","Prijedor","",20257483,"2023-06-09T06:27:07",3,"NO ERROR",17.11,100,998.41,1.1,1.46,1.49],
    [261,363171,"Vazduh","Libelium","0004A30B0021DF70",44.979,16.7091,"","","Prijedor","",20257972,"2023-06-09T07:27:49",3,"NO ERROR",17.71,100,998.68,0.44,0.5,0.5],
    [262,363171,"Vazduh","Libelium","0004A30B0021DF70",44.979,16.7091,"","","Prijedor","",20258509,"2023-06-09T08:28:31",3,"NO ERROR",18.42,100,998.99,0.22,0.37,0.39],
    [263,363171,"Vazduh","Libelium","0004A30B0021DF70",44.979,16.7091,"","","Prijedor","",20259009,"2023-06-09T09:29:14",3,"NO ERROR",21.25,100,999.18,0.32,0.38,0.38],
    [264,363171,"Vazduh","Libelium","0004A30B0021DF70",44.979,16.7091,"","","Prijedor","",20259514,"2023-06-09T10:29:56",3,"NO ERROR",22.52,96.8,998.76,0.14,0.23,0.24],
    [265,363171,"Vazduh","Libelium","0004A30B0021DF70",44.979,16.7091,"","","Prijedor","",20259993,"2023-06-09T11:30:38",3,"NO ERROR",23.77,88.6,998.24,0.16,0.28,0.59],
    [266,363171,"Vazduh","Libelium","0004A30B0021DF70",44.979,16.7091,"","","Prijedor","",20260489,"2023-06-09T12:31:20",3,"NO ERROR",26.28,70.6,997.84,0.14,0.29,0.36],
    [267,363171,"Vazduh","Libelium","0004A30B0021DF70",44.979,16.7091,"","","Prijedor","",20260981,"2023-06-09T13:32:02",3,"NO ERROR",27.97,63,997.2,0.09,0.1,0.1],
    [268,363171,"Vazduh","Libelium","0004A30B0021DF70",44.979,16.7091,"","","Prijedor","",20261481,"2023-06-09T14:32:44",3,"NO ERROR",29.49,57.7,996.63,0.07,0.09,0.09],
    [269,363171,"Vazduh","Libelium","0004A30B0021DF70",44.979,16.7091,"","","Prijedor","",20261969,"2023-06-09T15:33:26",3,"NO ERROR",29.9,57.4,996.3,0.06,0.07,0.07],
    [270,363171,"Vazduh","Libelium","0004A30B0021DF70",44.979,16.7091,"","","Prijedor","",20262454,"2023-06-09T16:34:08",3,"NO ERROR",30.74,55.5,996.15,0.15,0.25,0.32],
    [271,363171,"Vazduh","Libelium","0004A30B0021DF70",44.979,16.7091,"","","Prijedor","",20262943,"2023-06-09T17:34:50",3,"NO ERROR",27.74,63.4,995.89,0.07,0.09,0.09],
    [272,363171,"Vazduh","Libelium","0004A30B0021DF70",44.979,16.7091,"","","Prijedor","",20263444,"2023-06-09T18:35:32",3,"NO ERROR",26.69,67.6,995.75,0.26,0.41,0.71],
    [273,363171,"Vazduh","Libelium","0004A30B0021DF70",44.979,16.7091,"","","Prijedor","",20263925,"2023-06-09T19:36:14",3,"NO ERROR",25.21,75.9,995.95,0.8,0.97,1],
    [274,363171,"Vazduh","Libelium","0004A30B0021DF70",44.979,16.7091,"","","Prijedor","",20264420,"2023-06-09T20:36:57",3,"NO ERROR",22.27,87.1,996.38,0.13,0.18,0.18],
    [275,363171,"Vazduh","Libelium","0004A30B0021DF70",44.979,16.7091,"","","Prijedor","",20267235,"2023-06-09T21:37:39",3,"NO ERROR",21.72,86.4,996.75,0.47,0.56,0.56],
    [276,363171,"Vazduh","Libelium","0004A30B0021DF70",44.979,16.7091,"","","Prijedor","",20269408,"2023-06-09T22:38:21",3,"NO ERROR",20.99,94.4,997.16,0.22,0.33,0.34],
    [277,363171,"Vazduh","Libelium","0004A30B0021DF70",44.979,16.7091,"","","Prijedor","",20271078,"2023-06-09T23:39:03",3,"NO ERROR",19.52,100,997.35,0.32,0.39,0.4],
    [278,363171,"Vazduh","Libelium","0004A30B0021DF70",44.979,16.7091,"","","Prijedor","",20272649,"2023-06-10T00:39:44",3,"NO ERROR",19.18,100,997.2,0.1,0.11,0.11],
    [279,363171,"Vazduh","Libelium","0004A30B0021DF70",44.979,16.7091,"","","Prijedor","",20273953,"2023-06-10T01:40:26",3,"NO ERROR",18.33,100,996.98,0.19,0.37,0.45],
    [280,363171,"Vazduh","Libelium","0004A30B0021DF70",44.979,16.7091,"","","Prijedor","",20275182,"2023-06-10T02:41:08",3,"NO ERROR",17.2,100,996.92,0.15,0.22,0.22],
    [281,363171,"Vazduh","Libelium","0004A30B0021DF70",44.979,16.7091,"","","Prijedor","",20276381,"2023-06-10T03:41:50",3,"NO ERROR",16.65,100,996.89,0.21,0.26,0.27],
    [282,363171,"Vazduh","Libelium","0004A30B0021DF70",44.979,16.7091,"","","Prijedor","",20277493,"2023-06-10T04:42:32",3,"NO ERROR",15.43,100,996.9,0.35,0.53,0.54],
    [283,363171,"Vazduh","Libelium","0004A30B0021DF70",44.979,16.7091,"","","Prijedor","",20278036,"2023-06-10T05:43:20",3,"NO ERROR",16.01,100,997.21,0.17,0.38,0.97],
    [284,363171,"Vazduh","Libelium","0004A30B0021DF70",44.979,16.7091,"","","Prijedor","",20278528,"2023-06-10T06:44:02",3,"NO ERROR",17.93,100,997.54,0.16,0.28,0.29],
    [285,363171,"Vazduh","Libelium","0004A30B0021DF70",44.979,16.7091,"","","Prijedor","",20279023,"2023-06-10T07:44:51",3,"NO ERROR",24.54,76.1,997.6,0.29,0.35,0.35],
    [286,363171,"Vazduh","Libelium","0004A30B0021DF70",44.979,16.7091,"","","Prijedor","",20279512,"2023-06-10T08:45:32",3,"NO ERROR",24.9,74,997.5,0.16,0.26,0.26],
    [287,363171,"Vazduh","Libelium","0004A30B0021DF70",44.979,16.7091,"","","Prijedor","",20280009,"2023-06-10T09:46:15",3,"NO ERROR",26.63,68.6,997.16,0.19,0.25,0.25],
    [288,363171,"Vazduh","Libelium","0004A30B0021DF70",44.979,16.7091,"","","Prijedor","",20280508,"2023-06-10T10:46:57",3,"NO ERROR",27.6,68.8,997.04,0.24,0.29,0.29],
    [289,363171,"Vazduh","Libelium","0004A30B0021DF70",44.979,16.7091,"","","Prijedor","",20280998,"2023-06-10T11:47:39",3,"NO ERROR",27.83,67.7,996.33,0.21,0.26,0.27],
    [290,363171,"Vazduh","Libelium","0004A30B0021DF70",44.979,16.7091,"","","Prijedor","",20281498,"2023-06-10T12:48:21",3,"NO ERROR",25.57,80.4,996.19,0.21,0.27,0.28],
    [291,363171,"Vazduh","Libelium","0004A30B0021DF70",44.979,16.7091,"","","Prijedor","",20281991,"2023-06-10T13:49:03",3,"NO ERROR",27.99,67.8,995.7,0.17,0.23,0.23],
    [292,363171,"Vazduh","Libelium","0004A30B0021DF70",44.979,16.7091,"","","Prijedor","",20282475,"2023-06-10T14:49:45",3,"NO ERROR",26.97,70.2,995.24,0.18,0.21,0.21],
    [293,363171,"Vazduh","Libelium","0004A30B0021DF70",44.979,16.7091,"","","Prijedor","",20282980,"2023-06-10T15:50:27",3,"NO ERROR",26.29,71.7,995.45,0.21,0.26,0.27],
    [294,363171,"Vazduh","Libelium","0004A30B0021DF70",44.979,16.7091,"","","Prijedor","",20283492,"2023-06-10T16:51:09",3,"NO ERROR",27.67,65.9,995.25,0.13,0.19,0.2],
    [295,363171,"Vazduh","Libelium","0004A30B0021DF70",44.979,16.7091,"","","Prijedor","",20283973,"2023-06-10T17:51:51",3,"NO ERROR",24.22,80,995.17,0.59,0.81,0.81],
    [296,363171,"Vazduh","Libelium","0004A30B0021DF70",44.979,16.7091,"","","Prijedor","",20284452,"2023-06-10T18:52:33",3,"NO ERROR",22.49,87.9,995.67,0.56,0.72,0.74],
    [297,363171,"Vazduh","Libelium","0004A30B0021DF70",44.979,16.7091,"","","Prijedor","",20284937,"2023-06-10T19:53:15",3,"NO ERROR",21.85,98.3,996.03,0.46,0.59,0.59],
    [298,363171,"Vazduh","Libelium","0004A30B0021DF70",44.979,16.7091,"","","Prijedor","",20285468,"2023-06-10T20:53:57",3,"NO ERROR",21.54,97.4,996.2,0.13,0.14,0.14],
    [299,363171,"Vazduh","Libelium","0004A30B0021DF70",44.979,16.7091,"","","Prijedor","",20288694,"2023-06-10T21:54:40",3,"NO ERROR",20.38,100,996.63,0.3,0.38,0.38],
    [300,363171,"Vazduh","Libelium","0004A30B0021DF70",44.979,16.7091,"","","Prijedor","",20290681,"2023-06-10T22:55:22",3,"NO ERROR",19.07,100,996.93,0.62,0.79,0.79],
    [301,363171,"Vazduh","Libelium","0004A30B0021DF70",44.979,16.7091,"","","Prijedor","",20292210,"2023-06-10T23:56:04",3,"NO ERROR",18.63,100,996.76,0.1,0.13,0.14],
    [302,363171,"Vazduh","Libelium","0004A30B0021DF70",44.979,16.7091,"","","Prijedor","",20293823,"2023-06-11T00:56:46",3,"NO ERROR",18.66,100,996.61,0.12,0.15,0.16],
    [303,363171,"Vazduh","Libelium","0004A30B0021DF70",44.979,16.7091,"","","Prijedor","",20295148,"2023-06-11T01:57:28",3,"NO ERROR",18.32,100,996.5,0.62,0.77,0.77],
    [304,363171,"Vazduh","Libelium","0004A30B0021DF70",44.979,16.7091,"","","Prijedor","",20296453,"2023-06-11T02:58:10",3,"NO ERROR",17.57,100,996.42,1.61,1.92,1.96],
    [305,363171,"Vazduh","Libelium","0004A30B0021DF70",44.979,16.7091,"","","Prijedor","",20297636,"2023-06-11T03:58:58",3,"NO ERROR",17.22,100,996.4,1.86,2.74,9.11],
    [306,363171,"Vazduh","Libelium","0004A30B0021DF70",44.979,16.7091,"","","Prijedor","",20298620,"2023-06-11T04:59:39",3,"NO ERROR",16.85,100,996.47,4.08,6.38,20.75],
    [307,363171,"Vazduh","Libelium","0004A30B0021DF70",44.979,16.7091,"","","Prijedor","",20299121,"2023-06-11T06:00:21",3,"NO ERROR",17.13,100,996.57,0.24,0.29,0.29],
    [308,363171,"Vazduh","Libelium","0004A30B0021DF70",44.979,16.7091,"","","Prijedor","",20299656,"2023-06-11T07:01:03",3,"NO ERROR",18.11,100,996.68,0.08,0.09,0.09],
    [309,363171,"Vazduh","Libelium","0004A30B0021DF70",44.979,16.7091,"","","Prijedor","",20300160,"2023-06-11T08:01:45",3,"NO ERROR",19.19,100,997,0.27,0.35,0.35],
    [310,363171,"Vazduh","Libelium","0004A30B0021DF70",44.979,16.7091,"","","Prijedor","",20300724,"2023-06-11T09:02:27",3,"NO ERROR",20.23,100,997.2,0.55,0.68,0.68],
    [311,363171,"Vazduh","Libelium","0004A30B0021DF70",44.979,16.7091,"","","Prijedor","",20301202,"2023-06-11T10:03:09",3,"NO ERROR",20.83,100,997.12,0.2,0.23,0.23],
    [312,363171,"Vazduh","Libelium","0004A30B0021DF70",44.979,16.7091,"","","Prijedor","",20301736,"2023-06-11T11:03:51",3,"NO ERROR",22.71,100,996.96,0.22,0.25,0.25],
    [313,363171,"Vazduh","Libelium","0004A30B0021DF70",44.979,16.7091,"","","Prijedor","",20302223,"2023-06-11T12:04:34",3,"NO ERROR",22.65,100,997.15,0.64,0.7,0.7],
    [314,363171,"Vazduh","Libelium","0004A30B0021DF70",44.979,16.7091,"","","Prijedor","",20302746,"2023-06-11T13:05:16",3,"NO ERROR",20.2,100,997.17,0.79,1.09,1.2],
    [315,363171,"Vazduh","Libelium","0004A30B0021DF70",44.979,16.7091,"","","Prijedor","",20303204,"2023-06-11T14:05:58",3,"NO ERROR",22.12,100,997.24,0.19,0.26,0.27],
    [316,363171,"Vazduh","Libelium","0004A30B0021DF70",44.979,16.7091,"","","Prijedor","",20303698,"2023-06-11T15:06:40",3,"NO ERROR",23.2,96.3,997.14,0.07,0.07,0.07],
    [317,363171,"Vazduh","Libelium","0004A30B0021DF70",44.979,16.7091,"","","Prijedor","",20304190,"2023-06-11T16:07:22",3,"NO ERROR",23.34,93.9,997.1,0.11,0.17,0.39],
    [318,363171,"Vazduh","Libelium","0004A30B0021DF70",44.979,16.7091,"","","Prijedor","",20304738,"2023-06-11T17:08:04",3,"NO ERROR",24.15,89,997.06,0.31,0.44,0.54],
    [319,363171,"Vazduh","Libelium","0004A30B0021DF70",44.979,16.7091,"","","Prijedor","",20305229,"2023-06-11T18:08:46",3,"NO ERROR",20.63,100,997.25,0.52,0.89,2.23],
    [320,363171,"Vazduh","Libelium","0004A30B0021DF70",44.979,16.7091,"","","Prijedor","",20305714,"2023-06-11T19:09:28",3,"NO ERROR",19.02,100,997.43,0.08,0.1,0.1],
    [321,363171,"Vazduh","Libelium","0004A30B0021DF70",44.979,16.7091,"","","Prijedor","",20306216,"2023-06-11T20:10:09",3,"NO ERROR",18.94,100,997.43,0.42,0.68,0.73],
    [322,363171,"Vazduh","Libelium","0004A30B0021DF70",44.979,16.7091,"","","Prijedor","",20307618,"2023-06-11T21:10:51",3,"NO ERROR",19.05,100,997.92,0.5,0.62,0.62],
    [323,363171,"Vazduh","Libelium","0004A30B0021DF70",44.979,16.7091,"","","Prijedor","",20310349,"2023-06-11T22:11:33",3,"NO ERROR",18.47,100,998.14,0.24,0.3,0.31],
    [324,363171,"Vazduh","Libelium","0004A30B0021DF70",44.979,16.7091,"","","Prijedor","",20312075,"2023-06-11T23:12:15",3,"NO ERROR",17.63,100,998.21,1.35,1.63,1.64],
    [325,363171,"Vazduh","Libelium","0004A30B0021DF70",44.979,16.7091,"","","Prijedor","",20313595,"2023-06-12T00:12:57",3,"NO ERROR",17.66,100,998.22,1.02,1.34,2.6],
    [326,363171,"Vazduh","Libelium","0004A30B0021DF70",44.979,16.7091,"","","Prijedor","",20314874,"2023-06-12T01:13:40",3,"NO ERROR",17.46,100,998.08,1.64,1.86,1.87],
    [327,363171,"Vazduh","Libelium","0004A30B0021DF70",44.979,16.7091,"","","Prijedor","",20316067,"2023-06-12T02:14:22",3,"NO ERROR",17.55,100,998.05,1.21,1.42,1.42],
    [328,363171,"Vazduh","Libelium","0004A30B0021DF70",44.979,16.7091,"","","Prijedor","",20317261,"2023-06-12T03:15:04",3,"NO ERROR",17.25,100,997.91,1.8,2.07,2.08],
    [329,363171,"Vazduh","Libelium","0004A30B0021DF70",44.979,16.7091,"","","Prijedor","",20318452,"2023-06-12T04:15:46",3,"NO ERROR",17.06,100,997.82,0.99,1.31,4.68],
    [330,363171,"Vazduh","Libelium","0004A30B0021DF70",44.979,16.7091,"","","Prijedor","",20319209,"2023-06-12T05:16:27",3,"NO ERROR",16.92,100,998.17,1.23,1.48,1.48],
    [331,363171,"Vazduh","Libelium","0004A30B0021DF70",44.979,16.7091,"","","Prijedor","",20319715,"2023-06-12T06:17:09",3,"NO ERROR",17.16,100,998.51,0.89,1.08,1.08],
    [332,363171,"Vazduh","Libelium","0004A30B0021DF70",44.979,16.7091,"","","Prijedor","",20320213,"2023-06-12T07:17:51",3,"NO ERROR",17.8,100,998.65,0.23,0.29,0.29],
    [333,363171,"Vazduh","Libelium","0004A30B0021DF70",44.979,16.7091,"","","Prijedor","",20320741,"2023-06-12T08:18:33",3,"NO ERROR",17.56,100,998.98,0.44,0.62,0.62],
    [334,363171,"Vazduh","Libelium","0004A30B0021DF70",44.979,16.7091,"","","Prijedor","",20321257,"2023-06-12T09:19:15",3,"NO ERROR",18.23,100,999.28,0.12,0.19,0.2],
    [335,363171,"Vazduh","Libelium","0004A30B0021DF70",44.979,16.7091,"","","Prijedor","",20321750,"2023-06-12T10:19:57",3,"NO ERROR",22.28,100,999.43,0.18,0.2,0.2],
    [336,363171,"Vazduh","Libelium","0004A30B0021DF70",44.979,16.7091,"","","Prijedor","",20322220,"2023-06-12T11:20:45",3,"NO ERROR",22.62,85.5,999.54,0.17,0.47,0.6],
    [337,363171,"Vazduh","Libelium","0004A30B0021DF70",44.979,16.7091,"","","Prijedor","",20322734,"2023-06-12T12:21:27",3,"NO ERROR",23.99,73.3,999.3,0.12,0.29,0.76],
    [338,363171,"Vazduh","Libelium","0004A30B0021DF70",44.979,16.7091,"","","Prijedor","",20323238,"2023-06-12T13:22:09",3,"NO ERROR",25.28,65.9,998.77,0.47,0.69,0.69],
    [339,363171,"Vazduh","Libelium","0004A30B0021DF70",44.979,16.7091,"","","Prijedor","",20323725,"2023-06-12T14:22:51",3,"NO ERROR",26.03,59,998.33,0.09,0.16,0.18],
    [340,363171,"Vazduh","Libelium","0004A30B0021DF70",44.979,16.7091,"","","Prijedor","",20324240,"2023-06-12T15:23:34",3,"NO ERROR",27.31,49.9,997.97,0.06,0.08,0.09],
    [341,363171,"Vazduh","Libelium","0004A30B0021DF70",44.979,16.7091,"","","Prijedor","",20324725,"2023-06-12T16:24:16",3,"NO ERROR",28.14,47.1,997.62,0.11,0.19,0.2],
    [342,363171,"Vazduh","Libelium","0004A30B0021DF70",44.979,16.7091,"","","Prijedor","",20325217,"2023-06-12T17:24:58",3,"NO ERROR",28.58,43.3,997.38,0.11,0.16,0.16],
    [343,363171,"Vazduh","Libelium","0004A30B0021DF70",44.979,16.7091,"","","Prijedor","",20325719,"2023-06-12T18:25:46",3,"NO ERROR",24.36,52,997.26,0.11,0.12,0.12],
    [344,363171,"Vazduh","Libelium","0004A30B0021DF70",44.979,16.7091,"","","Prijedor","",20326209,"2023-06-12T19:26:27",3,"NO ERROR",23.29,57.1,997.71,0.06,0.1,0.1],
    [345,363171,"Vazduh","Libelium","0004A30B0021DF70",44.979,16.7091,"","","Prijedor","",20326720,"2023-06-12T20:27:09",3,"NO ERROR",21.72,64.2,997.9,0.03,0.03,0.03],
    [346,363171,"Vazduh","Libelium","0004A30B0021DF70",44.979,16.7091,"","","Prijedor","",20328752,"2023-06-12T21:27:51",3,"NO ERROR",20.6,75.7,998.66,0.19,0.31,0.66],
    [347,363171,"Vazduh","Libelium","0004A30B0021DF70",44.979,16.7091,"","","Prijedor","",20330752,"2023-06-12T22:28:33",3,"NO ERROR",20.55,80.3,998.81,0.24,0.32,0.33],
    [348,363171,"Vazduh","Libelium","0004A30B0021DF70",44.979,16.7091,"","","Prijedor","",20332023,"2023-06-12T23:29:15",3,"NO ERROR",18.2,99.3,998.7,0.23,0.35,0.37],
    [349,363171,"Vazduh","Libelium","0004A30B0021DF70",44.979,16.7091,"","","Prijedor","",20333432,"2023-06-13T00:29:56",3,"NO ERROR",16.1,100,998.64,0.13,0.21,0.23],
    [350,363171,"Vazduh","Libelium","0004A30B0021DF70",44.979,16.7091,"","","Prijedor","",20334650,"2023-06-13T01:30:38",3,"NO ERROR",14.51,100,998.4,0.15,0.23,0.25],
    [351,363171,"Vazduh","Libelium","0004A30B0021DF70",44.979,16.7091,"","","Prijedor","",20335832,"2023-06-13T02:31:21",3,"NO ERROR",14.09,100,998.15,0.39,0.58,0.71],
    [352,363171,"Vazduh","Libelium","0004A30B0021DF70",44.979,16.7091,"","","Prijedor","",20337020,"2023-06-13T03:32:03",3,"NO ERROR",13.51,100,997.91,0.12,0.16,0.17],
    [353,363171,"Vazduh","Libelium","0004A30B0021DF70",44.979,16.7091,"","","Prijedor","",20338221,"2023-06-13T04:32:45",3,"NO ERROR",12.78,100,997.83,0.53,0.69,0.71],
    [354,363171,"Vazduh","Libelium","0004A30B0021DF70",44.979,16.7091,"","","Prijedor","",20338814,"2023-06-13T05:33:27",3,"NO ERROR",12.93,100,998.43,0.12,0.23,0.29],
    [355,363171,"Vazduh","Libelium","0004A30B0021DF70",44.979,16.7091,"","","Prijedor","",20339304,"2023-06-13T06:34:09",3,"NO ERROR",14.47,100,998.67,0.77,1.14,1.6],
    [356,363171,"Vazduh","Libelium","0004A30B0021DF70",44.979,16.7091,"","","Prijedor","",20339773,"2023-06-13T07:34:51",3,"NO ERROR",20.36,93.3,998.55,0.12,0.15,0.15],
    [357,363171,"Vazduh","Libelium","0004A30B0021DF70",44.979,16.7091,"","","Prijedor","",20340213,"2023-06-13T08:35:33",3,"NO ERROR",22.42,73,998.71,0.44,0.56,0.66],
    [358,363171,"Vazduh","Libelium","0004A30B0021DF70",44.979,16.7091,"","","Prijedor","",20340663,"2023-06-13T09:36:21",3,"NO ERROR",22.89,67.8,998.56,0.11,0.17,0.18],
    [359,363171,"Vazduh","Libelium","0004A30B0021DF70",44.979,16.7091,"","","Prijedor","",20341131,"2023-06-13T10:37:03",3,"NO ERROR",24.01,66.6,998.29,0.26,0.69,1.05],
    [360,363171,"Vazduh","Libelium","0004A30B0021DF70",44.979,16.7091,"","","Prijedor","",20341575,"2023-06-13T11:37:45",3,"NO ERROR",23.93,62.2,997.82,0.13,0.16,0.16],
    [361,363171,"Vazduh","Libelium","0004A30B0021DF70",44.979,16.7091,"","","Prijedor","",20342006,"2023-06-13T12:38:27",3,"NO ERROR",23.75,55.5,997.33,0.29,0.45,0.45],
    [362,363171,"Vazduh","Libelium","0004A30B0021DF70",44.979,16.7091,"","","Prijedor","",20342504,"2023-06-13T13:39:08",3,"NO ERROR",24.65,47.8,996.96,0.1,0.14,0.15],
    [363,363171,"Vazduh","Libelium","0004A30B0021DF70",44.979,16.7091,"","","Prijedor","",20342954,"2023-06-13T14:39:50",3,"NO ERROR",26.07,46.6,996.21,0.4,0.64,2.25],
    [364,363171,"Vazduh","Libelium","0004A30B0021DF70",44.979,16.7091,"","","Prijedor","",20343415,"2023-06-13T15:40:33",3,"NO ERROR",27.23,44.6,995.81,0.12,0.26,0.62],
    [365,363171,"Vazduh","Libelium","0004A30B0021DF70",44.979,16.7091,"","","Prijedor","",20343871,"2023-06-13T16:41:15",3,"NO ERROR",26.72,43.2,995.72,0.07,0.08,0.08],
    [366,363171,"Vazduh","Libelium","0004A30B0021DF70",44.979,16.7091,"","","Prijedor","",20344339,"2023-06-13T17:41:57",3,"NO ERROR",28.65,40.1,995.55,0.03,0.03,0.03],
    [367,363171,"Vazduh","Libelium","0004A30B0021DF70",44.979,16.7091,"","","Prijedor","",20344829,"2023-06-13T18:42:39",3,"NO ERROR",24.48,46,995.82,0.05,0.15,0.22],
    [368,363171,"Vazduh","Libelium","0004A30B0021DF70",44.979,16.7091,"","","Prijedor","",20345299,"2023-06-13T19:43:20",3,"NO ERROR",23.48,52.3,995.73,0.21,0.33,5.11],
    [369,363171,"Vazduh","Libelium","0004A30B0021DF70",44.979,16.7091,"","","Prijedor","",20345769,"2023-06-13T20:44:02",3,"NO ERROR",21.47,62.2,996.11,0.26,0.46,0.8],
    [370,363171,"Vazduh","Libelium","0004A30B0021DF70",44.979,16.7091,"","","Prijedor","",20348436,"2023-06-13T21:44:44",3,"NO ERROR",19.39,74.3,996.78,0.55,0.78,0.9],
    [371,363171,"Vazduh","Libelium","0004A30B0021DF70",44.979,16.7091,"","","Prijedor","",20350306,"2023-06-13T22:45:26",3,"NO ERROR",17.55,93.2,997.14,0.74,1.05,1.1],
    [372,363171,"Vazduh","Libelium","0004A30B0021DF70",44.979,16.7091,"","","Prijedor","",20351837,"2023-06-13T23:46:08",3,"NO ERROR",16.41,100,997.23,0.17,0.18,0.18],
    [373,363171,"Vazduh","Libelium","0004A30B0021DF70",44.979,16.7091,"","","Prijedor","",20353296,"2023-06-14T00:46:50",3,"NO ERROR",14.8,100,997.1,0.46,0.59,0.6],
    [374,363171,"Vazduh","Libelium","0004A30B0021DF70",44.979,16.7091,"","","Prijedor","",20354541,"2023-06-14T01:47:32",3,"NO ERROR",13.87,100,997.33,0.5,0.86,1.47],
    [375,363171,"Vazduh","Libelium","0004A30B0021DF70",44.979,16.7091,"","","Prijedor","",20355762,"2023-06-14T02:48:21",3,"NO ERROR",13.14,100,996.86,0.5,0.64,0.64],
    [376,363171,"Vazduh","Libelium","0004A30B0021DF70",44.979,16.7091,"","","Prijedor","",20356924,"2023-06-14T03:49:02",3,"NO ERROR",12.59,100,996.8,0.14,0.18,0.19],
    [377,363171,"Vazduh","Libelium","0004A30B0021DF70",44.979,16.7091,"","","Prijedor","",20357998,"2023-06-14T04:49:45",3,"NO ERROR",12.13,100,997.08,0.59,0.96,1.83],
    [378,363171,"Vazduh","Libelium","0004A30B0021DF70",44.979,16.7091,"","","Prijedor","",20358517,"2023-06-14T05:50:27",3,"NO ERROR",12.69,100,997.32,0.33,0.49,0.51],
    [379,363171,"Vazduh","Libelium","0004A30B0021DF70",44.979,16.7091,"","","Prijedor","",20359042,"2023-06-14T06:51:09",3,"NO ERROR",16.81,98.8,997.57,0.47,0.85,1.63],
    [380,363171,"Vazduh","Libelium","0004A30B0021DF70",44.979,16.7091,"","","Prijedor","",20359546,"2023-06-14T07:51:51",3,"NO ERROR",19.79,81.6,997.64,0.46,0.6,0.61],
    [381,363171,"Vazduh","Libelium","0004A30B0021DF70",44.979,16.7091,"","","Prijedor","",20360079,"2023-06-14T08:52:33",3,"NO ERROR",21.18,72.6,997.94,0.46,0.6,0.6],
    [382,363171,"Vazduh","Libelium","0004A30B0021DF70",44.979,16.7091,"","","Prijedor","",20360577,"2023-06-14T09:53:15",3,"NO ERROR",23.09,65.4,997.93,0.26,0.49,0.6],
    [383,363171,"Vazduh","Libelium","0004A30B0021DF70",44.979,16.7091,"","","Prijedor","",20361134,"2023-06-14T10:53:56",3,"NO ERROR",24.34,60.7,997.69,0.34,0.37,0.37],
    [384,363171,"Vazduh","Libelium","0004A30B0021DF70",44.979,16.7091,"","","Prijedor","",20361687,"2023-06-14T11:54:38",3,"NO ERROR",25.3,56,997.4,0.14,0.24,2.84],
    [385,363171,"Vazduh","Libelium","0004A30B0021DF70",44.979,16.7091,"","","Prijedor","",20362253,"2023-06-14T12:55:19",3,"NO ERROR",26.05,55.9,997.02,0.55,0.9,1.08],
    [386,363171,"Vazduh","Libelium","0004A30B0021DF70",44.979,16.7091,"","","Prijedor","",20362728,"2023-06-14T13:56:01",3,"NO ERROR",26.54,53.3,996.74,0.35,0.56,2.26],
    [387,363171,"Vazduh","Libelium","0004A30B0021DF70",44.979,16.7091,"","","Prijedor","",20363229,"2023-06-14T14:56:43",3,"NO ERROR",26.91,51,996.47,0.35,0.54,0.86],
    [388,363171,"Vazduh","Libelium","0004A30B0021DF70",44.979,16.7091,"","","Prijedor","",20363706,"2023-06-14T15:57:25",3,"NO ERROR",26.16,52.5,996.47,0.18,0.23,0.23],
    [389,363171,"Vazduh","Libelium","0004A30B0021DF70",44.979,16.7091,"","","Prijedor","",20364209,"2023-06-14T16:58:08",3,"NO ERROR",25.37,54.7,996.63,0.19,0.2,0.2],
    [390,363171,"Vazduh","Libelium","0004A30B0021DF70",44.979,16.7091,"","","Prijedor","",20364689,"2023-06-14T17:58:50",3,"NO ERROR",24.4,62.7,996.89,0.43,0.51,0.51],
    [391,363171,"Vazduh","Libelium","0004A30B0021DF70",44.979,16.7091,"","","Prijedor","",20365181,"2023-06-14T18:59:32",3,"NO ERROR",23.48,66.4,997.29,0.36,0.44,0.45],
    [392,363171,"Vazduh","Libelium","0004A30B0021DF70",44.979,16.7091,"","","Prijedor","",20365670,"2023-06-14T20:00:14",3,"NO ERROR",22.53,69.6,997.9,0.48,0.68,0.7],
    [393,363171,"Vazduh","Libelium","0004A30B0021DF70",44.979,16.7091,"","","Prijedor","",20366353,"2023-06-14T21:00:56",3,"NO ERROR",21.91,72.9,998.2,0.49,0.57,0.57],
    [394,363171,"Vazduh","Libelium","0004A30B0021DF70",44.979,16.7091,"","","Prijedor","",20369481,"2023-06-14T22:01:38",3,"NO ERROR",20.04,95.4,998.69,0.54,0.62,0.62],
    [395,363171,"Vazduh","Libelium","0004A30B0021DF70",44.979,16.7091,"","","Prijedor","",20371473,"2023-06-14T23:02:19",3,"NO ERROR",19.51,100,998.76,0.32,0.44,0.75],
    [396,363171,"Vazduh","Libelium","0004A30B0021DF70",44.979,16.7091,"","","Prijedor","",20373241,"2023-06-15T00:03:01",3,"NO ERROR",18.51,100,998.88,0.76,0.89,0.89],
    [397,363171,"Vazduh","Libelium","0004A30B0021DF70",44.979,16.7091,"","","Prijedor","",20374791,"2023-06-15T01:03:43",3,"NO ERROR",17.91,100,998.87,0.66,0.81,0.81],
    [398,363171,"Vazduh","Libelium","0004A30B0021DF70",44.979,16.7091,"","","Prijedor","",20376069,"2023-06-15T02:04:25",3,"NO ERROR",17.6,100,998.53,0.46,0.57,0.57],
    [399,363171,"Vazduh","Libelium","0004A30B0021DF70",44.979,16.7091,"","","Prijedor","",20377300,"2023-06-15T03:05:06",3,"NO ERROR",17.69,100,998.37,0.51,0.65,0.65],
    [400,363171,"Vazduh","Libelium","0004A30B0021DF70",44.979,16.7091,"","","Prijedor","",20378500,"2023-06-15T04:05:48",3,"NO ERROR",17.79,100,998.11,0.42,0.54,0.55],
    [401,363171,"Vazduh","Libelium","0004A30B0021DF70",44.979,16.7091,"","","Prijedor","",20379396,"2023-06-15T05:06:29",3,"NO ERROR",18.18,98.3,998.21,0.2,0.26,0.26],
    [402,363171,"Vazduh","Libelium","0004A30B0021DF70",44.979,16.7091,"","","Prijedor","",20379883,"2023-06-15T06:07:11",3,"NO ERROR",17.68,98.9,998.8,0.46,0.76,0.82],
    [403,363171,"Vazduh","Libelium","0004A30B0021DF70",44.979,16.7091,"","","Prijedor","",20380367,"2023-06-15T07:07:54",3,"NO ERROR",18.32,92,999.13,0.42,0.83,1.71],
    [404,363171,"Vazduh","Libelium","0004A30B0021DF70",44.979,16.7091,"","","Prijedor","",20380857,"2023-06-15T08:08:42",3,"NO ERROR",19.67,88.1,999.49,0.28,0.38,0.39],
    [405,363171,"Vazduh","Libelium","0004A30B0021DF70",44.979,16.7091,"","","Prijedor","",20381363,"2023-06-15T09:09:23",3,"NO ERROR",21.71,80.8,999.8,0.33,0.44,0.44],
    [406,363171,"Vazduh","Libelium","0004A30B0021DF70",44.979,16.7091,"","","Prijedor","",20381816,"2023-06-15T10:10:10",3,"NO ERROR",23.22,73.8,999.78,0.43,0.61,0.63],
    [407,363171,"Vazduh","Libelium","0004A30B0021DF70",44.979,16.7091,"","","Prijedor","",20382299,"2023-06-15T11:10:51",3,"NO ERROR",24.32,63.8,999.94,0.17,0.29,0.37],
    [408,363171,"Vazduh","Libelium","0004A30B0021DF70",44.979,16.7091,"","","Prijedor","",20382783,"2023-06-15T12:11:33",3,"NO ERROR",23.92,64.5,999.82,0.3,0.39,0.39],
    [409,363171,"Vazduh","Libelium","0004A30B0021DF70",44.979,16.7091,"","","Prijedor","",20383306,"2023-06-15T13:12:15",3,"NO ERROR",23.92,61.8,999.6,0.12,0.15,0.15],
    [410,363171,"Vazduh","Libelium","0004A30B0021DF70",44.979,16.7091,"","","Prijedor","",20383854,"2023-06-15T14:12:56",3,"NO ERROR",24.43,60.7,999.33,0.46,0.5,0.5],
    [411,363171,"Vazduh","Libelium","0004A30B0021DF70",44.979,16.7091,"","","Prijedor","",20384349,"2023-06-15T15:13:38",3,"NO ERROR",22.06,72.9,999.42,0.43,0.63,0.65],
    [412,363171,"Vazduh","Libelium","0004A30B0021DF70",44.979,16.7091,"","","Prijedor","",20384837,"2023-06-15T16:14:25",3,"NO ERROR",19.89,84.5,999.78,0.27,0.38,0.48],
    [413,363171,"Vazduh","Libelium","0004A30B0021DF70",44.979,16.7091,"","","Prijedor","",20385356,"2023-06-15T17:15:07",3,"NO ERROR",18.23,100,999.84,0.45,0.65,1.03],
    [414,363171,"Vazduh","Libelium","0004A30B0021DF70",44.979,16.7091,"","","Prijedor","",20385860,"2023-06-15T18:15:49",3,"NO ERROR",17.81,100,999.89,0.47,0.56,0.56],
    [415,363171,"Vazduh","Libelium","0004A30B0021DF70",44.979,16.7091,"","","Prijedor","",20386348,"2023-06-15T19:16:32",3,"NO ERROR",17.24,100,1000.03,0.42,0.51,0.51],
    [416,363171,"Vazduh","Libelium","0004A30B0021DF70",44.979,16.7091,"","","Prijedor","",20386881,"2023-06-15T20:17:14",3,"NO ERROR",16.76,100,1000.07,0.45,0.6,0.62],
    [417,363171,"Vazduh","Libelium","0004A30B0021DF70",44.979,16.7091,"","","Prijedor","",20388501,"2023-06-15T21:17:56",3,"NO ERROR",16.55,100,1000.31,0.29,0.34,0.34],
    [418,363171,"Vazduh","Libelium","0004A30B0021DF70",44.979,16.7091,"","","Prijedor","",20390773,"2023-06-15T22:18:38",3,"NO ERROR",16.38,100,1000.53,0.6,0.88,1.02],
    [419,363171,"Vazduh","Libelium","0004A30B0021DF70",44.979,16.7091,"","","Prijedor","",20392482,"2023-06-15T23:19:20",3,"NO ERROR",16.1,100,1000.31,0.64,0.71,0.71],
    [420,363171,"Vazduh","Libelium","0004A30B0021DF70",44.979,16.7091,"","","Prijedor","",20394100,"2023-06-16T00:20:01",3,"NO ERROR",15.75,100,1000.12,0.68,0.82,0.83],
    [421,363171,"Vazduh","Libelium","0004A30B0021DF70",44.979,16.7091,"","","Prijedor","",20395443,"2023-06-16T01:20:42",3,"NO ERROR",15.79,100,999.79,0.21,0.36,0.44],
    [422,363171,"Vazduh","Libelium","0004A30B0021DF70",44.979,16.7091,"","","Prijedor","",20396659,"2023-06-16T02:21:24",3,"NO ERROR",15.18,100,999.52,0.68,0.81,0.82],
    [423,363171,"Vazduh","Libelium","0004A30B0021DF70",44.979,16.7091,"","","Prijedor","",20397813,"2023-06-16T03:22:05",3,"NO ERROR",14.82,100,999.37,0.72,1.1,2.95],
    [424,363171,"Vazduh","Libelium","0004A30B0021DF70",44.979,16.7091,"","","Prijedor","",20399008,"2023-06-16T04:22:46",3,"NO ERROR",13.96,100,998.96,3.37,5.72,67.79],
    [425,363171,"Vazduh","Libelium","0004A30B0021DF70",44.979,16.7091,"","","Prijedor","",20399682,"2023-06-16T05:23:28",3,"NO ERROR",14.11,100,999.05,1.66,3.08,14.81],
    [426,363171,"Vazduh","Libelium","0004A30B0021DF70",44.979,16.7091,"","","Prijedor","",20400186,"2023-06-16T06:24:10",3,"NO ERROR",13.53,100,999.18,11.02,16.48,112.09],
    [427,363171,"Vazduh","Libelium","0004A30B0021DF70",44.979,16.7091,"","","Prijedor","",20400698,"2023-06-16T07:24:51",3,"NO ERROR",14.32,100,999.27,0.63,2.17,62.31],
    [428,363171,"Vazduh","Libelium","0004A30B0021DF70",44.979,16.7091,"","","Prijedor","",20401201,"2023-06-16T08:25:33",3,"NO ERROR",15.54,100,999.67,0.06,0.08,0.09],
    [429,363171,"Vazduh","Libelium","0004A30B0021DF70",44.979,16.7091,"","","Prijedor","",20401701,"2023-06-16T09:26:22",3,"NO ERROR",20.94,89.6,999.47,0,0,0],
    [430,363171,"Vazduh","Libelium","0004A30B0021DF70",44.979,16.7091,"","","Prijedor","",20402221,"2023-06-16T10:27:04",3,"NO ERROR",21.66,85.8,998.87,0.02,0.09,0.17],
    [431,363171,"Vazduh","Libelium","0004A30B0021DF70",44.979,16.7091,"","","Prijedor","",20402720,"2023-06-16T11:27:46",3,"NO ERROR",24.67,68.2,998.52,0.18,0.29,0.56],
    [432,363171,"Vazduh","Libelium","0004A30B0021DF70",44.979,16.7091,"","","Prijedor","",20403237,"2023-06-16T12:28:27",3,"NO ERROR",26.02,57.1,998.11,0.2,0.28,0.28],
    [433,363171,"Vazduh","Libelium","0004A30B0021DF70",44.979,16.7091,"","","Prijedor","",20403764,"2023-06-16T13:29:09",3,"NO ERROR",25.76,57.1,997.77,0.11,0.12,0.12],
    [434,363171,"Vazduh","Libelium","0004A30B0021DF70",44.979,16.7091,"","","Prijedor","",20404300,"2023-06-16T14:29:51",3,"NO ERROR",26.91,49.6,997.27,0.14,0.16,0.16],
    [435,363171,"Vazduh","Libelium","0004A30B0021DF70",44.979,16.7091,"","","Prijedor","",20404790,"2023-06-16T15:30:33",3,"NO ERROR",25.85,51,996.88,0.08,0.12,0.12],
    [436,363171,"Vazduh","Libelium","0004A30B0021DF70",44.979,16.7091,"","","Prijedor","",20405301,"2023-06-16T16:31:15",3,"NO ERROR",29.96,43.1,996.44,0.36,0.51,0.59],
    [437,363171,"Vazduh","Libelium","0004A30B0021DF70",44.979,16.7091,"","","Prijedor","",20405806,"2023-06-16T17:31:57",3,"NO ERROR",25.53,49.7,996.48,0.1,0.13,0.13],
    [438,363171,"Vazduh","Libelium","0004A30B0021DF70",44.979,16.7091,"","","Prijedor","",20406312,"2023-06-16T18:32:39",3,"NO ERROR",25.43,55.7,996.53,0.52,0.6,0.61],
    [439,363171,"Vazduh","Libelium","0004A30B0021DF70",44.979,16.7091,"","","Prijedor","",20406856,"2023-06-16T19:33:21",3,"NO ERROR",23.5,62.9,996.95,0.43,0.63,0.74],
    [440,363171,"Vazduh","Libelium","0004A30B0021DF70",44.979,16.7091,"","","Prijedor","",20407398,"2023-06-16T20:34:03",3,"NO ERROR",21.75,71.5,997.18,0.44,0.62,0.63],
    [441,363171,"Vazduh","Libelium","0004A30B0021DF70",44.979,16.7091,"","","Prijedor","",20409743,"2023-06-16T21:34:46",3,"NO ERROR",19.27,91.4,997.82,0.34,0.56,1.05],
    [442,363171,"Vazduh","Libelium","0004A30B0021DF70",44.979,16.7091,"","","Prijedor","",20411831,"2023-06-16T22:35:28",3,"NO ERROR",18.46,82.4,998.24,0.82,0.96,0.96],
    [443,363171,"Vazduh","Libelium","0004A30B0021DF70",44.979,16.7091,"","","Prijedor","",20413437,"2023-06-16T23:36:10",3,"NO ERROR",16.71,93,998.54,0.39,0.46,0.46],
    [444,363171,"Vazduh","Libelium","0004A30B0021DF70",44.979,16.7091,"","","Prijedor","",20415010,"2023-06-17T00:36:52",3,"NO ERROR",14.91,100,998.67,0.23,0.38,0.48],
    [445,363171,"Vazduh","Libelium","0004A30B0021DF70",44.979,16.7091,"","","Prijedor","",20416314,"2023-06-17T01:37:33",3,"NO ERROR",14.17,100,998.87,0.47,0.63,0.64],
    [446,363171,"Vazduh","Libelium","0004A30B0021DF70",44.979,16.7091,"","","Prijedor","",20417528,"2023-06-17T02:38:15",3,"NO ERROR",13.6,100,998.97,0.45,0.57,0.58],
    [447,363171,"Vazduh","Libelium","0004A30B0021DF70",44.979,16.7091,"","","Prijedor","",20418761,"2023-06-17T03:38:56",3,"NO ERROR",13.52,100,998.96,0.12,0.14,0.14],
    [448,363171,"Vazduh","Libelium","0004A30B0021DF70",44.979,16.7091,"","","Prijedor","",20419914,"2023-06-17T04:39:38",3,"NO ERROR",13.39,100,999.08,0.15,0.23,0.23],
    [449,363171,"Vazduh","Libelium","0004A30B0021DF70",44.979,16.7091,"","","Prijedor","",20420431,"2023-06-17T05:40:19",3,"NO ERROR",12.41,100,999.23,0.28,0.43,0.46],
    [450,363171,"Vazduh","Libelium","0004A30B0021DF70",44.979,16.7091,"","","Prijedor","",20420959,"2023-06-17T06:41:00",3,"NO ERROR",15.91,100,999.68,0.26,0.33,0.34],
    [451,363171,"Vazduh","Libelium","0004A30B0021DF70",44.979,16.7091,"","","Prijedor","",20421493,"2023-06-17T07:41:42",3,"NO ERROR",20.06,80.2,999.86,0.37,0.54,0.56],
    [452,363171,"Vazduh","Libelium","0004A30B0021DF70",44.979,16.7091,"","","Prijedor","",20422033,"2023-06-17T08:42:24",3,"NO ERROR",23.56,64.8,999.9,0.11,0.16,0.16],
    [453,363171,"Vazduh","Libelium","0004A30B0021DF70",44.979,16.7091,"","","Prijedor","",20422572,"2023-06-17T09:43:13",3,"NO ERROR",26.44,50.4,999.97,0.19,0.26,0.27],
    [454,363171,"Vazduh","Libelium","0004A30B0021DF70",44.979,16.7091,"","","Prijedor","",20423082,"2023-06-17T10:43:54",3,"NO ERROR",25.56,50.4,1000.11,0.19,0.31,0.4],
    [455,363171,"Vazduh","Libelium","0004A30B0021DF70",44.979,16.7091,"","","Prijedor","",20423606,"2023-06-17T11:44:42",3,"NO ERROR",24.65,52.7,999.9,0.22,0.31,0.31],
    [456,363171,"Vazduh","Libelium","0004A30B0021DF70",44.979,16.7091,"","","Prijedor","",20424114,"2023-06-17T12:45:23",3,"NO ERROR",26.35,48.9,999.72,0.15,0.2,0.21],
    [457,363171,"Vazduh","Libelium","0004A30B0021DF70",44.979,16.7091,"","","Prijedor","",20424617,"2023-06-17T13:46:05",3,"NO ERROR",26.77,47.3,999.29,0.12,0.14,0.14],
    [458,363171,"Vazduh","Libelium","0004A30B0021DF70",44.979,16.7091,"","","Prijedor","",20425113,"2023-06-17T14:46:47",3,"NO ERROR",27.85,44.5,998.99,0.08,0.21,0.28],
    [459,363171,"Vazduh","Libelium","0004A30B0021DF70",44.979,16.7091,"","","Prijedor","",20425615,"2023-06-17T15:47:29",3,"NO ERROR",28.56,42.2,998.97,0.2,0.27,0.27],
    [460,363171,"Vazduh","Libelium","0004A30B0021DF70",44.979,16.7091,"","","Prijedor","",20426096,"2023-06-17T16:48:11",3,"NO ERROR",27.51,42.8,998.63,0.24,0.28,0.29],
    [461,363171,"Vazduh","Libelium","0004A30B0021DF70",44.979,16.7091,"","","Prijedor","",20426584,"2023-06-17T17:48:53",3,"NO ERROR",27.85,41.4,998.13,0.08,0.19,0.29],
    [462,363171,"Vazduh","Libelium","0004A30B0021DF70",44.979,16.7091,"","","Prijedor","",20427077,"2023-06-17T18:49:35",3,"NO ERROR",25.81,44.1,998.5,0.07,0.08,0.08],
    [463,363171,"Vazduh","Libelium","0004A30B0021DF70",44.979,16.7091,"","","Prijedor","",20427574,"2023-06-17T19:50:17",3,"NO ERROR",24.52,49.2,998.97,0.26,0.38,0.79],
    [464,363171,"Vazduh","Libelium","0004A30B0021DF70",44.979,16.7091,"","","Prijedor","",20428079,"2023-06-17T20:50:59",3,"NO ERROR",21.96,65.8,999.42,0.16,0.27,0.34],
    [465,363171,"Vazduh","Libelium","0004A30B0021DF70",44.979,16.7091,"","","Prijedor","",20431036,"2023-06-17T21:51:42",3,"NO ERROR",19.76,78.2,1000.41,0.4,0.57,0.57],
    [466,363171,"Vazduh","Libelium","0004A30B0021DF70",44.979,16.7091,"","","Prijedor","",20433046,"2023-06-17T22:52:24",3,"NO ERROR",17.54,98.9,1000.53,0.92,1.29,1.95],
    [467,363171,"Vazduh","Libelium","0004A30B0021DF70",44.979,16.7091,"","","Prijedor","",20434506,"2023-06-17T23:53:06",3,"NO ERROR",16.29,100,1000.94,0.23,0.27,0.27],
    [468,363171,"Vazduh","Libelium","0004A30B0021DF70",44.979,16.7091,"","","Prijedor","",20436090,"2023-06-18T00:53:48",3,"NO ERROR",15.03,100,1001.1,0.21,0.25,0.26],
    [469,363171,"Vazduh","Libelium","0004A30B0021DF70",44.979,16.7091,"","","Prijedor","",20437325,"2023-06-18T01:54:30",3,"NO ERROR",14.34,100,1001.23,0.39,0.46,0.46],
    [470,363171,"Vazduh","Libelium","0004A30B0021DF70",44.979,16.7091,"","","Prijedor","",20438496,"2023-06-18T02:55:12",3,"NO ERROR",13.95,100,1001.23,0.59,0.78,0.79],
    [471,363171,"Vazduh","Libelium","0004A30B0021DF70",44.979,16.7091,"","","Prijedor","",20439642,"2023-06-18T03:55:54",3,"NO ERROR",13.26,100,1001.38,0.23,0.31,0.31],
    [472,363171,"Vazduh","Libelium","0004A30B0021DF70",44.979,16.7091,"","","Prijedor","",20440624,"2023-06-18T04:56:36",3,"NO ERROR",13.57,100,1001.51,0.59,0.8,0.81],
    [473,363171,"Vazduh","Libelium","0004A30B0021DF70",44.979,16.7091,"","","Prijedor","",20441122,"2023-06-18T05:57:18",3,"NO ERROR",13.86,100,1001.85,0.18,0.26,0.27],
    [474,363171,"Vazduh","Libelium","0004A30B0021DF70",44.979,16.7091,"","","Prijedor","",20441621,"2023-06-18T06:58:00",3,"NO ERROR",16.98,100,1002.14,0.08,0.11,0.11],
    [475,363171,"Vazduh","Libelium","0004A30B0021DF70",44.979,16.7091,"","","Prijedor","",20442128,"2023-06-18T07:58:42",3,"NO ERROR",20.83,80,1002.16,0.16,0.36,0.51],
    [476,363171,"Vazduh","Libelium","0004A30B0021DF70",44.979,16.7091,"","","Prijedor","",20442687,"2023-06-18T08:59:24",3,"NO ERROR",23.79,67.3,1002.21,0.19,0.26,0.26],
    [477,363171,"Vazduh","Libelium","0004A30B0021DF70",44.979,16.7091,"","","Prijedor","",20443203,"2023-06-18T10:00:06",3,"NO ERROR",25.84,59.6,1001.85,0.17,0.2,0.2],
    [478,363171,"Vazduh","Libelium","0004A30B0021DF70",44.979,16.7091,"","","Prijedor","",20443697,"2023-06-18T11:00:49",3,"NO ERROR",27.48,53.6,1001.7,0.2,0.24,0.24],
    [479,363171,"Vazduh","Libelium","0004A30B0021DF70",44.979,16.7091,"","","Prijedor","",20444188,"2023-06-18T12:01:31",3,"NO ERROR",27.21,49.7,1001.25,0.26,0.44,0.76],
    [480,363171,"Vazduh","Libelium","0004A30B0021DF70",44.979,16.7091,"","","Prijedor","",20444712,"2023-06-18T13:02:13",3,"NO ERROR",29.23,39.2,1001.05,0.09,0.28,2.29],
    [481,363171,"Vazduh","Libelium","0004A30B0021DF70",44.979,16.7091,"","","Prijedor","",20445204,"2023-06-18T14:02:54",3,"NO ERROR",31.65,39.4,1000.65,0.2,0.28,0.28],
    [482,363171,"Vazduh","Libelium","0004A30B0021DF70",44.979,16.7091,"","","Prijedor","",20445723,"2023-06-18T15:03:35",3,"NO ERROR",32.76,36.6,1000.3,0.22,0.26,0.27],
    [483,363171,"Vazduh","Libelium","0004A30B0021DF70",44.979,16.7091,"","","Prijedor","",20446241,"2023-06-18T16:04:29",3,"NO ERROR",34.11,31.7,999.9,0.16,0.18,0.18],
    [484,363171,"Vazduh","Libelium","0004A30B0021DF70",44.979,16.7091,"","","Prijedor","",20446774,"2023-06-18T17:05:11",3,"NO ERROR",33.3,32.4,999.59,0.16,0.21,0.21],
    [485,363171,"Vazduh","Libelium","0004A30B0021DF70",44.979,16.7091,"","","Prijedor","",20447270,"2023-06-18T18:05:53",3,"NO ERROR",30.13,35.5,999.34,0.23,0.38,0.74],
    [486,363171,"Vazduh","Libelium","0004A30B0021DF70",44.979,16.7091,"","","Prijedor","",20447763,"2023-06-18T19:06:35",3,"NO ERROR",28.67,37.2,999.44,0.44,0.47,0.47],
    [487,363171,"Vazduh","Libelium","0004A30B0021DF70",44.979,16.7091,"","","Prijedor","",20448273,"2023-06-18T20:07:17",3,"NO ERROR",26.67,49.4,999.64,1.9,2.2,2.2],
    [488,363171,"Vazduh","Libelium","0004A30B0021DF70",44.979,16.7091,"","","Prijedor","",20449397,"2023-06-18T21:08:00",3,"NO ERROR",23.32,76.6,999.99,1.44,1.8,5.19],
    [489,363171,"Vazduh","Libelium","0004A30B0021DF70",44.979,16.7091,"","","Prijedor","",20452430,"2023-06-18T22:08:42",3,"NO ERROR",20.95,84,1000.62,0.72,1.2,1.76],
    [490,363171,"Vazduh","Libelium","0004A30B0021DF70",44.979,16.7091,"","","Prijedor","",20454316,"2023-06-18T23:09:24",3,"NO ERROR",19.14,100,1000.87,0.72,1.27,1.5],
    [491,363171,"Vazduh","Libelium","0004A30B0021DF70",44.979,16.7091,"","","Prijedor","",20455973,"2023-06-19T00:10:06",3,"NO ERROR",18.36,100,1001.05,0.64,0.94,1.42],
    [492,363171,"Vazduh","Libelium","0004A30B0021DF70",44.979,16.7091,"","","Prijedor","",20457328,"2023-06-19T01:10:54",3,"NO ERROR",17.22,100,1001.16,0.42,0.56,0.57],
    [493,363171,"Vazduh","Libelium","0004A30B0021DF70",44.979,16.7091,"","","Prijedor","",20458549,"2023-06-19T02:11:36",3,"NO ERROR",16.6,100,1000.89,0.29,0.44,0.46],
    [494,363171,"Vazduh","Libelium","0004A30B0021DF70",44.979,16.7091,"","","Prijedor","",20459740,"2023-06-19T03:12:18",3,"NO ERROR",16.11,100,1000.88,0.31,0.36,0.37],
    [495,363171,"Vazduh","Libelium","0004A30B0021DF70",44.979,16.7091,"","","Prijedor","",20460929,"2023-06-19T04:13:00",3,"NO ERROR",15.71,100,1000.85,0.62,0.95,1.11],
    [496,363171,"Vazduh","Libelium","0004A30B0021DF70",44.979,16.7091,"","","Prijedor","",20461767,"2023-06-19T05:13:41",3,"NO ERROR",15.18,100,1000.92,0.56,0.64,0.65],
    [497,363171,"Vazduh","Libelium","0004A30B0021DF70",44.979,16.7091,"","","Prijedor","",20462265,"2023-06-19T06:14:23",3,"NO ERROR",15.54,100,1001.23,0.35,0.46,0.46],
    [498,363171,"Vazduh","Libelium","0004A30B0021DF70",44.979,16.7091,"","","Prijedor","",20462758,"2023-06-19T07:15:05",3,"NO ERROR",21.16,77.9,1001.57,0.26,0.51,0.55],
    [499,363171,"Vazduh","Libelium","0004A30B0021DF70",44.979,16.7091,"","","Prijedor","",20463260,"2023-06-19T08:15:47",3,"NO ERROR",24.82,60.1,1001.88,0.13,0.14,0.14],
    [500,363171,"Vazduh","Libelium","0004A30B0021DF70",44.979,16.7091,"","","Prijedor","",20463771,"2023-06-19T09:16:36",3,"NO ERROR",27.07,53.9,1001.81,0.34,0.36,0.36],
    [501,363171,"Vazduh","Libelium","0004A30B0021DF70",44.979,16.7091,"","","Prijedor","",20464268,"2023-06-19T10:17:18",3,"NO ERROR",26.24,54.7,1001.46,0.13,0.27,0.29],
    [502,363171,"Vazduh","Libelium","0004A30B0021DF70",44.979,16.7091,"","","Prijedor","",20464775,"2023-06-19T11:18:00",3,"NO ERROR",28.47,51.2,1001,0.37,0.44,0.44],
    [503,363171,"Vazduh","Libelium","0004A30B0021DF70",44.979,16.7091,"","","Prijedor","",20465304,"2023-06-19T12:18:42",3,"NO ERROR",29.86,44.5,1000.5,0.29,0.53,0.68],
    [504,363171,"Vazduh","Libelium","0004A30B0021DF70",44.979,16.7091,"","","Prijedor","",20465820,"2023-06-19T13:19:24",3,"NO ERROR",31.58,43.5,999.95,0.09,0.15,0.19],
    [505,363171,"Vazduh","Libelium","0004A30B0021DF70",44.979,16.7091,"","","Prijedor","",20466321,"2023-06-19T14:20:06",3,"NO ERROR",34.69,40.5,999.52,0.11,0.16,0.16],
    [506,363171,"Vazduh","Libelium","0004A30B0021DF70",44.979,16.7091,"","","Prijedor","",20466808,"2023-06-19T15:20:48",3,"NO ERROR",35.71,38.3,998.92,0.17,0.21,0.21],
    [507,363171,"Vazduh","Libelium","0004A30B0021DF70",44.979,16.7091,"","","Prijedor","",20467312,"2023-06-19T16:21:30",3,"NO ERROR",36.83,36.1,998.85,0.2,0.25,0.26],
    [508,363171,"Vazduh","Libelium","0004A30B0021DF70",44.979,16.7091,"","","Prijedor","",20467815,"2023-06-19T17:22:12",3,"NO ERROR",36.56,36,998.64,0.43,0.53,0.54],
    [509,363171,"Vazduh","Libelium","0004A30B0021DF70",44.979,16.7091,"","","Prijedor","",20468326,"2023-06-19T18:22:54",3,"NO ERROR",32.67,43.4,998.55,0.24,0.36,0.38],
    [510,363171,"Vazduh","Libelium","0004A30B0021DF70",44.979,16.7091,"","","Prijedor","",20468824,"2023-06-19T19:23:37",3,"NO ERROR",30.61,51.2,998.8,0.2,0.24,0.24],
    [511,363171,"Vazduh","Libelium","0004A30B0021DF70",44.979,16.7091,"","","Prijedor","",20469328,"2023-06-19T20:24:19",3,"NO ERROR",28.25,60.9,999.27,0.33,0.38,0.38],
    [512,363171,"Vazduh","Libelium","0004A30B0021DF70",44.979,16.7091,"","","Prijedor","",20471205,"2023-06-19T21:25:01",3,"NO ERROR",25.42,78.6,999.9,0.41,0.54,0.54],
    [513,363171,"Vazduh","Libelium","0004A30B0021DF70",44.979,16.7091,"","","Prijedor","",20473503,"2023-06-19T22:25:43",3,"NO ERROR",23.07,100,1000.38,1.26,1.7,4.71],
    [514,363171,"Vazduh","Libelium","0004A30B0021DF70",44.979,16.7091,"","","Prijedor","",20475297,"2023-06-19T23:26:25",3,"NO ERROR",21.49,100,1000.69,0.6,0.83,0.86],
    [515,363171,"Vazduh","Libelium","0004A30B0021DF70",44.979,16.7091,"","","Prijedor","",20476946,"2023-06-20T00:27:07",3,"NO ERROR",20.92,100,1001.02,0.39,0.63,1.02],
    [516,363171,"Vazduh","Libelium","0004A30B0021DF70",44.979,16.7091,"","","Prijedor","",20478357,"2023-06-20T01:27:49",3,"NO ERROR",19.05,100,1001.17,0.48,0.57,0.57],
    [517,363171,"Vazduh","Libelium","0004A30B0021DF70",44.979,16.7091,"","","Prijedor","",20479625,"2023-06-20T02:28:31",3,"NO ERROR",18.9,100,1000.95,0.85,1.11,1.12],
    [518,363171,"Vazduh","Libelium","0004A30B0021DF70",44.979,16.7091,"","","Prijedor","",20480822,"2023-06-20T03:29:13",3,"NO ERROR",17.75,100,1001.12,0.67,0.8,0.8],
    [519,363171,"Vazduh","Libelium","0004A30B0021DF70",44.979,16.7091,"","","Prijedor","",20482060,"2023-06-20T04:29:55",3,"NO ERROR",17.23,100,1001.26,0.3,0.32,0.32],
    [520,363171,"Vazduh","Libelium","0004A30B0021DF70",44.979,16.7091,"","","Prijedor","",20482692,"2023-06-20T05:30:37",3,"NO ERROR",16.79,100,1001.8,0.93,1.2,1.23],
    [521,363171,"Vazduh","Libelium","0004A30B0021DF70",44.979,16.7091,"","","Prijedor","",20483204,"2023-06-20T06:31:19",3,"NO ERROR",18.09,100,1001.99,0.47,0.83,1.43],
    [522,363171,"Vazduh","Libelium","0004A30B0021DF70",44.979,16.7091,"","","Prijedor","",20483696,"2023-06-20T07:32:01",3,"NO ERROR",23.42,85.4,1002.1,0.36,0.49,0.5],
    [523,363171,"Vazduh","Libelium","0004A30B0021DF70",44.979,16.7091,"","","Prijedor","",20484209,"2023-06-20T08:32:44",3,"NO ERROR",28.27,62.8,1002.31,0.5,0.72,0.82],
    [524,363171,"Vazduh","Libelium","0004A30B0021DF70",44.979,16.7091,"","","Prijedor","",20484726,"2023-06-20T09:33:26",3,"NO ERROR",30.46,57.1,1002.19,0.18,0.19,0.19],
    [525,363171,"Vazduh","Libelium","0004A30B0021DF70",44.979,16.7091,"","","Prijedor","",20485203,"2023-06-20T10:34:08",3,"NO ERROR",29.45,52.2,1002.23,0.35,0.56,0.65],
    [526,363171,"Vazduh","Libelium","0004A30B0021DF70",44.979,16.7091,"","","Prijedor","",20485716,"2023-06-20T11:34:50",3,"NO ERROR",30.28,53,1001.94,0.22,0.4,0.48],
    [527,363171,"Vazduh","Libelium","0004A30B0021DF70",44.979,16.7091,"","","Prijedor","",20486211,"2023-06-20T12:35:32",3,"NO ERROR",31.61,50,1001.8,0.27,0.4,0.68],
    [528,363171,"Vazduh","Libelium","0004A30B0021DF70",44.979,16.7091,"","","Prijedor","",20486736,"2023-06-20T13:36:13",3,"NO ERROR",33.19,45.4,1001.1,0.19,0.23,0.24],
    [529,363171,"Vazduh","Libelium","0004A30B0021DF70",44.979,16.7091,"","","Prijedor","",20487235,"2023-06-20T14:36:55",3,"NO ERROR",34.31,42.7,1000.63,0.2,0.24,0.24],
    [530,363171,"Vazduh","Libelium","0004A30B0021DF70",44.979,16.7091,"","","Prijedor","",20487754,"2023-06-20T15:37:37",3,"NO ERROR",36.58,39.4,1000.38,0.46,0.56,0.56],
    [531,363171,"Vazduh","Libelium","0004A30B0021DF70",44.979,16.7091,"","","Prijedor","",20488295,"2023-06-20T16:38:19",3,"NO ERROR",38.02,37.4,1000.01,0.13,0.14,0.14],
    [532,363171,"Vazduh","Libelium","0004A30B0021DF70",44.979,16.7091,"","","Prijedor","",20488800,"2023-06-20T17:39:02",3,"NO ERROR",37.72,38.4,999.63,0.19,0.23,0.25],
    [533,363171,"Vazduh","Libelium","0004A30B0021DF70",44.979,16.7091,"","","Prijedor","",20489301,"2023-06-20T18:39:44",3,"NO ERROR",33.17,46.9,999.46,0.37,0.45,0.47],
    [534,363171,"Vazduh","Libelium","0004A30B0021DF70",44.979,16.7091,"","","Prijedor","",20489804,"2023-06-20T19:40:26",3,"NO ERROR",30.85,60.8,999.48,0.32,0.4,0.42],
    [535,363171,"Vazduh","Libelium","0004A30B0021DF70",44.979,16.7091,"","","Prijedor","",20490291,"2023-06-20T20:41:08",3,"NO ERROR",28.57,68.9,999.63,0.66,1.13,2.81],
    [536,363171,"Vazduh","Libelium","0004A30B0021DF70",44.979,16.7091,"","","Prijedor","",20492988,"2023-06-20T21:41:50",3,"NO ERROR",26.05,99,1000.11,0.47,0.67,20.26],
    [537,363171,"Vazduh","Libelium","0004A30B0021DF70",44.979,16.7091,"","","Prijedor","",20495333,"2023-06-20T22:42:32",3,"NO ERROR",24.04,100,1000.34,0.97,1.26,1.26],
    [538,363171,"Vazduh","Libelium","0004A30B0021DF70",44.979,16.7091,"","","Prijedor","",20496997,"2023-06-20T23:43:14",3,"NO ERROR",22.13,100,1000.78,0.68,0.91,1.01],
    [539,363171,"Vazduh","Libelium","0004A30B0021DF70",44.979,16.7091,"","","Prijedor","",20498679,"2023-06-21T00:43:56",3,"NO ERROR",20.96,100,1001.15,0.53,0.61,0.62],
    [540,363171,"Vazduh","Libelium","0004A30B0021DF70",44.979,16.7091,"","","Prijedor","",20500063,"2023-06-21T01:44:38",3,"NO ERROR",20.44,100,1001.05,0.47,0.67,0.7],
    [541,363171,"Vazduh","Libelium","0004A30B0021DF70",44.979,16.7091,"","","Prijedor","",20501383,"2023-06-21T02:45:20",3,"NO ERROR",19.91,100,1001.15,0.31,0.42,0.43],
    [542,363171,"Vazduh","Libelium","0004A30B0021DF70",44.979,16.7091,"","","Prijedor","",20502566,"2023-06-21T03:46:02",3,"NO ERROR",19.55,100,1000.86,1.07,1.31,1.32],
    [543,363171,"Vazduh","Libelium","0004A30B0021DF70",44.979,16.7091,"","","Prijedor","",20503712,"2023-06-21T04:46:44",3,"NO ERROR",18.13,100,1001.03,0.57,0.77,0.78],
    [544,363171,"Vazduh","Libelium","0004A30B0021DF70",44.979,16.7091,"","","Prijedor","",20504201,"2023-06-21T05:47:27",3,"NO ERROR",18.42,100,1001.34,0.73,0.9,0.9],
    [545,363171,"Vazduh","Libelium","0004A30B0021DF70",44.979,16.7091,"","","Prijedor","",20504699,"2023-06-21T06:48:09",3,"NO ERROR",20.79,100,1001.62,0.88,1.27,1.41],
    [546,363171,"Vazduh","Libelium","0004A30B0021DF70",44.979,16.7091,"","","Prijedor","",20505177,"2023-06-21T07:48:51",3,"NO ERROR",26.17,84.4,1001.86,0.69,1.14,1.65],
    [547,363171,"Vazduh","Libelium","0004A30B0021DF70",44.979,16.7091,"","","Prijedor","",20505692,"2023-06-21T08:49:33",3,"NO ERROR",28.86,74.1,1002.07,0.65,0.96,0.98],
    [548,363171,"Vazduh","Libelium","0004A30B0021DF70",44.979,16.7091,"","","Prijedor","",20506185,"2023-06-21T09:50:15",3,"NO ERROR",31.47,59.6,1001.96,0.72,0.91,0.92],
    [549,363171,"Vazduh","Libelium","0004A30B0021DF70",44.979,16.7091,"","","Prijedor","",20506679,"2023-06-21T10:50:57",3,"NO ERROR",32.77,52.4,1001.92,0.38,0.44,0.44],
    [550,363171,"Vazduh","Libelium","0004A30B0021DF70",44.979,16.7091,"","","Prijedor","",20507161,"2023-06-21T11:51:39",3,"NO ERROR",32.67,51,1001.89,0.36,0.53,0.54],
    [551,363171,"Vazduh","Libelium","0004A30B0021DF70",44.979,16.7091,"","","Prijedor","",20507683,"2023-06-21T12:52:21",3,"NO ERROR",32.92,47.8,1001.81,0.26,0.38,0.39],
    [552,363171,"Vazduh","Libelium","0004A30B0021DF70",44.979,16.7091,"","","Prijedor","",20508169,"2023-06-21T13:53:03",3,"NO ERROR",34.74,45.6,1001.51,0.4,0.56,0.58],
    [553,363171,"Vazduh","Libelium","0004A30B0021DF70",44.979,16.7091,"","","Prijedor","",20508670,"2023-06-21T14:53:45",3,"NO ERROR",35.44,43.4,1001.44,0.75,1.18,1.62],
    [554,363171,"Vazduh","Libelium","0004A30B0021DF70",44.979,16.7091,"","","Prijedor","",20509172,"2023-06-21T15:54:27",3,"NO ERROR",37.74,39.5,1001.17,0.71,0.89,0.89],
    [555,363171,"Vazduh","Libelium","0004A30B0021DF70",44.979,16.7091,"","","Prijedor","",20509777,"2023-06-21T16:55:09",3,"NO ERROR",37.33,41.7,1000.81,0.65,1.18,1.68],
    [556,363171,"Vazduh","Libelium","0004A30B0021DF70",44.979,16.7091,"","","Prijedor","",20510501,"2023-06-21T17:55:51",3,"NO ERROR",34.74,46.6,1000.23,0.54,0.74,0.82],
    [557,363171,"Vazduh","Libelium","0004A30B0021DF70",44.979,16.7091,"","","Prijedor","",20511210,"2023-06-21T18:56:33",3,"NO ERROR",33.38,51.3,1000.3,0.81,1.19,1.22],
    [558,363171,"Vazduh","Libelium","0004A30B0021DF70",44.979,16.7091,"","","Prijedor","",20511801,"2023-06-21T19:57:21",3,"NO ERROR",31.1,66.8,1000.8,1.16,1.41,1.7],
    [559,363171,"Vazduh","Libelium","0004A30B0021DF70",44.979,16.7091,"","","Prijedor","",20512485,"2023-06-21T20:58:03",3,"NO ERROR",29.02,80.8,1001.38,1.71,2.07,2.08],
    [560,363171,"Vazduh","Libelium","0004A30B0021DF70",44.979,16.7091,"","","Prijedor","",20515958,"2023-06-21T21:58:51",3,"NO ERROR",26.93,94.4,1002.43,0.75,1,1.02],
    [561,363171,"Vazduh","Libelium","0004A30B0021DF70",44.979,16.7091,"","","Prijedor","",20517937,"2023-06-21T22:59:33",3,"NO ERROR",24.93,100,1002.81,0.83,1.04,1.06],
    [562,363171,"Vazduh","Libelium","0004A30B0021DF70",44.979,16.7091,"","","Prijedor","",20519601,"2023-06-22T00:00:15",3,"NO ERROR",24.18,100,1003.88,0.92,1.15,1.17],
    [563,363171,"Vazduh","Libelium","0004A30B0021DF70",44.979,16.7091,"","","Prijedor","",20521115,"2023-06-22T01:00:56",3,"NO ERROR",23.81,100,1004.11,0.86,1.03,1.03],
    [564,363171,"Vazduh","Libelium","0004A30B0021DF70",44.979,16.7091,"","","Prijedor","",20522344,"2023-06-22T02:01:38",3,"NO ERROR",23.48,100,1001.98,1.02,1.45,1.6],
    [565,363171,"Vazduh","Libelium","0004A30B0021DF70",44.979,16.7091,"","","Prijedor","",20523562,"2023-06-22T03:02:21",3,"NO ERROR",24.34,100,1002.48,0.83,1.11,1.25],
    [566,363171,"Vazduh","Libelium","0004A30B0021DF70",44.979,16.7091,"","","Prijedor","",20524694,"2023-06-22T04:03:03",3,"NO ERROR",23.75,100,1002.9,0.76,1.17,2.76],
    [567,363171,"Vazduh","Libelium","0004A30B0021DF70",44.979,16.7091,"","","Prijedor","",20525627,"2023-06-22T05:03:45",3,"NO ERROR",22.41,100,1003.37,1.46,2.06,2.09],
    [568,363171,"Vazduh","Libelium","0004A30B0021DF70",44.979,16.7091,"","","Prijedor","",20526135,"2023-06-22T06:04:26",3,"NO ERROR",23.2,100,1003.63,0.9,1.17,1.62],
    [569,363171,"Vazduh","Libelium","0004A30B0021DF70",44.979,16.7091,"","","Prijedor","",20526681,"2023-06-22T07:05:08",3,"NO ERROR",25.31,100,1003.46,1.33,1.91,2.08],
    [570,363171,"Vazduh","Libelium","0004A30B0021DF70",44.979,16.7091,"","","Prijedor","",20527227,"2023-06-22T08:05:50",3,"NO ERROR",30.61,74,1003.64,0.96,1.29,1.3],
    [571,363171,"Vazduh","Libelium","0004A30B0021DF70",44.979,16.7091,"","","Prijedor","",20527782,"2023-06-22T09:06:32",3,"NO ERROR",32.71,63.9,1003.54,0.72,1.09,1.22],
    [572,363171,"Vazduh","Libelium","0004A30B0021DF70",44.979,16.7091,"","","Prijedor","",20528266,"2023-06-22T10:07:13",3,"NO ERROR",33.33,58.6,1003.33,0.5,0.71,13.44],
    [573,363171,"Vazduh","Libelium","0004A30B0021DF70",44.979,16.7091,"","","Prijedor","",20528777,"2023-06-22T11:07:55",3,"NO ERROR",32.48,64.2,1002.92,0.62,0.88,0.91],
    [574,363171,"Vazduh","Libelium","0004A30B0021DF70",44.979,16.7091,"","","Prijedor","",20529301,"2023-06-22T12:08:37",3,"NO ERROR",33.87,59.5,1002.6,1.07,1.43,8.46],
    [575,363171,"Vazduh","Libelium","0004A30B0021DF70",44.979,16.7091,"","","Prijedor","",20529882,"2023-06-22T13:09:18",3,"NO ERROR",34.75,51.5,1002.09,1.14,1.58,1.69],
    [576,363171,"Vazduh","Libelium","0004A30B0021DF70",44.979,16.7091,"","","Prijedor","",20530398,"2023-06-22T14:10:00",3,"NO ERROR",36.89,44.3,1001.56,0.86,1.12,1.13],
    [577,363171,"Vazduh","Libelium","0004A30B0021DF70",44.979,16.7091,"","","Prijedor","",20530932,"2023-06-22T15:10:42",3,"NO ERROR",37.19,41.1,1001.08,0.78,1.29,1.46],
    [578,363171,"Vazduh","Libelium","0004A30B0021DF70",44.979,16.7091,"","","Prijedor","",20531459,"2023-06-22T16:11:24",3,"NO ERROR",39.47,37,1000.61,1.25,1.78,1.91],
    [579,363171,"Vazduh","Libelium","0004A30B0021DF70",44.979,16.7091,"","","Prijedor","",20532010,"2023-06-22T17:12:06",3,"NO ERROR",38.3,39.5,1000.26,1.12,1.44,1.44],
    [580,363171,"Vazduh","Libelium","0004A30B0021DF70",44.979,16.7091,"","","Prijedor","",20532547,"2023-06-22T18:12:48",3,"NO ERROR",36.4,41.3,999.89,1.39,1.92,1.96],
    [581,363171,"Vazduh","Libelium","0004A30B0021DF70",44.979,16.7091,"","","Prijedor","",20533067,"2023-06-22T19:13:29",3,"NO ERROR",34.37,52.9,999.7,1,1.59,1.82],
    [582,363171,"Vazduh","Libelium","0004A30B0021DF70",44.979,16.7091,"","","Prijedor","",20533582,"2023-06-22T20:14:11",3,"NO ERROR",32.04,62.9,999.35,1.28,1.79,2.29],
    [583,363171,"Vazduh","Libelium","0004A30B0021DF70",44.979,16.7091,"","","Prijedor","",20534872,"2023-06-22T21:14:53",3,"NO ERROR",30.17,74.3,999.73,1.71,2.23,2.26],
    [584,363171,"Vazduh","Libelium","0004A30B0021DF70",44.979,16.7091,"","","Prijedor","",20537619,"2023-06-22T22:15:36",3,"NO ERROR",27.86,100,1000.16,1.77,2.47,3.65],
    [585,363171,"Vazduh","Libelium","0004A30B0021DF70",44.979,16.7091,"","","Prijedor","",20539407,"2023-06-22T23:16:18",3,"NO ERROR",25.9,100,1000.19,1.99,2.63,2.65],
    [586,363171,"Vazduh","Libelium","0004A30B0021DF70",44.979,16.7091,"","","Prijedor","",20541151,"2023-06-23T00:17:00",3,"NO ERROR",24.66,100,1000.15,1.46,2.07,2.22],
    [587,363171,"Vazduh","Libelium","0004A30B0021DF70",44.979,16.7091,"","","Prijedor","",20542558,"2023-06-23T01:17:42",3,"NO ERROR",23.68,100,999.75,1.71,2.27,2.47],
    [588,363171,"Vazduh","Libelium","0004A30B0021DF70",44.979,16.7091,"","","Prijedor","",20543812,"2023-06-23T02:18:24",3,"NO ERROR",23.4,100,999.54,1.61,2.08,2.11],
    [589,363171,"Vazduh","Libelium","0004A30B0021DF70",44.979,16.7091,"","","Prijedor","",20545027,"2023-06-23T03:19:12",3,"NO ERROR",22.22,100,998.75,1.89,2.41,2.54],
    [590,363171,"Vazduh","Libelium","0004A30B0021DF70",44.979,16.7091,"","","Prijedor","",20546242,"2023-06-23T04:19:54",3,"NO ERROR",21.99,100,998.56,4.01,5.22,6.74],
    [591,363171,"Vazduh","Libelium","0004A30B0021DF70",44.979,16.7091,"","","Prijedor","",20547065,"2023-06-23T05:20:36",3,"NO ERROR",22.08,100,998.73,3.83,6.15,71.18],
    [592,363171,"Vazduh","Libelium","0004A30B0021DF70",44.979,16.7091,"","","Prijedor","",20547620,"2023-06-23T06:21:18",3,"NO ERROR",23.1,100,998.93,1.45,1.89,1.99],
    [593,363171,"Vazduh","Libelium","0004A30B0021DF70",44.979,16.7091,"","","Prijedor","",20548196,"2023-06-23T07:22:00",3,"NO ERROR",26.84,92.7,999.4,2.05,3.28,7.12],
    [594,363171,"Vazduh","Libelium","0004A30B0021DF70",44.979,16.7091,"","","Prijedor","",20548790,"2023-06-23T08:22:42",3,"NO ERROR",30.71,66.3,999.38,1.91,3.24,6.27],
    [595,363171,"Vazduh","Libelium","0004A30B0021DF70",44.979,16.7091,"","","Prijedor","",20549380,"2023-06-23T09:23:24",3,"NO ERROR",32.97,53.8,999.41,1.79,2.89,3.34],
    [596,363171,"Vazduh","Libelium","0004A30B0021DF70",44.979,16.7091,"","","Prijedor","",20549966,"2023-06-23T10:24:06",3,"NO ERROR",33.82,48.3,999,2.15,3.25,4.24],
    [597,363171,"Vazduh","Libelium","0004A30B0021DF70",44.979,16.7091,"","","Prijedor","",20550524,"2023-06-23T11:24:48",3,"NO ERROR",35.35,45.8,998.86,2.58,3.95,6.12],
    [598,363171,"Vazduh","Libelium","0004A30B0021DF70",44.979,16.7091,"","","Prijedor","",20551092,"2023-06-23T12:25:30",3,"NO ERROR",33.14,53.8,998.75,2.32,3.49,3.81],
    [599,363171,"Vazduh","Libelium","0004A30B0021DF70",44.979,16.7091,"","","Prijedor","",20551684,"2023-06-23T13:26:12",3,"NO ERROR",34.04,54.5,998.36,2.13,3.03,3.43],
    [600,363171,"Vazduh","Libelium","0004A30B0021DF70",44.979,16.7091,"","","Prijedor","",20552256,"2023-06-23T14:26:54",3,"NO ERROR",33.55,59.9,997.56,2.94,3.99,5.25],
    [601,363171,"Vazduh","Libelium","0004A30B0021DF70",44.979,16.7091,"","","Prijedor","",20552791,"2023-06-23T15:27:35",3,"NO ERROR",38.35,42.2,997.18,1.79,2.86,3.24],
    [602,363171,"Vazduh","Libelium","0004A30B0021DF70",44.979,16.7091,"","","Prijedor","",20553359,"2023-06-23T16:28:16",3,"NO ERROR",35.84,40,996.17,1.92,2.78,2.98],
    [603,363171,"Vazduh","Libelium","0004A30B0021DF70",44.979,16.7091,"","","Prijedor","",20553916,"2023-06-23T17:28:58",3,"NO ERROR",32.04,54.3,996.63,3.44,4.77,4.95],
    [604,363171,"Vazduh","Libelium","0004A30B0021DF70",44.979,16.7091,"","","Prijedor","",20554493,"2023-06-23T18:29:40",3,"NO ERROR",29.66,72.3,996.44,2.83,4.06,4.52],
    [605,363171,"Vazduh","Libelium","0004A30B0021DF70",44.979,16.7091,"","","Prijedor","",20555029,"2023-06-23T19:30:22",3,"NO ERROR",29.86,68.2,997,2.59,3.76,4.38],
    [606,363171,"Vazduh","Libelium","0004A30B0021DF70",44.979,16.7091,"","","Prijedor","",20555593,"2023-06-23T20:31:05",3,"NO ERROR",24.27,71.1,998.89,0.37,0.83,1.45],
    [607,363171,"Vazduh","Libelium","0004A30B0021DF70",44.979,16.7091,"","","Prijedor","",20557662,"2023-06-23T21:31:47",3,"NO ERROR",21.52,81.6,1001.32,0.43,0.78,1.54],
    [608,363171,"Vazduh","Libelium","0004A30B0021DF70",44.979,16.7091,"","","Prijedor","",20560075,"2023-06-23T22:32:28",3,"NO ERROR",20.86,85.7,1003.05,0.29,0.4,0.41],
    [609,363171,"Vazduh","Libelium","0004A30B0021DF70",44.979,16.7091,"","","Prijedor","",20561827,"2023-06-23T23:33:16",3,"NO ERROR",20.63,88.4,1003.81,0.17,0.21,0.21],
    [610,363171,"Vazduh","Libelium","0004A30B0021DF70",44.979,16.7091,"","","Prijedor","",20563785,"2023-06-24T00:33:58",3,"NO ERROR",18.22,100,1003.46,1.74,2.33,4.05],
    [611,363171,"Vazduh","Libelium","0004A30B0021DF70",44.979,16.7091,"","","Prijedor","",20565297,"2023-06-24T01:34:40",3,"NO ERROR",18.4,100,1003.21,0.47,0.67,0.68],
    [612,363171,"Vazduh","Libelium","0004A30B0021DF70",44.979,16.7091,"","","Prijedor","",20566681,"2023-06-24T02:35:21",3,"NO ERROR",18.88,100,1004.4,0.29,0.38,0.38],
    [613,363171,"Vazduh","Libelium","0004A30B0021DF70",44.979,16.7091,"","","Prijedor","",20567977,"2023-06-24T03:36:03",3,"NO ERROR",17.32,100,1005.56,1.96,2.32,2.32],
    [614,363171,"Vazduh","Libelium","0004A30B0021DF70",44.979,16.7091,"","","Prijedor","",20569255,"2023-06-24T04:36:44",3,"NO ERROR",16.61,100,1003.35,0.78,1.21,1.38],
    [615,363171,"Vazduh","Libelium","0004A30B0021DF70",44.979,16.7091,"","","Prijedor","",20569880,"2023-06-24T05:37:26",3,"NO ERROR",17.75,100,1004.17,0.06,0.07,0.07],
    [616,363171,"Vazduh","Libelium","0004A30B0021DF70",44.979,16.7091,"","","Prijedor","",20570482,"2023-06-24T06:38:08",3,"NO ERROR",18.15,100,1004.37,0.19,0.26,0.27],
    [617,363171,"Vazduh","Libelium","0004A30B0021DF70",44.979,16.7091,"","","Prijedor","",20571061,"2023-06-24T07:38:50",3,"NO ERROR",18.53,100,1005.06,0.19,0.38,0.53],
    [618,363171,"Vazduh","Libelium","0004A30B0021DF70",44.979,16.7091,"","","Prijedor","",20571621,"2023-06-24T08:39:32",3,"NO ERROR",19.59,100,1005.61,0.48,0.75,0.78],
    [619,363171,"Vazduh","Libelium","0004A30B0021DF70",44.979,16.7091,"","","Prijedor","",20572197,"2023-06-24T09:40:14",3,"NO ERROR",24.18,87.8,1005.2,0.16,0.23,0.23],
    [620,363171,"Vazduh","Libelium","0004A30B0021DF70",44.979,16.7091,"","","Prijedor","",20572825,"2023-06-24T10:40:57",3,"NO ERROR",24.61,75.7,1004.77,0.15,0.22,0.23],
    [621,363171,"Vazduh","Libelium","0004A30B0021DF70",44.979,16.7091,"","","Prijedor","",20573384,"2023-06-24T11:41:39",3,"NO ERROR",24.01,75.7,1005.15,0.17,0.19,0.19],
    [622,363171,"Vazduh","Libelium","0004A30B0021DF70",44.979,16.7091,"","","Prijedor","",20573952,"2023-06-24T12:42:21",3,"NO ERROR",24.73,68.5,1004.9,0.11,0.14,0.14],
    [623,363171,"Vazduh","Libelium","0004A30B0021DF70",44.979,16.7091,"","","Prijedor","",20574521,"2023-06-24T13:43:03",3,"NO ERROR",25.54,65.9,1004.54,0.09,0.12,0.12],
    [624,363171,"Vazduh","Libelium","0004A30B0021DF70",44.979,16.7091,"","","Prijedor","",20575088,"2023-06-24T14:43:45",3,"NO ERROR",24.54,68.4,1004.41,0.13,0.25,0.34],
    [625,363171,"Vazduh","Libelium","0004A30B0021DF70",44.979,16.7091,"","","Prijedor","",20575656,"2023-06-24T15:44:27",3,"NO ERROR",24.65,65.7,1004.26,0.09,0.21,0.28],
    [626,363171,"Vazduh","Libelium","0004A30B0021DF70",44.979,16.7091,"","","Prijedor","",20576223,"2023-06-24T16:45:09",3,"NO ERROR",24.63,67.4,1004.05,0.26,0.37,0.38],
    [627,363171,"Vazduh","Libelium","0004A30B0021DF70",44.979,16.7091,"","","Prijedor","",20576769,"2023-06-24T17:45:51",3,"NO ERROR",24.17,72.2,1004.11,0.07,0.11,0.13],
    [628,363171,"Vazduh","Libelium","0004A30B0021DF70",44.979,16.7091,"","","Prijedor","",20577319,"2023-06-24T18:46:33",3,"NO ERROR",23.23,76,1003.97,0.04,0.07,0.07],
    [629,363171,"Vazduh","Libelium","0004A30B0021DF70",44.979,16.7091,"","","Prijedor","",20577879,"2023-06-24T19:47:15",3,"NO ERROR",22.61,81.5,1004.36,0.08,0.16,1.01],
    [630,363171,"Vazduh","Libelium","0004A30B0021DF70",44.979,16.7091,"","","Prijedor","",20578437,"2023-06-24T20:47:56",3,"NO ERROR",21.84,85,1004.94,0.11,0.22,0.48],
    [631,363171,"Vazduh","Libelium","0004A30B0021DF70",44.979,16.7091,"","","Prijedor","",20581051,"2023-06-24T21:48:38",3,"NO ERROR",21.39,85,1004.95,0.03,0.07,0.09],
    [632,363171,"Vazduh","Libelium","0004A30B0021DF70",44.979,16.7091,"","","Prijedor","",20583065,"2023-06-24T22:49:20",3,"NO ERROR",20.9,84.3,1005.24,0.06,0.08,0.08],
    [633,363171,"Vazduh","Libelium","0004A30B0021DF70",44.979,16.7091,"","","Prijedor","",20584643,"2023-06-24T23:50:03",3,"NO ERROR",20.34,90.5,1004.92,0.26,0.36,0.37],
    [634,363171,"Vazduh","Libelium","0004A30B0021DF70",44.979,16.7091,"","","Prijedor","",20586408,"2023-06-25T00:50:45",3,"NO ERROR",18.28,100,1004.55,0.14,0.18,0.19],
    [635,363171,"Vazduh","Libelium","0004A30B0021DF70",44.979,16.7091,"","","Prijedor","",20587808,"2023-06-25T01:51:27",3,"NO ERROR",17.27,100,1004.34,0.09,0.18,0.19],
    [636,363171,"Vazduh","Libelium","0004A30B0021DF70",44.979,16.7091,"","","Prijedor","",20589061,"2023-06-25T02:52:09",3,"NO ERROR",16.92,100,1004.04,0.19,0.25,0.25],
    [637,363171,"Vazduh","Libelium","0004A30B0021DF70",44.979,16.7091,"","","Prijedor","",20590250,"2023-06-25T03:52:50",3,"NO ERROR",17.22,100,1004.12,0.55,0.97,1],
    [638,363171,"Vazduh","Libelium","0004A30B0021DF70",44.979,16.7091,"","","Prijedor","",20591326,"2023-06-25T04:53:31",3,"NO ERROR",17.23,100,1003.74,0.43,0.52,0.52],
    [639,363171,"Vazduh","Libelium","0004A30B0021DF70",44.979,16.7091,"","","Prijedor","",20591897,"2023-06-25T05:54:13",3,"NO ERROR",16.27,100,1003.6,0.39,0.58,0.59],
    [640,363171,"Vazduh","Libelium","0004A30B0021DF70",44.979,16.7091,"","","Prijedor","",20592432,"2023-06-25T06:54:54",3,"NO ERROR",18.94,100,1003.68,0.23,0.25,0.25],
    [641,363171,"Vazduh","Libelium","0004A30B0021DF70",44.979,16.7091,"","","Prijedor","",20592961,"2023-06-25T07:55:36",3,"NO ERROR",19.8,100,1003.65,0.17,0.25,0.25],
    [642,363171,"Vazduh","Libelium","0004A30B0021DF70",44.979,16.7091,"","","Prijedor","",20593512,"2023-06-25T08:56:24",3,"NO ERROR",21.33,87.7,1003.52,0.11,0.19,0.2],
    [643,363171,"Vazduh","Libelium","0004A30B0021DF70",44.979,16.7091,"","","Prijedor","",20594087,"2023-06-25T09:57:06",3,"NO ERROR",23.14,69.3,1003.26,0.26,0.34,0.35],
    [644,363171,"Vazduh","Libelium","0004A30B0021DF70",44.979,16.7091,"","","Prijedor","",20594696,"2023-06-25T10:57:48",3,"NO ERROR",23.33,68.6,1003.14,0.15,0.22,0.23],
    [645,363171,"Vazduh","Libelium","0004A30B0021DF70",44.979,16.7091,"","","Prijedor","",20595258,"2023-06-25T11:58:29",3,"NO ERROR",24.36,66.3,1002.78,0.32,0.76,1.51],
    [646,363171,"Vazduh","Libelium","0004A30B0021DF70",44.979,16.7091,"","","Prijedor","",20595865,"2023-06-25T12:59:11",3,"NO ERROR",23.51,72.6,1002.7,0.2,0.3,0.31],
    [647,363171,"Vazduh","Libelium","0004A30B0021DF70",44.979,16.7091,"","","Prijedor","",20596429,"2023-06-25T13:59:53",3,"NO ERROR",24.09,70.3,1002.42,0.1,0.14,0.14],
    [648,363171,"Vazduh","Libelium","0004A30B0021DF70",44.979,16.7091,"","","Prijedor","",20597015,"2023-06-25T15:00:34",3,"NO ERROR",24.23,72,1002.12,0.21,0.3,0.31],
    [649,363171,"Vazduh","Libelium","0004A30B0021DF70",44.979,16.7091,"","","Prijedor","",20597597,"2023-06-25T16:01:15",3,"NO ERROR",26.18,64,1001.78,0.08,0.12,0.12],
    [650,363171,"Vazduh","Libelium","0004A30B0021DF70",44.979,16.7091,"","","Prijedor","",20598215,"2023-06-25T17:01:57",3,"NO ERROR",24.65,69.7,1001.45,0.19,0.26,0.27],
    [651,363171,"Vazduh","Libelium","0004A30B0021DF70",44.979,16.7091,"","","Prijedor","",20598764,"2023-06-25T18:02:39",3,"NO ERROR",24.22,73.8,1001.28,0.27,0.36,0.37],
    [652,363171,"Vazduh","Libelium","0004A30B0021DF70",44.979,16.7091,"","","Prijedor","",20599359,"2023-06-25T19:03:21",3,"NO ERROR",23.71,77.5,1001.12,0.25,0.31,0.33],
    [653,363171,"Vazduh","Libelium","0004A30B0021DF70",44.979,16.7091,"","","Prijedor","",20599947,"2023-06-25T20:04:02",3,"NO ERROR",22.38,87.5,1001.18,0.31,0.36,0.36],
    [654,363171,"Vazduh","Libelium","0004A30B0021DF70",44.979,16.7091,"","","Prijedor","",20600852,"2023-06-25T21:04:44",3,"NO ERROR",20.87,100,1001.52,3.5,4.01,4.03],
    [655,363171,"Vazduh","Libelium","0004A30B0021DF70",44.979,16.7091,"","","Prijedor","",20603624,"2023-06-25T22:05:26",3,"NO ERROR",19.87,100,1001.84,0.9,1.01,1.01],
    [656,363171,"Vazduh","Libelium","0004A30B0021DF70",44.979,16.7091,"","","Prijedor","",20605374,"2023-06-25T23:06:07",3,"NO ERROR",18.51,100,1002.12,0.57,0.61,0.61],
    [657,363171,"Vazduh","Libelium","0004A30B0021DF70",44.979,16.7091,"","","Prijedor","",20606954,"2023-06-26T00:06:49",3,"NO ERROR",17.79,100,1002.19,0.73,0.79,0.79],
    [658,363171,"Vazduh","Libelium","0004A30B0021DF70",44.979,16.7091,"","","Prijedor","",20608410,"2023-06-26T01:07:31",3,"NO ERROR",17.34,100,1002.24,0.56,0.64,0.65],
    [659,363171,"Vazduh","Libelium","0004A30B0021DF70",44.979,16.7091,"","","Prijedor","",20609804,"2023-06-26T02:08:14",3,"NO ERROR",16.46,100,1001.75,1.88,2.43,2.47],
    [660,363171,"Vazduh","Libelium","0004A30B0021DF70",44.979,16.7091,"","","Prijedor","",20611197,"2023-06-26T03:08:56",3,"NO ERROR",15.61,100,1001.61,1.68,1.85,1.86],
    [661,363171,"Vazduh","Libelium","0004A30B0021DF70",44.979,16.7091,"","","Prijedor","",20612606,"2023-06-26T04:09:38",3,"NO ERROR",15.51,100,1001.34,6.17,8.61,61.41],
    [662,363171,"Vazduh","Libelium","0004A30B0021DF70",44.979,16.7091,"","","Prijedor","",20613699,"2023-06-26T05:10:20",3,"NO ERROR",15.92,100,1001.57,1.81,2.1,2.1],
    [663,363171,"Vazduh","Libelium","0004A30B0021DF70",44.979,16.7091,"","","Prijedor","",20614367,"2023-06-26T06:11:02",3,"NO ERROR",16.68,100,1001.62,0.38,0.48,0.49],
    [664,363171,"Vazduh","Libelium","0004A30B0021DF70",44.979,16.7091,"","","Prijedor","",20615024,"2023-06-26T07:11:44",3,"NO ERROR",17.94,100,1002.02,0.63,0.78,0.78],
    [665,363171,"Vazduh","Libelium","0004A30B0021DF70",44.979,16.7091,"","","Prijedor","",20615582,"2023-06-26T08:12:32",3,"NO ERROR",20.33,100,1002,1.32,1.55,1.55],
    [666,363171,"Vazduh","Libelium","0004A30B0021DF70",44.979,16.7091,"","","Prijedor","",20616162,"2023-06-26T09:13:13",3,"NO ERROR",25.69,79.5,1001.99,0.88,1.02,1.03],
    [667,363171,"Vazduh","Libelium","0004A30B0021DF70",44.979,16.7091,"","","Prijedor","",20616729,"2023-06-26T10:14:00",3,"NO ERROR",27.9,69.2,1001.73,0.14,0.23,0.25],
    [668,363171,"Vazduh","Libelium","0004A30B0021DF70",44.979,16.7091,"","","Prijedor","",20617305,"2023-06-26T11:14:42",3,"NO ERROR",27.2,61,1001.44,0.13,0.18,0.18],
    [669,363171,"Vazduh","Libelium","0004A30B0021DF70",44.979,16.7091,"","","Prijedor","",20617890,"2023-06-26T12:15:23",3,"NO ERROR",28.04,52.1,1001.14,0.25,0.26,0.26],
    [670,363171,"Vazduh","Libelium","0004A30B0021DF70",44.979,16.7091,"","","Prijedor","",20618473,"2023-06-26T13:16:04",3,"NO ERROR",28.78,49.5,1000.9,0.28,0.52,1.01],
    [671,363171,"Vazduh","Libelium","0004A30B0021DF70",44.979,16.7091,"","","Prijedor","",20619040,"2023-06-26T14:16:46",3,"NO ERROR",30.81,45.6,1000.68,0.14,0.19,0.19],
    [672,363171,"Vazduh","Libelium","0004A30B0021DF70",44.979,16.7091,"","","Prijedor","",20619595,"2023-06-26T15:17:29",3,"NO ERROR",32.34,42.5,1000.41,0.13,0.14,0.14],
    [673,363171,"Vazduh","Libelium","0004A30B0021DF70",44.979,16.7091,"","","Prijedor","",20620134,"2023-06-26T16:18:10",3,"NO ERROR",33.01,41.2,1000.02,0.18,0.22,0.22],
    [674,363171,"Vazduh","Libelium","0004A30B0021DF70",44.979,16.7091,"","","Prijedor","",20620665,"2023-06-26T17:18:52",3,"NO ERROR",32.42,42.6,999.8,0.41,0.57,0.71],
    [675,363171,"Vazduh","Libelium","0004A30B0021DF70",44.979,16.7091,"","","Prijedor","",20621184,"2023-06-26T18:19:34",3,"NO ERROR",29,50.2,999.58,0.17,0.26,0.29],
    [676,363171,"Vazduh","Libelium","0004A30B0021DF70",44.979,16.7091,"","","Prijedor","",20621665,"2023-06-26T19:20:22",3,"NO ERROR",28.03,52.5,999.48,0.21,0.37,0.81],
    [677,363171,"Vazduh","Libelium","0004A30B0021DF70",44.979,16.7091,"","","Prijedor","",20622192,"2023-06-26T20:21:03",3,"NO ERROR",26.42,60.7,999.43,0.61,0.98,3.01],
    [678,363171,"Vazduh","Libelium","0004A30B0021DF70",44.979,16.7091,"","","Prijedor","",20624009,"2023-06-26T21:21:44",3,"NO ERROR",23.43,86.5,999.85,0.5,0.67,0.71],
    [679,363171,"Vazduh","Libelium","0004A30B0021DF70",44.979,16.7091,"","","Prijedor","",20626554,"2023-06-26T22:22:25",3,"NO ERROR",21.29,100,1000.24,0.67,1.12,1.64],
    [680,363171,"Vazduh","Libelium","0004A30B0021DF70",44.979,16.7091,"","","Prijedor","",20628341,"2023-06-26T23:23:06",3,"NO ERROR",20.25,100,1000.37,0.88,1.11,1.11],
    [681,363171,"Vazduh","Libelium","0004A30B0021DF70",44.979,16.7091,"","","Prijedor","",20630122,"2023-06-27T00:23:48",3,"NO ERROR",18.83,100,1000.38,0.96,1.39,1.87],
    [682,363171,"Vazduh","Libelium","0004A30B0021DF70",44.979,16.7091,"","","Prijedor","",20631526,"2023-06-27T01:24:30",3,"NO ERROR",18.35,100,1000.31,0.71,1,1.02],
    [683,363171,"Vazduh","Libelium","0004A30B0021DF70",44.979,16.7091,"","","Prijedor","",20632748,"2023-06-27T02:25:12",3,"NO ERROR",17.63,100,1000.22,0.64,0.82,0.83],
    [684,363171,"Vazduh","Libelium","0004A30B0021DF70",44.979,16.7091,"","","Prijedor","",20633887,"2023-06-27T03:25:54",3,"NO ERROR",16.56,100,1000.08,0.68,0.8,0.81],
    [685,363171,"Vazduh","Libelium","0004A30B0021DF70",44.979,16.7091,"","","Prijedor","",20635059,"2023-06-27T04:26:35",3,"NO ERROR",16.72,100,999.86,1.63,2.14,2.19],
    [686,363171,"Vazduh","Libelium","0004A30B0021DF70",44.979,16.7091,"","","Prijedor","",20635750,"2023-06-27T05:27:17",3,"NO ERROR",17.17,100,999.94,0.29,0.33,0.34],
    [687,363171,"Vazduh","Libelium","0004A30B0021DF70",44.979,16.7091,"","","Prijedor","",20636312,"2023-06-27T06:27:59",3,"NO ERROR",17.72,100,999.81,0.59,0.75,0.75],
    [688,363171,"Vazduh","Libelium","0004A30B0021DF70",44.979,16.7091,"","","Prijedor","",20636832,"2023-06-27T07:28:41",3,"NO ERROR",21.47,93.2,999.94,0.43,0.55,0.56],
    [689,363171,"Vazduh","Libelium","0004A30B0021DF70",44.979,16.7091,"","","Prijedor","",20637385,"2023-06-27T08:29:22",3,"NO ERROR",24.58,78.2,999.87,0.35,0.41,0.41],
    [690,363171,"Vazduh","Libelium","0004A30B0021DF70",44.979,16.7091,"","","Prijedor","",20637922,"2023-06-27T09:30:04",3,"NO ERROR",26.05,66.6,999.92,0.49,0.6,0.62],
    [691,363171,"Vazduh","Libelium","0004A30B0021DF70",44.979,16.7091,"","","Prijedor","",20638462,"2023-06-27T10:30:45",3,"NO ERROR",28.66,58.9,999.75,0.42,0.53,0.54],
    [692,363171,"Vazduh","Libelium","0004A30B0021DF70",44.979,16.7091,"","","Prijedor","",20638986,"2023-06-27T11:31:26",3,"NO ERROR",29.67,56.2,999.28,0.21,0.32,0.57],
    [693,363171,"Vazduh","Libelium","0004A30B0021DF70",44.979,16.7091,"","","Prijedor","",20639556,"2023-06-27T12:32:08",3,"NO ERROR",30.77,52.5,999.34,0.32,0.39,0.39],
    [694,363171,"Vazduh","Libelium","0004A30B0021DF70",44.979,16.7091,"","","Prijedor","",20640093,"2023-06-27T13:32:50",3,"NO ERROR",31.85,52.9,998.76,0.42,0.62,0.74],
    [695,363171,"Vazduh","Libelium","0004A30B0021DF70",44.979,16.7091,"","","Prijedor","",20640614,"2023-06-27T14:33:32",3,"NO ERROR",31.04,52.5,998.75,0.19,0.21,0.21],
    [696,363171,"Vazduh","Libelium","0004A30B0021DF70",44.979,16.7091,"","","Prijedor","",20641159,"2023-06-27T15:34:20",3,"NO ERROR",28.72,56.8,998.48,0.4,0.55,0.57],
    [697,363171,"Vazduh","Libelium","0004A30B0021DF70",44.979,16.7091,"","","Prijedor","",20641678,"2023-06-27T16:35:02",3,"NO ERROR",29.61,53.6,998.35,0.61,0.85,0.96],
    [698,363171,"Vazduh","Libelium","0004A30B0021DF70",44.979,16.7091,"","","Prijedor","",20642177,"2023-06-27T17:35:44",3,"NO ERROR",25.9,52.6,998.55,0.58,0.81,0.82],
    [699,363171,"Vazduh","Libelium","0004A30B0021DF70",44.979,16.7091,"","","Prijedor","",20642714,"2023-06-27T18:36:26",3,"NO ERROR",24.04,58.6,999.27,0.49,0.68,0.69],
    [700,363171,"Vazduh","Libelium","0004A30B0021DF70",44.979,16.7091,"","","Prijedor","",20643233,"2023-06-27T19:37:07",3,"NO ERROR",22.38,60.9,1000.49,0.19,0.35,0.38],
    [701,363171,"Vazduh","Libelium","0004A30B0021DF70",44.979,16.7091,"","","Prijedor","",20643738,"2023-06-27T20:37:49",3,"NO ERROR",16.91,100,1001.05,0.85,1.17,1.3],
    [702,363171,"Vazduh","Libelium","0004A30B0021DF70",44.979,16.7091,"","","Prijedor","",20646163,"2023-06-27T21:38:31",3,"NO ERROR",17.48,100,1002.53,0.36,0.47,0.47],
    [703,363171,"Vazduh","Libelium","0004A30B0021DF70",44.979,16.7091,"","","Prijedor","",20648377,"2023-06-27T22:39:13",3,"NO ERROR",18.1,100,1003.09,0.44,0.55,0.56],
    [704,363171,"Vazduh","Libelium","0004A30B0021DF70",44.979,16.7091,"","","Prijedor","",20650008,"2023-06-27T23:39:55",3,"NO ERROR",18.66,100,1002.89,0.4,0.54,0.54],
    [705,363171,"Vazduh","Libelium","0004A30B0021DF70",44.979,16.7091,"","","Prijedor","",20651704,"2023-06-28T00:40:37",3,"NO ERROR",18.1,100,1003.03,0.29,0.39,0.39],
    [706,363171,"Vazduh","Libelium","0004A30B0021DF70",44.979,16.7091,"","","Prijedor","",20652970,"2023-06-28T01:41:18",3,"NO ERROR",16.81,100,1002.95,0.84,1,1],
    [707,363171,"Vazduh","Libelium","0004A30B0021DF70",44.979,16.7091,"","","Prijedor","",20654248,"2023-06-28T02:42:00",3,"NO ERROR",16.44,100,1002.3,1.59,2.07,2.08],
    [708,363171,"Vazduh","Libelium","0004A30B0021DF70",44.979,16.7091,"","","Prijedor","",20655438,"2023-06-28T03:42:43",3,"NO ERROR",15.99,100,1002.15,0.88,1.14,1.14],
    [709,363171,"Vazduh","Libelium","0004A30B0021DF70",44.979,16.7091,"","","Prijedor","",20656727,"2023-06-28T04:43:25",3,"NO ERROR",16.21,100,1001.4,0.74,0.97,0.99],
    [710,363171,"Vazduh","Libelium","0004A30B0021DF70",44.979,16.7091,"","","Prijedor","",20657311,"2023-06-28T05:44:07",3,"NO ERROR",16.13,100,1001.17,0.63,0.78,0.78],
    [711,363171,"Vazduh","Libelium","0004A30B0021DF70",44.979,16.7091,"","","Prijedor","",20657927,"2023-06-28T06:44:49",3,"NO ERROR",16.36,100,1001.48,0.33,0.39,0.39],
    [712,363171,"Vazduh","Libelium","0004A30B0021DF70",44.979,16.7091,"","","Prijedor","",20658493,"2023-06-28T07:45:31",3,"NO ERROR",16.41,100,1001.66,0.46,0.55,0.55],
    [713,363171,"Vazduh","Libelium","0004A30B0021DF70",44.979,16.7091,"","","Prijedor","",20659060,"2023-06-28T08:46:13",3,"NO ERROR",16.76,100,1002.6,0.61,0.95,1.11],
    [714,363171,"Vazduh","Libelium","0004A30B0021DF70",44.979,16.7091,"","","Prijedor","",20659626,"2023-06-28T09:46:55",3,"NO ERROR",16.89,100,1003.73,0.28,0.44,0.44],
    [715,363171,"Vazduh","Libelium","0004A30B0021DF70",44.979,16.7091,"","","Prijedor","",20660167,"2023-06-28T10:47:37",3,"NO ERROR",17.74,100,1003.76,0.38,0.51,0.51],
    [716,363171,"Vazduh","Libelium","0004A30B0021DF70",44.979,16.7091,"","","Prijedor","",20660672,"2023-06-28T11:48:19",3,"NO ERROR",19.41,100,1003.41,0.14,0.18,0.19],
    [717,363171,"Vazduh","Libelium","0004A30B0021DF70",44.979,16.7091,"","","Prijedor","",20661232,"2023-06-28T12:49:01",3,"NO ERROR",21.71,76,1003.1,0.21,0.31,0.32],
    [718,363171,"Vazduh","Libelium","0004A30B0021DF70",44.979,16.7091,"","","Prijedor","",20661790,"2023-06-28T13:49:43",3,"NO ERROR",22.39,68.7,1002.68,0.11,0.24,0.63],
    [719,363171,"Vazduh","Libelium","0004A30B0021DF70",44.979,16.7091,"","","Prijedor","",20662332,"2023-06-28T14:50:31",3,"NO ERROR",25.3,56.9,1002.3,0.23,0.3,0.31],
    [720,363171,"Vazduh","Libelium","0004A30B0021DF70",44.979,16.7091,"","","Prijedor","",20662861,"2023-06-28T15:51:13",3,"NO ERROR",25.55,54.6,1002.11,0.36,0.4,0.4],
    [721,363171,"Vazduh","Libelium","0004A30B0021DF70",44.979,16.7091,"","","Prijedor","",20663421,"2023-06-28T16:51:56",3,"NO ERROR",24.18,59.7,1001.98,0.15,0.25,0.32],
    [722,363171,"Vazduh","Libelium","0004A30B0021DF70",44.979,16.7091,"","","Prijedor","",20663947,"2023-06-28T17:52:38",3,"NO ERROR",23.74,60.1,1001.55,0.27,0.48,0.57],
    [723,363171,"Vazduh","Libelium","0004A30B0021DF70",44.979,16.7091,"","","Prijedor","",20664457,"2023-06-28T18:53:20",3,"NO ERROR",21.79,67.2,1001.57,0.31,0.4,0.4],
    [724,363171,"Vazduh","Libelium","0004A30B0021DF70",44.979,16.7091,"","","Prijedor","",20664975,"2023-06-28T19:54:02",3,"NO ERROR",21.01,70.8,1001.7,0.19,0.22,0.22],
    [725,363171,"Vazduh","Libelium","0004A30B0021DF70",44.979,16.7091,"","","Prijedor","",20665530,"2023-06-28T20:54:44",3,"NO ERROR",19.54,82.4,1002.05,0.6,0.7,0.7],
    [726,363171,"Vazduh","Libelium","0004A30B0021DF70",44.979,16.7091,"","","Prijedor","",20668401,"2023-06-28T21:55:25",3,"NO ERROR",17.32,100,1002.89,0.4,0.7,0.74],
    [727,363171,"Vazduh","Libelium","0004A30B0021DF70",44.979,16.7091,"","","Prijedor","",20670227,"2023-06-28T22:56:07",3,"NO ERROR",16.14,100,1003.3,0.25,0.35,1.41],
    [728,363171,"Vazduh","Libelium","0004A30B0021DF70",44.979,16.7091,"","","Prijedor","",20671824,"2023-06-28T23:56:49",3,"NO ERROR",14.72,100,1003.58,0.43,0.67,0.69],
    [729,363171,"Vazduh","Libelium","0004A30B0021DF70",44.979,16.7091,"","","Prijedor","",20673693,"2023-06-29T00:57:30",3,"NO ERROR",14.12,100,1003.75,0.38,0.47,0.47],
    [730,363171,"Vazduh","Libelium","0004A30B0021DF70",44.979,16.7091,"","","Prijedor","",20675186,"2023-06-29T01:58:12",3,"NO ERROR",13.04,100,1003.62,0.17,0.3,0.31],
    [731,363171,"Vazduh","Libelium","0004A30B0021DF70",44.979,16.7091,"","","Prijedor","",20676492,"2023-06-29T02:58:54",3,"NO ERROR",12.35,100,1003.76,0.42,0.54,0.55],
    [732,363171,"Vazduh","Libelium","0004A30B0021DF70",44.979,16.7091,"","","Prijedor","",20677680,"2023-06-29T03:59:35",3,"NO ERROR",12.03,100,1003.66,0.59,0.67,0.67],
    [733,363171,"Vazduh","Libelium","0004A30B0021DF70",44.979,16.7091,"","","Prijedor","",20678785,"2023-06-29T05:00:17",3,"NO ERROR",12.22,100,1003.71,1.35,1.91,2.18],
    [734,363171,"Vazduh","Libelium","0004A30B0021DF70",44.979,16.7091,"","","Prijedor","",20679349,"2023-06-29T06:01:00",3,"NO ERROR",12.8,100,1003.94,0.97,1.64,2.55],
    [735,363171,"Vazduh","Libelium","0004A30B0021DF70",44.979,16.7091,"","","Prijedor","",20679881,"2023-06-29T07:01:42",3,"NO ERROR",14.12,100,1004.27,0.05,0.05,0.05],
    [736,363171,"Vazduh","Libelium","0004A30B0021DF70",44.979,16.7091,"","","Prijedor","",20680391,"2023-06-29T08:02:24",3,"NO ERROR",21.15,73.6,1004.21,0.05,0.05,0.05],
    [737,363171,"Vazduh","Libelium","0004A30B0021DF70",44.979,16.7091,"","","Prijedor","",20680958,"2023-06-29T09:03:06",3,"NO ERROR",22.09,72.1,1004.1,0.35,0.49,0.51],
    [738,363171,"Vazduh","Libelium","0004A30B0021DF70",44.979,16.7091,"","","Prijedor","",20681460,"2023-06-29T10:03:48",3,"NO ERROR",24.63,64.9,1003.84,0.05,0.1,0.1],
    [739,363171,"Vazduh","Libelium","0004A30B0021DF70",44.979,16.7091,"","","Prijedor","",20682000,"2023-06-29T11:04:29",3,"NO ERROR",24.62,59.9,1003.45,0.43,0.5,0.5],
    [740,363171,"Vazduh","Libelium","0004A30B0021DF70",44.979,16.7091,"","","Prijedor","",20682528,"2023-06-29T12:05:11",3,"NO ERROR",25.24,53.5,1003.02,0.07,0.09,0.09],
    [741,363171,"Vazduh","Libelium","0004A30B0021DF70",44.979,16.7091,"","","Prijedor","",20683077,"2023-06-29T13:05:53",3,"NO ERROR",26.26,50,1002.47,0.19,0.26,0.26],
    [742,363171,"Vazduh","Libelium","0004A30B0021DF70",44.979,16.7091,"","","Prijedor","",20683569,"2023-06-29T14:06:35",3,"NO ERROR",26.82,47,1001.88,0.21,0.28,0.28],
    [743,363171,"Vazduh","Libelium","0004A30B0021DF70",44.979,16.7091,"","","Prijedor","",20684090,"2023-06-29T15:07:23",3,"NO ERROR",29.1,43.2,1001.27,0.23,0.35,0.37],
    [744,363171,"Vazduh","Libelium","0004A30B0021DF70",44.979,16.7091,"","","Prijedor","",20684621,"2023-06-29T16:08:12",3,"NO ERROR",27.26,46.9,1000.98,0.1,0.11,0.11],
    [745,363171,"Vazduh","Libelium","0004A30B0021DF70",44.979,16.7091,"","","Prijedor","",20685186,"2023-06-29T17:08:53",3,"NO ERROR",31.58,39.2,1000.4,0.08,0.11,0.11],
    [746,363171,"Vazduh","Libelium","0004A30B0021DF70",44.979,16.7091,"","","Prijedor","",20685695,"2023-06-29T18:09:35",3,"NO ERROR",27.59,45,1000.06,0.2,0.22,0.22],
    [747,363171,"Vazduh","Libelium","0004A30B0021DF70",44.979,16.7091,"","","Prijedor","",20686197,"2023-06-29T19:10:17",3,"NO ERROR",25.62,48.6,999.68,0.21,0.25,0.25],
    [748,363171,"Vazduh","Libelium","0004A30B0021DF70",44.979,16.7091,"","","Prijedor","",20686718,"2023-06-29T20:10:59",3,"NO ERROR",24.61,52.5,999.51,0.11,0.14,0.14],
    [749,363171,"Vazduh","Libelium","0004A30B0021DF70",44.979,16.7091,"","","Prijedor","",20687920,"2023-06-29T21:11:41",3,"NO ERROR",21.33,78,999.89,0.48,0.72,1.04],
    [750,363171,"Vazduh","Libelium","0004A30B0021DF70",44.979,16.7091,"","","Prijedor","",20690805,"2023-06-29T22:12:23",3,"NO ERROR",19.21,93.9,1000.03,0.84,1.17,1.29],
    [751,363171,"Vazduh","Libelium","0004A30B0021DF70",44.979,16.7091,"","","Prijedor","",20692755,"2023-06-29T23:13:05",3,"NO ERROR",17.28,100,1000.04,1.01,1.32,1.32],
    [752,363171,"Vazduh","Libelium","0004A30B0021DF70",44.979,16.7091,"","","Prijedor","",20694627,"2023-06-30T00:13:47",3,"NO ERROR",16.1,100,1000.1,0.16,0.21,0.22],
    [753,363171,"Vazduh","Libelium","0004A30B0021DF70",44.979,16.7091,"","","Prijedor","",20696261,"2023-06-30T01:14:29",3,"NO ERROR",15.62,100,1000.09,0.79,1.07,1.09],
    [754,363171,"Vazduh","Libelium","0004A30B0021DF70",44.979,16.7091,"","","Prijedor","",20697716,"2023-06-30T02:15:11",3,"NO ERROR",15.11,100,999.64,0.31,0.39,0.4],
    [755,363171,"Vazduh","Libelium","0004A30B0021DF70",44.979,16.7091,"","","Prijedor","",20699076,"2023-06-30T03:15:53",3,"NO ERROR",13.33,100,999.57,0.28,0.38,0.4],
    [756,363171,"Vazduh","Libelium","0004A30B0021DF70",44.979,16.7091,"","","Prijedor","",20700494,"2023-06-30T04:16:35",3,"NO ERROR",12.56,100,999.5,0.16,0.29,0.4],
    [757,363171,"Vazduh","Libelium","0004A30B0021DF70",44.979,16.7091,"","","Prijedor","",20701556,"2023-06-30T05:17:17",3,"NO ERROR",12.09,100,999.49,0.21,0.23,0.23],
    [758,363171,"Vazduh","Libelium","0004A30B0021DF70",44.979,16.7091,"","","Prijedor","",20702280,"2023-06-30T06:18:00",3,"NO ERROR",12.67,100,999.6,0.2,0.24,0.24],
    [759,363171,"Vazduh","Libelium","0004A30B0021DF70",44.979,16.7091,"","","Prijedor","",20702937,"2023-06-30T07:18:42",3,"NO ERROR",19.47,85.5,999.17,0.43,0.65,0.79],
    [760,363171,"Vazduh","Libelium","0004A30B0021DF70",44.979,16.7091,"","","Prijedor","",20703614,"2023-06-30T08:19:24",3,"NO ERROR",23.44,68.9,999.06,0.2,0.32,0.34],
    [761,363171,"Vazduh","Libelium","0004A30B0021DF70",44.979,16.7091,"","","Prijedor","",20704274,"2023-06-30T09:20:06",3,"NO ERROR",24.77,60.1,998.67,0.19,0.34,0.4],
    [762,363171,"Vazduh","Libelium","0004A30B0021DF70",44.979,16.7091,"","","Prijedor","",20704822,"2023-06-30T10:20:54",3,"NO ERROR",26.19,57.9,997.83,0.3,0.37,0.39],
    [763,363171,"Vazduh","Libelium","0004A30B0021DF70",44.979,16.7091,"","","Prijedor","",20705324,"2023-06-30T11:21:36",3,"NO ERROR",27.52,52.7,997.79,0.5,0.66,0.66],
    [764,363171,"Vazduh","Libelium","0004A30B0021DF70",44.979,16.7091,"","","Prijedor","",20705862,"2023-06-30T12:22:18",3,"NO ERROR",29.29,46.5,997.37,0.36,0.56,0.68],
    [765,363171,"Vazduh","Libelium","0004A30B0021DF70",44.979,16.7091,"","","Prijedor","",20706408,"2023-06-30T13:23:00",3,"NO ERROR",29.57,42.1,996.85,0.27,0.41,0.5],
    [766,363171,"Vazduh","Libelium","0004A30B0021DF70",44.979,16.7091,"","","Prijedor","",20706928,"2023-06-30T14:23:42",3,"NO ERROR",32.02,41,996.27,0.18,0.2,0.2],
    [767,363171,"Vazduh","Libelium","0004A30B0021DF70",44.979,16.7091,"","","Prijedor","",20707430,"2023-06-30T15:24:30",3,"NO ERROR",33.16,39.5,995.24,0.27,0.35,0.35],
    [768,363171,"Vazduh","Libelium","0004A30B0021DF70",44.979,16.7091,"","","Prijedor","",20707988,"2023-06-30T16:25:12",3,"NO ERROR",36.16,36.1,994.48,0.26,0.28,0.28],
    [769,363171,"Vazduh","Libelium","0004A30B0021DF70",44.979,16.7091,"","","Prijedor","",20708517,"2023-06-30T17:25:55",3,"NO ERROR",34.94,36.9,993.77,0.22,0.26,0.26],
    [770,363171,"Vazduh","Libelium","0004A30B0021DF70",44.979,16.7091,"","","Prijedor","",20709048,"2023-06-30T18:26:37",3,"NO ERROR",30.14,42.3,993.21,0.19,0.24,0.26],
    [771,363171,"Vazduh","Libelium","0004A30B0021DF70",44.979,16.7091,"","","Prijedor","",20709559,"2023-06-30T19:27:19",3,"NO ERROR",27.6,43.8,993.52,0.11,0.17,0.17],
    [772,363171,"Vazduh","Libelium","0004A30B0021DF70",44.979,16.7091,"","","Prijedor","",20710099,"2023-06-30T20:28:00",3,"NO ERROR",25.4,48.3,993.68,0.56,0.86,0.9],
    [773,363171,"Vazduh","Libelium","0004A30B0021DF70",44.979,16.7091,"","","Prijedor","",20712060,"2023-06-30T21:28:42",3,"NO ERROR",24.06,55.8,994.18,0.79,1.07,1.09],
    [774,363171,"Vazduh","Libelium","0004A30B0021DF70",44.979,16.7091,"","","Prijedor","",20714300,"2023-06-30T22:29:24",3,"NO ERROR",20.78,71.7,994.55,0.35,0.65,4.29],
    [775,363171,"Vazduh","Libelium","0004A30B0021DF70",44.979,16.7091,"","","Prijedor","",20715945,"2023-06-30T23:30:06",3,"NO ERROR",20.29,76.9,994.43,0.2,0.37,0.74],
    [776,363171,"Vazduh","Libelium","0004A30B0021DF70",44.979,16.7091,"","","Prijedor","",20717666,"2023-07-01T00:30:48",3,"NO ERROR",19.47,84.1,994.12,0.24,0.34,0.34],
    [777,363171,"Vazduh","Libelium","0004A30B0021DF70",44.979,16.7091,"","","Prijedor","",20719005,"2023-07-01T01:31:30",3,"NO ERROR",19.04,90.7,994.22,0.68,0.88,0.89],
    [778,363171,"Vazduh","Libelium","0004A30B0021DF70",44.979,16.7091,"","","Prijedor","",20720277,"2023-07-01T02:32:18",3,"NO ERROR",18.71,98.6,993.93,0.59,0.76,0.77],
    [779,363171,"Vazduh","Libelium","0004A30B0021DF70",44.979,16.7091,"","","Prijedor","",20721559,"2023-07-01T03:32:59",3,"NO ERROR",18.29,99,994.11,0.25,0.42,0.5],
    [780,363171,"Vazduh","Libelium","0004A30B0021DF70",44.979,16.7091,"","","Prijedor","",20722802,"2023-07-01T04:33:41",3,"NO ERROR",18.53,100,994.07,0.48,0.69,1.14],
    [781,363171,"Vazduh","Libelium","0004A30B0021DF70",44.979,16.7091,"","","Prijedor","",20723496,"2023-07-01T05:34:24",3,"NO ERROR",18.61,100,993.64,0.33,0.36,0.36],
    [782,363171,"Vazduh","Libelium","0004A30B0021DF70",44.979,16.7091,"","","Prijedor","",20724045,"2023-07-01T06:35:06",3,"NO ERROR",18.33,100,993.97,0.44,0.55,0.55],
    [783,363171,"Vazduh","Libelium","0004A30B0021DF70",44.979,16.7091,"","","Prijedor","",20724625,"2023-07-01T07:35:48",3,"NO ERROR",19.87,100,993.67,0.36,0.54,0.55],
    [784,363171,"Vazduh","Libelium","0004A30B0021DF70",44.979,16.7091,"","","Prijedor","",20725207,"2023-07-01T08:36:29",3,"NO ERROR",21.8,93.4,993.84,0.36,0.43,0.44],
    [785,363171,"Vazduh","Libelium","0004A30B0021DF70",44.979,16.7091,"","","Prijedor","",20725777,"2023-07-01T09:37:11",3,"NO ERROR",25.53,65.3,993.33,0.13,0.14,0.14],
    [786,363171,"Vazduh","Libelium","0004A30B0021DF70",44.979,16.7091,"","","Prijedor","",20726348,"2023-07-01T10:37:53",3,"NO ERROR",27.02,60.3,993.24,0.3,0.36,0.37],
    [787,363171,"Vazduh","Libelium","0004A30B0021DF70",44.979,16.7091,"","","Prijedor","",20726920,"2023-07-01T11:38:35",3,"NO ERROR",25.98,65.2,993.28,0.32,0.46,0.46],
    [788,363171,"Vazduh","Libelium","0004A30B0021DF70",44.979,16.7091,"","","Prijedor","",20727497,"2023-07-01T12:39:23",3,"NO ERROR",28.24,58.1,992.52,0.11,0.14,0.14],
    [789,363171,"Vazduh","Libelium","0004A30B0021DF70",44.979,16.7091,"","","Prijedor","",20728089,"2023-07-01T13:40:05",3,"NO ERROR",28.52,56,992.03,0.4,0.45,0.45],
    [790,363171,"Vazduh","Libelium","0004A30B0021DF70",44.979,16.7091,"","","Prijedor","",20728591,"2023-07-01T14:40:47",3,"NO ERROR",29.75,48.8,991.48,0.13,0.19,0.19],
    [791,363171,"Vazduh","Libelium","0004A30B0021DF70",44.979,16.7091,"","","Prijedor","",20729130,"2023-07-01T15:41:35",3,"NO ERROR",29.28,50.7,991.48,0.25,0.37,0.38],
    [792,363171,"Vazduh","Libelium","0004A30B0021DF70",44.979,16.7091,"","","Prijedor","",20729653,"2023-07-01T16:42:17",3,"NO ERROR",26.64,63.4,991.55,0.4,0.51,0.52],
    [793,363171,"Vazduh","Libelium","0004A30B0021DF70",44.979,16.7091,"","","Prijedor","",20730183,"2023-07-01T17:43:00",3,"NO ERROR",23.05,76.8,991.84,0.25,0.33,0.34],
    [794,363171,"Vazduh","Libelium","0004A30B0021DF70",44.979,16.7091,"","","Prijedor","",20730673,"2023-07-01T18:43:42",3,"NO ERROR",23.57,72.9,991.94,0.1,0.1,0.1],
    [795,363171,"Vazduh","Libelium","0004A30B0021DF70",44.979,16.7091,"","","Prijedor","",20731190,"2023-07-01T19:44:24",3,"NO ERROR",22.12,83.7,992.08,0.55,0.57,0.57],
    [796,363171,"Vazduh","Libelium","0004A30B0021DF70",44.979,16.7091,"","","Prijedor","",20731693,"2023-07-01T20:45:06",3,"NO ERROR",20.9,95.4,992.75,0.96,1.14,6.24],
    [797,363171,"Vazduh","Libelium","0004A30B0021DF70",44.979,16.7091,"","","Prijedor","",20734497,"2023-07-01T21:45:48",3,"NO ERROR",20.15,100,993.03,0.65,0.73,0.73],
    [798,363171,"Vazduh","Libelium","0004A30B0021DF70",44.979,16.7091,"","","Prijedor","",20736603,"2023-07-01T22:46:36",3,"NO ERROR",19,100,992.97,0.56,0.76,0.85],
    [799,363171,"Vazduh","Libelium","0004A30B0021DF70",44.979,16.7091,"","","Prijedor","",20738271,"2023-07-01T23:47:18",3,"NO ERROR",17.85,100,993.19,0.57,0.84,2.7],
    [800,363171,"Vazduh","Libelium","0004A30B0021DF70",44.979,16.7091,"","","Prijedor","",20740043,"2023-07-02T00:48:00",3,"NO ERROR",17.37,100,993.35,0.57,0.66,0.66],
    [801,363171,"Vazduh","Libelium","0004A30B0021DF70",44.979,16.7091,"","","Prijedor","",20741344,"2023-07-02T01:48:42",3,"NO ERROR",17.13,100,993.64,0.47,0.56,0.57],
    [802,363171,"Vazduh","Libelium","0004A30B0021DF70",44.979,16.7091,"","","Prijedor","",20742606,"2023-07-02T02:49:24",3,"NO ERROR",16.85,100,993.74,2.37,2.99,3.11],
    [803,363171,"Vazduh","Libelium","0004A30B0021DF70",44.979,16.7091,"","","Prijedor","",20743836,"2023-07-02T03:50:06",3,"NO ERROR",17.42,100,993.61,0.43,0.49,0.49],
    [804,363171,"Vazduh","Libelium","0004A30B0021DF70",44.979,16.7091,"","","Prijedor","",20745086,"2023-07-02T04:50:48",3,"NO ERROR",17.47,100,993.78,0.42,0.48,0.48],
    [805,363171,"Vazduh","Libelium","0004A30B0021DF70",44.979,16.7091,"","","Prijedor","",20745687,"2023-07-02T05:51:37",3,"NO ERROR",17.69,100,994.12,0.13,0.14,0.14],
    [806,363171,"Vazduh","Libelium","0004A30B0021DF70",44.979,16.7091,"","","Prijedor","",20746277,"2023-07-02T06:52:18",3,"NO ERROR",19.4,100,994.73,0.52,0.64,0.64],
    [807,363171,"Vazduh","Libelium","0004A30B0021DF70",44.979,16.7091,"","","Prijedor","",20746901,"2023-07-02T07:53:01",3,"NO ERROR",20.65,100,995.04,0.45,0.62,0.64],
    [808,363171,"Vazduh","Libelium","0004A30B0021DF70",44.979,16.7091,"","","Prijedor","",20747566,"2023-07-02T08:53:43",3,"NO ERROR",22.74,92.2,995.35,0.17,0.26,0.32],
    [809,363171,"Vazduh","Libelium","0004A30B0021DF70",44.979,16.7091,"","","Prijedor","",20748212,"2023-07-02T09:54:24",3,"NO ERROR",27.2,71,995.36,0.2,0.25,0.25],
    [810,363171,"Vazduh","Libelium","0004A30B0021DF70",44.979,16.7091,"","","Prijedor","",20748899,"2023-07-02T10:55:06",3,"NO ERROR",26.19,67.9,995.45,0.16,0.19,0.19],
    [811,363171,"Vazduh","Libelium","0004A30B0021DF70",44.979,16.7091,"","","Prijedor","",20749522,"2023-07-02T11:55:47",3,"NO ERROR",27.9,58.7,995.61,0.25,0.29,0.29],
    [812,363171,"Vazduh","Libelium","0004A30B0021DF70",44.979,16.7091,"","","Prijedor","",20750300,"2023-07-02T12:56:29",3,"NO ERROR",28.31,55.2,995.37,0.18,0.26,5.12],
    [813,363171,"Vazduh","Libelium","0004A30B0021DF70",44.979,16.7091,"","","Prijedor","",20750913,"2023-07-02T13:57:11",3,"NO ERROR",30.26,52.5,995.38,0.2,0.23,0.23],
    [814,363171,"Vazduh","Libelium","0004A30B0021DF70",44.979,16.7091,"","","Prijedor","",20751506,"2023-07-02T14:57:53",3,"NO ERROR",27.97,53.5,995.31,0.15,0.28,0.43],
    [815,363171,"Vazduh","Libelium","0004A30B0021DF70",44.979,16.7091,"","","Prijedor","",20752070,"2023-07-02T15:58:41",3,"NO ERROR",30.19,47.9,995.09,0.51,0.57,0.57],
    [816,363171,"Vazduh","Libelium","0004A30B0021DF70",44.979,16.7091,"","","Prijedor","",20752665,"2023-07-02T16:59:23",3,"NO ERROR",32.59,44,994.8,0.13,0.14,0.14],
    [817,363171,"Vazduh","Libelium","0004A30B0021DF70",44.979,16.7091,"","","Prijedor","",20753194,"2023-07-02T18:00:05",3,"NO ERROR",29.19,44,994.61,0.13,0.16,0.16],
    [818,363171,"Vazduh","Libelium","0004A30B0021DF70",44.979,16.7091,"","","Prijedor","",20753734,"2023-07-02T19:00:48",3,"NO ERROR",27.88,51.8,994.8,0.11,0.15,0.15],
    [819,363171,"Vazduh","Libelium","0004A30B0021DF70",44.979,16.7091,"","","Prijedor","",20754253,"2023-07-02T20:01:30",3,"NO ERROR",26.84,58.9,995.18,0.26,0.27,0.28],
    [820,363171,"Vazduh","Libelium","0004A30B0021DF70",44.979,16.7091,"","","Prijedor","",20755002,"2023-07-02T21:02:12",3,"NO ERROR",24.53,74.4,995.72,0.57,0.78,1.2],
    [821,363171,"Vazduh","Libelium","0004A30B0021DF70",44.979,16.7091,"","","Prijedor","",20758013,"2023-07-02T22:02:54",3,"NO ERROR",22.5,91.8,996.6,0.66,1.04,1.17],
    [822,363171,"Vazduh","Libelium","0004A30B0021DF70",44.979,16.7091,"","","Prijedor","",20759971,"2023-07-02T23:03:36",3,"NO ERROR",20.93,100,997.19,0.73,0.9,0.92],
    [823,363171,"Vazduh","Libelium","0004A30B0021DF70",44.979,16.7091,"","","Prijedor","",20761692,"2023-07-03T00:04:18",3,"NO ERROR",20.12,100,997.55,0.22,0.28,0.29],
    [824,363171,"Vazduh","Libelium","0004A30B0021DF70",44.979,16.7091,"","","Prijedor","",20763204,"2023-07-03T01:05:00",3,"NO ERROR",20.09,100,997.73,0.93,1.19,1.21],
    [825,363171,"Vazduh","Libelium","0004A30B0021DF70",44.979,16.7091,"","","Prijedor","",20764464,"2023-07-03T02:05:42",3,"NO ERROR",20.18,100,997.36,0.4,0.42,0.42],
    [826,363171,"Vazduh","Libelium","0004A30B0021DF70",44.979,16.7091,"","","Prijedor","",20765766,"2023-07-03T03:06:24",3,"NO ERROR",20.08,100,997.57,0.62,1,1.54],
    [827,363171,"Vazduh","Libelium","0004A30B0021DF70",44.979,16.7091,"","","Prijedor","",20767034,"2023-07-03T04:07:06",3,"NO ERROR",19.67,100,997.77,0.75,1,1.13],
    [828,363171,"Vazduh","Libelium","0004A30B0021DF70",44.979,16.7091,"","","Prijedor","",20768015,"2023-07-03T05:07:48",3,"NO ERROR",19.31,100,998.09,0.44,0.53,0.53],
    [829,363171,"Vazduh","Libelium","0004A30B0021DF70",44.979,16.7091,"","","Prijedor","",20768502,"2023-07-03T06:08:30",3,"NO ERROR",19.8,100,998.25,0.78,1.02,1.04],
    [830,363171,"Vazduh","Libelium","0004A30B0021DF70",44.979,16.7091,"","","Prijedor","",20769009,"2023-07-03T07:09:12",3,"NO ERROR",20.53,100,998.78,0.38,0.47,0.48],
    [831,363171,"Vazduh","Libelium","0004A30B0021DF70",44.979,16.7091,"","","Prijedor","",20769554,"2023-07-03T08:09:54",3,"NO ERROR",26.31,76.1,999.03,0.38,0.68,0.8],
    [832,363171,"Vazduh","Libelium","0004A30B0021DF70",44.979,16.7091,"","","Prijedor","",20770108,"2023-07-03T09:10:37",3,"NO ERROR",26.77,69.1,999.03,0.57,0.84,0.97],
    [833,363171,"Vazduh","Libelium","0004A30B0021DF70",44.979,16.7091,"","","Prijedor","",20770597,"2023-07-03T10:11:19",3,"NO ERROR",27.18,64.5,998.87,0.37,0.5,0.59],
    [834,363171,"Vazduh","Libelium","0004A30B0021DF70",44.979,16.7091,"","","Prijedor","",20771072,"2023-07-03T11:12:01",3,"NO ERROR",29.4,51,998.85,0.21,0.24,0.24],
    [835,363171,"Vazduh","Libelium","0004A30B0021DF70",44.979,16.7091,"","","Prijedor","",20771587,"2023-07-03T12:12:43",3,"NO ERROR",28.91,52.2,998.63,0.2,0.21,0.21],
    [836,363171,"Vazduh","Libelium","0004A30B0021DF70",44.979,16.7091,"","","Prijedor","",20772149,"2023-07-03T13:13:25",3,"NO ERROR",30.16,50.7,998.33,0.13,0.19,0.19],
    [837,363171,"Vazduh","Libelium","0004A30B0021DF70",44.979,16.7091,"","","Prijedor","",20772654,"2023-07-03T14:14:07",3,"NO ERROR",31.94,46,997.89,0.17,0.25,6.8],
    [838,363171,"Vazduh","Libelium","0004A30B0021DF70",44.979,16.7091,"","","Prijedor","",20773118,"2023-07-03T15:14:49",3,"NO ERROR",33.81,43.1,997.37,0.23,0.45,0.6],
    [839,363171,"Vazduh","Libelium","0004A30B0021DF70",44.979,16.7091,"","","Prijedor","",20773629,"2023-07-03T16:15:31",3,"NO ERROR",35.19,41.7,997.17,0.15,0.16,0.16],
    [840,363171,"Vazduh","Libelium","0004A30B0021DF70",44.979,16.7091,"","","Prijedor","",20774156,"2023-07-03T17:16:13",3,"NO ERROR",34.88,41.5,996.85,0.25,0.32,0.32],
    [841,363171,"Vazduh","Libelium","0004A30B0021DF70",44.979,16.7091,"","","Prijedor","",20774626,"2023-07-03T18:16:56",3,"NO ERROR",30.27,49.6,997.01,0.32,0.38,0.38],
    [842,363171,"Vazduh","Libelium","0004A30B0021DF70",44.979,16.7091,"","","Prijedor","",20775105,"2023-07-03T19:17:44",3,"NO ERROR",28.01,64.8,997.47,0.54,0.65,0.72],
    [843,363171,"Vazduh","Libelium","0004A30B0021DF70",44.979,16.7091,"","","Prijedor","",20775607,"2023-07-03T20:18:26",3,"NO ERROR",25.49,68.6,997.65,0.37,0.5,0.5],
    [844,363171,"Vazduh","Libelium","0004A30B0021DF70",44.979,16.7091,"","","Prijedor","",20777273,"2023-07-03T21:19:08",3,"NO ERROR",25,68.7,997.82,0.52,0.72,0.73],
    [845,363171,"Vazduh","Libelium","0004A30B0021DF70",44.979,16.7091,"","","Prijedor","",20779920,"2023-07-03T22:19:50",3,"NO ERROR",24.27,72.1,998.13,0.19,0.2,0.2],
    [846,363171,"Vazduh","Libelium","0004A30B0021DF70",44.979,16.7091,"","","Prijedor","",20781656,"2023-07-03T23:20:32",3,"NO ERROR",23.41,81.3,998.35,0.34,0.48,1.54],
    [847,363171,"Vazduh","Libelium","0004A30B0021DF70",44.979,16.7091,"","","Prijedor","",20783387,"2023-07-04T00:21:14",3,"NO ERROR",21.75,100,998.25,0.52,0.61,0.61],
    [848,363171,"Vazduh","Libelium","0004A30B0021DF70",44.979,16.7091,"","","Prijedor","",20784782,"2023-07-04T01:21:56",3,"NO ERROR",20.51,100,998.42,0.69,0.82,0.82],
    [849,363171,"Vazduh","Libelium","0004A30B0021DF70",44.979,16.7091,"","","Prijedor","",20785993,"2023-07-04T02:22:38",3,"NO ERROR",19.97,100,998.39,0.45,0.62,0.81],
    [850,363171,"Vazduh","Libelium","0004A30B0021DF70",44.979,16.7091,"","","Prijedor","",20787157,"2023-07-04T03:23:20",3,"NO ERROR",19.08,100,999.31,1.35,1.66,1.66],
    [851,363171,"Vazduh","Libelium","0004A30B0021DF70",44.979,16.7091,"","","Prijedor","",20788301,"2023-07-04T04:24:02",3,"NO ERROR",18.91,100,999.09,0.46,0.48,0.48],
    [852,363171,"Vazduh","Libelium","0004A30B0021DF70",44.979,16.7091,"","","Prijedor","",20789062,"2023-07-04T05:24:44",3,"NO ERROR",19.2,100,999.67,0.69,0.77,0.77],
    [853,363171,"Vazduh","Libelium","0004A30B0021DF70",44.979,16.7091,"","","Prijedor","",20789550,"2023-07-04T06:25:25",3,"NO ERROR",20.56,100,1000.06,0.51,0.66,0.67],
    [854,363171,"Vazduh","Libelium","0004A30B0021DF70",44.979,16.7091,"","","Prijedor","",20790027,"2023-07-04T07:26:08",3,"NO ERROR",20.77,100,1000.38,0.38,0.53,0.53],
    [855,363171,"Vazduh","Libelium","0004A30B0021DF70",44.979,16.7091,"","","Prijedor","",20790523,"2023-07-04T08:26:56",3,"NO ERROR",21.19,100,1000.21,0.36,0.42,0.42],
    [856,363171,"Vazduh","Libelium","0004A30B0021DF70",44.979,16.7091,"","","Prijedor","",20791023,"2023-07-04T09:27:38",3,"NO ERROR",23.33,87.9,1000.44,0.5,0.63,0.63],
    [857,363171,"Vazduh","Libelium","0004A30B0021DF70",44.979,16.7091,"","","Prijedor","",20791525,"2023-07-04T10:28:19",3,"NO ERROR",23.23,87.6,1000.96,0.58,0.68,0.68],
    [858,363171,"Vazduh","Libelium","0004A30B0021DF70",44.979,16.7091,"","","Prijedor","",20792049,"2023-07-04T11:29:01",3,"NO ERROR",23.21,90.5,1001.11,0.41,0.43,0.43],
    [859,363171,"Vazduh","Libelium","0004A30B0021DF70",44.979,16.7091,"","","Prijedor","",20792605,"2023-07-04T12:29:43",3,"NO ERROR",23.87,84.2,1001.45,0.42,0.49,0.49],
    [860,363171,"Vazduh","Libelium","0004A30B0021DF70",44.979,16.7091,"","","Prijedor","",20793154,"2023-07-04T13:30:25",3,"NO ERROR",24.14,84.7,1001.19,0.65,0.82,0.84],
    [861,363171,"Vazduh","Libelium","0004A30B0021DF70",44.979,16.7091,"","","Prijedor","",20793685,"2023-07-04T14:31:07",3,"NO ERROR",26.22,74.5,1000.92,0.55,0.61,0.61],
    [862,363171,"Vazduh","Libelium","0004A30B0021DF70",44.979,16.7091,"","","Prijedor","",20794226,"2023-07-04T15:31:49",3,"NO ERROR",27.22,69,1000.37,0.68,0.94,0.96],
    [863,363171,"Vazduh","Libelium","0004A30B0021DF70",44.979,16.7091,"","","Prijedor","",20794785,"2023-07-04T16:32:31",3,"NO ERROR",26.83,70.6,1000.18,0.2,0.22,0.22],
    [864,363171,"Vazduh","Libelium","0004A30B0021DF70",44.979,16.7091,"","","Prijedor","",20795345,"2023-07-04T17:33:13",3,"NO ERROR",26.52,74.7,999.97,0.56,0.68,0.68],
    [865,363171,"Vazduh","Libelium","0004A30B0021DF70",44.979,16.7091,"","","Prijedor","",20795894,"2023-07-04T18:33:55",3,"NO ERROR",25.75,78.3,999.77,0.57,0.78,1.12],
    [866,363171,"Vazduh","Libelium","0004A30B0021DF70",44.979,16.7091,"","","Prijedor","",20796443,"2023-07-04T19:34:44",3,"NO ERROR",24.97,83,999.55,0.62,0.77,0.77],
    [867,363171,"Vazduh","Libelium","0004A30B0021DF70",44.979,16.7091,"","","Prijedor","",20796995,"2023-07-04T20:35:25",3,"NO ERROR",24.3,88.8,999.85,1.23,1.57,1.69],
    [868,363171,"Vazduh","Libelium","0004A30B0021DF70",44.979,16.7091,"","","Prijedor","",20799629,"2023-07-04T21:36:13",3,"NO ERROR",22.74,100,1000.28,0.97,1.07,1.07],
    [869,363171,"Vazduh","Libelium","0004A30B0021DF70",44.979,16.7091,"","","Prijedor","",20802020,"2023-07-04T22:36:55",3,"NO ERROR",21.35,100,1000.56,0.96,1.17,1.18],
    [870,363171,"Vazduh","Libelium","0004A30B0021DF70",44.979,16.7091,"","","Prijedor","",20803750,"2023-07-04T23:37:37",3,"NO ERROR",20.47,100,1000.72,1.85,2.22,3.8],
    [871,363171,"Vazduh","Libelium","0004A30B0021DF70",44.979,16.7091,"","","Prijedor","",20805489,"2023-07-05T00:38:19",3,"NO ERROR",19.66,100,1000.56,1.1,1.31,1.31],
    [872,363171,"Vazduh","Libelium","0004A30B0021DF70",44.979,16.7091,"","","Prijedor","",20806913,"2023-07-05T01:39:01",3,"NO ERROR",19.38,100,1000.61,1.24,1.47,1.49],
    [873,363171,"Vazduh","Libelium","0004A30B0021DF70",44.979,16.7091,"","","Prijedor","",20808226,"2023-07-05T02:39:43",3,"NO ERROR",18.97,100,1000.5,1.63,1.92,1.93],
    [874,363171,"Vazduh","Libelium","0004A30B0021DF70",44.979,16.7091,"","","Prijedor","",20809549,"2023-07-05T03:40:25",3,"NO ERROR",17.7,100,1000.06,1.79,2.34,2.47],
    [875,363171,"Vazduh","Libelium","0004A30B0021DF70",44.979,16.7091,"","","Prijedor","",20810857,"2023-07-05T04:41:07",3,"NO ERROR",17.8,100,1000.1,0.97,1.21,2.16],
    [876,363171,"Vazduh","Libelium","0004A30B0021DF70",44.979,16.7091,"","","Prijedor","",20811513,"2023-07-05T05:42:01",3,"NO ERROR",17.99,100,1000.34,4,5.16,29.29],
    [877,363171,"Vazduh","Libelium","0004A30B0021DF70",44.979,16.7091,"","","Prijedor","",20812105,"2023-07-05T06:42:43",3,"NO ERROR",18.8,100,1000.32,1.8,2.27,35.81],
    [878,363171,"Vazduh","Libelium","0004A30B0021DF70",44.979,16.7091,"","","Prijedor","",20812681,"2023-07-05T07:43:31",3,"NO ERROR",19.39,100,1000.46,0.85,0.91,0.91],
    [879,363171,"Vazduh","Libelium","0004A30B0021DF70",44.979,16.7091,"","","Prijedor","",20813296,"2023-07-05T08:44:12",3,"NO ERROR",22.35,100,1000.64,0.27,0.4,0.49],
    [880,363171,"Vazduh","Libelium","0004A30B0021DF70",44.979,16.7091,"","","Prijedor","",20813893,"2023-07-05T09:44:54",3,"NO ERROR",27.19,81.1,1000.3,0.43,0.59,0.64],
    [881,363171,"Vazduh","Libelium","0004A30B0021DF70",44.979,16.7091,"","","Prijedor","",20814476,"2023-07-05T10:45:36",3,"NO ERROR",28.4,73.8,1000.12,0.53,0.69,0.76],
    [882,363171,"Vazduh","Libelium","0004A30B0021DF70",44.979,16.7091,"","","Prijedor","",20815058,"2023-07-05T11:46:18",3,"NO ERROR",28.14,68.9,999.67,0.96,1.09,1.09],
    [883,363171,"Vazduh","Libelium","0004A30B0021DF70",44.979,16.7091,"","","Prijedor","",20815630,"2023-07-05T12:47:00",3,"NO ERROR",29.64,59.2,999.23,1.32,1.43,1.43],
    [884,363171,"Vazduh","Libelium","0004A30B0021DF70",44.979,16.7091,"","","Prijedor","",20816159,"2023-07-05T13:47:41",3,"NO ERROR",30.34,52,998.92,0.48,0.61,0.61],
    [885,363171,"Vazduh","Libelium","0004A30B0021DF70",44.979,16.7091,"","","Prijedor","",20816701,"2023-07-05T14:48:23",3,"NO ERROR",33.19,48.4,997.73,0.95,1.1,1.12],
    [886,363171,"Vazduh","Libelium","0004A30B0021DF70",44.979,16.7091,"","","Prijedor","",20817280,"2023-07-05T15:49:05",3,"NO ERROR",35.11,44.8,997.17,0.56,0.76,1.04],
    [887,363171,"Vazduh","Libelium","0004A30B0021DF70",44.979,16.7091,"","","Prijedor","",20817840,"2023-07-05T16:49:53",3,"NO ERROR",35.86,42.4,996.63,0.45,0.53,0.54],
    [888,363171,"Vazduh","Libelium","0004A30B0021DF70",44.979,16.7091,"","","Prijedor","",20818382,"2023-07-05T17:50:35",3,"NO ERROR",30.12,61.1,996.48,1.94,2.31,2.48],
    [889,363171,"Vazduh","Libelium","0004A30B0021DF70",44.979,16.7091,"","","Prijedor","",20818916,"2023-07-05T18:51:17",3,"NO ERROR",27.67,74.1,996.82,2.77,3.15,3.16],
    [890,363171,"Vazduh","Libelium","0004A30B0021DF70",44.979,16.7091,"","","Prijedor","",20819466,"2023-07-05T19:52:00",3,"NO ERROR",24.88,63.1,997.73,0.19,0.24,0.24],
    [891,363171,"Vazduh","Libelium","0004A30B0021DF70",44.979,16.7091,"","","Prijedor","",20820018,"2023-07-05T20:52:42",3,"NO ERROR",21.9,82,998.09,0.48,0.59,0.6],
    [892,363171,"Vazduh","Libelium","0004A30B0021DF70",44.979,16.7091,"","","Prijedor","",20822772,"2023-07-05T21:53:24",3,"NO ERROR",21.58,87.7,999.04,0.4,0.56,0.58],
    [893,363171,"Vazduh","Libelium","0004A30B0021DF70",44.979,16.7091,"","","Prijedor","",20824627,"2023-07-05T22:54:06",3,"NO ERROR",20.22,100,998.81,0.68,0.89,1.27],
    [894,363171,"Vazduh","Libelium","0004A30B0021DF70",44.979,16.7091,"","","Prijedor","",20825999,"2023-07-05T23:54:48",3,"NO ERROR",19.17,100,999.65,0.46,0.76,0.94],
    [895,363171,"Vazduh","Libelium","0004A30B0021DF70",44.979,16.7091,"","","Prijedor","",20827730,"2023-07-06T00:55:30",3,"NO ERROR",18.32,100,999.39,1.15,1.51,1.53],
    [896,363171,"Vazduh","Libelium","0004A30B0021DF70",44.979,16.7091,"","","Prijedor","",20829069,"2023-07-06T01:56:12",3,"NO ERROR",17.21,100,999.58,0.34,0.4,0.4],
    [897,363171,"Vazduh","Libelium","0004A30B0021DF70",44.979,16.7091,"","","Prijedor","",20830382,"2023-07-06T02:56:54",3,"NO ERROR",16.92,100,999.61,0.46,0.57,0.57],
    [898,363171,"Vazduh","Libelium","0004A30B0021DF70",44.979,16.7091,"","","Prijedor","",20831633,"2023-07-06T03:57:36",3,"NO ERROR",16.63,100,1000.15,0.56,0.68,0.68],
    [899,363171,"Vazduh","Libelium","0004A30B0021DF70",44.979,16.7091,"","","Prijedor","",20832854,"2023-07-06T04:58:17",3,"NO ERROR",17.33,100,1000.39,0.14,0.21,0.22],
    [900,363171,"Vazduh","Libelium","0004A30B0021DF70",44.979,16.7091,"","","Prijedor","",20833465,"2023-07-06T05:58:59",3,"NO ERROR",18.39,100,1001.02,0.58,1.05,1.37],
    [901,363171,"Vazduh","Libelium","0004A30B0021DF70",44.979,16.7091,"","","Prijedor","",20834061,"2023-07-06T06:59:41",3,"NO ERROR",21.9,90.3,1001.49,0.14,0.17,0.17],
    [902,363171,"Vazduh","Libelium","0004A30B0021DF70",44.979,16.7091,"","","Prijedor","",20834583,"2023-07-06T08:00:23",3,"NO ERROR",23.33,78.8,1001.56,0.12,0.17,0.17],
    [903,363171,"Vazduh","Libelium","0004A30B0021DF70",44.979,16.7091,"","","Prijedor","",20835106,"2023-07-06T09:01:05",3,"NO ERROR",22.62,77.8,1002.03,0.16,0.18,0.18],
    [904,363171,"Vazduh","Libelium","0004A30B0021DF70",44.979,16.7091,"","","Prijedor","",20835586,"2023-07-06T10:01:48",3,"NO ERROR",24.51,72.2,1002.08,0.35,0.49,0.5],
    [905,363171,"Vazduh","Libelium","0004A30B0021DF70",44.979,16.7091,"","","Prijedor","",20836100,"2023-07-06T11:02:30",3,"NO ERROR",25.63,65.7,1002.13,0.17,0.24,0.25],
    [906,363171,"Vazduh","Libelium","0004A30B0021DF70",44.979,16.7091,"","","Prijedor","",20836618,"2023-07-06T12:03:12",3,"NO ERROR",25.56,66.4,1002.29,0.23,0.3,0.31],
    [907,363171,"Vazduh","Libelium","0004A30B0021DF70",44.979,16.7091,"","","Prijedor","",20837192,"2023-07-06T13:03:54",3,"NO ERROR",26.03,66.4,1002.09,0.11,0.13,0.13],
    [908,363171,"Vazduh","Libelium","0004A30B0021DF70",44.979,16.7091,"","","Prijedor","",20837691,"2023-07-06T14:04:36",3,"NO ERROR",27.57,60.9,1001.69,0.19,0.24,0.24],
    [909,363171,"Vazduh","Libelium","0004A30B0021DF70",44.979,16.7091,"","","Prijedor","",20838190,"2023-07-06T15:05:18",3,"NO ERROR",28.03,59.1,1001.45,0.23,0.4,0.43],
    [910,363171,"Vazduh","Libelium","0004A30B0021DF70",44.979,16.7091,"","","Prijedor","",20838715,"2023-07-06T16:06:00",3,"NO ERROR",28.71,57.5,1001.03,0.18,0.19,0.19],
    [911,363171,"Vazduh","Libelium","0004A30B0021DF70",44.979,16.7091,"","","Prijedor","",20839241,"2023-07-06T17:06:42",3,"NO ERROR",26.52,64.9,1001.22,0.52,0.72,0.73],
    [912,363171,"Vazduh","Libelium","0004A30B0021DF70",44.979,16.7091,"","","Prijedor","",20839727,"2023-07-06T18:07:24",3,"NO ERROR",26.59,70.1,1001.1,0.2,0.34,0.41],
    [913,363171,"Vazduh","Libelium","0004A30B0021DF70",44.979,16.7091,"","","Prijedor","",20840244,"2023-07-06T19:08:06",3,"NO ERROR",25.96,75.3,1001.12,0.37,0.6,4.06],
    [914,363171,"Vazduh","Libelium","0004A30B0021DF70",44.979,16.7091,"","","Prijedor","",20840784,"2023-07-06T20:08:48",3,"NO ERROR",24.7,82.6,1001.62,0.45,0.54,0.54],
    [915,363171,"Vazduh","Libelium","0004A30B0021DF70",44.979,16.7091,"","","Prijedor","",20842008,"2023-07-06T21:09:30",3,"NO ERROR",22.95,98.4,1001.91,0.91,1.07,1.07],
    [916,363171,"Vazduh","Libelium","0004A30B0021DF70",44.979,16.7091,"","","Prijedor","",20844994,"2023-07-06T22:10:13",3,"NO ERROR",21.99,100,1002.56,0.84,1.06,2.12],
    [917,363171,"Vazduh","Libelium","0004A30B0021DF70",44.979,16.7091,"","","Prijedor","",20846989,"2023-07-06T23:10:55",3,"NO ERROR",20.43,100,1003.03,0.65,0.86,0.87],
    [918,363171,"Vazduh","Libelium","0004A30B0021DF70",44.979,16.7091,"","","Prijedor","",20847770,"2023-07-07T00:11:37",3,"NO ERROR",19.49,100,1002.89,0.59,0.8,1.11],
    [919,363171,"Vazduh","Libelium","0004A30B0021DF70",44.979,16.7091,"","","Prijedor","",20848545,"2023-07-07T01:12:25",3,"NO ERROR",18.87,100,1003.07,0.45,0.53,0.53],
    [920,363171,"Vazduh","Libelium","0004A30B0021DF70",44.979,16.7091,"","","Prijedor","",20849217,"2023-07-07T02:13:07",3,"NO ERROR",18.4,100,1003.16,0.49,0.58,0.58],
    [921,363171,"Vazduh","Libelium","0004A30B0021DF70",44.979,16.7091,"","","Prijedor","",20849870,"2023-07-07T03:13:48",3,"NO ERROR",18.38,100,1003.22,0.22,0.28,0.28],
    [922,363171,"Vazduh","Libelium","0004A30B0021DF70",44.979,16.7091,"","","Prijedor","",20850489,"2023-07-07T04:14:30",3,"NO ERROR",18.16,100,1003.56,0.34,0.43,0.43],
    [923,363171,"Vazduh","Libelium","0004A30B0021DF70",44.979,16.7091,"","","Prijedor","",20851154,"2023-07-07T05:15:12",3,"NO ERROR",18.27,100,1003.85,0.33,0.51,0.61],
    [924,363171,"Vazduh","Libelium","0004A30B0021DF70",44.979,16.7091,"","","Prijedor","",20851716,"2023-07-07T06:15:54",3,"NO ERROR",19.13,100,1004.25,0.13,0.15,0.15],
    [925,363171,"Vazduh","Libelium","0004A30B0021DF70",44.979,16.7091,"","","Prijedor","",20852299,"2023-07-07T07:16:36",3,"NO ERROR",21.04,90.9,1004.83,0.11,0.17,0.18],
    [926,363171,"Vazduh","Libelium","0004A30B0021DF70",44.979,16.7091,"","","Prijedor","",20852888,"2023-07-07T08:17:18",3,"NO ERROR",21.73,84.1,1005.47,0.24,0.54,2.2],
    [927,363171,"Vazduh","Libelium","0004A30B0021DF70",44.979,16.7091,"","","Prijedor","",20853521,"2023-07-07T09:18:00",3,"NO ERROR",21.63,81.7,1006.22,0.22,0.27,0.28],
    [928,363171,"Vazduh","Libelium","0004A30B0021DF70",44.979,16.7091,"","","Prijedor","",20854076,"2023-07-07T10:18:42",3,"NO ERROR",20.96,90.7,1006.83,0.13,0.27,0.39],
    [929,363171,"Vazduh","Libelium","0004A30B0021DF70",44.979,16.7091,"","","Prijedor","",20854564,"2023-07-07T11:19:24",3,"NO ERROR",22.28,82.4,1007.07,0.27,0.31,0.31],
    [930,363171,"Vazduh","Libelium","0004A30B0021DF70",44.979,16.7091,"","","Prijedor","",20855121,"2023-07-07T12:20:07",3,"NO ERROR",23.83,72.6,1007.17,0.28,0.4,0.47],
    [931,363171,"Vazduh","Libelium","0004A30B0021DF70",44.979,16.7091,"","","Prijedor","",20855705,"2023-07-07T13:20:49",3,"NO ERROR",26.93,63.3,1006.93,0.2,0.24,0.24],
    [932,363171,"Vazduh","Libelium","0004A30B0021DF70",44.979,16.7091,"","","Prijedor","",20856253,"2023-07-07T14:21:31",3,"NO ERROR",28.6,49.6,1006.48,0.46,0.72,0.83],
    [933,363171,"Vazduh","Libelium","0004A30B0021DF70",44.979,16.7091,"","","Prijedor","",20856822,"2023-07-07T15:22:12",3,"NO ERROR",29.63,45.4,1006.11,0.23,0.27,0.27],
    [934,363171,"Vazduh","Libelium","0004A30B0021DF70",44.979,16.7091,"","","Prijedor","",20857457,"2023-07-07T16:22:54",3,"NO ERROR",30.79,38.2,1005.96,0.32,0.41,0.42],
    [935,363171,"Vazduh","Libelium","0004A30B0021DF70",44.979,16.7091,"","","Prijedor","",20858058,"2023-07-07T17:23:36",3,"NO ERROR",31.05,39.1,1005.87,0.14,0.2,0.2],
    [936,363171,"Vazduh","Libelium","0004A30B0021DF70",44.979,16.7091,"","","Prijedor","",20858648,"2023-07-07T18:24:18",3,"NO ERROR",26.82,47,1005.86,0.38,0.56,0.89],
    [937,363171,"Vazduh","Libelium","0004A30B0021DF70",44.979,16.7091,"","","Prijedor","",20859223,"2023-07-07T19:25:00",3,"NO ERROR",25.76,49.6,1005.93,1.17,1.54,1.66],
    [938,363171,"Vazduh","Libelium","0004A30B0021DF70",44.979,16.7091,"","","Prijedor","",20859849,"2023-07-07T20:25:42",3,"NO ERROR",24.36,56,1006,0.61,0.79,0.8],
    [939,363171,"Vazduh","Libelium","0004A30B0021DF70",44.979,16.7091,"","","Prijedor","",20860458,"2023-07-07T21:26:24",3,"NO ERROR",21.48,78.9,1006.6,0.19,0.34,0.59],
    [940,363171,"Vazduh","Libelium","0004A30B0021DF70",44.979,16.7091,"","","Prijedor","",20861038,"2023-07-07T22:27:05",3,"NO ERROR",19.21,91,1006.92,0.8,1.09,1.47],
    [941,363171,"Vazduh","Libelium","0004A30B0021DF70",44.979,16.7091,"","","Prijedor","",20861640,"2023-07-07T23:27:47",3,"NO ERROR",17.98,100,1007.03,0.18,0.25,0.26],
    [942,363171,"Vazduh","Libelium","0004A30B0021DF70",44.979,16.7091,"","","Prijedor","",20862520,"2023-07-08T00:28:30",3,"NO ERROR",16.62,100,1007,0.3,0.4,0.4],
    [943,363171,"Vazduh","Libelium","0004A30B0021DF70",44.979,16.7091,"","","Prijedor","",20863214,"2023-07-08T01:29:12",3,"NO ERROR",15.59,100,1006.85,0.55,0.62,0.62],
    [944,363171,"Vazduh","Libelium","0004A30B0021DF70",44.979,16.7091,"","","Prijedor","",20863829,"2023-07-08T02:29:54",3,"NO ERROR",14.73,100,1006.75,0.53,0.67,0.67],
    [945,363171,"Vazduh","Libelium","0004A30B0021DF70",44.979,16.7091,"","","Prijedor","",20864410,"2023-07-08T03:30:36",3,"NO ERROR",13.74,100,1007.38,0.66,0.99,1.18],
    [946,363171,"Vazduh","Libelium","0004A30B0021DF70",44.979,16.7091,"","","Prijedor","",20865016,"2023-07-08T04:31:18",3,"NO ERROR",13.5,100,1007.63,0.84,1.17,1.18],
    [947,363171,"Vazduh","Libelium","0004A30B0021DF70",44.979,16.7091,"","","Prijedor","",20865661,"2023-07-08T05:32:00",3,"NO ERROR",12.98,100,1008.12,0.76,1.07,1.09],
    [948,363171,"Vazduh","Libelium","0004A30B0021DF70",44.979,16.7091,"","","Prijedor","",20866291,"2023-07-08T06:32:42",3,"NO ERROR",14.97,100,1007.99,0.65,0.88,0.9],
    [949,363171,"Vazduh","Libelium","0004A30B0021DF70",44.979,16.7091,"","","Prijedor","",20866922,"2023-07-08T07:33:29",3,"NO ERROR",19.87,87.7,1007.88,0.32,0.48,0.51],
    [950,363171,"Vazduh","Libelium","0004A30B0021DF70",44.979,16.7091,"","","Prijedor","",20867554,"2023-07-08T08:34:11",3,"NO ERROR",23.27,71.1,1007.66,0.28,0.31,0.31],
    [951,363171,"Vazduh","Libelium","0004A30B0021DF70",44.979,16.7091,"","","Prijedor","",20868185,"2023-07-08T09:34:52",3,"NO ERROR",25.86,60.8,1007.31,0.27,0.3,0.3],
    [952,363171,"Vazduh","Libelium","0004A30B0021DF70",44.979,16.7091,"","","Prijedor","",20868817,"2023-07-08T10:35:34",3,"NO ERROR",26.41,56.8,1006.98,0.41,0.58,0.6],
    [953,363171,"Vazduh","Libelium","0004A30B0021DF70",44.979,16.7091,"","","Prijedor","",20869404,"2023-07-08T11:36:16",3,"NO ERROR",28.03,50.6,1006.6,0.42,0.7,3.57],
    [954,363171,"Vazduh","Libelium","0004A30B0021DF70",44.979,16.7091,"","","Prijedor","",20869996,"2023-07-08T12:36:58",3,"NO ERROR",28.83,41.7,1006.16,0.33,0.61,0.78],
    [955,363171,"Vazduh","Libelium","0004A30B0021DF70",44.979,16.7091,"","","Prijedor","",20870632,"2023-07-08T13:37:40",3,"NO ERROR",29.7,38.3,1005.76,0.32,0.87,1.75],
    [956,363171,"Vazduh","Libelium","0004A30B0021DF70",44.979,16.7091,"","","Prijedor","",20871254,"2023-07-08T14:38:22",3,"NO ERROR",31.34,38.9,1005.24,0.26,0.29,0.29],
    [957,363171,"Vazduh","Libelium","0004A30B0021DF70",44.979,16.7091,"","","Prijedor","",20871846,"2023-07-08T15:39:04",3,"NO ERROR",33.19,36.4,1004.87,0.3,0.42,0.5],
    [958,363171,"Vazduh","Libelium","0004A30B0021DF70",44.979,16.7091,"","","Prijedor","",20872430,"2023-07-08T16:39:46",3,"NO ERROR",32.97,36.5,1004.42,0.2,0.37,0.51],
    [959,363171,"Vazduh","Libelium","0004A30B0021DF70",44.979,16.7091,"","","Prijedor","",20873040,"2023-07-08T17:40:28",3,"NO ERROR",34.91,34.2,1004.04,0.26,0.35,0.35],
    [960,363171,"Vazduh","Libelium","0004A30B0021DF70",44.979,16.7091,"","","Prijedor","",20873650,"2023-07-08T18:41:10",3,"NO ERROR",29.51,43.2,1003.9,0.45,0.53,0.53],
    [961,363171,"Vazduh","Libelium","0004A30B0021DF70",44.979,16.7091,"","","Prijedor","",20874224,"2023-07-08T19:41:52",3,"NO ERROR",28.04,50.2,1003.89,0.2,0.38,0.53],
    [962,363171,"Vazduh","Libelium","0004A30B0021DF70",44.979,16.7091,"","","Prijedor","",20874818,"2023-07-08T20:42:34",3,"NO ERROR",25.94,61.3,1004.09,1.03,1.32,1.4],
    [963,363171,"Vazduh","Libelium","0004A30B0021DF70",44.979,16.7091,"","","Prijedor","",20875440,"2023-07-08T21:43:16",3,"NO ERROR",22.55,75.3,1004.77,0.15,0.24,0.31],
    [964,363171,"Vazduh","Libelium","0004A30B0021DF70",44.979,16.7091,"","","Prijedor","",20876030,"2023-07-08T22:43:58",3,"NO ERROR",20.6,83.4,1005.16,0.72,1.01,1.06],
    [965,363171,"Vazduh","Libelium","0004A30B0021DF70",44.979,16.7091,"","","Prijedor","",20876672,"2023-07-08T23:44:41",3,"NO ERROR",19.62,97.2,1005.26,1.01,1.49,1.76],
    [966,363171,"Vazduh","Libelium","0004A30B0021DF70",44.979,16.7091,"","","Prijedor","",20877559,"2023-07-09T00:45:23",3,"NO ERROR",18.36,100,1005.25,1.21,1.64,2.01],
    [967,363171,"Vazduh","Libelium","0004A30B0021DF70",44.979,16.7091,"","","Prijedor","",20878214,"2023-07-09T01:46:05",3,"NO ERROR",17.25,100,1005.48,0.51,0.63,0.64],
    [968,363171,"Vazduh","Libelium","0004A30B0021DF70",44.979,16.7091,"","","Prijedor","",20878853,"2023-07-09T02:46:47",3,"NO ERROR",16.4,100,1005.82,0.4,0.48,0.49],
    [969,363171,"Vazduh","Libelium","0004A30B0021DF70",44.979,16.7091,"","","Prijedor","",20879486,"2023-07-09T03:47:29",3,"NO ERROR",15.79,100,1006.04,0.58,0.98,1.15],
    [970,363171,"Vazduh","Libelium","0004A30B0021DF70",44.979,16.7091,"","","Prijedor","",20880125,"2023-07-09T04:48:11",3,"NO ERROR",15.16,100,1006.36,0.93,1.12,1.12],
    [971,363171,"Vazduh","Libelium","0004A30B0021DF70",44.979,16.7091,"","","Prijedor","",20880725,"2023-07-09T05:48:59",3,"NO ERROR",14.65,100,1006.79,0.23,0.39,0.49],
    [972,363171,"Vazduh","Libelium","0004A30B0021DF70",44.979,16.7091,"","","Prijedor","",20881308,"2023-07-09T06:49:40",3,"NO ERROR",18.23,100,1006.7,0.41,0.49,0.49],
    [973,363171,"Vazduh","Libelium","0004A30B0021DF70",44.979,16.7091,"","","Prijedor","",20881894,"2023-07-09T07:50:27",3,"NO ERROR",23.93,74.3,1006.92,0.2,0.21,0.21],
    [974,363171,"Vazduh","Libelium","0004A30B0021DF70",44.979,16.7091,"","","Prijedor","",20882519,"2023-07-09T08:51:08",3,"NO ERROR",26.51,64.1,1006.94,0.34,0.6,0.94],
    [975,363171,"Vazduh","Libelium","0004A30B0021DF70",44.979,16.7091,"","","Prijedor","",20883093,"2023-07-09T09:51:50",3,"NO ERROR",28.11,57.8,1006.87,0.58,0.83,2.39],
    [976,363171,"Vazduh","Libelium","0004A30B0021DF70",44.979,16.7091,"","","Prijedor","",20883697,"2023-07-09T10:52:31",3,"NO ERROR",29.41,54.5,1006.67,0.27,0.47,0.58],
    [977,363171,"Vazduh","Libelium","0004A30B0021DF70",44.979,16.7091,"","","Prijedor","",20884312,"2023-07-09T11:53:13",3,"NO ERROR",30,48.4,1006.55,0.77,0.92,0.92],
    [978,363171,"Vazduh","Libelium","0004A30B0021DF70",44.979,16.7091,"","","Prijedor","",20884971,"2023-07-09T12:53:54",3,"NO ERROR",30.75,42.7,1006.34,0.15,0.28,0.59],
    [979,363171,"Vazduh","Libelium","0004A30B0021DF70",44.979,16.7091,"","","Prijedor","",20885594,"2023-07-09T13:54:35",3,"NO ERROR",31.88,43.8,1006.2,0.68,1.17,1.9],
    [980,363171,"Vazduh","Libelium","0004A30B0021DF70",44.979,16.7091,"","","Prijedor","",20886244,"2023-07-09T14:55:16",3,"NO ERROR",33.83,40.7,1005.71,0.16,0.25,0.31],
    [981,363171,"Vazduh","Libelium","0004A30B0021DF70",44.979,16.7091,"","","Prijedor","",20886832,"2023-07-09T15:55:58",3,"NO ERROR",36.05,39.3,1005.42,0.24,0.36,0.68],
    [982,363171,"Vazduh","Libelium","0004A30B0021DF70",44.979,16.7091,"","","Prijedor","",20887466,"2023-07-09T16:56:46",3,"NO ERROR",35.33,39.9,1005.2,0.43,0.55,0.56],
    [983,363171,"Vazduh","Libelium","0004A30B0021DF70",44.979,16.7091,"","","Prijedor","",20887975,"2023-07-09T17:57:27",3,"NO ERROR",31.92,44.4,1005.04,0.31,0.48,0.56],
    [984,363171,"Vazduh","Libelium","0004A30B0021DF70",44.979,16.7091,"","","Prijedor","",20888478,"2023-07-09T18:58:09",3,"NO ERROR",30.41,46,1004.8,0.26,0.36,0.37],
    [985,363171,"Vazduh","Libelium","0004A30B0021DF70",44.979,16.7091,"","","Prijedor","",20888961,"2023-07-09T19:58:51",3,"NO ERROR",29.3,51.7,1004.71,0.24,0.51,1.53],
    [986,363171,"Vazduh","Libelium","0004A30B0021DF70",44.979,16.7091,"","","Prijedor","",20889580,"2023-07-09T20:59:40",3,"NO ERROR",25.71,73.3,1004.94,1.18,1.63,1.77],
    [987,363171,"Vazduh","Libelium","0004A30B0021DF70",44.979,16.7091,"","","Prijedor","",20890144,"2023-07-09T22:00:22",3,"NO ERROR",23.5,88.3,1005.46,0.4,0.69,3.03],
    [988,363171,"Vazduh","Libelium","0004A30B0021DF70",44.979,16.7091,"","","Prijedor","",20890736,"2023-07-09T23:01:04",3,"NO ERROR",21.73,100,1005.73,0.54,0.72,0.73],
    [989,363171,"Vazduh","Libelium","0004A30B0021DF70",44.979,16.7091,"","","Prijedor","",20891429,"2023-07-10T00:01:45",3,"NO ERROR",20.46,100,1006.07,0.48,0.69,0.74],
    [990,363171,"Vazduh","Libelium","0004A30B0021DF70",44.979,16.7091,"","","Prijedor","",20892194,"2023-07-10T01:02:27",3,"NO ERROR",19.62,100,1006.35,0.34,0.43,0.44],
    [991,363171,"Vazduh","Libelium","0004A30B0021DF70",44.979,16.7091,"","","Prijedor","",20892788,"2023-07-10T02:03:09",3,"NO ERROR",19.21,100,1006.4,0.49,0.65,0.66],
    [992,363171,"Vazduh","Libelium","0004A30B0021DF70",44.979,16.7091,"","","Prijedor","",20893418,"2023-07-10T03:04:03",3,"NO ERROR",18.07,100,1006.47,0.85,0.95,0.95],
    [993,363171,"Vazduh","Libelium","0004A30B0021DF70",44.979,16.7091,"","","Prijedor","",20894030,"2023-07-10T04:04:45",3,"NO ERROR",18.59,100,1006.52,0.69,0.91,0.92],
    [994,363171,"Vazduh","Libelium","0004A30B0021DF70",44.979,16.7091,"","","Prijedor","",20894704,"2023-07-10T05:05:27",3,"NO ERROR",18.26,100,1006.58,0.81,0.94,0.94],
    [995,363171,"Vazduh","Libelium","0004A30B0021DF70",44.979,16.7091,"","","Prijedor","",20895329,"2023-07-10T06:06:09",3,"NO ERROR",18.13,100,1006.6,0.35,0.54,0.86],
    [996,363171,"Vazduh","Libelium","0004A30B0021DF70",44.979,16.7091,"","","Prijedor","",20895955,"2023-07-10T07:06:51",3,"NO ERROR",20.85,100,1006.74,0.45,0.67,0.69],
    [997,363171,"Vazduh","Libelium","0004A30B0021DF70",44.979,16.7091,"","","Prijedor","",20896554,"2023-07-10T08:07:33",3,"NO ERROR",24.34,78.8,1006.65,0.66,0.83,0.84],
    [998,363171,"Vazduh","Libelium","0004A30B0021DF70",44.979,16.7091,"","","Prijedor","",20897159,"2023-07-10T09:08:14",3,"NO ERROR",28.82,62.3,1006.64,0.68,1,1.19],
    [999,363171,"Vazduh","Libelium","0004A30B0021DF70",44.979,16.7091,"","","Prijedor","",20897686,"2023-07-10T10:08:56",3,"NO ERROR",30.22,56.5,1006.19,0.57,0.73,0.73],
    [1000,363171,"Vazduh","Libelium","0004A30B0021DF70",44.979,16.7091,"","","Prijedor","",20898235,"2023-07-10T11:09:38",3,"NO ERROR",31.16,53.5,1006.22,0.39,0.46,0.47],
    [1001,363171,"Vazduh","Libelium","0004A30B0021DF70",44.979,16.7091,"","","Prijedor","",20898759,"2023-07-10T12:10:20",3,"NO ERROR",31.46,48.5,1005.65,0.34,0.36,0.36],
    [1002,363171,"Vazduh","Libelium","0004A30B0021DF70",44.979,16.7091,"","","Prijedor","",20899348,"2023-07-10T13:11:02",3,"NO ERROR",32.38,44.9,1005.22,0.36,0.51,0.62],
    [1003,363171,"Vazduh","Libelium","0004A30B0021DF70",44.979,16.7091,"","","Prijedor","",20899867,"2023-07-10T14:11:44",3,"NO ERROR",34.09,39.6,1004.58,0.09,0.15,0.16],
    [1004,363171,"Vazduh","Libelium","0004A30B0021DF70",44.979,16.7091,"","","Prijedor","",20900412,"2023-07-10T15:12:31",3,"NO ERROR",35.73,35.6,1004.12,0.29,0.37,0.37],
    [1005,363171,"Vazduh","Libelium","0004A30B0021DF70",44.979,16.7091,"","","Prijedor","",20900928,"2023-07-10T16:13:13",3,"NO ERROR",37.9,32.3,1003.4,0.3,0.37,0.38],
    [1006,363171,"Vazduh","Libelium","0004A30B0021DF70",44.979,16.7091,"","","Prijedor","",20901504,"2023-07-10T17:13:54",3,"NO ERROR",38.06,33.6,1002.83,0.12,0.15,0.15],
    [1007,363171,"Vazduh","Libelium","0004A30B0021DF70",44.979,16.7091,"","","Prijedor","",20902012,"2023-07-10T18:14:36",3,"NO ERROR",33.57,34.3,1002.41,0.31,0.44,0.44],
    [1008,363171,"Vazduh","Libelium","0004A30B0021DF70",44.979,16.7091,"","","Prijedor","",20902512,"2023-07-10T19:15:18",3,"NO ERROR",32.38,40.8,1002.24,0.63,0.96,1.09],
    [1009,363171,"Vazduh","Libelium","0004A30B0021DF70",44.979,16.7091,"","","Prijedor","",20903043,"2023-07-10T20:16:01",3,"NO ERROR",30.11,48.2,1002.06,0.86,1.23,2.28],
    [1010,363171,"Vazduh","Libelium","0004A30B0021DF70",44.979,16.7091,"","","Prijedor","",20903620,"2023-07-10T21:16:42",3,"NO ERROR",27.18,63.2,1003.18,0.91,1.42,1.94],
    [1011,363171,"Vazduh","Libelium","0004A30B0021DF70",44.979,16.7091,"","","Prijedor","",20904139,"2023-07-10T22:17:24",3,"NO ERROR",23.75,78.1,1003.34,0.56,0.92,2.11],
    [1012,363171,"Vazduh","Libelium","0004A30B0021DF70",44.979,16.7091,"","","Prijedor","",20904650,"2023-07-10T23:18:06",3,"NO ERROR",22.75,86.4,1003.36,0.86,1.05,1.07],
    [1013,363171,"Vazduh","Libelium","0004A30B0021DF70",44.979,16.7091,"","","Prijedor","",20905468,"2023-07-11T00:18:47",3,"NO ERROR",22.67,81.6,1003.36,0.66,0.82,0.84],
    [1014,363171,"Vazduh","Libelium","0004A30B0021DF70",44.979,16.7091,"","","Prijedor","",20906121,"2023-07-11T01:19:29",3,"NO ERROR",21.2,89.8,1003.15,0.29,0.4,0.4],
    [1015,363171,"Vazduh","Libelium","0004A30B0021DF70",44.979,16.7091,"","","Prijedor","",20906749,"2023-07-11T02:20:10",3,"NO ERROR",19.97,100,1003.16,0.47,0.67,0.75],
    [1016,363171,"Vazduh","Libelium","0004A30B0021DF70",44.979,16.7091,"","","Prijedor","",20907322,"2023-07-11T03:20:52",3,"NO ERROR",20.08,100,1003.05,0.22,0.38,0.4],
    [1017,363171,"Vazduh","Libelium","0004A30B0021DF70",44.979,16.7091,"","","Prijedor","",20907940,"2023-07-11T04:21:34",3,"NO ERROR",19.27,100,1002.99,0.56,0.88,0.99],
    [1018,363171,"Vazduh","Libelium","0004A30B0021DF70",44.979,16.7091,"","","Prijedor","",20908558,"2023-07-11T05:22:16",3,"NO ERROR",18.99,100,1003.12,0.2,0.28,0.29],
    [1019,363171,"Vazduh","Libelium","0004A30B0021DF70",44.979,16.7091,"","","Prijedor","",20909138,"2023-07-11T06:22:58",3,"NO ERROR",19.59,97.9,1003.21,0.71,0.97,1.08],
    [1020,363171,"Vazduh","Libelium","0004A30B0021DF70",44.979,16.7091,"","","Prijedor","",20909652,"2023-07-11T07:23:40",3,"NO ERROR",21.57,86.5,1003.46,0.5,0.82,1.04],
    [1021,363171,"Vazduh","Libelium","0004A30B0021DF70",44.979,16.7091,"","","Prijedor","",20910188,"2023-07-11T08:24:21",3,"NO ERROR",26.19,66.4,1003.42,0.47,0.68,0.79],
    [1022,363171,"Vazduh","Libelium","0004A30B0021DF70",44.979,16.7091,"","","Prijedor","",20910732,"2023-07-11T09:25:04",3,"NO ERROR",28.44,53.3,1003.26,0.4,0.61,0.71],
    [1023,363171,"Vazduh","Libelium","0004A30B0021DF70",44.979,16.7091,"","","Prijedor","",20911250,"2023-07-11T10:25:46",3,"NO ERROR",30.92,47.8,1002.95,0.53,0.65,0.65],
    [1024,363171,"Vazduh","Libelium","0004A30B0021DF70",44.979,16.7091,"","","Prijedor","",20911727,"2023-07-11T11:26:28",3,"NO ERROR",31.64,49.9,1002.8,0.32,0.46,0.78],
    [1025,363171,"Vazduh","Libelium","0004A30B0021DF70",44.979,16.7091,"","","Prijedor","",20912258,"2023-07-11T12:27:10",3,"NO ERROR",33.24,46.2,1002.23,0.55,0.68,0.69],
    [1026,363171,"Vazduh","Libelium","0004A30B0021DF70",44.979,16.7091,"","","Prijedor","",20912820,"2023-07-11T13:27:52",3,"NO ERROR",34.92,42.8,1001.6,0,0,0],
    [1027,363171,"Vazduh","Libelium","0004A30B0021DF70",44.979,16.7091,"","","Prijedor","",20913368,"2023-07-11T14:28:34",3,"NO ERROR",36.07,38.3,1001.01,0.71,0.86,0.86],
    [1028,363171,"Vazduh","Libelium","0004A30B0021DF70",44.979,16.7091,"","","Prijedor","",20913893,"2023-07-11T15:29:16",3,"NO ERROR",38.85,35,1000.62,0.16,0.26,0.46],
    [1029,363171,"Vazduh","Libelium","0004A30B0021DF70",44.979,16.7091,"","","Prijedor","",20914416,"2023-07-11T16:29:58",3,"NO ERROR",40.67,33.7,1000.19,1.07,1.32,1.36],
    [1030,363171,"Vazduh","Libelium","0004A30B0021DF70",44.979,16.7091,"","","Prijedor","",20914924,"2023-07-11T17:30:41",3,"NO ERROR",40.19,34.9,999.8,0.29,0.42,0.49],
    [1031,363171,"Vazduh","Libelium","0004A30B0021DF70",44.979,16.7091,"","","Prijedor","",20915484,"2023-07-11T18:31:23",3,"NO ERROR",34.78,42.7,999.66,0.37,0.48,0.49],
    [1032,363171,"Vazduh","Libelium","0004A30B0021DF70",44.979,16.7091,"","","Prijedor","",20915957,"2023-07-11T19:32:04",3,"NO ERROR",33.38,49.5,999.88,0.48,0.73,0.84],
    [1033,363171,"Vazduh","Libelium","0004A30B0021DF70",44.979,16.7091,"","","Prijedor","",20916499,"2023-07-11T20:32:46",3,"NO ERROR",31.05,62.1,999.91,0.54,0.65,0.66],
    [1034,363171,"Vazduh","Libelium","0004A30B0021DF70",44.979,16.7091,"","","Prijedor","",20917065,"2023-07-11T21:33:28",3,"NO ERROR",28.7,79.5,1000.15,1.7,2.47,4.59],
    [1035,363171,"Vazduh","Libelium","0004A30B0021DF70",44.979,16.7091,"","","Prijedor","",20917595,"2023-07-11T22:34:10",3,"NO ERROR",26.83,98.1,1000.09,0.99,1.25,1.53],
    [1036,363171,"Vazduh","Libelium","0004A30B0021DF70",44.979,16.7091,"","","Prijedor","",20918118,"2023-07-11T23:34:58",3,"NO ERROR",25.26,98.5,1000.16,1.19,1.72,2.21],
    [1037,363171,"Vazduh","Libelium","0004A30B0021DF70",44.979,16.7091,"","","Prijedor","",20918920,"2023-07-12T00:35:40",3,"NO ERROR",24.01,100,1000.35,1.37,1.71,1.72],
    [1038,363171,"Vazduh","Libelium","0004A30B0021DF70",44.979,16.7091,"","","Prijedor","",20919477,"2023-07-12T01:36:22",3,"NO ERROR",22.99,100,1000.33,1.14,1.86,5.85],
    [1039,363171,"Vazduh","Libelium","0004A30B0021DF70",44.979,16.7091,"","","Prijedor","",20920032,"2023-07-12T02:37:04",3,"NO ERROR",22.75,100,1000.02,0.86,1.11,1.14],
    [1040,363171,"Vazduh","Libelium","0004A30B0021DF70",44.979,16.7091,"","","Prijedor","",20920576,"2023-07-12T03:37:46",3,"NO ERROR",22.23,100,999.68,0.92,1.06,1.08],
    [1041,363171,"Vazduh","Libelium","0004A30B0021DF70",44.979,16.7091,"","","Prijedor","",20921164,"2023-07-12T04:38:28",3,"NO ERROR",21.87,100,999.74,1.32,1.58,1.59],
    [1042,363171,"Vazduh","Libelium","0004A30B0021DF70",44.979,16.7091,"","","Prijedor","",20921744,"2023-07-12T05:39:10",3,"NO ERROR",21.83,100,1000.03,0.68,0.78,0.78],
    [1043,363171,"Vazduh","Libelium","0004A30B0021DF70",44.979,16.7091,"","","Prijedor","",20922323,"2023-07-12T06:39:53",3,"NO ERROR",23.79,100,1000.72,0.83,1.05,1.06],
    [1044,363171,"Vazduh","Libelium","0004A30B0021DF70",44.979,16.7091,"","","Prijedor","",20922873,"2023-07-12T07:40:35",3,"NO ERROR",25.9,89.8,1002.1,0.75,1.08,2.06],
    [1045,363171,"Vazduh","Libelium","0004A30B0021DF70",44.979,16.7091,"","","Prijedor","",20923415,"2023-07-12T08:41:17",3,"NO ERROR",27.4,84,1002.76,0.72,1.09,2.39],
    [1046,363171,"Vazduh","Libelium","0004A30B0021DF70",44.979,16.7091,"","","Prijedor","",20923994,"2023-07-12T09:41:59",3,"NO ERROR",30.24,55.2,1001.51,0.46,0.61,0.62],
    [1047,363171,"Vazduh","Libelium","0004A30B0021DF70",44.979,16.7091,"","","Prijedor","",20924569,"2023-07-12T10:42:41",3,"NO ERROR",30.46,52.5,999.32,0.55,0.9,0.96],
    [1048,363171,"Vazduh","Libelium","0004A30B0021DF70",44.979,16.7091,"","","Prijedor","",20925127,"2023-07-12T11:43:23",3,"NO ERROR",32.7,49.7,999.1,0.7,1.04,1.06],
    [1049,363171,"Vazduh","Libelium","0004A30B0021DF70",44.979,16.7091,"","","Prijedor","",20925742,"2023-07-12T12:44:05",3,"NO ERROR",33.86,48.9,998.78,0.68,0.83,0.84],
    [1050,363171,"Vazduh","Libelium","0004A30B0021DF70",44.979,16.7091,"","","Prijedor","",20926358,"2023-07-12T13:44:47",3,"NO ERROR",35.22,46.7,999.2,0.52,0.96,1.32],
    [1051,363171,"Vazduh","Libelium","0004A30B0021DF70",44.979,16.7091,"","","Prijedor","",20926976,"2023-07-12T14:45:29",3,"NO ERROR",36.92,44.7,999.17,0.61,0.94,0.97],
    [1052,363171,"Vazduh","Libelium","0004A30B0021DF70",44.979,16.7091,"","","Prijedor","",20927539,"2023-07-12T15:46:10",3,"NO ERROR",36.14,47.7,998.74,0.54,0.78,0.8],
    [1053,363171,"Vazduh","Libelium","0004A30B0021DF70",44.979,16.7091,"","","Prijedor","",20928087,"2023-07-12T16:46:53",3,"NO ERROR",38.05,44.8,997.97,0.43,0.54,0.54],
    [1054,363171,"Vazduh","Libelium","0004A30B0021DF70",44.979,16.7091,"","","Prijedor","",20928615,"2023-07-12T17:47:35",3,"NO ERROR",35.53,49.3,997.49,0.36,0.48,0.49],
    [1055,363171,"Vazduh","Libelium","0004A30B0021DF70",44.979,16.7091,"","","Prijedor","",20929158,"2023-07-12T18:48:16",3,"NO ERROR",34.1,53.1,997.15,0.77,0.91,0.91],
    [1056,363171,"Vazduh","Libelium","0004A30B0021DF70",44.979,16.7091,"","","Prijedor","",20929681,"2023-07-12T19:48:58",3,"NO ERROR",32.7,59.6,997.33,0.46,0.85,1],
    [1057,363171,"Vazduh","Libelium","0004A30B0021DF70",44.979,16.7091,"","","Prijedor","",20930260,"2023-07-12T20:49:40",3,"NO ERROR",30.02,77.6,997.59,0.98,1.46,1.88],
    [1058,363171,"Vazduh","Libelium","0004A30B0021DF70",44.979,16.7091,"","","Prijedor","",20930819,"2023-07-12T21:50:22",3,"NO ERROR",27.93,83.7,998.26,0.49,0.75,1.03],
    [1059,363171,"Vazduh","Libelium","0004A30B0021DF70",44.979,16.7091,"","","Prijedor","",20931370,"2023-07-12T22:51:04",3,"NO ERROR",26.55,96,998.67,1.14,1.59,1.75],
    [1060,363171,"Vazduh","Libelium","0004A30B0021DF70",44.979,16.7091,"","","Prijedor","",20931904,"2023-07-12T23:51:46",3,"NO ERROR",25.4,90.5,999.02,0.65,0.87,0.89],
    [1061,363171,"Vazduh","Libelium","0004A30B0021DF70",44.979,16.7091,"","","Prijedor","",20932662,"2023-07-13T00:52:28",3,"NO ERROR",23.55,100,999.23,0.45,0.64,0.72],
    [1062,363171,"Vazduh","Libelium","0004A30B0021DF70",44.979,16.7091,"","","Prijedor","",20933172,"2023-07-13T01:53:10",3,"NO ERROR",22.94,100,999.23,0.42,0.69,1.67],
    [1063,363171,"Vazduh","Libelium","0004A30B0021DF70",44.979,16.7091,"","","Prijedor","",20933687,"2023-07-13T02:53:51",3,"NO ERROR",22.52,100,998.55,0.66,1.21,1.62],
    [1064,363171,"Vazduh","Libelium","0004A30B0021DF70",44.979,16.7091,"","","Prijedor","",20934178,"2023-07-13T03:54:33",3,"NO ERROR",21.9,100,997.75,0.97,1.21,1.21],
    [1065,363171,"Vazduh","Libelium","0004A30B0021DF70",44.979,16.7091,"","","Prijedor","",20934757,"2023-07-13T04:55:15",3,"NO ERROR",21.9,100,997.98,0.56,0.93,0.98],
    [1066,363171,"Vazduh","Libelium","0004A30B0021DF70",44.979,16.7091,"","","Prijedor","",20935302,"2023-07-13T05:55:57",3,"NO ERROR",20.77,100,998.24,0.87,1.07,1.09],
    [1067,363171,"Vazduh","Libelium","0004A30B0021DF70",44.979,16.7091,"","","Prijedor","",20935879,"2023-07-13T06:56:39",3,"NO ERROR",22.19,100,998.78,0.89,1.25,1.74],
    [1068,363171,"Vazduh","Libelium","0004A30B0021DF70",44.979,16.7091,"","","Prijedor","",20936421,"2023-07-13T07:57:20",3,"NO ERROR",29.38,68.4,998.77,0.82,1.27,1.57],
    [1069,363171,"Vazduh","Libelium","0004A30B0021DF70",44.979,16.7091,"","","Prijedor","",20937023,"2023-07-13T08:58:02",3,"NO ERROR",30.45,55.8,999.08,0.42,0.68,0.98],
    [1070,363171,"Vazduh","Libelium","0004A30B0021DF70",44.979,16.7091,"","","Prijedor","",20937552,"2023-07-13T09:58:44",3,"NO ERROR",33.73,50.1,999.14,0.86,1.37,1.72],
    [1071,363171,"Vazduh","Libelium","0004A30B0021DF70",44.979,16.7091,"","","Prijedor","",20938074,"2023-07-13T10:59:26",3,"NO ERROR",31,59.4,999.31,0.46,0.77,1.65],
    [1072,363171,"Vazduh","Libelium","0004A30B0021DF70",44.979,16.7091,"","","Prijedor","",20938610,"2023-07-13T12:00:14",3,"NO ERROR",32.11,57.1,998.64,0.74,1.15,1.28],
    [1073,363171,"Vazduh","Libelium","0004A30B0021DF70",44.979,16.7091,"","","Prijedor","",20939227,"2023-07-13T13:00:56",3,"NO ERROR",30.97,58.1,998.85,0.25,0.35,0.37],
    [1074,363171,"Vazduh","Libelium","0004A30B0021DF70",44.979,16.7091,"","","Prijedor","",20939779,"2023-07-13T14:01:38",3,"NO ERROR",30.81,59.9,999.23,0.72,1.05,1.06],
    [1075,363171,"Vazduh","Libelium","0004A30B0021DF70",44.979,16.7091,"","","Prijedor","",20940314,"2023-07-13T15:02:19",3,"NO ERROR",31.6,61.4,998.73,0.46,0.53,0.53],
    [1076,363171,"Vazduh","Libelium","0004A30B0021DF70",44.979,16.7091,"","","Prijedor","",20940839,"2023-07-13T16:03:02",3,"NO ERROR",30.53,65.3,998.27,1.29,2,2.36],
    [1077,363171,"Vazduh","Libelium","0004A30B0021DF70",44.979,16.7091,"","","Prijedor","",20941373,"2023-07-13T17:03:44",3,"NO ERROR",30,71.9,997.36,0.52,0.7,0.78],
    [1078,363171,"Vazduh","Libelium","0004A30B0021DF70",44.979,16.7091,"","","Prijedor","",20941861,"2023-07-13T18:04:26",3,"NO ERROR",30.85,67.7,997.2,0.64,0.82,0.83],
    [1079,363171,"Vazduh","Libelium","0004A30B0021DF70",44.979,16.7091,"","","Prijedor","",20942349,"2023-07-13T19:05:07",3,"NO ERROR",29.44,71.4,997.93,0.61,0.87,0.91],
    [1080,363171,"Vazduh","Libelium","0004A30B0021DF70",44.979,16.7091,"","","Prijedor","",20942848,"2023-07-13T20:05:49",3,"NO ERROR",27.38,76,999.33,0.62,0.95,1.37],
    [1081,363171,"Vazduh","Libelium","0004A30B0021DF70",44.979,16.7091,"","","Prijedor","",20944272,"2023-07-13T21:06:30",3,"NO ERROR",25.9,81.7,999.66,0.61,0.73,0.74],
    [1082,363171,"Vazduh","Libelium","0004A30B0021DF70",44.979,16.7091,"","","Prijedor","",20946729,"2023-07-13T22:07:12",3,"NO ERROR",25.06,84.6,1000.73,0.46,1.19,12.03],
    [1083,363171,"Vazduh","Libelium","0004A30B0021DF70",44.979,16.7091,"","","Prijedor","",20948392,"2023-07-13T23:07:53",3,"NO ERROR",19.62,100,1002.56,0.15,0.27,0.28],
    [1084,363171,"Vazduh","Libelium","0004A30B0021DF70",44.979,16.7091,"","","Prijedor","",20949980,"2023-07-14T00:08:35",3,"NO ERROR",19.12,100,1003.63,0.33,0.5,0.53],
    [1085,363171,"Vazduh","Libelium","0004A30B0021DF70",44.979,16.7091,"","","Prijedor","",20951363,"2023-07-14T01:09:17",3,"NO ERROR",18.82,100,1003.81,0.02,0.02,0.02],
    [1086,363171,"Vazduh","Libelium","0004A30B0021DF70",44.979,16.7091,"","","Prijedor","",20952574,"2023-07-14T02:09:59",3,"NO ERROR",18.51,100,1003.91,0.15,0.2,0.2],
    [1087,363171,"Vazduh","Libelium","0004A30B0021DF70",44.979,16.7091,"","","Prijedor","",20953754,"2023-07-14T03:10:41",3,"NO ERROR",18.08,100,1003.81,0.12,0.24,0.26],
    [1088,363171,"Vazduh","Libelium","0004A30B0021DF70",44.979,16.7091,"","","Prijedor","",20954939,"2023-07-14T04:11:24",3,"NO ERROR",18.13,100,1003.92,0.35,0.74,1.3],
    [1089,363171,"Vazduh","Libelium","0004A30B0021DF70",44.979,16.7091,"","","Prijedor","",20956022,"2023-07-14T05:12:06",3,"NO ERROR",17.73,100,1004.23,0.17,0.22,0.22],
    [1090,363171,"Vazduh","Libelium","0004A30B0021DF70",44.979,16.7091,"","","Prijedor","",20956624,"2023-07-14T06:12:48",3,"NO ERROR",18.19,100,1004.63,0.25,0.41,0.42],
    [1091,363171,"Vazduh","Libelium","0004A30B0021DF70",44.979,16.7091,"","","Prijedor","",20957198,"2023-07-14T07:13:30",3,"NO ERROR",19.78,100,1004.89,0.26,0.33,0.33],
    [1092,363171,"Vazduh","Libelium","0004A30B0021DF70",44.979,16.7091,"","","Prijedor","",20957733,"2023-07-14T08:14:11",3,"NO ERROR",25.45,84.1,1005.3,0.12,0.18,0.18],
    [1093,363171,"Vazduh","Libelium","0004A30B0021DF70",44.979,16.7091,"","","Prijedor","",20958297,"2023-07-14T09:14:53",3,"NO ERROR",23.87,85.3,1005.15,0.17,0.23,0.23],
    [1094,363171,"Vazduh","Libelium","0004A30B0021DF70",44.979,16.7091,"","","Prijedor","",20958846,"2023-07-14T10:15:34",3,"NO ERROR",27.97,68.5,1004.88,0.22,0.24,0.24],
    [1095,363171,"Vazduh","Libelium","0004A30B0021DF70",44.979,16.7091,"","","Prijedor","",20959346,"2023-07-14T11:16:16",3,"NO ERROR",28.02,69,1004.51,0.18,0.3,0.38],
    [1096,363171,"Vazduh","Libelium","0004A30B0021DF70",44.979,16.7091,"","","Prijedor","",20959905,"2023-07-14T12:16:58",3,"NO ERROR",27.48,72.1,1004.2,0.1,0.15,0.15],
    [1097,363171,"Vazduh","Libelium","0004A30B0021DF70",44.979,16.7091,"","","Prijedor","",20960517,"2023-07-14T13:17:39",3,"NO ERROR",29.05,63.8,1003.54,0.07,0.09,0.09],
    [1098,363171,"Vazduh","Libelium","0004A30B0021DF70",44.979,16.7091,"","","Prijedor","",20961072,"2023-07-14T14:18:21",3,"NO ERROR",31.45,55.4,1002.77,0.03,0.03,0.03],
    [1099,363171,"Vazduh","Libelium","0004A30B0021DF70",44.979,16.7091,"","","Prijedor","",20961567,"2023-07-14T15:19:02",3,"NO ERROR",31.87,53.9,1002.05,0.28,0.43,0.52],
    [1100,363171,"Vazduh","Libelium","0004A30B0021DF70",44.979,16.7091,"","","Prijedor","",20962081,"2023-07-14T16:19:45",3,"NO ERROR",33.12,50.1,1001.54,0.12,0.15,0.15],
    [1101,363171,"Vazduh","Libelium","0004A30B0021DF70",44.979,16.7091,"","","Prijedor","",20962641,"2023-07-14T17:20:27",3,"NO ERROR",32.84,49,1001.2,0.05,0.11,2.69],
    [1102,363171,"Vazduh","Libelium","0004A30B0021DF70",44.979,16.7091,"","","Prijedor","",20963140,"2023-07-14T18:21:09",3,"NO ERROR",29.41,57,1000.84,0.41,0.58,0.58],
    [1103,363171,"Vazduh","Libelium","0004A30B0021DF70",44.979,16.7091,"","","Prijedor","",20963623,"2023-07-14T19:21:57",3,"NO ERROR",28.54,59.7,1001,0.6,0.91,1.06],
    [1104,363171,"Vazduh","Libelium","0004A30B0021DF70",44.979,16.7091,"","","Prijedor","",20964132,"2023-07-14T20:22:44",3,"NO ERROR",26.98,63.9,1001.08,0.24,0.37,0.66],
    [1105,363171,"Vazduh","Libelium","0004A30B0021DF70",44.979,16.7091,"","","Prijedor","",20966245,"2023-07-14T21:23:26",3,"NO ERROR",24.75,83.9,1001.5,0.33,0.5,0.52],
    [1106,363171,"Vazduh","Libelium","0004A30B0021DF70",44.979,16.7091,"","","Prijedor","",20968546,"2023-07-14T22:24:08",3,"NO ERROR",23.31,96.2,1001.41,0.38,0.53,0.85],
    [1107,363171,"Vazduh","Libelium","0004A30B0021DF70",44.979,16.7091,"","","Prijedor","",20970092,"2023-07-14T23:24:50",3,"NO ERROR",21.48,100,1001.54,0.09,0.12,0.12],
    [1108,363171,"Vazduh","Libelium","0004A30B0021DF70",44.979,16.7091,"","","Prijedor","",20971678,"2023-07-15T00:25:31",3,"NO ERROR",20.56,100,1001.57,0.29,0.4,0.4],
    [1109,363171,"Vazduh","Libelium","0004A30B0021DF70",44.979,16.7091,"","","Prijedor","",20972913,"2023-07-15T01:26:13",3,"NO ERROR",19.82,100,1001.33,0.41,0.64,0.67],
    [1110,363171,"Vazduh","Libelium","0004A30B0021DF70",44.979,16.7091,"","","Prijedor","",20973511,"2023-07-15T02:26:55",3,"NO ERROR",19.22,100,1001.33,0.33,0.41,0.41],
    [1111,363171,"Vazduh","Libelium","0004A30B0021DF70",44.979,16.7091,"","","Prijedor","",20974052,"2023-07-15T03:27:37",3,"NO ERROR",18.49,100,1001.5,0.4,0.48,0.49],
    [1112,363171,"Vazduh","Libelium","0004A30B0021DF70",44.979,16.7091,"","","Prijedor","",20974600,"2023-07-15T04:28:20",3,"NO ERROR",18.15,100,1001.57,0.5,0.58,0.58],
    [1113,363171,"Vazduh","Libelium","0004A30B0021DF70",44.979,16.7091,"","","Prijedor","",20975181,"2023-07-15T05:29:02",3,"NO ERROR",18.06,100,1001.71,0.44,0.53,0.54],
    [1114,363171,"Vazduh","Libelium","0004A30B0021DF70",44.979,16.7091,"","","Prijedor","",20975751,"2023-07-15T06:29:44",3,"NO ERROR",19.44,100,1001.89,0.43,0.58,0.58],
    [1115,363171,"Vazduh","Libelium","0004A30B0021DF70",44.979,16.7091,"","","Prijedor","",20976292,"2023-07-15T07:30:26",3,"NO ERROR",26.04,83.3,1002.03,0.34,0.47,0.47],
    [1116,363171,"Vazduh","Libelium","0004A30B0021DF70",44.979,16.7091,"","","Prijedor","",20976825,"2023-07-15T08:31:08",3,"NO ERROR",28.16,77,1002.11,0.16,0.44,23.15],
    [1117,363171,"Vazduh","Libelium","0004A30B0021DF70",44.979,16.7091,"","","Prijedor","",20977366,"2023-07-15T09:31:50",3,"NO ERROR",28.92,71.8,1001.98,0.17,0.36,0.51],
    [1118,363171,"Vazduh","Libelium","0004A30B0021DF70",44.979,16.7091,"","","Prijedor","",20977890,"2023-07-15T10:32:32",3,"NO ERROR",30.42,66.7,1002.03,0.18,0.29,0.3],
    [1119,363171,"Vazduh","Libelium","0004A30B0021DF70",44.979,16.7091,"","","Prijedor","",20978388,"2023-07-15T11:33:13",3,"NO ERROR",31.36,60.8,1001.56,0.29,0.48,0.88],
    [1120,363171,"Vazduh","Libelium","0004A30B0021DF70",44.979,16.7091,"","","Prijedor","",20978922,"2023-07-15T12:33:55",3,"NO ERROR",32.92,56.3,1001.21,0.25,0.33,0.34],
    [1121,363171,"Vazduh","Libelium","0004A30B0021DF70",44.979,16.7091,"","","Prijedor","",20979507,"2023-07-15T13:34:37",3,"NO ERROR",34.47,45.3,1000.91,0.24,0.43,0.75],
    [1122,363171,"Vazduh","Libelium","0004A30B0021DF70",44.979,16.7091,"","","Prijedor","",20980050,"2023-07-15T14:35:19",3,"NO ERROR",37.46,37.2,1000.24,0.49,0.67,0.67],
    [1123,363171,"Vazduh","Libelium","0004A30B0021DF70",44.979,16.7091,"","","Prijedor","",20980620,"2023-07-15T15:36:02",3,"NO ERROR",38.8,34.5,999.74,0.21,0.37,0.46],
    [1124,363171,"Vazduh","Libelium","0004A30B0021DF70",44.979,16.7091,"","","Prijedor","",20981176,"2023-07-15T16:36:43",3,"NO ERROR",38.6,35.1,999.38,0.15,0.28,0.29],
    [1125,363171,"Vazduh","Libelium","0004A30B0021DF70",44.979,16.7091,"","","Prijedor","",20981712,"2023-07-15T17:37:25",3,"NO ERROR",37.93,35.6,998.91,0.24,0.36,0.36],
    [1126,363171,"Vazduh","Libelium","0004A30B0021DF70",44.979,16.7091,"","","Prijedor","",20982227,"2023-07-15T18:38:07",3,"NO ERROR",33.77,44.4,998.96,0.16,0.26,0.33],
    [1127,363171,"Vazduh","Libelium","0004A30B0021DF70",44.979,16.7091,"","","Prijedor","",20982757,"2023-07-15T19:38:48",3,"NO ERROR",32.52,56.2,999.07,0.38,0.57,0.65],
    [1128,363171,"Vazduh","Libelium","0004A30B0021DF70",44.979,16.7091,"","","Prijedor","",20983292,"2023-07-15T20:39:30",3,"NO ERROR",30.6,59.5,999.15,0.84,1.11,1.21],
    [1129,363171,"Vazduh","Libelium","0004A30B0021DF70",44.979,16.7091,"","","Prijedor","",20983885,"2023-07-15T21:40:12",3,"NO ERROR",27.86,79.8,999.61,0.89,1.26,1.39],
    [1130,363171,"Vazduh","Libelium","0004A30B0021DF70",44.979,16.7091,"","","Prijedor","",20984449,"2023-07-15T22:40:54",3,"NO ERROR",26.05,92,999.78,0.61,0.91,1.83],
    [1131,363171,"Vazduh","Libelium","0004A30B0021DF70",44.979,16.7091,"","","Prijedor","",20985004,"2023-07-15T23:41:36",3,"NO ERROR",24.26,100,999.95,0,0,0],
    [1132,363171,"Vazduh","Libelium","0004A30B0021DF70",44.979,16.7091,"","","Prijedor","",20985883,"2023-07-16T00:42:25",3,"NO ERROR",23.38,100,999.88,0,0,0],
    [1133,363171,"Vazduh","Libelium","0004A30B0021DF70",44.979,16.7091,"","","Prijedor","",20986456,"2023-07-16T01:43:13",3,"NO ERROR",22.49,100,999.64,0,0,0],
    [1134,363171,"Vazduh","Libelium","0004A30B0021DF70",44.979,16.7091,"","","Prijedor","",20986999,"2023-07-16T02:43:55",3,"NO ERROR",21.3,100,999.42,0,0,0],
    [1135,363171,"Vazduh","Libelium","0004A30B0021DF70",44.979,16.7091,"","","Prijedor","",20987517,"2023-07-16T03:44:37",3,"NO ERROR",20.57,100,999.37,0,0,0],
    [1136,363171,"Vazduh","Libelium","0004A30B0021DF70",44.979,16.7091,"","","Prijedor","",20988061,"2023-07-16T04:45:18",3,"NO ERROR",19.64,100,999.67,0,0,0],
    [1137,363171,"Vazduh","Libelium","0004A30B0021DF70",44.979,16.7091,"","","Prijedor","",20988631,"2023-07-16T05:46:00",3,"NO ERROR",19.91,100,999.89,0,0,0],
    [1138,363171,"Vazduh","Libelium","0004A30B0021DF70",44.979,16.7091,"","","Prijedor","",20989162,"2023-07-16T06:46:42",3,"NO ERROR",23.01,100,1000.13,0,0,0],
    [1139,363171,"Vazduh","Libelium","0004A30B0021DF70",44.979,16.7091,"","","Prijedor","",20989688,"2023-07-16T07:47:24",3,"NO ERROR",26.9,81.1,1000.41,0,0,0],
    [1140,363171,"Vazduh","Libelium","0004A30B0021DF70",44.979,16.7091,"","","Prijedor","",20990231,"2023-07-16T08:48:06",3,"NO ERROR",30.2,69.2,1000.44,0,0,0],
    [1141,363171,"Vazduh","Libelium","0004A30B0021DF70",44.979,16.7091,"","","Prijedor","",20990744,"2023-07-16T09:48:48",3,"NO ERROR",32.02,57.1,1000.2,0,0,0],
    [1142,363171,"Vazduh","Libelium","0004A30B0021DF70",44.979,16.7091,"","","Prijedor","",20991258,"2023-07-16T10:49:36",3,"NO ERROR",34.19,52.3,1000,0.03,0.06,0.06],
    [1143,363171,"Vazduh","Libelium","0004A30B0021DF70",44.979,16.7091,"","","Prijedor","",20991775,"2023-07-16T11:50:18",3,"NO ERROR",34.64,47.7,1000,0,0,0],
    [1144,363171,"Vazduh","Libelium","0004A30B0021DF70",44.979,16.7091,"","","Prijedor","",20992343,"2023-07-16T12:51:00",3,"NO ERROR",36.35,42.4,999.94,0,0,0],
    [1145,363171,"Vazduh","Libelium","0004A30B0021DF70",44.979,16.7091,"","","Prijedor","",20992884,"2023-07-16T13:51:43",3,"NO ERROR",36.92,43.8,999.82,0,0,0],
    [1146,363171,"Vazduh","Libelium","0004A30B0021DF70",44.979,16.7091,"","","Prijedor","",20993436,"2023-07-16T14:52:25",3,"NO ERROR",38.59,40.7,999.69,0.02,0.02,0.02],
    [1147,363171,"Vazduh","Libelium","0004A30B0021DF70",44.979,16.7091,"","","Prijedor","",20993940,"2023-07-16T15:53:07",3,"NO ERROR",39.34,39.6,999.53,0.02,0.02,0.02],
    [1148,363171,"Vazduh","Libelium","0004A30B0021DF70",44.979,16.7091,"","","Prijedor","",20994456,"2023-07-16T16:53:49",3,"NO ERROR",38.64,41.3,999.42,0.02,0.02,0.02],
    [1149,363171,"Vazduh","Libelium","0004A30B0021DF70",44.979,16.7091,"","","Prijedor","",20994960,"2023-07-16T17:54:31",3,"NO ERROR",35.65,46.8,999.33,0.02,0.02,0.02],
    [1150,363171,"Vazduh","Libelium","0004A30B0021DF70",44.979,16.7091,"","","Prijedor","",20995446,"2023-07-16T18:55:13",3,"NO ERROR",33.94,51.4,999.4,0,0,0],
    [1151,363171,"Vazduh","Libelium","0004A30B0021DF70",44.979,16.7091,"","","Prijedor","",20995922,"2023-07-16T19:55:55",3,"NO ERROR",32.85,55.8,999.56,0,0,0],
    [1152,363171,"Vazduh","Libelium","0004A30B0021DF70",44.979,16.7091,"","","Prijedor","",20996466,"2023-07-16T20:56:37",3,"NO ERROR",30.44,72.1,999.97,0.55,0.81,0.88],
    [1153,363171,"Vazduh","Libelium","0004A30B0021DF70",44.979,16.7091,"","","Prijedor","",20996999,"2023-07-16T21:57:20",3,"NO ERROR",28.66,81.9,1000.59,0.83,1.19,1.22],
    [1154,363171,"Vazduh","Libelium","0004A30B0021DF70",44.979,16.7091,"","","Prijedor","",20997523,"2023-07-16T22:58:02",3,"NO ERROR",26.84,98.2,1000.72,0.7,1.03,1.59],
    [1155,363171,"Vazduh","Libelium","0004A30B0021DF70",44.979,16.7091,"","","Prijedor","",20998147,"2023-07-16T23:58:44",3,"NO ERROR",25.21,100,1000.68,0.53,0.61,0.61],
    [1156,363171,"Vazduh","Libelium","0004A30B0021DF70",44.979,16.7091,"","","Prijedor","",20998862,"2023-07-17T00:59:32",3,"NO ERROR",23.77,100,1000.94,0.82,1.02,1.04],
    [1157,363171,"Vazduh","Libelium","0004A30B0021DF70",44.979,16.7091,"","","Prijedor","",20999356,"2023-07-17T02:00:13",3,"NO ERROR",23.57,100,1000.8,0.56,0.7,0.7],
    [1158,363171,"Vazduh","Libelium","0004A30B0021DF70",44.979,16.7091,"","","Prijedor","",20999850,"2023-07-17T03:00:54",3,"NO ERROR",22.18,100,1000.88,0.93,1.17,3.63],
    [1159,363171,"Vazduh","Libelium","0004A30B0021DF70",44.979,16.7091,"","","Prijedor","",21000353,"2023-07-17T04:01:36",3,"NO ERROR",22.06,100,1001.01,0.85,1.12,1.19],
    [1160,363171,"Vazduh","Libelium","0004A30B0021DF70",44.979,16.7091,"","","Prijedor","",21000920,"2023-07-17T05:02:18",3,"NO ERROR",21.87,100,1001.24,1.1,1.43,1.92],
    [1161,363171,"Vazduh","Libelium","0004A30B0021DF70",44.979,16.7091,"","","Prijedor","",21001402,"2023-07-17T06:03:06",3,"NO ERROR",21.67,100,1001.47,0.83,1.29,1.32],
    [1162,363171,"Vazduh","Libelium","0004A30B0021DF70",44.979,16.7091,"","","Prijedor","",21001958,"2023-07-17T07:03:54",3,"NO ERROR",26.6,96.5,1001.66,0.97,1.49,1.62],
    [1163,363171,"Vazduh","Libelium","0004A30B0021DF70",44.979,16.7091,"","","Prijedor","",21002487,"2023-07-17T08:04:36",3,"NO ERROR",29.21,78.2,1001.97,0.57,0.64,0.64],
    [1164,363171,"Vazduh","Libelium","0004A30B0021DF70",44.979,16.7091,"","","Prijedor","",21003047,"2023-07-17T09:05:18",3,"NO ERROR",30.69,70.1,1001.75,0.6,0.88,2.04],
    [1165,363171,"Vazduh","Libelium","0004A30B0021DF70",44.979,16.7091,"","","Prijedor","",21003524,"2023-07-17T10:06:06",3,"NO ERROR",33.16,63,1001.27,1,1.49,1.56],
    [1166,363171,"Vazduh","Libelium","0004A30B0021DF70",44.979,16.7091,"","","Prijedor","",21004026,"2023-07-17T11:06:48",3,"NO ERROR",35.36,53.3,1001.18,0.35,0.47,0.48],
    [1167,363171,"Vazduh","Libelium","0004A30B0021DF70",44.979,16.7091,"","","Prijedor","",21004540,"2023-07-17T12:07:30",3,"NO ERROR",34.91,45.5,1000.89,0.36,0.44,0.44],
    [1168,363171,"Vazduh","Libelium","0004A30B0021DF70",44.979,16.7091,"","","Prijedor","",21005119,"2023-07-17T13:08:12",3,"NO ERROR",37.66,38.7,1000.44,0.95,1.37,1.38],
    [1169,363171,"Vazduh","Libelium","0004A30B0021DF70",44.979,16.7091,"","","Prijedor","",21005650,"2023-07-17T14:08:54",3,"NO ERROR",40.32,33.9,1000.01,0.45,0.61,0.62],
    [1170,363171,"Vazduh","Libelium","0004A30B0021DF70",44.979,16.7091,"","","Prijedor","",21006188,"2023-07-17T15:09:36",3,"NO ERROR",39.77,35.7,999.22,0.48,0.67,0.68],
    [1171,363171,"Vazduh","Libelium","0004A30B0021DF70",44.979,16.7091,"","","Prijedor","",21006699,"2023-07-17T16:10:18",3,"NO ERROR",43.32,32.5,998.97,0.6,0.87,0.91],
    [1172,363171,"Vazduh","Libelium","0004A30B0021DF70",44.979,16.7091,"","","Prijedor","",21007243,"2023-07-17T17:11:00",3,"NO ERROR",41.17,35.2,998.99,0,0,0],
    [1173,363171,"Vazduh","Libelium","0004A30B0021DF70",44.979,16.7091,"","","Prijedor","",21007742,"2023-07-17T18:11:42",3,"NO ERROR",37.25,42.1,998.77,0,0,0],
    [1174,363171,"Vazduh","Libelium","0004A30B0021DF70",44.979,16.7091,"","","Prijedor","",21008231,"2023-07-17T19:12:24",3,"NO ERROR",35.62,41.7,998.78,0.62,1.03,1.2],
    [1175,363171,"Vazduh","Libelium","0004A30B0021DF70",44.979,16.7091,"","","Prijedor","",21008753,"2023-07-17T20:13:06",3,"NO ERROR",32.48,52,998.9,1.62,2,2.35],
    [1176,363171,"Vazduh","Libelium","0004A30B0021DF70",44.979,16.7091,"","","Prijedor","",21009334,"2023-07-17T21:13:48",3,"NO ERROR",29.51,66.6,1000.12,1.79,2.32,2.49],
    [1177,363171,"Vazduh","Libelium","0004A30B0021DF70",44.979,16.7091,"","","Prijedor","",21009863,"2023-07-17T22:14:29",3,"NO ERROR",28.81,75.1,1000.83,0.42,0.61,0.62],
    [1178,363171,"Vazduh","Libelium","0004A30B0021DF70",44.979,16.7091,"","","Prijedor","",21010378,"2023-07-17T23:15:11",3,"NO ERROR",28.19,74,1001.15,0.31,0.38,0.39],
    [1179,363171,"Vazduh","Libelium","0004A30B0021DF70",44.979,16.7091,"","","Prijedor","",21011150,"2023-07-18T00:15:53",3,"NO ERROR",26.75,82.6,1001.99,0.61,1.03,1.16],
    [1180,363171,"Vazduh","Libelium","0004A30B0021DF70",44.979,16.7091,"","","Prijedor","",21011833,"2023-07-18T01:16:34",3,"NO ERROR",25.76,97.3,1002.35,0.85,1.13,1.13],
    [1181,363171,"Vazduh","Libelium","0004A30B0021DF70",44.979,16.7091,"","","Prijedor","",21012437,"2023-07-18T02:17:16",3,"NO ERROR",24.56,100,1002.69,0.72,0.97,0.98],
    [1182,363171,"Vazduh","Libelium","0004A30B0021DF70",44.979,16.7091,"","","Prijedor","",21012997,"2023-07-18T03:17:58",3,"NO ERROR",23.17,100,1002.77,0.8,1,1.01],
    [1183,363171,"Vazduh","Libelium","0004A30B0021DF70",44.979,16.7091,"","","Prijedor","",21013589,"2023-07-18T04:18:40",3,"NO ERROR",22.89,100,1002.79,0.7,0.89,0.89],
    [1184,363171,"Vazduh","Libelium","0004A30B0021DF70",44.979,16.7091,"","","Prijedor","",21014230,"2023-07-18T05:19:22",3,"NO ERROR",21.99,100,1003.05,0.58,0.72,0.73],
    [1185,363171,"Vazduh","Libelium","0004A30B0021DF70",44.979,16.7091,"","","Prijedor","",21014859,"2023-07-18T06:20:11",3,"NO ERROR",22.71,100,1003.6,0.62,0.94,1.27],
    [1186,363171,"Vazduh","Libelium","0004A30B0021DF70",44.979,16.7091,"","","Prijedor","",21015445,"2023-07-18T07:20:53",3,"NO ERROR",26.73,92.4,1004.17,0.45,0.68,0.76],
    [1187,363171,"Vazduh","Libelium","0004A30B0021DF70",44.979,16.7091,"","","Prijedor","",21015981,"2023-07-18T08:21:35",3,"NO ERROR",29.39,73.6,1004.44,0.74,1.29,1.51],
    [1188,363171,"Vazduh","Libelium","0004A30B0021DF70",44.979,16.7091,"","","Prijedor","",21016518,"2023-07-18T09:22:17",3,"NO ERROR",32.68,62.1,1004.47,0.54,0.84,1.4],
    [1189,363171,"Vazduh","Libelium","0004A30B0021DF70",44.979,16.7091,"","","Prijedor","",21017031,"2023-07-18T10:22:59",3,"NO ERROR",33.29,58.6,1004.34,0.64,1.04,1.52],
    [1190,363171,"Vazduh","Libelium","0004A30B0021DF70",44.979,16.7091,"","","Prijedor","",21017504,"2023-07-18T11:23:41",3,"NO ERROR",33.35,56.9,1004.05,0.48,0.56,0.57],
    [1191,363171,"Vazduh","Libelium","0004A30B0021DF70",44.979,16.7091,"","","Prijedor","",21018029,"2023-07-18T12:24:29",3,"NO ERROR",33.67,55.1,1003.51,0.31,0.44,0.44],
    [1192,363171,"Vazduh","Libelium","0004A30B0021DF70",44.979,16.7091,"","","Prijedor","",21018603,"2023-07-18T13:25:11",3,"NO ERROR",34.5,49.5,1002.56,0.17,0.21,0.21],
    [1193,363171,"Vazduh","Libelium","0004A30B0021DF70",44.979,16.7091,"","","Prijedor","",21019115,"2023-07-18T14:25:59",3,"NO ERROR",34.85,48.1,1001.89,0.27,0.44,0.77],
    [1194,363171,"Vazduh","Libelium","0004A30B0021DF70",44.979,16.7091,"","","Prijedor","",21019612,"2023-07-18T15:26:41",3,"NO ERROR",37.11,44,1001.17,0.5,0.71,0.74],
    [1195,363171,"Vazduh","Libelium","0004A30B0021DF70",44.979,16.7091,"","","Prijedor","",21020161,"2023-07-18T16:27:24",3,"NO ERROR",38,42.9,1000.69,0.28,0.41,0.42],
    [1196,363171,"Vazduh","Libelium","0004A30B0021DF70",44.979,16.7091,"","","Prijedor","",21020687,"2023-07-18T17:28:06",3,"NO ERROR",37.3,44.1,999.9,0.37,0.58,0.61],
    [1197,363171,"Vazduh","Libelium","0004A30B0021DF70",44.979,16.7091,"","","Prijedor","",21021207,"2023-07-18T18:28:48",3,"NO ERROR",34.18,52.2,999.39,0.14,0.2,0.23],
    [1198,363171,"Vazduh","Libelium","0004A30B0021DF70",44.979,16.7091,"","","Prijedor","",21021682,"2023-07-18T19:29:36",3,"NO ERROR",33.07,56.8,1000.06,0.31,0.37,0.37],
    [1199,363171,"Vazduh","Libelium","0004A30B0021DF70",44.979,16.7091,"","","Prijedor","",21022206,"2023-07-18T20:30:18",3,"NO ERROR",30.54,67.3,1001.46,0.46,0.79,1.26],
    [1200,363171,"Vazduh","Libelium","0004A30B0021DF70",44.979,16.7091,"","","Prijedor","",21024759,"2023-07-18T21:31:00",3,"NO ERROR",26.51,66.3,1004.72,0.74,1.69,2.31],
    [1201,363171,"Vazduh","Libelium","0004A30B0021DF70",44.979,16.7091,"","","Prijedor","",21026851,"2023-07-18T22:31:42",3,"NO ERROR",22.14,97.5,1003.63,0.49,0.68,0.68],
    [1202,363171,"Vazduh","Libelium","0004A30B0021DF70",44.979,16.7091,"","","Prijedor","",21028204,"2023-07-18T23:32:24",3,"NO ERROR",22.57,87.8,1002.98,0.5,0.67,0.68],
    [1203,363171,"Vazduh","Libelium","0004A30B0021DF70",44.979,16.7091,"","","Prijedor","",21029651,"2023-07-19T00:33:12",3,"NO ERROR",22.56,83.1,1000.58,0.58,0.76,0.77],
    [1204,363171,"Vazduh","Libelium","0004A30B0021DF70",44.979,16.7091,"","","Prijedor","",21030808,"2023-07-19T01:33:54",3,"NO ERROR",22.26,87.1,999.79,0.41,0.55,0.55],
    [1205,363171,"Vazduh","Libelium","0004A30B0021DF70",44.979,16.7091,"","","Prijedor","",21031868,"2023-07-19T02:34:36",3,"NO ERROR",21,97.6,998.98,0.68,0.88,0.9],
    [1206,363171,"Vazduh","Libelium","0004A30B0021DF70",44.979,16.7091,"","","Prijedor","",21032936,"2023-07-19T03:35:25",3,"NO ERROR",20.05,100,998.91,0.34,0.64,1.04],
    [1207,363171,"Vazduh","Libelium","0004A30B0021DF70",44.979,16.7091,"","","Prijedor","",21034077,"2023-07-19T04:36:07",3,"NO ERROR",19.41,100,998.98,0.22,0.36,0.37],
    [1208,363171,"Vazduh","Libelium","0004A30B0021DF70",44.979,16.7091,"","","Prijedor","",21034895,"2023-07-19T05:36:49",3,"NO ERROR",19.15,100,999.61,0.36,0.55,0.56],
    [1209,363171,"Vazduh","Libelium","0004A30B0021DF70",44.979,16.7091,"","","Prijedor","",21035472,"2023-07-19T06:37:31",3,"NO ERROR",20.27,100,999.81,0.88,1.16,1.17],
    [1210,363171,"Vazduh","Libelium","0004A30B0021DF70",44.979,16.7091,"","","Prijedor","",21035997,"2023-07-19T07:38:13",3,"NO ERROR",24.28,82.5,999.72,0.28,0.44,0.46],
    [1211,363171,"Vazduh","Libelium","0004A30B0021DF70",44.979,16.7091,"","","Prijedor","",21036511,"2023-07-19T08:38:55",3,"NO ERROR",27.7,64,999.6,0.46,0.68,0.69],
    [1212,363171,"Vazduh","Libelium","0004A30B0021DF70",44.979,16.7091,"","","Prijedor","",21037016,"2023-07-19T09:39:36",3,"NO ERROR",29.4,60.6,999.25,0.75,1.01,1.02],
    [1213,363171,"Vazduh","Libelium","0004A30B0021DF70",44.979,16.7091,"","","Prijedor","",21037534,"2023-07-19T10:40:17",3,"NO ERROR",30.55,57,998.33,0.6,1.06,7.43],
    [1214,363171,"Vazduh","Libelium","0004A30B0021DF70",44.979,16.7091,"","","Prijedor","",21038034,"2023-07-19T11:40:59",3,"NO ERROR",30.78,57.6,997.63,0.56,0.71,0.71],
    [1215,363171,"Vazduh","Libelium","0004A30B0021DF70",44.979,16.7091,"","","Prijedor","",21038563,"2023-07-19T12:41:41",3,"NO ERROR",33.66,45.5,997,0.38,0.55,0.57],
    [1216,363171,"Vazduh","Libelium","0004A30B0021DF70",44.979,16.7091,"","","Prijedor","",21039118,"2023-07-19T13:42:23",3,"NO ERROR",35.7,43.3,996.22,0.52,0.69,0.71],
    [1217,363171,"Vazduh","Libelium","0004A30B0021DF70",44.979,16.7091,"","","Prijedor","",21039636,"2023-07-19T14:43:12",3,"NO ERROR",37.96,39.9,994.92,1.06,1.45,1.48],
    [1218,363171,"Vazduh","Libelium","0004A30B0021DF70",44.979,16.7091,"","","Prijedor","",21040126,"2023-07-19T15:43:54",3,"NO ERROR",37.37,39.1,993.98,0.81,1.15,1.63],
    [1219,363171,"Vazduh","Libelium","0004A30B0021DF70",44.979,16.7091,"","","Prijedor","",21040641,"2023-07-19T16:44:36",3,"NO ERROR",34.49,46.7,993.59,0.57,0.9,1.01],
    [1220,363171,"Vazduh","Libelium","0004A30B0021DF70",44.979,16.7091,"","","Prijedor","",21041141,"2023-07-19T17:45:18",3,"NO ERROR",24.78,74.7,995.57,0.49,0.64,0.64],
    [1221,363171,"Vazduh","Libelium","0004A30B0021DF70",44.979,16.7091,"","","Prijedor","",21041614,"2023-07-19T18:46:00",3,"NO ERROR",26.34,65.8,995.62,0.53,0.82,0.93],
    [1222,363171,"Vazduh","Libelium","0004A30B0021DF70",44.979,16.7091,"","","Prijedor","",21042092,"2023-07-19T19:46:42",3,"NO ERROR",25.14,66.8,995.66,0.4,0.52,0.52],
    [1223,363171,"Vazduh","Libelium","0004A30B0021DF70",44.979,16.7091,"","","Prijedor","",21042637,"2023-07-19T20:47:24",3,"NO ERROR",23.35,78.9,996.02,0.33,0.4,0.4],
    [1224,363171,"Vazduh","Libelium","0004A30B0021DF70",44.979,16.7091,"","","Prijedor","",21045502,"2023-07-19T21:48:06",3,"NO ERROR",23.69,76.4,996.19,0.88,1.15,1.16],
    [1225,363171,"Vazduh","Libelium","0004A30B0021DF70",44.979,16.7091,"","","Prijedor","",21047428,"2023-07-19T22:48:48",3,"NO ERROR",22.32,87.8,996.05,0.65,0.79,0.8],
    [1226,363171,"Vazduh","Libelium","0004A30B0021DF70",44.979,16.7091,"","","Prijedor","",21049066,"2023-07-19T23:49:30",3,"NO ERROR",22.19,94.2,995.54,0.38,0.56,0.58],
    [1227,363171,"Vazduh","Libelium","0004A30B0021DF70",44.979,16.7091,"","","Prijedor","",21050856,"2023-07-20T00:50:12",3,"NO ERROR",21.44,99.5,995.35,0.51,0.76,0.79],
    [1228,363171,"Vazduh","Libelium","0004A30B0021DF70",44.979,16.7091,"","","Prijedor","",21052297,"2023-07-20T01:50:54",3,"NO ERROR",21.87,97.9,995.12,0.84,1.3,1.45],
    [1229,363171,"Vazduh","Libelium","0004A30B0021DF70",44.979,16.7091,"","","Prijedor","",21053581,"2023-07-20T02:51:37",3,"NO ERROR",19.23,100,1000.04,0.37,0.47,0.47],
    [1230,363171,"Vazduh","Libelium","0004A30B0021DF70",44.979,16.7091,"","","Prijedor","",21055009,"2023-07-20T03:52:19",3,"NO ERROR",19.3,100,998.85,0.42,0.56,0.56],
    [1231,363171,"Vazduh","Libelium","0004A30B0021DF70",44.979,16.7091,"","","Prijedor","",21057474,"2023-07-20T04:53:01",3,"NO ERROR",19.2,100,998.69,0.33,0.42,0.42],
    [1232,363171,"Vazduh","Libelium","0004A30B0021DF70",44.979,16.7091,"","","Prijedor","",21058234,"2023-07-20T05:53:49",3,"NO ERROR",19.21,100,998.96,0.15,0.19,0.19],
    [1233,363171,"Vazduh","Libelium","0004A30B0021DF70",44.979,16.7091,"","","Prijedor","",21058789,"2023-07-20T06:54:31",3,"NO ERROR",20.2,100,995.66,0.22,0.26,0.26],
    [1234,363171,"Vazduh","Libelium","0004A30B0021DF70",44.979,16.7091,"","","Prijedor","",21059285,"2023-07-20T07:55:13",3,"NO ERROR",25.8,100,996.86,0.27,0.38,0.39],
    [1235,363171,"Vazduh","Libelium","0004A30B0021DF70",44.979,16.7091,"","","Prijedor","",21059858,"2023-07-20T08:55:54",3,"NO ERROR",28.62,69.2,996.96,0.51,0.66,0.66],
    [1236,363171,"Vazduh","Libelium","0004A30B0021DF70",44.979,16.7091,"","","Prijedor","",21060370,"2023-07-20T09:56:36",3,"NO ERROR",29.4,64.3,997.17,0.12,0.2,0.2],
    [1237,363171,"Vazduh","Libelium","0004A30B0021DF70",44.979,16.7091,"","","Prijedor","",21060875,"2023-07-20T10:57:18",3,"NO ERROR",29.88,65.8,997.02,0.37,0.53,0.53],
    [1238,363171,"Vazduh","Libelium","0004A30B0021DF70",44.979,16.7091,"","","Prijedor","",21061351,"2023-07-20T11:58:00",3,"NO ERROR",29.12,68.6,996.76,0.24,0.31,0.31],
    [1239,363171,"Vazduh","Libelium","0004A30B0021DF70",44.979,16.7091,"","","Prijedor","",21061886,"2023-07-20T12:58:42",3,"NO ERROR",30.15,65.6,996.36,0.43,0.52,0.52],
    [1240,363171,"Vazduh","Libelium","0004A30B0021DF70",44.979,16.7091,"","","Prijedor","",21062391,"2023-07-20T13:59:31",3,"NO ERROR",31.64,56.9,996.03,0.21,0.53,0.97],
    [1241,363171,"Vazduh","Libelium","0004A30B0021DF70",44.979,16.7091,"","","Prijedor","",21062934,"2023-07-20T15:00:12",3,"NO ERROR",33.75,46.9,995.38,0.14,0.17,0.17],
    [1242,363171,"Vazduh","Libelium","0004A30B0021DF70",44.979,16.7091,"","","Prijedor","",21063452,"2023-07-20T16:01:01",3,"NO ERROR",34.18,42.5,995.02,0.22,0.24,0.24],
    [1243,363171,"Vazduh","Libelium","0004A30B0021DF70",44.979,16.7091,"","","Prijedor","",21064001,"2023-07-20T17:01:43",3,"NO ERROR",34.83,42.4,994.77,0.33,0.36,0.36],
    [1244,363171,"Vazduh","Libelium","0004A30B0021DF70",44.979,16.7091,"","","Prijedor","",21064485,"2023-07-20T18:02:25",3,"NO ERROR",31.06,49.6,994.4,0.13,0.14,0.14],
    [1245,363171,"Vazduh","Libelium","0004A30B0021DF70",44.979,16.7091,"","","Prijedor","",21064968,"2023-07-20T19:03:07",3,"NO ERROR",29.9,52.1,994.41,0.21,0.23,0.23],
    [1246,363171,"Vazduh","Libelium","0004A30B0021DF70",44.979,16.7091,"","","Prijedor","",21065463,"2023-07-20T20:03:49",3,"NO ERROR",28.29,57.5,994.66,0.42,0.55,0.57],
    [1247,363171,"Vazduh","Libelium","0004A30B0021DF70",44.979,16.7091,"","","Prijedor","",21067124,"2023-07-20T21:04:30",3,"NO ERROR",26.83,71.4,995.22,0.74,0.98,1],
    [1248,363171,"Vazduh","Libelium","0004A30B0021DF70",44.979,16.7091,"","","Prijedor","",21069848,"2023-07-20T22:05:12",3,"NO ERROR",25.53,80.1,995.9,0.57,0.73,0.76],
    [1249,363171,"Vazduh","Libelium","0004A30B0021DF70",44.979,16.7091,"","","Prijedor","",21071639,"2023-07-20T23:05:54",3,"NO ERROR",24.13,99.8,995.8,0.91,1.24,1.26],
    [1250,363171,"Vazduh","Libelium","0004A30B0021DF70",44.979,16.7091,"","","Prijedor","",21073167,"2023-07-21T00:06:36",3,"NO ERROR",22.6,100,996.34,0.71,0.94,0.96],
    [1251,363171,"Vazduh","Libelium","0004A30B0021DF70",44.979,16.7091,"","","Prijedor","",21074705,"2023-07-21T01:07:18",3,"NO ERROR",21.8,100,996.29,0.55,0.78,0.92],
    [1252,363171,"Vazduh","Libelium","0004A30B0021DF70",44.979,16.7091,"","","Prijedor","",21076020,"2023-07-21T02:08:00",3,"NO ERROR",21.03,100,996.16,0.22,0.29,0.3],
    [1253,363171,"Vazduh","Libelium","0004A30B0021DF70",44.979,16.7091,"","","Prijedor","",21077358,"2023-07-21T03:08:43",3,"NO ERROR",20.39,100,995.96,0.6,0.72,0.72],
    [1254,363171,"Vazduh","Libelium","0004A30B0021DF70",44.979,16.7091,"","","Prijedor","",21078664,"2023-07-21T04:09:25",3,"NO ERROR",19.54,100,996,0.67,0.8,0.8],
    [1255,363171,"Vazduh","Libelium","0004A30B0021DF70",44.979,16.7091,"","","Prijedor","",21079843,"2023-07-21T05:10:13",3,"NO ERROR",19.42,100,995.91,0.62,0.89,0.92],
    [1256,363171,"Vazduh","Libelium","0004A30B0021DF70",44.979,16.7091,"","","Prijedor","",21080368,"2023-07-21T06:10:54",3,"NO ERROR",19.85,100,996.48,0.94,1.25,1.27],
    [1257,363171,"Vazduh","Libelium","0004A30B0021DF70",44.979,16.7091,"","","Prijedor","",21080869,"2023-07-21T07:11:36",3,"NO ERROR",22.77,100,996.8,0.23,0.32,0.33],
    [1258,363171,"Vazduh","Libelium","0004A30B0021DF70",44.979,16.7091,"","","Prijedor","",21081398,"2023-07-21T08:12:18",3,"NO ERROR",26.4,83,996.48,0.48,0.65,0.67],
    [1259,363171,"Vazduh","Libelium","0004A30B0021DF70",44.979,16.7091,"","","Prijedor","",21081914,"2023-07-21T09:13:00",3,"NO ERROR",27.73,74,996.31,0.32,0.48,0.58],
    [1260,363171,"Vazduh","Libelium","0004A30B0021DF70",44.979,16.7091,"","","Prijedor","",21082418,"2023-07-21T10:13:41",3,"NO ERROR",30.02,65.7,996.06,0.3,0.48,0.58],
    [1261,363171,"Vazduh","Libelium","0004A30B0021DF70",44.979,16.7091,"","","Prijedor","",21082913,"2023-07-21T11:14:23",3,"NO ERROR",29.58,64.3,995.55,0.52,0.84,1.56],
    [1262,363171,"Vazduh","Libelium","0004A30B0021DF70",44.979,16.7091,"","","Prijedor","",21083434,"2023-07-21T12:15:05",3,"NO ERROR",30.17,64.6,995.35,0.51,0.6,0.61],
    [1263,363171,"Vazduh","Libelium","0004A30B0021DF70",44.979,16.7091,"","","Prijedor","",21084006,"2023-07-21T13:15:47",3,"NO ERROR",32.14,60,994.2,0.49,0.73,0.75],
    [1264,363171,"Vazduh","Libelium","0004A30B0021DF70",44.979,16.7091,"","","Prijedor","",21084551,"2023-07-21T14:16:29",3,"NO ERROR",32.79,58.2,993.73,0.56,0.73,0.73],
    [1265,363171,"Vazduh","Libelium","0004A30B0021DF70",44.979,16.7091,"","","Prijedor","",21085069,"2023-07-21T15:17:12",3,"NO ERROR",33.94,61.1,992.94,0.33,0.49,0.6],
    [1266,363171,"Vazduh","Libelium","0004A30B0021DF70",44.979,16.7091,"","","Prijedor","",21085839,"2023-07-21T16:17:54",3,"NO ERROR",33.22,64.7,992.29,0.85,1.1,1.11],
    [1267,363171,"Vazduh","Libelium","0004A30B0021DF70",44.979,16.7091,"","","Prijedor","",21086526,"2023-07-21T17:18:36",3,"NO ERROR",28.83,76.2,992.67,0.6,0.98,3.85],
    [1268,363171,"Vazduh","Libelium","0004A30B0021DF70",44.979,16.7091,"","","Prijedor","",21087083,"2023-07-21T18:19:18",3,"NO ERROR",26.12,97.4,993.8,0.69,1.1,1.3],
    [1269,363171,"Vazduh","Libelium","0004A30B0021DF70",44.979,16.7091,"","","Prijedor","",21087576,"2023-07-21T19:20:00",3,"NO ERROR",18.79,100,997.31,0.59,0.71,0.73],
    [1270,363171,"Vazduh","Libelium","0004A30B0021DF70",44.979,16.7091,"","","Prijedor","",21088100,"2023-07-21T20:20:41",3,"NO ERROR",19.19,100,997.07,0.84,1.66,2.77],
    [1271,363171,"Vazduh","Libelium","0004A30B0021DF70",44.979,16.7091,"","","Prijedor","",21090117,"2023-07-21T21:21:23",3,"NO ERROR",19.48,100,995.42,0.74,1.15,1.81],
    [1272,363171,"Vazduh","Libelium","0004A30B0021DF70",44.979,16.7091,"","","Prijedor","",21091707,"2023-07-21T22:22:05",3,"NO ERROR",19.45,100,996.39,0.97,1.47,1.63],
    [1273,363171,"Vazduh","Libelium","0004A30B0021DF70",44.979,16.7091,"","","Prijedor","",21092912,"2023-07-21T23:22:47",3,"NO ERROR",19.56,100,997.28,1.82,2.47,2.48],
    [1274,363171,"Vazduh","Libelium","0004A30B0021DF70",44.979,16.7091,"","","Prijedor","",21094781,"2023-07-22T00:23:29",3,"NO ERROR",19.44,100,997.26,1.72,2.18,2.33],
    [1275,363171,"Vazduh","Libelium","0004A30B0021DF70",44.979,16.7091,"","","Prijedor","",21097892,"2023-07-22T01:24:11",3,"NO ERROR",19.13,100,998.06,2.72,3.79,38.17],
    [1276,363171,"Vazduh","Libelium","0004A30B0021DF70",44.979,16.7091,"","","Prijedor","",21099183,"2023-07-22T02:24:53",3,"NO ERROR",19.24,100,999.08,1.07,1.4,1.42],
    [1277,363171,"Vazduh","Libelium","0004A30B0021DF70",44.979,16.7091,"","","Prijedor","",21100329,"2023-07-22T03:25:36",3,"NO ERROR",19.41,100,998.91,2.87,3.47,3.48],
    [1278,363171,"Vazduh","Libelium","0004A30B0021DF70",44.979,16.7091,"","","Prijedor","",21101476,"2023-07-22T04:26:18",3,"NO ERROR",19.21,100,998.68,1.94,2.46,2.48],
    [1279,363171,"Vazduh","Libelium","0004A30B0021DF70",44.979,16.7091,"","","Prijedor","",21102405,"2023-07-22T05:27:00",3,"NO ERROR",19.19,100,998.99,2.36,2.93,2.94],
    [1280,363171,"Vazduh","Libelium","0004A30B0021DF70",44.979,16.7091,"","","Prijedor","",21102922,"2023-07-22T06:27:41",3,"NO ERROR",19.36,100,999.51,1.85,2.46,2.47],
    [1281,363171,"Vazduh","Libelium","0004A30B0021DF70",44.979,16.7091,"","","Prijedor","",21103410,"2023-07-22T07:28:23",3,"NO ERROR",20.5,100,999.84,1.57,2.01,2.04],
    [1282,363171,"Vazduh","Libelium","0004A30B0021DF70",44.979,16.7091,"","","Prijedor","",21103920,"2023-07-22T08:29:05",3,"NO ERROR",25.14,100,1000.47,0.87,1.13,1.13],
    [1283,363171,"Vazduh","Libelium","0004A30B0021DF70",44.979,16.7091,"","","Prijedor","",21104418,"2023-07-22T09:29:53",3,"NO ERROR",27.93,81.1,1000.69,0.5,0.68,0.68],
    [1284,363171,"Vazduh","Libelium","0004A30B0021DF70",44.979,16.7091,"","","Prijedor","",21104928,"2023-07-22T10:30:35",3,"NO ERROR",27.13,86.3,1000.84,0.39,0.51,0.51],
    [1285,363171,"Vazduh","Libelium","0004A30B0021DF70",44.979,16.7091,"","","Prijedor","",21105402,"2023-07-22T11:31:17",3,"NO ERROR",29.1,77.2,1000.94,0.47,0.65,0.65],
    [1286,363171,"Vazduh","Libelium","0004A30B0021DF70",44.979,16.7091,"","","Prijedor","",21105928,"2023-07-22T12:31:59",3,"NO ERROR",29.22,74.8,1000.71,0.41,0.54,0.55],
    [1287,363171,"Vazduh","Libelium","0004A30B0021DF70",44.979,16.7091,"","","Prijedor","",21106488,"2023-07-22T13:32:40",3,"NO ERROR",29.26,66.7,1000.18,0.29,0.34,0.34],
    [1288,363171,"Vazduh","Libelium","0004A30B0021DF70",44.979,16.7091,"","","Prijedor","",21107029,"2023-07-22T14:33:22",3,"NO ERROR",29.6,65.8,999.51,0.38,0.6,0.72],
    [1289,363171,"Vazduh","Libelium","0004A30B0021DF70",44.979,16.7091,"","","Prijedor","",21107532,"2023-07-22T15:34:04",3,"NO ERROR",31.05,62.5,998.81,0.3,0.41,0.41],
    [1290,363171,"Vazduh","Libelium","0004A30B0021DF70",44.979,16.7091,"","","Prijedor","",21108038,"2023-07-22T16:34:47",3,"NO ERROR",30.45,64.9,998.8,0.21,0.32,0.39],
    [1291,363171,"Vazduh","Libelium","0004A30B0021DF70",44.979,16.7091,"","","Prijedor","",21108540,"2023-07-22T17:35:29",3,"NO ERROR",28.11,73.6,997.99,0.31,0.34,0.34],
    [1292,363171,"Vazduh","Libelium","0004A30B0021DF70",44.979,16.7091,"","","Prijedor","",21109060,"2023-07-22T18:36:11",3,"NO ERROR",26.53,86.4,997.89,0.21,0.26,0.26],
    [1293,363171,"Vazduh","Libelium","0004A30B0021DF70",44.979,16.7091,"","","Prijedor","",21109532,"2023-07-22T19:36:53",3,"NO ERROR",18.77,100,999.5,0.12,0.12,0.12],
    [1294,363171,"Vazduh","Libelium","0004A30B0021DF70",44.979,16.7091,"","","Prijedor","",21110016,"2023-07-22T20:37:35",3,"NO ERROR",18.95,100,1000.63,0.34,0.38,0.38],
    [1295,363171,"Vazduh","Libelium","0004A30B0021DF70",44.979,16.7091,"","","Prijedor","",21112557,"2023-07-22T21:38:17",3,"NO ERROR",18.22,100,1002.11,0.21,0.49,2.68],
    [1296,363171,"Vazduh","Libelium","0004A30B0021DF70",44.979,16.7091,"","","Prijedor","",21114384,"2023-07-22T22:38:59",3,"NO ERROR",17.81,100,1002.82,0.32,0.45,0.56],
    [1297,363171,"Vazduh","Libelium","0004A30B0021DF70",44.979,16.7091,"","","Prijedor","",21115821,"2023-07-22T23:39:41",3,"NO ERROR",17.38,100,1003.04,0.29,0.41,0.47],
    [1298,363171,"Vazduh","Libelium","0004A30B0021DF70",44.979,16.7091,"","","Prijedor","",21117326,"2023-07-23T00:40:23",3,"NO ERROR",16.96,100,1003.1,0.6,0.91,1.07],
    [1299,363171,"Vazduh","Libelium","0004A30B0021DF70",44.979,16.7091,"","","Prijedor","",21118637,"2023-07-23T01:41:05",3,"NO ERROR",16.56,100,1003.15,1.38,1.67,1.69],
    [1300,363171,"Vazduh","Libelium","0004A30B0021DF70",44.979,16.7091,"","","Prijedor","",21119885,"2023-07-23T02:41:47",3,"NO ERROR",16.25,100,1003.16,0.53,1.03,7.81],
    [1301,363171,"Vazduh","Libelium","0004A30B0021DF70",44.979,16.7091,"","","Prijedor","",21121056,"2023-07-23T03:42:29",3,"NO ERROR",16.77,100,1002.81,2.39,7.62,206.59],
    [1302,363171,"Vazduh","Libelium","0004A30B0021DF70",44.979,16.7091,"","","Prijedor","",21122282,"2023-07-23T04:43:12",3,"NO ERROR",16.52,100,1002.94,1.54,3.31,38.9],
    [1303,363171,"Vazduh","Libelium","0004A30B0021DF70",44.979,16.7091,"","","Prijedor","",21123064,"2023-07-23T05:43:54",3,"NO ERROR",16.68,100,1002.96,2.35,5.2,105.58],
    [1304,363171,"Vazduh","Libelium","0004A30B0021DF70",44.979,16.7091,"","","Prijedor","",21123593,"2023-07-23T06:44:36",3,"NO ERROR",16.87,100,1003.48,1.92,3.09,65.82],
    [1305,363171,"Vazduh","Libelium","0004A30B0021DF70",44.979,16.7091,"","","Prijedor","",21124105,"2023-07-23T07:45:18",3,"NO ERROR",17.69,100,1003.49,0.13,0.14,0.14],
    [1306,363171,"Vazduh","Libelium","0004A30B0021DF70",44.979,16.7091,"","","Prijedor","",21124596,"2023-07-23T08:46:00",3,"NO ERROR",19.17,100,1003.72,0.19,0.24,0.24],
    [1307,363171,"Vazduh","Libelium","0004A30B0021DF70",44.979,16.7091,"","","Prijedor","",21125103,"2023-07-23T09:46:42",3,"NO ERROR",21.03,100,1003.9,0.08,0.11,0.11],
    [1308,363171,"Vazduh","Libelium","0004A30B0021DF70",44.979,16.7091,"","","Prijedor","",21125601,"2023-07-23T10:47:24",3,"NO ERROR",24.9,96.5,1003.55,0.43,0.45,0.45],
    [1309,363171,"Vazduh","Libelium","0004A30B0021DF70",44.979,16.7091,"","","Prijedor","",21126096,"2023-07-23T11:48:06",3,"NO ERROR",25.74,92,1003.31,0.16,0.26,0.32],
    [1310,363171,"Vazduh","Libelium","0004A30B0021DF70",44.979,16.7091,"","","Prijedor","",21126666,"2023-07-23T12:48:48",3,"NO ERROR",26.62,88.4,1002.6,0.28,0.53,0.6],
    [1311,363171,"Vazduh","Libelium","0004A30B0021DF70",44.979,16.7091,"","","Prijedor","",21127222,"2023-07-23T13:49:30",3,"NO ERROR",28,85.9,1001.84,0.2,0.32,0.34],
    [1312,363171,"Vazduh","Libelium","0004A30B0021DF70",44.979,16.7091,"","","Prijedor","",21127750,"2023-07-23T14:50:12",3,"NO ERROR",31.92,70.2,1000.91,0.04,0.07,0.07],
    [1313,363171,"Vazduh","Libelium","0004A30B0021DF70",44.979,16.7091,"","","Prijedor","",21128262,"2023-07-23T15:50:54",3,"NO ERROR",33.66,62.9,1000.3,0.34,0.41,0.41],
    [1314,363171,"Vazduh","Libelium","0004A30B0021DF70",44.979,16.7091,"","","Prijedor","",21128766,"2023-07-23T16:51:36",3,"NO ERROR",34.12,59.4,999.8,0.31,0.41,0.42],
    [1315,363171,"Vazduh","Libelium","0004A30B0021DF70",44.979,16.7091,"","","Prijedor","",21129266,"2023-07-23T17:52:19",3,"NO ERROR",30.74,67.1,999.34,0.29,0.36,0.36],
    [1316,363171,"Vazduh","Libelium","0004A30B0021DF70",44.979,16.7091,"","","Prijedor","",21129751,"2023-07-23T18:53:01",3,"NO ERROR",29.63,76.2,999.38,0.4,0.53,0.61],
    [1317,363171,"Vazduh","Libelium","0004A30B0021DF70",44.979,16.7091,"","","Prijedor","",21130223,"2023-07-23T19:53:43",3,"NO ERROR",28.04,88.8,999.34,0.35,0.48,0.49],
    [1318,363171,"Vazduh","Libelium","0004A30B0021DF70",44.979,16.7091,"","","Prijedor","",21131305,"2023-07-23T20:54:25",3,"NO ERROR",26.26,100,999.51,0.39,0.59,0.68],
    [1319,363171,"Vazduh","Libelium","0004A30B0021DF70",44.979,16.7091,"","","Prijedor","",21133557,"2023-07-23T21:55:07",3,"NO ERROR",24.55,100,999.76,0.34,0.53,0.6],
    [1320,363171,"Vazduh","Libelium","0004A30B0021DF70",44.979,16.7091,"","","Prijedor","",21135109,"2023-07-23T22:55:49",3,"NO ERROR",22.73,100,1000.16,0.43,0.63,0.7],
    [1321,363171,"Vazduh","Libelium","0004A30B0021DF70",44.979,16.7091,"","","Prijedor","",21136483,"2023-07-23T23:56:31",3,"NO ERROR",21.93,100,1000.23,0.43,0.65,0.69],
    [1322,363171,"Vazduh","Libelium","0004A30B0021DF70",44.979,16.7091,"","","Prijedor","",21138070,"2023-07-24T00:57:19",3,"NO ERROR",20.77,100,1000.41,0.58,0.83,2.25],
    [1323,363171,"Vazduh","Libelium","0004A30B0021DF70",44.979,16.7091,"","","Prijedor","",21139364,"2023-07-24T01:58:01",3,"NO ERROR",19.95,100,1000.22,1.65,2.01,2.04],
    [1324,363171,"Vazduh","Libelium","0004A30B0021DF70",44.979,16.7091,"","","Prijedor","",21140714,"2023-07-24T02:58:43",3,"NO ERROR",19.2,100,1000.21,2.63,5.68,70.44],
    [1325,363171,"Vazduh","Libelium","0004A30B0021DF70",44.979,16.7091,"","","Prijedor","",21141990,"2023-07-24T03:59:25",3,"NO ERROR",19.44,100,999.95,3.39,3.99,4.12],
    [1326,363171,"Vazduh","Libelium","0004A30B0021DF70",44.979,16.7091,"","","Prijedor","",21143306,"2023-07-24T05:00:07",3,"NO ERROR",18.59,100,999.91,2.53,5.57,182.41],
    [1327,363171,"Vazduh","Libelium","0004A30B0021DF70",44.979,16.7091,"","","Prijedor","",21144004,"2023-07-24T06:00:50",3,"NO ERROR",18.53,100,999.75,0.74,1.01,1.47],
    [1328,363171,"Vazduh","Libelium","0004A30B0021DF70",44.979,16.7091,"","","Prijedor","",21144640,"2023-07-24T07:01:32",3,"NO ERROR",21.4,100,999.54,1.31,1.59,1.63],
    [1329,363171,"Vazduh","Libelium","0004A30B0021DF70",44.979,16.7091,"","","Prijedor","",21145177,"2023-07-24T08:02:14",3,"NO ERROR",24.7,96,999.15,0.48,0.61,0.62],
    [1330,363171,"Vazduh","Libelium","0004A30B0021DF70",44.979,16.7091,"","","Prijedor","",21145754,"2023-07-24T09:02:56",3,"NO ERROR",27.76,77.9,999.15,0.59,0.77,0.78],
    [1331,363171,"Vazduh","Libelium","0004A30B0021DF70",44.979,16.7091,"","","Prijedor","",21146276,"2023-07-24T10:03:38",3,"NO ERROR",30.06,65.7,998.22,1.08,1.37,1.46],
    [1332,363171,"Vazduh","Libelium","0004A30B0021DF70",44.979,16.7091,"","","Prijedor","",21146814,"2023-07-24T11:04:20",3,"NO ERROR",32.58,59.1,998.46,1.16,1.38,1.38],
    [1333,363171,"Vazduh","Libelium","0004A30B0021DF70",44.979,16.7091,"","","Prijedor","",21147352,"2023-07-24T12:05:02",3,"NO ERROR",33.25,58,997.22,0.42,0.53,0.6],
    [1334,363171,"Vazduh","Libelium","0004A30B0021DF70",44.979,16.7091,"","","Prijedor","",21147937,"2023-07-24T13:05:50",3,"NO ERROR",33.98,59.3,996.22,0.97,1.41,1.97],
    [1335,363171,"Vazduh","Libelium","0004A30B0021DF70",44.979,16.7091,"","","Prijedor","",21148460,"2023-07-24T14:06:32",3,"NO ERROR",33.49,67.7,995.37,0.69,0.87,0.88],
    [1336,363171,"Vazduh","Libelium","0004A30B0021DF70",44.979,16.7091,"","","Prijedor","",21149004,"2023-07-24T15:07:14",3,"NO ERROR",38.1,45.4,994.74,0.67,0.81,0.89],
    [1337,363171,"Vazduh","Libelium","0004A30B0021DF70",44.979,16.7091,"","","Prijedor","",21149509,"2023-07-24T16:07:57",3,"NO ERROR",39.96,39.8,993.73,1.43,1.93,1.98],
    [1338,363171,"Vazduh","Libelium","0004A30B0021DF70",44.979,16.7091,"","","Prijedor","",21150042,"2023-07-24T17:08:39",3,"NO ERROR",41.12,39,993.25,1.29,1.78,1.92],
    [1339,363171,"Vazduh","Libelium","0004A30B0021DF70",44.979,16.7091,"","","Prijedor","",21150535,"2023-07-24T18:09:27",3,"NO ERROR",34.95,52.4,992.4,0.97,1.27,1.3],
    [1340,363171,"Vazduh","Libelium","0004A30B0021DF70",44.979,16.7091,"","","Prijedor","",21151005,"2023-07-24T19:10:21",3,"NO ERROR",32.85,65.1,991.83,1.18,1.4,1.41],
    [1341,363171,"Vazduh","Libelium","0004A30B0021DF70",44.979,16.7091,"","","Prijedor","",21151510,"2023-07-24T20:11:03",3,"NO ERROR",30.71,88.6,991.25,1.97,2.84,4.71],
    [1342,363171,"Vazduh","Libelium","0004A30B0021DF70",44.979,16.7091,"","","Prijedor","",21152922,"2023-07-24T21:11:45",3,"NO ERROR",28.09,100,990.97,1.44,1.84,1.95],
    [1343,363171,"Vazduh","Libelium","0004A30B0021DF70",44.979,16.7091,"","","Prijedor","",21154655,"2023-07-24T22:12:27",3,"NO ERROR",26.28,100,990.21,2.1,2.74,2.85],
    [1344,363171,"Vazduh","Libelium","0004A30B0021DF70",44.979,16.7091,"","","Prijedor","",21155922,"2023-07-24T23:13:15",3,"NO ERROR",24.68,100,990.85,1.62,2.08,2.12],
    [1345,363171,"Vazduh","Libelium","0004A30B0021DF70",44.979,16.7091,"","","Prijedor","",21157131,"2023-07-25T00:13:56",3,"NO ERROR",24.46,100,990.47,1.5,1.94,1.99],
    [1346,363171,"Vazduh","Libelium","0004A30B0021DF70",44.979,16.7091,"","","Prijedor","",21158121,"2023-07-25T01:14:38",3,"NO ERROR",23.3,100,991.33,0.49,0.57,0.58],
    [1347,363171,"Vazduh","Libelium","0004A30B0021DF70",44.979,16.7091,"","","Prijedor","",21159004,"2023-07-25T02:15:21",3,"NO ERROR",24.15,100,991.72,0.93,1.2,1.3],
    [1348,363171,"Vazduh","Libelium","0004A30B0021DF70",44.979,16.7091,"","","Prijedor","",21159860,"2023-07-25T03:16:03",3,"NO ERROR",26.14,99.5,991.36,1.14,1.38,1.4],
    [1349,363171,"Vazduh","Libelium","0004A30B0021DF70",44.979,16.7091,"","","Prijedor","",21160769,"2023-07-25T04:16:45",3,"NO ERROR",24.92,88.4,991.88,0.57,0.76,0.77],
    [1350,363171,"Vazduh","Libelium","0004A30B0021DF70",44.979,16.7091,"","","Prijedor","",21161650,"2023-07-25T05:17:27",3,"NO ERROR",23.3,100,990.34,0.93,1.23,1.25],
    [1351,363171,"Vazduh","Libelium","0004A30B0021DF70",44.979,16.7091,"","","Prijedor","",21162245,"2023-07-25T06:18:08",3,"NO ERROR",23.64,100,989.92,0.87,1.29,1.33],
    [1352,363171,"Vazduh","Libelium","0004A30B0021DF70",44.979,16.7091,"","","Prijedor","",21162792,"2023-07-25T07:18:50",3,"NO ERROR",25.7,96.5,988.99,1.34,2.03,2.3],
    [1353,363171,"Vazduh","Libelium","0004A30B0021DF70",44.979,16.7091,"","","Prijedor","",21163354,"2023-07-25T08:19:31",3,"NO ERROR",26.11,89.9,988.47,1.36,2.02,2.21],
    [1354,363171,"Vazduh","Libelium","0004A30B0021DF70",44.979,16.7091,"","","Prijedor","",21163918,"2023-07-25T09:20:13",3,"NO ERROR",31.54,68,988.38,1.43,2.1,2.9],
    [1355,363171,"Vazduh","Libelium","0004A30B0021DF70",44.979,16.7091,"","","Prijedor","",21164407,"2023-07-25T10:20:55",3,"NO ERROR",31.39,61.5,988.45,1.88,2.55,3.01],
    [1356,363171,"Vazduh","Libelium","0004A30B0021DF70",44.979,16.7091,"","","Prijedor","",21164871,"2023-07-25T11:21:37",3,"NO ERROR",28.56,83.5,989.94,1.73,2.32,2.43],
    [1357,363171,"Vazduh","Libelium","0004A30B0021DF70",44.979,16.7091,"","","Prijedor","",21165393,"2023-07-25T12:22:19",3,"NO ERROR",21.93,100,990.49,1.23,1.81,1.95],
    [1358,363171,"Vazduh","Libelium","0004A30B0021DF70",44.979,16.7091,"","","Prijedor","",21165967,"2023-07-25T13:23:01",3,"NO ERROR",25.67,98.7,990.48,1.28,1.69,1.7],
    [1359,363171,"Vazduh","Libelium","0004A30B0021DF70",44.979,16.7091,"","","Prijedor","",21166603,"2023-07-25T14:23:43",3,"NO ERROR",27.3,84.9,988.42,0.95,1.64,3.39],
    [1360,363171,"Vazduh","Libelium","0004A30B0021DF70",44.979,16.7091,"","","Prijedor","",21167121,"2023-07-25T15:24:26",3,"NO ERROR",26.71,84.5,987.54,0.64,0.96,0.97],
    [1361,363171,"Vazduh","Libelium","0004A30B0021DF70",44.979,16.7091,"","","Prijedor","",21167632,"2023-07-25T16:25:14",3,"NO ERROR",28.5,77.6,987.29,0.83,1.08,1.1],
    [1362,363171,"Vazduh","Libelium","0004A30B0021DF70",44.979,16.7091,"","","Prijedor","",21168153,"2023-07-25T17:25:56",3,"NO ERROR",28.68,78.7,987.45,0.76,1.05,1.16],
    [1363,363171,"Vazduh","Libelium","0004A30B0021DF70",44.979,16.7091,"","","Prijedor","",21168650,"2023-07-25T18:26:38",3,"NO ERROR",27.96,83.2,986.51,0.84,1.22,1.32],
    [1364,363171,"Vazduh","Libelium","0004A30B0021DF70",44.979,16.7091,"","","Prijedor","",21169104,"2023-07-25T19:27:20",3,"NO ERROR",27.15,93.8,986.13,0.54,0.78,0.86],
    [1365,363171,"Vazduh","Libelium","0004A30B0021DF70",44.979,16.7091,"","","Prijedor","",21169636,"2023-07-25T20:28:02",3,"NO ERROR",25.59,100,986.39,1.23,1.75,1.76],
    [1366,363171,"Vazduh","Libelium","0004A30B0021DF70",44.979,16.7091,"","","Prijedor","",21171836,"2023-07-25T21:28:44",3,"NO ERROR",24.31,100,986.54,1.01,1.52,1.94],
    [1367,363171,"Vazduh","Libelium","0004A30B0021DF70",44.979,16.7091,"","","Prijedor","",21173615,"2023-07-25T22:29:26",3,"NO ERROR",23.53,100,986.59,0.95,1.31,1.41],
    [1368,363171,"Vazduh","Libelium","0004A30B0021DF70",44.979,16.7091,"","","Prijedor","",21174933,"2023-07-25T23:30:08",3,"NO ERROR",22.27,100,986.6,0.92,1.26,1.27],
    [1369,363171,"Vazduh","Libelium","0004A30B0021DF70",44.979,16.7091,"","","Prijedor","",21176299,"2023-07-26T00:30:50",3,"NO ERROR",22.65,100,986.97,0.56,0.9,0.95],
    [1370,363171,"Vazduh","Libelium","0004A30B0021DF70",44.979,16.7091,"","","Prijedor","",21177314,"2023-07-26T01:31:32",3,"NO ERROR",21.87,100,987.87,0.41,0.55,0.55],
    [1371,363171,"Vazduh","Libelium","0004A30B0021DF70",44.979,16.7091,"","","Prijedor","",21178257,"2023-07-26T02:32:14",3,"NO ERROR",19.8,98.4,988.29,0.26,0.28,0.28],
    [1372,363171,"Vazduh","Libelium","0004A30B0021DF70",44.979,16.7091,"","","Prijedor","",21179176,"2023-07-26T03:32:55",3,"NO ERROR",20.31,89.4,989.19,0.13,0.31,0.81],
    [1373,363171,"Vazduh","Libelium","0004A30B0021DF70",44.979,16.7091,"","","Prijedor","",21180080,"2023-07-26T04:33:36",3,"NO ERROR",18.17,100,990.15,0.06,0.08,0.09],
    [1374,363171,"Vazduh","Libelium","0004A30B0021DF70",44.979,16.7091,"","","Prijedor","",21180798,"2023-07-26T05:34:19",3,"NO ERROR",18.62,100,990.87,0.37,0.47,0.47],
    [1375,363171,"Vazduh","Libelium","0004A30B0021DF70",44.979,16.7091,"","","Prijedor","",21181317,"2023-07-26T06:35:00",3,"NO ERROR",18.66,100,991.25,0.14,0.16,0.16],
    [1376,363171,"Vazduh","Libelium","0004A30B0021DF70",44.979,16.7091,"","","Prijedor","",21181815,"2023-07-26T07:35:41",3,"NO ERROR",18.63,100,991.89,0.13,0.14,0.14],
    [1377,363171,"Vazduh","Libelium","0004A30B0021DF70",44.979,16.7091,"","","Prijedor","",21182301,"2023-07-26T08:36:23",3,"NO ERROR",18.64,100,992.27,0.42,0.57,0.57],
    [1378,363171,"Vazduh","Libelium","0004A30B0021DF70",44.979,16.7091,"","","Prijedor","",21182811,"2023-07-26T09:37:05",3,"NO ERROR",16.29,100,993.52,0.24,0.35,0.36],
    [1379,363171,"Vazduh","Libelium","0004A30B0021DF70",44.979,16.7091,"","","Prijedor","",21183372,"2023-07-26T10:37:46",3,"NO ERROR",16.67,100,994.32,0.16,0.23,0.23],
    [1380,363171,"Vazduh","Libelium","0004A30B0021DF70",44.979,16.7091,"","","Prijedor","",21184091,"2023-07-26T11:38:34",3,"NO ERROR",16.4,100,995.29,0.17,0.18,0.18],
    [1381,363171,"Vazduh","Libelium","0004A30B0021DF70",44.979,16.7091,"","","Prijedor","",21184598,"2023-07-26T12:39:15",3,"NO ERROR",17.4,100,995.77,0.11,0.12,0.12],
    [1382,363171,"Vazduh","Libelium","0004A30B0021DF70",44.979,16.7091,"","","Prijedor","",21185138,"2023-07-26T13:39:57",3,"NO ERROR",20.13,100,995.88,0.24,0.32,0.32],
    [1383,363171,"Vazduh","Libelium","0004A30B0021DF70",44.979,16.7091,"","","Prijedor","",21185672,"2023-07-26T14:40:39",3,"NO ERROR",23.4,78.1,995.9,0.12,0.14,0.14],
    [1384,363171,"Vazduh","Libelium","0004A30B0021DF70",44.979,16.7091,"","","Prijedor","",21186179,"2023-07-26T15:41:34",3,"NO ERROR",24.01,72.9,995.66,0.07,0.08,0.08],
    [1385,363171,"Vazduh","Libelium","0004A30B0021DF70",44.979,16.7091,"","","Prijedor","",21186671,"2023-07-26T16:42:15",3,"NO ERROR",22.53,76.5,995.72,0.17,0.19,0.19],
    [1386,363171,"Vazduh","Libelium","0004A30B0021DF70",44.979,16.7091,"","","Prijedor","",21187185,"2023-07-26T17:42:57",3,"NO ERROR",23.19,71.7,996.02,0.08,0.11,0.11],
    [1387,363171,"Vazduh","Libelium","0004A30B0021DF70",44.979,16.7091,"","","Prijedor","",21187672,"2023-07-26T18:43:45",3,"NO ERROR",20.55,85.6,996.64,0.07,0.12,0.17],
    [1388,363171,"Vazduh","Libelium","0004A30B0021DF70",44.979,16.7091,"","","Prijedor","",21188155,"2023-07-26T19:44:26",3,"NO ERROR",19.5,92.8,997.35,0.05,0.1,0.11],
    [1389,363171,"Vazduh","Libelium","0004A30B0021DF70",44.979,16.7091,"","","Prijedor","",21188871,"2023-07-26T20:45:08",3,"NO ERROR",19.12,100,998.36,0.1,0.12,0.12],
    [1390,363171,"Vazduh","Libelium","0004A30B0021DF70",44.979,16.7091,"","","Prijedor","",21190933,"2023-07-26T21:45:50",3,"NO ERROR",18.22,100,999.16,0.11,0.18,0.18],
    [1391,363171,"Vazduh","Libelium","0004A30B0021DF70",44.979,16.7091,"","","Prijedor","",21192485,"2023-07-26T22:46:32",3,"NO ERROR",17.49,100,999.31,0.14,0.21,0.23],
    [1392,363171,"Vazduh","Libelium","0004A30B0021DF70",44.979,16.7091,"","","Prijedor","",21193691,"2023-07-26T23:47:14",3,"NO ERROR",16.28,100,999.97,0.08,0.13,0.14],
    [1393,363171,"Vazduh","Libelium","0004A30B0021DF70",44.979,16.7091,"","","Prijedor","",21195040,"2023-07-27T00:47:56",3,"NO ERROR",15.7,100,1000.74,0.17,0.21,0.21],
    [1394,363171,"Vazduh","Libelium","0004A30B0021DF70",44.979,16.7091,"","","Prijedor","",21196066,"2023-07-27T01:48:38",3,"NO ERROR",16.07,100,1000.85,0.13,0.18,0.19],
    [1395,363171,"Vazduh","Libelium","0004A30B0021DF70",44.979,16.7091,"","","Prijedor","",21197062,"2023-07-27T02:49:20",3,"NO ERROR",15.28,100,1001.17,0.16,0.17,0.17],
    [1396,363171,"Vazduh","Libelium","0004A30B0021DF70",44.979,16.7091,"","","Prijedor","",21197985,"2023-07-27T03:50:02",3,"NO ERROR",14.05,100,1001.19,0.73,0.96,0.98],
    [1397,363171,"Vazduh","Libelium","0004A30B0021DF70",44.979,16.7091,"","","Prijedor","",21198949,"2023-07-27T04:50:44",3,"NO ERROR",13.52,100,1002.01,0.31,0.52,4.29],
    [1398,363171,"Vazduh","Libelium","0004A30B0021DF70",44.979,16.7091,"","","Prijedor","",21199667,"2023-07-27T05:51:26",3,"NO ERROR",13.65,100,1002.43,2.85,14.19,277.38],
    [1399,363171,"Vazduh","Libelium","0004A30B0021DF70",44.979,16.7091,"","","Prijedor","",21200265,"2023-07-27T06:52:07",3,"NO ERROR",14.41,100,1002.92,0.44,1.39,4.54],
    [1400,363171,"Vazduh","Libelium","0004A30B0021DF70",44.979,16.7091,"","","Prijedor","",21200797,"2023-07-27T07:52:50",3,"NO ERROR",14.96,100,1003.16,0.31,0.42,0.42],
    [1401,363171,"Vazduh","Libelium","0004A30B0021DF70",44.979,16.7091,"","","Prijedor","",21201332,"2023-07-27T08:53:32",3,"NO ERROR",16.83,100,1003.05,0.21,0.41,1.87],
    [1402,363171,"Vazduh","Libelium","0004A30B0021DF70",44.979,16.7091,"","","Prijedor","",21201808,"2023-07-27T09:54:14",3,"NO ERROR",22.69,76.6,1003.15,0.07,0.13,0.13],
    [1403,363171,"Vazduh","Libelium","0004A30B0021DF70",44.979,16.7091,"","","Prijedor","",21202290,"2023-07-27T10:54:56",3,"NO ERROR",23.56,55.8,1002.65,0.06,0.07,0.07],
    [1404,363171,"Vazduh","Libelium","0004A30B0021DF70",44.979,16.7091,"","","Prijedor","",21202764,"2023-07-27T11:55:38",3,"NO ERROR",22.1,54.7,1002.47,0.09,0.13,0.14],
    [1405,363171,"Vazduh","Libelium","0004A30B0021DF70",44.979,16.7091,"","","Prijedor","",21203311,"2023-07-27T12:56:20",3,"NO ERROR",24.37,51.3,1001.91,0.1,0.26,0.42],
    [1406,363171,"Vazduh","Libelium","0004A30B0021DF70",44.979,16.7091,"","","Prijedor","",21203880,"2023-07-27T13:57:02",3,"NO ERROR",23.54,50.9,1001.33,0.07,0.24,5.25],
    [1407,363171,"Vazduh","Libelium","0004A30B0021DF70",44.979,16.7091,"","","Prijedor","",21204410,"2023-07-27T14:57:43",3,"NO ERROR",27.14,44,1000.82,0.12,0.14,0.14],
    [1408,363171,"Vazduh","Libelium","0004A30B0021DF70",44.979,16.7091,"","","Prijedor","",21204915,"2023-07-27T15:58:25",3,"NO ERROR",29.6,40.1,1000.32,0.23,0.26,0.26],
    [1409,363171,"Vazduh","Libelium","0004A30B0021DF70",44.979,16.7091,"","","Prijedor","",21205435,"2023-07-27T16:59:07",3,"NO ERROR",29.65,39.1,999.79,0.1,0.21,0.29],
    [1410,363171,"Vazduh","Libelium","0004A30B0021DF70",44.979,16.7091,"","","Prijedor","",21205934,"2023-07-27T17:59:49",3,"NO ERROR",24.37,48.2,999.39,0.03,0.03,0.03],
    [1411,363171,"Vazduh","Libelium","0004A30B0021DF70",44.979,16.7091,"","","Prijedor","",21206441,"2023-07-27T19:00:32",3,"NO ERROR",23.54,50.1,999.08,0.1,0.15,0.16],
    [1412,363171,"Vazduh","Libelium","0004A30B0021DF70",44.979,16.7091,"","","Prijedor","",21206930,"2023-07-27T20:01:14",3,"NO ERROR",22.58,55.4,998.99,0.31,0.41,0.42],
    [1413,363171,"Vazduh","Libelium","0004A30B0021DF70",44.979,16.7091,"","","Prijedor","",21208402,"2023-07-27T21:01:56",3,"NO ERROR",20.39,73.9,999.07,0.33,0.5,0.52],
    [1414,363171,"Vazduh","Libelium","0004A30B0021DF70",44.979,16.7091,"","","Prijedor","",21210527,"2023-07-27T22:02:38",3,"NO ERROR",18.6,82.3,999.44,1.44,1.89,1.93],
    [1415,363171,"Vazduh","Libelium","0004A30B0021DF70",44.979,16.7091,"","","Prijedor","",21212101,"2023-07-27T23:03:20",3,"NO ERROR",17.25,97.8,999.17,0.39,0.53,0.54],
    [1416,363171,"Vazduh","Libelium","0004A30B0021DF70",44.979,16.7091,"","","Prijedor","",21213431,"2023-07-28T00:04:02",3,"NO ERROR",15.78,100,999.36,0.2,0.22,0.22],
    [1417,363171,"Vazduh","Libelium","0004A30B0021DF70",44.979,16.7091,"","","Prijedor","",21214469,"2023-07-28T01:04:44",3,"NO ERROR",15.55,100,999.36,0.36,0.45,0.45],
    [1418,363171,"Vazduh","Libelium","0004A30B0021DF70",44.979,16.7091,"","","Prijedor","",21215306,"2023-07-28T02:05:26",3,"NO ERROR",14.86,100,999.03,0.11,0.11,0.11],
    [1419,363171,"Vazduh","Libelium","0004A30B0021DF70",44.979,16.7091,"","","Prijedor","",21216118,"2023-07-28T03:06:08",3,"NO ERROR",13.23,100,999.17,0.55,0.72,0.74],
    [1420,363171,"Vazduh","Libelium","0004A30B0021DF70",44.979,16.7091,"","","Prijedor","",21216934,"2023-07-28T04:06:49",3,"NO ERROR",13.64,100,998.77,0.2,0.27,0.27],
    [1421,363171,"Vazduh","Libelium","0004A30B0021DF70",44.979,16.7091,"","","Prijedor","",21217860,"2023-07-28T05:07:31",3,"NO ERROR",13.69,100,998.64,0.34,0.53,0.54],
    [1422,363171,"Vazduh","Libelium","0004A30B0021DF70",44.979,16.7091,"","","Prijedor","",21218388,"2023-07-28T06:08:12",3,"NO ERROR",13.47,100,998.93,0.2,0.36,0.38],
    [1423,363171,"Vazduh","Libelium","0004A30B0021DF70",44.979,16.7091,"","","Prijedor","",21218935,"2023-07-28T07:08:54",3,"NO ERROR",17.92,95.1,999.04,0.32,0.52,0.63],
    [1424,363171,"Vazduh","Libelium","0004A30B0021DF70",44.979,16.7091,"","","Prijedor","",21219466,"2023-07-28T08:09:36",3,"NO ERROR",20.45,76.9,999.03,0.06,0.07,0.07],
    [1425,363171,"Vazduh","Libelium","0004A30B0021DF70",44.979,16.7091,"","","Prijedor","",21219989,"2023-07-28T09:10:19",3,"NO ERROR",23.41,63.5,999,0.31,0.34,0.34],
    [1426,363171,"Vazduh","Libelium","0004A30B0021DF70",44.979,16.7091,"","","Prijedor","",21220476,"2023-07-28T10:11:01",3,"NO ERROR",26.15,56.4,998.88,0.17,0.17,0.17],
    [1427,363171,"Vazduh","Libelium","0004A30B0021DF70",44.979,16.7091,"","","Prijedor","",21220945,"2023-07-28T11:11:49",3,"NO ERROR",28.79,50.4,998.5,0.2,0.24,0.24],
    [1428,363171,"Vazduh","Libelium","0004A30B0021DF70",44.979,16.7091,"","","Prijedor","",21221440,"2023-07-28T12:12:31",3,"NO ERROR",28.1,53.5,998.09,0.14,0.34,0.7],
    [1429,363171,"Vazduh","Libelium","0004A30B0021DF70",44.979,16.7091,"","","Prijedor","",21222028,"2023-07-28T13:13:13",3,"NO ERROR",30.08,49.3,997.78,0.07,0.08,0.08],
    [1430,363171,"Vazduh","Libelium","0004A30B0021DF70",44.979,16.7091,"","","Prijedor","",21222552,"2023-07-28T14:13:55",3,"NO ERROR",31.35,48.8,997.12,0.19,0.24,0.24],
    [1431,363171,"Vazduh","Libelium","0004A30B0021DF70",44.979,16.7091,"","","Prijedor","",21223076,"2023-07-28T15:14:36",3,"NO ERROR",33.64,44.2,996.53,0.13,0.2,0.22],
    [1432,363171,"Vazduh","Libelium","0004A30B0021DF70",44.979,16.7091,"","","Prijedor","",21223591,"2023-07-28T16:15:18",3,"NO ERROR",33.69,42.5,996.35,0.29,0.52,0.66],
    [1433,363171,"Vazduh","Libelium","0004A30B0021DF70",44.979,16.7091,"","","Prijedor","",21224106,"2023-07-28T17:16:00",3,"NO ERROR",33.64,43.8,996.33,0.43,0.67,0.76],
    [1434,363171,"Vazduh","Libelium","0004A30B0021DF70",44.979,16.7091,"","","Prijedor","",21224613,"2023-07-28T18:16:41",3,"NO ERROR",30.32,47.8,996.08,0.22,0.38,0.46],
    [1435,363171,"Vazduh","Libelium","0004A30B0021DF70",44.979,16.7091,"","","Prijedor","",21225150,"2023-07-28T19:17:23",3,"NO ERROR",28.73,50.2,996.14,0.62,0.89,1.01],
    [1436,363171,"Vazduh","Libelium","0004A30B0021DF70",44.979,16.7091,"","","Prijedor","",21225739,"2023-07-28T20:18:06",3,"NO ERROR",26.29,59.3,996.41,0.47,0.56,0.56],
    [1437,363171,"Vazduh","Libelium","0004A30B0021DF70",44.979,16.7091,"","","Prijedor","",21227875,"2023-07-28T21:18:53",3,"NO ERROR",23.62,84.9,997.11,3.5,4.18,4.21],
    [1438,363171,"Vazduh","Libelium","0004A30B0021DF70",44.979,16.7091,"","","Prijedor","",21229800,"2023-07-28T22:19:41",3,"NO ERROR",21.53,97.7,997.54,0.51,0.66,0.66],
    [1439,363171,"Vazduh","Libelium","0004A30B0021DF70",44.979,16.7091,"","","Prijedor","",21231129,"2023-07-28T23:20:22",3,"NO ERROR",20.4,100,997.85,1.92,2.52,2.74],
    [1440,363171,"Vazduh","Libelium","0004A30B0021DF70",44.979,16.7091,"","","Prijedor","",21232501,"2023-07-29T00:21:10",3,"NO ERROR",19.14,100,998.6,0.27,0.51,0.87],
    [1441,363171,"Vazduh","Libelium","0004A30B0021DF70",44.979,16.7091,"","","Prijedor","",21233602,"2023-07-29T01:21:52",3,"NO ERROR",18.51,100,998.45,0.89,1.25,1.28],
    [1442,363171,"Vazduh","Libelium","0004A30B0021DF70",44.979,16.7091,"","","Prijedor","",21234604,"2023-07-29T02:22:34",3,"NO ERROR",18.16,100,998.27,0.59,0.84,0.94],
    [1443,363171,"Vazduh","Libelium","0004A30B0021DF70",44.979,16.7091,"","","Prijedor","",21235553,"2023-07-29T03:23:16",3,"NO ERROR",18.18,100,998.05,0.43,0.53,0.53],
    [1444,363171,"Vazduh","Libelium","0004A30B0021DF70",44.979,16.7091,"","","Prijedor","",21236565,"2023-07-29T04:23:58",3,"NO ERROR",17.88,100,997.93,0.32,0.54,0.65],
    [1445,363171,"Vazduh","Libelium","0004A30B0021DF70",44.979,16.7091,"","","Prijedor","",21237519,"2023-07-29T05:24:40",3,"NO ERROR",17.47,100,997.96,0.3,0.47,0.55],
    [1446,363171,"Vazduh","Libelium","0004A30B0021DF70",44.979,16.7091,"","","Prijedor","",21238169,"2023-07-29T06:25:21",3,"NO ERROR",17.15,100,998.28,0.59,0.9,0.93],
    [1447,363171,"Vazduh","Libelium","0004A30B0021DF70",44.979,16.7091,"","","Prijedor","",21238788,"2023-07-29T07:26:03",3,"NO ERROR",19.76,100,998.77,1.28,2.27,2.61],
    [1448,363171,"Vazduh","Libelium","0004A30B0021DF70",44.979,16.7091,"","","Prijedor","",21239386,"2023-07-29T08:26:44",3,"NO ERROR",26.27,71.5,998.98,0.15,0.18,0.18],
    [1449,363171,"Vazduh","Libelium","0004A30B0021DF70",44.979,16.7091,"","","Prijedor","",21239990,"2023-07-29T09:27:26",3,"NO ERROR",26.81,63,998.78,0.21,0.33,0.42],
    [1450,363171,"Vazduh","Libelium","0004A30B0021DF70",44.979,16.7091,"","","Prijedor","",21240556,"2023-07-29T10:28:07",3,"NO ERROR",30.22,53.6,998.42,0.63,0.87,0.92],
    [1451,363171,"Vazduh","Libelium","0004A30B0021DF70",44.979,16.7091,"","","Prijedor","",21241109,"2023-07-29T11:28:48",3,"NO ERROR",28.88,58.7,998.24,0.22,0.41,0.51],
    [1452,363171,"Vazduh","Libelium","0004A30B0021DF70",44.979,16.7091,"","","Prijedor","",21241703,"2023-07-29T12:29:29",3,"NO ERROR",29.81,57,997.95,0.55,0.69,0.69],
    [1453,363171,"Vazduh","Libelium","0004A30B0021DF70",44.979,16.7091,"","","Prijedor","",21242367,"2023-07-29T13:30:10",3,"NO ERROR",31.56,52.3,997.75,0.18,0.24,0.24],
    [1454,363171,"Vazduh","Libelium","0004A30B0021DF70",44.979,16.7091,"","","Prijedor","",21242979,"2023-07-29T14:30:52",3,"NO ERROR",33.45,48.5,997.22,0.17,0.2,0.2],
    [1455,363171,"Vazduh","Libelium","0004A30B0021DF70",44.979,16.7091,"","","Prijedor","",21243571,"2023-07-29T15:31:34",3,"NO ERROR",34.33,45.7,996.68,0.37,0.49,0.5],
    [1456,363171,"Vazduh","Libelium","0004A30B0021DF70",44.979,16.7091,"","","Prijedor","",21244163,"2023-07-29T16:32:16",3,"NO ERROR",35.44,43.1,996.03,0.19,0.25,0.25],
    [1457,363171,"Vazduh","Libelium","0004A30B0021DF70",44.979,16.7091,"","","Prijedor","",21244755,"2023-07-29T17:32:58",3,"NO ERROR",33.42,45.2,995.75,0.11,0.17,0.18],
    [1458,363171,"Vazduh","Libelium","0004A30B0021DF70",44.979,16.7091,"","","Prijedor","",21245315,"2023-07-29T18:33:40",3,"NO ERROR",30.62,53.3,995.71,0.44,0.58,0.58],
    [1459,363171,"Vazduh","Libelium","0004A30B0021DF70",44.979,16.7091,"","","Prijedor","",21245881,"2023-07-29T19:34:23",3,"NO ERROR",29.3,62.8,995.95,0.97,1.11,1.11],
    [1460,363171,"Vazduh","Libelium","0004A30B0021DF70",44.979,16.7091,"","","Prijedor","",21246497,"2023-07-29T20:35:05",3,"NO ERROR",27.72,71.8,996.24,0.59,0.84,0.95],
    [1461,363171,"Vazduh","Libelium","0004A30B0021DF70",44.979,16.7091,"","","Prijedor","",21248907,"2023-07-29T21:35:46",3,"NO ERROR",25.29,98.6,997.01,0.63,0.83,0.86],
    [1462,363171,"Vazduh","Libelium","0004A30B0021DF70",44.979,16.7091,"","","Prijedor","",21250743,"2023-07-29T22:36:28",3,"NO ERROR",23.52,100,997.19,0.91,1.05,1.05],
    [1463,363171,"Vazduh","Libelium","0004A30B0021DF70",44.979,16.7091,"","","Prijedor","",21252108,"2023-07-29T23:37:10",3,"NO ERROR",22.06,100,997.14,0.9,1.17,1.18],
    [1464,363171,"Vazduh","Libelium","0004A30B0021DF70",44.979,16.7091,"","","Prijedor","",21253478,"2023-07-30T00:37:52",3,"NO ERROR",20.92,100,997.28,0.75,0.95,0.97],
    [1465,363171,"Vazduh","Libelium","0004A30B0021DF70",44.979,16.7091,"","","Prijedor","",21254591,"2023-07-30T01:38:33",3,"NO ERROR",20.96,100,997.43,1.51,1.99,2.44],
    [1466,363171,"Vazduh","Libelium","0004A30B0021DF70",44.979,16.7091,"","","Prijedor","",21255623,"2023-07-30T02:39:15",3,"NO ERROR",19.95,100,997.31,0.68,0.92,0.94],
    [1467,363171,"Vazduh","Libelium","0004A30B0021DF70",44.979,16.7091,"","","Prijedor","",21256586,"2023-07-30T03:39:57",3,"NO ERROR",19.13,100,997.35,0.48,0.57,0.57],
    [1468,363171,"Vazduh","Libelium","0004A30B0021DF70",44.979,16.7091,"","","Prijedor","",21257580,"2023-07-30T04:40:39",3,"NO ERROR",18.93,100,997.54,2.61,6.89,175.33],
    [1469,363171,"Vazduh","Libelium","0004A30B0021DF70",44.979,16.7091,"","","Prijedor","",21258461,"2023-07-30T05:41:21",3,"NO ERROR",18.89,100,997.32,3.17,4.92,91.99],
    [1470,363171,"Vazduh","Libelium","0004A30B0021DF70",44.979,16.7091,"","","Prijedor","",21259136,"2023-07-30T06:42:03",3,"NO ERROR",18.99,100,996.91,0.88,1.65,7.39],
    [1471,363171,"Vazduh","Libelium","0004A30B0021DF70",44.979,16.7091,"","","Prijedor","",21259793,"2023-07-30T07:42:51",3,"NO ERROR",22.09,100,997.47,0.29,0.48,0.49],
    [1472,363171,"Vazduh","Libelium","0004A30B0021DF70",44.979,16.7091,"","","Prijedor","",21260405,"2023-07-30T08:43:32",3,"NO ERROR",22.06,100,997.52,0.41,0.71,1.06],
    [1473,363171,"Vazduh","Libelium","0004A30B0021DF70",44.979,16.7091,"","","Prijedor","",21261000,"2023-07-30T09:44:14",3,"NO ERROR",20.62,100,998.67,1.33,1.55,1.56],
    [1474,363171,"Vazduh","Libelium","0004A30B0021DF70",44.979,16.7091,"","","Prijedor","",21261557,"2023-07-30T10:44:56",3,"NO ERROR",20.9,100,998.64,1.54,1.92,1.95],
    [1475,363171,"Vazduh","Libelium","0004A30B0021DF70",44.979,16.7091,"","","Prijedor","",21262133,"2023-07-30T11:45:38",3,"NO ERROR",22.29,100,998.16,0.16,0.18,0.18],
    [1476,363171,"Vazduh","Libelium","0004A30B0021DF70",44.979,16.7091,"","","Prijedor","",21262749,"2023-07-30T12:46:20",3,"NO ERROR",23.7,100,998.29,0.03,0.03,0.03],
    [1477,363171,"Vazduh","Libelium","0004A30B0021DF70",44.979,16.7091,"","","Prijedor","",21263366,"2023-07-30T13:47:02",3,"NO ERROR",25.11,100,997.95,0.06,0.06,0.06],
    [1478,363171,"Vazduh","Libelium","0004A30B0021DF70",44.979,16.7091,"","","Prijedor","",21263959,"2023-07-30T14:47:44",3,"NO ERROR",26.01,89.5,997.69,0.12,0.12,0.12],
    [1479,363171,"Vazduh","Libelium","0004A30B0021DF70",44.979,16.7091,"","","Prijedor","",21264591,"2023-07-30T15:48:25",3,"NO ERROR",27.1,80.9,997.51,0.12,0.13,0.13],
    [1480,363171,"Vazduh","Libelium","0004A30B0021DF70",44.979,16.7091,"","","Prijedor","",21265232,"2023-07-30T16:49:07",3,"NO ERROR",29.76,69.9,997.23,0.09,0.13,0.14],
    [1481,363171,"Vazduh","Libelium","0004A30B0021DF70",44.979,16.7091,"","","Prijedor","",21265824,"2023-07-30T17:49:48",3,"NO ERROR",26.72,77.3,996.7,0.05,0.05,0.05],
    [1482,363171,"Vazduh","Libelium","0004A30B0021DF70",44.979,16.7091,"","","Prijedor","",21266388,"2023-07-30T18:50:29",3,"NO ERROR",26.19,80.7,996.89,0.05,0.05,0.05],
    [1483,363171,"Vazduh","Libelium","0004A30B0021DF70",44.979,16.7091,"","","Prijedor","",21266973,"2023-07-30T19:51:11",3,"NO ERROR",24.63,90.9,997.54,0.28,0.31,0.31],
    [1484,363171,"Vazduh","Libelium","0004A30B0021DF70",44.979,16.7091,"","","Prijedor","",21268224,"2023-07-30T20:51:52",3,"NO ERROR",23.1,100,998.56,0.18,0.31,0.4],
    [1485,363171,"Vazduh","Libelium","0004A30B0021DF70",44.979,16.7091,"","","Prijedor","",21270530,"2023-07-30T21:52:34",3,"NO ERROR",22.62,100,999.27,0.42,0.5,0.5],
    [1486,363171,"Vazduh","Libelium","0004A30B0021DF70",44.979,16.7091,"","","Prijedor","",21272281,"2023-07-30T22:53:17",3,"NO ERROR",21.05,100,999.22,0.31,0.39,0.39],
    [1487,363171,"Vazduh","Libelium","0004A30B0021DF70",44.979,16.7091,"","","Prijedor","",21273719,"2023-07-30T23:54:05",3,"NO ERROR",20.72,100,999.23,0.65,0.84,0.87],
    [1488,363171,"Vazduh","Libelium","0004A30B0021DF70",44.979,16.7091,"","","Prijedor","",21275189,"2023-07-31T00:54:47",3,"NO ERROR",19.6,100,999.62,0.09,0.15,0.17],
    [1489,363171,"Vazduh","Libelium","0004A30B0021DF70",44.979,16.7091,"","","Prijedor","",21276258,"2023-07-31T01:55:28",3,"NO ERROR",19.08,100,999.78,0.48,0.6,0.61],
    [1490,363171,"Vazduh","Libelium","0004A30B0021DF70",44.979,16.7091,"","","Prijedor","",21277247,"2023-07-31T02:56:09",3,"NO ERROR",18.75,100,999.83,0.47,0.57,0.58],
    [1491,363171,"Vazduh","Libelium","0004A30B0021DF70",44.979,16.7091,"","","Prijedor","",21278195,"2023-07-31T03:56:50",3,"NO ERROR",19.05,100,999.9,2.02,4.61,73.7],
    [1492,363171,"Vazduh","Libelium","0004A30B0021DF70",44.979,16.7091,"","","Prijedor","",21279191,"2023-07-31T04:57:32",3,"NO ERROR",18.6,100,1000.39,2.72,7.33,171.44],
    [1493,363171,"Vazduh","Libelium","0004A30B0021DF70",44.979,16.7091,"","","Prijedor","",21279881,"2023-07-31T05:58:14",3,"NO ERROR",18.6,100,1000.57,1.19,2.34,17.19],
    [1494,363171,"Vazduh","Libelium","0004A30B0021DF70",44.979,16.7091,"","","Prijedor","",21280484,"2023-07-31T06:58:56",3,"NO ERROR",19.35,100,1000.89,0.36,0.55,0.72],
    [1495,363171,"Vazduh","Libelium","0004A30B0021DF70",44.979,16.7091,"","","Prijedor","",21281026,"2023-07-31T07:59:38",3,"NO ERROR",19.73,100,1001.17,0.53,0.65,0.66],
    [1496,363171,"Vazduh","Libelium","0004A30B0021DF70",44.979,16.7091,"","","Prijedor","",21281543,"2023-07-31T09:00:20",3,"NO ERROR",21.8,100,1001.12,0.28,0.33,0.33],
    [1497,363171,"Vazduh","Libelium","0004A30B0021DF70",44.979,16.7091,"","","Prijedor","",21282041,"2023-07-31T10:01:02",3,"NO ERROR",26.2,84.3,1001.07,0.33,0.43,0.43],
    [1498,363171,"Vazduh","Libelium","0004A30B0021DF70",44.979,16.7091,"","","Prijedor","",21282527,"2023-07-31T11:01:44",3,"NO ERROR",27.38,70.4,1000.86,0.17,0.22,0.22],
    [1499,363171,"Vazduh","Libelium","0004A30B0021DF70",44.979,16.7091,"","","Prijedor","",21283009,"2023-07-31T12:02:27",3,"NO ERROR",26.51,67,1000.5,0.02,0.05,0.05],
    [1500,363171,"Vazduh","Libelium","0004A30B0021DF70",44.979,16.7091,"","","Prijedor","",21283557,"2023-07-31T13:03:09",3,"NO ERROR",28.71,59.5,999.99,0.13,0.14,0.14],
    [1501,363171,"Vazduh","Libelium","0004A30B0021DF70",44.979,16.7091,"","","Prijedor","",21284058,"2023-07-31T14:03:51",3,"NO ERROR",28.88,51.6,999.28,0.05,0.05,0.05],
    [1502,363171,"Vazduh","Libelium","0004A30B0021DF70",44.979,16.7091,"","","Prijedor","",21284591,"2023-07-31T15:04:33",3,"NO ERROR",29.39,49.7,998.67,0.06,0.06,0.06],
    [1503,363171,"Vazduh","Libelium","0004A30B0021DF70",44.979,16.7091,"","","Prijedor","",21285086,"2023-07-31T16:05:15",3,"NO ERROR",31.17,46.8,998.24,0.31,0.42,0.42],
    [1504,363171,"Vazduh","Libelium","0004A30B0021DF70",44.979,16.7091,"","","Prijedor","",21285589,"2023-07-31T17:06:03",3,"NO ERROR",31.45,42.3,997.53,0.14,0.17,0.17],
    [1505,363171,"Vazduh","Libelium","0004A30B0021DF70",44.979,16.7091,"","","Prijedor","",21286071,"2023-07-31T18:06:44",3,"NO ERROR",28.04,51.5,997.01,0.2,0.22,0.22],
    [1506,363171,"Vazduh","Libelium","0004A30B0021DF70",44.979,16.7091,"","","Prijedor","",21286531,"2023-07-31T19:07:26",3,"NO ERROR",26.93,56.7,996.8,0.1,0.16,0.21],
    [1507,363171,"Vazduh","Libelium","0004A30B0021DF70",44.979,16.7091,"","","Prijedor","",21287031,"2023-07-31T20:08:07",3,"NO ERROR",25.32,68.1,996.84,0.1,0.17,0.22],
    [1508,363171,"Vazduh","Libelium","0004A30B0021DF70",44.979,16.7091,"","","Prijedor","",21288685,"2023-07-31T21:08:49",3,"NO ERROR",22.96,89.3,997.28,0.49,0.73,1.15],
    [1509,363171,"Vazduh","Libelium","0004A30B0021DF70",44.979,16.7091,"","","Prijedor","",21290584,"2023-07-31T22:09:38",3,"NO ERROR",21.22,100,997.06,1.01,1.5,1.66],
    [1510,363171,"Vazduh","Libelium","0004A30B0021DF70",44.979,16.7091,"","","Prijedor","",21292070,"2023-07-31T23:10:20",3,"NO ERROR",19.53,100,996.85,0.52,0.64,0.64],
    [1511,363171,"Vazduh","Libelium","0004A30B0021DF70",44.979,16.7091,"","","Prijedor","",21293474,"2023-08-01T00:11:02",3,"NO ERROR",18.86,100,996.47,0.81,1.17,1.2],
    [1512,363171,"Vazduh","Libelium","0004A30B0021DF70",44.979,16.7091,"","","Prijedor","",21294693,"2023-08-01T01:11:43",3,"NO ERROR",17.75,100,996.21,0.63,0.91,0.95],
    [1513,363171,"Vazduh","Libelium","0004A30B0021DF70",44.979,16.7091,"","","Prijedor","",21295716,"2023-08-01T02:12:25",3,"NO ERROR",17.26,100,995.75,0.45,0.63,1.01],
    [1514,363171,"Vazduh","Libelium","0004A30B0021DF70",44.979,16.7091,"","","Prijedor","",21296618,"2023-08-01T03:13:07",3,"NO ERROR",16.74,100,995.41,0.19,0.25,0.25],
    [1515,363171,"Vazduh","Libelium","0004A30B0021DF70",44.979,16.7091,"","","Prijedor","",21297585,"2023-08-01T04:13:49",3,"NO ERROR",15.88,100,994.67,0.81,1.2,1.41],
    [1516,363171,"Vazduh","Libelium","0004A30B0021DF70",44.979,16.7091,"","","Prijedor","",21298674,"2023-08-01T05:14:31",3,"NO ERROR",16.14,100,994.38,2.21,3.56,42.93],
    [1517,363171,"Vazduh","Libelium","0004A30B0021DF70",44.979,16.7091,"","","Prijedor","",21299306,"2023-08-01T06:15:12",3,"NO ERROR",16.53,100,993.92,0.45,0.65,0.68],
    [1518,363171,"Vazduh","Libelium","0004A30B0021DF70",44.979,16.7091,"","","Prijedor","",21299945,"2023-08-01T07:15:54",3,"NO ERROR",19.53,100,993.71,0.25,0.31,0.32],
    [1519,363171,"Vazduh","Libelium","0004A30B0021DF70",44.979,16.7091,"","","Prijedor","",21300491,"2023-08-01T08:16:36",3,"NO ERROR",23.86,82.5,993.47,0.23,0.4,0.5],
    [1520,363171,"Vazduh","Libelium","0004A30B0021DF70",44.979,16.7091,"","","Prijedor","",21301093,"2023-08-01T09:17:18",3,"NO ERROR",28.32,63.4,993.05,0.13,0.28,0.32],
    [1521,363171,"Vazduh","Libelium","0004A30B0021DF70",44.979,16.7091,"","","Prijedor","",21301664,"2023-08-01T10:17:59",3,"NO ERROR",25.7,68.5,992.59,0.11,0.19,0.22],
    [1522,363171,"Vazduh","Libelium","0004A30B0021DF70",44.979,16.7091,"","","Prijedor","",21302157,"2023-08-01T11:18:41",3,"NO ERROR",28.75,54.8,991.82,0.2,0.26,0.27],
    [1523,363171,"Vazduh","Libelium","0004A30B0021DF70",44.979,16.7091,"","","Prijedor","",21302717,"2023-08-01T12:19:24",3,"NO ERROR",30.7,52.4,991.06,0.35,0.42,0.42],
    [1524,363171,"Vazduh","Libelium","0004A30B0021DF70",44.979,16.7091,"","","Prijedor","",21303374,"2023-08-01T13:20:06",3,"NO ERROR",32.34,51.3,990.29,0.28,0.37,0.38],
    [1525,363171,"Vazduh","Libelium","0004A30B0021DF70",44.979,16.7091,"","","Prijedor","",21303958,"2023-08-01T14:20:54",3,"NO ERROR",34.14,42.5,989.48,0.2,0.24,0.24],
    [1526,363171,"Vazduh","Libelium","0004A30B0021DF70",44.979,16.7091,"","","Prijedor","",21304539,"2023-08-01T15:21:36",3,"NO ERROR",32.92,45.4,988.64,0.13,0.19,0.2],
    [1527,363171,"Vazduh","Libelium","0004A30B0021DF70",44.979,16.7091,"","","Prijedor","",21305091,"2023-08-01T16:22:18",3,"NO ERROR",32.93,48.5,988.09,0.05,0.13,0.19],
    [1528,363171,"Vazduh","Libelium","0004A30B0021DF70",44.979,16.7091,"","","Prijedor","",21305639,"2023-08-01T17:23:00",3,"NO ERROR",35.84,44,987.75,0.16,0.28,0.35],
    [1529,363171,"Vazduh","Libelium","0004A30B0021DF70",44.979,16.7091,"","","Prijedor","",21306181,"2023-08-01T18:23:42",3,"NO ERROR",31.21,50.2,987.98,0.04,0.16,0.47],
    [1530,363171,"Vazduh","Libelium","0004A30B0021DF70",44.979,16.7091,"","","Prijedor","",21306694,"2023-08-01T19:24:30",3,"NO ERROR",28.9,55.1,988.36,0.15,0.19,0.19],
    [1531,363171,"Vazduh","Libelium","0004A30B0021DF70",44.979,16.7091,"","","Prijedor","",21307245,"2023-08-01T20:25:12",3,"NO ERROR",26.22,72.2,989.95,0.53,0.71,0.82],
    [1532,363171,"Vazduh","Libelium","0004A30B0021DF70",44.979,16.7091,"","","Prijedor","",21309546,"2023-08-01T21:25:54",3,"NO ERROR",20.07,81,991.8,0.08,0.21,0.3],
    [1533,363171,"Vazduh","Libelium","0004A30B0021DF70",44.979,16.7091,"","","Prijedor","",21311351,"2023-08-01T22:26:37",3,"NO ERROR",20.36,73.1,992.91,0.14,0.15,0.15],
    [1534,363171,"Vazduh","Libelium","0004A30B0021DF70",44.979,16.7091,"","","Prijedor","",21312666,"2023-08-01T23:27:19",3,"NO ERROR",18.69,98.8,995.35,0.23,0.34,0.34],
    [1535,363171,"Vazduh","Libelium","0004A30B0021DF70",44.979,16.7091,"","","Prijedor","",21313953,"2023-08-02T00:28:01",3,"NO ERROR",18.35,100,995.78,0.06,0.08,0.09],
    [1536,363171,"Vazduh","Libelium","0004A30B0021DF70",44.979,16.7091,"","","Prijedor","",21314982,"2023-08-02T01:28:42",3,"NO ERROR",17.85,100,996,0.12,0.14,0.14],
    [1537,363171,"Vazduh","Libelium","0004A30B0021DF70",44.979,16.7091,"","","Prijedor","",21315903,"2023-08-02T02:29:24",3,"NO ERROR",17.95,100,995.62,0.03,0.03,0.03],
    [1538,363171,"Vazduh","Libelium","0004A30B0021DF70",44.979,16.7091,"","","Prijedor","",21316778,"2023-08-02T03:30:06",3,"NO ERROR",18.17,100,994.86,0.34,0.43,0.43],
    [1539,363171,"Vazduh","Libelium","0004A30B0021DF70",44.979,16.7091,"","","Prijedor","",21317728,"2023-08-02T04:30:54",3,"NO ERROR",18.52,100,994.72,0.05,0.05,0.05],
    [1540,363171,"Vazduh","Libelium","0004A30B0021DF70",44.979,16.7091,"","","Prijedor","",21318652,"2023-08-02T05:31:36",3,"NO ERROR",18.04,100,994.75,0.08,0.13,0.13],
    [1541,363171,"Vazduh","Libelium","0004A30B0021DF70",44.979,16.7091,"","","Prijedor","",21319265,"2023-08-02T06:32:18",3,"NO ERROR",17.49,100,994.5,0.21,0.31,0.32],
    [1542,363171,"Vazduh","Libelium","0004A30B0021DF70",44.979,16.7091,"","","Prijedor","",21319876,"2023-08-02T07:33:00",3,"NO ERROR",22.78,77.1,994.57,0.33,0.58,0.62],
    [1543,363171,"Vazduh","Libelium","0004A30B0021DF70",44.979,16.7091,"","","Prijedor","",21320399,"2023-08-02T08:33:42",3,"NO ERROR",24.76,70.9,994.89,0.16,0.26,0.26],
    [1544,363171,"Vazduh","Libelium","0004A30B0021DF70",44.979,16.7091,"","","Prijedor","",21320895,"2023-08-02T09:34:26",3,"NO ERROR",26.1,60.9,994.69,0.13,0.14,0.14],
    [1545,363171,"Vazduh","Libelium","0004A30B0021DF70",44.979,16.7091,"","","Prijedor","",21321369,"2023-08-02T10:35:08",3,"NO ERROR",27.34,58.7,994.71,0.17,0.25,0.32],
    [1546,363171,"Vazduh","Libelium","0004A30B0021DF70",44.979,16.7091,"","","Prijedor","",21321862,"2023-08-02T11:35:50",3,"NO ERROR",26.62,58.8,994.34,0.03,0.06,0.06],
    [1547,363171,"Vazduh","Libelium","0004A30B0021DF70",44.979,16.7091,"","","Prijedor","",21322387,"2023-08-02T12:36:33",3,"NO ERROR",26.8,57.9,993.75,0.08,0.1,0.1],
    [1548,363171,"Vazduh","Libelium","0004A30B0021DF70",44.979,16.7091,"","","Prijedor","",21322974,"2023-08-02T13:37:15",3,"NO ERROR",27.79,59.8,992.95,0.02,0.02,0.02],
    [1549,363171,"Vazduh","Libelium","0004A30B0021DF70",44.979,16.7091,"","","Prijedor","",21323512,"2023-08-02T14:37:57",3,"NO ERROR",30.7,51.8,992.26,0.11,0.12,0.12],
    [1550,363171,"Vazduh","Libelium","0004A30B0021DF70",44.979,16.7091,"","","Prijedor","",21324050,"2023-08-02T15:38:38",3,"NO ERROR",32.78,47.2,991.5,0.15,0.17,0.17],
    [1551,363171,"Vazduh","Libelium","0004A30B0021DF70",44.979,16.7091,"","","Prijedor","",21324548,"2023-08-02T16:39:20",3,"NO ERROR",33.73,45.7,991.49,0.09,0.14,0.15],
    [1552,363171,"Vazduh","Libelium","0004A30B0021DF70",44.979,16.7091,"","","Prijedor","",21325056,"2023-08-02T17:40:02",3,"NO ERROR",30.88,51.2,991.33,0.09,0.26,0.37],
    [1553,363171,"Vazduh","Libelium","0004A30B0021DF70",44.979,16.7091,"","","Prijedor","",21325540,"2023-08-02T18:40:44",3,"NO ERROR",28.65,60.1,991.2,0.11,0.2,0.27],
    [1554,363171,"Vazduh","Libelium","0004A30B0021DF70",44.979,16.7091,"","","Prijedor","",21326006,"2023-08-02T19:41:26",3,"NO ERROR",27.41,66.4,991,0.11,0.27,0.36],
    [1555,363171,"Vazduh","Libelium","0004A30B0021DF70",44.979,16.7091,"","","Prijedor","",21326940,"2023-08-02T20:42:08",3,"NO ERROR",25.66,78.3,991.41,0.26,0.31,0.31],
    [1556,363171,"Vazduh","Libelium","0004A30B0021DF70",44.979,16.7091,"","","Prijedor","",21329276,"2023-08-02T21:42:50",3,"NO ERROR",24.51,86.5,991.82,0.79,1.13,1.25],
    [1557,363171,"Vazduh","Libelium","0004A30B0021DF70",44.979,16.7091,"","","Prijedor","",21331000,"2023-08-02T22:43:32",3,"NO ERROR",23.24,100,991.91,1.01,1.38,1.51],
    [1558,363171,"Vazduh","Libelium","0004A30B0021DF70",44.979,16.7091,"","","Prijedor","",21332382,"2023-08-02T23:44:15",3,"NO ERROR",21.7,100,992.22,0.95,1.2,1.23],
    [1559,363171,"Vazduh","Libelium","0004A30B0021DF70",44.979,16.7091,"","","Prijedor","",21333904,"2023-08-03T00:44:56",3,"NO ERROR",21.3,100,992.08,0.17,0.3,0.36],
    [1560,363171,"Vazduh","Libelium","0004A30B0021DF70",44.979,16.7091,"","","Prijedor","",21334951,"2023-08-03T01:45:38",3,"NO ERROR",20.01,100,992.24,0.67,0.86,0.87],
    [1561,363171,"Vazduh","Libelium","0004A30B0021DF70",44.979,16.7091,"","","Prijedor","",21335845,"2023-08-03T02:46:20",3,"NO ERROR",20.04,100,991.92,0.48,0.63,0.64],
    [1562,363171,"Vazduh","Libelium","0004A30B0021DF70",44.979,16.7091,"","","Prijedor","",21336685,"2023-08-03T03:47:01",3,"NO ERROR",19.75,100,991.45,0.2,0.24,0.24],
    [1563,363171,"Vazduh","Libelium","0004A30B0021DF70",44.979,16.7091,"","","Prijedor","",21337592,"2023-08-03T04:47:43",3,"NO ERROR",18.48,100,991.55,0.31,0.46,0.48],
    [1564,363171,"Vazduh","Libelium","0004A30B0021DF70",44.979,16.7091,"","","Prijedor","",21338337,"2023-08-03T05:48:24",3,"NO ERROR",18.62,100,991.68,0.63,1.03,1.19],
    [1565,363171,"Vazduh","Libelium","0004A30B0021DF70",44.979,16.7091,"","","Prijedor","",21338878,"2023-08-03T06:49:06",3,"NO ERROR",21.39,100,991.91,0.59,0.93,1.11],
    [1566,363171,"Vazduh","Libelium","0004A30B0021DF70",44.979,16.7091,"","","Prijedor","",21339351,"2023-08-03T07:49:48",3,"NO ERROR",27.03,74,992.2,0.47,0.62,0.62],
    [1567,363171,"Vazduh","Libelium","0004A30B0021DF70",44.979,16.7091,"","","Prijedor","",21339848,"2023-08-03T08:50:29",3,"NO ERROR",30.63,57.6,992.32,0.5,0.87,1.05],
    [1568,363171,"Vazduh","Libelium","0004A30B0021DF70",44.979,16.7091,"","","Prijedor","",21340323,"2023-08-03T09:51:11",3,"NO ERROR",33.2,50.2,992.16,0.47,0.64,0.65],
    [1569,363171,"Vazduh","Libelium","0004A30B0021DF70",44.979,16.7091,"","","Prijedor","",21340812,"2023-08-03T10:51:53",3,"NO ERROR",33.81,48.5,992.35,0.57,0.79,0.8],
    [1570,363171,"Vazduh","Libelium","0004A30B0021DF70",44.979,16.7091,"","","Prijedor","",21341301,"2023-08-03T11:52:36",3,"NO ERROR",33.95,48.6,992.46,0.44,0.62,0.64],
    [1571,363171,"Vazduh","Libelium","0004A30B0021DF70",44.979,16.7091,"","","Prijedor","",21341849,"2023-08-03T12:53:18",3,"NO ERROR",34.86,45.4,992.58,0.21,0.29,0.3],
    [1572,363171,"Vazduh","Libelium","0004A30B0021DF70",44.979,16.7091,"","","Prijedor","",21342411,"2023-08-03T13:54:00",3,"NO ERROR",34.2,46.3,992.12,0.45,0.53,0.53],
    [1573,363171,"Vazduh","Libelium","0004A30B0021DF70",44.979,16.7091,"","","Prijedor","",21342935,"2023-08-03T14:54:41",3,"NO ERROR",36.15,42.7,991.8,0.56,0.83,0.86],
    [1574,363171,"Vazduh","Libelium","0004A30B0021DF70",44.979,16.7091,"","","Prijedor","",21343444,"2023-08-03T15:55:23",3,"NO ERROR",38.82,39,991.53,0.29,0.37,0.37],
    [1575,363171,"Vazduh","Libelium","0004A30B0021DF70",44.979,16.7091,"","","Prijedor","",21343953,"2023-08-03T16:56:04",3,"NO ERROR",38.94,40.1,991.3,0.47,0.59,0.59],
    [1576,363171,"Vazduh","Libelium","0004A30B0021DF70",44.979,16.7091,"","","Prijedor","",21344440,"2023-08-03T17:56:46",3,"NO ERROR",34.63,44.7,991.35,0.42,0.64,0.98],
    [1577,363171,"Vazduh","Libelium","0004A30B0021DF70",44.979,16.7091,"","","Prijedor","",21344898,"2023-08-03T18:57:28",3,"NO ERROR",33.02,48.7,991.34,0.46,0.72,0.75],
    [1578,363171,"Vazduh","Libelium","0004A30B0021DF70",44.979,16.7091,"","","Prijedor","",21345374,"2023-08-03T19:58:10",3,"NO ERROR",30.33,54.6,991.5,0.51,0.69,0.71],
    [1579,363171,"Vazduh","Libelium","0004A30B0021DF70",44.979,16.7091,"","","Prijedor","",21346950,"2023-08-03T20:58:52",3,"NO ERROR",28.33,67.6,992.28,1.12,1.5,1.51],
    [1580,363171,"Vazduh","Libelium","0004A30B0021DF70",44.979,16.7091,"","","Prijedor","",21349104,"2023-08-03T21:59:35",3,"NO ERROR",27.15,75.2,992.67,1.36,1.87,1.99],
    [1581,363171,"Vazduh","Libelium","0004A30B0021DF70",44.979,16.7091,"","","Prijedor","",21350645,"2023-08-03T23:00:17",3,"NO ERROR",25.63,86.8,992.96,1.21,1.88,2.14],
    [1582,363171,"Vazduh","Libelium","0004A30B0021DF70",44.979,16.7091,"","","Prijedor","",21352001,"2023-08-04T00:00:59",3,"NO ERROR",24.09,100,993.12,0.78,1.07,1.18],
    [1583,363171,"Vazduh","Libelium","0004A30B0021DF70",44.979,16.7091,"","","Prijedor","",21353226,"2023-08-04T01:01:41",3,"NO ERROR",23.29,100,992.95,0.55,0.64,0.64],
    [1584,363171,"Vazduh","Libelium","0004A30B0021DF70",44.979,16.7091,"","","Prijedor","",21354190,"2023-08-04T02:02:23",3,"NO ERROR",22.52,100,992.83,0.18,0.19,0.19],
    [1585,363171,"Vazduh","Libelium","0004A30B0021DF70",44.979,16.7091,"","","Prijedor","",21355090,"2023-08-04T03:03:04",3,"NO ERROR",21.69,100,992.63,0.69,0.98,1.08],
    [1586,363171,"Vazduh","Libelium","0004A30B0021DF70",44.979,16.7091,"","","Prijedor","",21355965,"2023-08-04T04:03:46",3,"NO ERROR",21.23,100,993.42,0.5,0.66,0.67],
    [1587,363171,"Vazduh","Libelium","0004A30B0021DF70",44.979,16.7091,"","","Prijedor","",21356875,"2023-08-04T05:04:34",3,"NO ERROR",19.56,100,993.98,0.15,0.2,0.22],
    [1588,363171,"Vazduh","Libelium","0004A30B0021DF70",44.979,16.7091,"","","Prijedor","",21357513,"2023-08-04T06:05:22",3,"NO ERROR",18.93,100,993.99,0.28,0.43,0.45],
    [1589,363171,"Vazduh","Libelium","0004A30B0021DF70",44.979,16.7091,"","","Prijedor","",21358062,"2023-08-04T07:06:04",3,"NO ERROR",22.25,89.8,994.42,0.38,0.58,0.69],
    [1590,363171,"Vazduh","Libelium","0004A30B0021DF70",44.979,16.7091,"","","Prijedor","",21358592,"2023-08-04T08:06:45",3,"NO ERROR",25.32,71.7,994.63,0.24,0.3,0.3],
    [1591,363171,"Vazduh","Libelium","0004A30B0021DF70",44.979,16.7091,"","","Prijedor","",21359178,"2023-08-04T09:07:27",3,"NO ERROR",27.47,67.9,994.91,0.27,0.42,0.76],
    [1592,363171,"Vazduh","Libelium","0004A30B0021DF70",44.979,16.7091,"","","Prijedor","",21359747,"2023-08-04T10:08:16",3,"NO ERROR",27.08,66.7,994.58,0.34,0.47,0.48],
    [1593,363171,"Vazduh","Libelium","0004A30B0021DF70",44.979,16.7091,"","","Prijedor","",21360303,"2023-08-04T11:08:57",3,"NO ERROR",28.31,65.6,994.17,0.31,0.33,0.33],
    [1594,363171,"Vazduh","Libelium","0004A30B0021DF70",44.979,16.7091,"","","Prijedor","",21360866,"2023-08-04T12:09:39",3,"NO ERROR",27.05,74.6,994.09,0.21,0.33,0.64],
    [1595,363171,"Vazduh","Libelium","0004A30B0021DF70",44.979,16.7091,"","","Prijedor","",21361514,"2023-08-04T13:10:21",3,"NO ERROR",27.42,74.1,993.97,0.15,0.28,1.43],
    [1596,363171,"Vazduh","Libelium","0004A30B0021DF70",44.979,16.7091,"","","Prijedor","",21362075,"2023-08-04T14:11:03",3,"NO ERROR",28.16,72.5,994.32,0.46,0.62,0.63],
    [1597,363171,"Vazduh","Libelium","0004A30B0021DF70",44.979,16.7091,"","","Prijedor","",21362662,"2023-08-04T15:11:45",3,"NO ERROR",27.11,72.1,994.9,0.49,0.63,0.64],
    [1598,363171,"Vazduh","Libelium","0004A30B0021DF70",44.979,16.7091,"","","Prijedor","",21363225,"2023-08-04T16:12:27",3,"NO ERROR",23.27,88.2,995.27,0.18,0.21,0.21],
    [1599,363171,"Vazduh","Libelium","0004A30B0021DF70",44.979,16.7091,"","","Prijedor","",21363803,"2023-08-04T17:13:09",3,"NO ERROR",22.19,100,994.37,0.48,0.64,0.66],
    [1600,363171,"Vazduh","Libelium","0004A30B0021DF70",44.979,16.7091,"","","Prijedor","",21364346,"2023-08-04T18:13:51",3,"NO ERROR",23.05,98.7,994,0.62,0.87,1.2],
    [1601,363171,"Vazduh","Libelium","0004A30B0021DF70",44.979,16.7091,"","","Prijedor","",21364850,"2023-08-04T19:14:33",3,"NO ERROR",22.19,100,993.98,0.15,0.24,0.25],
    [1602,363171,"Vazduh","Libelium","0004A30B0021DF70",44.979,16.7091,"","","Prijedor","",21365372,"2023-08-04T20:15:15",3,"NO ERROR",21.36,100,994.28,0.41,0.59,0.62],
    [1603,363171,"Vazduh","Libelium","0004A30B0021DF70",44.979,16.7091,"","","Prijedor","",21367143,"2023-08-04T21:15:57",3,"NO ERROR",20.24,100,994.85,0.46,0.7,0.8],
    [1604,363171,"Vazduh","Libelium","0004A30B0021DF70",44.979,16.7091,"","","Prijedor","",21368312,"2023-08-04T22:16:39",3,"NO ERROR",18.99,100,994.46,0.03,0.03,0.03],
    [1605,363171,"Vazduh","Libelium","0004A30B0021DF70",44.979,16.7091,"","","Prijedor","",21369344,"2023-08-04T23:17:21",3,"NO ERROR",18.84,100,993.76,0.13,0.17,0.17],
    [1606,363171,"Vazduh","Libelium","0004A30B0021DF70",44.979,16.7091,"","","Prijedor","",21370536,"2023-08-05T00:18:04",3,"NO ERROR",18.86,100,992.85,0.07,0.13,0.13],
    [1607,363171,"Vazduh","Libelium","0004A30B0021DF70",44.979,16.7091,"","","Prijedor","",21371566,"2023-08-05T01:18:46",3,"NO ERROR",18.9,100,992.64,0.27,0.37,0.39],
    [1608,363171,"Vazduh","Libelium","0004A30B0021DF70",44.979,16.7091,"","","Prijedor","",21372487,"2023-08-05T02:19:28",3,"NO ERROR",18.28,100,992.26,0.14,0.21,0.22],
    [1609,363171,"Vazduh","Libelium","0004A30B0021DF70",44.979,16.7091,"","","Prijedor","",21373352,"2023-08-05T03:20:09",3,"NO ERROR",17.73,100,991.28,1.43,4.41,13.11],
    [1610,363171,"Vazduh","Libelium","0004A30B0021DF70",44.979,16.7091,"","","Prijedor","",21374273,"2023-08-05T04:20:50",3,"NO ERROR",17.52,100,989.15,0.17,0.31,0.43],
    [1611,363171,"Vazduh","Libelium","0004A30B0021DF70",44.979,16.7091,"","","Prijedor","",21375239,"2023-08-05T05:21:32",3,"NO ERROR",17.88,100,990.43,0,0,0],
    [1612,363171,"Vazduh","Libelium","0004A30B0021DF70",44.979,16.7091,"","","Prijedor","",21375794,"2023-08-05T06:22:14",3,"NO ERROR",18.16,100,989.11,0.15,0.22,0.22],
    [1613,363171,"Vazduh","Libelium","0004A30B0021DF70",44.979,16.7091,"","","Prijedor","",21376339,"2023-08-05T07:22:56",3,"NO ERROR",18.56,100,990.39,0.14,0.16,0.16],
    [1614,363171,"Vazduh","Libelium","0004A30B0021DF70",44.979,16.7091,"","","Prijedor","",21376864,"2023-08-05T08:23:38",3,"NO ERROR",19.21,100,989.63,0.11,0.12,0.12],
    [1615,363171,"Vazduh","Libelium","0004A30B0021DF70",44.979,16.7091,"","","Prijedor","",21377412,"2023-08-05T09:24:19",3,"NO ERROR",20.55,100,989.58,0.02,0.02,0.02],
    [1616,363171,"Vazduh","Libelium","0004A30B0021DF70",44.979,16.7091,"","","Prijedor","",21377933,"2023-08-05T10:25:01",3,"NO ERROR",21.52,100,989.97,0.06,0.11,0.11],
    [1617,363171,"Vazduh","Libelium","0004A30B0021DF70",44.979,16.7091,"","","Prijedor","",21378451,"2023-08-05T11:25:43",3,"NO ERROR",21.71,100,990.27,0,0,0],
    [1618,363171,"Vazduh","Libelium","0004A30B0021DF70",44.979,16.7091,"","","Prijedor","",21379017,"2023-08-05T12:26:25",3,"NO ERROR",22.36,100,990.44,0,0,0],
    [1619,363171,"Vazduh","Libelium","0004A30B0021DF70",44.979,16.7091,"","","Prijedor","",21379634,"2023-08-05T13:27:07",3,"NO ERROR",21.62,100,990.48,0.13,0.14,0.14],
    [1620,363171,"Vazduh","Libelium","0004A30B0021DF70",44.979,16.7091,"","","Prijedor","",21380213,"2023-08-05T14:27:49",3,"NO ERROR",22.11,100,990.31,0.02,0.02,0.02],
    [1621,363171,"Vazduh","Libelium","0004A30B0021DF70",44.979,16.7091,"","","Prijedor","",21380760,"2023-08-05T15:28:30",3,"NO ERROR",22.09,100,990.18,0.07,0.09,0.09],
    [1622,363171,"Vazduh","Libelium","0004A30B0021DF70",44.979,16.7091,"","","Prijedor","",21381285,"2023-08-05T16:29:18",3,"NO ERROR",22.75,100,990.3,0.04,0.07,0.07],
    [1623,363171,"Vazduh","Libelium","0004A30B0021DF70",44.979,16.7091,"","","Prijedor","",21381804,"2023-08-05T17:30:00",3,"NO ERROR",22.54,100,990.14,0.04,0.05,0.05],
    [1624,363171,"Vazduh","Libelium","0004A30B0021DF70",44.979,16.7091,"","","Prijedor","",21382286,"2023-08-05T18:30:42",3,"NO ERROR",22.82,100,989.98,0.07,0.09,0.09],
    [1625,363171,"Vazduh","Libelium","0004A30B0021DF70",44.979,16.7091,"","","Prijedor","",21382718,"2023-08-05T19:31:24",3,"NO ERROR",22.14,100,990.01,0.05,0.08,0.08],
    [1626,363171,"Vazduh","Libelium","0004A30B0021DF70",44.979,16.7091,"","","Prijedor","",21383374,"2023-08-05T20:32:06",3,"NO ERROR",21.42,100,990.26,0.2,0.36,0.51],
    [1627,363171,"Vazduh","Libelium","0004A30B0021DF70",44.979,16.7091,"","","Prijedor","",21385489,"2023-08-05T21:32:47",3,"NO ERROR",20.29,100,991.3,0.27,0.42,0.44],
    [1628,363171,"Vazduh","Libelium","0004A30B0021DF70",44.979,16.7091,"","","Prijedor","",21386819,"2023-08-05T22:33:29",3,"NO ERROR",19.59,100,991.31,0.13,0.35,0.54],
    [1629,363171,"Vazduh","Libelium","0004A30B0021DF70",44.979,16.7091,"","","Prijedor","",21387884,"2023-08-05T23:34:10",3,"NO ERROR",18.96,100,990.91,0.03,0.11,0.42],
    [1630,363171,"Vazduh","Libelium","0004A30B0021DF70",44.979,16.7091,"","","Prijedor","",21389082,"2023-08-06T00:34:52",3,"NO ERROR",19.02,100,990.68,0.25,0.51,0.97],
    [1631,363171,"Vazduh","Libelium","0004A30B0021DF70",44.979,16.7091,"","","Prijedor","",21390114,"2023-08-06T01:35:34",3,"NO ERROR",18.7,100,989.93,0.12,0.12,0.12],
    [1632,363171,"Vazduh","Libelium","0004A30B0021DF70",44.979,16.7091,"","","Prijedor","",21390993,"2023-08-06T02:36:16",3,"NO ERROR",18.7,100,989.75,0.14,0.23,0.23],
    [1633,363171,"Vazduh","Libelium","0004A30B0021DF70",44.979,16.7091,"","","Prijedor","",21391838,"2023-08-06T03:36:59",3,"NO ERROR",17.77,100,989.75,0.25,0.34,0.35],
    [1634,363171,"Vazduh","Libelium","0004A30B0021DF70",44.979,16.7091,"","","Prijedor","",21392691,"2023-08-06T04:37:41",3,"NO ERROR",18.3,100,989.37,0.1,0.29,0.33],
    [1635,363171,"Vazduh","Libelium","0004A30B0021DF70",44.979,16.7091,"","","Prijedor","",21393524,"2023-08-06T05:38:23",3,"NO ERROR",17.01,100,989.22,0.03,0.07,0.07],
    [1636,363171,"Vazduh","Libelium","0004A30B0021DF70",44.979,16.7091,"","","Prijedor","",21394112,"2023-08-06T06:39:05",3,"NO ERROR",20.82,100,989.1,0.11,0.18,0.19],
    [1637,363171,"Vazduh","Libelium","0004A30B0021DF70",44.979,16.7091,"","","Prijedor","",21394669,"2023-08-06T07:39:53",3,"NO ERROR",18.78,100,989.45,0.13,0.17,0.17],
    [1638,363171,"Vazduh","Libelium","0004A30B0021DF70",44.979,16.7091,"","","Prijedor","",21395175,"2023-08-06T08:40:35",3,"NO ERROR",18.84,100,989.78,0.08,0.08,0.08],
    [1639,363171,"Vazduh","Libelium","0004A30B0021DF70",44.979,16.7091,"","","Prijedor","",21395686,"2023-08-06T09:41:16",3,"NO ERROR",19.53,100,989.99,0.03,0.03,0.03],
    [1640,363171,"Vazduh","Libelium","0004A30B0021DF70",44.979,16.7091,"","","Prijedor","",21396192,"2023-08-06T10:41:58",3,"NO ERROR",17.67,100,990.5,0.21,0.35,0.38],
    [1641,363171,"Vazduh","Libelium","0004A30B0021DF70",44.979,16.7091,"","","Prijedor","",21396657,"2023-08-06T11:42:40",3,"NO ERROR",16.33,100,991.37,0.34,0.45,0.48],
    [1642,363171,"Vazduh","Libelium","0004A30B0021DF70",44.979,16.7091,"","","Prijedor","",21397156,"2023-08-06T12:43:22",3,"NO ERROR",17.95,100,991.91,0.23,0.45,8.72],
    [1643,363171,"Vazduh","Libelium","0004A30B0021DF70",44.979,16.7091,"","","Prijedor","",21397690,"2023-08-06T13:44:03",3,"NO ERROR",20.65,100,992.32,0.12,0.16,0.16],
    [1644,363171,"Vazduh","Libelium","0004A30B0021DF70",44.979,16.7091,"","","Prijedor","",21398221,"2023-08-06T14:44:45",3,"NO ERROR",22.01,98.6,992.45,0.04,0.07,0.07],
    [1645,363171,"Vazduh","Libelium","0004A30B0021DF70",44.979,16.7091,"","","Prijedor","",21398732,"2023-08-06T15:45:27",3,"NO ERROR",22.75,86.4,992.75,0.09,0.13,0.14],
    [1646,363171,"Vazduh","Libelium","0004A30B0021DF70",44.979,16.7091,"","","Prijedor","",21399219,"2023-08-06T16:46:09",3,"NO ERROR",23.18,79.3,993.06,0.13,0.14,0.14],
    [1647,363171,"Vazduh","Libelium","0004A30B0021DF70",44.979,16.7091,"","","Prijedor","",21399726,"2023-08-06T17:46:52",3,"NO ERROR",22.34,75.4,993.14,0,0,0],
    [1648,363171,"Vazduh","Libelium","0004A30B0021DF70",44.979,16.7091,"","","Prijedor","",21400230,"2023-08-06T18:47:34",3,"NO ERROR",21.1,85.4,993.18,0.07,0.08,0.08],
    [1649,363171,"Vazduh","Libelium","0004A30B0021DF70",44.979,16.7091,"","","Prijedor","",21400722,"2023-08-06T19:48:16",3,"NO ERROR",20.12,97.4,993.16,0.27,0.39,0.4],
    [1650,363171,"Vazduh","Libelium","0004A30B0021DF70",44.979,16.7091,"","","Prijedor","",21402088,"2023-08-06T20:48:58",3,"NO ERROR",19.02,100,993.66,0.09,0.13,0.14],
    [1651,363171,"Vazduh","Libelium","0004A30B0021DF70",44.979,16.7091,"","","Prijedor","",21404051,"2023-08-06T21:49:39",3,"NO ERROR",17.39,100,993.98,0.62,0.8,0.82],
    [1652,363171,"Vazduh","Libelium","0004A30B0021DF70",44.979,16.7091,"","","Prijedor","",21405421,"2023-08-06T22:50:21",3,"NO ERROR",16.23,100,994.23,0.33,0.72,0.91],
    [1653,363171,"Vazduh","Libelium","0004A30B0021DF70",44.979,16.7091,"","","Prijedor","",21406560,"2023-08-06T23:51:03",3,"NO ERROR",15.98,100,994.65,0.27,0.48,0.49],
    [1654,363171,"Vazduh","Libelium","0004A30B0021DF70",44.979,16.7091,"","","Prijedor","",21407856,"2023-08-07T00:51:45",3,"NO ERROR",15.74,100,994.61,0.17,0.26,0.28],
    [1655,363171,"Vazduh","Libelium","0004A30B0021DF70",44.979,16.7091,"","","Prijedor","",21408805,"2023-08-07T01:52:26",3,"NO ERROR",16,100,994.81,0.07,0.12,0.12],
    [1656,363171,"Vazduh","Libelium","0004A30B0021DF70",44.979,16.7091,"","","Prijedor","",21409691,"2023-08-07T02:53:08",3,"NO ERROR",14.75,100,994.91,0.14,0.3,0.32],
    [1657,363171,"Vazduh","Libelium","0004A30B0021DF70",44.979,16.7091,"","","Prijedor","",21410547,"2023-08-07T03:53:50",3,"NO ERROR",14.11,100,995.18,0.28,0.35,0.35],
    [1658,363171,"Vazduh","Libelium","0004A30B0021DF70",44.979,16.7091,"","","Prijedor","",21411467,"2023-08-07T04:54:31",3,"NO ERROR",13.2,100,995.6,1.36,3,9.72],
    [1659,363171,"Vazduh","Libelium","0004A30B0021DF70",44.979,16.7091,"","","Prijedor","",21412187,"2023-08-07T05:55:12",3,"NO ERROR",13.33,100,995.93,2.18,10.13,120.83],
    [1660,363171,"Vazduh","Libelium","0004A30B0021DF70",44.979,16.7091,"","","Prijedor","",21412754,"2023-08-07T06:56:01",3,"NO ERROR",13.92,100,996.2,0.17,0.5,5.79],
    [1661,363171,"Vazduh","Libelium","0004A30B0021DF70",44.979,16.7091,"","","Prijedor","",21413311,"2023-08-07T07:56:43",3,"NO ERROR",14.84,100,996.64,0.06,0.11,4.97],
    [1662,363171,"Vazduh","Libelium","0004A30B0021DF70",44.979,16.7091,"","","Prijedor","",21413834,"2023-08-07T08:57:25",3,"NO ERROR",16.38,100,996.93,0.43,0.53,0.53],
    [1663,363171,"Vazduh","Libelium","0004A30B0021DF70",44.979,16.7091,"","","Prijedor","",21414321,"2023-08-07T09:58:07",3,"NO ERROR",21.03,88.5,996.91,0.05,0.07,0.07],
    [1664,363171,"Vazduh","Libelium","0004A30B0021DF70",44.979,16.7091,"","","Prijedor","",21414816,"2023-08-07T10:58:49",3,"NO ERROR",24,73.7,996.78,0.09,0.13,0.13],
    [1665,363171,"Vazduh","Libelium","0004A30B0021DF70",44.979,16.7091,"","","Prijedor","",21415298,"2023-08-07T11:59:31",3,"NO ERROR",24.66,64.6,996.8,0.14,0.16,0.16],
    [1666,363171,"Vazduh","Libelium","0004A30B0021DF70",44.979,16.7091,"","","Prijedor","",21415853,"2023-08-07T13:00:12",3,"NO ERROR",24.97,62,996.83,0.05,0.1,0.11],
    [1667,363171,"Vazduh","Libelium","0004A30B0021DF70",44.979,16.7091,"","","Prijedor","",21416384,"2023-08-07T14:00:54",3,"NO ERROR",24.55,51.5,996.54,0.04,0.07,0.07],
    [1668,363171,"Vazduh","Libelium","0004A30B0021DF70",44.979,16.7091,"","","Prijedor","",21416916,"2023-08-07T15:01:35",3,"NO ERROR",26.41,46.1,996.46,0,0,0],
    [1669,363171,"Vazduh","Libelium","0004A30B0021DF70",44.979,16.7091,"","","Prijedor","",21417418,"2023-08-07T16:02:16",3,"NO ERROR",24.65,52.7,997.15,0,0,0],
    [1670,363171,"Vazduh","Libelium","0004A30B0021DF70",44.979,16.7091,"","","Prijedor","",21417930,"2023-08-07T17:02:57",3,"NO ERROR",25.01,47.5,997.74,0.04,0.05,0.05],
    [1671,363171,"Vazduh","Libelium","0004A30B0021DF70",44.979,16.7091,"","","Prijedor","",21418412,"2023-08-07T18:03:39",3,"NO ERROR",22.19,53,998.93,0.06,0.07,0.07],
    [1672,363171,"Vazduh","Libelium","0004A30B0021DF70",44.979,16.7091,"","","Prijedor","",21418913,"2023-08-07T19:04:22",3,"NO ERROR",19.57,79.5,999.92,0.08,0.11,0.11],
    [1673,363171,"Vazduh","Libelium","0004A30B0021DF70",44.979,16.7091,"","","Prijedor","",21419423,"2023-08-07T20:05:04",3,"NO ERROR",18.48,87.2,1001,0.05,0.05,0.05],
    [1674,363171,"Vazduh","Libelium","0004A30B0021DF70",44.979,16.7091,"","","Prijedor","",21421389,"2023-08-07T21:05:46",3,"NO ERROR",17.17,97.9,1001.65,0.08,0.09,0.09],
    [1675,363171,"Vazduh","Libelium","0004A30B0021DF70",44.979,16.7091,"","","Prijedor","",21423252,"2023-08-07T22:06:34",3,"NO ERROR",16.28,95.9,1002.2,0.06,0.15,0.17],
    [1676,363171,"Vazduh","Libelium","0004A30B0021DF70",44.979,16.7091,"","","Prijedor","",21424686,"2023-08-07T23:07:16",3,"NO ERROR",15.78,100,1002.75,0.09,0.15,0.15],
    [1677,363171,"Vazduh","Libelium","0004A30B0021DF70",44.979,16.7091,"","","Prijedor","",21426023,"2023-08-08T00:07:58",3,"NO ERROR",15.45,100,1003.12,0.04,0.07,0.07],
    [1678,363171,"Vazduh","Libelium","0004A30B0021DF70",44.979,16.7091,"","","Prijedor","",21427179,"2023-08-08T01:08:40",3,"NO ERROR",15.25,100,1003.35,0.06,0.07,0.07],
    [1679,363171,"Vazduh","Libelium","0004A30B0021DF70",44.979,16.7091,"","","Prijedor","",21428161,"2023-08-08T02:09:22",3,"NO ERROR",14.59,100,1003.41,0.05,0.13,0.15],
    [1680,363171,"Vazduh","Libelium","0004A30B0021DF70",44.979,16.7091,"","","Prijedor","",21429078,"2023-08-08T03:10:04",3,"NO ERROR",13.54,100,1003.66,0.23,0.4,1.37],
    [1681,363171,"Vazduh","Libelium","0004A30B0021DF70",44.979,16.7091,"","","Prijedor","",21430031,"2023-08-08T04:10:46",3,"NO ERROR",12.51,100,1003.74,0.07,0.12,0.12],
    [1682,363171,"Vazduh","Libelium","0004A30B0021DF70",44.979,16.7091,"","","Prijedor","",21431084,"2023-08-08T05:11:28",3,"NO ERROR",11.75,100,1004.18,0.39,0.62,0.66],
    [1683,363171,"Vazduh","Libelium","0004A30B0021DF70",44.979,16.7091,"","","Prijedor","",21431821,"2023-08-08T06:12:10",3,"NO ERROR",12,100,1004.49,1.11,2.98,13.65],
    [1684,363171,"Vazduh","Libelium","0004A30B0021DF70",44.979,16.7091,"","","Prijedor","",21432414,"2023-08-08T07:12:51",3,"NO ERROR",12.45,100,1005.34,0.69,4.2,170.38],
    [1685,363171,"Vazduh","Libelium","0004A30B0021DF70",44.979,16.7091,"","","Prijedor","",21432938,"2023-08-08T08:13:34",3,"NO ERROR",14.03,100,1005.31,0.46,0.8,0.98],
    [1686,363171,"Vazduh","Libelium","0004A30B0021DF70",44.979,16.7091,"","","Prijedor","",21433468,"2023-08-08T09:14:16",3,"NO ERROR",20.15,77.5,1005.46,0.21,0.32,0.34],
    [1687,363171,"Vazduh","Libelium","0004A30B0021DF70",44.979,16.7091,"","","Prijedor","",21433979,"2023-08-08T10:14:58",3,"NO ERROR",21.3,76,1005.01,0.08,0.1,0.1],
    [1688,363171,"Vazduh","Libelium","0004A30B0021DF70",44.979,16.7091,"","","Prijedor","",21434461,"2023-08-08T11:15:40",3,"NO ERROR",22.86,57,1004.74,0.02,0.02,0.02],
    [1689,363171,"Vazduh","Libelium","0004A30B0021DF70",44.979,16.7091,"","","Prijedor","",21435002,"2023-08-08T12:16:22",3,"NO ERROR",23.2,55.6,1004.76,0.03,0.03,0.03],
    [1690,363171,"Vazduh","Libelium","0004A30B0021DF70",44.979,16.7091,"","","Prijedor","",21435589,"2023-08-08T13:17:04",3,"NO ERROR",24.71,50.2,1004.14,0.19,0.28,0.28],
    [1691,363171,"Vazduh","Libelium","0004A30B0021DF70",44.979,16.7091,"","","Prijedor","",21436123,"2023-08-08T14:17:46",3,"NO ERROR",26.62,44.2,1003.53,0.08,0.2,0.24],
    [1692,363171,"Vazduh","Libelium","0004A30B0021DF70",44.979,16.7091,"","","Prijedor","",21436648,"2023-08-08T15:18:34",3,"NO ERROR",27.15,42.9,1003.11,0.04,0.05,0.05],
    [1693,363171,"Vazduh","Libelium","0004A30B0021DF70",44.979,16.7091,"","","Prijedor","",21437148,"2023-08-08T16:19:16",3,"NO ERROR",29.04,39.6,1002.74,0,0,0],
    [1694,363171,"Vazduh","Libelium","0004A30B0021DF70",44.979,16.7091,"","","Prijedor","",21437661,"2023-08-08T17:19:58",3,"NO ERROR",28.56,37.9,1002.39,0.07,0.07,0.07],
    [1695,363171,"Vazduh","Libelium","0004A30B0021DF70",44.979,16.7091,"","","Prijedor","",21438159,"2023-08-08T18:20:48",3,"NO ERROR",24.38,45.2,1002.02,0.03,0.05,0.05],
    [1696,363171,"Vazduh","Libelium","0004A30B0021DF70",44.979,16.7091,"","","Prijedor","",21438619,"2023-08-08T19:21:29",3,"NO ERROR",23.35,50.2,1001.81,0.08,0.1,0.1],
    [1697,363171,"Vazduh","Libelium","0004A30B0021DF70",44.979,16.7091,"","","Prijedor","",21439166,"2023-08-08T20:22:11",3,"NO ERROR",21.49,61.3,1001.92,0.55,0.72,0.81],
    [1698,363171,"Vazduh","Libelium","0004A30B0021DF70",44.979,16.7091,"","","Prijedor","",21441654,"2023-08-08T21:22:53",3,"NO ERROR",19.08,87,1002.5,0.79,1.01,1.02],
    [1699,363171,"Vazduh","Libelium","0004A30B0021DF70",44.979,16.7091,"","","Prijedor","",21443217,"2023-08-08T22:23:35",3,"NO ERROR",16.78,100,1002.75,0.26,0.3,0.3],
    [1700,363171,"Vazduh","Libelium","0004A30B0021DF70",44.979,16.7091,"","","Prijedor","",21444321,"2023-08-08T23:24:17",3,"NO ERROR",15.88,100,1002.69,0.31,0.86,1.09],
    [1701,363171,"Vazduh","Libelium","0004A30B0021DF70",44.979,16.7091,"","","Prijedor","",21445530,"2023-08-09T00:25:05",3,"NO ERROR",14.33,100,1002.72,0.37,0.49,0.49],
    [1702,363171,"Vazduh","Libelium","0004A30B0021DF70",44.979,16.7091,"","","Prijedor","",21446457,"2023-08-09T01:25:46",3,"NO ERROR",14.62,100,1002.5,0.15,0.15,0.15],
    [1703,363171,"Vazduh","Libelium","0004A30B0021DF70",44.979,16.7091,"","","Prijedor","",21447297,"2023-08-09T02:26:28",3,"NO ERROR",14.03,100,1002.23,0.23,0.41,0.52],
    [1704,363171,"Vazduh","Libelium","0004A30B0021DF70",44.979,16.7091,"","","Prijedor","",21448120,"2023-08-09T03:27:10",3,"NO ERROR",12.14,100,1002.32,0.52,0.62,0.62],
    [1705,363171,"Vazduh","Libelium","0004A30B0021DF70",44.979,16.7091,"","","Prijedor","",21448982,"2023-08-09T04:27:52",3,"NO ERROR",11.65,100,1002.75,0.08,0.11,0.12],
    [1706,363171,"Vazduh","Libelium","0004A30B0021DF70",44.979,16.7091,"","","Prijedor","",21449898,"2023-08-09T05:28:46",3,"NO ERROR",11.43,100,1002.79,0.44,0.58,0.6],
    [1707,363171,"Vazduh","Libelium","0004A30B0021DF70",44.979,16.7091,"","","Prijedor","",21450438,"2023-08-09T06:29:28",3,"NO ERROR",11.92,100,1003.11,0.65,0.75,0.75],
    [1708,363171,"Vazduh","Libelium","0004A30B0021DF70",44.979,16.7091,"","","Prijedor","",21450962,"2023-08-09T07:30:10",3,"NO ERROR",18.84,83.6,1003.37,0.19,0.27,0.27],
    [1709,363171,"Vazduh","Libelium","0004A30B0021DF70",44.979,16.7091,"","","Prijedor","",21451502,"2023-08-09T08:30:51",3,"NO ERROR",21.82,64.4,1003.31,0.47,0.51,0.51],
    [1710,363171,"Vazduh","Libelium","0004A30B0021DF70",44.979,16.7091,"","","Prijedor","",21452052,"2023-08-09T09:31:33",3,"NO ERROR",23.1,62.2,1003.13,0.23,0.38,0.4],
    [1711,363171,"Vazduh","Libelium","0004A30B0021DF70",44.979,16.7091,"","","Prijedor","",21452547,"2023-08-09T10:32:15",3,"NO ERROR",22.31,63.8,1002.65,0.08,0.23,3.21],
    [1712,363171,"Vazduh","Libelium","0004A30B0021DF70",44.979,16.7091,"","","Prijedor","",21453029,"2023-08-09T11:32:57",3,"NO ERROR",23.67,58.5,1001.93,0.09,0.23,0.32],
    [1713,363171,"Vazduh","Libelium","0004A30B0021DF70",44.979,16.7091,"","","Prijedor","",21453567,"2023-08-09T12:33:38",3,"NO ERROR",26.21,46.2,1001.68,0.07,0.09,0.09],
    [1714,363171,"Vazduh","Libelium","0004A30B0021DF70",44.979,16.7091,"","","Prijedor","",21454146,"2023-08-09T13:34:19",3,"NO ERROR",26.56,50.3,1001.41,0.06,0.19,0.5],
    [1715,363171,"Vazduh","Libelium","0004A30B0021DF70",44.979,16.7091,"","","Prijedor","",21454668,"2023-08-09T14:35:01",3,"NO ERROR",25.58,57.3,1001.22,0.24,0.26,0.26],
    [1716,363171,"Vazduh","Libelium","0004A30B0021DF70",44.979,16.7091,"","","Prijedor","",21455242,"2023-08-09T15:35:43",3,"NO ERROR",26.45,48,1001.23,0.17,0.19,0.19],
    [1717,363171,"Vazduh","Libelium","0004A30B0021DF70",44.979,16.7091,"","","Prijedor","",21455823,"2023-08-09T16:36:25",3,"NO ERROR",25.89,47.7,1001.1,0.13,0.16,0.17],
    [1718,363171,"Vazduh","Libelium","0004A30B0021DF70",44.979,16.7091,"","","Prijedor","",21456366,"2023-08-09T17:37:07",3,"NO ERROR",24.37,55.7,1001.09,0.15,0.33,0.37],
    [1719,363171,"Vazduh","Libelium","0004A30B0021DF70",44.979,16.7091,"","","Prijedor","",21456901,"2023-08-09T18:37:49",3,"NO ERROR",24.23,58,1000.97,0.08,0.22,0.35],
    [1720,363171,"Vazduh","Libelium","0004A30B0021DF70",44.979,16.7091,"","","Prijedor","",21457418,"2023-08-09T19:38:31",3,"NO ERROR",22.64,68.2,1001.18,0.28,0.38,0.39],
    [1721,363171,"Vazduh","Libelium","0004A30B0021DF70",44.979,16.7091,"","","Prijedor","",21458694,"2023-08-09T20:39:13",3,"NO ERROR",21.15,85.2,1001.68,0.23,0.72,1.8],
    [1722,363171,"Vazduh","Libelium","0004A30B0021DF70",44.979,16.7091,"","","Prijedor","",21460916,"2023-08-09T21:39:56",3,"NO ERROR",20.28,99.3,1002.37,0.78,0.96,0.99],
    [1723,363171,"Vazduh","Libelium","0004A30B0021DF70",44.979,16.7091,"","","Prijedor","",21462347,"2023-08-09T22:40:38",3,"NO ERROR",19.41,100,1002.6,0.66,0.94,0.98],
    [1724,363171,"Vazduh","Libelium","0004A30B0021DF70",44.979,16.7091,"","","Prijedor","",21463487,"2023-08-09T23:41:20",3,"NO ERROR",18.31,100,1002.83,0.16,0.17,0.17],
    [1725,363171,"Vazduh","Libelium","0004A30B0021DF70",44.979,16.7091,"","","Prijedor","",21464761,"2023-08-10T00:42:02",3,"NO ERROR",17.72,100,1003.17,0.27,0.48,0.52],
    [1726,363171,"Vazduh","Libelium","0004A30B0021DF70",44.979,16.7091,"","","Prijedor","",21465733,"2023-08-10T01:42:44",3,"NO ERROR",17.37,100,1003.15,0.55,0.73,0.76],
    [1727,363171,"Vazduh","Libelium","0004A30B0021DF70",44.979,16.7091,"","","Prijedor","",21466625,"2023-08-10T02:43:26",3,"NO ERROR",17.23,100,1003.41,0.4,0.43,0.43],
    [1728,363171,"Vazduh","Libelium","0004A30B0021DF70",44.979,16.7091,"","","Prijedor","",21467507,"2023-08-10T03:44:08",3,"NO ERROR",16.8,100,1004.14,0.27,0.31,0.31],
    [1729,363171,"Vazduh","Libelium","0004A30B0021DF70",44.979,16.7091,"","","Prijedor","",21468433,"2023-08-10T04:44:49",3,"NO ERROR",16.38,100,1004.04,0.19,0.27,0.28],
    [1730,363171,"Vazduh","Libelium","0004A30B0021DF70",44.979,16.7091,"","","Prijedor","",21469290,"2023-08-10T05:45:31",3,"NO ERROR",16.2,100,1004.48,0.55,0.8,0.81],
    [1731,363171,"Vazduh","Libelium","0004A30B0021DF70",44.979,16.7091,"","","Prijedor","",21469880,"2023-08-10T06:46:13",3,"NO ERROR",16.35,100,1004.51,0.57,0.73,0.73],
    [1732,363171,"Vazduh","Libelium","0004A30B0021DF70",44.979,16.7091,"","","Prijedor","",21470440,"2023-08-10T07:47:00",3,"NO ERROR",22.52,87.5,1004.99,0.15,0.25,0.27],
    [1733,363171,"Vazduh","Libelium","0004A30B0021DF70",44.979,16.7091,"","","Prijedor","",21470995,"2023-08-10T08:47:41",3,"NO ERROR",24.15,74.1,1005.38,0.3,0.42,0.42],
    [1734,363171,"Vazduh","Libelium","0004A30B0021DF70",44.979,16.7091,"","","Prijedor","",21471564,"2023-08-10T09:48:22",3,"NO ERROR",24.37,68.5,1005.56,0.07,0.16,0.25],
    [1735,363171,"Vazduh","Libelium","0004A30B0021DF70",44.979,16.7091,"","","Prijedor","",21472079,"2023-08-10T10:49:04",3,"NO ERROR",23.34,71.4,1005.65,0.13,0.16,0.16],
    [1736,363171,"Vazduh","Libelium","0004A30B0021DF70",44.979,16.7091,"","","Prijedor","",21472594,"2023-08-10T11:49:53",3,"NO ERROR",25.17,64.1,1005.47,0.22,0.3,0.32],
    [1737,363171,"Vazduh","Libelium","0004A30B0021DF70",44.979,16.7091,"","","Prijedor","",21473194,"2023-08-10T12:50:34",3,"NO ERROR",25.48,60.2,1005.26,0.08,0.16,0.18],
    [1738,363171,"Vazduh","Libelium","0004A30B0021DF70",44.979,16.7091,"","","Prijedor","",21473791,"2023-08-10T13:51:16",3,"NO ERROR",26.34,53,1004.99,0.32,0.47,0.47],
    [1739,363171,"Vazduh","Libelium","0004A30B0021DF70",44.979,16.7091,"","","Prijedor","",21474381,"2023-08-10T14:51:58",3,"NO ERROR",27.44,52.4,1004.63,0.2,0.28,0.29],
    [1740,363171,"Vazduh","Libelium","0004A30B0021DF70",44.979,16.7091,"","","Prijedor","",21474960,"2023-08-10T15:52:40",3,"NO ERROR",28.52,51.4,1004.6,0.05,0.18,0.48],
    [1741,363171,"Vazduh","Libelium","0004A30B0021DF70",44.979,16.7091,"","","Prijedor","",21475542,"2023-08-10T16:53:22",3,"NO ERROR",27.27,51.5,1004.63,0.14,0.23,0.25],
    [1742,363171,"Vazduh","Libelium","0004A30B0021DF70",44.979,16.7091,"","","Prijedor","",21476099,"2023-08-10T17:54:04",3,"NO ERROR",25.5,56.8,1004.68,0.1,0.13,0.13],
    [1743,363171,"Vazduh","Libelium","0004A30B0021DF70",44.979,16.7091,"","","Prijedor","",21476619,"2023-08-10T18:54:45",3,"NO ERROR",24.58,59.2,1004.75,0.21,0.27,0.27],
    [1744,363171,"Vazduh","Libelium","0004A30B0021DF70",44.979,16.7091,"","","Prijedor","",21477153,"2023-08-10T19:55:27",3,"NO ERROR",22.82,70.9,1005.13,0.16,0.22,0.23],
    [1745,363171,"Vazduh","Libelium","0004A30B0021DF70",44.979,16.7091,"","","Prijedor","",21479124,"2023-08-10T20:56:09",3,"NO ERROR",20.48,91,1005.81,0.43,0.59,0.6],
    [1746,363171,"Vazduh","Libelium","0004A30B0021DF70",44.979,16.7091,"","","Prijedor","",21481175,"2023-08-10T21:56:51",3,"NO ERROR",18.78,100,1006.48,0.69,0.83,0.83],
    [1747,363171,"Vazduh","Libelium","0004A30B0021DF70",44.979,16.7091,"","","Prijedor","",21482602,"2023-08-10T22:57:33",3,"NO ERROR",17.23,100,1006.66,0.26,0.28,0.28],
    [1748,363171,"Vazduh","Libelium","0004A30B0021DF70",44.979,16.7091,"","","Prijedor","",21483934,"2023-08-10T23:58:15",3,"NO ERROR",16.45,100,1006.82,0.83,0.96,0.96],
    [1749,363171,"Vazduh","Libelium","0004A30B0021DF70",44.979,16.7091,"","","Prijedor","",21485242,"2023-08-11T00:58:58",3,"NO ERROR",15.87,100,1007.03,0.38,0.41,0.41],
    [1750,363171,"Vazduh","Libelium","0004A30B0021DF70",44.979,16.7091,"","","Prijedor","",21486260,"2023-08-11T01:59:40",3,"NO ERROR",14.95,100,1007.34,0.56,0.67,0.67],
    [1751,363171,"Vazduh","Libelium","0004A30B0021DF70",44.979,16.7091,"","","Prijedor","",21487232,"2023-08-11T03:00:21",3,"NO ERROR",14.59,100,1007.32,1.04,1.17,1.17],
    [1752,363171,"Vazduh","Libelium","0004A30B0021DF70",44.979,16.7091,"","","Prijedor","",21488232,"2023-08-11T04:01:03",3,"NO ERROR",13.8,100,1007.64,1.29,1.51,1.51],
    [1753,363171,"Vazduh","Libelium","0004A30B0021DF70",44.979,16.7091,"","","Prijedor","",21489352,"2023-08-11T05:01:45",3,"NO ERROR",14.12,100,1007.64,0.14,0.17,0.17],
    [1754,363171,"Vazduh","Libelium","0004A30B0021DF70",44.979,16.7091,"","","Prijedor","",21490211,"2023-08-11T06:02:33",3,"NO ERROR",14.87,100,1007.6,2.18,3.88,41.07],
    [1755,363171,"Vazduh","Libelium","0004A30B0021DF70",44.979,16.7091,"","","Prijedor","",21490947,"2023-08-11T07:03:15",3,"NO ERROR",15.32,100,1008.02,1.7,4.55,61.33],
    [1756,363171,"Vazduh","Libelium","0004A30B0021DF70",44.979,16.7091,"","","Prijedor","",21491638,"2023-08-11T08:03:57",3,"NO ERROR",16.59,100,1008.38,0.46,0.54,0.54],
    [1757,363171,"Vazduh","Libelium","0004A30B0021DF70",44.979,16.7091,"","","Prijedor","",21492327,"2023-08-11T09:04:38",3,"NO ERROR",19.32,100,1008.74,0.39,0.6,0.72],
    [1758,363171,"Vazduh","Libelium","0004A30B0021DF70",44.979,16.7091,"","","Prijedor","",21492919,"2023-08-11T10:05:19",3,"NO ERROR",21.26,93.4,1008.99,0.1,0.12,0.12],
    [1759,363171,"Vazduh","Libelium","0004A30B0021DF70",44.979,16.7091,"","","Prijedor","",21493494,"2023-08-11T11:06:01",3,"NO ERROR",25.5,65,1008.75,0.02,0.02,0.02],
    [1760,363171,"Vazduh","Libelium","0004A30B0021DF70",44.979,16.7091,"","","Prijedor","",21494145,"2023-08-11T12:06:43",3,"NO ERROR",25.42,50.8,1008.6,0,0,0],
    [1761,363171,"Vazduh","Libelium","0004A30B0021DF70",44.979,16.7091,"","","Prijedor","",21494828,"2023-08-11T13:07:38",3,"NO ERROR",26.21,46.3,1008.39,0.09,0.18,0.27],
    [1762,363171,"Vazduh","Libelium","0004A30B0021DF70",44.979,16.7091,"","","Prijedor","",21495420,"2023-08-11T14:08:19",3,"NO ERROR",26.73,46.9,1008.22,0.08,0.11,0.11],
    [1763,363171,"Vazduh","Libelium","0004A30B0021DF70",44.979,16.7091,"","","Prijedor","",21496050,"2023-08-11T15:09:01",3,"NO ERROR",28.5,43.3,1008.09,0.06,0.08,0.08],
    [1764,363171,"Vazduh","Libelium","0004A30B0021DF70",44.979,16.7091,"","","Prijedor","",21496610,"2023-08-11T16:09:43",3,"NO ERROR",29.03,42.8,1007.77,0.02,0.04,0.05],
    [1765,363171,"Vazduh","Libelium","0004A30B0021DF70",44.979,16.7091,"","","Prijedor","",21497190,"2023-08-11T17:10:24",3,"NO ERROR",29.22,41.8,1007.69,0.07,0.07,0.07],
    [1766,363171,"Vazduh","Libelium","0004A30B0021DF70",44.979,16.7091,"","","Prijedor","",21497734,"2023-08-11T18:11:06",3,"NO ERROR",25.17,50.6,1007.68,0.03,0.03,0.03],
    [1767,363171,"Vazduh","Libelium","0004A30B0021DF70",44.979,16.7091,"","","Prijedor","",21498240,"2023-08-11T19:11:48",3,"NO ERROR",24.15,55.7,1007.75,0.18,0.21,0.21],
    [1768,363171,"Vazduh","Libelium","0004A30B0021DF70",44.979,16.7091,"","","Prijedor","",21498806,"2023-08-11T20:12:36",3,"NO ERROR",22.25,65.7,1007.8,0.4,0.56,0.57],
    [1769,363171,"Vazduh","Libelium","0004A30B0021DF70",44.979,16.7091,"","","Prijedor","",21501403,"2023-08-11T21:13:18",3,"NO ERROR",20.61,79.5,1008.25,0.72,0.87,0.87],
    [1770,363171,"Vazduh","Libelium","0004A30B0021DF70",44.979,16.7091,"","","Prijedor","",21503360,"2023-08-11T22:14:00",3,"NO ERROR",17.86,100,1008.41,0.64,0.81,0.82],
    [1771,363171,"Vazduh","Libelium","0004A30B0021DF70",44.979,16.7091,"","","Prijedor","",21504757,"2023-08-11T23:14:42",3,"NO ERROR",16.63,100,1008.46,0.49,0.69,0.77],
    [1772,363171,"Vazduh","Libelium","0004A30B0021DF70",44.979,16.7091,"","","Prijedor","",21506058,"2023-08-12T00:15:24",3,"NO ERROR",15.89,100,1008.62,0.44,0.59,0.59],
    [1773,363171,"Vazduh","Libelium","0004A30B0021DF70",44.979,16.7091,"","","Prijedor","",21507163,"2023-08-12T01:16:05",3,"NO ERROR",14.99,100,1008.51,0.26,0.32,0.32],
    [1774,363171,"Vazduh","Libelium","0004A30B0021DF70",44.979,16.7091,"","","Prijedor","",21508069,"2023-08-12T02:16:48",3,"NO ERROR",14.27,100,1008.56,0.14,0.15,0.15],
    [1775,363171,"Vazduh","Libelium","0004A30B0021DF70",44.979,16.7091,"","","Prijedor","",21508931,"2023-08-12T03:17:29",3,"NO ERROR",13.5,100,1008.45,0.16,0.27,0.29],
    [1776,363171,"Vazduh","Libelium","0004A30B0021DF70",44.979,16.7091,"","","Prijedor","",21509858,"2023-08-12T04:18:11",3,"NO ERROR",12.59,100,1008.42,0.33,0.4,0.42],
    [1777,363171,"Vazduh","Libelium","0004A30B0021DF70",44.979,16.7091,"","","Prijedor","",21510867,"2023-08-12T05:18:52",3,"NO ERROR",11.79,100,1008.43,0.27,0.29,0.29],
    [1778,363171,"Vazduh","Libelium","0004A30B0021DF70",44.979,16.7091,"","","Prijedor","",21511528,"2023-08-12T06:19:33",3,"NO ERROR",12.12,100,1008.68,2.2,2.88,10.08],
    [1779,363171,"Vazduh","Libelium","0004A30B0021DF70",44.979,16.7091,"","","Prijedor","",21512093,"2023-08-12T07:20:15",3,"NO ERROR",13.69,100,1008.85,1.11,1.62,1.92],
    [1780,363171,"Vazduh","Libelium","0004A30B0021DF70",44.979,16.7091,"","","Prijedor","",21512678,"2023-08-12T08:20:57",3,"NO ERROR",21.51,76.6,1008.84,0.26,0.31,0.31],
    [1781,363171,"Vazduh","Libelium","0004A30B0021DF70",44.979,16.7091,"","","Prijedor","",21513278,"2023-08-12T09:21:39",3,"NO ERROR",22.91,69,1008.45,0.15,0.16,0.16],
    [1782,363171,"Vazduh","Libelium","0004A30B0021DF70",44.979,16.7091,"","","Prijedor","",21513825,"2023-08-12T10:22:20",3,"NO ERROR",23.11,69.2,1008.14,0.24,0.5,1.14],
    [1783,363171,"Vazduh","Libelium","0004A30B0021DF70",44.979,16.7091,"","","Prijedor","",21514294,"2023-08-12T11:23:01",3,"NO ERROR",24.82,62,1007.84,0.18,0.3,0.31],
    [1784,363171,"Vazduh","Libelium","0004A30B0021DF70",44.979,16.7091,"","","Prijedor","",21514817,"2023-08-12T12:23:43",3,"NO ERROR",26.56,50.4,1007.37,0.13,0.25,1.31],
    [1785,363171,"Vazduh","Libelium","0004A30B0021DF70",44.979,16.7091,"","","Prijedor","",21515402,"2023-08-12T13:24:24",3,"NO ERROR",27.55,44.7,1006.65,0.15,0.28,0.63],
    [1786,363171,"Vazduh","Libelium","0004A30B0021DF70",44.979,16.7091,"","","Prijedor","",21515901,"2023-08-12T14:25:06",3,"NO ERROR",29.96,43.6,1006.11,0.32,0.37,0.37],
    [1787,363171,"Vazduh","Libelium","0004A30B0021DF70",44.979,16.7091,"","","Prijedor","",21516603,"2023-08-12T15:25:49",3,"NO ERROR",30,42.4,1005.66,0.09,0.25,0.57],
    [1788,363171,"Vazduh","Libelium","0004A30B0021DF70",44.979,16.7091,"","","Prijedor","",21517130,"2023-08-12T16:26:31",3,"NO ERROR",32.3,39.8,1005.1,0.24,0.33,0.33],
    [1789,363171,"Vazduh","Libelium","0004A30B0021DF70",44.979,16.7091,"","","Prijedor","",21517631,"2023-08-12T17:27:13",3,"NO ERROR",31.66,37.7,1004.62,0.11,0.21,0.29],
    [1790,363171,"Vazduh","Libelium","0004A30B0021DF70",44.979,16.7091,"","","Prijedor","",21518116,"2023-08-12T18:27:55",3,"NO ERROR",26.88,44.9,1004.36,0.22,0.23,0.23],
    [1791,363171,"Vazduh","Libelium","0004A30B0021DF70",44.979,16.7091,"","","Prijedor","",21518580,"2023-08-12T19:28:36",3,"NO ERROR",25.52,50.5,1004.41,0.16,0.24,0.25],
    [1792,363171,"Vazduh","Libelium","0004A30B0021DF70",44.979,16.7091,"","","Prijedor","",21519638,"2023-08-12T20:29:18",3,"NO ERROR",23.13,65.8,1004.7,0.2,0.23,0.23],
    [1793,363171,"Vazduh","Libelium","0004A30B0021DF70",44.979,16.7091,"","","Prijedor","",21521834,"2023-08-12T21:29:59",3,"NO ERROR",20.24,89.6,1005.24,0.17,0.22,0.23],
    [1794,363171,"Vazduh","Libelium","0004A30B0021DF70",44.979,16.7091,"","","Prijedor","",21523455,"2023-08-12T22:30:41",3,"NO ERROR",18.44,100,1005.58,0.25,0.33,0.33],
    [1795,363171,"Vazduh","Libelium","0004A30B0021DF70",44.979,16.7091,"","","Prijedor","",21524844,"2023-08-12T23:31:23",3,"NO ERROR",16.75,100,1005.92,0.42,0.45,0.45],
    [1796,363171,"Vazduh","Libelium","0004A30B0021DF70",44.979,16.7091,"","","Prijedor","",21526240,"2023-08-13T00:32:05",3,"NO ERROR",15.77,100,1005.85,0.41,0.49,0.49],
    [1797,363171,"Vazduh","Libelium","0004A30B0021DF70",44.979,16.7091,"","","Prijedor","",21527308,"2023-08-13T01:32:47",3,"NO ERROR",15.21,100,1005.64,0.66,0.94,1.6],
    [1798,363171,"Vazduh","Libelium","0004A30B0021DF70",44.979,16.7091,"","","Prijedor","",21528240,"2023-08-13T02:33:29",3,"NO ERROR",14.27,100,1005.89,0.84,1.04,1.05],
    [1799,363171,"Vazduh","Libelium","0004A30B0021DF70",44.979,16.7091,"","","Prijedor","",21529092,"2023-08-13T03:34:11",3,"NO ERROR",14.02,100,1005.73,0.47,0.58,0.58],
    [1800,363171,"Vazduh","Libelium","0004A30B0021DF70",44.979,16.7091,"","","Prijedor","",21530017,"2023-08-13T04:34:53",3,"NO ERROR",12.53,100,1005.53,0.18,0.21,0.21],
    [1801,363171,"Vazduh","Libelium","0004A30B0021DF70",44.979,16.7091,"","","Prijedor","",21530934,"2023-08-13T05:35:35",3,"NO ERROR",11.94,100,1005.87,3.96,6.07,68.06],
    [1802,363171,"Vazduh","Libelium","0004A30B0021DF70",44.979,16.7091,"","","Prijedor","",21531466,"2023-08-13T06:36:17",3,"NO ERROR",12.33,100,1006.06,0.4,0.44,0.44],
    [1803,363171,"Vazduh","Libelium","0004A30B0021DF70",44.979,16.7091,"","","Prijedor","",21532000,"2023-08-13T07:36:59",3,"NO ERROR",13.94,100,1006.45,2.08,9.78,267.45],
    [1804,363171,"Vazduh","Libelium","0004A30B0021DF70",44.979,16.7091,"","","Prijedor","",21532509,"2023-08-13T08:37:40",3,"NO ERROR",22.56,77.5,1006.62,0.31,0.39,0.39],
    [1805,363171,"Vazduh","Libelium","0004A30B0021DF70",44.979,16.7091,"","","Prijedor","",21533021,"2023-08-13T09:38:22",3,"NO ERROR",24.36,67,1006.51,0.51,0.59,0.59],
    [1806,363171,"Vazduh","Libelium","0004A30B0021DF70",44.979,16.7091,"","","Prijedor","",21533547,"2023-08-13T10:39:04",3,"NO ERROR",23.78,72.7,1006.05,0.28,0.31,0.31],
    [1807,363171,"Vazduh","Libelium","0004A30B0021DF70",44.979,16.7091,"","","Prijedor","",21534024,"2023-08-13T11:39:46",3,"NO ERROR",25.75,65.2,1005.64,0.51,0.63,0.63],
    [1808,363171,"Vazduh","Libelium","0004A30B0021DF70",44.979,16.7091,"","","Prijedor","",21534562,"2023-08-13T12:40:28",3,"NO ERROR",28.17,51.1,1005.22,0.13,0.28,0.63],
    [1809,363171,"Vazduh","Libelium","0004A30B0021DF70",44.979,16.7091,"","","Prijedor","",21535138,"2023-08-13T13:41:10",3,"NO ERROR",28.87,44.7,1004.81,0.38,0.57,0.59],
    [1810,363171,"Vazduh","Libelium","0004A30B0021DF70",44.979,16.7091,"","","Prijedor","",21535671,"2023-08-13T14:41:53",3,"NO ERROR",31.51,41.6,1004.29,0.52,0.59,0.59],
    [1811,363171,"Vazduh","Libelium","0004A30B0021DF70",44.979,16.7091,"","","Prijedor","",21536189,"2023-08-13T15:42:41",3,"NO ERROR",32.04,37.8,1004.07,0.13,0.14,0.14],
    [1812,363171,"Vazduh","Libelium","0004A30B0021DF70",44.979,16.7091,"","","Prijedor","",21536682,"2023-08-13T16:43:23",3,"NO ERROR",32.84,38.2,1003.59,0.07,0.07,0.07],
    [1813,363171,"Vazduh","Libelium","0004A30B0021DF70",44.979,16.7091,"","","Prijedor","",21537183,"2023-08-13T17:44:05",3,"NO ERROR",29.27,41.2,1003.48,0.13,0.16,0.16],
    [1814,363171,"Vazduh","Libelium","0004A30B0021DF70",44.979,16.7091,"","","Prijedor","",21537693,"2023-08-13T18:44:47",3,"NO ERROR",28.18,44.7,1003.32,0.1,0.12,0.12],
    [1815,363171,"Vazduh","Libelium","0004A30B0021DF70",44.979,16.7091,"","","Prijedor","",21538171,"2023-08-13T19:45:29",3,"NO ERROR",26.52,50.5,1003.33,0.46,0.74,0.95],
    [1816,363171,"Vazduh","Libelium","0004A30B0021DF70",44.979,16.7091,"","","Prijedor","",21539846,"2023-08-13T20:46:11",3,"NO ERROR",23.25,69.2,1003.98,0.5,0.59,0.59],
    [1817,363171,"Vazduh","Libelium","0004A30B0021DF70",44.979,16.7091,"","","Prijedor","",21541837,"2023-08-13T21:46:53",3,"NO ERROR",20.31,91.4,1004.26,0.65,0.85,0.85],
    [1818,363171,"Vazduh","Libelium","0004A30B0021DF70",44.979,16.7091,"","","Prijedor","",21543149,"2023-08-13T22:47:35",3,"NO ERROR",18.35,100,1004.41,0.2,0.21,0.21],
    [1819,363171,"Vazduh","Libelium","0004A30B0021DF70",44.979,16.7091,"","","Prijedor","",21544321,"2023-08-13T23:48:17",3,"NO ERROR",17.62,100,1004.64,0.42,0.51,0.52],
    [1820,363171,"Vazduh","Libelium","0004A30B0021DF70",44.979,16.7091,"","","Prijedor","",21545550,"2023-08-14T00:48:58",3,"NO ERROR",16.55,100,1004.68,0.63,1.07,1.33],
    [1821,363171,"Vazduh","Libelium","0004A30B0021DF70",44.979,16.7091,"","","Prijedor","",21546552,"2023-08-14T01:49:40",3,"NO ERROR",15.82,100,1004.93,0.52,0.67,0.69],
    [1822,363171,"Vazduh","Libelium","0004A30B0021DF70",44.979,16.7091,"","","Prijedor","",21547489,"2023-08-14T02:50:21",3,"NO ERROR",15.35,100,1004.83,0.44,0.5,0.5],
    [1823,363171,"Vazduh","Libelium","0004A30B0021DF70",44.979,16.7091,"","","Prijedor","",21548337,"2023-08-14T03:51:15",3,"NO ERROR",14.52,100,1004.93,0.55,0.74,0.87],
    [1824,363171,"Vazduh","Libelium","0004A30B0021DF70",44.979,16.7091,"","","Prijedor","",21549215,"2023-08-14T04:51:57",3,"NO ERROR",14.39,100,1004.96,0.28,0.3,0.3],
    [1825,363171,"Vazduh","Libelium","0004A30B0021DF70",44.979,16.7091,"","","Prijedor","",21550006,"2023-08-14T05:52:38",3,"NO ERROR",14.29,100,1005.12,1.21,1.36,1.36],
    [1826,363171,"Vazduh","Libelium","0004A30B0021DF70",44.979,16.7091,"","","Prijedor","",21550518,"2023-08-14T06:53:19",3,"NO ERROR",15.13,100,1005.52,1.66,5.7,91.77],
    [1827,363171,"Vazduh","Libelium","0004A30B0021DF70",44.979,16.7091,"","","Prijedor","",21551066,"2023-08-14T07:54:01",3,"NO ERROR",18.4,100,1005.81,0.81,0.92,0.93],
    [1828,363171,"Vazduh","Libelium","0004A30B0021DF70",44.979,16.7091,"","","Prijedor","",21551622,"2023-08-14T08:54:43",3,"NO ERROR",22.16,78.7,1005.75,0.47,0.55,0.55],
    [1829,363171,"Vazduh","Libelium","0004A30B0021DF70",44.979,16.7091,"","","Prijedor","",21552132,"2023-08-14T09:55:25",3,"NO ERROR",25.92,63,1005.73,0.19,0.2,0.2],
    [1830,363171,"Vazduh","Libelium","0004A30B0021DF70",44.979,16.7091,"","","Prijedor","",21552636,"2023-08-14T10:56:06",3,"NO ERROR",25.75,63.9,1005.33,0.34,0.41,0.41],
    [1831,363171,"Vazduh","Libelium","0004A30B0021DF70",44.979,16.7091,"","","Prijedor","",21553202,"2023-08-14T11:56:48",3,"NO ERROR",27.58,61,1004.79,0.17,0.31,0.38],
    [1832,363171,"Vazduh","Libelium","0004A30B0021DF70",44.979,16.7091,"","","Prijedor","",21553878,"2023-08-14T12:57:30",3,"NO ERROR",29.77,55.5,1003.95,0.24,0.37,0.45],
    [1833,363171,"Vazduh","Libelium","0004A30B0021DF70",44.979,16.7091,"","","Prijedor","",21554484,"2023-08-14T13:58:12",3,"NO ERROR",30.75,52.6,1003.54,0.22,0.26,0.26],
    [1834,363171,"Vazduh","Libelium","0004A30B0021DF70",44.979,16.7091,"","","Prijedor","",21555087,"2023-08-14T14:58:54",3,"NO ERROR",31.91,47.1,1003.13,0.66,0.85,0.86],
    [1835,363171,"Vazduh","Libelium","0004A30B0021DF70",44.979,16.7091,"","","Prijedor","",21555635,"2023-08-14T15:59:37",3,"NO ERROR",33.27,43.6,1002.79,0.23,0.3,0.31],
    [1836,363171,"Vazduh","Libelium","0004A30B0021DF70",44.979,16.7091,"","","Prijedor","",21556175,"2023-08-14T17:00:19",3,"NO ERROR",34.3,42,1002.57,0.35,0.42,0.44],
    [1837,363171,"Vazduh","Libelium","0004A30B0021DF70",44.979,16.7091,"","","Prijedor","",21556686,"2023-08-14T18:01:01",3,"NO ERROR",30.6,48.9,1002.4,0.14,0.28,0.53],
    [1838,363171,"Vazduh","Libelium","0004A30B0021DF70",44.979,16.7091,"","","Prijedor","",21557177,"2023-08-14T19:01:43",3,"NO ERROR",29.33,51.4,1002.36,0.37,0.49,0.56],
    [1839,363171,"Vazduh","Libelium","0004A30B0021DF70",44.979,16.7091,"","","Prijedor","",21557716,"2023-08-14T20:02:25",3,"NO ERROR",26.94,65.6,1002.66,0.41,0.71,0.94],
    [1840,363171,"Vazduh","Libelium","0004A30B0021DF70",44.979,16.7091,"","","Prijedor","",21560007,"2023-08-14T21:03:07",3,"NO ERROR",23.87,90.4,1002.9,0.41,0.52,0.54],
    [1841,363171,"Vazduh","Libelium","0004A30B0021DF70",44.979,16.7091,"","","Prijedor","",21561851,"2023-08-14T22:03:48",3,"NO ERROR",21.87,100,1003.31,0.65,0.87,0.87],
    [1842,363171,"Vazduh","Libelium","0004A30B0021DF70",44.979,16.7091,"","","Prijedor","",21563307,"2023-08-14T23:04:30",3,"NO ERROR",20.71,100,1003.53,0.51,0.63,0.64],
    [1843,363171,"Vazduh","Libelium","0004A30B0021DF70",44.979,16.7091,"","","Prijedor","",21564649,"2023-08-15T00:05:11",3,"NO ERROR",20.05,100,1003.46,0.72,0.89,0.9],
    [1844,363171,"Vazduh","Libelium","0004A30B0021DF70",44.979,16.7091,"","","Prijedor","",21565776,"2023-08-15T01:05:53",3,"NO ERROR",19.12,100,1003.33,0.45,0.6,0.62],
    [1845,363171,"Vazduh","Libelium","0004A30B0021DF70",44.979,16.7091,"","","Prijedor","",21566762,"2023-08-15T02:06:35",3,"NO ERROR",18.7,100,1003.25,0.6,0.8,0.88],
    [1846,363171,"Vazduh","Libelium","0004A30B0021DF70",44.979,16.7091,"","","Prijedor","",21567704,"2023-08-15T03:07:18",3,"NO ERROR",17.75,100,1003.29,0.88,1.06,1.06],
    [1847,363171,"Vazduh","Libelium","0004A30B0021DF70",44.979,16.7091,"","","Prijedor","",21568638,"2023-08-15T04:08:00",3,"NO ERROR",16.7,100,1003.04,3.17,4.16,9.53],
    [1848,363171,"Vazduh","Libelium","0004A30B0021DF70",44.979,16.7091,"","","Prijedor","",21569624,"2023-08-15T05:08:42",3,"NO ERROR",16.91,100,1003.18,1.32,1.54,1.54],
    [1849,363171,"Vazduh","Libelium","0004A30B0021DF70",44.979,16.7091,"","","Prijedor","",21570354,"2023-08-15T06:09:23",3,"NO ERROR",16.96,100,1003.52,3.93,4.65,4.66],
    [1850,363171,"Vazduh","Libelium","0004A30B0021DF70",44.979,16.7091,"","","Prijedor","",21570926,"2023-08-15T07:10:05",3,"NO ERROR",16.78,100,1004.03,8.91,15.19,157.21],
    [1851,363171,"Vazduh","Libelium","0004A30B0021DF70",44.979,16.7091,"","","Prijedor","",21571508,"2023-08-15T08:10:47",3,"NO ERROR",18.61,100,1003.88,3.11,3.85,4.02],
    [1852,363171,"Vazduh","Libelium","0004A30B0021DF70",44.979,16.7091,"","","Prijedor","",21572104,"2023-08-15T09:11:28",3,"NO ERROR",25.03,91.6,1003.83,0.73,0.9,0.92],
    [1853,363171,"Vazduh","Libelium","0004A30B0021DF70",44.979,16.7091,"","","Prijedor","",21572654,"2023-08-15T10:12:10",3,"NO ERROR",27.09,76,1003.67,0.75,0.95,0.96],
    [1854,363171,"Vazduh","Libelium","0004A30B0021DF70",44.979,16.7091,"","","Prijedor","",21573163,"2023-08-15T11:12:52",3,"NO ERROR",27.22,71.2,1003.33,0.34,0.46,0.46],
    [1855,363171,"Vazduh","Libelium","0004A30B0021DF70",44.979,16.7091,"","","Prijedor","",21573720,"2023-08-15T12:13:34",3,"NO ERROR",29.61,59.8,1002.58,0.59,0.92,1.05],
    [1856,363171,"Vazduh","Libelium","0004A30B0021DF70",44.979,16.7091,"","","Prijedor","",21574379,"2023-08-15T13:14:22",3,"NO ERROR",31.27,56.9,1002.45,0.28,0.33,0.33],
    [1857,363171,"Vazduh","Libelium","0004A30B0021DF70",44.979,16.7091,"","","Prijedor","",21575720,"2023-08-15T14:15:04",3,"NO ERROR",32.41,52,1001.84,0.4,0.51,0.6],
    [1858,363171,"Vazduh","Libelium","0004A30B0021DF70",44.979,16.7091,"","","Prijedor","",21576347,"2023-08-15T15:15:46",3,"NO ERROR",33.35,49.2,1001.47,0.2,0.27,0.28],
    [1859,363171,"Vazduh","Libelium","0004A30B0021DF70",44.979,16.7091,"","","Prijedor","",21577027,"2023-08-15T16:16:29",3,"NO ERROR",34.42,44.5,1001.21,0.47,0.57,0.57],
    [1860,363171,"Vazduh","Libelium","0004A30B0021DF70",44.979,16.7091,"","","Prijedor","",21577889,"2023-08-15T17:17:11",3,"NO ERROR",33.27,44.5,1000.89,0.32,0.47,0.5],
    [1861,363171,"Vazduh","Libelium","0004A30B0021DF70",44.979,16.7091,"","","Prijedor","",21578518,"2023-08-15T18:17:53",3,"NO ERROR",30.83,51.4,1000.92,0.47,0.65,0.74],
    [1862,363171,"Vazduh","Libelium","0004A30B0021DF70",44.979,16.7091,"","","Prijedor","",21579108,"2023-08-15T19:18:35",3,"NO ERROR",29.19,50.1,1001.05,0.36,0.43,0.45],
    [1863,363171,"Vazduh","Libelium","0004A30B0021DF70",44.979,16.7091,"","","Prijedor","",21580077,"2023-08-15T20:19:17",3,"NO ERROR",27.48,51.8,1001.28,0.39,0.63,1.03],
    [1864,363171,"Vazduh","Libelium","0004A30B0021DF70",44.979,16.7091,"","","Prijedor","",21582537,"2023-08-15T21:20:11",3,"NO ERROR",25.32,63.1,1001.95,2.82,3.52,3.79],
    [1865,363171,"Vazduh","Libelium","0004A30B0021DF70",44.979,16.7091,"","","Prijedor","",21584299,"2023-08-15T22:20:53",3,"NO ERROR",23.2,71,1002.28,0.2,0.29,0.3],
    [1866,363171,"Vazduh","Libelium","0004A30B0021DF70",44.979,16.7091,"","","Prijedor","",21585617,"2023-08-15T23:21:34",3,"NO ERROR",21.03,92.2,1002.22,0.61,0.97,1.07],
    [1867,363171,"Vazduh","Libelium","0004A30B0021DF70",44.979,16.7091,"","","Prijedor","",21586935,"2023-08-16T01:23:03",3,"NO ERROR",19.86,100,1002.53,0.31,0.55,0.73],
    [1868,363171,"Vazduh","Libelium","0004A30B0021DF70",44.979,16.7091,"","","Prijedor","",21590276,"2023-08-16T02:33:39",3,"NO ERROR",18.69,100,1002.37,0.29,0.36,0.36],
    [1869,363171,"Vazduh","Libelium","0004A30B0021DF70",44.979,16.7091,"","","Prijedor","",21590271,"2023-08-16T02:33:38",3,"NO ERROR",18.69,100,1002.37,0.29,0.36,0.36],
    [1870,363171,"Vazduh","Libelium","0004A30B0021DF70",44.979,16.7091,"","","Prijedor","",21587616,"2023-08-16T02:23:45",3,"NO ERROR",18.69,100,1002.37,0.29,0.36,0.36],
    [1871,363171,"Vazduh","Libelium","0004A30B0021DF70",44.979,16.7091,"","","Prijedor","",21594055,"2023-08-16T03:24:28",3,"NO ERROR",17.79,100,1002.57,0.97,1.23,1.35],
    [1872,363171,"Vazduh","Libelium","0004A30B0021DF70",44.979,16.7091,"","","Prijedor","",21595037,"2023-08-16T04:25:10",3,"NO ERROR",17.35,100,1002.59,0.18,0.27,0.28],
    [1873,363171,"Vazduh","Libelium","0004A30B0021DF70",44.979,16.7091,"","","Prijedor","",21596080,"2023-08-16T05:25:52",3,"NO ERROR",16.68,100,1002.77,0.53,0.6,0.6],
    [1874,363171,"Vazduh","Libelium","0004A30B0021DF70",44.979,16.7091,"","","Prijedor","",21596789,"2023-08-16T06:26:34",3,"NO ERROR",16.72,100,1003.34,0.3,0.63,0.8],
    [1875,363171,"Vazduh","Libelium","0004A30B0021DF70",44.979,16.7091,"","","Prijedor","",21597432,"2023-08-16T07:27:16",3,"NO ERROR",17.27,100,1003.64,0.67,0.98,1.12],
    [1876,363171,"Vazduh","Libelium","0004A30B0021DF70",44.979,16.7091,"","","Prijedor","",21598112,"2023-08-16T08:27:58",3,"NO ERROR",20.66,100,1003.64,0.37,0.47,0.47],
    [1877,363171,"Vazduh","Libelium","0004A30B0021DF70",44.979,16.7091,"","","Prijedor","",21598763,"2023-08-16T09:28:40",3,"NO ERROR",26.61,71,1003.69,0.49,0.73,0.76],
    [1878,363171,"Vazduh","Libelium","0004A30B0021DF70",44.979,16.7091,"","","Prijedor","",21599364,"2023-08-16T10:29:28",3,"NO ERROR",25.93,72.8,1003.95,0.19,0.25,0.26],
    [1879,363171,"Vazduh","Libelium","0004A30B0021DF70",44.979,16.7091,"","","Prijedor","",21599967,"2023-08-16T11:30:10",3,"NO ERROR",27.5,67.8,1003.78,0.29,0.35,0.36],
    [1880,363171,"Vazduh","Libelium","0004A30B0021DF70",44.979,16.7091,"","","Prijedor","",21600649,"2023-08-16T12:30:52",3,"NO ERROR",29,60.8,1003.44,0.48,0.76,0.93],
    [1881,363171,"Vazduh","Libelium","0004A30B0021DF70",44.979,16.7091,"","","Prijedor","",21601382,"2023-08-16T13:31:34",3,"NO ERROR",28.58,61.7,1002.88,0.76,0.83,0.84],
    [1882,363171,"Vazduh","Libelium","0004A30B0021DF70",44.979,16.7091,"","","Prijedor","",21602022,"2023-08-16T14:32:16",3,"NO ERROR",28.55,64.2,1002.5,0.41,0.53,0.54],
    [1883,363171,"Vazduh","Libelium","0004A30B0021DF70",44.979,16.7091,"","","Prijedor","",21602720,"2023-08-16T15:32:57",3,"NO ERROR",28.18,64.3,1002.07,0.5,0.63,0.63],
    [1884,363171,"Vazduh","Libelium","0004A30B0021DF70",44.979,16.7091,"","","Prijedor","",21603370,"2023-08-16T16:33:40",3,"NO ERROR",29.2,56.4,1001.76,0.23,0.33,0.34],
    [1885,363171,"Vazduh","Libelium","0004A30B0021DF70",44.979,16.7091,"","","Prijedor","",21604032,"2023-08-16T17:34:22",3,"NO ERROR",29.17,55.6,1001.54,0.31,0.45,1.4],
    [1886,363171,"Vazduh","Libelium","0004A30B0021DF70",44.979,16.7091,"","","Prijedor","",21604742,"2023-08-16T18:35:04",3,"NO ERROR",27.57,62.2,1001.22,0.2,0.22,0.22],
    [1887,363171,"Vazduh","Libelium","0004A30B0021DF70",44.979,16.7091,"","","Prijedor","",21605395,"2023-08-16T19:35:52",3,"NO ERROR",26.29,67.6,1001.47,0.33,0.56,0.77],
    [1888,363171,"Vazduh","Libelium","0004A30B0021DF70",44.979,16.7091,"","","Prijedor","",21607080,"2023-08-16T20:36:34",3,"NO ERROR",24.34,84.3,1002.08,0.41,0.56,0.58],
    [1889,363171,"Vazduh","Libelium","0004A30B0021DF70",44.979,16.7091,"","","Prijedor","",21609285,"2023-08-16T21:37:22",3,"NO ERROR",22.69,95.7,1002.59,0.51,0.7,0.98],
    [1890,363171,"Vazduh","Libelium","0004A30B0021DF70",44.979,16.7091,"","","Prijedor","",21610989,"2023-08-16T22:38:04",3,"NO ERROR",21.55,100,1002.71,0.21,0.31,0.32],
    [1891,363171,"Vazduh","Libelium","0004A30B0021DF70",44.979,16.7091,"","","Prijedor","",21612349,"2023-08-16T23:38:46",3,"NO ERROR",20.44,100,1002.61,0.52,0.83,1.04],
    [1892,363171,"Vazduh","Libelium","0004A30B0021DF70",44.979,16.7091,"","","Prijedor","",21613852,"2023-08-17T00:39:28",3,"NO ERROR",19.66,100,1002.37,0.71,1.03,1.06],
    [1893,363171,"Vazduh","Libelium","0004A30B0021DF70",44.979,16.7091,"","","Prijedor","",21615016,"2023-08-17T01:40:10",3,"NO ERROR",19.17,100,1002.23,1.45,1.71,1.72],
    [1894,363171,"Vazduh","Libelium","0004A30B0021DF70",44.979,16.7091,"","","Prijedor","",21616106,"2023-08-17T02:40:58",3,"NO ERROR",18.28,100,1002.35,0.97,1.23,1.26],
    [1895,363171,"Vazduh","Libelium","0004A30B0021DF70",44.979,16.7091,"","","Prijedor","",21617137,"2023-08-17T03:41:40",3,"NO ERROR",18.3,100,1002.39,0.5,0.56,0.56],
    [1896,363171,"Vazduh","Libelium","0004A30B0021DF70",44.979,16.7091,"","","Prijedor","",21618201,"2023-08-17T04:42:22",3,"NO ERROR",18.45,100,1002.38,0.51,0.57,0.57],
    [1897,363171,"Vazduh","Libelium","0004A30B0021DF70",44.979,16.7091,"","","Prijedor","",21619249,"2023-08-17T05:43:05",3,"NO ERROR",18.21,100,1002.51,0.52,0.59,0.6],
    [1898,363171,"Vazduh","Libelium","0004A30B0021DF70",44.979,16.7091,"","","Prijedor","",21619962,"2023-08-17T06:43:47",3,"NO ERROR",18.75,100,1002.96,0.75,1.13,1.16],
    [1899,363171,"Vazduh","Libelium","0004A30B0021DF70",44.979,16.7091,"","","Prijedor","",21620673,"2023-08-17T07:44:28",3,"NO ERROR",21.68,100,1003.13,0.13,0.14,0.14],
    [1900,363171,"Vazduh","Libelium","0004A30B0021DF70",44.979,16.7091,"","","Prijedor","",21621361,"2023-08-17T08:45:10",3,"NO ERROR",26.01,82.5,1002.91,0.46,0.67,4.29],
    [1901,363171,"Vazduh","Libelium","0004A30B0021DF70",44.979,16.7091,"","","Prijedor","",21622070,"2023-08-17T09:45:52",3,"NO ERROR",27.91,71.6,1002.97,0.46,0.53,0.53],
    [1902,363171,"Vazduh","Libelium","0004A30B0021DF70",44.979,16.7091,"","","Prijedor","",21622696,"2023-08-17T10:46:34",3,"NO ERROR",28.63,69.9,1002.61,0.41,0.49,0.49],
    [1903,363171,"Vazduh","Libelium","0004A30B0021DF70",44.979,16.7091,"","","Prijedor","",21623392,"2023-08-17T11:47:15",3,"NO ERROR",28.63,67.4,1002.14,0.26,0.41,0.72],
    [1904,363171,"Vazduh","Libelium","0004A30B0021DF70",44.979,16.7091,"","","Prijedor","",21624069,"2023-08-17T12:47:57",3,"NO ERROR",28.02,66.3,1001.93,0.46,0.55,0.56],
    [1905,363171,"Vazduh","Libelium","0004A30B0021DF70",44.979,16.7091,"","","Prijedor","",21624797,"2023-08-17T13:48:39",3,"NO ERROR",28.44,67.9,1001.78,0.59,0.77,0.78],
    [1906,363171,"Vazduh","Libelium","0004A30B0021DF70",44.979,16.7091,"","","Prijedor","",21625563,"2023-08-17T14:49:21",3,"NO ERROR",30.97,54.1,1001.26,0.53,0.83,0.87],
    [1907,363171,"Vazduh","Libelium","0004A30B0021DF70",44.979,16.7091,"","","Prijedor","",21626357,"2023-08-17T15:50:03",3,"NO ERROR",32.35,50,1000.97,0.15,0.19,0.19],
    [1908,363171,"Vazduh","Libelium","0004A30B0021DF70",44.979,16.7091,"","","Prijedor","",21627139,"2023-08-17T16:50:45",3,"NO ERROR",32.55,50.6,1000.62,0.21,0.31,0.62],
    [1909,363171,"Vazduh","Libelium","0004A30B0021DF70",44.979,16.7091,"","","Prijedor","",21627910,"2023-08-17T17:51:34",3,"NO ERROR",29.1,56.2,1000.35,0.27,0.34,0.34],
    [1910,363171,"Vazduh","Libelium","0004A30B0021DF70",44.979,16.7091,"","","Prijedor","",21628635,"2023-08-17T18:52:16",3,"NO ERROR",28.04,62.3,1000.21,0.51,0.81,0.95],
    [1911,363171,"Vazduh","Libelium","0004A30B0021DF70",44.979,16.7091,"","","Prijedor","",21629382,"2023-08-17T19:52:58",3,"NO ERROR",26.32,73.5,1000.55,0.35,0.46,0.48],
    [1912,363171,"Vazduh","Libelium","0004A30B0021DF70",44.979,16.7091,"","","Prijedor","",21631886,"2023-08-17T20:53:39",3,"NO ERROR",24.65,85.9,1001.18,1.02,1.36,1.45],
    [1913,363171,"Vazduh","Libelium","0004A30B0021DF70",44.979,16.7091,"","","Prijedor","",21633954,"2023-08-17T21:54:21",3,"NO ERROR",22.6,100,1001.65,0.65,0.94,1.03],
    [1914,363171,"Vazduh","Libelium","0004A30B0021DF70",44.979,16.7091,"","","Prijedor","",21635560,"2023-08-17T22:55:03",3,"NO ERROR",21.51,100,1001.6,0.49,0.68,1.08],
    [1915,363171,"Vazduh","Libelium","0004A30B0021DF70",44.979,16.7091,"","","Prijedor","",21637043,"2023-08-17T23:55:45",3,"NO ERROR",20.4,100,1001.68,1.03,1.48,1.71],
    [1916,363171,"Vazduh","Libelium","0004A30B0021DF70",44.979,16.7091,"","","Prijedor","",21638708,"2023-08-18T00:56:27",3,"NO ERROR",19.27,100,1001.85,0.6,0.78,0.81],
    [1917,363171,"Vazduh","Libelium","0004A30B0021DF70",44.979,16.7091,"","","Prijedor","",21639937,"2023-08-18T01:57:09",3,"NO ERROR",18.88,100,1001.86,0.8,1.03,1.06],
    [1918,363171,"Vazduh","Libelium","0004A30B0021DF70",44.979,16.7091,"","","Prijedor","",21641076,"2023-08-18T02:57:51",3,"NO ERROR",18.26,100,1002,0.9,1.05,1.05],
    [1919,363171,"Vazduh","Libelium","0004A30B0021DF70",44.979,16.7091,"","","Prijedor","",21642244,"2023-08-18T03:58:39",3,"NO ERROR",18.06,100,1001.73,3.08,3.94,4.24],
    [1920,363171,"Vazduh","Libelium","0004A30B0021DF70",44.979,16.7091,"","","Prijedor","",21643409,"2023-08-18T04:59:20",3,"NO ERROR",17.83,100,1001.79,2.91,4.93,38.21],
    [1921,363171,"Vazduh","Libelium","0004A30B0021DF70",44.979,16.7091,"","","Prijedor","",21644424,"2023-08-18T06:00:09",3,"NO ERROR",18.41,100,1001.78,5.86,8.88,83.09],
    [1922,363171,"Vazduh","Libelium","0004A30B0021DF70",44.979,16.7091,"","","Prijedor","",21645217,"2023-08-18T07:00:51",3,"NO ERROR",18.68,100,1002.06,4.05,5.8,62.92],
    [1923,363171,"Vazduh","Libelium","0004A30B0021DF70",44.979,16.7091,"","","Prijedor","",21645899,"2023-08-18T08:01:33",3,"NO ERROR",19.32,100,1002.2,3.64,4.39,4.54],
    [1924,363171,"Vazduh","Libelium","0004A30B0021DF70",44.979,16.7091,"","","Prijedor","",21646670,"2023-08-18T09:02:14",3,"NO ERROR",21.01,100,1002.5,1.28,1.53,1.54],
    [1925,363171,"Vazduh","Libelium","0004A30B0021DF70",44.979,16.7091,"","","Prijedor","",21647374,"2023-08-18T10:02:56",3,"NO ERROR",24.63,97.7,1002.48,1.19,1.48,1.57],
    [1926,363171,"Vazduh","Libelium","0004A30B0021DF70",44.979,16.7091,"","","Prijedor","",21648026,"2023-08-18T11:03:38",3,"NO ERROR",27.71,82,1002.49,0.27,0.32,0.32],
    [1927,363171,"Vazduh","Libelium","0004A30B0021DF70",44.979,16.7091,"","","Prijedor","",21648741,"2023-08-18T12:04:20",3,"NO ERROR",28.78,76.9,1002.1,0.62,0.71,0.71],
    [1928,363171,"Vazduh","Libelium","0004A30B0021DF70",44.979,16.7091,"","","Prijedor","",21649498,"2023-08-18T13:05:01",3,"NO ERROR",29.4,66.9,1001.76,0.72,0.83,0.83],
    [1929,363171,"Vazduh","Libelium","0004A30B0021DF70",44.979,16.7091,"","","Prijedor","",21650160,"2023-08-18T14:05:43",3,"NO ERROR",30.81,60.5,1001.31,1.54,1.77,1.77],
    [1930,363171,"Vazduh","Libelium","0004A30B0021DF70",44.979,16.7091,"","","Prijedor","",21650917,"2023-08-18T15:06:25",3,"NO ERROR",31.83,56.7,1000.77,1.3,1.5,1.5],
    [1931,363171,"Vazduh","Libelium","0004A30B0021DF70",44.979,16.7091,"","","Prijedor","",21651647,"2023-08-18T16:07:06",3,"NO ERROR",34.12,50.9,1000.67,0.98,1.2,1.21],
    [1932,363171,"Vazduh","Libelium","0004A30B0021DF70",44.979,16.7091,"","","Prijedor","",21652354,"2023-08-18T17:07:48",3,"NO ERROR",33.31,50.9,1000.38,0.87,1.07,1.15],
    [1933,363171,"Vazduh","Libelium","0004A30B0021DF70",44.979,16.7091,"","","Prijedor","",21653028,"2023-08-18T18:08:31",3,"NO ERROR",30.4,57.1,1000.35,1.12,1.29,1.29],
    [1934,363171,"Vazduh","Libelium","0004A30B0021DF70",44.979,16.7091,"","","Prijedor","",21653664,"2023-08-18T19:09:13",3,"NO ERROR",28.73,65.1,1000.51,0.71,0.88,0.89],
    [1935,363171,"Vazduh","Libelium","0004A30B0021DF70",44.979,16.7091,"","","Prijedor","",21654571,"2023-08-18T20:09:55",3,"NO ERROR",26.92,79,1000.95,1.62,1.91,1.92],
    [1936,363171,"Vazduh","Libelium","0004A30B0021DF70",44.979,16.7091,"","","Prijedor","",21657338,"2023-08-18T21:10:36",3,"NO ERROR",25.17,95.2,1001.1,3.01,3.52,3.92],
    [1937,363171,"Vazduh","Libelium","0004A30B0021DF70",44.979,16.7091,"","","Prijedor","",21659087,"2023-08-18T22:11:18",3,"NO ERROR",23.34,100,1001.6,2.27,2.69,2.71],
    [1938,363171,"Vazduh","Libelium","0004A30B0021DF70",44.979,16.7091,"","","Prijedor","",21660456,"2023-08-18T23:12:00",3,"NO ERROR",22.24,100,1001.54,3.28,3.74,3.76],
    [1939,363171,"Vazduh","Libelium","0004A30B0021DF70",44.979,16.7091,"","","Prijedor","",21661899,"2023-08-19T00:12:42",3,"NO ERROR",21.05,100,1001.21,4.63,5.26,5.35],
    [1940,363171,"Vazduh","Libelium","0004A30B0021DF70",44.979,16.7091,"","","Prijedor","",21663112,"2023-08-19T01:13:24",3,"NO ERROR",20.71,100,1001.58,7.43,8.76,8.91],
    [1941,363171,"Vazduh","Libelium","0004A30B0021DF70",44.979,16.7091,"","","Prijedor","",21664160,"2023-08-19T02:14:06",3,"NO ERROR",20.13,100,1001.48,4.56,5.36,5.39],
    [1942,363171,"Vazduh","Libelium","0004A30B0021DF70",44.979,16.7091,"","","Prijedor","",21665148,"2023-08-19T03:14:48",3,"NO ERROR",20.57,100,1001.7,5.01,5.66,5.66],
    [1943,363171,"Vazduh","Libelium","0004A30B0021DF70",44.979,16.7091,"","","Prijedor","",21666217,"2023-08-19T04:15:30",3,"NO ERROR",20.26,100,1001.58,7.01,8.16,8.27],
    [1944,363171,"Vazduh","Libelium","0004A30B0021DF70",44.979,16.7091,"","","Prijedor","",21667326,"2023-08-19T05:16:12",3,"NO ERROR",19.32,100,1001.17,9.92,11.48,30.04],
    [1945,363171,"Vazduh","Libelium","0004A30B0021DF70",44.979,16.7091,"","","Prijedor","",21668144,"2023-08-19T06:16:54",3,"NO ERROR",19.88,100,1001.71,5.12,5.8,5.81],
    [1946,363171,"Vazduh","Libelium","0004A30B0021DF70",44.979,16.7091,"","","Prijedor","",21668855,"2023-08-19T07:17:36",3,"NO ERROR",19.8,100,1002.15,7.94,9.24,9.26],
    [1947,363171,"Vazduh","Libelium","0004A30B0021DF70",44.979,16.7091,"","","Prijedor","",21669560,"2023-08-19T08:18:18",3,"NO ERROR",21.36,100,1002.64,2,2.28,2.29],
    [1948,363171,"Vazduh","Libelium","0004A30B0021DF70",44.979,16.7091,"","","Prijedor","",21670274,"2023-08-19T09:19:05",3,"NO ERROR",23.29,100,1002.8,1.64,1.89,1.89],
    [1949,363171,"Vazduh","Libelium","0004A30B0021DF70",44.979,16.7091,"","","Prijedor","",21670930,"2023-08-19T10:19:47",3,"NO ERROR",24.9,100,1003.05,1.23,1.37,1.37],
    [1950,363171,"Vazduh","Libelium","0004A30B0021DF70",44.979,16.7091,"","","Prijedor","",21671517,"2023-08-19T11:20:29",3,"NO ERROR",28.53,87.1,1002.88,1.11,1.28,1.29],
    [1951,363171,"Vazduh","Libelium","0004A30B0021DF70",44.979,16.7091,"","","Prijedor","",21672223,"2023-08-19T12:21:11",3,"NO ERROR",29.31,82.8,1002.59,1.15,1.41,2.37],
    [1952,363171,"Vazduh","Libelium","0004A30B0021DF70",44.979,16.7091,"","","Prijedor","",21672959,"2023-08-19T13:21:52",3,"NO ERROR",27.77,83.5,1002.46,0.41,0.47,0.47],
    [1953,363171,"Vazduh","Libelium","0004A30B0021DF70",44.979,16.7091,"","","Prijedor","",21673602,"2023-08-19T14:22:34",3,"NO ERROR",27.53,95.9,1002.32,0.86,1.01,1.03],
    [1954,363171,"Vazduh","Libelium","0004A30B0021DF70",44.979,16.7091,"","","Prijedor","",21674345,"2023-08-19T15:23:15",3,"NO ERROR",26.55,89.7,1002.17,1.25,1.57,1.59],
    [1955,363171,"Vazduh","Libelium","0004A30B0021DF70",44.979,16.7091,"","","Prijedor","",21675043,"2023-08-19T16:23:57",3,"NO ERROR",31.73,64.2,1001.99,0.58,0.65,0.65],
    [1956,363171,"Vazduh","Libelium","0004A30B0021DF70",44.979,16.7091,"","","Prijedor","",21675749,"2023-08-19T17:24:39",3,"NO ERROR",31.28,66.3,1001.92,0.49,0.62,0.64],
    [1957,363171,"Vazduh","Libelium","0004A30B0021DF70",44.979,16.7091,"","","Prijedor","",21676448,"2023-08-19T18:25:20",3,"NO ERROR",29.09,77,1001.96,0.2,0.22,0.22],
    [1958,363171,"Vazduh","Libelium","0004A30B0021DF70",44.979,16.7091,"","","Prijedor","",21677104,"2023-08-19T19:26:02",3,"NO ERROR",26.85,80.6,1002.31,0.41,0.49,0.49],
    [1959,363171,"Vazduh","Libelium","0004A30B0021DF70",44.979,16.7091,"","","Prijedor","",21678746,"2023-08-19T20:26:44",3,"NO ERROR",25.05,89.5,1002.77,0.57,0.66,0.67],
    [1960,363171,"Vazduh","Libelium","0004A30B0021DF70",44.979,16.7091,"","","Prijedor","",21681043,"2023-08-19T21:27:26",3,"NO ERROR",24.37,98.6,1003.22,1.47,1.87,1.98],
    [1961,363171,"Vazduh","Libelium","0004A30B0021DF70",44.979,16.7091,"","","Prijedor","",21682632,"2023-08-19T22:28:08",3,"NO ERROR",24.34,97.7,1003.84,0.38,0.39,0.39],
    [1962,363171,"Vazduh","Libelium","0004A30B0021DF70",44.979,16.7091,"","","Prijedor","",21683876,"2023-08-19T23:28:50",3,"NO ERROR",22.84,100,1004.01,0.32,0.36,0.36],
    [1963,363171,"Vazduh","Libelium","0004A30B0021DF70",44.979,16.7091,"","","Prijedor","",21685309,"2023-08-20T00:29:32",3,"NO ERROR",22.09,100,1004.04,0.34,0.38,0.38],
    [1964,363171,"Vazduh","Libelium","0004A30B0021DF70",44.979,16.7091,"","","Prijedor","",21686547,"2023-08-20T01:30:14",3,"NO ERROR",21.79,100,1004.15,1.02,1.29,1.32],
    [1965,363171,"Vazduh","Libelium","0004A30B0021DF70",44.979,16.7091,"","","Prijedor","",21687625,"2023-08-20T02:31:02",3,"NO ERROR",21.27,100,1003.9,1.57,1.8,1.8],
    [1966,363171,"Vazduh","Libelium","0004A30B0021DF70",44.979,16.7091,"","","Prijedor","",21688707,"2023-08-20T03:31:44",3,"NO ERROR",20.91,100,1004.16,1.75,2.01,2.03],
    [1967,363171,"Vazduh","Libelium","0004A30B0021DF70",44.979,16.7091,"","","Prijedor","",21689839,"2023-08-20T04:32:26",3,"NO ERROR",20.31,100,1003.93,1.43,1.82,1.92],
    [1968,363171,"Vazduh","Libelium","0004A30B0021DF70",44.979,16.7091,"","","Prijedor","",21691019,"2023-08-20T05:33:08",3,"NO ERROR",19.55,100,1004.13,4.88,5.66,5.69],
    [1969,363171,"Vazduh","Libelium","0004A30B0021DF70",44.979,16.7091,"","","Prijedor","",21691873,"2023-08-20T06:33:50",3,"NO ERROR",19.59,100,1004.57,3.13,3.57,5.17],
    [1970,363171,"Vazduh","Libelium","0004A30B0021DF70",44.979,16.7091,"","","Prijedor","",21692666,"2023-08-20T07:34:32",3,"NO ERROR",22.87,100,1005.04,0.51,0.57,0.57],
    [1971,363171,"Vazduh","Libelium","0004A30B0021DF70",44.979,16.7091,"","","Prijedor","",21693421,"2023-08-20T08:35:14",3,"NO ERROR",26.85,91.4,1005.21,0.12,0.14,0.14],
    [1972,363171,"Vazduh","Libelium","0004A30B0021DF70",44.979,16.7091,"","","Prijedor","",21694242,"2023-08-20T09:35:56",3,"NO ERROR",29.54,70.1,1005.39,0.16,0.31,0.41],
    [1973,363171,"Vazduh","Libelium","0004A30B0021DF70",44.979,16.7091,"","","Prijedor","",21694973,"2023-08-20T10:36:38",3,"NO ERROR",28.55,75.8,1005.35,0.21,0.29,0.29],
    [1974,363171,"Vazduh","Libelium","0004A30B0021DF70",44.979,16.7091,"","","Prijedor","",21695674,"2023-08-20T11:37:20",3,"NO ERROR",30.03,70.8,1005.19,0.15,0.4,0.54],
    [1975,363171,"Vazduh","Libelium","0004A30B0021DF70",44.979,16.7091,"","","Prijedor","",21696465,"2023-08-20T12:38:02",3,"NO ERROR",31.29,64.6,1004.76,0.15,0.3,0.71],
    [1976,363171,"Vazduh","Libelium","0004A30B0021DF70",44.979,16.7091,"","","Prijedor","",21697274,"2023-08-20T13:38:44",3,"NO ERROR",32.56,61.1,1004.35,0.22,0.27,0.27],
    [1977,363171,"Vazduh","Libelium","0004A30B0021DF70",44.979,16.7091,"","","Prijedor","",21698006,"2023-08-20T14:39:26",3,"NO ERROR",32.58,61.6,1004.12,0.35,0.45,0.46],
    [1978,363171,"Vazduh","Libelium","0004A30B0021DF70",44.979,16.7091,"","","Prijedor","",21698734,"2023-08-20T15:40:08",3,"NO ERROR",32.08,63.4,1003.76,0.12,0.17,0.2],
    [1979,363171,"Vazduh","Libelium","0004A30B0021DF70",44.979,16.7091,"","","Prijedor","",21699420,"2023-08-20T16:40:50",3,"NO ERROR",32.57,63.8,1003.59,0.22,0.22,0.22],
    [1980,363171,"Vazduh","Libelium","0004A30B0021DF70",44.979,16.7091,"","","Prijedor","",21700099,"2023-08-20T17:41:32",3,"NO ERROR",31.46,65.3,1003.58,0.19,0.33,0.4],
    [1981,363171,"Vazduh","Libelium","0004A30B0021DF70",44.979,16.7091,"","","Prijedor","",21700778,"2023-08-20T18:42:14",3,"NO ERROR",29.82,71.5,1003.41,0.24,0.32,0.32],
    [1982,363171,"Vazduh","Libelium","0004A30B0021DF70",44.979,16.7091,"","","Prijedor","",21701420,"2023-08-20T19:42:56",3,"NO ERROR",28.16,82.2,1003.58,0.22,0.28,0.29],
    [1983,363171,"Vazduh","Libelium","0004A30B0021DF70",44.979,16.7091,"","","Prijedor","",21703449,"2023-08-20T20:43:39",3,"NO ERROR",26.75,94,1004.28,1.03,1.3,1.3],
    [1984,363171,"Vazduh","Libelium","0004A30B0021DF70",44.979,16.7091,"","","Prijedor","",21705399,"2023-08-20T21:44:21",3,"NO ERROR",25.6,100,1004.74,0.54,0.62,0.62],
    [1985,363171,"Vazduh","Libelium","0004A30B0021DF70",44.979,16.7091,"","","Prijedor","",21706848,"2023-08-20T22:45:09",3,"NO ERROR",24.57,100,1004.91,0.46,0.55,0.56],
    [1986,363171,"Vazduh","Libelium","0004A30B0021DF70",44.979,16.7091,"","","Prijedor","",21708130,"2023-08-20T23:45:51",3,"NO ERROR",23.92,100,1005.24,0.69,0.84,0.84],
    [1987,363171,"Vazduh","Libelium","0004A30B0021DF70",44.979,16.7091,"","","Prijedor","",21709535,"2023-08-21T00:46:33",3,"NO ERROR",23.13,100,1005.48,0.55,0.87,1.01],
    [1988,363171,"Vazduh","Libelium","0004A30B0021DF70",44.979,16.7091,"","","Prijedor","",21710644,"2023-08-21T01:47:15",3,"NO ERROR",22.22,100,1005.43,1.16,1.37,1.38],
    [1989,363171,"Vazduh","Libelium","0004A30B0021DF70",44.979,16.7091,"","","Prijedor","",21711686,"2023-08-21T02:47:57",3,"NO ERROR",21.67,100,1005.47,2.12,2.6,2.64],
    [1990,363171,"Vazduh","Libelium","0004A30B0021DF70",44.979,16.7091,"","","Prijedor","",21712742,"2023-08-21T03:48:39",3,"NO ERROR",21.5,100,1005.57,1.38,1.61,1.62],
    [1991,363171,"Vazduh","Libelium","0004A30B0021DF70",44.979,16.7091,"","","Prijedor","",21713862,"2023-08-21T04:49:20",3,"NO ERROR",20.77,100,1005.79,2.83,3.24,3.33],
    [1992,363171,"Vazduh","Libelium","0004A30B0021DF70",44.979,16.7091,"","","Prijedor","",21714912,"2023-08-21T05:50:02",3,"NO ERROR",20.8,100,1005.83,5.21,6.24,13.42],
    [1993,363171,"Vazduh","Libelium","0004A30B0021DF70",44.979,16.7091,"","","Prijedor","",21715661,"2023-08-21T06:50:57",3,"NO ERROR",20.64,100,1006.19,36.75,55.4,181.38],
    [1994,363171,"Vazduh","Libelium","0004A30B0021DF70",44.979,16.7091,"","","Prijedor","",21716395,"2023-08-21T07:51:37",3,"NO ERROR",21.09,100,1006.49,1.31,2.88,59.16],
    [1995,363171,"Vazduh","Libelium","0004A30B0021DF70",44.979,16.7091,"","","Prijedor","",21717110,"2023-08-21T08:52:26",3,"NO ERROR",24.37,100,1006.72,0.39,0.41,0.41],
    [1996,363171,"Vazduh","Libelium","0004A30B0021DF70",44.979,16.7091,"","","Prijedor","",21717802,"2023-08-21T09:53:07",3,"NO ERROR",27.06,99.6,1006.6,0.73,1.35,3.57],
    [1997,363171,"Vazduh","Libelium","0004A30B0021DF70",44.979,16.7091,"","","Prijedor","",21718470,"2023-08-21T10:53:50",3,"NO ERROR",31.86,74.7,1006.35,0.56,0.75,3.47],
    [1998,363171,"Vazduh","Libelium","0004A30B0021DF70",44.979,16.7091,"","","Prijedor","",21719146,"2023-08-21T11:54:32",3,"NO ERROR",31.92,64.2,1005.82,0.18,0.29,0.3],
    [1999,363171,"Vazduh","Libelium","0004A30B0021DF70",44.979,16.7091,"","","Prijedor","",21719921,"2023-08-21T12:55:13",3,"NO ERROR",33.42,57.5,1005.44,0.51,0.66,0.68],
    [2000,363171,"Vazduh","Libelium","0004A30B0021DF70",44.979,16.7091,"","","Prijedor","",21720693,"2023-08-21T13:55:55",3,"NO ERROR",33.26,62.2,1004.97,0.55,0.77,0.85],
    [2001,363171,"Vazduh","Libelium","0004A30B0021DF70",44.979,16.7091,"","","Prijedor","",21721451,"2023-08-21T14:56:37",3,"NO ERROR",35.37,50.7,1004.57,0.17,0.24,0.24],
    [2002,363171,"Vazduh","Libelium","0004A30B0021DF70",44.979,16.7091,"","","Prijedor","",21722164,"2023-08-21T15:57:19",3,"NO ERROR",36.66,49,1004.07,0.31,0.62,0.65],
    [2003,363171,"Vazduh","Libelium","0004A30B0021DF70",44.979,16.7091,"","","Prijedor","",21722854,"2023-08-21T16:58:00",3,"NO ERROR",36.09,47.7,1003.63,0.31,0.37,0.37],
    [2004,363171,"Vazduh","Libelium","0004A30B0021DF70",44.979,16.7091,"","","Prijedor","",21723567,"2023-08-21T17:58:42",3,"NO ERROR",32.92,53.4,1003.46,0.59,0.83,0.84],
    [2005,363171,"Vazduh","Libelium","0004A30B0021DF70",44.979,16.7091,"","","Prijedor","",21724267,"2023-08-21T18:59:24",3,"NO ERROR",31.39,58.8,1003.57,0.67,1.03,1.19],
    [2006,363171,"Vazduh","Libelium","0004A30B0021DF70",44.979,16.7091,"","","Prijedor","",21724989,"2023-08-21T20:00:06",3,"NO ERROR",29.49,67.7,1003.65,1.14,1.55,1.68],
    [2007,363171,"Vazduh","Libelium","0004A30B0021DF70",44.979,16.7091,"","","Prijedor","",21727750,"2023-08-21T21:00:49",3,"NO ERROR",26.59,88.5,1004.28,1.22,1.44,1.44],
    [2008,363171,"Vazduh","Libelium","0004A30B0021DF70",44.979,16.7091,"","","Prijedor","",21729780,"2023-08-21T22:01:31",3,"NO ERROR",25.23,100,1004.47,0.98,1.39,2.05],
    [2009,363171,"Vazduh","Libelium","0004A30B0021DF70",44.979,16.7091,"","","Prijedor","",21731350,"2023-08-21T23:02:13",3,"NO ERROR",23.99,100,1004.62,1.39,1.57,1.6],
    [2010,363171,"Vazduh","Libelium","0004A30B0021DF70",44.979,16.7091,"","","Prijedor","",21732818,"2023-08-22T00:02:55",3,"NO ERROR",23.21,100,1004.6,0.54,0.83,1],
    [2011,363171,"Vazduh","Libelium","0004A30B0021DF70",44.979,16.7091,"","","Prijedor","",21734160,"2023-08-22T01:03:36",3,"NO ERROR",22.2,100,1004.65,1.2,1.48,1.5],
    [2012,363171,"Vazduh","Libelium","0004A30B0021DF70",44.979,16.7091,"","","Prijedor","",21735372,"2023-08-22T02:04:18",3,"NO ERROR",21.44,100,1004.67,1.46,1.75,1.75],
    [2013,363171,"Vazduh","Libelium","0004A30B0021DF70",44.979,16.7091,"","","Prijedor","",21736531,"2023-08-22T03:05:00",3,"NO ERROR",21.05,100,1004.58,2.56,3.04,3.17],
    [2014,363171,"Vazduh","Libelium","0004A30B0021DF70",44.979,16.7091,"","","Prijedor","",21737645,"2023-08-22T04:05:42",3,"NO ERROR",20.18,100,1004.37,6.54,9.26,41.85],
    [2015,363171,"Vazduh","Libelium","0004A30B0021DF70",44.979,16.7091,"","","Prijedor","",21738815,"2023-08-22T05:06:24",3,"NO ERROR",19.76,100,1004.36,18.72,23.43,32.47],
    [2016,363171,"Vazduh","Libelium","0004A30B0021DF70",44.979,16.7091,"","","Prijedor","",21740548,"2023-08-22T07:08:00",3,"NO ERROR",20.37,100,1004.89,0.6,0.76,0.83],
    [2017,363171,"Vazduh","Libelium","0004A30B0021DF70",44.979,16.7091,"","","Prijedor","",21741306,"2023-08-22T08:08:42",3,"NO ERROR",21.65,100,1005.2,1.85,2.04,2.04],
    [2018,363171,"Vazduh","Libelium","0004A30B0021DF70",44.979,16.7091,"","","Prijedor","",21742070,"2023-08-22T09:09:23",3,"NO ERROR",27.36,88.8,1005.16,1.87,2.21,2.22],
    [2019,363171,"Vazduh","Libelium","0004A30B0021DF70",44.979,16.7091,"","","Prijedor","",21742773,"2023-08-22T10:10:06",3,"NO ERROR",30.29,76.4,1004.98,0.44,0.64,0.74],
    [2020,363171,"Vazduh","Libelium","0004A30B0021DF70",44.979,16.7091,"","","Prijedor","",21743427,"2023-08-22T11:10:48",3,"NO ERROR",30.82,74.8,1004.46,1.01,1.42,1.9],
    [2021,363171,"Vazduh","Libelium","0004A30B0021DF70",44.979,16.7091,"","","Prijedor","",21744181,"2023-08-22T12:11:30",3,"NO ERROR",33.27,62.9,1003.86,0.39,0.52,3.11],
    [2022,363171,"Vazduh","Libelium","0004A30B0021DF70",44.979,16.7091,"","","Prijedor","",21745026,"2023-08-22T13:12:12",3,"NO ERROR",34.32,58.5,1003.29,0.25,0.29,0.29],
    [2023,363171,"Vazduh","Libelium","0004A30B0021DF70",44.979,16.7091,"","","Prijedor","",21745806,"2023-08-22T14:12:54",3,"NO ERROR",35.35,50.1,1002.8,0.41,0.55,0.56],
    [2024,363171,"Vazduh","Libelium","0004A30B0021DF70",44.979,16.7091,"","","Prijedor","",21746558,"2023-08-22T15:13:36",3,"NO ERROR",35.45,42.2,1002.45,0.11,0.16,0.16],
    [2025,363171,"Vazduh","Libelium","0004A30B0021DF70",44.979,16.7091,"","","Prijedor","",21747306,"2023-08-22T16:14:17",3,"NO ERROR",37.65,39.3,1001.86,0.38,0.49,0.5],
    [2026,363171,"Vazduh","Libelium","0004A30B0021DF70",44.979,16.7091,"","","Prijedor","",21748040,"2023-08-22T17:14:59",3,"NO ERROR",36.93,42.7,1001.69,0.56,0.7,0.73],
    [2027,363171,"Vazduh","Libelium","0004A30B0021DF70",44.979,16.7091,"","","Prijedor","",21748770,"2023-08-22T18:15:41",3,"NO ERROR",33.41,50.3,1001.41,0.52,0.7,0.73],
    [2028,363171,"Vazduh","Libelium","0004A30B0021DF70",44.979,16.7091,"","","Prijedor","",21749471,"2023-08-22T19:16:23",3,"NO ERROR",32.12,56.8,1001.49,0.14,0.19,0.23],
    [2029,363171,"Vazduh","Libelium","0004A30B0021DF70",44.979,16.7091,"","","Prijedor","",21750878,"2023-08-22T20:17:12",3,"NO ERROR",29.1,78.2,1001.83,0.31,0.43,0.49],
    [2030,363171,"Vazduh","Libelium","0004A30B0021DF70",44.979,16.7091,"","","Prijedor","",21753415,"2023-08-22T21:17:53",3,"NO ERROR",26.51,93.7,1002.09,0.8,1.06,1.09],
    [2031,363171,"Vazduh","Libelium","0004A30B0021DF70",44.979,16.7091,"","","Prijedor","",21755369,"2023-08-22T22:18:35",3,"NO ERROR",25.23,100,1002.22,0.72,1.01,18.19],
    [2032,363171,"Vazduh","Libelium","0004A30B0021DF70",44.979,16.7091,"","","Prijedor","",21756936,"2023-08-22T23:19:17",3,"NO ERROR",23.75,100,1002.2,0.5,0.7,0.79],
    [2033,363171,"Vazduh","Libelium","0004A30B0021DF70",44.979,16.7091,"","","Prijedor","",21758535,"2023-08-23T00:19:58",3,"NO ERROR",22.76,100,1002.34,0.65,0.98,1.09],
    [2034,363171,"Vazduh","Libelium","0004A30B0021DF70",44.979,16.7091,"","","Prijedor","",21759890,"2023-08-23T01:20:46",3,"NO ERROR",21.94,100,1002.21,1.72,1.99,2],
    [2035,363171,"Vazduh","Libelium","0004A30B0021DF70",44.979,16.7091,"","","Prijedor","",21761015,"2023-08-23T02:21:28",3,"NO ERROR",20.99,100,1002.14,0.99,1.08,1.08],
    [2036,363171,"Vazduh","Libelium","0004A30B0021DF70",44.979,16.7091,"","","Prijedor","",21762139,"2023-08-23T03:22:10",3,"NO ERROR",20.42,100,1002.05,0.94,1.11,1.11],
    [2037,363171,"Vazduh","Libelium","0004A30B0021DF70",44.979,16.7091,"","","Prijedor","",21763219,"2023-08-23T04:22:52",3,"NO ERROR",20.45,100,1002.1,2.05,2.31,2.32],
    [2038,363171,"Vazduh","Libelium","0004A30B0021DF70",44.979,16.7091,"","","Prijedor","",21764316,"2023-08-23T05:23:33",3,"NO ERROR",20.78,100,1002.07,2.45,2.8,2.81],
    [2039,363171,"Vazduh","Libelium","0004A30B0021DF70",44.979,16.7091,"","","Prijedor","",21765118,"2023-08-23T06:24:14",3,"NO ERROR",19.84,100,1002.12,7.62,15.29,285.51],
    [2040,363171,"Vazduh","Libelium","0004A30B0021DF70",44.979,16.7091,"","","Prijedor","",21765833,"2023-08-23T07:24:55",3,"NO ERROR",20.7,100,1001.97,0.81,0.93,0.94],
    [2041,363171,"Vazduh","Libelium","0004A30B0021DF70",44.979,16.7091,"","","Prijedor","",21766522,"2023-08-23T08:25:37",3,"NO ERROR",29.15,78,1002.19,0.58,0.77,0.78],
    [2042,363171,"Vazduh","Libelium","0004A30B0021DF70",44.979,16.7091,"","","Prijedor","",21767217,"2023-08-23T09:26:20",3,"NO ERROR",29.38,72.5,1002.57,0.35,0.38,0.38],
    [2043,363171,"Vazduh","Libelium","0004A30B0021DF70",44.979,16.7091,"","","Prijedor","",21767877,"2023-08-23T10:27:02",3,"NO ERROR",29.98,70.8,1002.43,0.59,0.78,0.79],
    [2044,363171,"Vazduh","Libelium","0004A30B0021DF70",44.979,16.7091,"","","Prijedor","",21768531,"2023-08-23T11:27:50",3,"NO ERROR",31.71,65.2,1002.29,0.47,0.78,0.95],
    [2045,363171,"Vazduh","Libelium","0004A30B0021DF70",44.979,16.7091,"","","Prijedor","",21769245,"2023-08-23T12:28:32",3,"NO ERROR",33.14,62.6,1001.67,0.36,0.45,0.45],
    [2046,363171,"Vazduh","Libelium","0004A30B0021DF70",44.979,16.7091,"","","Prijedor","",21770027,"2023-08-23T13:29:14",3,"NO ERROR",35.57,54.8,1000.93,0.34,0.46,0.48],
    [2047,363171,"Vazduh","Libelium","0004A30B0021DF70",44.979,16.7091,"","","Prijedor","",21770736,"2023-08-23T14:29:56",3,"NO ERROR",36.75,48.4,1000.39,0.14,0.36,1.67],
    [2048,363171,"Vazduh","Libelium","0004A30B0021DF70",44.979,16.7091,"","","Prijedor","",21771456,"2023-08-23T15:30:38",3,"NO ERROR",37.55,47.3,1000.16,0.64,0.91,0.94],
    [2049,363171,"Vazduh","Libelium","0004A30B0021DF70",44.979,16.7091,"","","Prijedor","",21772152,"2023-08-23T16:31:20",3,"NO ERROR",38.13,42.5,1000.03,0.18,0.2,0.2],
    [2050,363171,"Vazduh","Libelium","0004A30B0021DF70",44.979,16.7091,"","","Prijedor","",21772835,"2023-08-23T17:32:02",3,"NO ERROR",35.41,47.2,999.53,0.25,0.36,0.36],
    [2051,363171,"Vazduh","Libelium","0004A30B0021DF70",44.979,16.7091,"","","Prijedor","",21773526,"2023-08-23T18:32:44",3,"NO ERROR",33.32,56.2,999.66,0.29,0.47,0.56],
    [2052,363171,"Vazduh","Libelium","0004A30B0021DF70",44.979,16.7091,"","","Prijedor","",21774188,"2023-08-23T19:33:33",3,"NO ERROR",31.07,66.4,1000.18,0.67,0.95,1.33],
    [2053,363171,"Vazduh","Libelium","0004A30B0021DF70",44.979,16.7091,"","","Prijedor","",21776218,"2023-08-23T20:34:15",3,"NO ERROR",28.91,80.5,1000.59,1.77,2.06,2.09],
    [2054,363171,"Vazduh","Libelium","0004A30B0021DF70",44.979,16.7091,"","","Prijedor","",21778505,"2023-08-23T21:34:57",3,"NO ERROR",27.33,94.7,1001.45,0.59,0.72,0.73],
    [2055,363171,"Vazduh","Libelium","0004A30B0021DF70",44.979,16.7091,"","","Prijedor","",21780217,"2023-08-23T22:35:39",3,"NO ERROR",25.21,100,1001.78,0.41,0.5,0.5],
    [2056,363171,"Vazduh","Libelium","0004A30B0021DF70",44.979,16.7091,"","","Prijedor","",21781551,"2023-08-23T23:36:20",3,"NO ERROR",24.39,100,1001.61,0.47,0.54,0.54],
    [2057,363171,"Vazduh","Libelium","0004A30B0021DF70",44.979,16.7091,"","","Prijedor","",21782984,"2023-08-24T00:37:01",3,"NO ERROR",23.59,100,1001.76,0.86,1.02,1.12],
    [2058,363171,"Vazduh","Libelium","0004A30B0021DF70",44.979,16.7091,"","","Prijedor","",21784122,"2023-08-24T01:37:43",3,"NO ERROR",23.14,100,1001.73,0.89,1.06,1.06],
    [2059,363171,"Vazduh","Libelium","0004A30B0021DF70",44.979,16.7091,"","","Prijedor","",21785157,"2023-08-24T02:38:25",3,"NO ERROR",22.9,100,1001.79,1.39,1.53,1.53],
    [2060,363171,"Vazduh","Libelium","0004A30B0021DF70",44.979,16.7091,"","","Prijedor","",21786198,"2023-08-24T03:39:07",3,"NO ERROR",21.73,100,1002.16,1.53,1.83,1.86],
    [2061,363171,"Vazduh","Libelium","0004A30B0021DF70",44.979,16.7091,"","","Prijedor","",21787278,"2023-08-24T04:39:48",3,"NO ERROR",21.45,100,1002.18,3.35,3.71,3.72],
    [2062,363171,"Vazduh","Libelium","0004A30B0021DF70",44.979,16.7091,"","","Prijedor","",21788403,"2023-08-24T05:40:30",3,"NO ERROR",21.46,100,1002.47,1.17,1.35,1.35],
    [2063,363171,"Vazduh","Libelium","0004A30B0021DF70",44.979,16.7091,"","","Prijedor","",21789149,"2023-08-24T06:41:12",3,"NO ERROR",21.39,100,1002.75,3.43,3.98,4.01],
    [2064,363171,"Vazduh","Libelium","0004A30B0021DF70",44.979,16.7091,"","","Prijedor","",21789874,"2023-08-24T07:41:53",3,"NO ERROR",22.53,100,1003.01,1.89,2.26,2.3],
    [2065,363171,"Vazduh","Libelium","0004A30B0021DF70",44.979,16.7091,"","","Prijedor","",21790560,"2023-08-24T08:42:36",3,"NO ERROR",27.5,96.9,1003.21,1.75,2.15,2.6],
    [2066,363171,"Vazduh","Libelium","0004A30B0021DF70",44.979,16.7091,"","","Prijedor","",21791269,"2023-08-24T09:43:18",3,"NO ERROR",30.05,79,1003.15,0.5,0.61,0.61],
    [2067,363171,"Vazduh","Libelium","0004A30B0021DF70",44.979,16.7091,"","","Prijedor","",21791931,"2023-08-24T10:43:59",3,"NO ERROR",30.91,78.1,1002.94,0.86,1.02,1.02],
    [2068,363171,"Vazduh","Libelium","0004A30B0021DF70",44.979,16.7091,"","","Prijedor","",21792603,"2023-08-24T11:44:41",3,"NO ERROR",32.08,71.1,1002.38,0.51,0.62,0.62],
    [2069,363171,"Vazduh","Libelium","0004A30B0021DF70",44.979,16.7091,"","","Prijedor","",21793379,"2023-08-24T12:45:23",3,"NO ERROR",33.63,60.8,1001.87,0.41,0.52,0.53],
    [2070,363171,"Vazduh","Libelium","0004A30B0021DF70",44.979,16.7091,"","","Prijedor","",21794160,"2023-08-24T13:46:05",3,"NO ERROR",34.15,58.1,1001.39,0.36,0.5,0.52],
    [2071,363171,"Vazduh","Libelium","0004A30B0021DF70",44.979,16.7091,"","","Prijedor","",21794866,"2023-08-24T14:46:47",3,"NO ERROR",34.64,58.1,1000.65,0.35,0.62,0.73],
    [2072,363171,"Vazduh","Libelium","0004A30B0021DF70",44.979,16.7091,"","","Prijedor","",21795603,"2023-08-24T15:47:29",3,"NO ERROR",37.48,49.8,1000.07,0.61,0.73,0.73],
    [2073,363171,"Vazduh","Libelium","0004A30B0021DF70",44.979,16.7091,"","","Prijedor","",21796329,"2023-08-24T16:48:18",3,"NO ERROR",37.5,49.4,999.69,0.89,1.28,1.35],
    [2074,363171,"Vazduh","Libelium","0004A30B0021DF70",44.979,16.7091,"","","Prijedor","",21797014,"2023-08-24T17:49:00",3,"NO ERROR",34.02,57.8,999.68,1.05,1.54,2.25],
    [2075,363171,"Vazduh","Libelium","0004A30B0021DF70",44.979,16.7091,"","","Prijedor","",21797674,"2023-08-24T18:49:48",3,"NO ERROR",32.76,62.7,999.24,0.27,0.49,0.64],
    [2076,363171,"Vazduh","Libelium","0004A30B0021DF70",44.979,16.7091,"","","Prijedor","",21798358,"2023-08-24T19:50:30",3,"NO ERROR",30.96,68.5,999.19,0.65,0.95,1.08],
    [2077,363171,"Vazduh","Libelium","0004A30B0021DF70",44.979,16.7091,"","","Prijedor","",21801014,"2023-08-24T20:51:12",3,"NO ERROR",28.26,93.3,999.64,2.57,3.49,5],
    [2078,363171,"Vazduh","Libelium","0004A30B0021DF70",44.979,16.7091,"","","Prijedor","",21802964,"2023-08-24T21:51:54",3,"NO ERROR",26.33,100,1000.24,1.06,1.48,1.53],
    [2079,363171,"Vazduh","Libelium","0004A30B0021DF70",44.979,16.7091,"","","Prijedor","",21804474,"2023-08-24T22:52:36",3,"NO ERROR",25.37,100,1000.57,0.61,0.75,0.77],
    [2080,363171,"Vazduh","Libelium","0004A30B0021DF70",44.979,16.7091,"","","Prijedor","",21805887,"2023-08-24T23:53:17",3,"NO ERROR",24.98,100,999.9,1.59,2.42,2.82],
    [2081,363171,"Vazduh","Libelium","0004A30B0021DF70",44.979,16.7091,"","","Prijedor","",21807310,"2023-08-25T00:53:59",3,"NO ERROR",23.99,100,999.66,0.86,1.1,1.12],
    [2082,363171,"Vazduh","Libelium","0004A30B0021DF70",44.979,16.7091,"","","Prijedor","",21808411,"2023-08-25T01:54:41",3,"NO ERROR",23.59,100,999.74,0.49,0.66,0.67],
    [2083,363171,"Vazduh","Libelium","0004A30B0021DF70",44.979,16.7091,"","","Prijedor","",21809467,"2023-08-25T02:55:23",3,"NO ERROR",22.88,100,999.67,0.52,0.88,2.21],
    [2084,363171,"Vazduh","Libelium","0004A30B0021DF70",44.979,16.7091,"","","Prijedor","",21810498,"2023-08-25T03:56:05",3,"NO ERROR",22.01,100,999.45,0.69,1.03,1.23],
    [2085,363171,"Vazduh","Libelium","0004A30B0021DF70",44.979,16.7091,"","","Prijedor","",21811634,"2023-08-25T04:56:47",3,"NO ERROR",21.7,100,999.07,0.52,0.65,0.67],
    [2086,363171,"Vazduh","Libelium","0004A30B0021DF70",44.979,16.7091,"","","Prijedor","",21812667,"2023-08-25T05:57:29",3,"NO ERROR",21.3,100,999.03,1.22,1.67,1.81],
    [2087,363171,"Vazduh","Libelium","0004A30B0021DF70",44.979,16.7091,"","","Prijedor","",21813364,"2023-08-25T06:58:12",3,"NO ERROR",22.77,100,999.64,0.69,0.92,0.95],
    [2088,363171,"Vazduh","Libelium","0004A30B0021DF70",44.979,16.7091,"","","Prijedor","",21814062,"2023-08-25T07:58:54",3,"NO ERROR",27.11,90.1,1000.01,0.54,0.85,1],
    [2089,363171,"Vazduh","Libelium","0004A30B0021DF70",44.979,16.7091,"","","Prijedor","",21814797,"2023-08-25T08:59:36",3,"NO ERROR",28.19,76.3,999.98,0.23,0.42,0.5],
    [2090,363171,"Vazduh","Libelium","0004A30B0021DF70",44.979,16.7091,"","","Prijedor","",21815468,"2023-08-25T10:00:24",3,"NO ERROR",30.08,63.7,999.73,0.31,0.44,0.44],
    [2091,363171,"Vazduh","Libelium","0004A30B0021DF70",44.979,16.7091,"","","Prijedor","",21816119,"2023-08-25T11:01:17",3,"NO ERROR",31.49,58,999.52,0.49,0.66,0.66],
    [2092,363171,"Vazduh","Libelium","0004A30B0021DF70",44.979,16.7091,"","","Prijedor","",21816839,"2023-08-25T12:01:59",3,"NO ERROR",32.7,51.7,998.95,0.43,0.56,0.56],
    [2093,363171,"Vazduh","Libelium","0004A30B0021DF70",44.979,16.7091,"","","Prijedor","",21817604,"2023-08-25T13:02:40",3,"NO ERROR",34.59,48.1,998.46,0.55,0.77,0.78],
    [2094,363171,"Vazduh","Libelium","0004A30B0021DF70",44.979,16.7091,"","","Prijedor","",21819052,"2023-08-25T15:04:04",3,"NO ERROR",37.87,37.7,997.6,0.57,0.8,0.83],
    [2095,363171,"Vazduh","Libelium","0004A30B0021DF70",44.979,16.7091,"","","Prijedor","",21819761,"2023-08-25T16:04:46",3,"NO ERROR",41.31,32.3,997.03,0.23,0.32,0.33],
    [2096,363171,"Vazduh","Libelium","0004A30B0021DF70",44.979,16.7091,"","","Prijedor","",21820486,"2023-08-25T17:05:28",3,"NO ERROR",39.4,35.4,996.58,0.32,0.66,0.86],
    [2097,363171,"Vazduh","Libelium","0004A30B0021DF70",44.979,16.7091,"","","Prijedor","",21821159,"2023-08-25T18:06:10",3,"NO ERROR",35.62,41.9,996.4,0.56,0.81,0.83],
    [2098,363171,"Vazduh","Libelium","0004A30B0021DF70",44.979,16.7091,"","","Prijedor","",21821806,"2023-08-25T19:06:51",3,"NO ERROR",34,46.5,996.23,0.69,0.89,0.9],
    [2099,363171,"Vazduh","Libelium","0004A30B0021DF70",44.979,16.7091,"","","Prijedor","",21823064,"2023-08-25T20:07:33",3,"NO ERROR",30.99,66.4,996.57,1.44,2.12,3.66],
    [2100,363171,"Vazduh","Libelium","0004A30B0021DF70",44.979,16.7091,"","","Prijedor","",21825782,"2023-08-25T21:08:15",3,"NO ERROR",28.06,86,997.18,0.85,1.17,1.32],
    [2101,363171,"Vazduh","Libelium","0004A30B0021DF70",44.979,16.7091,"","","Prijedor","",21827631,"2023-08-25T22:08:57",3,"NO ERROR",25.99,100,997.48,0.92,1.31,1.44],
    [2102,363171,"Vazduh","Libelium","0004A30B0021DF70",44.979,16.7091,"","","Prijedor","",21829108,"2023-08-25T23:09:38",3,"NO ERROR",24.65,100,997.49,1.01,1.28,1.63],
    [2103,363171,"Vazduh","Libelium","0004A30B0021DF70",44.979,16.7091,"","","Prijedor","",21830610,"2023-08-26T00:10:20",3,"NO ERROR",23.61,100,997.62,0.78,0.98,1],
    [2104,363171,"Vazduh","Libelium","0004A30B0021DF70",44.979,16.7091,"","","Prijedor","",21831836,"2023-08-26T01:11:01",3,"NO ERROR",23.28,100,997.47,1.23,1.64,1.79],
    [2105,363171,"Vazduh","Libelium","0004A30B0021DF70",44.979,16.7091,"","","Prijedor","",21832959,"2023-08-26T02:11:43",3,"NO ERROR",22.84,100,997.26,0.49,0.62,0.64],
    [2106,363171,"Vazduh","Libelium","0004A30B0021DF70",44.979,16.7091,"","","Prijedor","",21833977,"2023-08-26T03:12:25",3,"NO ERROR",22.3,100,997.21,2.09,2.83,2.9],
    [2107,363171,"Vazduh","Libelium","0004A30B0021DF70",44.979,16.7091,"","","Prijedor","",21835035,"2023-08-26T04:13:07",3,"NO ERROR",21.23,100,996.93,1.11,1.34,1.46],
    [2108,363171,"Vazduh","Libelium","0004A30B0021DF70",44.979,16.7091,"","","Prijedor","",21836171,"2023-08-26T05:13:50",3,"NO ERROR",20.35,100,996.93,0.57,0.66,0.66],
    [2109,363171,"Vazduh","Libelium","0004A30B0021DF70",44.979,16.7091,"","","Prijedor","",21837042,"2023-08-26T06:14:32",3,"NO ERROR",19.97,100,997,4.73,7.04,8],
    [2110,363171,"Vazduh","Libelium","0004A30B0021DF70",44.979,16.7091,"","","Prijedor","",21837774,"2023-08-26T07:15:14",3,"NO ERROR",22.31,100,997.45,1.41,1.83,1.85],
    [2111,363171,"Vazduh","Libelium","0004A30B0021DF70",44.979,16.7091,"","","Prijedor","",21838503,"2023-08-26T08:15:56",3,"NO ERROR",27.6,83.5,997.69,0.57,0.79,0.83],
    [2112,363171,"Vazduh","Libelium","0004A30B0021DF70",44.979,16.7091,"","","Prijedor","",21839262,"2023-08-26T09:16:38",3,"NO ERROR",30.99,66.8,997.79,0.92,1.29,1.3],
    [2113,363171,"Vazduh","Libelium","0004A30B0021DF70",44.979,16.7091,"","","Prijedor","",21839938,"2023-08-26T10:17:20",3,"NO ERROR",32.04,62.8,997.59,0.6,0.94,1.05],
    [2114,363171,"Vazduh","Libelium","0004A30B0021DF70",44.979,16.7091,"","","Prijedor","",21840548,"2023-08-26T11:18:02",3,"NO ERROR",32.64,57.1,997.21,0.91,1.17,1.18],
    [2115,363171,"Vazduh","Libelium","0004A30B0021DF70",44.979,16.7091,"","","Prijedor","",21841282,"2023-08-26T12:18:44",3,"NO ERROR",33.88,53,996.52,0.79,0.98,0.98],
    [2116,363171,"Vazduh","Libelium","0004A30B0021DF70",44.979,16.7091,"","","Prijedor","",21842064,"2023-08-26T13:19:26",3,"NO ERROR",35.68,48.6,995.89,0.97,1.41,1.43],
    [2117,363171,"Vazduh","Libelium","0004A30B0021DF70",44.979,16.7091,"","","Prijedor","",21842786,"2023-08-26T14:20:21",3,"NO ERROR",38.29,39.8,995.3,0.81,1,1],
    [2118,363171,"Vazduh","Libelium","0004A30B0021DF70",44.979,16.7091,"","","Prijedor","",21843504,"2023-08-26T15:21:02",3,"NO ERROR",40.6,35.8,994.53,0.63,1.11,2.1],
    [2119,363171,"Vazduh","Libelium","0004A30B0021DF70",44.979,16.7091,"","","Prijedor","",21844209,"2023-08-26T16:21:45",3,"NO ERROR",40.95,34.8,994.06,1.36,2.44,3.4],
    [2120,363171,"Vazduh","Libelium","0004A30B0021DF70",44.979,16.7091,"","","Prijedor","",21844923,"2023-08-26T17:22:27",3,"NO ERROR",40.23,35.5,994.01,1.84,2.8,3.09],
    [2121,363171,"Vazduh","Libelium","0004A30B0021DF70",44.979,16.7091,"","","Prijedor","",21845688,"2023-08-26T18:23:09",3,"NO ERROR",35.68,47.4,993.66,1.23,1.85,1.99],
    [2122,363171,"Vazduh","Libelium","0004A30B0021DF70",44.979,16.7091,"","","Prijedor","",21846376,"2023-08-26T19:23:51",3,"NO ERROR",33.27,57.7,993.87,0.99,1.64,1.74],
    [2123,363171,"Vazduh","Libelium","0004A30B0021DF70",44.979,16.7091,"","","Prijedor","",21848236,"2023-08-26T20:24:33",3,"NO ERROR",30.87,71.9,994.59,1.09,1.56,1.73],
    [2124,363171,"Vazduh","Libelium","0004A30B0021DF70",44.979,16.7091,"","","Prijedor","",21850594,"2023-08-26T21:25:21",3,"NO ERROR",27.76,93.1,995.12,1.27,1.75,1.89],
    [2125,363171,"Vazduh","Libelium","0004A30B0021DF70",44.979,16.7091,"","","Prijedor","",21852191,"2023-08-26T22:26:02",3,"NO ERROR",26.76,100,995.36,1.89,2.61,2.65],
    [2126,363171,"Vazduh","Libelium","0004A30B0021DF70",44.979,16.7091,"","","Prijedor","",21853483,"2023-08-26T23:26:43",3,"NO ERROR",25.53,100,995.62,1.28,1.82,1.85],
    [2127,363171,"Vazduh","Libelium","0004A30B0021DF70",44.979,16.7091,"","","Prijedor","",21854943,"2023-08-27T00:27:24",3,"NO ERROR",24.64,100,995.35,1.32,1.98,2.14],
    [2128,363171,"Vazduh","Libelium","0004A30B0021DF70",44.979,16.7091,"","","Prijedor","",21856081,"2023-08-27T01:28:13",3,"NO ERROR",23.59,100,995.36,1.24,1.6,1.62],
    [2129,363171,"Vazduh","Libelium","0004A30B0021DF70",44.979,16.7091,"","","Prijedor","",21857200,"2023-08-27T02:28:55",3,"NO ERROR",23.13,100,995.13,1.4,1.89,1.96],
    [2130,363171,"Vazduh","Libelium","0004A30B0021DF70",44.979,16.7091,"","","Prijedor","",21858262,"2023-08-27T03:29:37",3,"NO ERROR",21.85,100,994.7,1.22,1.43,1.43],
    [2131,363171,"Vazduh","Libelium","0004A30B0021DF70",44.979,16.7091,"","","Prijedor","",21859344,"2023-08-27T04:30:19",3,"NO ERROR",21.69,100,994.7,1.09,1.31,1.31],
    [2132,363171,"Vazduh","Libelium","0004A30B0021DF70",44.979,16.7091,"","","Prijedor","",21860552,"2023-08-27T05:31:01",3,"NO ERROR",21.16,100,994.79,1.65,2.52,2.96],
    [2133,363171,"Vazduh","Libelium","0004A30B0021DF70",44.979,16.7091,"","","Prijedor","",21861426,"2023-08-27T06:31:43",3,"NO ERROR",20.69,100,994.73,1.14,1.43,1.44],
    [2134,363171,"Vazduh","Libelium","0004A30B0021DF70",44.979,16.7091,"","","Prijedor","",21862176,"2023-08-27T07:32:25",3,"NO ERROR",23.87,99,994.97,0.4,0.59,0.68],
    [2135,363171,"Vazduh","Libelium","0004A30B0021DF70",44.979,16.7091,"","","Prijedor","",21862939,"2023-08-27T08:33:07",3,"NO ERROR",28.2,68.5,994.86,0.74,1.2,2.01],
    [2136,363171,"Vazduh","Libelium","0004A30B0021DF70",44.979,16.7091,"","","Prijedor","",21863673,"2023-08-27T09:33:48",3,"NO ERROR",30.59,57.6,994.73,1.23,1.93,5.29],
    [2137,363171,"Vazduh","Libelium","0004A30B0021DF70",44.979,16.7091,"","","Prijedor","",21864366,"2023-08-27T10:34:29",3,"NO ERROR",30.78,53.5,994.14,1.18,1.76,2.52],
    [2138,363171,"Vazduh","Libelium","0004A30B0021DF70",44.979,16.7091,"","","Prijedor","",21865084,"2023-08-27T11:35:11",3,"NO ERROR",32.23,51.8,993.55,1.45,1.9,1.92],
    [2139,363171,"Vazduh","Libelium","0004A30B0021DF70",44.979,16.7091,"","","Prijedor","",21865884,"2023-08-27T12:35:53",3,"NO ERROR",35.33,45.3,992.76,1.35,2.13,2.42],
    [2140,363171,"Vazduh","Libelium","0004A30B0021DF70",44.979,16.7091,"","","Prijedor","",21866711,"2023-08-27T13:36:35",3,"NO ERROR",36.79,38.5,992.18,1.38,2.11,2.28],
    [2141,363171,"Vazduh","Libelium","0004A30B0021DF70",44.979,16.7091,"","","Prijedor","",21867461,"2023-08-27T14:37:24",3,"NO ERROR",39.63,33.3,991.36,0.59,0.87,0.96],
    [2142,363171,"Vazduh","Libelium","0004A30B0021DF70",44.979,16.7091,"","","Prijedor","",21868238,"2023-08-27T15:38:05",3,"NO ERROR",39.02,36,990.75,0.8,1.15,1.17],
    [2143,363171,"Vazduh","Libelium","0004A30B0021DF70",44.979,16.7091,"","","Prijedor","",21868973,"2023-08-27T16:38:47",3,"NO ERROR",39.94,32.5,990.38,0.83,1.3,1.5],
    [2144,363171,"Vazduh","Libelium","0004A30B0021DF70",44.979,16.7091,"","","Prijedor","",21869725,"2023-08-27T17:39:28",3,"NO ERROR",36.96,38.3,990.28,1.27,1.72,1.86],
    [2145,363171,"Vazduh","Libelium","0004A30B0021DF70",44.979,16.7091,"","","Prijedor","",21870461,"2023-08-27T18:40:10",3,"NO ERROR",35.56,47.6,990.15,0.96,1.52,1.63],
    [2146,363171,"Vazduh","Libelium","0004A30B0021DF70",44.979,16.7091,"","","Prijedor","",21871171,"2023-08-27T19:40:52",3,"NO ERROR",32.94,56.5,990.41,1.29,1.83,1.86],
    [2147,363171,"Vazduh","Libelium","0004A30B0021DF70",44.979,16.7091,"","","Prijedor","",21873264,"2023-08-27T20:41:40",3,"NO ERROR",29.37,81.8,990.77,2,2.41,2.43],
    [2148,363171,"Vazduh","Libelium","0004A30B0021DF70",44.979,16.7091,"","","Prijedor","",21874946,"2023-08-27T21:42:22",3,"NO ERROR",26.61,100,991.14,2.29,2.9,3.01],
    [2149,363171,"Vazduh","Libelium","0004A30B0021DF70",44.979,16.7091,"","","Prijedor","",21876132,"2023-08-27T22:43:04",3,"NO ERROR",25.97,100,991.12,2.68,3.58,3.62],
    [2150,363171,"Vazduh","Libelium","0004A30B0021DF70",44.979,16.7091,"","","Prijedor","",21877291,"2023-08-27T23:43:46",3,"NO ERROR",24.26,100,991.16,1.01,1.4,1.5],
    [2151,363171,"Vazduh","Libelium","0004A30B0021DF70",44.979,16.7091,"","","Prijedor","",21878745,"2023-08-28T00:44:29",3,"NO ERROR",23.1,100,991.15,1.18,1.98,2.47],
    [2152,363171,"Vazduh","Libelium","0004A30B0021DF70",44.979,16.7091,"","","Prijedor","",21879893,"2023-08-28T01:45:11",3,"NO ERROR",21.9,100,990.65,0.88,1.24,1.34],
    [2153,363171,"Vazduh","Libelium","0004A30B0021DF70",44.979,16.7091,"","","Prijedor","",21880966,"2023-08-28T02:45:53",3,"NO ERROR",20.62,100,990.63,1.42,1.81,1.93],
    [2154,363171,"Vazduh","Libelium","0004A30B0021DF70",44.979,16.7091,"","","Prijedor","",21882002,"2023-08-28T03:46:35",3,"NO ERROR",20.03,100,990.24,1.18,1.38,1.39],
    [2155,363171,"Vazduh","Libelium","0004A30B0021DF70",44.979,16.7091,"","","Prijedor","",21883073,"2023-08-28T04:47:16",3,"NO ERROR",19.12,100,990.79,1.36,1.62,1.64],
    [2156,363171,"Vazduh","Libelium","0004A30B0021DF70",44.979,16.7091,"","","Prijedor","",21884217,"2023-08-28T05:47:58",3,"NO ERROR",19.08,100,990.34,0.81,1.02,1.03],
    [2157,363171,"Vazduh","Libelium","0004A30B0021DF70",44.979,16.7091,"","","Prijedor","",21884953,"2023-08-28T06:48:40",3,"NO ERROR",19.04,100,990.48,2.18,2.85,3.43],
    [2158,363171,"Vazduh","Libelium","0004A30B0021DF70",44.979,16.7091,"","","Prijedor","",21885668,"2023-08-28T07:49:22",3,"NO ERROR",23.58,97.3,990.33,1.14,1.42,1.43],
    [2159,363171,"Vazduh","Libelium","0004A30B0021DF70",44.979,16.7091,"","","Prijedor","",21886372,"2023-08-28T08:50:04",3,"NO ERROR",27.27,79.5,989.92,0.72,0.99,1.01],
    [2160,363171,"Vazduh","Libelium","0004A30B0021DF70",44.979,16.7091,"","","Prijedor","",21887040,"2023-08-28T09:50:46",3,"NO ERROR",28.89,74.9,988.82,0.76,1.17,1.3],
    [2161,363171,"Vazduh","Libelium","0004A30B0021DF70",44.979,16.7091,"","","Prijedor","",21887678,"2023-08-28T10:51:28",3,"NO ERROR",31.09,62.5,988.15,0.62,0.76,0.78],
    [2162,363171,"Vazduh","Libelium","0004A30B0021DF70",44.979,16.7091,"","","Prijedor","",21888361,"2023-08-28T11:52:23",3,"NO ERROR",31.19,66.7,987.1,0.58,0.73,0.73],
    [2163,363171,"Vazduh","Libelium","0004A30B0021DF70",44.979,16.7091,"","","Prijedor","",21889094,"2023-08-28T12:53:11",3,"NO ERROR",32.05,64.1,986.58,0.43,0.77,0.95],
    [2164,363171,"Vazduh","Libelium","0004A30B0021DF70",44.979,16.7091,"","","Prijedor","",21889826,"2023-08-28T13:53:53",3,"NO ERROR",33.56,59.1,986.1,0.6,0.86,0.95],
    [2165,363171,"Vazduh","Libelium","0004A30B0021DF70",44.979,16.7091,"","","Prijedor","",21890563,"2023-08-28T14:54:35",3,"NO ERROR",33.5,59.9,986.17,0.37,0.57,0.59],
    [2166,363171,"Vazduh","Libelium","0004A30B0021DF70",44.979,16.7091,"","","Prijedor","",21891264,"2023-08-28T15:55:17",3,"NO ERROR",35.56,55.8,985.49,1.11,1.46,1.47],
    [2167,363171,"Vazduh","Libelium","0004A30B0021DF70",44.979,16.7091,"","","Prijedor","",21891955,"2023-08-28T16:55:59",3,"NO ERROR",32.83,64.3,985.2,0.73,1.16,1.35],
    [2168,363171,"Vazduh","Libelium","0004A30B0021DF70",44.979,16.7091,"","","Prijedor","",21892648,"2023-08-28T17:56:41",3,"NO ERROR",31.85,69,985.29,0.86,1.36,1.82],
    [2169,363171,"Vazduh","Libelium","0004A30B0021DF70",44.979,16.7091,"","","Prijedor","",21893297,"2023-08-28T18:57:23",3,"NO ERROR",29.48,46.2,985.36,0.93,1.33,1.37],
    [2170,363171,"Vazduh","Libelium","0004A30B0021DF70",44.979,16.7091,"","","Prijedor","",21894257,"2023-08-28T19:58:05",3,"NO ERROR",24.94,81.9,986.66,1.18,1.58,1.69],
    [2171,363171,"Vazduh","Libelium","0004A30B0021DF70",44.979,16.7091,"","","Prijedor","",21896811,"2023-08-28T20:58:47",3,"NO ERROR",21.95,100,988.67,2.04,2.67,2.68],
    [2172,363171,"Vazduh","Libelium","0004A30B0021DF70",44.979,16.7091,"","","Prijedor","",21898574,"2023-08-28T21:59:29",3,"NO ERROR",20.38,100,987.43,1.77,2.47,2.65],
    [2173,363171,"Vazduh","Libelium","0004A30B0021DF70",44.979,16.7091,"","","Prijedor","",21899663,"2023-08-28T23:00:11",3,"NO ERROR",20.68,100,986.73,1.51,1.98,2],
    [2174,363171,"Vazduh","Libelium","0004A30B0021DF70",44.979,16.7091,"","","Prijedor","",21900494,"2023-08-29T00:00:53",3,"NO ERROR",20.29,100,986.53,0.84,1.19,1.2],
    [2175,363171,"Vazduh","Libelium","0004A30B0021DF70",44.979,16.7091,"","","Prijedor","",21901282,"2023-08-29T01:01:36",3,"NO ERROR",20.29,100,986.36,1.41,1.96,1.98],
    [2176,363171,"Vazduh","Libelium","0004A30B0021DF70",44.979,16.7091,"","","Prijedor","",21901965,"2023-08-29T02:02:18",3,"NO ERROR",19.29,100,986.51,1.29,1.89,2.02],
    [2177,363171,"Vazduh","Libelium","0004A30B0021DF70",44.979,16.7091,"","","Prijedor","",21902618,"2023-08-29T03:03:00",3,"NO ERROR",19.27,100,986.65,0.8,1.33,2.24],
    [2178,363171,"Vazduh","Libelium","0004A30B0021DF70",44.979,16.7091,"","","Prijedor","",21903302,"2023-08-29T04:03:42",3,"NO ERROR",18.64,100,986.33,1.56,1.91,1.92],
    [2179,363171,"Vazduh","Libelium","0004A30B0021DF70",44.979,16.7091,"","","Prijedor","",21904033,"2023-08-29T05:04:24",3,"NO ERROR",18.2,100,985.92,1.25,1.76,1.8],
    [2180,363171,"Vazduh","Libelium","0004A30B0021DF70",44.979,16.7091,"","","Prijedor","",21904751,"2023-08-29T06:05:06",3,"NO ERROR",17.64,100,985.94,2.23,2.72,2.75],
    [2181,363171,"Vazduh","Libelium","0004A30B0021DF70",44.979,16.7091,"","","Prijedor","",21905459,"2023-08-29T07:05:47",3,"NO ERROR",18.06,100,986.2,1.18,1.45,1.46],
    [2182,363171,"Vazduh","Libelium","0004A30B0021DF70",44.979,16.7091,"","","Prijedor","",21906151,"2023-08-29T08:06:29",3,"NO ERROR",21.76,100,986.2,0.36,0.47,0.49],
    [2183,363171,"Vazduh","Libelium","0004A30B0021DF70",44.979,16.7091,"","","Prijedor","",21906853,"2023-08-29T09:07:11",3,"NO ERROR",24.93,83,985.93,0.75,0.95,0.95],
    [2184,363171,"Vazduh","Libelium","0004A30B0021DF70",44.979,16.7091,"","","Prijedor","",21907479,"2023-08-29T10:07:53",3,"NO ERROR",26.17,66.8,986.12,0.51,0.72,0.75],
    [2185,363171,"Vazduh","Libelium","0004A30B0021DF70",44.979,16.7091,"","","Prijedor","",21908129,"2023-08-29T11:08:35",3,"NO ERROR",26.9,55.1,985.73,0.27,0.34,0.35],
    [2186,363171,"Vazduh","Libelium","0004A30B0021DF70",44.979,16.7091,"","","Prijedor","",21908838,"2023-08-29T12:09:17",3,"NO ERROR",29.24,45.4,985.4,0.5,0.67,0.68],
    [2187,363171,"Vazduh","Libelium","0004A30B0021DF70",44.979,16.7091,"","","Prijedor","",21909924,"2023-08-29T13:09:59",3,"NO ERROR",29.24,43.8,985.44,0.34,0.46,0.47],
    [2188,363171,"Vazduh","Libelium","0004A30B0021DF70",44.979,16.7091,"","","Prijedor","",21910613,"2023-08-29T14:10:42",3,"NO ERROR",26.85,52.4,986.19,0.33,0.54,1.94],
    [2189,363171,"Vazduh","Libelium","0004A30B0021DF70",44.979,16.7091,"","","Prijedor","",21911330,"2023-08-29T15:11:24",3,"NO ERROR",23.5,72.6,986.54,0.55,0.93,1.43],
    [2190,363171,"Vazduh","Libelium","0004A30B0021DF70",44.979,16.7091,"","","Prijedor","",21912015,"2023-08-29T16:12:06",3,"NO ERROR",23.2,83,986.52,0.38,0.45,0.45],
    [2191,363171,"Vazduh","Libelium","0004A30B0021DF70",44.979,16.7091,"","","Prijedor","",21912696,"2023-08-29T17:12:48",3,"NO ERROR",24.37,65.2,986.51,0.68,0.84,0.86],
    [2192,363171,"Vazduh","Libelium","0004A30B0021DF70",44.979,16.7091,"","","Prijedor","",21913370,"2023-08-29T18:13:30",3,"NO ERROR",23.34,68.4,987.04,0.37,0.44,0.44],
    [2193,363171,"Vazduh","Libelium","0004A30B0021DF70",44.979,16.7091,"","","Prijedor","",21913973,"2023-08-29T19:14:12",3,"NO ERROR",22.44,74,987.72,0.46,0.81,1],
    [2194,363171,"Vazduh","Libelium","0004A30B0021DF70",44.979,16.7091,"","","Prijedor","",21915532,"2023-08-29T20:14:54",3,"NO ERROR",19.48,100,988.37,0.42,0.62,0.64],
    [2195,363171,"Vazduh","Libelium","0004A30B0021DF70",44.979,16.7091,"","","Prijedor","",21917536,"2023-08-29T21:15:36",3,"NO ERROR",18.53,100,988.67,0.48,0.9,1.11],
    [2196,363171,"Vazduh","Libelium","0004A30B0021DF70",44.979,16.7091,"","","Prijedor","",21919027,"2023-08-29T22:16:18",3,"NO ERROR",18.63,100,988.45,0.2,0.28,0.28],
    [2197,363171,"Vazduh","Libelium","0004A30B0021DF70",44.979,16.7091,"","","Prijedor","",21920291,"2023-08-29T23:17:00",3,"NO ERROR",18.29,100,988.83,0.74,1.11,1.24],
    [2198,363171,"Vazduh","Libelium","0004A30B0021DF70",44.979,16.7091,"","","Prijedor","",21921618,"2023-08-30T00:17:42",3,"NO ERROR",17.93,100,988.79,0.75,1.15,1.17],
    [2199,363171,"Vazduh","Libelium","0004A30B0021DF70",44.979,16.7091,"","","Prijedor","",21922673,"2023-08-30T01:18:24",3,"NO ERROR",17.53,100,989.16,0.67,1.11,1.76],
    [2200,363171,"Vazduh","Libelium","0004A30B0021DF70",44.979,16.7091,"","","Prijedor","",21923680,"2023-08-30T02:19:06",3,"NO ERROR",17.49,100,989.28,0.13,0.26,0.28],
    [2201,363171,"Vazduh","Libelium","0004A30B0021DF70",44.979,16.7091,"","","Prijedor","",21924675,"2023-08-30T03:19:48",3,"NO ERROR",17.42,100,989.58,0.44,0.66,0.69],
    [2202,363171,"Vazduh","Libelium","0004A30B0021DF70",44.979,16.7091,"","","Prijedor","",21925666,"2023-08-30T04:20:31",3,"NO ERROR",16.96,100,989.64,0.33,0.41,0.42],
    [2203,363171,"Vazduh","Libelium","0004A30B0021DF70",44.979,16.7091,"","","Prijedor","",21926679,"2023-08-30T05:21:13",3,"NO ERROR",16.8,100,989.63,0.38,0.54,0.55],
    [2204,363171,"Vazduh","Libelium","0004A30B0021DF70",44.979,16.7091,"","","Prijedor","",21927549,"2023-08-30T06:21:55",3,"NO ERROR",17.32,100,990.06,0.41,0.57,0.66],
    [2205,363171,"Vazduh","Libelium","0004A30B0021DF70",44.979,16.7091,"","","Prijedor","",21928238,"2023-08-30T07:22:42",3,"NO ERROR",17.55,100,990.41,0.15,0.24,0.25],
    [2206,363171,"Vazduh","Libelium","0004A30B0021DF70",44.979,16.7091,"","","Prijedor","",21928912,"2023-08-30T08:23:23",3,"NO ERROR",17.95,100,990.69,0.29,0.5,0.5],
    [2207,363171,"Vazduh","Libelium","0004A30B0021DF70",44.979,16.7091,"","","Prijedor","",21929618,"2023-08-30T09:24:05",3,"NO ERROR",18.49,100,990.97,0.25,0.34,0.34],
    [2208,363171,"Vazduh","Libelium","0004A30B0021DF70",44.979,16.7091,"","","Prijedor","",21930276,"2023-08-30T10:24:47",3,"NO ERROR",19.02,100,991.64,0.15,0.19,0.19],
    [2209,363171,"Vazduh","Libelium","0004A30B0021DF70",44.979,16.7091,"","","Prijedor","",21930917,"2023-08-30T11:25:29",3,"NO ERROR",21.61,94.2,991.54,0.07,0.11,0.13],
    [2210,363171,"Vazduh","Libelium","0004A30B0021DF70",44.979,16.7091,"","","Prijedor","",21931620,"2023-08-30T12:26:17",3,"NO ERROR",21.97,89.4,991.24,0.49,0.58,0.58],
    [2211,363171,"Vazduh","Libelium","0004A30B0021DF70",44.979,16.7091,"","","Prijedor","",21932400,"2023-08-30T13:26:59",3,"NO ERROR",24.23,74.8,991.22,0.35,0.53,0.55],
    [2212,363171,"Vazduh","Libelium","0004A30B0021DF70",44.979,16.7091,"","","Prijedor","",21933105,"2023-08-30T14:27:40",3,"NO ERROR",23,77.2,991.29,0.13,0.23,0.24],
    [2213,363171,"Vazduh","Libelium","0004A30B0021DF70",44.979,16.7091,"","","Prijedor","",21933834,"2023-08-30T15:28:22",3,"NO ERROR",21.79,92,991.36,0.3,0.39,0.4],
    [2214,363171,"Vazduh","Libelium","0004A30B0021DF70",44.979,16.7091,"","","Prijedor","",21934538,"2023-08-30T16:29:03",3,"NO ERROR",23.93,78.2,991.72,0.19,0.26,0.26],
    [2215,363171,"Vazduh","Libelium","0004A30B0021DF70",44.979,16.7091,"","","Prijedor","",21935256,"2023-08-30T17:29:52",3,"NO ERROR",22.48,81.1,991.93,0.16,0.28,0.3],
    [2216,363171,"Vazduh","Libelium","0004A30B0021DF70",44.979,16.7091,"","","Prijedor","",21935922,"2023-08-30T18:30:34",3,"NO ERROR",21.66,84.5,992.37,0.3,0.49,0.52],
    [2217,363171,"Vazduh","Libelium","0004A30B0021DF70",44.979,16.7091,"","","Prijedor","",21936598,"2023-08-30T19:31:15",3,"NO ERROR",20.55,100,992.54,0.45,0.55,0.55],
    [2218,363171,"Vazduh","Libelium","0004A30B0021DF70",44.979,16.7091,"","","Prijedor","",21938150,"2023-08-30T20:31:57",3,"NO ERROR",19.96,100,993.1,0.18,0.22,0.22],
    [2219,363171,"Vazduh","Libelium","0004A30B0021DF70",44.979,16.7091,"","","Prijedor","",21939289,"2023-08-30T21:32:39",3,"NO ERROR",19.57,100,993.42,0.29,0.39,0.4],
    [2220,363171,"Vazduh","Libelium","0004A30B0021DF70",44.979,16.7091,"","","Prijedor","",21940361,"2023-08-30T22:33:21",3,"NO ERROR",18.52,100,993.67,0.58,0.79,0.81],
    [2221,363171,"Vazduh","Libelium","0004A30B0021DF70",44.979,16.7091,"","","Prijedor","",21941406,"2023-08-30T23:34:03",3,"NO ERROR",17.95,100,993.84,0.55,1.02,1.24],
    [2222,363171,"Vazduh","Libelium","0004A30B0021DF70",44.979,16.7091,"","","Prijedor","",21942706,"2023-08-31T00:34:45",3,"NO ERROR",17.28,100,993.98,0.48,0.74,0.86],
    [2223,363171,"Vazduh","Libelium","0004A30B0021DF70",44.979,16.7091,"","","Prijedor","",21943645,"2023-08-31T01:35:26",3,"NO ERROR",17.25,100,994.31,0.67,0.89,0.89],
    [2224,363171,"Vazduh","Libelium","0004A30B0021DF70",44.979,16.7091,"","","Prijedor","",21944565,"2023-08-31T02:36:07",3,"NO ERROR",16.82,100,993.95,0.86,1.31,1.33],
    [2225,363171,"Vazduh","Libelium","0004A30B0021DF70",44.979,16.7091,"","","Prijedor","",21945541,"2023-08-31T03:36:49",3,"NO ERROR",16.36,100,994.22,0.6,0.77,0.78],
    [2226,363171,"Vazduh","Libelium","0004A30B0021DF70",44.979,16.7091,"","","Prijedor","",21946557,"2023-08-31T04:37:30",3,"NO ERROR",16.68,100,994.44,0.26,0.51,2.37],
    [2227,363171,"Vazduh","Libelium","0004A30B0021DF70",44.979,16.7091,"","","Prijedor","",21947594,"2023-08-31T05:38:12",3,"NO ERROR",16.63,100,994.7,0.32,0.51,0.62],
    [2228,363171,"Vazduh","Libelium","0004A30B0021DF70",44.979,16.7091,"","","Prijedor","",21948398,"2023-08-31T06:38:54",3,"NO ERROR",16.77,100,995.59,0.85,1.22,1.74],
    [2229,363171,"Vazduh","Libelium","0004A30B0021DF70",44.979,16.7091,"","","Prijedor","",21949182,"2023-08-31T07:39:37",3,"NO ERROR",16.88,100,996.44,1.06,1.27,1.29],
    [2230,363171,"Vazduh","Libelium","0004A30B0021DF70",44.979,16.7091,"","","Prijedor","",21949919,"2023-08-31T08:40:18",3,"NO ERROR",17.92,100,997.23,0.2,0.33,0.34],
    [2231,363171,"Vazduh","Libelium","0004A30B0021DF70",44.979,16.7091,"","","Prijedor","",21950618,"2023-08-31T09:41:00",3,"NO ERROR",16.95,100,998.23,0,0,0],
    [2232,363171,"Vazduh","Libelium","0004A30B0021DF70",44.979,16.7091,"","","Prijedor","",21951296,"2023-08-31T10:41:42",3,"NO ERROR",16.01,100,999.45,0.14,0.16,0.16],
    [2233,363171,"Vazduh","Libelium","0004A30B0021DF70",44.979,16.7091,"","","Prijedor","",21951967,"2023-08-31T11:42:30",3,"NO ERROR",17.68,100,1000,0.29,0.49,1.01],
    [2234,363171,"Vazduh","Libelium","0004A30B0021DF70",44.979,16.7091,"","","Prijedor","",21952701,"2023-08-31T12:43:11",3,"NO ERROR",19.44,100,1000.38,0.04,0.07,0.07],
    [2235,363171,"Vazduh","Libelium","0004A30B0021DF70",44.979,16.7091,"","","Prijedor","",21953426,"2023-08-31T13:43:52",3,"NO ERROR",21.3,100,1000.66,0.02,0.02,0.02],
    [2236,363171,"Vazduh","Libelium","0004A30B0021DF70",44.979,16.7091,"","","Prijedor","",21954197,"2023-08-31T14:44:34",3,"NO ERROR",21.98,90.7,1000.7,0.12,0.13,0.13],
    [2237,363171,"Vazduh","Libelium","0004A30B0021DF70",44.979,16.7091,"","","Prijedor","",21954942,"2023-08-31T15:45:15",3,"NO ERROR",22.77,81.6,1000.55,0.07,0.09,0.09],
    [2238,363171,"Vazduh","Libelium","0004A30B0021DF70",44.979,16.7091,"","","Prijedor","",21955684,"2023-08-31T16:45:57",3,"NO ERROR",27.86,58.9,1000.46,0.06,0.11,0.11],
    [2239,363171,"Vazduh","Libelium","0004A30B0021DF70",44.979,16.7091,"","","Prijedor","",21956427,"2023-08-31T17:46:38",3,"NO ERROR",22.1,79.1,1000.87,0.02,0.02,0.02],
    [2240,363171,"Vazduh","Libelium","0004A30B0021DF70",44.979,16.7091,"","","Prijedor","",21957137,"2023-08-31T18:47:20",3,"NO ERROR",20.92,84.5,1000.96,0.06,0.07,0.07],
    [2241,363171,"Vazduh","Libelium","0004A30B0021DF70",44.979,16.7091,"","","Prijedor","",21957983,"2023-08-31T19:48:02",3,"NO ERROR",19.62,96.2,1001.2,0.1,0.31,0.92],
    [2242,363171,"Vazduh","Libelium","0004A30B0021DF70",44.979,16.7091,"","","Prijedor","",21959590,"2023-08-31T20:48:44",3,"NO ERROR",18.31,100,1002.13,0.18,0.38,0.55],
    [2243,363171,"Vazduh","Libelium","0004A30B0021DF70",44.979,16.7091,"","","Prijedor","",21960670,"2023-08-31T21:49:26",3,"NO ERROR",16.6,100,1002.34,0.32,0.67,0.86],
    [2244,363171,"Vazduh","Libelium","0004A30B0021DF70",44.979,16.7091,"","","Prijedor","",21961735,"2023-08-31T22:50:08",3,"NO ERROR",15.2,100,1002.71,0.31,0.38,0.39],
    [2245,363171,"Vazduh","Libelium","0004A30B0021DF70",44.979,16.7091,"","","Prijedor","",21962781,"2023-08-31T23:50:50",3,"NO ERROR",15.05,100,1003.14,0.33,0.42,0.43],
    [2246,363171,"Vazduh","Libelium","0004A30B0021DF70",44.979,16.7091,"","","Prijedor","",21964028,"2023-09-01T00:51:32",3,"NO ERROR",14.21,100,1003.38,0.14,0.23,0.24],
    [2247,363171,"Vazduh","Libelium","0004A30B0021DF70",44.979,16.7091,"","","Prijedor","",21965053,"2023-09-01T01:52:20",3,"NO ERROR",14.47,100,1003.49,1.14,1.42,1.44],
    [2248,363171,"Vazduh","Libelium","0004A30B0021DF70",44.979,16.7091,"","","Prijedor","",21966113,"2023-09-01T02:53:02",3,"NO ERROR",13.57,100,1003.53,0.42,0.51,0.51],
    [2249,363171,"Vazduh","Libelium","0004A30B0021DF70",44.979,16.7091,"","","Prijedor","",21967148,"2023-09-01T03:53:44",3,"NO ERROR",13.76,100,1003.58,3.57,16.68,442.55],
    [2250,363171,"Vazduh","Libelium","0004A30B0021DF70",44.979,16.7091,"","","Prijedor","",21968216,"2023-09-01T04:54:25",3,"NO ERROR",13.73,100,1003.79,1.36,6.33,149.52],
    [2251,363171,"Vazduh","Libelium","0004A30B0021DF70",44.979,16.7091,"","","Prijedor","",21969284,"2023-09-01T05:55:06",3,"NO ERROR",13.73,100,1003.89,3.56,8.55,207.77],
    [2252,363171,"Vazduh","Libelium","0004A30B0021DF70",44.979,16.7091,"","","Prijedor","",21970024,"2023-09-01T06:55:47",3,"NO ERROR",13.53,100,1004.43,1.41,8.28,216.58],
    [2253,363171,"Vazduh","Libelium","0004A30B0021DF70",44.979,16.7091,"","","Prijedor","",21970757,"2023-09-01T07:56:29",3,"NO ERROR",14.37,100,1004.64,0.59,1.09,7.6],
    [2254,363171,"Vazduh","Libelium","0004A30B0021DF70",44.979,16.7091,"","","Prijedor","",21971567,"2023-09-01T08:57:12",3,"NO ERROR",17.55,100,1004.83,0.15,0.29,0.43],
    [2255,363171,"Vazduh","Libelium","0004A30B0021DF70",44.979,16.7091,"","","Prijedor","",21972331,"2023-09-01T09:57:54",3,"NO ERROR",19.6,100,1005.14,0.28,0.4,0.41],
    [2256,363171,"Vazduh","Libelium","0004A30B0021DF70",44.979,16.7091,"","","Prijedor","",21973036,"2023-09-01T10:58:36",3,"NO ERROR",21.43,88.8,1004.79,0.07,0.17,0.24],
    [2257,363171,"Vazduh","Libelium","0004A30B0021DF70",44.979,16.7091,"","","Prijedor","",21973823,"2023-09-01T11:59:18",3,"NO ERROR",23.79,71.9,1004.58,0.05,0.09,0.09],
    [2258,363171,"Vazduh","Libelium","0004A30B0021DF70",44.979,16.7091,"","","Prijedor","",21974612,"2023-09-01T13:00:00",3,"NO ERROR",26.79,54.2,1004.31,0.08,0.09,0.09],
    [2259,363171,"Vazduh","Libelium","0004A30B0021DF70",44.979,16.7091,"","","Prijedor","",21975399,"2023-09-01T14:00:42",3,"NO ERROR",27.91,48.6,1003.81,0.14,0.2,0.21],
    [2260,363171,"Vazduh","Libelium","0004A30B0021DF70",44.979,16.7091,"","","Prijedor","",21976224,"2023-09-01T15:01:24",3,"NO ERROR",28.55,44.3,1003.47,0.04,0.07,0.07],
    [2261,363171,"Vazduh","Libelium","0004A30B0021DF70",44.979,16.7091,"","","Prijedor","",21976946,"2023-09-01T16:02:06",3,"NO ERROR",32.49,42,1002.96,0.17,0.22,0.22],
    [2262,363171,"Vazduh","Libelium","0004A30B0021DF70",44.979,16.7091,"","","Prijedor","",21977694,"2023-09-01T17:02:48",3,"NO ERROR",31.44,41.6,1002.64,0.07,0.18,4.44],
    [2263,363171,"Vazduh","Libelium","0004A30B0021DF70",44.979,16.7091,"","","Prijedor","",21978424,"2023-09-01T18:03:30",3,"NO ERROR",27.27,49.4,1002.56,0.19,0.25,0.25],
    [2264,363171,"Vazduh","Libelium","0004A30B0021DF70",44.979,16.7091,"","","Prijedor","",21979111,"2023-09-01T19:04:18",3,"NO ERROR",26.19,54,1002.48,0.2,0.28,0.29],
    [2265,363171,"Vazduh","Libelium","0004A30B0021DF70",44.979,16.7091,"","","Prijedor","",21980547,"2023-09-01T20:05:00",3,"NO ERROR",23.72,74.5,1002.98,0.51,0.67,0.67],
    [2266,363171,"Vazduh","Libelium","0004A30B0021DF70",44.979,16.7091,"","","Prijedor","",21982509,"2023-09-01T21:05:43",3,"NO ERROR",21.72,85.1,1003.38,0.57,0.8,0.81],
    [2267,363171,"Vazduh","Libelium","0004A30B0021DF70",44.979,16.7091,"","","Prijedor","",21983969,"2023-09-01T22:06:25",3,"NO ERROR",19.33,100,1003.88,0.32,0.45,0.46],
    [2268,363171,"Vazduh","Libelium","0004A30B0021DF70",44.979,16.7091,"","","Prijedor","",21985170,"2023-09-01T23:07:07",3,"NO ERROR",18.4,100,1004.07,0.25,0.35,0.36],
    [2269,363171,"Vazduh","Libelium","0004A30B0021DF70",44.979,16.7091,"","","Prijedor","",21986500,"2023-09-02T00:07:55",3,"NO ERROR",17.4,100,1004.24,0.82,1.21,1.24],
    [2270,363171,"Vazduh","Libelium","0004A30B0021DF70",44.979,16.7091,"","","Prijedor","",21987633,"2023-09-02T01:08:37",3,"NO ERROR",17.04,100,1004.51,0.21,0.36,0.36],
    [2271,363171,"Vazduh","Libelium","0004A30B0021DF70",44.979,16.7091,"","","Prijedor","",21988651,"2023-09-02T02:09:19",3,"NO ERROR",15.94,100,1004.56,0.6,0.83,0.86],
    [2272,363171,"Vazduh","Libelium","0004A30B0021DF70",44.979,16.7091,"","","Prijedor","",21989638,"2023-09-02T03:10:01",3,"NO ERROR",15.07,100,1004.6,0.2,0.28,0.29],
    [2273,363171,"Vazduh","Libelium","0004A30B0021DF70",44.979,16.7091,"","","Prijedor","",21990653,"2023-09-02T04:10:43",3,"NO ERROR",14.77,100,1004.72,0.3,0.38,0.39],
    [2274,363171,"Vazduh","Libelium","0004A30B0021DF70",44.979,16.7091,"","","Prijedor","",21991707,"2023-09-02T05:11:25",3,"NO ERROR",13.88,100,1004.61,0.08,0.08,0.08],
    [2275,363171,"Vazduh","Libelium","0004A30B0021DF70",44.979,16.7091,"","","Prijedor","",21992635,"2023-09-02T06:12:06",3,"NO ERROR",13.39,100,1004.83,0.22,0.34,0.34],
    [2276,363171,"Vazduh","Libelium","0004A30B0021DF70",44.979,16.7091,"","","Prijedor","",21993363,"2023-09-02T07:12:47",3,"NO ERROR",16.16,100,1005.09,0.41,0.53,0.54],
    [2277,363171,"Vazduh","Libelium","0004A30B0021DF70",44.979,16.7091,"","","Prijedor","",21994065,"2023-09-02T08:13:28",3,"NO ERROR",21.44,84.3,1005.26,0.11,0.23,0.25],
    [2278,363171,"Vazduh","Libelium","0004A30B0021DF70",44.979,16.7091,"","","Prijedor","",21994821,"2023-09-02T09:14:10",3,"NO ERROR",24,76.1,1005.59,0.25,0.35,0.36],
    [2279,363171,"Vazduh","Libelium","0004A30B0021DF70",44.979,16.7091,"","","Prijedor","",21995545,"2023-09-02T10:14:53",3,"NO ERROR",24.03,68.9,1005.46,0.45,0.79,1.55],
    [2280,363171,"Vazduh","Libelium","0004A30B0021DF70",44.979,16.7091,"","","Prijedor","",21996184,"2023-09-02T11:15:35",3,"NO ERROR",26.29,66.7,1005.55,0.13,0.21,0.29],
    [2281,363171,"Vazduh","Libelium","0004A30B0021DF70",44.979,16.7091,"","","Prijedor","",21996893,"2023-09-02T12:16:17",3,"NO ERROR",27.27,58.9,1005.16,0.18,0.2,0.2],
    [2282,363171,"Vazduh","Libelium","0004A30B0021DF70",44.979,16.7091,"","","Prijedor","",21997632,"2023-09-02T13:17:05",3,"NO ERROR",29.53,48.4,1004.65,0.12,0.34,0.8],
    [2283,363171,"Vazduh","Libelium","0004A30B0021DF70",44.979,16.7091,"","","Prijedor","",21998388,"2023-09-02T14:17:46",3,"NO ERROR",30.8,45.3,1004.49,0.16,0.21,0.21],
    [2284,363171,"Vazduh","Libelium","0004A30B0021DF70",44.979,16.7091,"","","Prijedor","",21999123,"2023-09-02T15:18:28",3,"NO ERROR",34.04,40.4,1004.14,0.03,0.05,0.06],
    [2285,363171,"Vazduh","Libelium","0004A30B0021DF70",44.979,16.7091,"","","Prijedor","",21999816,"2023-09-02T16:19:10",3,"NO ERROR",34.3,41.5,1003.86,0.1,0.13,0.13],
    [2286,363171,"Vazduh","Libelium","0004A30B0021DF70",44.979,16.7091,"","","Prijedor","",22000524,"2023-09-02T17:19:52",3,"NO ERROR",32.76,44.9,1003.75,0.09,0.1,0.1],
    [2287,363171,"Vazduh","Libelium","0004A30B0021DF70",44.979,16.7091,"","","Prijedor","",22001202,"2023-09-02T18:20:40",3,"NO ERROR",28.65,55,1004.16,0.1,0.25,0.79],
    [2288,363171,"Vazduh","Libelium","0004A30B0021DF70",44.979,16.7091,"","","Prijedor","",22001857,"2023-09-02T19:21:22",3,"NO ERROR",27,63.8,1004.49,0.27,0.48,0.51],
    [2289,363171,"Vazduh","Libelium","0004A30B0021DF70",44.979,16.7091,"","","Prijedor","",22003702,"2023-09-02T20:22:04",3,"NO ERROR",24.59,77.8,1004.95,0.55,0.7,0.7],
    [2290,363171,"Vazduh","Libelium","0004A30B0021DF70",44.979,16.7091,"","","Prijedor","",22005553,"2023-09-02T21:22:47",3,"NO ERROR",22.4,100,1005.78,0.77,0.92,0.94],
    [2291,363171,"Vazduh","Libelium","0004A30B0021DF70",44.979,16.7091,"","","Prijedor","",22007167,"2023-09-02T22:23:29",3,"NO ERROR",20.74,100,1005.96,0.56,0.82,0.96],
    [2292,363171,"Vazduh","Libelium","0004A30B0021DF70",44.979,16.7091,"","","Prijedor","",22008569,"2023-09-02T23:24:11",3,"NO ERROR",19.41,100,1006.09,0.57,0.69,0.7],
    [2293,363171,"Vazduh","Libelium","0004A30B0021DF70",44.979,16.7091,"","","Prijedor","",22010015,"2023-09-03T00:24:53",3,"NO ERROR",18.24,100,1006.07,0.32,0.61,0.8],
    [2294,363171,"Vazduh","Libelium","0004A30B0021DF70",44.979,16.7091,"","","Prijedor","",22011176,"2023-09-03T01:25:35",3,"NO ERROR",17.57,100,1006.16,0.54,0.56,0.56],
    [2295,363171,"Vazduh","Libelium","0004A30B0021DF70",44.979,16.7091,"","","Prijedor","",22012195,"2023-09-03T02:26:17",3,"NO ERROR",16.53,100,1006.16,0.22,0.25,0.25],
    [2296,363171,"Vazduh","Libelium","0004A30B0021DF70",44.979,16.7091,"","","Prijedor","",22013193,"2023-09-03T03:26:59",3,"NO ERROR",16.52,100,1005.67,0.48,0.71,0.82],
    [2297,363171,"Vazduh","Libelium","0004A30B0021DF70",44.979,16.7091,"","","Prijedor","",22014177,"2023-09-03T04:27:41",3,"NO ERROR",15.84,100,1005.96,5.15,7.75,97.7],
    [2298,363171,"Vazduh","Libelium","0004A30B0021DF70",44.979,16.7091,"","","Prijedor","",22015191,"2023-09-03T05:28:23",3,"NO ERROR",16.09,100,1005.83,1.09,1.82,23.73],
    [2299,363171,"Vazduh","Libelium","0004A30B0021DF70",44.979,16.7091,"","","Prijedor","",22016057,"2023-09-03T06:29:05",3,"NO ERROR",15.69,100,1006.49,1.58,5.73,165.66],
    [2300,363171,"Vazduh","Libelium","0004A30B0021DF70",44.979,16.7091,"","","Prijedor","",22016787,"2023-09-03T07:29:47",3,"NO ERROR",16.08,100,1006.77,1.22,3.11,50.91],
    [2301,363171,"Vazduh","Libelium","0004A30B0021DF70",44.979,16.7091,"","","Prijedor","",22017492,"2023-09-03T08:30:29",3,"NO ERROR",18.72,100,1006.95,0.14,0.18,0.18],
    [2302,363171,"Vazduh","Libelium","0004A30B0021DF70",44.979,16.7091,"","","Prijedor","",22018262,"2023-09-03T09:31:11",3,"NO ERROR",21.27,98.4,1006.95,0.16,0.21,0.21],
    [2303,363171,"Vazduh","Libelium","0004A30B0021DF70",44.979,16.7091,"","","Prijedor","",22018973,"2023-09-03T10:31:53",3,"NO ERROR",23.31,88.7,1007.14,0.16,0.34,0.69],
    [2304,363171,"Vazduh","Libelium","0004A30B0021DF70",44.979,16.7091,"","","Prijedor","",22019619,"2023-09-03T11:32:36",3,"NO ERROR",27.78,74.8,1006.75,0.14,0.2,0.26],
    [2305,363171,"Vazduh","Libelium","0004A30B0021DF70",44.979,16.7091,"","","Prijedor","",22020379,"2023-09-03T12:33:18",3,"NO ERROR",28.22,68.3,1006.78,0.17,0.28,0.34],
    [2306,363171,"Vazduh","Libelium","0004A30B0021DF70",44.979,16.7091,"","","Prijedor","",22021151,"2023-09-03T13:34:00",3,"NO ERROR",27.41,69.8,1006.87,0.39,0.52,0.52],
    [2307,363171,"Vazduh","Libelium","0004A30B0021DF70",44.979,16.7091,"","","Prijedor","",22021876,"2023-09-03T14:34:42",3,"NO ERROR",28.07,70.1,1006.72,0.43,0.5,0.5],
    [2308,363171,"Vazduh","Libelium","0004A30B0021DF70",44.979,16.7091,"","","Prijedor","",22022665,"2023-09-03T15:35:24",3,"NO ERROR",28.23,70.2,1006.65,0.17,0.34,0.52],
    [2309,363171,"Vazduh","Libelium","0004A30B0021DF70",44.979,16.7091,"","","Prijedor","",22023416,"2023-09-03T16:36:06",3,"NO ERROR",27.96,59.5,1006.43,0.11,0.12,0.12],
    [2310,363171,"Vazduh","Libelium","0004A30B0021DF70",44.979,16.7091,"","","Prijedor","",22024135,"2023-09-03T17:36:48",3,"NO ERROR",26.35,65.3,1006.1,0.06,0.17,0.26],
    [2311,363171,"Vazduh","Libelium","0004A30B0021DF70",44.979,16.7091,"","","Prijedor","",22024871,"2023-09-03T18:37:30",3,"NO ERROR",25.13,72.8,1006.29,0.16,0.25,0.27],
    [2312,363171,"Vazduh","Libelium","0004A30B0021DF70",44.979,16.7091,"","","Prijedor","",22025617,"2023-09-03T19:38:12",3,"NO ERROR",23.71,82.7,1006.86,0.38,0.48,0.49],
    [2313,363171,"Vazduh","Libelium","0004A30B0021DF70",44.979,16.7091,"","","Prijedor","",22027813,"2023-09-03T20:38:54",3,"NO ERROR",23.23,85,1007.49,0.12,0.12,0.12],
    [2314,363171,"Vazduh","Libelium","0004A30B0021DF70",44.979,16.7091,"","","Prijedor","",22029574,"2023-09-03T21:39:36",3,"NO ERROR",22.92,83.6,1008.11,0.1,0.14,0.14],
    [2315,363171,"Vazduh","Libelium","0004A30B0021DF70",44.979,16.7091,"","","Prijedor","",22031023,"2023-09-03T22:40:18",3,"NO ERROR",21.9,87.4,1008.3,0.07,0.24,0.62],
    [2316,363171,"Vazduh","Libelium","0004A30B0021DF70",44.979,16.7091,"","","Prijedor","",22032263,"2023-09-03T23:41:00",3,"NO ERROR",20.95,91.6,1008.4,0.18,0.21,0.21],
    [2317,363171,"Vazduh","Libelium","0004A30B0021DF70",44.979,16.7091,"","","Prijedor","",22033710,"2023-09-04T00:41:43",3,"NO ERROR",20.1,97.6,1008.3,0.27,0.32,0.32],
    [2318,363171,"Vazduh","Libelium","0004A30B0021DF70",44.979,16.7091,"","","Prijedor","",22034873,"2023-09-04T01:42:25",3,"NO ERROR",20.29,92.8,1008.27,0.08,0.1,0.1],
    [2319,363171,"Vazduh","Libelium","0004A30B0021DF70",44.979,16.7091,"","","Prijedor","",22035987,"2023-09-04T02:43:07",3,"NO ERROR",18.93,100,1008.2,0.12,0.17,0.17],
    [2320,363171,"Vazduh","Libelium","0004A30B0021DF70",44.979,16.7091,"","","Prijedor","",22037074,"2023-09-04T03:43:49",3,"NO ERROR",18.14,100,1008.01,0.14,0.23,0.23],
    [2321,363171,"Vazduh","Libelium","0004A30B0021DF70",44.979,16.7091,"","","Prijedor","",22038178,"2023-09-04T04:44:31",3,"NO ERROR",17.78,100,1008.01,0.14,0.18,0.18],
    [2322,363171,"Vazduh","Libelium","0004A30B0021DF70",44.979,16.7091,"","","Prijedor","",22039324,"2023-09-04T05:45:13",3,"NO ERROR",16.81,100,1007.96,0.26,0.37,0.38],
    [2323,363171,"Vazduh","Libelium","0004A30B0021DF70",44.979,16.7091,"","","Prijedor","",22040221,"2023-09-04T06:45:55",3,"NO ERROR",16.22,100,1008.52,0.21,0.26,0.26],
    [2324,363171,"Vazduh","Libelium","0004A30B0021DF70",44.979,16.7091,"","","Prijedor","",22040954,"2023-09-04T07:46:37",3,"NO ERROR",21.11,82.8,1008.68,0.15,0.26,0.33],
    [2325,363171,"Vazduh","Libelium","0004A30B0021DF70",44.979,16.7091,"","","Prijedor","",22041664,"2023-09-04T08:47:19",3,"NO ERROR",22.72,72,1008.75,0.07,0.11,0.13],
    [2326,363171,"Vazduh","Libelium","0004A30B0021DF70",44.979,16.7091,"","","Prijedor","",22042409,"2023-09-04T09:48:01",3,"NO ERROR",22.59,69.9,1008.95,0.14,0.23,0.29],
    [2327,363171,"Vazduh","Libelium","0004A30B0021DF70",44.979,16.7091,"","","Prijedor","",22043103,"2023-09-04T10:48:43",3,"NO ERROR",23.7,61.6,1008.76,0.46,0.56,0.56],
    [2328,363171,"Vazduh","Libelium","0004A30B0021DF70",44.979,16.7091,"","","Prijedor","",22044565,"2023-09-04T11:49:25",3,"NO ERROR",24.11,59.2,1008.19,0.09,0.12,0.12],
    [2329,363171,"Vazduh","Libelium","0004A30B0021DF70",44.979,16.7091,"","","Prijedor","",22046531,"2023-09-04T12:50:07",3,"NO ERROR",25.09,53.6,1007.97,0.27,0.37,0.38],
    [2330,363171,"Vazduh","Libelium","0004A30B0021DF70",44.979,16.7091,"","","Prijedor","",22047303,"2023-09-04T13:50:56",3,"NO ERROR",25.35,51.9,1007.36,0.16,0.28,0.31],
    [2331,363171,"Vazduh","Libelium","0004A30B0021DF70",44.979,16.7091,"","","Prijedor","",22048055,"2023-09-04T14:51:44",3,"NO ERROR",25.98,50.4,1006.91,0.09,0.12,0.12],
    [2332,363171,"Vazduh","Libelium","0004A30B0021DF70",44.979,16.7091,"","","Prijedor","",22048644,"2023-09-04T15:52:26",3,"NO ERROR",26.69,49.2,1006.35,0.16,0.26,0.27],
    [2333,363171,"Vazduh","Libelium","0004A30B0021DF70",44.979,16.7091,"","","Prijedor","",22049179,"2023-09-04T16:53:08",3,"NO ERROR",27.59,46.6,1006.24,0.18,0.23,0.23],
    [2334,363171,"Vazduh","Libelium","0004A30B0021DF70",44.979,16.7091,"","","Prijedor","",22049725,"2023-09-04T17:53:50",3,"NO ERROR",24.62,52,1006.29,0.15,0.24,0.3],
    [2335,363171,"Vazduh","Libelium","0004A30B0021DF70",44.979,16.7091,"","","Prijedor","",22050239,"2023-09-04T18:54:32",3,"NO ERROR",22.87,58.3,1006.32,0.07,0.07,0.07],
    [2336,363171,"Vazduh","Libelium","0004A30B0021DF70",44.979,16.7091,"","","Prijedor","",22051265,"2023-09-04T19:55:14",3,"NO ERROR",20.98,66.2,1006.77,0.34,0.46,0.46],
    [2337,363171,"Vazduh","Libelium","0004A30B0021DF70",44.979,16.7091,"","","Prijedor","",22052386,"2023-09-04T20:56:02",3,"NO ERROR",20.02,70.1,1007.22,0.14,0.17,0.17],
    [2338,363171,"Vazduh","Libelium","0004A30B0021DF70",44.979,16.7091,"","","Prijedor","",22053299,"2023-09-04T21:56:44",3,"NO ERROR",19.63,69.8,1007.41,0.08,0.13,0.13],
    [2339,363171,"Vazduh","Libelium","0004A30B0021DF70",44.979,16.7091,"","","Prijedor","",22054120,"2023-09-04T22:57:26",3,"NO ERROR",18.49,76.5,1007.63,0.38,0.53,0.53],
    [2340,363171,"Vazduh","Libelium","0004A30B0021DF70",44.979,16.7091,"","","Prijedor","",22055026,"2023-09-04T23:58:08",3,"NO ERROR",17.56,82.9,1007.67,0.2,0.28,0.28],
    [2341,363171,"Vazduh","Libelium","0004A30B0021DF70",44.979,16.7091,"","","Prijedor","",22056137,"2023-09-05T00:58:50",3,"NO ERROR",17.04,86.7,1007.52,0.15,0.19,0.19],
    [2342,363171,"Vazduh","Libelium","0004A30B0021DF70",44.979,16.7091,"","","Prijedor","",22056967,"2023-09-05T01:59:32",3,"NO ERROR",16.67,90.3,1007.57,0.21,0.28,0.28],
    [2343,363171,"Vazduh","Libelium","0004A30B0021DF70",44.979,16.7091,"","","Prijedor","",22057749,"2023-09-05T03:00:15",3,"NO ERROR",16.16,93.1,1007.34,0.2,0.24,0.24],
    [2344,363171,"Vazduh","Libelium","0004A30B0021DF70",44.979,16.7091,"","","Prijedor","",22058522,"2023-09-05T04:00:57",3,"NO ERROR",15.51,98.7,1007.08,0.27,0.44,0.57],
    [2345,363171,"Vazduh","Libelium","0004A30B0021DF70",44.979,16.7091,"","","Prijedor","",22059447,"2023-09-05T05:01:38",3,"NO ERROR",15.63,98.2,1006.99,0.26,0.37,0.37],
    [2346,363171,"Vazduh","Libelium","0004A30B0021DF70",44.979,16.7091,"","","Prijedor","",22060260,"2023-09-05T06:02:19",3,"NO ERROR",14.49,100,1007.32,0.58,0.78,0.79],
    [2347,363171,"Vazduh","Libelium","0004A30B0021DF70",44.979,16.7091,"","","Prijedor","",22060907,"2023-09-05T07:03:01",3,"NO ERROR",15.79,100,1007.73,0.38,0.58,0.69],
    [2348,363171,"Vazduh","Libelium","0004A30B0021DF70",44.979,16.7091,"","","Prijedor","",22061505,"2023-09-05T08:03:43",3,"NO ERROR",21.15,70.7,1007.91,0.16,0.21,0.21],
    [2349,363171,"Vazduh","Libelium","0004A30B0021DF70",44.979,16.7091,"","","Prijedor","",22062098,"2023-09-05T09:04:25",3,"NO ERROR",23.94,60.4,1008.08,0.42,0.55,0.56],
    [2350,363171,"Vazduh","Libelium","0004A30B0021DF70",44.979,16.7091,"","","Prijedor","",22062669,"2023-09-05T10:05:07",3,"NO ERROR",21.6,64.9,1008.09,0.25,0.32,0.32],
    [2351,363171,"Vazduh","Libelium","0004A30B0021DF70",44.979,16.7091,"","","Prijedor","",22063226,"2023-09-05T11:05:49",3,"NO ERROR",22.82,62.8,1007.65,0.2,0.35,0.45],
    [2352,363171,"Vazduh","Libelium","0004A30B0021DF70",44.979,16.7091,"","","Prijedor","",22063832,"2023-09-05T12:06:31",3,"NO ERROR",23.94,58.3,1007.19,0.14,0.23,0.25],
    [2353,363171,"Vazduh","Libelium","0004A30B0021DF70",44.979,16.7091,"","","Prijedor","",22064473,"2023-09-05T13:07:13",3,"NO ERROR",24.17,57.8,1006.94,0.05,0.06,0.06],
    [2354,363171,"Vazduh","Libelium","0004A30B0021DF70",44.979,16.7091,"","","Prijedor","",22065000,"2023-09-05T14:07:55",3,"NO ERROR",25.32,55.6,1006.69,0.08,0.17,2.37],
    [2355,363171,"Vazduh","Libelium","0004A30B0021DF70",44.979,16.7091,"","","Prijedor","",22065591,"2023-09-05T15:08:37",3,"NO ERROR",27.24,51,1006.37,0.09,0.17,0.22],
    [2356,363171,"Vazduh","Libelium","0004A30B0021DF70",44.979,16.7091,"","","Prijedor","",22066152,"2023-09-05T16:09:20",3,"NO ERROR",28.37,47.8,1005.99,0.07,0.07,0.07],
    [2357,363171,"Vazduh","Libelium","0004A30B0021DF70",44.979,16.7091,"","","Prijedor","",22066696,"2023-09-05T17:10:02",3,"NO ERROR",25.6,52,1005.89,0.2,0.27,0.27],
    [2358,363171,"Vazduh","Libelium","0004A30B0021DF70",44.979,16.7091,"","","Prijedor","",22067230,"2023-09-05T18:10:44",3,"NO ERROR",25.54,52.5,1005.98,0.28,0.5,0.53],
    [2359,363171,"Vazduh","Libelium","0004A30B0021DF70",44.979,16.7091,"","","Prijedor","",22067719,"2023-09-05T19:11:26",3,"NO ERROR",23.43,63.1,1006.23,0.48,0.74,0.78],
    [2360,363171,"Vazduh","Libelium","0004A30B0021DF70",44.979,16.7091,"","","Prijedor","",22068922,"2023-09-05T20:12:08",3,"NO ERROR",21.88,74.8,1006.59,0.54,0.81,1.22],
    [2361,363171,"Vazduh","Libelium","0004A30B0021DF70",44.979,16.7091,"","","Prijedor","",22069775,"2023-09-05T21:12:50",3,"NO ERROR",21.08,78,1006.91,0.07,0.07,0.07],
    [2362,363171,"Vazduh","Libelium","0004A30B0021DF70",44.979,16.7091,"","","Prijedor","",22070521,"2023-09-05T22:13:32",3,"NO ERROR",20.34,91.9,1007.04,0.45,0.64,0.67],
    [2363,363171,"Vazduh","Libelium","0004A30B0021DF70",44.979,16.7091,"","","Prijedor","",22071255,"2023-09-05T23:14:14",3,"NO ERROR",18.25,100,1007.08,0.12,0.14,0.14],
    [2364,363171,"Vazduh","Libelium","0004A30B0021DF70",44.979,16.7091,"","","Prijedor","",22072288,"2023-09-06T00:14:56",3,"NO ERROR",18.26,96.7,1007.18,0.1,0.1,0.1],
    [2365,363171,"Vazduh","Libelium","0004A30B0021DF70",44.979,16.7091,"","","Prijedor","",22073098,"2023-09-06T01:15:38",3,"NO ERROR",17.29,100,1007.2,0.67,0.81,0.81],
    [2366,363171,"Vazduh","Libelium","0004A30B0021DF70",44.979,16.7091,"","","Prijedor","",22073832,"2023-09-06T02:16:19",3,"NO ERROR",16.22,100,1007.27,0.59,1.05,2.04],
    [2367,363171,"Vazduh","Libelium","0004A30B0021DF70",44.979,16.7091,"","","Prijedor","",22074513,"2023-09-06T03:17:01",3,"NO ERROR",15.13,100,1007.05,0.64,0.77,0.77],
    [2368,363171,"Vazduh","Libelium","0004A30B0021DF70",44.979,16.7091,"","","Prijedor","",22075233,"2023-09-06T04:17:43",3,"NO ERROR",14.11,100,1007.13,0.18,0.21,0.21],
    [2369,363171,"Vazduh","Libelium","0004A30B0021DF70",44.979,16.7091,"","","Prijedor","",22076032,"2023-09-06T05:18:32",3,"NO ERROR",13.82,100,1006.97,0.55,0.7,0.73],
    [2370,363171,"Vazduh","Libelium","0004A30B0021DF70",44.979,16.7091,"","","Prijedor","",22076792,"2023-09-06T06:19:14",3,"NO ERROR",13.36,100,1007.48,2.11,2.45,2.54],
    [2371,363171,"Vazduh","Libelium","0004A30B0021DF70",44.979,16.7091,"","","Prijedor","",22077367,"2023-09-06T07:19:56",3,"NO ERROR",14.58,100,1007.84,0.58,0.67,0.67],
    [2372,363171,"Vazduh","Libelium","0004A30B0021DF70",44.979,16.7091,"","","Prijedor","",22077920,"2023-09-06T08:20:38",3,"NO ERROR",19.26,96.7,1008.15,0.45,0.59,0.59],
    [2373,363171,"Vazduh","Libelium","0004A30B0021DF70",44.979,16.7091,"","","Prijedor","",22078553,"2023-09-06T09:21:20",3,"NO ERROR",21.96,77.7,1008.18,0.08,0.11,0.11],
    [2374,363171,"Vazduh","Libelium","0004A30B0021DF70",44.979,16.7091,"","","Prijedor","",22079297,"2023-09-06T10:22:02",3,"NO ERROR",22.63,75.7,1007.91,0.04,0.13,0.21],
    [2375,363171,"Vazduh","Libelium","0004A30B0021DF70",44.979,16.7091,"","","Prijedor","",22079786,"2023-09-06T11:22:44",3,"NO ERROR",24.35,63.3,1007.63,0.08,0.13,0.18],
    [2376,363171,"Vazduh","Libelium","0004A30B0021DF70",44.979,16.7091,"","","Prijedor","",22080340,"2023-09-06T12:23:26",3,"NO ERROR",26.81,63.3,1007.12,0.14,0.23,0.23],
    [2377,363171,"Vazduh","Libelium","0004A30B0021DF70",44.979,16.7091,"","","Prijedor","",22080959,"2023-09-06T13:24:08",3,"NO ERROR",28.34,55.1,1006.5,0.16,0.2,0.2],
    [2378,363171,"Vazduh","Libelium","0004A30B0021DF70",44.979,16.7091,"","","Prijedor","",22081534,"2023-09-06T14:24:50",3,"NO ERROR",30.73,43.7,1005.88,0.12,0.3,0.39],
    [2379,363171,"Vazduh","Libelium","0004A30B0021DF70",44.979,16.7091,"","","Prijedor","",22082127,"2023-09-06T15:25:32",3,"NO ERROR",29.47,45,1005.33,0.1,0.11,0.11],
    [2380,363171,"Vazduh","Libelium","0004A30B0021DF70",44.979,16.7091,"","","Prijedor","",22082693,"2023-09-06T16:26:14",3,"NO ERROR",30.22,45.3,1004.83,0.13,0.26,1.22],
    [2381,363171,"Vazduh","Libelium","0004A30B0021DF70",44.979,16.7091,"","","Prijedor","",22083224,"2023-09-06T17:26:57",3,"NO ERROR",28.07,48.4,1004.71,0.25,0.31,0.31],
    [2382,363171,"Vazduh","Libelium","0004A30B0021DF70",44.979,16.7091,"","","Prijedor","",22083736,"2023-09-06T18:27:39",3,"NO ERROR",26.98,50.4,1004.86,0.18,0.2,0.2],
    [2383,363171,"Vazduh","Libelium","0004A30B0021DF70",44.979,16.7091,"","","Prijedor","",22084237,"2023-09-06T19:28:21",3,"NO ERROR",25.05,55.1,1004.98,0.35,0.45,0.46],
    [2384,363171,"Vazduh","Libelium","0004A30B0021DF70",44.979,16.7091,"","","Prijedor","",22085554,"2023-09-06T20:29:03",3,"NO ERROR",22.28,71.4,1005.41,0.81,1.33,3.51],
    [2385,363171,"Vazduh","Libelium","0004A30B0021DF70",44.979,16.7091,"","","Prijedor","",22086422,"2023-09-06T21:29:45",3,"NO ERROR",19.77,96.3,1005.62,0.38,0.59,0.86],
    [2386,363171,"Vazduh","Libelium","0004A30B0021DF70",44.979,16.7091,"","","Prijedor","",22087140,"2023-09-06T22:30:27",3,"NO ERROR",18.46,100,1005.94,0.48,0.64,0.71],
    [2387,363171,"Vazduh","Libelium","0004A30B0021DF70",44.979,16.7091,"","","Prijedor","",22087889,"2023-09-06T23:31:15",3,"NO ERROR",17.33,100,1006.18,0.43,0.53,0.54],
    [2388,363171,"Vazduh","Libelium","0004A30B0021DF70",44.979,16.7091,"","","Prijedor","",22088949,"2023-09-07T00:31:57",3,"NO ERROR",16.5,100,1006.26,0.4,0.57,0.66],
    [2389,363171,"Vazduh","Libelium","0004A30B0021DF70",44.979,16.7091,"","","Prijedor","",22089794,"2023-09-07T01:32:39",3,"NO ERROR",15.91,100,1006.17,0.49,0.63,0.65],
    [2390,363171,"Vazduh","Libelium","0004A30B0021DF70",44.979,16.7091,"","","Prijedor","",22090608,"2023-09-07T02:33:21",3,"NO ERROR",15.05,100,1006.08,0.22,0.26,0.26],
    [2391,363171,"Vazduh","Libelium","0004A30B0021DF70",44.979,16.7091,"","","Prijedor","",22091434,"2023-09-07T03:34:03",3,"NO ERROR",14.52,100,1005.94,0.72,1.04,1.18],
    [2392,363171,"Vazduh","Libelium","0004A30B0021DF70",44.979,16.7091,"","","Prijedor","",22092349,"2023-09-07T04:34:45",3,"NO ERROR",14.18,100,1006.18,0.85,1.19,1.35],
    [2393,363171,"Vazduh","Libelium","0004A30B0021DF70",44.979,16.7091,"","","Prijedor","",22093408,"2023-09-07T05:35:27",3,"NO ERROR",13.31,100,1006.31,4.17,6.04,27.93],
    [2394,363171,"Vazduh","Libelium","0004A30B0021DF70",44.979,16.7091,"","","Prijedor","",22094234,"2023-09-07T06:36:10",3,"NO ERROR",13.17,100,1006.75,2.51,3.34,44.69],
    [2395,363171,"Vazduh","Libelium","0004A30B0021DF70",44.979,16.7091,"","","Prijedor","",22094855,"2023-09-07T07:36:52",3,"NO ERROR",14.55,100,1007.26,1.51,2.38,33.09],
    [2396,363171,"Vazduh","Libelium","0004A30B0021DF70",44.979,16.7091,"","","Prijedor","",22095418,"2023-09-07T08:37:34",3,"NO ERROR",17.77,100,1007.39,0.43,0.53,0.53],
    [2397,363171,"Vazduh","Libelium","0004A30B0021DF70",44.979,16.7091,"","","Prijedor","",22095959,"2023-09-07T09:38:16",3,"NO ERROR",22.15,84,1007.34,0.82,1.02,1.05],
    [2398,363171,"Vazduh","Libelium","0004A30B0021DF70",44.979,16.7091,"","","Prijedor","",22096544,"2023-09-07T10:38:58",3,"NO ERROR",25.06,69.8,1007.14,0.48,0.58,0.58],
    [2399,363171,"Vazduh","Libelium","0004A30B0021DF70",44.979,16.7091,"","","Prijedor","",22097078,"2023-09-07T11:39:46",3,"NO ERROR",25.58,65.6,1006.68,0.92,1.18,1.19],
    [2400,363171,"Vazduh","Libelium","0004A30B0021DF70",44.979,16.7091,"","","Prijedor","",22097673,"2023-09-07T12:40:28",3,"NO ERROR",27.24,58,1005.77,0.13,0.16,0.16],
    [2401,363171,"Vazduh","Libelium","0004A30B0021DF70",44.979,16.7091,"","","Prijedor","",22098262,"2023-09-07T13:41:10",3,"NO ERROR",28.72,48.7,1005.36,0.46,0.69,0.72],
    [2402,363171,"Vazduh","Libelium","0004A30B0021DF70",44.979,16.7091,"","","Prijedor","",22098806,"2023-09-07T14:41:52",3,"NO ERROR",30.57,42.1,1004.76,0.57,0.64,0.64],
    [2403,363171,"Vazduh","Libelium","0004A30B0021DF70",44.979,16.7091,"","","Prijedor","",22099364,"2023-09-07T15:42:34",3,"NO ERROR",30.03,41.6,1004.4,0.35,0.67,0.83],
    [2404,363171,"Vazduh","Libelium","0004A30B0021DF70",44.979,16.7091,"","","Prijedor","",22099885,"2023-09-07T16:43:16",3,"NO ERROR",30.87,39.4,1004.32,0.53,1.15,2.34],
    [2405,363171,"Vazduh","Libelium","0004A30B0021DF70",44.979,16.7091,"","","Prijedor","",22100406,"2023-09-07T17:43:58",3,"NO ERROR",28.18,43.8,1004.39,0.25,0.42,0.57],
    [2406,363171,"Vazduh","Libelium","0004A30B0021DF70",44.979,16.7091,"","","Prijedor","",22100945,"2023-09-07T18:44:40",3,"NO ERROR",26.93,46.9,1004.49,0.5,0.88,0.94],
    [2407,363171,"Vazduh","Libelium","0004A30B0021DF70",44.979,16.7091,"","","Prijedor","",22101925,"2023-09-07T19:45:23",3,"NO ERROR",23.95,58.5,1004.88,0.4,0.62,0.65],
    [2408,363171,"Vazduh","Libelium","0004A30B0021DF70",44.979,16.7091,"","","Prijedor","",22103578,"2023-09-07T20:46:05",3,"NO ERROR",21.65,71.7,1005.28,0.94,1.3,1.33],
    [2409,363171,"Vazduh","Libelium","0004A30B0021DF70",44.979,16.7091,"","","Prijedor","",22104935,"2023-09-07T21:46:47",3,"NO ERROR",19.92,85.1,1005.53,0.2,0.31,0.6],
    [2410,363171,"Vazduh","Libelium","0004A30B0021DF70",44.979,16.7091,"","","Prijedor","",22105961,"2023-09-07T22:47:29",3,"NO ERROR",19.02,91.4,1005.63,0.29,0.44,0.46],
    [2411,363171,"Vazduh","Libelium","0004A30B0021DF70",44.979,16.7091,"","","Prijedor","",22106820,"2023-09-07T23:48:11",3,"NO ERROR",17.71,100,1005.47,0.81,1.14,1.29],
    [2412,363171,"Vazduh","Libelium","0004A30B0021DF70",44.979,16.7091,"","","Prijedor","",22107833,"2023-09-08T00:48:53",3,"NO ERROR",16.27,100,1005.62,0.73,0.85,0.86],
    [2413,363171,"Vazduh","Libelium","0004A30B0021DF70",44.979,16.7091,"","","Prijedor","",22108692,"2023-09-08T01:49:35",3,"NO ERROR",15.66,100,1005.65,0.48,0.66,0.67],
    [2414,363171,"Vazduh","Libelium","0004A30B0021DF70",44.979,16.7091,"","","Prijedor","",22109493,"2023-09-08T02:50:17",3,"NO ERROR",15.35,100,1005.57,0.54,0.57,0.57],
    [2415,363171,"Vazduh","Libelium","0004A30B0021DF70",44.979,16.7091,"","","Prijedor","",22110333,"2023-09-08T03:50:59",3,"NO ERROR",14.55,100,1005.65,0.59,0.76,0.78],
    [2416,363171,"Vazduh","Libelium","0004A30B0021DF70",44.979,16.7091,"","","Prijedor","",22111210,"2023-09-08T04:51:41",3,"NO ERROR",13.86,100,1005.77,1.57,1.85,1.85],
    [2417,363171,"Vazduh","Libelium","0004A30B0021DF70",44.979,16.7091,"","","Prijedor","",22112107,"2023-09-08T05:52:23",3,"NO ERROR",13.45,100,1005.93,0.49,0.67,0.68],
    [2418,363171,"Vazduh","Libelium","0004A30B0021DF70",44.979,16.7091,"","","Prijedor","",22112773,"2023-09-08T06:53:05",3,"NO ERROR",12.67,100,1006.24,0.62,0.87,1],
    [2419,363171,"Vazduh","Libelium","0004A30B0021DF70",44.979,16.7091,"","","Prijedor","",22113368,"2023-09-08T07:53:48",3,"NO ERROR",17.41,98.5,1006.46,0.51,0.61,0.61],
    [2420,363171,"Vazduh","Libelium","0004A30B0021DF70",44.979,16.7091,"","","Prijedor","",22113944,"2023-09-08T08:54:30",3,"NO ERROR",21.26,79.6,1006.79,1.19,2.1,4.71],
    [2421,363171,"Vazduh","Libelium","0004A30B0021DF70",44.979,16.7091,"","","Prijedor","",22114539,"2023-09-08T09:55:12",3,"NO ERROR",23.65,72.1,1006.6,0.28,0.51,1.59],
    [2422,363171,"Vazduh","Libelium","0004A30B0021DF70",44.979,16.7091,"","","Prijedor","",22115106,"2023-09-08T10:55:54",3,"NO ERROR",24.31,68.9,1006.16,0.47,0.7,0.73],
    [2423,363171,"Vazduh","Libelium","0004A30B0021DF70",44.979,16.7091,"","","Prijedor","",22115689,"2023-09-08T11:56:36",3,"NO ERROR",25.96,59.9,1005.92,0.21,0.32,0.38],
    [2424,363171,"Vazduh","Libelium","0004A30B0021DF70",44.979,16.7091,"","","Prijedor","",22116328,"2023-09-08T12:57:18",3,"NO ERROR",28.45,52.1,1005.04,0.27,0.47,0.74],
    [2425,363171,"Vazduh","Libelium","0004A30B0021DF70",44.979,16.7091,"","","Prijedor","",22116909,"2023-09-08T13:58:00",3,"NO ERROR",29.08,48,1004.34,0.17,0.26,0.28],
    [2426,363171,"Vazduh","Libelium","0004A30B0021DF70",44.979,16.7091,"","","Prijedor","",22117501,"2023-09-08T14:58:42",3,"NO ERROR",30.92,40.1,1003.79,0.22,0.24,0.24],
    [2427,363171,"Vazduh","Libelium","0004A30B0021DF70",44.979,16.7091,"","","Prijedor","",22118056,"2023-09-08T15:59:30",3,"NO ERROR",31.68,38.8,1003.34,0.37,0.51,0.54],
    [2428,363171,"Vazduh","Libelium","0004A30B0021DF70",44.979,16.7091,"","","Prijedor","",22118600,"2023-09-08T17:00:11",3,"NO ERROR",31.95,36.1,1003.1,0.26,0.39,2.73],
    [2429,363171,"Vazduh","Libelium","0004A30B0021DF70",44.979,16.7091,"","","Prijedor","",22119132,"2023-09-08T18:00:53",3,"NO ERROR",28.4,40.6,1003.08,0.22,0.31,0.33],
    [2430,363171,"Vazduh","Libelium","0004A30B0021DF70",44.979,16.7091,"","","Prijedor","",22119660,"2023-09-08T19:01:35",3,"NO ERROR",26.44,46,1003.25,0.16,0.23,0.24],
    [2431,363171,"Vazduh","Libelium","0004A30B0021DF70",44.979,16.7091,"","","Prijedor","",22120839,"2023-09-08T20:02:18",3,"NO ERROR",24.16,50.7,1003.57,0.61,0.85,0.87],
    [2432,363171,"Vazduh","Libelium","0004A30B0021DF70",44.979,16.7091,"","","Prijedor","",22121738,"2023-09-08T21:03:00",3,"NO ERROR",21.06,70.9,1003.76,2.36,2.98,4.26],
    [2433,363171,"Vazduh","Libelium","0004A30B0021DF70",44.979,16.7091,"","","Prijedor","",22122623,"2023-09-08T22:03:42",3,"NO ERROR",19.17,83.9,1003.94,2.05,2.31,2.31],
    [2434,363171,"Vazduh","Libelium","0004A30B0021DF70",44.979,16.7091,"","","Prijedor","",22123444,"2023-09-08T23:04:24",3,"NO ERROR",17.48,97.5,1004.05,0.46,0.72,0.82],
    [2435,363171,"Vazduh","Libelium","0004A30B0021DF70",44.979,16.7091,"","","Prijedor","",22124399,"2023-09-09T00:05:06",3,"NO ERROR",16.17,100,1004.23,0.37,0.63,0.74],
    [2436,363171,"Vazduh","Libelium","0004A30B0021DF70",44.979,16.7091,"","","Prijedor","",22125214,"2023-09-09T01:05:48",3,"NO ERROR",15.33,100,1004.06,0.45,0.54,0.55],
    [2437,363171,"Vazduh","Libelium","0004A30B0021DF70",44.979,16.7091,"","","Prijedor","",22125921,"2023-09-09T02:06:30",3,"NO ERROR",14.84,100,1003.87,0.44,0.66,0.68],
    [2438,363171,"Vazduh","Libelium","0004A30B0021DF70",44.979,16.7091,"","","Prijedor","",22126675,"2023-09-09T03:07:12",3,"NO ERROR",13.31,100,1004.13,0.67,0.86,0.87],
    [2439,363171,"Vazduh","Libelium","0004A30B0021DF70",44.979,16.7091,"","","Prijedor","",22127414,"2023-09-09T04:07:54",3,"NO ERROR",13.3,100,1004.11,0.53,0.61,0.61],
    [2440,363171,"Vazduh","Libelium","0004A30B0021DF70",44.979,16.7091,"","","Prijedor","",22128263,"2023-09-09T05:08:36",3,"NO ERROR",12.78,100,1004.37,0.35,0.43,0.44],
    [2441,363171,"Vazduh","Libelium","0004A30B0021DF70",44.979,16.7091,"","","Prijedor","",22129077,"2023-09-09T06:09:18",3,"NO ERROR",11.98,100,1004.41,1.15,1.4,1.41],
    [2442,363171,"Vazduh","Libelium","0004A30B0021DF70",44.979,16.7091,"","","Prijedor","",22129665,"2023-09-09T07:09:59",3,"NO ERROR",12.51,100,1004.77,1.37,1.68,1.69],
    [2443,363171,"Vazduh","Libelium","0004A30B0021DF70",44.979,16.7091,"","","Prijedor","",22130234,"2023-09-09T08:10:41",3,"NO ERROR",17.83,89,1005.04,0.64,0.75,0.75],
    [2444,363171,"Vazduh","Libelium","0004A30B0021DF70",44.979,16.7091,"","","Prijedor","",22130840,"2023-09-09T09:11:24",3,"NO ERROR",21.68,71.8,1005.21,1.1,1.36,1.79],
    [2445,363171,"Vazduh","Libelium","0004A30B0021DF70",44.979,16.7091,"","","Prijedor","",22131383,"2023-09-09T10:12:06",3,"NO ERROR",22.33,71.2,1004.89,0.76,1.17,1.41],
    [2446,363171,"Vazduh","Libelium","0004A30B0021DF70",44.979,16.7091,"","","Prijedor","",22131916,"2023-09-09T11:12:48",3,"NO ERROR",23.49,66.2,1004.81,0.62,0.84,0.93],
    [2447,363171,"Vazduh","Libelium","0004A30B0021DF70",44.979,16.7091,"","","Prijedor","",22132526,"2023-09-09T12:13:30",3,"NO ERROR",25.69,57.9,1004.18,0.25,0.31,0.32],
    [2448,363171,"Vazduh","Libelium","0004A30B0021DF70",44.979,16.7091,"","","Prijedor","",22133148,"2023-09-09T13:14:12",3,"NO ERROR",28.78,51.2,1003.6,0.26,0.41,0.5],
    [2449,363171,"Vazduh","Libelium","0004A30B0021DF70",44.979,16.7091,"","","Prijedor","",22133727,"2023-09-09T14:14:54",3,"NO ERROR",30,42.1,1003.04,0.42,0.61,0.69],
    [2450,363171,"Vazduh","Libelium","0004A30B0021DF70",44.979,16.7091,"","","Prijedor","",22134331,"2023-09-09T15:15:36",3,"NO ERROR",30.64,40,1002.69,0.44,0.9,2.87],
    [2451,363171,"Vazduh","Libelium","0004A30B0021DF70",44.979,16.7091,"","","Prijedor","",22134903,"2023-09-09T16:16:18",3,"NO ERROR",32.63,38.1,1002.43,0.35,0.43,0.45],
    [2452,363171,"Vazduh","Libelium","0004A30B0021DF70",44.979,16.7091,"","","Prijedor","",22135442,"2023-09-09T17:17:00",3,"NO ERROR",30.63,37.5,1002.39,0.17,0.32,0.35],
    [2453,363171,"Vazduh","Libelium","0004A30B0021DF70",44.979,16.7091,"","","Prijedor","",22136013,"2023-09-09T18:17:41",3,"NO ERROR",28.2,41.1,1002.48,0.23,0.36,0.43],
    [2454,363171,"Vazduh","Libelium","0004A30B0021DF70",44.979,16.7091,"","","Prijedor","",22136494,"2023-09-09T19:18:23",3,"NO ERROR",25.53,47.5,1002.6,0.53,0.97,1.7],
    [2455,363171,"Vazduh","Libelium","0004A30B0021DF70",44.979,16.7091,"","","Prijedor","",22137892,"2023-09-09T20:19:04",3,"NO ERROR",22.62,58.2,1003.29,0.29,0.55,0.61],
    [2456,363171,"Vazduh","Libelium","0004A30B0021DF70",44.979,16.7091,"","","Prijedor","",22138819,"2023-09-09T21:19:47",3,"NO ERROR",19.63,81,1003.63,0.61,0.73,0.73],
    [2457,363171,"Vazduh","Libelium","0004A30B0021DF70",44.979,16.7091,"","","Prijedor","",22139577,"2023-09-09T22:20:35",3,"NO ERROR",17.75,99,1003.94,0.46,0.57,0.66],
    [2458,363171,"Vazduh","Libelium","0004A30B0021DF70",44.979,16.7091,"","","Prijedor","",22140346,"2023-09-09T23:21:17",3,"NO ERROR",16.84,100,1004.11,0.61,0.78,0.79],
    [2459,363171,"Vazduh","Libelium","0004A30B0021DF70",44.979,16.7091,"","","Prijedor","",22141339,"2023-09-10T00:21:59",3,"NO ERROR",15.89,100,1004.33,0.51,0.65,0.65],
    [2460,363171,"Vazduh","Libelium","0004A30B0021DF70",44.979,16.7091,"","","Prijedor","",22142095,"2023-09-10T01:22:41",3,"NO ERROR",15.15,100,1004.36,0.18,0.23,0.23],
    [2461,363171,"Vazduh","Libelium","0004A30B0021DF70",44.979,16.7091,"","","Prijedor","",22142834,"2023-09-10T02:23:23",3,"NO ERROR",14.82,100,1004.37,0.22,0.23,0.23],
    [2462,363171,"Vazduh","Libelium","0004A30B0021DF70",44.979,16.7091,"","","Prijedor","",22143614,"2023-09-10T03:24:05",3,"NO ERROR",13.73,100,1004.22,0.52,0.68,0.68],
    [2463,363171,"Vazduh","Libelium","0004A30B0021DF70",44.979,16.7091,"","","Prijedor","",22144323,"2023-09-10T04:24:46",3,"NO ERROR",13.11,100,1004.5,0.45,0.54,0.54],
    [2464,363171,"Vazduh","Libelium","0004A30B0021DF70",44.979,16.7091,"","","Prijedor","",22145132,"2023-09-10T05:25:28",3,"NO ERROR",12.24,100,1004.49,0.43,0.52,0.52],
    [2465,363171,"Vazduh","Libelium","0004A30B0021DF70",44.979,16.7091,"","","Prijedor","",22145812,"2023-09-10T06:26:10",3,"NO ERROR",11.83,100,1004.8,0.47,0.54,0.54],
    [2466,363171,"Vazduh","Libelium","0004A30B0021DF70",44.979,16.7091,"","","Prijedor","",22146349,"2023-09-10T07:26:52",3,"NO ERROR",12.61,100,1005.21,2,2.39,2.4],
    [2467,363171,"Vazduh","Libelium","0004A30B0021DF70",44.979,16.7091,"","","Prijedor","",22146892,"2023-09-10T08:27:33",3,"NO ERROR",19.03,89.3,1005.36,0.11,0.14,0.14],
    [2468,363171,"Vazduh","Libelium","0004A30B0021DF70",44.979,16.7091,"","","Prijedor","",22147448,"2023-09-10T09:28:15",3,"NO ERROR",22.45,71.9,1005.38,0.52,0.65,0.66],
    [2469,363171,"Vazduh","Libelium","0004A30B0021DF70",44.979,16.7091,"","","Prijedor","",22147928,"2023-09-10T10:28:57",3,"NO ERROR",25.34,61.5,1005.02,0.25,0.41,0.7],
    [2470,363171,"Vazduh","Libelium","0004A30B0021DF70",44.979,16.7091,"","","Prijedor","",22148385,"2023-09-10T11:29:38",3,"NO ERROR",24.8,60.3,1004.67,0.64,0.79,0.8],
    [2471,363171,"Vazduh","Libelium","0004A30B0021DF70",44.979,16.7091,"","","Prijedor","",22148914,"2023-09-10T12:30:20",3,"NO ERROR",27.35,49.5,1003.83,0.41,0.52,0.53],
    [2472,363171,"Vazduh","Libelium","0004A30B0021DF70",44.979,16.7091,"","","Prijedor","",22149492,"2023-09-10T13:31:02",3,"NO ERROR",30.21,45.8,1003.24,0.09,0.14,0.14],
    [2473,363171,"Vazduh","Libelium","0004A30B0021DF70",44.979,16.7091,"","","Prijedor","",22150012,"2023-09-10T14:31:44",3,"NO ERROR",33.02,43.6,1002.72,0.44,0.54,0.55],
    [2474,363171,"Vazduh","Libelium","0004A30B0021DF70",44.979,16.7091,"","","Prijedor","",22150521,"2023-09-10T15:32:26",3,"NO ERROR",31.34,43.3,1002.34,0.32,0.47,3.58],
    [2475,363171,"Vazduh","Libelium","0004A30B0021DF70",44.979,16.7091,"","","Prijedor","",22151057,"2023-09-10T16:33:08",3,"NO ERROR",34.78,37.9,1002.01,0.3,0.34,0.35],
    [2476,363171,"Vazduh","Libelium","0004A30B0021DF70",44.979,16.7091,"","","Prijedor","",22151601,"2023-09-10T17:33:50",3,"NO ERROR",30.62,38,1001.82,0.14,0.15,0.15],
    [2477,363171,"Vazduh","Libelium","0004A30B0021DF70",44.979,16.7091,"","","Prijedor","",22152169,"2023-09-10T18:34:32",3,"NO ERROR",28.72,45.1,1001.83,0.35,0.58,0.87],
    [2478,363171,"Vazduh","Libelium","0004A30B0021DF70",44.979,16.7091,"","","Prijedor","",22152973,"2023-09-10T19:35:13",3,"NO ERROR",25.11,56.5,1002.04,1.22,1.36,1.36],
    [2479,363171,"Vazduh","Libelium","0004A30B0021DF70",44.979,16.7091,"","","Prijedor","",22154398,"2023-09-10T20:35:55",3,"NO ERROR",22.71,73.8,1002.51,1.81,2.13,2.15],
    [2480,363171,"Vazduh","Libelium","0004A30B0021DF70",44.979,16.7091,"","","Prijedor","",22155630,"2023-09-10T21:36:38",3,"NO ERROR",20.15,92.6,1002.84,0.39,0.67,1.75],
    [2481,363171,"Vazduh","Libelium","0004A30B0021DF70",44.979,16.7091,"","","Prijedor","",22156659,"2023-09-10T22:37:20",3,"NO ERROR",18.57,100,1003.05,0.62,0.79,0.94],
    [2482,363171,"Vazduh","Libelium","0004A30B0021DF70",44.979,16.7091,"","","Prijedor","",22157607,"2023-09-10T23:38:02",3,"NO ERROR",17.36,100,1003.02,0.36,0.5,0.58],
    [2483,363171,"Vazduh","Libelium","0004A30B0021DF70",44.979,16.7091,"","","Prijedor","",22158808,"2023-09-11T00:38:44",3,"NO ERROR",16.38,100,1003.03,0.37,0.53,0.64],
    [2484,363171,"Vazduh","Libelium","0004A30B0021DF70",44.979,16.7091,"","","Prijedor","",22159793,"2023-09-11T01:39:32",3,"NO ERROR",15.79,100,1002.83,0.36,0.42,0.42],
    [2485,363171,"Vazduh","Libelium","0004A30B0021DF70",44.979,16.7091,"","","Prijedor","",22160658,"2023-09-11T02:40:14",3,"NO ERROR",15.23,100,1002.43,0.92,1.23,1.24],
    [2486,363171,"Vazduh","Libelium","0004A30B0021DF70",44.979,16.7091,"","","Prijedor","",22161554,"2023-09-11T03:40:55",3,"NO ERROR",13.94,100,1002.41,0.32,0.4,0.4],
    [2487,363171,"Vazduh","Libelium","0004A30B0021DF70",44.979,16.7091,"","","Prijedor","",22162446,"2023-09-11T04:41:37",3,"NO ERROR",13.45,100,1002.32,0.29,0.38,0.38],
    [2488,363171,"Vazduh","Libelium","0004A30B0021DF70",44.979,16.7091,"","","Prijedor","",22163388,"2023-09-11T05:42:19",3,"NO ERROR",12.69,100,1002.19,9.87,14.67,181.88],
    [2489,363171,"Vazduh","Libelium","0004A30B0021DF70",44.979,16.7091,"","","Prijedor","",22164167,"2023-09-11T06:43:01",3,"NO ERROR",12.88,100,1002.32,0.71,0.92,0.95],
    [2490,363171,"Vazduh","Libelium","0004A30B0021DF70",44.979,16.7091,"","","Prijedor","",22164775,"2023-09-11T07:43:43",3,"NO ERROR",14.06,100,1002.59,1.22,1.34,1.34],
    [2491,363171,"Vazduh","Libelium","0004A30B0021DF70",44.979,16.7091,"","","Prijedor","",22165325,"2023-09-11T08:44:25",3,"NO ERROR",20.31,91.2,1002.47,0.32,0.51,0.72],
    [2492,363171,"Vazduh","Libelium","0004A30B0021DF70",44.979,16.7091,"","","Prijedor","",22165891,"2023-09-11T09:45:08",3,"NO ERROR",23.02,75.6,1002.38,1.06,1.43,1.56],
    [2493,363171,"Vazduh","Libelium","0004A30B0021DF70",44.979,16.7091,"","","Prijedor","",22167559,"2023-09-11T12:47:14",3,"NO ERROR",27.61,53.5,1000.46,0.37,0.49,0.49],
    [2494,363171,"Vazduh","Libelium","0004A30B0021DF70",44.979,16.7091,"","","Prijedor","",22168062,"2023-09-11T13:47:56",3,"NO ERROR",30.7,46.2,999.7,0.67,0.87,0.87],
    [2495,363171,"Vazduh","Libelium","0004A30B0021DF70",44.979,16.7091,"","","Prijedor","",22168629,"2023-09-11T14:48:37",3,"NO ERROR",34.65,42.1,999.07,0.38,0.47,0.47],
    [2496,363171,"Vazduh","Libelium","0004A30B0021DF70",44.979,16.7091,"","","Prijedor","",22177359,"2023-09-12T02:57:02",3,"NO ERROR",15.06,100,999.07,0.81,0.97,0.98],
    [2497,363171,"Vazduh","Libelium","0004A30B0021DF70",44.979,16.7091,"","","Prijedor","",22178086,"2023-09-12T03:57:44",3,"NO ERROR",14.68,100,999.33,0.42,0.46,0.46],
    [2498,363171,"Vazduh","Libelium","0004A30B0021DF70",44.979,16.7091,"","","Prijedor","",22178930,"2023-09-12T04:58:26",3,"NO ERROR",14.38,100,999.54,1.73,1.94,1.94],
    [2499,363171,"Vazduh","Libelium","0004A30B0021DF70",44.979,16.7091,"","","Prijedor","",22179832,"2023-09-12T05:59:08",3,"NO ERROR",13.63,100,999.72,2.5,2.95,3.05],
    [2500,363171,"Vazduh","Libelium","0004A30B0021DF70",44.979,16.7091,"","","Prijedor","",22180463,"2023-09-12T06:59:50",3,"NO ERROR",14.17,100,999.87,0.73,0.94,1.35],
    [2501,363171,"Vazduh","Libelium","0004A30B0021DF70",44.979,16.7091,"","","Prijedor","",22181042,"2023-09-12T08:00:32",3,"NO ERROR",17.61,100,1000.32,0.91,1.08,1.08],
    [2502,363171,"Vazduh","Libelium","0004A30B0021DF70",44.979,16.7091,"","","Prijedor","",22181634,"2023-09-12T09:01:14",3,"NO ERROR",23.63,74.9,1000.13,0.68,0.88,0.89],
    [2503,363171,"Vazduh","Libelium","0004A30B0021DF70",44.979,16.7091,"","","Prijedor","",22182159,"2023-09-12T10:01:56",3,"NO ERROR",24.37,69.3,1000.27,0.42,0.58,0.6],
    [2504,363171,"Vazduh","Libelium","0004A30B0021DF70",44.979,16.7091,"","","Prijedor","",22182686,"2023-09-12T11:02:39",3,"NO ERROR",26.48,62.9,1000.02,0.72,1.03,1.07],
    [2505,363171,"Vazduh","Libelium","0004A30B0021DF70",44.979,16.7091,"","","Prijedor","",22183238,"2023-09-12T12:03:21",3,"NO ERROR",29.54,53.7,999.68,0.53,0.74,0.75],
    [2506,363171,"Vazduh","Libelium","0004A30B0021DF70",44.979,16.7091,"","","Prijedor","",22183827,"2023-09-12T13:04:03",3,"NO ERROR",31.61,42.9,998.93,0.36,0.66,1.13],
    [2507,363171,"Vazduh","Libelium","0004A30B0021DF70",44.979,16.7091,"","","Prijedor","",22184385,"2023-09-12T14:04:45",3,"NO ERROR",32.62,39.9,998.38,0.6,0.9,1.04],
    [2508,363171,"Vazduh","Libelium","0004A30B0021DF70",44.979,16.7091,"","","Prijedor","",22185018,"2023-09-12T15:05:27",3,"NO ERROR",34.45,37.8,997.87,0.55,0.86,3.13],
    [2509,363171,"Vazduh","Libelium","0004A30B0021DF70",44.979,16.7091,"","","Prijedor","",22185561,"2023-09-12T16:06:09",3,"NO ERROR",35.66,34.8,997.46,0.11,0.18,0.19],
    [2510,363171,"Vazduh","Libelium","0004A30B0021DF70",44.979,16.7091,"","","Prijedor","",22186081,"2023-09-12T17:06:51",3,"NO ERROR",35.22,34.6,997.37,0.14,0.23,0.3],
    [2511,363171,"Vazduh","Libelium","0004A30B0021DF70",44.979,16.7091,"","","Prijedor","",22186596,"2023-09-12T18:07:33",3,"NO ERROR",30.95,46.2,997.55,0.49,0.7,0.73],
    [2512,363171,"Vazduh","Libelium","0004A30B0021DF70",44.979,16.7091,"","","Prijedor","",22187095,"2023-09-12T19:08:15",3,"NO ERROR",27.92,56.9,998.06,0.77,0.89,0.89],
    [2513,363171,"Vazduh","Libelium","0004A30B0021DF70",44.979,16.7091,"","","Prijedor","",22188406,"2023-09-12T20:08:56",3,"NO ERROR",25.07,73.4,998.59,0.65,0.78,0.79],
    [2514,363171,"Vazduh","Libelium","0004A30B0021DF70",44.979,16.7091,"","","Prijedor","",22189356,"2023-09-12T21:09:39",3,"NO ERROR",22.69,91.6,999.18,0.58,0.9,1.01],
    [2515,363171,"Vazduh","Libelium","0004A30B0021DF70",44.979,16.7091,"","","Prijedor","",22190112,"2023-09-12T22:10:21",3,"NO ERROR",21.07,100,999.42,0.23,0.3,0.31],
    [2516,363171,"Vazduh","Libelium","0004A30B0021DF70",44.979,16.7091,"","","Prijedor","",22190837,"2023-09-12T23:11:03",3,"NO ERROR",19.74,100,999.8,0.52,0.68,0.77],
    [2517,363171,"Vazduh","Libelium","0004A30B0021DF70",44.979,16.7091,"","","Prijedor","",22191848,"2023-09-13T00:11:45",3,"NO ERROR",18.8,100,999.79,0.68,0.9,0.91],
    [2518,363171,"Vazduh","Libelium","0004A30B0021DF70",44.979,16.7091,"","","Prijedor","",22192717,"2023-09-13T01:12:27",3,"NO ERROR",16.99,100,999.87,0.65,0.83,0.92],
    [2519,363171,"Vazduh","Libelium","0004A30B0021DF70",44.979,16.7091,"","","Prijedor","",22193454,"2023-09-13T02:13:09",3,"NO ERROR",15.96,100,999.91,1.84,2.21,2.22],
    [2520,363171,"Vazduh","Libelium","0004A30B0021DF70",44.979,16.7091,"","","Prijedor","",22194119,"2023-09-13T03:13:51",3,"NO ERROR",15.03,100,999.72,0.6,0.77,0.79],
    [2521,363171,"Vazduh","Libelium","0004A30B0021DF70",44.979,16.7091,"","","Prijedor","",22194846,"2023-09-13T04:14:33",3,"NO ERROR",14.52,100,999.69,1.11,1.27,1.27],
    [2522,363171,"Vazduh","Libelium","0004A30B0021DF70",44.979,16.7091,"","","Prijedor","",22195702,"2023-09-13T05:15:15",3,"NO ERROR",13.41,100,999.69,0.96,1.12,1.12],
    [2523,363171,"Vazduh","Libelium","0004A30B0021DF70",44.979,16.7091,"","","Prijedor","",22196497,"2023-09-13T06:15:57",3,"NO ERROR",13.19,100,999.97,0.88,0.98,0.99],
    [2524,363171,"Vazduh","Libelium","0004A30B0021DF70",44.979,16.7091,"","","Prijedor","",22197055,"2023-09-13T07:16:39",3,"NO ERROR",14.17,100,1000.14,1.81,3.07,51.76],
    [2525,363171,"Vazduh","Libelium","0004A30B0021DF70",44.979,16.7091,"","","Prijedor","",22197591,"2023-09-13T08:17:21",3,"NO ERROR",18.66,100,1000.43,0.82,1.05,1.05],
    [2526,363171,"Vazduh","Libelium","0004A30B0021DF70",44.979,16.7091,"","","Prijedor","",22198148,"2023-09-13T09:18:03",3,"NO ERROR",23.2,78.2,1000.49,0.63,0.85,0.85],
    [2527,363171,"Vazduh","Libelium","0004A30B0021DF70",44.979,16.7091,"","","Prijedor","",22198661,"2023-09-13T10:18:46",3,"NO ERROR",25.09,68.9,1000.75,0.71,0.99,1.14],
    [2528,363171,"Vazduh","Libelium","0004A30B0021DF70",44.979,16.7091,"","","Prijedor","",22199106,"2023-09-13T11:19:28",3,"NO ERROR",29.41,47.5,1000.62,0.64,0.9,0.94],
    [2529,363171,"Vazduh","Libelium","0004A30B0021DF70",44.979,16.7091,"","","Prijedor","",22199720,"2023-09-13T12:20:10",3,"NO ERROR",30.51,42.9,1000.24,0.21,0.38,0.66],
    [2530,363171,"Vazduh","Libelium","0004A30B0021DF70",44.979,16.7091,"","","Prijedor","",22201684,"2023-09-13T13:20:52",3,"NO ERROR",31.31,39.4,999.73,0.9,1.27,1.46],
    [2531,363171,"Vazduh","Libelium","0004A30B0021DF70",44.979,16.7091,"","","Prijedor","",22202224,"2023-09-13T14:21:34",3,"NO ERROR",33.78,38.1,999.61,0.2,0.28,0.28],
    [2532,363171,"Vazduh","Libelium","0004A30B0021DF70",44.979,16.7091,"","","Prijedor","",22202814,"2023-09-13T15:22:16",3,"NO ERROR",33.61,38.6,998.98,0.29,0.42,0.71],
    [2533,363171,"Vazduh","Libelium","0004A30B0021DF70",44.979,16.7091,"","","Prijedor","",22203373,"2023-09-13T16:22:58",3,"NO ERROR",35.28,36.8,998.47,0.33,0.42,0.43],
    [2534,363171,"Vazduh","Libelium","0004A30B0021DF70",44.979,16.7091,"","","Prijedor","",22203904,"2023-09-13T17:23:40",3,"NO ERROR",32.16,42.3,998.37,0.26,0.38,0.45],
    [2535,363171,"Vazduh","Libelium","0004A30B0021DF70",44.979,16.7091,"","","Prijedor","",22204462,"2023-09-13T18:24:22",3,"NO ERROR",29.93,50.9,998.38,0.82,1.05,1.08],
    [2536,363171,"Vazduh","Libelium","0004A30B0021DF70",44.979,16.7091,"","","Prijedor","",22205195,"2023-09-13T19:25:04",3,"NO ERROR",27.2,68.3,998.81,0.73,0.8,0.81],
    [2537,363171,"Vazduh","Libelium","0004A30B0021DF70",44.979,16.7091,"","","Prijedor","",22206375,"2023-09-13T20:25:46",3,"NO ERROR",25.99,77.7,999.27,0.58,0.85,0.93],
    [2538,363171,"Vazduh","Libelium","0004A30B0021DF70",44.979,16.7091,"","","Prijedor","",22207251,"2023-09-13T21:26:28",3,"NO ERROR",25.01,81.4,999.76,0.76,0.95,1.03],
    [2539,363171,"Vazduh","Libelium","0004A30B0021DF70",44.979,16.7091,"","","Prijedor","",22207976,"2023-09-13T22:27:11",3,"NO ERROR",23.87,92.4,1000.11,0.83,0.99,1],
    [2540,363171,"Vazduh","Libelium","0004A30B0021DF70",44.979,16.7091,"","","Prijedor","",22208695,"2023-09-13T23:27:53",3,"NO ERROR",22.32,100,1000.6,0.6,0.79,0.81],
    [2541,363171,"Vazduh","Libelium","0004A30B0021DF70",44.979,16.7091,"","","Prijedor","",22209659,"2023-09-14T00:28:35",3,"NO ERROR",21.56,100,1000.68,0.91,1.25,1.28],
    [2542,363171,"Vazduh","Libelium","0004A30B0021DF70",44.979,16.7091,"","","Prijedor","",22210450,"2023-09-14T01:29:17",3,"NO ERROR",21.15,100,1000.94,0.73,1.07,2.99],
    [2543,363171,"Vazduh","Libelium","0004A30B0021DF70",44.979,16.7091,"","","Prijedor","",22211143,"2023-09-14T02:29:59",3,"NO ERROR",20.46,100,1000.98,0.51,0.7,0.72],
    [2544,363171,"Vazduh","Libelium","0004A30B0021DF70",44.979,16.7091,"","","Prijedor","",22211819,"2023-09-14T03:30:41",3,"NO ERROR",19.73,100,1000.94,0.46,0.54,0.55],
    [2545,363171,"Vazduh","Libelium","0004A30B0021DF70",44.979,16.7091,"","","Prijedor","",22212530,"2023-09-14T04:31:23",3,"NO ERROR",18.46,100,1001.01,0.7,0.78,0.78],
    [2546,363171,"Vazduh","Libelium","0004A30B0021DF70",44.979,16.7091,"","","Prijedor","",22213288,"2023-09-14T05:32:05",3,"NO ERROR",17.99,100,1001.1,0.93,1.08,1.08],
    [2547,363171,"Vazduh","Libelium","0004A30B0021DF70",44.979,16.7091,"","","Prijedor","",22213979,"2023-09-14T06:32:47",3,"NO ERROR",17.25,100,1001.67,0.37,0.39,0.39],
    [2548,363171,"Vazduh","Libelium","0004A30B0021DF70",44.979,16.7091,"","","Prijedor","",22214520,"2023-09-14T07:33:29",3,"NO ERROR",19.63,100,1002.14,0.46,0.74,0.77],
    [2549,363171,"Vazduh","Libelium","0004A30B0021DF70",44.979,16.7091,"","","Prijedor","",22215053,"2023-09-14T08:34:11",3,"NO ERROR",21.66,96.2,1002.41,0.41,0.52,0.52],
    [2550,363171,"Vazduh","Libelium","0004A30B0021DF70",44.979,16.7091,"","","Prijedor","",22215618,"2023-09-14T09:34:52",3,"NO ERROR",24.02,78.1,1002.72,0.51,0.79,0.96],
    [2551,363171,"Vazduh","Libelium","0004A30B0021DF70",44.979,16.7091,"","","Prijedor","",22216121,"2023-09-14T10:35:34",3,"NO ERROR",24.78,80.3,1003.22,0.91,1.27,1.3],
    [2552,363171,"Vazduh","Libelium","0004A30B0021DF70",44.979,16.7091,"","","Prijedor","",22216603,"2023-09-14T11:36:15",3,"NO ERROR",26.78,66.6,1003.17,0.27,0.37,0.37],
    [2553,363171,"Vazduh","Libelium","0004A30B0021DF70",44.979,16.7091,"","","Prijedor","",22217213,"2023-09-14T12:36:58",3,"NO ERROR",28.16,61.2,1002.65,0.45,0.65,0.66],
    [2554,363171,"Vazduh","Libelium","0004A30B0021DF70",44.979,16.7091,"","","Prijedor","",22217795,"2023-09-14T13:37:39",3,"NO ERROR",29.17,57.8,1002.51,0.32,0.42,0.42],
    [2555,363171,"Vazduh","Libelium","0004A30B0021DF70",44.979,16.7091,"","","Prijedor","",22218333,"2023-09-14T14:38:21",3,"NO ERROR",25.12,88.4,1002.44,0.14,0.19,0.19],
    [2556,363171,"Vazduh","Libelium","0004A30B0021DF70",44.979,16.7091,"","","Prijedor","",22219377,"2023-09-14T16:39:45",3,"NO ERROR",28.82,63.5,1002.33,0.09,0.14,0.15],
    [2557,363171,"Vazduh","Libelium","0004A30B0021DF70",44.979,16.7091,"","","Prijedor","",22219884,"2023-09-14T17:40:27",3,"NO ERROR",25.17,70.3,1002.73,0.08,0.1,0.11],
    [2558,363171,"Vazduh","Libelium","0004A30B0021DF70",44.979,16.7091,"","","Prijedor","",22220418,"2023-09-14T18:41:09",3,"NO ERROR",22.7,85.3,1003.13,0.11,0.12,0.12],
    [2559,363171,"Vazduh","Libelium","0004A30B0021DF70",44.979,16.7091,"","","Prijedor","",22221511,"2023-09-14T19:41:51",3,"NO ERROR",20.99,97.9,1003.86,0.12,0.22,0.29],
    [2560,363171,"Vazduh","Libelium","0004A30B0021DF70",44.979,16.7091,"","","Prijedor","",22223059,"2023-09-14T20:42:33",3,"NO ERROR",19.37,100,1004.3,0.05,0.05,0.05],
    [2561,363171,"Vazduh","Libelium","0004A30B0021DF70",44.979,16.7091,"","","Prijedor","",22224369,"2023-09-14T21:43:21",3,"NO ERROR",18.46,100,1004.73,0.22,0.3,0.3],
    [2562,363171,"Vazduh","Libelium","0004A30B0021DF70",44.979,16.7091,"","","Prijedor","",22225423,"2023-09-14T22:44:03",3,"NO ERROR",18.22,100,1004.79,0.14,0.2,0.21],
    [2563,363171,"Vazduh","Libelium","0004A30B0021DF70",44.979,16.7091,"","","Prijedor","",22226352,"2023-09-14T23:44:45",3,"NO ERROR",18.26,100,1005.03,0.63,0.78,0.78],
    [2564,363171,"Vazduh","Libelium","0004A30B0021DF70",44.979,16.7091,"","","Prijedor","",22227440,"2023-09-15T00:45:28",3,"NO ERROR",17.65,100,1004.85,0.37,0.52,0.53],
    [2565,363171,"Vazduh","Libelium","0004A30B0021DF70",44.979,16.7091,"","","Prijedor","",22228243,"2023-09-15T01:46:10",3,"NO ERROR",17.03,100,1004.91,0.35,0.53,0.87],
    [2566,363171,"Vazduh","Libelium","0004A30B0021DF70",44.979,16.7091,"","","Prijedor","",22228981,"2023-09-15T02:46:52",3,"NO ERROR",16.87,100,1005.09,0.94,1.18,1.2],
    [2567,363171,"Vazduh","Libelium","0004A30B0021DF70",44.979,16.7091,"","","Prijedor","",22229745,"2023-09-15T03:47:34",3,"NO ERROR",15.75,100,1005.12,1.17,1.4,1.4],
    [2568,363171,"Vazduh","Libelium","0004A30B0021DF70",44.979,16.7091,"","","Prijedor","",22230506,"2023-09-15T04:48:16",3,"NO ERROR",15.57,100,1005.05,0.44,0.47,0.47],
    [2569,363171,"Vazduh","Libelium","0004A30B0021DF70",44.979,16.7091,"","","Prijedor","",22231362,"2023-09-15T05:48:58",3,"NO ERROR",15.65,100,1005.02,0.12,0.12,0.12],
    [2570,363171,"Vazduh","Libelium","0004A30B0021DF70",44.979,16.7091,"","","Prijedor","",22232032,"2023-09-15T06:49:40",3,"NO ERROR",15.7,100,1005.25,0.47,0.72,1.11],
    [2571,363171,"Vazduh","Libelium","0004A30B0021DF70",44.979,16.7091,"","","Prijedor","",22232594,"2023-09-15T07:50:28",3,"NO ERROR",17.11,100,1005.18,0.6,0.68,0.68],
    [2572,363171,"Vazduh","Libelium","0004A30B0021DF70",44.979,16.7091,"","","Prijedor","",22233162,"2023-09-15T08:51:22",3,"NO ERROR",17.72,100,1005.33,0.54,0.61,0.61],
    [2573,363171,"Vazduh","Libelium","0004A30B0021DF70",44.979,16.7091,"","","Prijedor","",22233704,"2023-09-15T09:52:04",3,"NO ERROR",19.96,100,1005.7,0.81,1.02,1.03],
    [2574,363171,"Vazduh","Libelium","0004A30B0021DF70",44.979,16.7091,"","","Prijedor","",22234212,"2023-09-15T10:52:45",3,"NO ERROR",21.88,99.6,1005.49,0.81,0.98,1.13],
    [2575,363171,"Vazduh","Libelium","0004A30B0021DF70",44.979,16.7091,"","","Prijedor","",22234765,"2023-09-15T11:53:27",3,"NO ERROR",24.76,77.9,1005.1,0.21,0.26,0.26],
    [2576,363171,"Vazduh","Libelium","0004A30B0021DF70",44.979,16.7091,"","","Prijedor","",22235378,"2023-09-15T12:54:09",3,"NO ERROR",26.38,69.1,1004.51,0.12,0.13,0.13],
    [2577,363171,"Vazduh","Libelium","0004A30B0021DF70",44.979,16.7091,"","","Prijedor","",22235952,"2023-09-15T13:54:58",3,"NO ERROR",26.05,71.4,1003.86,0.17,0.21,0.21],
    [2578,363171,"Vazduh","Libelium","0004A30B0021DF70",44.979,16.7091,"","","Prijedor","",22236534,"2023-09-15T14:55:40",3,"NO ERROR",27.18,66,1003.18,0.1,0.1,0.1],
    [2579,363171,"Vazduh","Libelium","0004A30B0021DF70",44.979,16.7091,"","","Prijedor","",22237102,"2023-09-15T15:56:28",3,"NO ERROR",25.97,68.8,1002.76,0.06,0.12,0.13],
    [2580,363171,"Vazduh","Libelium","0004A30B0021DF70",44.979,16.7091,"","","Prijedor","",22237673,"2023-09-15T16:57:10",3,"NO ERROR",25.4,67.7,1002.4,0.15,0.22,0.23],
    [2581,363171,"Vazduh","Libelium","0004A30B0021DF70",44.979,16.7091,"","","Prijedor","",22238240,"2023-09-15T17:57:52",3,"NO ERROR",24.01,79,1002.42,0.11,0.12,0.12],
    [2582,363171,"Vazduh","Libelium","0004A30B0021DF70",44.979,16.7091,"","","Prijedor","",22238796,"2023-09-15T18:58:34",3,"NO ERROR",23.07,91.8,1002.5,0.29,0.31,0.31],
    [2583,363171,"Vazduh","Libelium","0004A30B0021DF70",44.979,16.7091,"","","Prijedor","",22240410,"2023-09-15T19:59:16",3,"NO ERROR",20.96,100,1003.02,0.84,1.01,1.02],
    [2584,363171,"Vazduh","Libelium","0004A30B0021DF70",44.979,16.7091,"","","Prijedor","",22241916,"2023-09-15T20:59:58",3,"NO ERROR",20.29,100,1003.84,0.51,0.58,0.58],
    [2585,363171,"Vazduh","Libelium","0004A30B0021DF70",44.979,16.7091,"","","Prijedor","",22243132,"2023-09-15T22:00:40",3,"NO ERROR",20.18,100,1003.8,0.77,0.86,0.87],
    [2586,363171,"Vazduh","Libelium","0004A30B0021DF70",44.979,16.7091,"","","Prijedor","",22244207,"2023-09-15T23:01:22",3,"NO ERROR",19.5,100,1003.65,1.69,2.17,2.36],
    [2587,363171,"Vazduh","Libelium","0004A30B0021DF70",44.979,16.7091,"","","Prijedor","",22245350,"2023-09-16T00:02:10",3,"NO ERROR",19.35,100,1003.59,2.48,2.93,3.14],
    [2588,363171,"Vazduh","Libelium","0004A30B0021DF70",44.979,16.7091,"","","Prijedor","",22246355,"2023-09-16T01:02:52",3,"NO ERROR",18.88,100,1003.52,4.12,4.97,5.11],
    [2589,363171,"Vazduh","Libelium","0004A30B0021DF70",44.979,16.7091,"","","Prijedor","",22247188,"2023-09-16T02:03:34",3,"NO ERROR",18.63,100,1003.46,4.15,5.47,11.58],
    [2590,363171,"Vazduh","Libelium","0004A30B0021DF70",44.979,16.7091,"","","Prijedor","",22248030,"2023-09-16T03:04:17",3,"NO ERROR",18.43,100,1003.69,1.15,1.3,1.31],
    [2591,363171,"Vazduh","Libelium","0004A30B0021DF70",44.979,16.7091,"","","Prijedor","",22248893,"2023-09-16T04:05:05",3,"NO ERROR",17.93,100,1003.62,1.92,2.09,2.1],
    [2592,363171,"Vazduh","Libelium","0004A30B0021DF70",44.979,16.7091,"","","Prijedor","",22249803,"2023-09-16T05:05:47",3,"NO ERROR",17.75,100,1004.06,5.41,9.28,81.52],
    [2593,363171,"Vazduh","Libelium","0004A30B0021DF70",44.979,16.7091,"","","Prijedor","",22250724,"2023-09-16T06:06:29",3,"NO ERROR",17.7,100,1004.06,5.9,13.06,179.78],
    [2594,363171,"Vazduh","Libelium","0004A30B0021DF70",44.979,16.7091,"","","Prijedor","",22251399,"2023-09-16T07:07:11",3,"NO ERROR",17.5,100,1004.34,4.49,8.1,121.9],
    [2595,363171,"Vazduh","Libelium","0004A30B0021DF70",44.979,16.7091,"","","Prijedor","",22251971,"2023-09-16T08:07:53",3,"NO ERROR",17.67,100,1004.38,3.41,5.84,145.13],
    [2596,363171,"Vazduh","Libelium","0004A30B0021DF70",44.979,16.7091,"","","Prijedor","",22252569,"2023-09-16T09:08:35",3,"NO ERROR",18.52,100,1005.01,1.01,1.23,1.23],
    [2597,363171,"Vazduh","Libelium","0004A30B0021DF70",44.979,16.7091,"","","Prijedor","",22253137,"2023-09-16T10:09:17",3,"NO ERROR",20.46,100,1005.15,0.44,0.49,0.49],
    [2598,363171,"Vazduh","Libelium","0004A30B0021DF70",44.979,16.7091,"","","Prijedor","",22253646,"2023-09-16T11:09:59",3,"NO ERROR",22.71,100,1005.05,0.89,1.17,1.17],
    [2599,363171,"Vazduh","Libelium","0004A30B0021DF70",44.979,16.7091,"","","Prijedor","",22254264,"2023-09-16T12:10:41",3,"NO ERROR",24.27,89.1,1004.65,0.61,0.96,1.13],
    [2600,363171,"Vazduh","Libelium","0004A30B0021DF70",44.979,16.7091,"","","Prijedor","",22254889,"2023-09-16T13:11:23",3,"NO ERROR",26.34,67,1004.45,0.13,0.14,0.14],
    [2601,363171,"Vazduh","Libelium","0004A30B0021DF70",44.979,16.7091,"","","Prijedor","",22255487,"2023-09-16T14:12:05",3,"NO ERROR",27.7,62,1003.66,0.1,0.11,0.11],
    [2602,363171,"Vazduh","Libelium","0004A30B0021DF70",44.979,16.7091,"","","Prijedor","",22256091,"2023-09-16T15:12:46",3,"NO ERROR",28.88,55.8,1003.33,0.13,0.16,0.16],
    [2603,363171,"Vazduh","Libelium","0004A30B0021DF70",44.979,16.7091,"","","Prijedor","",22256680,"2023-09-16T16:13:28",3,"NO ERROR",30.99,48.9,1003.11,0.05,0.1,0.11],
    [2604,363171,"Vazduh","Libelium","0004A30B0021DF70",44.979,16.7091,"","","Prijedor","",22257257,"2023-09-16T17:14:11",3,"NO ERROR",26.99,56.5,1002.7,0.18,0.29,0.36],
    [2605,363171,"Vazduh","Libelium","0004A30B0021DF70",44.979,16.7091,"","","Prijedor","",22257837,"2023-09-16T18:14:53",3,"NO ERROR",24.69,69.9,1002.58,0.13,0.16,0.16],
    [2606,363171,"Vazduh","Libelium","0004A30B0021DF70",44.979,16.7091,"","","Prijedor","",22258526,"2023-09-16T19:15:35",3,"NO ERROR",23.18,83.2,1002.71,0.66,0.94,1.06],
    [2607,363171,"Vazduh","Libelium","0004A30B0021DF70",44.979,16.7091,"","","Prijedor","",22260442,"2023-09-16T20:16:16",3,"NO ERROR",21.44,100,1003.28,1.01,1.5,2.09],
    [2608,363171,"Vazduh","Libelium","0004A30B0021DF70",44.979,16.7091,"","","Prijedor","",22262014,"2023-09-16T21:16:58",3,"NO ERROR",19.13,100,1003.91,0.66,0.94,0.94],
    [2609,363171,"Vazduh","Libelium","0004A30B0021DF70",44.979,16.7091,"","","Prijedor","",22263283,"2023-09-16T22:17:39",3,"NO ERROR",18.69,100,1003.93,1.21,1.54,1.71],
    [2610,363171,"Vazduh","Libelium","0004A30B0021DF70",44.979,16.7091,"","","Prijedor","",22264342,"2023-09-16T23:18:27",3,"NO ERROR",17.58,100,1003.72,0.89,1.21,1.33],
    [2611,363171,"Vazduh","Libelium","0004A30B0021DF70",44.979,16.7091,"","","Prijedor","",22265573,"2023-09-17T00:19:09",3,"NO ERROR",16.34,100,1003.71,0.93,1.13,1.15],
    [2612,363171,"Vazduh","Libelium","0004A30B0021DF70",44.979,16.7091,"","","Prijedor","",22266556,"2023-09-17T01:19:51",3,"NO ERROR",16.82,100,1003.87,0.79,0.93,0.93],
    [2613,363171,"Vazduh","Libelium","0004A30B0021DF70",44.979,16.7091,"","","Prijedor","",22267437,"2023-09-17T02:20:39",3,"NO ERROR",15.1,100,1003.67,0.29,0.32,0.32],
    [2614,363171,"Vazduh","Libelium","0004A30B0021DF70",44.979,16.7091,"","","Prijedor","",22268212,"2023-09-17T03:21:21",3,"NO ERROR",14.86,100,1003.63,0.38,0.45,0.46],
    [2615,363171,"Vazduh","Libelium","0004A30B0021DF70",44.979,16.7091,"","","Prijedor","",22269002,"2023-09-17T04:22:03",3,"NO ERROR",14.57,100,1003.56,1.33,1.71,1.73],
    [2616,363171,"Vazduh","Libelium","0004A30B0021DF70",44.979,16.7091,"","","Prijedor","",22269861,"2023-09-17T05:22:46",3,"NO ERROR",14.77,100,1003.59,7.6,10.03,32.53],
    [2617,363171,"Vazduh","Libelium","0004A30B0021DF70",44.979,16.7091,"","","Prijedor","",22270654,"2023-09-17T06:23:28",3,"NO ERROR",14.53,100,1003.9,2.41,3.73,27.9],
    [2618,363171,"Vazduh","Libelium","0004A30B0021DF70",44.979,16.7091,"","","Prijedor","",22271268,"2023-09-17T07:24:10",3,"NO ERROR",14.6,100,1004.39,6.31,14.34,512.82],
    [2619,363171,"Vazduh","Libelium","0004A30B0021DF70",44.979,16.7091,"","","Prijedor","",22271808,"2023-09-17T08:24:52",3,"NO ERROR",16.44,100,1004.61,0.86,1.26,1.39],
    [2620,363171,"Vazduh","Libelium","0004A30B0021DF70",44.979,16.7091,"","","Prijedor","",22272380,"2023-09-17T09:25:34",3,"NO ERROR",18.26,100,1004.91,0.31,0.33,0.33],
    [2621,363171,"Vazduh","Libelium","0004A30B0021DF70",44.979,16.7091,"","","Prijedor","",22272918,"2023-09-17T10:26:16",3,"NO ERROR",24.14,80.9,1004.58,0.08,0.12,0.12],
    [2622,363171,"Vazduh","Libelium","0004A30B0021DF70",44.979,16.7091,"","","Prijedor","",22273412,"2023-09-17T11:26:58",3,"NO ERROR",25.42,75.3,1004.23,0.25,0.33,0.33],
    [2623,363171,"Vazduh","Libelium","0004A30B0021DF70",44.979,16.7091,"","","Prijedor","",22274012,"2023-09-17T12:27:40",3,"NO ERROR",27.52,56.8,1004.02,0.15,0.17,0.17],
    [2624,363171,"Vazduh","Libelium","0004A30B0021DF70",44.979,16.7091,"","","Prijedor","",22274643,"2023-09-17T13:28:22",3,"NO ERROR",29.25,53.1,1003.5,0.2,0.29,0.29],
    [2625,363171,"Vazduh","Libelium","0004A30B0021DF70",44.979,16.7091,"","","Prijedor","",22275181,"2023-09-17T14:29:04",3,"NO ERROR",32.21,48.2,1003.03,0.38,0.59,0.61],
    [2626,363171,"Vazduh","Libelium","0004A30B0021DF70",44.979,16.7091,"","","Prijedor","",22275770,"2023-09-17T15:29:45",3,"NO ERROR",32.01,46.9,1002.17,0.24,0.26,0.26],
    [2627,363171,"Vazduh","Libelium","0004A30B0021DF70",44.979,16.7091,"","","Prijedor","",22276300,"2023-09-17T16:30:27",3,"NO ERROR",33.6,44.2,1001.81,0.39,0.56,0.57],
    [2628,363171,"Vazduh","Libelium","0004A30B0021DF70",44.979,16.7091,"","","Prijedor","",22276866,"2023-09-17T17:31:09",3,"NO ERROR",29.85,52,1001.81,0.31,0.51,0.52],
    [2629,363171,"Vazduh","Libelium","0004A30B0021DF70",44.979,16.7091,"","","Prijedor","",22277426,"2023-09-17T18:31:51",3,"NO ERROR",28.17,56.3,1001.89,0.34,0.49,0.51],
    [2630,363171,"Vazduh","Libelium","0004A30B0021DF70",44.979,16.7091,"","","Prijedor","",22278398,"2023-09-17T19:32:33",3,"NO ERROR",25.39,72.3,1002.04,0.5,0.74,0.78],
    [2631,363171,"Vazduh","Libelium","0004A30B0021DF70",44.979,16.7091,"","","Prijedor","",22279372,"2023-09-17T20:33:15",3,"NO ERROR",23.48,94.2,1002.61,1.12,1.78,2.49],
    [2632,363171,"Vazduh","Libelium","0004A30B0021DF70",44.979,16.7091,"","","Prijedor","",22280335,"2023-09-17T21:33:57",3,"NO ERROR",21.68,100,1002.81,0.68,0.92,0.95],
    [2633,363171,"Vazduh","Libelium","0004A30B0021DF70",44.979,16.7091,"","","Prijedor","",22281147,"2023-09-17T22:34:39",3,"NO ERROR",20.21,100,1002.89,0.82,1.14,1.16],
    [2634,363171,"Vazduh","Libelium","0004A30B0021DF70",44.979,16.7091,"","","Prijedor","",22281924,"2023-09-17T23:35:21",3,"NO ERROR",19.24,100,1003.02,0.46,0.61,0.62],
    [2635,363171,"Vazduh","Libelium","0004A30B0021DF70",44.979,16.7091,"","","Prijedor","",22282961,"2023-09-18T00:36:09",3,"NO ERROR",18.29,100,1003.17,1.83,2.14,2.14],
    [2636,363171,"Vazduh","Libelium","0004A30B0021DF70",44.979,16.7091,"","","Prijedor","",22283762,"2023-09-18T01:36:57",3,"NO ERROR",18.59,100,1002.88,0.83,1.06,1.14],
    [2637,363171,"Vazduh","Libelium","0004A30B0021DF70",44.979,16.7091,"","","Prijedor","",22284546,"2023-09-18T02:37:39",3,"NO ERROR",16.87,100,1003.03,2.01,2.41,2.42],
    [2638,363171,"Vazduh","Libelium","0004A30B0021DF70",44.979,16.7091,"","","Prijedor","",22285373,"2023-09-18T03:38:21",3,"NO ERROR",17.07,100,1002.67,1.09,1.26,1.26],
    [2639,363171,"Vazduh","Libelium","0004A30B0021DF70",44.979,16.7091,"","","Prijedor","",22286209,"2023-09-18T04:39:03",3,"NO ERROR",15.89,100,1002.5,0.28,0.3,0.3],
    [2640,363171,"Vazduh","Libelium","0004A30B0021DF70",44.979,16.7091,"","","Prijedor","",22287133,"2023-09-18T05:39:45",3,"NO ERROR",15.91,100,1002.35,0.56,0.69,0.69],
    [2641,363171,"Vazduh","Libelium","0004A30B0021DF70",44.979,16.7091,"","","Prijedor","",22287903,"2023-09-18T06:40:27",3,"NO ERROR",15.09,100,1002.46,1.5,1.71,1.73],
    [2642,363171,"Vazduh","Libelium","0004A30B0021DF70",44.979,16.7091,"","","Prijedor","",22288487,"2023-09-18T07:41:10",3,"NO ERROR",15.97,100,1001.97,0.65,0.76,0.76],
    [2643,363171,"Vazduh","Libelium","0004A30B0021DF70",44.979,16.7091,"","","Prijedor","",22289018,"2023-09-18T08:41:52",3,"NO ERROR",22.03,100,1002.17,0.4,0.51,0.51],
    [2644,363171,"Vazduh","Libelium","0004A30B0021DF70",44.979,16.7091,"","","Prijedor","",22289582,"2023-09-18T09:42:34",3,"NO ERROR",25.8,81.4,1001.77,0.13,0.14,0.14],
    [2645,363171,"Vazduh","Libelium","0004A30B0021DF70",44.979,16.7091,"","","Prijedor","",22290126,"2023-09-18T10:43:22",3,"NO ERROR",26.07,74.3,1001.86,0.27,0.56,6.25],
    [2646,363171,"Vazduh","Libelium","0004A30B0021DF70",44.979,16.7091,"","","Prijedor","",22290652,"2023-09-18T11:44:04",3,"NO ERROR",27.19,67.2,1001.17,0.47,0.68,0.68],
    [2647,363171,"Vazduh","Libelium","0004A30B0021DF70",44.979,16.7091,"","","Prijedor","",22291280,"2023-09-18T12:44:46",3,"NO ERROR",29.63,55.3,1000.66,0.85,1.29,1.48],
    [2648,363171,"Vazduh","Libelium","0004A30B0021DF70",44.979,16.7091,"","","Prijedor","",22291912,"2023-09-18T13:45:28",3,"NO ERROR",30.3,51.3,999.8,0.57,0.87,1.16],
    [2649,363171,"Vazduh","Libelium","0004A30B0021DF70",44.979,16.7091,"","","Prijedor","",22292466,"2023-09-18T14:46:10",3,"NO ERROR",32.25,48.6,999.51,0.52,0.78,0.87],
    [2650,363171,"Vazduh","Libelium","0004A30B0021DF70",44.979,16.7091,"","","Prijedor","",22293105,"2023-09-18T15:46:52",3,"NO ERROR",31.91,49.4,999.34,0.73,1.03,1.13],
    [2651,363171,"Vazduh","Libelium","0004A30B0021DF70",44.979,16.7091,"","","Prijedor","",22293671,"2023-09-18T16:47:34",3,"NO ERROR",33.27,47.1,998.63,0.68,1.18,1.38],
    [2652,363171,"Vazduh","Libelium","0004A30B0021DF70",44.979,16.7091,"","","Prijedor","",22294213,"2023-09-18T17:48:16",3,"NO ERROR",29.31,57.4,998.36,1,1.75,3.21],
    [2653,363171,"Vazduh","Libelium","0004A30B0021DF70",44.979,16.7091,"","","Prijedor","",22294751,"2023-09-18T18:48:57",3,"NO ERROR",27.99,65.1,998.21,1.75,2.6,3.99],
    [2654,363171,"Vazduh","Libelium","0004A30B0021DF70",44.979,16.7091,"","","Prijedor","",22296143,"2023-09-18T19:49:39",3,"NO ERROR",26.31,81.7,998.28,1.54,1.91,2.3],
    [2655,363171,"Vazduh","Libelium","0004A30B0021DF70",44.979,16.7091,"","","Prijedor","",22297383,"2023-09-18T20:50:21",3,"NO ERROR",24.82,93.2,998.18,1.38,2.09,2.25],
    [2656,363171,"Vazduh","Libelium","0004A30B0021DF70",44.979,16.7091,"","","Prijedor","",22298574,"2023-09-18T21:51:03",3,"NO ERROR",24.2,100,998.42,2.22,3.01,3.04],
    [2657,363171,"Vazduh","Libelium","0004A30B0021DF70",44.979,16.7091,"","","Prijedor","",22299641,"2023-09-18T22:51:45",3,"NO ERROR",23.31,100,998.2,1.47,2.16,2.31],
    [2658,363171,"Vazduh","Libelium","0004A30B0021DF70",44.979,16.7091,"","","Prijedor","",22300546,"2023-09-18T23:52:27",3,"NO ERROR",22.68,100,998.1,1.12,1.64,1.79],
    [2659,363171,"Vazduh","Libelium","0004A30B0021DF70",44.979,16.7091,"","","Prijedor","",22301568,"2023-09-19T00:53:08",3,"NO ERROR",22.29,100,997.67,0.96,1.39,1.54],
    [2660,363171,"Vazduh","Libelium","0004A30B0021DF70",44.979,16.7091,"","","Prijedor","",22302379,"2023-09-19T01:53:50",3,"NO ERROR",21.72,100,997.58,1.08,1.59,1.82],
    [2661,363171,"Vazduh","Libelium","0004A30B0021DF70",44.979,16.7091,"","","Prijedor","",22303147,"2023-09-19T02:54:37",3,"NO ERROR",21.56,100,997.37,1.12,1.75,1.91],
    [2662,363171,"Vazduh","Libelium","0004A30B0021DF70",44.979,16.7091,"","","Prijedor","",22303888,"2023-09-19T03:55:19",3,"NO ERROR",20.48,100,997.29,1.03,1.44,1.48],
    [2663,363171,"Vazduh","Libelium","0004A30B0021DF70",44.979,16.7091,"","","Prijedor","",22304714,"2023-09-19T04:56:00",3,"NO ERROR",20.18,100,997.54,1.2,1.47,1.47],
    [2664,363171,"Vazduh","Libelium","0004A30B0021DF70",44.979,16.7091,"","","Prijedor","",22305578,"2023-09-19T05:56:42",3,"NO ERROR",19.55,100,997.47,0.89,1.28,1.73],
    [2665,363171,"Vazduh","Libelium","0004A30B0021DF70",44.979,16.7091,"","","Prijedor","",22306236,"2023-09-19T06:57:23",3,"NO ERROR",19.35,100,997.73,1.06,1.51,1.52],
    [2666,363171,"Vazduh","Libelium","0004A30B0021DF70",44.979,16.7091,"","","Prijedor","",22306783,"2023-09-19T07:58:05",3,"NO ERROR",20.82,100,997.98,1.87,2.78,2.96],
    [2667,363171,"Vazduh","Libelium","0004A30B0021DF70",44.979,16.7091,"","","Prijedor","",22307328,"2023-09-19T08:58:47",3,"NO ERROR",26.44,68.7,998.32,1.92,2.66,2.7],
    [2668,363171,"Vazduh","Libelium","0004A30B0021DF70",44.979,16.7091,"","","Prijedor","",22307832,"2023-09-19T09:59:29",3,"NO ERROR",26.33,84.4,998.99,1.2,1.88,2.33],
    [2669,363171,"Vazduh","Libelium","0004A30B0021DF70",44.979,16.7091,"","","Prijedor","",22308398,"2023-09-19T11:00:11",3,"NO ERROR",28.9,59.1,999.64,1.15,1.6,1.63],
    [2670,363171,"Vazduh","Libelium","0004A30B0021DF70",44.979,16.7091,"","","Prijedor","",22308956,"2023-09-19T12:00:53",3,"NO ERROR",27.31,68.4,999.6,1.69,2.89,3.11],
    [2671,363171,"Vazduh","Libelium","0004A30B0021DF70",44.979,16.7091,"","","Prijedor","",22309590,"2023-09-19T13:01:35",3,"NO ERROR",26.02,71,999.65,0.7,1.12,2.22],
    [2672,363171,"Vazduh","Libelium","0004A30B0021DF70",44.979,16.7091,"","","Prijedor","",22310169,"2023-09-19T14:02:16",3,"NO ERROR",22.23,83.6,1000.83,0.19,0.22,0.22],
    [2673,363171,"Vazduh","Libelium","0004A30B0021DF70",44.979,16.7091,"","","Prijedor","",22310782,"2023-09-19T15:02:57",3,"NO ERROR",23.35,85.1,1000.97,0.22,0.34,0.34],
    [2674,363171,"Vazduh","Libelium","0004A30B0021DF70",44.979,16.7091,"","","Prijedor","",22311368,"2023-09-19T16:03:39",3,"NO ERROR",23.62,82.6,1000.37,0.18,0.31,0.41],
    [2675,363171,"Vazduh","Libelium","0004A30B0021DF70",44.979,16.7091,"","","Prijedor","",22311914,"2023-09-19T17:04:21",3,"NO ERROR",27.37,73.5,1000.32,0.31,0.45,0.54],
    [2676,363171,"Vazduh","Libelium","0004A30B0021DF70",44.979,16.7091,"","","Prijedor","",22312422,"2023-09-19T18:05:02",3,"NO ERROR",22.16,100,1000.83,0.59,0.93,0.96],
    [2677,363171,"Vazduh","Libelium","0004A30B0021DF70",44.979,16.7091,"","","Prijedor","",22312985,"2023-09-19T19:05:43",3,"NO ERROR",21.44,100,1001.35,0.23,0.39,0.41],
    [2678,363171,"Vazduh","Libelium","0004A30B0021DF70",44.979,16.7091,"","","Prijedor","",22314310,"2023-09-19T20:06:25",3,"NO ERROR",20.56,100,1001.98,0.39,0.44,0.44],
    [2679,363171,"Vazduh","Libelium","0004A30B0021DF70",44.979,16.7091,"","","Prijedor","",22315158,"2023-09-19T21:07:07",3,"NO ERROR",20.31,100,1002.23,0.79,1.05,1.16],
    [2680,363171,"Vazduh","Libelium","0004A30B0021DF70",44.979,16.7091,"","","Prijedor","",22315922,"2023-09-19T22:07:49",3,"NO ERROR",18.91,100,1002.41,0.39,0.58,0.6],
    [2681,363171,"Vazduh","Libelium","0004A30B0021DF70",44.979,16.7091,"","","Prijedor","",22316810,"2023-09-19T23:08:31",3,"NO ERROR",18.16,100,1002.59,0.96,1.2,1.2],
    [2682,363171,"Vazduh","Libelium","0004A30B0021DF70",44.979,16.7091,"","","Prijedor","",22317941,"2023-09-20T00:09:13",3,"NO ERROR",17.62,100,1002.52,1.27,1.64,1.75],
    [2683,363171,"Vazduh","Libelium","0004A30B0021DF70",44.979,16.7091,"","","Prijedor","",22318832,"2023-09-20T01:10:01",3,"NO ERROR",17.86,100,1002.44,3.27,5.04,10.15],
    [2684,363171,"Vazduh","Libelium","0004A30B0021DF70",44.979,16.7091,"","","Prijedor","",22319609,"2023-09-20T02:10:42",3,"NO ERROR",17.59,100,1002.68,1.32,2.84,96.86],
    [2685,363171,"Vazduh","Libelium","0004A30B0021DF70",44.979,16.7091,"","","Prijedor","",22320356,"2023-09-20T03:11:24",3,"NO ERROR",17.49,100,1002.71,0.59,0.95,26.08],
    [2686,363171,"Vazduh","Libelium","0004A30B0021DF70",44.979,16.7091,"","","Prijedor","",22321148,"2023-09-20T04:12:06",3,"NO ERROR",17.45,100,1002.8,3.46,7.35,125.25],
    [2687,363171,"Vazduh","Libelium","0004A30B0021DF70",44.979,16.7091,"","","Prijedor","",22322040,"2023-09-20T05:12:48",3,"NO ERROR",16.77,100,1002.9,3.19,6.86,37.98],
    [2688,363171,"Vazduh","Libelium","0004A30B0021DF70",44.979,16.7091,"","","Prijedor","",22322867,"2023-09-20T06:13:30",3,"NO ERROR",16.59,100,1002.81,1.74,4.38,92.85],
    [2689,363171,"Vazduh","Libelium","0004A30B0021DF70",44.979,16.7091,"","","Prijedor","",22323491,"2023-09-20T07:14:12",3,"NO ERROR",16.24,100,1003.13,0.46,0.9,3.44],
    [2690,363171,"Vazduh","Libelium","0004A30B0021DF70",44.979,16.7091,"","","Prijedor","",22324065,"2023-09-20T08:14:54",3,"NO ERROR",16.53,100,1003.14,0.74,1.11,35.18],
    [2691,363171,"Vazduh","Libelium","0004A30B0021DF70",44.979,16.7091,"","","Prijedor","",22324615,"2023-09-20T09:15:36",3,"NO ERROR",17.71,100,1003.5,0.26,0.44,1.6],
    [2692,363171,"Vazduh","Libelium","0004A30B0021DF70",44.979,16.7091,"","","Prijedor","",22325165,"2023-09-20T10:16:18",3,"NO ERROR",19.15,100,1003.32,0.44,0.73,0.76],
    [2693,363171,"Vazduh","Libelium","0004A30B0021DF70",44.979,16.7091,"","","Prijedor","",22325652,"2023-09-20T11:16:59",3,"NO ERROR",23.01,94.4,1003.16,0.39,0.47,0.47],
    [2694,363171,"Vazduh","Libelium","0004A30B0021DF70",44.979,16.7091,"","","Prijedor","",22326246,"2023-09-20T12:17:42",3,"NO ERROR",24.98,85.2,1002.42,0.65,1.03,1.16],
    [2695,363171,"Vazduh","Libelium","0004A30B0021DF70",44.979,16.7091,"","","Prijedor","",22326925,"2023-09-20T13:18:24",3,"NO ERROR",26.69,77.9,1001.74,0.87,1.26,1.28],
    [2696,363171,"Vazduh","Libelium","0004A30B0021DF70",44.979,16.7091,"","","Prijedor","",22327521,"2023-09-20T14:19:06",3,"NO ERROR",28.27,68.5,1000.92,1.15,1.49,1.5],
    [2697,363171,"Vazduh","Libelium","0004A30B0021DF70",44.979,16.7091,"","","Prijedor","",22328128,"2023-09-20T15:19:47",3,"NO ERROR",30.94,60.1,1000.34,0.88,1.25,1.28],
    [2698,363171,"Vazduh","Libelium","0004A30B0021DF70",44.979,16.7091,"","","Prijedor","",22328748,"2023-09-20T16:20:29",3,"NO ERROR",28.42,63.7,999.96,1.1,1.53,1.56],
    [2699,363171,"Vazduh","Libelium","0004A30B0021DF70",44.979,16.7091,"","","Prijedor","",22329283,"2023-09-20T17:21:10",3,"NO ERROR",27.76,67.3,999.66,1.06,1.75,1.9],
    [2700,363171,"Vazduh","Libelium","0004A30B0021DF70",44.979,16.7091,"","","Prijedor","",22329835,"2023-09-20T18:21:52",3,"NO ERROR",26.13,78.8,999.55,0.94,1.38,1.49],
    [2701,363171,"Vazduh","Libelium","0004A30B0021DF70",44.979,16.7091,"","","Prijedor","",22330734,"2023-09-20T19:22:34",3,"NO ERROR",24.63,96.3,999.59,1.38,1.68,1.7],
    [2702,363171,"Vazduh","Libelium","0004A30B0021DF70",44.979,16.7091,"","","Prijedor","",22331671,"2023-09-20T20:23:16",3,"NO ERROR",23.03,100,1000.04,1.34,1.66,1.69],
    [2703,363171,"Vazduh","Libelium","0004A30B0021DF70",44.979,16.7091,"","","Prijedor","",22332608,"2023-09-20T21:23:58",3,"NO ERROR",22.03,100,1000.13,1.2,1.8,2.31],
    [2704,363171,"Vazduh","Libelium","0004A30B0021DF70",44.979,16.7091,"","","Prijedor","",22333438,"2023-09-20T22:24:40",3,"NO ERROR",21.09,100,999.88,1.09,1.51,1.63],
    [2705,363171,"Vazduh","Libelium","0004A30B0021DF70",44.979,16.7091,"","","Prijedor","",22334238,"2023-09-20T23:25:22",3,"NO ERROR",21.15,100,999.83,1.5,2.13,3.05],
    [2706,363171,"Vazduh","Libelium","0004A30B0021DF70",44.979,16.7091,"","","Prijedor","",22335264,"2023-09-21T00:26:04",3,"NO ERROR",20.71,100,999.45,0.82,1.03,1.04],
    [2707,363171,"Vazduh","Libelium","0004A30B0021DF70",44.979,16.7091,"","","Prijedor","",22336188,"2023-09-21T01:26:47",3,"NO ERROR",20.03,100,999.11,1.49,1.79,1.8],
    [2708,363171,"Vazduh","Libelium","0004A30B0021DF70",44.979,16.7091,"","","Prijedor","",22337085,"2023-09-21T02:27:29",3,"NO ERROR",19.4,100,998.95,1.55,2.08,5.86],
    [2709,363171,"Vazduh","Libelium","0004A30B0021DF70",44.979,16.7091,"","","Prijedor","",22337943,"2023-09-21T03:28:11",3,"NO ERROR",20.22,100,998.42,1.3,1.86,1.89],
    [2710,363171,"Vazduh","Libelium","0004A30B0021DF70",44.979,16.7091,"","","Prijedor","",22338831,"2023-09-21T04:28:53",3,"NO ERROR",19.59,100,997.9,1.1,1.39,1.41],
    [2711,363171,"Vazduh","Libelium","0004A30B0021DF70",44.979,16.7091,"","","Prijedor","",22339794,"2023-09-21T05:29:35",3,"NO ERROR",18.42,100,997.64,1.01,1.37,1.47],
    [2712,363171,"Vazduh","Libelium","0004A30B0021DF70",44.979,16.7091,"","","Prijedor","",22340662,"2023-09-21T06:30:17",3,"NO ERROR",18.03,100,997.46,1.87,2.46,2.48],
    [2713,363171,"Vazduh","Libelium","0004A30B0021DF70",44.979,16.7091,"","","Prijedor","",22341257,"2023-09-21T07:30:58",3,"NO ERROR",19.41,100,996.82,0.93,1.32,1.36],
    [2714,363171,"Vazduh","Libelium","0004A30B0021DF70",44.979,16.7091,"","","Prijedor","",22341788,"2023-09-21T08:31:40",3,"NO ERROR",22.11,100,997.13,0.67,0.91,0.93],
    [2715,363171,"Vazduh","Libelium","0004A30B0021DF70",44.979,16.7091,"","","Prijedor","",22342361,"2023-09-21T09:32:22",3,"NO ERROR",23.7,91,997.18,1.17,1.7,1.83],
    [2716,363171,"Vazduh","Libelium","0004A30B0021DF70",44.979,16.7091,"","","Prijedor","",22342901,"2023-09-21T10:33:04",3,"NO ERROR",25.6,72.6,996.83,0.65,1.12,2.35],
    [2717,363171,"Vazduh","Libelium","0004A30B0021DF70",44.979,16.7091,"","","Prijedor","",22343444,"2023-09-21T11:33:46",3,"NO ERROR",27.63,62.7,996.81,0.82,0.93,0.93],
    [2718,363171,"Vazduh","Libelium","0004A30B0021DF70",44.979,16.7091,"","","Prijedor","",22344056,"2023-09-21T12:34:35",3,"NO ERROR",23.05,89.7,996.21,0.92,1.25,1.27],
    [2719,363171,"Vazduh","Libelium","0004A30B0021DF70",44.979,16.7091,"","","Prijedor","",22344684,"2023-09-21T13:35:16",3,"NO ERROR",22.31,97,995.8,0.43,0.62,0.64],
    [2720,363171,"Vazduh","Libelium","0004A30B0021DF70",44.979,16.7091,"","","Prijedor","",22345268,"2023-09-21T14:35:57",3,"NO ERROR",22.64,100,996.04,0.45,0.73,2.14],
    [2721,363171,"Vazduh","Libelium","0004A30B0021DF70",44.979,16.7091,"","","Prijedor","",22345866,"2023-09-21T15:36:39",3,"NO ERROR",21.67,100,995.64,0.81,1.18,1.68],
    [2722,363171,"Vazduh","Libelium","0004A30B0021DF70",44.979,16.7091,"","","Prijedor","",22346427,"2023-09-21T16:37:21",3,"NO ERROR",22.95,100,995.13,0.21,0.34,0.41],
    [2723,363171,"Vazduh","Libelium","0004A30B0021DF70",44.979,16.7091,"","","Prijedor","",22346963,"2023-09-21T17:38:02",3,"NO ERROR",22.01,100,994.53,0.5,0.78,0.88],
    [2724,363171,"Vazduh","Libelium","0004A30B0021DF70",44.979,16.7091,"","","Prijedor","",22347508,"2023-09-21T18:38:44",3,"NO ERROR",21.17,100,994.34,0.39,0.57,0.58],
    [2725,363171,"Vazduh","Libelium","0004A30B0021DF70",44.979,16.7091,"","","Prijedor","",22348754,"2023-09-21T19:39:26",3,"NO ERROR",19.9,100,994.56,0.7,1.05,1.08],
    [2726,363171,"Vazduh","Libelium","0004A30B0021DF70",44.979,16.7091,"","","Prijedor","",22349612,"2023-09-21T20:40:07",3,"NO ERROR",19.06,100,995.21,0.8,1.06,1.08],
    [2727,363171,"Vazduh","Libelium","0004A30B0021DF70",44.979,16.7091,"","","Prijedor","",22350500,"2023-09-21T21:41:29",3,"NO ERROR",18.46,100,995.14,0.41,0.52,0.53],
    [2728,363171,"Vazduh","Libelium","0004A30B0021DF70",44.979,16.7091,"","","Prijedor","",22350498,"2023-09-21T21:41:29",3,"NO ERROR",18.46,100,995.14,0.41,0.52,0.53],
    [2729,363171,"Vazduh","Libelium","0004A30B0021DF70",44.979,16.7091,"","","Prijedor","",22350471,"2023-09-21T21:40:49",3,"NO ERROR",18.46,100,995.14,0.41,0.52,0.53],
    [2730,363171,"Vazduh","Libelium","0004A30B0021DF70",44.979,16.7091,"","","Prijedor","",22351293,"2023-09-21T22:41:31",3,"NO ERROR",17.92,100,995.19,0.76,1.05,1.08],
    [2731,363171,"Vazduh","Libelium","0004A30B0021DF70",44.979,16.7091,"","","Prijedor","",22352139,"2023-09-21T23:42:19",3,"NO ERROR",17.29,100,994.96,0.68,0.82,0.82],
    [2732,363171,"Vazduh","Libelium","0004A30B0021DF70",44.979,16.7091,"","","Prijedor","",22353216,"2023-09-22T00:43:01",3,"NO ERROR",16.84,100,994.73,0.51,0.83,0.95],
    [2733,363171,"Vazduh","Libelium","0004A30B0021DF70",44.979,16.7091,"","","Prijedor","",22354009,"2023-09-22T01:43:42",3,"NO ERROR",17.45,100,994.49,0.44,0.65,0.67],
    [2734,363171,"Vazduh","Libelium","0004A30B0021DF70",44.979,16.7091,"","","Prijedor","",22354752,"2023-09-22T02:44:24",3,"NO ERROR",16.99,100,994.28,0.81,1.51,1.61],
    [2735,363171,"Vazduh","Libelium","0004A30B0021DF70",44.979,16.7091,"","","Prijedor","",22355524,"2023-09-22T03:45:06",3,"NO ERROR",16.5,100,993.9,1.07,1.9,2.13],
    [2736,363171,"Vazduh","Libelium","0004A30B0021DF70",44.979,16.7091,"","","Prijedor","",22356343,"2023-09-22T04:45:48",3,"NO ERROR",16.1,100,993.46,1.14,1.54,1.56],
    [2737,363171,"Vazduh","Libelium","0004A30B0021DF70",44.979,16.7091,"","","Prijedor","",22357202,"2023-09-22T05:46:29",3,"NO ERROR",15.57,100,993.55,2.45,3,3.01],
    [2738,363171,"Vazduh","Libelium","0004A30B0021DF70",44.979,16.7091,"","","Prijedor","",22357915,"2023-09-22T06:47:11",3,"NO ERROR",15.87,100,993.48,1.08,1.45,1.48],
    [2739,363171,"Vazduh","Libelium","0004A30B0021DF70",44.979,16.7091,"","","Prijedor","",22358489,"2023-09-22T07:47:53",3,"NO ERROR",17.97,100,993.94,0.38,0.5,0.5],
    [2740,363171,"Vazduh","Libelium","0004A30B0021DF70",44.979,16.7091,"","","Prijedor","",22359043,"2023-09-22T08:48:35",3,"NO ERROR",23.1,89.4,994.12,0.74,1.12,1.16],
    [2741,363171,"Vazduh","Libelium","0004A30B0021DF70",44.979,16.7091,"","","Prijedor","",22359614,"2023-09-22T09:49:16",3,"NO ERROR",28.74,66.8,994.52,0.65,0.97,0.99],
    [2742,363171,"Vazduh","Libelium","0004A30B0021DF70",44.979,16.7091,"","","Prijedor","",22360171,"2023-09-22T10:49:58",3,"NO ERROR",29.2,68,994.31,1.23,1.94,2.09],
    [2743,363171,"Vazduh","Libelium","0004A30B0021DF70",44.979,16.7091,"","","Prijedor","",22361059,"2023-09-22T11:50:39",3,"NO ERROR",30.85,50.8,994.17,0.69,1.18,1.69],
    [2744,363171,"Vazduh","Libelium","0004A30B0021DF70",44.979,16.7091,"","","Prijedor","",22362701,"2023-09-22T12:51:21",3,"NO ERROR",30.9,49.1,993.89,0.9,1.39,1.46],
    [2745,363171,"Vazduh","Libelium","0004A30B0021DF70",44.979,16.7091,"","","Prijedor","",22363592,"2023-09-22T13:52:02",3,"NO ERROR",31.52,47.7,993.29,0.72,1.05,1.06],
    [2746,363171,"Vazduh","Libelium","0004A30B0021DF70",44.979,16.7091,"","","Prijedor","",22364201,"2023-09-22T14:52:43",3,"NO ERROR",31.59,47.4,993.04,1.21,1.91,2.13],
    [2747,363171,"Vazduh","Libelium","0004A30B0021DF70",44.979,16.7091,"","","Prijedor","",22364794,"2023-09-22T15:53:25",3,"NO ERROR",34.53,42.1,992.63,1.31,2,2.06],
    [2748,363171,"Vazduh","Libelium","0004A30B0021DF70",44.979,16.7091,"","","Prijedor","",22365382,"2023-09-22T16:54:08",3,"NO ERROR",29.73,51.1,992.52,1.63,2.32,2.35],
    [2749,363171,"Vazduh","Libelium","0004A30B0021DF70",44.979,16.7091,"","","Prijedor","",22365982,"2023-09-22T17:54:50",3,"NO ERROR",28.61,55.6,992.45,1.8,2.71,2.87],
    [2750,363171,"Vazduh","Libelium","0004A30B0021DF70",44.979,16.7091,"","","Prijedor","",22366549,"2023-09-22T18:55:32",3,"NO ERROR",26.84,63.5,993.37,2.36,3.93,4.82],
    [2751,363171,"Vazduh","Libelium","0004A30B0021DF70",44.979,16.7091,"","","Prijedor","",22367369,"2023-09-22T19:56:14",3,"NO ERROR",26.1,64.8,993.36,2.07,3.11,3.68],
    [2752,363171,"Vazduh","Libelium","0004A30B0021DF70",44.979,16.7091,"","","Prijedor","",22368144,"2023-09-22T20:56:56",3,"NO ERROR",24.39,76.5,993.26,1.34,2.21,2.75],
    [2753,363171,"Vazduh","Libelium","0004A30B0021DF70",44.979,16.7091,"","","Prijedor","",22368863,"2023-09-22T21:57:38",3,"NO ERROR",25.01,74.4,993.94,2.02,3.05,3.34],
    [2754,363171,"Vazduh","Libelium","0004A30B0021DF70",44.979,16.7091,"","","Prijedor","",22369522,"2023-09-22T22:58:19",3,"NO ERROR",24.14,76.4,993.93,1.3,1.76,1.8],
    [2755,363171,"Vazduh","Libelium","0004A30B0021DF70",44.979,16.7091,"","","Prijedor","",22370360,"2023-09-22T23:59:01",3,"NO ERROR",24.51,72,993.52,1.08,1.46,1.5],
    [2756,363171,"Vazduh","Libelium","0004A30B0021DF70",44.979,16.7091,"","","Prijedor","",22371247,"2023-09-23T00:59:42",3,"NO ERROR",22.21,100,994.02,1.14,1.73,1.97],
    [2757,363171,"Vazduh","Libelium","0004A30B0021DF70",44.979,16.7091,"","","Prijedor","",22371882,"2023-09-23T02:00:23",3,"NO ERROR",21.3,100,994.57,1.17,1.95,2.24],
    [2758,363171,"Vazduh","Libelium","0004A30B0021DF70",44.979,16.7091,"","","Prijedor","",22372496,"2023-09-23T03:01:11",3,"NO ERROR",20.13,100,994.63,1.88,2.74,2.76],
    [2759,363171,"Vazduh","Libelium","0004A30B0021DF70",44.979,16.7091,"","","Prijedor","",22373092,"2023-09-23T04:02:00",3,"NO ERROR",19.19,100,994.22,1,1.37,1.38],
    [2760,363171,"Vazduh","Libelium","0004A30B0021DF70",44.979,16.7091,"","","Prijedor","",22373726,"2023-09-23T05:02:41",3,"NO ERROR",18.52,100,995.41,0.75,0.89,0.89],
    [2761,363171,"Vazduh","Libelium","0004A30B0021DF70",44.979,16.7091,"","","Prijedor","",22374359,"2023-09-23T06:03:24",3,"NO ERROR",18.2,100,997.57,0.66,0.79,0.8],
    [2762,363171,"Vazduh","Libelium","0004A30B0021DF70",44.979,16.7091,"","","Prijedor","",22374926,"2023-09-23T07:04:06",3,"NO ERROR",17.78,100,996.96,0.64,0.78,0.78],
    [2763,363171,"Vazduh","Libelium","0004A30B0021DF70",44.979,16.7091,"","","Prijedor","",22375492,"2023-09-23T08:04:48",3,"NO ERROR",17.7,100,996.71,0.65,0.92,1.05],
    [2764,363171,"Vazduh","Libelium","0004A30B0021DF70",44.979,16.7091,"","","Prijedor","",22376072,"2023-09-23T09:05:30",3,"NO ERROR",17.87,100,997.21,0.29,0.35,0.36],
    [2765,363171,"Vazduh","Libelium","0004A30B0021DF70",44.979,16.7091,"","","Prijedor","",22376614,"2023-09-23T10:06:12",3,"NO ERROR",18.05,100,997.07,0.21,0.28,0.28],
    [2766,363171,"Vazduh","Libelium","0004A30B0021DF70",44.979,16.7091,"","","Prijedor","",22377167,"2023-09-23T11:06:53",3,"NO ERROR",18.77,100,997.57,0.19,0.25,0.25],
    [2767,363171,"Vazduh","Libelium","0004A30B0021DF70",44.979,16.7091,"","","Prijedor","",22377783,"2023-09-23T12:07:34",3,"NO ERROR",19.6,100,997.55,0.07,0.08,0.08],
    [2768,363171,"Vazduh","Libelium","0004A30B0021DF70",44.979,16.7091,"","","Prijedor","",22378411,"2023-09-23T13:08:16",3,"NO ERROR",18.83,100,997.5,0.18,0.2,0.2],
    [2769,363171,"Vazduh","Libelium","0004A30B0021DF70",44.979,16.7091,"","","Prijedor","",22378999,"2023-09-23T14:08:57",3,"NO ERROR",18.47,100,997.48,0.63,0.78,0.78],
    [2770,363171,"Vazduh","Libelium","0004A30B0021DF70",44.979,16.7091,"","","Prijedor","",22379648,"2023-09-23T15:09:39",3,"NO ERROR",18,100,997.76,0.48,0.63,16.01],
    [2771,363171,"Vazduh","Libelium","0004A30B0021DF70",44.979,16.7091,"","","Prijedor","",22380263,"2023-09-23T16:10:21",3,"NO ERROR",17.71,100,998.14,0.54,0.75,0.78],
    [2772,363171,"Vazduh","Libelium","0004A30B0021DF70",44.979,16.7091,"","","Prijedor","",22380850,"2023-09-23T17:11:03",3,"NO ERROR",17.84,100,997.27,0.49,0.74,0.75],
    [2773,363171,"Vazduh","Libelium","0004A30B0021DF70",44.979,16.7091,"","","Prijedor","",22381447,"2023-09-23T18:11:45",3,"NO ERROR",17.93,100,998.28,0.7,0.94,1.05],
    [2774,363171,"Vazduh","Libelium","0004A30B0021DF70",44.979,16.7091,"","","Prijedor","",22382009,"2023-09-23T19:12:27",3,"NO ERROR",17.8,100,998.5,0.45,0.57,0.57],
    [2775,363171,"Vazduh","Libelium","0004A30B0021DF70",44.979,16.7091,"","","Prijedor","",22382778,"2023-09-23T20:13:10",3,"NO ERROR",17.67,100,998.01,0.53,0.78,0.8],
    [2776,363171,"Vazduh","Libelium","0004A30B0021DF70",44.979,16.7091,"","","Prijedor","",22383640,"2023-09-23T21:13:52",3,"NO ERROR",17.99,100,998.97,0.21,0.24,0.24],
    [2777,363171,"Vazduh","Libelium","0004A30B0021DF70",44.979,16.7091,"","","Prijedor","",22384392,"2023-09-23T22:14:34",3,"NO ERROR",16.61,100,998.54,0.11,0.21,0.28],
    [2778,363171,"Vazduh","Libelium","0004A30B0021DF70",44.979,16.7091,"","","Prijedor","",22385064,"2023-09-23T23:15:16",3,"NO ERROR",16.2,100,998.97,0.14,0.15,0.15],
    [2779,363171,"Vazduh","Libelium","0004A30B0021DF70",44.979,16.7091,"","","Prijedor","",22385908,"2023-09-24T00:15:58",3,"NO ERROR",16.18,100,999.22,0.03,0.03,0.03],
    [2780,363171,"Vazduh","Libelium","0004A30B0021DF70",44.979,16.7091,"","","Prijedor","",22386605,"2023-09-24T01:16:39",3,"NO ERROR",15.53,100,999.42,0.06,0.07,0.07],
    [2781,363171,"Vazduh","Libelium","0004A30B0021DF70",44.979,16.7091,"","","Prijedor","",22387235,"2023-09-24T02:17:21",3,"NO ERROR",13.83,100,999.73,0.49,0.58,0.58],
    [2782,363171,"Vazduh","Libelium","0004A30B0021DF70",44.979,16.7091,"","","Prijedor","",22387752,"2023-09-24T03:18:02",3,"NO ERROR",12.76,100,1000.31,0.28,0.35,0.36],
    [2783,363171,"Vazduh","Libelium","0004A30B0021DF70",44.979,16.7091,"","","Prijedor","",22388246,"2023-09-24T04:18:44",3,"NO ERROR",12.48,100,1001.37,0.03,0.03,0.03],
    [2784,363171,"Vazduh","Libelium","0004A30B0021DF70",44.979,16.7091,"","","Prijedor","",22388821,"2023-09-24T05:19:26",3,"NO ERROR",12.13,100,1001.5,0.13,0.25,0.56],
    [2785,363171,"Vazduh","Libelium","0004A30B0021DF70",44.979,16.7091,"","","Prijedor","",22389353,"2023-09-24T06:20:08",3,"NO ERROR",11.94,100,1002.05,0.02,0.02,0.02],
    [2786,363171,"Vazduh","Libelium","0004A30B0021DF70",44.979,16.7091,"","","Prijedor","",22389786,"2023-09-24T07:20:49",3,"NO ERROR",12.18,100,1002.61,0.08,0.09,0.09],
    [2787,363171,"Vazduh","Libelium","0004A30B0021DF70",44.979,16.7091,"","","Prijedor","",22390271,"2023-09-24T08:21:43",3,"NO ERROR",12.26,100,1003.27,0.04,0.08,0.09],
    [2788,363171,"Vazduh","Libelium","0004A30B0021DF70",44.979,16.7091,"","","Prijedor","",22390747,"2023-09-24T09:22:25",3,"NO ERROR",12.25,100,1004.26,0.31,0.38,0.38],
    [2789,363171,"Vazduh","Libelium","0004A30B0021DF70",44.979,16.7091,"","","Prijedor","",22391220,"2023-09-24T10:23:07",3,"NO ERROR",12.43,100,1004.73,0.07,0.09,0.09],
    [2790,363171,"Vazduh","Libelium","0004A30B0021DF70",44.979,16.7091,"","","Prijedor","",22391680,"2023-09-24T11:23:49",3,"NO ERROR",12.62,100,1005.11,0.03,0.03,0.03],
    [2791,363171,"Vazduh","Libelium","0004A30B0021DF70",44.979,16.7091,"","","Prijedor","",22392195,"2023-09-24T12:24:31",3,"NO ERROR",12.67,100,1005.26,0.48,0.6,0.6],
    [2792,363171,"Vazduh","Libelium","0004A30B0021DF70",44.979,16.7091,"","","Prijedor","",22392747,"2023-09-24T13:25:13",3,"NO ERROR",13.04,100,1005.45,0.12,0.13,0.13],
    [2793,363171,"Vazduh","Libelium","0004A30B0021DF70",44.979,16.7091,"","","Prijedor","",22393260,"2023-09-24T14:25:55",3,"NO ERROR",12.94,100,1005.29,0.28,0.34,0.35],
    [2794,363171,"Vazduh","Libelium","0004A30B0021DF70",44.979,16.7091,"","","Prijedor","",22393790,"2023-09-24T15:26:43",3,"NO ERROR",13.23,100,1005.34,0.24,0.3,0.3],
    [2795,363171,"Vazduh","Libelium","0004A30B0021DF70",44.979,16.7091,"","","Prijedor","",22394288,"2023-09-24T16:27:25",3,"NO ERROR",13.36,100,1005.28,0.02,0.03,0.03],
    [2796,363171,"Vazduh","Libelium","0004A30B0021DF70",44.979,16.7091,"","","Prijedor","",22394817,"2023-09-24T17:28:07",3,"NO ERROR",13.17,100,1005.4,0.07,0.07,0.07],
    [2797,363171,"Vazduh","Libelium","0004A30B0021DF70",44.979,16.7091,"","","Prijedor","",22395326,"2023-09-24T18:28:48",3,"NO ERROR",12.92,100,1005.84,0.1,0.14,0.14],
    [2798,363171,"Vazduh","Libelium","0004A30B0021DF70",44.979,16.7091,"","","Prijedor","",22395929,"2023-09-24T19:29:30",3,"NO ERROR",12.98,100,1006.11,0.16,0.2,0.2],
    [2799,363171,"Vazduh","Libelium","0004A30B0021DF70",44.979,16.7091,"","","Prijedor","",22396652,"2023-09-24T20:30:13",3,"NO ERROR",13.04,100,1006.71,0.19,0.2,0.2],
    [2800,363171,"Vazduh","Libelium","0004A30B0021DF70",44.979,16.7091,"","","Prijedor","",22397454,"2023-09-24T21:30:55",3,"NO ERROR",13.24,100,1006.63,0.61,0.79,0.94],
    [2801,363171,"Vazduh","Libelium","0004A30B0021DF70",44.979,16.7091,"","","Prijedor","",22398141,"2023-09-24T22:31:37",3,"NO ERROR",13.51,100,1006.89,0.08,0.17,0.19],
    [2802,363171,"Vazduh","Libelium","0004A30B0021DF70",44.979,16.7091,"","","Prijedor","",22398799,"2023-09-24T23:32:18",3,"NO ERROR",13.45,100,1006.93,0.02,0.06,0.07],
    [2803,363171,"Vazduh","Libelium","0004A30B0021DF70",44.979,16.7091,"","","Prijedor","",22399674,"2023-09-25T00:33:12",3,"NO ERROR",13.42,100,1006.84,0.35,0.46,0.47],
    [2804,363171,"Vazduh","Libelium","0004A30B0021DF70",44.979,16.7091,"","","Prijedor","",22400296,"2023-09-25T01:33:53",3,"NO ERROR",13.36,100,1006.8,0.51,0.55,0.55],
    [2805,363171,"Vazduh","Libelium","0004A30B0021DF70",44.979,16.7091,"","","Prijedor","",22400872,"2023-09-25T02:34:35",3,"NO ERROR",13.33,100,1006.25,0.21,0.22,0.22],
    [2806,363171,"Vazduh","Libelium","0004A30B0021DF70",44.979,16.7091,"","","Prijedor","",22401385,"2023-09-25T03:35:17",3,"NO ERROR",13.45,100,1006.27,0.4,0.48,0.48],
    [2807,363171,"Vazduh","Libelium","0004A30B0021DF70",44.979,16.7091,"","","Prijedor","",22401947,"2023-09-25T04:35:59",3,"NO ERROR",13.48,100,1006.05,1.57,1.79,1.8],
    [2808,363171,"Vazduh","Libelium","0004A30B0021DF70",44.979,16.7091,"","","Prijedor","",22402541,"2023-09-25T05:36:41",3,"NO ERROR",13.85,100,1006.11,0.28,0.35,0.35],
    [2809,363171,"Vazduh","Libelium","0004A30B0021DF70",44.979,16.7091,"","","Prijedor","",22403097,"2023-09-25T06:37:23",3,"NO ERROR",13.7,100,1006.28,1.3,1.61,1.61],
    [2810,363171,"Vazduh","Libelium","0004A30B0021DF70",44.979,16.7091,"","","Prijedor","",22403629,"2023-09-25T07:38:05",3,"NO ERROR",13.82,100,1006.44,0.33,0.35,0.35],
    [2811,363171,"Vazduh","Libelium","0004A30B0021DF70",44.979,16.7091,"","","Prijedor","",22404141,"2023-09-25T08:38:47",3,"NO ERROR",14.35,100,1006.67,0.19,0.21,0.21],
    [2812,363171,"Vazduh","Libelium","0004A30B0021DF70",44.979,16.7091,"","","Prijedor","",22404665,"2023-09-25T09:39:29",3,"NO ERROR",15.04,100,1007.34,0.07,0.07,0.07],
    [2813,363171,"Vazduh","Libelium","0004A30B0021DF70",44.979,16.7091,"","","Prijedor","",22405169,"2023-09-25T10:40:11",3,"NO ERROR",15.62,100,1007.06,0.08,0.2,0.51],
    [2814,363171,"Vazduh","Libelium","0004A30B0021DF70",44.979,16.7091,"","","Prijedor","",22405648,"2023-09-25T11:40:52",3,"NO ERROR",15.44,100,1007.41,0.18,0.28,0.29],
    [2815,363171,"Vazduh","Libelium","0004A30B0021DF70",44.979,16.7091,"","","Prijedor","",22406210,"2023-09-25T12:41:33",3,"NO ERROR",15.73,100,1007.99,0.1,0.15,0.15],
    [2816,363171,"Vazduh","Libelium","0004A30B0021DF70",44.979,16.7091,"","","Prijedor","",22406766,"2023-09-25T13:42:15",3,"NO ERROR",18.39,100,1008.02,0.13,0.18,0.18],
    [2817,363171,"Vazduh","Libelium","0004A30B0021DF70",44.979,16.7091,"","","Prijedor","",22407270,"2023-09-25T14:42:57",3,"NO ERROR",18.33,100,1007.72,0.08,0.1,0.1],
    [2818,363171,"Vazduh","Libelium","0004A30B0021DF70",44.979,16.7091,"","","Prijedor","",22407781,"2023-09-25T15:43:39",3,"NO ERROR",17.69,100,1007.92,0.15,0.15,0.15],
    [2819,363171,"Vazduh","Libelium","0004A30B0021DF70",44.979,16.7091,"","","Prijedor","",22408278,"2023-09-25T16:44:21",3,"NO ERROR",17.68,100,1008.14,0.25,0.35,0.35],
    [2820,363171,"Vazduh","Libelium","0004A30B0021DF70",44.979,16.7091,"","","Prijedor","",22408767,"2023-09-25T17:45:03",3,"NO ERROR",17.73,100,1007.94,0.51,0.66,0.66],
    [2821,363171,"Vazduh","Libelium","0004A30B0021DF70",44.979,16.7091,"","","Prijedor","",22409224,"2023-09-25T18:45:45",3,"NO ERROR",17.48,100,1008.4,0.39,0.6,0.75],
    [2822,363171,"Vazduh","Libelium","0004A30B0021DF70",44.979,16.7091,"","","Prijedor","",22409801,"2023-09-25T19:46:27",3,"NO ERROR",17.31,100,1008.93,0.4,0.78,1.38],
    [2823,363171,"Vazduh","Libelium","0004A30B0021DF70",44.979,16.7091,"","","Prijedor","",22410318,"2023-09-25T20:47:09",3,"NO ERROR",17.14,100,1009.16,0.49,0.67,0.69],
    [2824,363171,"Vazduh","Libelium","0004A30B0021DF70",44.979,16.7091,"","","Prijedor","",22410897,"2023-09-25T21:47:52",3,"NO ERROR",16.57,100,1009.2,1.01,1.38,1.87],
    [2825,363171,"Vazduh","Libelium","0004A30B0021DF70",44.979,16.7091,"","","Prijedor","",22411406,"2023-09-25T22:48:34",3,"NO ERROR",17.06,100,1009.37,0.96,1.5,1.6],
    [2826,363171,"Vazduh","Libelium","0004A30B0021DF70",44.979,16.7091,"","","Prijedor","",22412685,"2023-09-26T00:50:09",3,"NO ERROR",17.29,100,1008.74,0.25,0.28,0.28],
    [2827,363171,"Vazduh","Libelium","0004A30B0021DF70",44.979,16.7091,"","","Prijedor","",22413828,"2023-09-26T02:51:55",3,"NO ERROR",16.56,100,1008.3,1.29,1.62,1.73],
    [2828,363171,"Vazduh","Libelium","0004A30B0021DF70",44.979,16.7091,"","","Prijedor","",22414387,"2023-09-26T03:52:55",3,"NO ERROR",16.24,100,1008,1.94,2.39,2.54],
    [2829,363171,"Vazduh","Libelium","0004A30B0021DF70",44.979,16.7091,"","","Prijedor","",22415006,"2023-09-26T04:53:19",3,"NO ERROR",16.27,100,1007.95,1.39,1.84,1.97],
    [2830,363171,"Vazduh","Libelium","0004A30B0021DF70",44.979,16.7091,"","","Prijedor","",22415614,"2023-09-26T05:54:01",3,"NO ERROR",16.42,100,1007.79,2.63,3.25,3.4],
    [2831,363171,"Vazduh","Libelium","0004A30B0021DF70",44.979,16.7091,"","","Prijedor","",22416171,"2023-09-26T06:54:43",3,"NO ERROR",16.23,100,1007.79,1.49,2.05,2.09],
    [2832,363171,"Vazduh","Libelium","0004A30B0021DF70",44.979,16.7091,"","","Prijedor","",22416697,"2023-09-26T07:55:24",3,"NO ERROR",16.67,100,1008.04,0.77,1.03,1.14],
    [2833,363171,"Vazduh","Libelium","0004A30B0021DF70",44.979,16.7091,"","","Prijedor","",22417243,"2023-09-26T08:56:12",3,"NO ERROR",19.97,100,1008.17,0.48,0.56,0.56],
    [2834,363171,"Vazduh","Libelium","0004A30B0021DF70",44.979,16.7091,"","","Prijedor","",22417722,"2023-09-26T09:56:54",3,"NO ERROR",19.7,100,1008.36,0.67,0.83,0.95],
    [2835,363171,"Vazduh","Libelium","0004A30B0021DF70",44.979,16.7091,"","","Prijedor","",22418161,"2023-09-26T10:57:36",3,"NO ERROR",20.43,100,1008.29,0.74,1.02,1.04],
    [2836,363171,"Vazduh","Libelium","0004A30B0021DF70",44.979,16.7091,"","","Prijedor","",22418648,"2023-09-26T11:58:19",3,"NO ERROR",21.83,100,1008.11,0.68,0.99,1.08],
    [2837,363171,"Vazduh","Libelium","0004A30B0021DF70",44.979,16.7091,"","","Prijedor","",22419251,"2023-09-26T12:59:00",3,"NO ERROR",22.94,96.8,1007.48,1.18,1.42,1.42],
    [2838,363171,"Vazduh","Libelium","0004A30B0021DF70",44.979,16.7091,"","","Prijedor","",22419829,"2023-09-26T13:59:41",3,"NO ERROR",23.6,92.8,1006.72,0.43,0.54,0.56],
    [2839,363171,"Vazduh","Libelium","0004A30B0021DF70",44.979,16.7091,"","","Prijedor","",22420384,"2023-09-26T15:00:23",3,"NO ERROR",28.29,70.8,1005.84,0.57,0.79,0.81],
    [2840,363171,"Vazduh","Libelium","0004A30B0021DF70",44.979,16.7091,"","","Prijedor","",22420916,"2023-09-26T16:01:05",3,"NO ERROR",27.4,69.1,1005.5,0.81,1.09,1.11],
    [2841,363171,"Vazduh","Libelium","0004A30B0021DF70",44.979,16.7091,"","","Prijedor","",22421475,"2023-09-26T17:01:47",3,"NO ERROR",26.65,62.7,1005.31,0.77,1.08,1.11],
    [2842,363171,"Vazduh","Libelium","0004A30B0021DF70",44.979,16.7091,"","","Prijedor","",22422007,"2023-09-26T18:02:29",3,"NO ERROR",23.46,72.2,1005.46,1.04,1.39,1.4],
    [2843,363171,"Vazduh","Libelium","0004A30B0021DF70",44.979,16.7091,"","","Prijedor","",22422587,"2023-09-26T19:03:11",3,"NO ERROR",21.21,78.4,1005.6,0.6,0.97,1.11],
    [2844,363171,"Vazduh","Libelium","0004A30B0021DF70",44.979,16.7091,"","","Prijedor","",22423308,"2023-09-26T20:03:53",3,"NO ERROR",19.2,100,1006.09,0.99,1.47,1.53],
    [2845,363171,"Vazduh","Libelium","0004A30B0021DF70",44.979,16.7091,"","","Prijedor","",22424066,"2023-09-26T21:04:35",3,"NO ERROR",17.84,100,1006.39,0.79,0.93,0.94],
    [2846,363171,"Vazduh","Libelium","0004A30B0021DF70",44.979,16.7091,"","","Prijedor","",22424688,"2023-09-26T22:05:17",3,"NO ERROR",16.68,100,1006.45,1.55,2.05,2.05],
    [2847,363171,"Vazduh","Libelium","0004A30B0021DF70",44.979,16.7091,"","","Prijedor","",22425331,"2023-09-26T23:05:58",3,"NO ERROR",15.74,100,1006.52,1.93,2.67,24.93],
    [2848,363171,"Vazduh","Libelium","0004A30B0021DF70",44.979,16.7091,"","","Prijedor","",22426147,"2023-09-27T00:06:41",3,"NO ERROR",14.75,100,1006.35,3.46,4.44,6.07],
    [2849,363171,"Vazduh","Libelium","0004A30B0021DF70",44.979,16.7091,"","","Prijedor","",22426829,"2023-09-27T01:07:23",3,"NO ERROR",14.12,100,1006.55,4.53,5.42,5.64],
    [2850,363171,"Vazduh","Libelium","0004A30B0021DF70",44.979,16.7091,"","","Prijedor","",22427453,"2023-09-27T02:08:05",3,"NO ERROR",13.67,100,1006.31,8.36,19.08,391.16],
    [2851,363171,"Vazduh","Libelium","0004A30B0021DF70",44.979,16.7091,"","","Prijedor","",22428038,"2023-09-27T03:08:46",3,"NO ERROR",13.06,100,1006.02,2.17,3.66,62.23],
    [2852,363171,"Vazduh","Libelium","0004A30B0021DF70",44.979,16.7091,"","","Prijedor","",22428641,"2023-09-27T04:09:28",3,"NO ERROR",13.26,100,1006.1,19.88,49.6,1223.36],
    [2853,363171,"Vazduh","Libelium","0004A30B0021DF70",44.979,16.7091,"","","Prijedor","",22429351,"2023-09-27T05:10:10",3,"NO ERROR",13.08,100,1006.21,14.68,29.76,641.05],
    [2854,363171,"Vazduh","Libelium","0004A30B0021DF70",44.979,16.7091,"","","Prijedor","",22430000,"2023-09-27T06:10:52",3,"NO ERROR",13.27,100,1006.1,7.17,16.52,104.77],
    [2855,363171,"Vazduh","Libelium","0004A30B0021DF70",44.979,16.7091,"","","Prijedor","",22430585,"2023-09-27T07:11:34",3,"NO ERROR",13.19,100,1006.47,9.38,15.91,144.49],
    [2856,363171,"Vazduh","Libelium","0004A30B0021DF70",44.979,16.7091,"","","Prijedor","",22431149,"2023-09-27T08:12:16",3,"NO ERROR",13.1,100,1006.78,2.43,8.06,89.9],
    [2857,363171,"Vazduh","Libelium","0004A30B0021DF70",44.979,16.7091,"","","Prijedor","",22431695,"2023-09-27T09:12:58",3,"NO ERROR",13.7,100,1007.18,0.95,2.5,62.42],
    [2858,363171,"Vazduh","Libelium","0004A30B0021DF70",44.979,16.7091,"","","Prijedor","",22432188,"2023-09-27T10:13:40",3,"NO ERROR",15.23,100,1007.36,0.53,0.61,0.61],
    [2859,363171,"Vazduh","Libelium","0004A30B0021DF70",44.979,16.7091,"","","Prijedor","",22432668,"2023-09-27T11:14:22",3,"NO ERROR",18.57,100,1007.22,0.49,0.72,0.85],
    [2860,363171,"Vazduh","Libelium","0004A30B0021DF70",44.979,16.7091,"","","Prijedor","",22433244,"2023-09-27T12:15:05",3,"NO ERROR",21.69,100,1006.84,0.14,0.31,0.39],
    [2861,363171,"Vazduh","Libelium","0004A30B0021DF70",44.979,16.7091,"","","Prijedor","",22433814,"2023-09-27T13:15:53",3,"NO ERROR",24.86,67.5,1006.08,0.4,0.58,0.67],
    [2862,363171,"Vazduh","Libelium","0004A30B0021DF70",44.979,16.7091,"","","Prijedor","",22434384,"2023-09-27T14:16:35",3,"NO ERROR",26.46,57.7,1005.68,0.14,0.25,0.31],
    [2863,363171,"Vazduh","Libelium","0004A30B0021DF70",44.979,16.7091,"","","Prijedor","",22434945,"2023-09-27T15:17:16",3,"NO ERROR",29.19,50.4,1005.05,0.19,0.26,0.26],
    [2864,363171,"Vazduh","Libelium","0004A30B0021DF70",44.979,16.7091,"","","Prijedor","",22435478,"2023-09-27T16:17:58",3,"NO ERROR",29.12,48.5,1004.77,0.21,0.31,0.31],
    [2865,363171,"Vazduh","Libelium","0004A30B0021DF70",44.979,16.7091,"","","Prijedor","",22436049,"2023-09-27T17:18:39",3,"NO ERROR",25.87,52.4,1004.92,0.51,0.97,2.7],
    [2866,363171,"Vazduh","Libelium","0004A30B0021DF70",44.979,16.7091,"","","Prijedor","",22436581,"2023-09-27T18:19:21",3,"NO ERROR",24.21,57.6,1004.96,0.34,0.46,0.47],
    [2867,363171,"Vazduh","Libelium","0004A30B0021DF70",44.979,16.7091,"","","Prijedor","",22437163,"2023-09-27T19:20:03",3,"NO ERROR",20.56,82.1,1005.16,0.67,1.06,1.54],
    [2868,363171,"Vazduh","Libelium","0004A30B0021DF70",44.979,16.7091,"","","Prijedor","",22437857,"2023-09-27T20:20:44",3,"NO ERROR",19.08,92.4,1005.16,0.5,0.99,1.19],
    [2869,363171,"Vazduh","Libelium","0004A30B0021DF70",44.979,16.7091,"","","Prijedor","",22438593,"2023-09-27T21:21:26",3,"NO ERROR",17.09,100,1005.34,0.64,1.23,1.44],
    [2870,363171,"Vazduh","Libelium","0004A30B0021DF70",44.979,16.7091,"","","Prijedor","",22439268,"2023-09-27T22:22:08",3,"NO ERROR",15.87,100,1005.4,1.34,1.89,2.14],
    [2871,363171,"Vazduh","Libelium","0004A30B0021DF70",44.979,16.7091,"","","Prijedor","",22439900,"2023-09-27T23:22:50",3,"NO ERROR",14.37,100,1005.29,0.73,0.98,1.08],
    [2872,363171,"Vazduh","Libelium","0004A30B0021DF70",44.979,16.7091,"","","Prijedor","",22440854,"2023-09-28T00:23:32",3,"NO ERROR",13.67,100,1005.01,0.92,1.14,1.14],
    [2873,363171,"Vazduh","Libelium","0004A30B0021DF70",44.979,16.7091,"","","Prijedor","",22441591,"2023-09-28T01:24:21",3,"NO ERROR",12.99,100,1005,0.82,0.86,0.86],
    [2874,363171,"Vazduh","Libelium","0004A30B0021DF70",44.979,16.7091,"","","Prijedor","",22442279,"2023-09-28T02:25:02",3,"NO ERROR",12.28,100,1004.96,1.19,1.36,1.36],
    [2875,363171,"Vazduh","Libelium","0004A30B0021DF70",44.979,16.7091,"","","Prijedor","",22442905,"2023-09-28T03:25:44",3,"NO ERROR",11.72,100,1004.97,2.07,2.37,2.38],
    [2876,363171,"Vazduh","Libelium","0004A30B0021DF70",44.979,16.7091,"","","Prijedor","",22443518,"2023-09-28T04:26:26",3,"NO ERROR",12.31,100,1005.06,1.12,1.31,1.32],
    [2877,363171,"Vazduh","Libelium","0004A30B0021DF70",44.979,16.7091,"","","Prijedor","",22444227,"2023-09-28T05:27:08",3,"NO ERROR",12.44,100,1005.21,5.25,7.4,96.12],
    [2878,363171,"Vazduh","Libelium","0004A30B0021DF70",44.979,16.7091,"","","Prijedor","",22444898,"2023-09-28T06:27:50",3,"NO ERROR",12.1,100,1005.59,5.42,11.36,130.25],
    [2879,363171,"Vazduh","Libelium","0004A30B0021DF70",44.979,16.7091,"","","Prijedor","",22445449,"2023-09-28T07:28:32",3,"NO ERROR",11.92,100,1005.97,9.4,15.23,107.34],
    [2880,363171,"Vazduh","Libelium","0004A30B0021DF70",44.979,16.7091,"","","Prijedor","",22445986,"2023-09-28T08:29:14",3,"NO ERROR",12.42,100,1006.22,5.16,18.53,258.62],
    [2881,363171,"Vazduh","Libelium","0004A30B0021DF70",44.979,16.7091,"","","Prijedor","",22446541,"2023-09-28T09:29:56",3,"NO ERROR",13.53,100,1006.55,0.84,1.08,1.1],
    [2882,363171,"Vazduh","Libelium","0004A30B0021DF70",44.979,16.7091,"","","Prijedor","",22447048,"2023-09-28T10:30:38",3,"NO ERROR",16.06,100,1006.71,0.64,0.8,0.82],
    [2883,363171,"Vazduh","Libelium","0004A30B0021DF70",44.979,16.7091,"","","Prijedor","",22447555,"2023-09-28T11:31:20",3,"NO ERROR",18.21,100,1006.23,0.13,0.27,1.53],
    [2884,363171,"Vazduh","Libelium","0004A30B0021DF70",44.979,16.7091,"","","Prijedor","",22448112,"2023-09-28T12:32:02",3,"NO ERROR",22.75,79.5,1005.55,0.24,0.33,0.33],
    [2885,363171,"Vazduh","Libelium","0004A30B0021DF70",44.979,16.7091,"","","Prijedor","",22448716,"2023-09-28T13:32:44",3,"NO ERROR",25.17,66,1004.95,0.28,0.43,0.44],
    [2886,363171,"Vazduh","Libelium","0004A30B0021DF70",44.979,16.7091,"","","Prijedor","",22449343,"2023-09-28T14:33:27",3,"NO ERROR",28.46,51,1004.54,0.32,0.4,0.41],
    [2887,363171,"Vazduh","Libelium","0004A30B0021DF70",44.979,16.7091,"","","Prijedor","",22449951,"2023-09-28T15:34:09",3,"NO ERROR",29.02,39.4,1004.2,0.59,0.82,0.85],
    [2888,363171,"Vazduh","Libelium","0004A30B0021DF70",44.979,16.7091,"","","Prijedor","",22450493,"2023-09-28T16:34:51",3,"NO ERROR",28.54,41.4,1004.15,0.14,0.31,0.39],
    [2889,363171,"Vazduh","Libelium","0004A30B0021DF70",44.979,16.7091,"","","Prijedor","",22451058,"2023-09-28T17:35:39",3,"NO ERROR",25.06,46.4,1004.09,0.11,0.17,0.18],
    [2890,363171,"Vazduh","Libelium","0004A30B0021DF70",44.979,16.7091,"","","Prijedor","",22451580,"2023-09-28T18:36:27",3,"NO ERROR",22.33,59.3,1004.31,2.45,2.79,2.79],
    [2891,363171,"Vazduh","Libelium","0004A30B0021DF70",44.979,16.7091,"","","Prijedor","",22452060,"2023-09-28T19:37:09",3,"NO ERROR",18.95,85,1004.72,1.45,1.9,2.05],
    [2892,363171,"Vazduh","Libelium","0004A30B0021DF70",44.979,16.7091,"","","Prijedor","",22452563,"2023-09-28T20:37:51",3,"NO ERROR",16.97,100,1005.11,1.03,1.5,1.53],
    [2893,363171,"Vazduh","Libelium","0004A30B0021DF70",44.979,16.7091,"","","Prijedor","",22453149,"2023-09-28T21:38:33",3,"NO ERROR",15.13,100,1005.79,0.37,0.5,0.51],
    [2894,363171,"Vazduh","Libelium","0004A30B0021DF70",44.979,16.7091,"","","Prijedor","",22453687,"2023-09-28T22:39:14",3,"NO ERROR",14.13,100,1005.93,0.54,0.59,0.59],
    [2895,363171,"Vazduh","Libelium","0004A30B0021DF70",44.979,16.7091,"","","Prijedor","",22454247,"2023-09-28T23:39:56",3,"NO ERROR",13.36,100,1006.39,0.56,0.72,0.81],
    [2896,363171,"Vazduh","Libelium","0004A30B0021DF70",44.979,16.7091,"","","Prijedor","",22455102,"2023-09-29T00:40:38",3,"NO ERROR",12.71,100,1006.55,0.23,0.29,0.3],
    [2897,363171,"Vazduh","Libelium","0004A30B0021DF70",44.979,16.7091,"","","Prijedor","",22455702,"2023-09-29T01:41:19",3,"NO ERROR",11.91,100,1006.69,0.7,0.94,0.95],
    [2898,363171,"Vazduh","Libelium","0004A30B0021DF70",44.979,16.7091,"","","Prijedor","",22456280,"2023-09-29T02:42:02",3,"NO ERROR",10.58,100,1006.86,1.96,4.67,55.67],
    [2899,363171,"Vazduh","Libelium","0004A30B0021DF70",44.979,16.7091,"","","Prijedor","",22456814,"2023-09-29T03:42:44",3,"NO ERROR",10.47,100,1006.8,4.11,11.09,502.24],
    [2900,363171,"Vazduh","Libelium","0004A30B0021DF70",44.979,16.7091,"","","Prijedor","",22457357,"2023-09-29T04:43:25",3,"NO ERROR",10.83,100,1006.98,4.01,7.35,174.25],
    [2901,363171,"Vazduh","Libelium","0004A30B0021DF70",44.979,16.7091,"","","Prijedor","",22457975,"2023-09-29T05:44:07",3,"NO ERROR",10.4,100,1007.05,2.89,10.13,118.02],
    [2902,363171,"Vazduh","Libelium","0004A30B0021DF70",44.979,16.7091,"","","Prijedor","",22458546,"2023-09-29T06:44:49",3,"NO ERROR",10.97,100,1007.39,2.31,4.45,37.49],
    [2903,363171,"Vazduh","Libelium","0004A30B0021DF70",44.979,16.7091,"","","Prijedor","",22459075,"2023-09-29T07:45:31",3,"NO ERROR",10.65,100,1007.83,3.62,11.96,472.02],
    [2904,363171,"Vazduh","Libelium","0004A30B0021DF70",44.979,16.7091,"","","Prijedor","",22459618,"2023-09-29T08:46:13",3,"NO ERROR",11.24,100,1008.23,3.06,9.16,157.68],
    [2905,363171,"Vazduh","Libelium","0004A30B0021DF70",44.979,16.7091,"","","Prijedor","",22460154,"2023-09-29T09:46:55",3,"NO ERROR",13.92,100,1008.19,0.67,0.82,0.84],
    [2906,363171,"Vazduh","Libelium","0004A30B0021DF70",44.979,16.7091,"","","Prijedor","",22460656,"2023-09-29T10:47:37",3,"NO ERROR",19.67,90.9,1008.32,0.75,0.9,0.91],
    [2907,363171,"Vazduh","Libelium","0004A30B0021DF70",44.979,16.7091,"","","Prijedor","",22461175,"2023-09-29T11:48:18",3,"NO ERROR",19.7,87.2,1007.92,0.11,0.22,0.3],
    [2908,363171,"Vazduh","Libelium","0004A30B0021DF70",44.979,16.7091,"","","Prijedor","",22461762,"2023-09-29T12:49:00",3,"NO ERROR",22.35,75,1007.38,0.27,0.5,0.51],
    [2909,363171,"Vazduh","Libelium","0004A30B0021DF70",44.979,16.7091,"","","Prijedor","",22462344,"2023-09-29T13:49:42",3,"NO ERROR",24.61,66.4,1006.43,0.48,0.67,0.69],
    [2910,363171,"Vazduh","Libelium","0004A30B0021DF70",44.979,16.7091,"","","Prijedor","",22462930,"2023-09-29T14:50:25",3,"NO ERROR",29.99,51.9,1005.78,0.56,0.73,0.74],
    [2911,363171,"Vazduh","Libelium","0004A30B0021DF70",44.979,16.7091,"","","Prijedor","",22463525,"2023-09-29T15:51:07",3,"NO ERROR",30.16,45,1005.38,0.54,0.74,0.74],
    [2912,363171,"Vazduh","Libelium","0004A30B0021DF70",44.979,16.7091,"","","Prijedor","",22464054,"2023-09-29T16:51:49",3,"NO ERROR",27.96,42.3,1005.12,0.34,0.46,0.46],
    [2913,363171,"Vazduh","Libelium","0004A30B0021DF70",44.979,16.7091,"","","Prijedor","",22464617,"2023-09-29T17:52:31",3,"NO ERROR",24.48,53.6,1005.25,0.2,0.38,0.65],
    [2914,363171,"Vazduh","Libelium","0004A30B0021DF70",44.979,16.7091,"","","Prijedor","",22465119,"2023-09-29T18:53:13",3,"NO ERROR",21.37,71,1005.27,0.2,0.25,0.25],
    [2915,363171,"Vazduh","Libelium","0004A30B0021DF70",44.979,16.7091,"","","Prijedor","",22465600,"2023-09-29T19:53:55",3,"NO ERROR",18.46,99.3,1005.84,0.5,0.66,0.66],
    [2916,363171,"Vazduh","Libelium","0004A30B0021DF70",44.979,16.7091,"","","Prijedor","",22466195,"2023-09-29T20:54:37",3,"NO ERROR",16.25,100,1006.31,0.71,1.31,1.67],
    [2917,363171,"Vazduh","Libelium","0004A30B0021DF70",44.979,16.7091,"","","Prijedor","",22466789,"2023-09-29T21:55:19",3,"NO ERROR",15.1,100,1006.62,0.61,0.78,0.78],
    [2918,363171,"Vazduh","Libelium","0004A30B0021DF70",44.979,16.7091,"","","Prijedor","",22467378,"2023-09-29T22:56:07",3,"NO ERROR",14.19,100,1006.74,1.03,1.35,1.35],
    [2919,363171,"Vazduh","Libelium","0004A30B0021DF70",44.979,16.7091,"","","Prijedor","",22468065,"2023-09-29T23:56:48",3,"NO ERROR",13.24,100,1006.97,1.19,1.37,1.38],
    [2920,363171,"Vazduh","Libelium","0004A30B0021DF70",44.979,16.7091,"","","Prijedor","",22468878,"2023-09-30T00:57:30",3,"NO ERROR",12.79,100,1007.15,1.19,1.35,1.36],
    [2921,363171,"Vazduh","Libelium","0004A30B0021DF70",44.979,16.7091,"","","Prijedor","",22469472,"2023-09-30T01:58:12",3,"NO ERROR",12.04,100,1007.34,1.11,1.31,1.32],
    [2922,363171,"Vazduh","Libelium","0004A30B0021DF70",44.979,16.7091,"","","Prijedor","",22470031,"2023-09-30T02:59:01",3,"NO ERROR",11.36,100,1007.11,0.4,0.49,0.49],
    [2923,363171,"Vazduh","Libelium","0004A30B0021DF70",44.979,16.7091,"","","Prijedor","",22470557,"2023-09-30T03:59:43",3,"NO ERROR",11.46,100,1007.29,1.08,1.24,1.24],
    [2924,363171,"Vazduh","Libelium","0004A30B0021DF70",44.979,16.7091,"","","Prijedor","",22471153,"2023-09-30T05:00:25",3,"NO ERROR",11.46,100,1007.3,14.73,31.15,143.51],
    [2925,363171,"Vazduh","Libelium","0004A30B0021DF70",44.979,16.7091,"","","Prijedor","",22471775,"2023-09-30T06:01:07",3,"NO ERROR",11.59,100,1007.42,5.57,12.74,244.85],
    [2926,363171,"Vazduh","Libelium","0004A30B0021DF70",44.979,16.7091,"","","Prijedor","",22472359,"2023-09-30T07:01:49",3,"NO ERROR",11.28,100,1007.68,1.79,7.08,271.46],
    [2927,363171,"Vazduh","Libelium","0004A30B0021DF70",44.979,16.7091,"","","Prijedor","",22472930,"2023-09-30T08:02:30",3,"NO ERROR",11.61,100,1008.28,1.55,3.7,46.9],
    [2928,363171,"Vazduh","Libelium","0004A30B0021DF70",44.979,16.7091,"","","Prijedor","",22473539,"2023-09-30T09:03:12",3,"NO ERROR",12.54,100,1008.68,0.9,1.18,1.2],
    [2929,363171,"Vazduh","Libelium","0004A30B0021DF70",44.979,16.7091,"","","Prijedor","",22474087,"2023-09-30T10:03:54",3,"NO ERROR",18.27,100,1009.19,0.48,0.73,0.77],
    [2930,363171,"Vazduh","Libelium","0004A30B0021DF70",44.979,16.7091,"","","Prijedor","",22474613,"2023-09-30T11:04:48",3,"NO ERROR",19.81,89.8,1008.71,0.26,0.32,0.32],
    [2931,363171,"Vazduh","Libelium","0004A30B0021DF70",44.979,16.7091,"","","Prijedor","",22475217,"2023-09-30T12:05:30",3,"NO ERROR",21.22,88,1008.49,0.31,0.37,0.38],
    [2932,363171,"Vazduh","Libelium","0004A30B0021DF70",44.979,16.7091,"","","Prijedor","",22475879,"2023-09-30T13:06:11",3,"NO ERROR",23.48,75.7,1008.22,0.54,1.15,1.56],
    [2933,363171,"Vazduh","Libelium","0004A30B0021DF70",44.979,16.7091,"","","Prijedor","",22476475,"2023-09-30T14:06:53",3,"NO ERROR",25.37,66,1007.31,0.2,0.33,0.4],
    [2934,363171,"Vazduh","Libelium","0004A30B0021DF70",44.979,16.7091,"","","Prijedor","",22477167,"2023-09-30T15:07:35",3,"NO ERROR",29.02,49.1,1006.97,0.22,0.33,0.39],
    [2935,363171,"Vazduh","Libelium","0004A30B0021DF70",44.979,16.7091,"","","Prijedor","",22477687,"2023-09-30T16:08:17",3,"NO ERROR",30.05,43.4,1006.58,0.61,0.86,0.89],
    [2936,363171,"Vazduh","Libelium","0004A30B0021DF70",44.979,16.7091,"","","Prijedor","",22478231,"2023-09-30T17:08:59",3,"NO ERROR",25.35,54.8,1006.8,0.48,0.63,0.65],
    [2937,363171,"Vazduh","Libelium","0004A30B0021DF70",44.979,16.7091,"","","Prijedor","",22478784,"2023-09-30T18:09:41",3,"NO ERROR",23.71,66.1,1006.95,0.38,0.66,0.78],
    [2938,363171,"Vazduh","Libelium","0004A30B0021DF70",44.979,16.7091,"","","Prijedor","",22479259,"2023-09-30T19:10:22",3,"NO ERROR",21.72,81.9,1007.01,0.6,0.88,0.9],
    [2939,363171,"Vazduh","Libelium","0004A30B0021DF70",44.979,16.7091,"","","Prijedor","",22479766,"2023-09-30T20:11:04",3,"NO ERROR",19.92,98.4,1007.53,0.88,1.22,1.35],
    [2940,363171,"Vazduh","Libelium","0004A30B0021DF70",44.979,16.7091,"","","Prijedor","",22480374,"2023-09-30T21:11:46",3,"NO ERROR",18,100,1008.1,1.01,1.16,1.16],
    [2941,363171,"Vazduh","Libelium","0004A30B0021DF70",44.979,16.7091,"","","Prijedor","",22480923,"2023-09-30T22:12:28",3,"NO ERROR",17.5,100,1008.26,0.77,0.93,0.94],
    [2942,363171,"Vazduh","Libelium","0004A30B0021DF70",44.979,16.7091,"","","Prijedor","",22481476,"2023-09-30T23:13:09",3,"NO ERROR",16.42,100,1008.68,0.85,1.2,1.34],
    [2943,363171,"Vazduh","Libelium","0004A30B0021DF70",44.979,16.7091,"","","Prijedor","",22482319,"2023-10-01T00:13:50",3,"NO ERROR",15.52,100,1008.84,1.13,1.45,1.47],
    [2944,363171,"Vazduh","Libelium","0004A30B0021DF70",44.979,16.7091,"","","Prijedor","",22482961,"2023-10-01T01:14:32",3,"NO ERROR",14.82,100,1009.23,0.79,1.01,1.02],
    [2945,363171,"Vazduh","Libelium","0004A30B0021DF70",44.979,16.7091,"","","Prijedor","",22483525,"2023-10-01T02:15:14",3,"NO ERROR",14.12,100,1009.25,0.92,1.02,1.02],
    [2946,363171,"Vazduh","Libelium","0004A30B0021DF70",44.979,16.7091,"","","Prijedor","",22484068,"2023-10-01T03:15:56",3,"NO ERROR",13.39,100,1009.29,2.63,3,3],
    [2947,363171,"Vazduh","Libelium","0004A30B0021DF70",44.979,16.7091,"","","Prijedor","",22484614,"2023-10-01T04:16:39",3,"NO ERROR",12.6,100,1009.48,1.69,1.88,1.88],
    [2948,363171,"Vazduh","Libelium","0004A30B0021DF70",44.979,16.7091,"","","Prijedor","",22485220,"2023-10-01T05:17:21",3,"NO ERROR",12.39,100,1009.75,1.03,1.2,1.2],
    [2949,363171,"Vazduh","Libelium","0004A30B0021DF70",44.979,16.7091,"","","Prijedor","",22485765,"2023-10-01T06:18:03",3,"NO ERROR",12.16,100,1009.83,1.61,2.03,2.16],
    [2950,363171,"Vazduh","Libelium","0004A30B0021DF70",44.979,16.7091,"","","Prijedor","",22486282,"2023-10-01T07:18:44",3,"NO ERROR",11.96,100,1010.6,2.14,2.39,2.39],
    [2951,363171,"Vazduh","Libelium","0004A30B0021DF70",44.979,16.7091,"","","Prijedor","",22486780,"2023-10-01T08:19:26",3,"NO ERROR",15.76,100,1011.02,0.18,0.21,0.21],
    [2952,363171,"Vazduh","Libelium","0004A30B0021DF70",44.979,16.7091,"","","Prijedor","",22487378,"2023-10-01T09:20:50",3,"NO ERROR",19.04,100,1011.15,0.27,0.4,0.45],
    [2953,363171,"Vazduh","Libelium","0004A30B0021DF70",44.979,16.7091,"","","Prijedor","",22487366,"2023-10-01T09:20:08",3,"NO ERROR",19.04,100,1011.15,0.27,0.4,0.45],
    [2954,363171,"Vazduh","Libelium","0004A30B0021DF70",44.979,16.7091,"","","Prijedor","",22487836,"2023-10-01T10:20:49",3,"NO ERROR",20.29,84.4,1011.44,0.67,0.82,0.82],
    [2955,363171,"Vazduh","Libelium","0004A30B0021DF70",44.979,16.7091,"","","Prijedor","",22488320,"2023-10-01T11:21:30",3,"NO ERROR",21.4,70,1011.52,0.76,1.13,1.28],
    [2956,363171,"Vazduh","Libelium","0004A30B0021DF70",44.979,16.7091,"","","Prijedor","",22488866,"2023-10-01T12:22:12",3,"NO ERROR",22.05,61.9,1011.84,0.39,0.48,0.48],
    [2957,363171,"Vazduh","Libelium","0004A30B0021DF70",44.979,16.7091,"","","Prijedor","",22489480,"2023-10-01T13:22:54",3,"NO ERROR",23.02,61.4,1011.24,0.4,0.49,0.49],
    [2958,363171,"Vazduh","Libelium","0004A30B0021DF70",44.979,16.7091,"","","Prijedor","",22490012,"2023-10-01T14:23:36",3,"NO ERROR",23.68,54.6,1010.65,0.2,0.23,0.23],
    [2959,363171,"Vazduh","Libelium","0004A30B0021DF70",44.979,16.7091,"","","Prijedor","",22490601,"2023-10-01T15:24:18",3,"NO ERROR",26.22,48.7,1009.98,0.62,0.74,0.74],
    [2960,363171,"Vazduh","Libelium","0004A30B0021DF70",44.979,16.7091,"","","Prijedor","",22491161,"2023-10-01T16:25:00",3,"NO ERROR",25.48,49.9,1009.56,1.03,1.18,1.19],
    [2961,363171,"Vazduh","Libelium","0004A30B0021DF70",44.979,16.7091,"","","Prijedor","",22491710,"2023-10-01T17:25:43",3,"NO ERROR",22.21,57.2,1009.44,0.76,0.85,0.85],
    [2962,363171,"Vazduh","Libelium","0004A30B0021DF70",44.979,16.7091,"","","Prijedor","",22492263,"2023-10-01T18:26:25",3,"NO ERROR",20.79,65.5,1009.42,0.63,0.74,0.74],
    [2963,363171,"Vazduh","Libelium","0004A30B0021DF70",44.979,16.7091,"","","Prijedor","",22492730,"2023-10-01T19:27:07",3,"NO ERROR",17.91,89.7,1009.81,0.69,0.85,0.87],
    [2964,363171,"Vazduh","Libelium","0004A30B0021DF70",44.979,16.7091,"","","Prijedor","",22493231,"2023-10-01T20:27:49",3,"NO ERROR",15.96,100,1010.36,0.68,0.9,0.94],
    [2965,363171,"Vazduh","Libelium","0004A30B0021DF70",44.979,16.7091,"","","Prijedor","",22493898,"2023-10-01T21:28:31",3,"NO ERROR",14.71,100,1010.63,0.46,0.61,0.62],
    [2966,363171,"Vazduh","Libelium","0004A30B0021DF70",44.979,16.7091,"","","Prijedor","",22494443,"2023-10-01T22:29:12",3,"NO ERROR",13.76,100,1010.98,1.34,1.63,1.64],
    [2967,363171,"Vazduh","Libelium","0004A30B0021DF70",44.979,16.7091,"","","Prijedor","",22495023,"2023-10-01T23:29:54",3,"NO ERROR",12.63,100,1011.06,1.28,1.59,1.6],
    [2968,363171,"Vazduh","Libelium","0004A30B0021DF70",44.979,16.7091,"","","Prijedor","",22495881,"2023-10-02T00:30:36",3,"NO ERROR",12.05,100,1011.24,1.66,2.01,2.02],
    [2969,363171,"Vazduh","Libelium","0004A30B0021DF70",44.979,16.7091,"","","Prijedor","",22496480,"2023-10-02T01:31:18",3,"NO ERROR",11.27,100,1011.35,1.23,1.53,1.54],
    [2970,363171,"Vazduh","Libelium","0004A30B0021DF70",44.979,16.7091,"","","Prijedor","",22497070,"2023-10-02T02:32:00",3,"NO ERROR",10.2,100,1011.3,0.6,0.7,0.7],
    [2971,363171,"Vazduh","Libelium","0004A30B0021DF70",44.979,16.7091,"","","Prijedor","",22497654,"2023-10-02T03:32:47",3,"NO ERROR",9.86,100,1011.4,0.58,0.7,0.71],
    [2972,363171,"Vazduh","Libelium","0004A30B0021DF70",44.979,16.7091,"","","Prijedor","",22498222,"2023-10-02T04:33:29",3,"NO ERROR",9.62,100,1011.52,2.27,3.84,39.15],
    [2973,363171,"Vazduh","Libelium","0004A30B0021DF70",44.979,16.7091,"","","Prijedor","",22498822,"2023-10-02T05:34:12",3,"NO ERROR",9.57,100,1011.7,5.07,9.58,135.35],
    [2974,363171,"Vazduh","Libelium","0004A30B0021DF70",44.979,16.7091,"","","Prijedor","",22499350,"2023-10-02T06:34:54",3,"NO ERROR",9.94,100,1011.95,1.97,2.47,2.49],
    [2975,363171,"Vazduh","Libelium","0004A30B0021DF70",44.979,16.7091,"","","Prijedor","",22499875,"2023-10-02T07:35:36",3,"NO ERROR",10.3,100,1012.37,1.25,1.85,10.64],
    [2976,363171,"Vazduh","Libelium","0004A30B0021DF70",44.979,16.7091,"","","Prijedor","",22500390,"2023-10-02T08:36:18",3,"NO ERROR",13.29,100,1012.73,0.78,0.96,0.96],
    [2977,363171,"Vazduh","Libelium","0004A30B0021DF70",44.979,16.7091,"","","Prijedor","",22500919,"2023-10-02T09:36:59",3,"NO ERROR",19.13,83.7,1012.79,0.49,0.52,0.52],
    [2978,363171,"Vazduh","Libelium","0004A30B0021DF70",44.979,16.7091,"","","Prijedor","",22501399,"2023-10-02T10:37:41",3,"NO ERROR",21.15,77.4,1012.71,0.98,1.16,1.16],
    [2979,363171,"Vazduh","Libelium","0004A30B0021DF70",44.979,16.7091,"","","Prijedor","",22501867,"2023-10-02T11:38:29",3,"NO ERROR",21.1,76.2,1012.15,0.84,1.01,1.03],
    [2980,363171,"Vazduh","Libelium","0004A30B0021DF70",44.979,16.7091,"","","Prijedor","",22502409,"2023-10-02T12:39:11",3,"NO ERROR",22.71,64.9,1011.59,0.87,1.01,1.01],
    [2981,363171,"Vazduh","Libelium","0004A30B0021DF70",44.979,16.7091,"","","Prijedor","",22503007,"2023-10-02T13:39:53",3,"NO ERROR",24.38,50.8,1010.78,0.56,0.63,0.63],
    [2982,363171,"Vazduh","Libelium","0004A30B0021DF70",44.979,16.7091,"","","Prijedor","",22503600,"2023-10-02T14:40:34",3,"NO ERROR",27.68,46.9,1010.25,0.71,0.82,0.82],
    [2983,363171,"Vazduh","Libelium","0004A30B0021DF70",44.979,16.7091,"","","Prijedor","",22504212,"2023-10-02T15:41:16",3,"NO ERROR",28.08,46,1009.51,0.76,0.87,0.87],
    [2984,363171,"Vazduh","Libelium","0004A30B0021DF70",44.979,16.7091,"","","Prijedor","",22504737,"2023-10-02T16:41:58",3,"NO ERROR",27.37,47.6,1009.14,0.8,0.93,0.93],
    [2985,363171,"Vazduh","Libelium","0004A30B0021DF70",44.979,16.7091,"","","Prijedor","",22505294,"2023-10-02T17:42:41",3,"NO ERROR",24.24,55.2,1008.93,0.7,0.81,0.81],
    [2986,363171,"Vazduh","Libelium","0004A30B0021DF70",44.979,16.7091,"","","Prijedor","",22505859,"2023-10-02T18:43:23",3,"NO ERROR",21.59,74,1008.93,0.88,1.24,1.72],
    [2987,363171,"Vazduh","Libelium","0004A30B0021DF70",44.979,16.7091,"","","Prijedor","",22506374,"2023-10-02T19:44:11",3,"NO ERROR",18.97,97.5,1009.13,1.25,1.78,1.97],
    [2988,363171,"Vazduh","Libelium","0004A30B0021DF70",44.979,16.7091,"","","Prijedor","",22506904,"2023-10-02T20:44:53",3,"NO ERROR",16.78,100,1009.35,1.49,2.1,2.42],
    [2989,363171,"Vazduh","Libelium","0004A30B0021DF70",44.979,16.7091,"","","Prijedor","",22507558,"2023-10-02T21:45:35",3,"NO ERROR",16.12,100,1009.56,1.68,2.11,2.14],
    [2990,363171,"Vazduh","Libelium","0004A30B0021DF70",44.979,16.7091,"","","Prijedor","",22508128,"2023-10-02T22:46:17",3,"NO ERROR",14.65,100,1009.73,1.47,1.95,2.1],
    [2991,363171,"Vazduh","Libelium","0004A30B0021DF70",44.979,16.7091,"","","Prijedor","",22508693,"2023-10-02T23:46:59",3,"NO ERROR",14.24,100,1009.7,1.12,1.44,1.56],
    [2992,363171,"Vazduh","Libelium","0004A30B0021DF70",44.979,16.7091,"","","Prijedor","",22509552,"2023-10-03T00:47:41",3,"NO ERROR",14.01,100,1009.54,1.23,1.47,1.48],
    [2993,363171,"Vazduh","Libelium","0004A30B0021DF70",44.979,16.7091,"","","Prijedor","",22510144,"2023-10-03T01:48:22",3,"NO ERROR",13.81,100,1009.29,1.27,1.46,1.46],
    [2994,363171,"Vazduh","Libelium","0004A30B0021DF70",44.979,16.7091,"","","Prijedor","",22510688,"2023-10-03T02:49:04",3,"NO ERROR",13.34,100,1008.74,1.07,1.41,1.44],
    [2995,363171,"Vazduh","Libelium","0004A30B0021DF70",44.979,16.7091,"","","Prijedor","",22511241,"2023-10-03T03:49:46",3,"NO ERROR",12.71,100,1008.27,0.7,0.86,0.86],
    [2996,363171,"Vazduh","Libelium","0004A30B0021DF70",44.979,16.7091,"","","Prijedor","",22511837,"2023-10-03T04:50:28",3,"NO ERROR",12.21,100,1007.87,0.45,0.49,0.49],
    [2997,363171,"Vazduh","Libelium","0004A30B0021DF70",44.979,16.7091,"","","Prijedor","",22512483,"2023-10-03T05:51:10",3,"NO ERROR",12.17,100,1007.59,0.93,1.17,1.17],
    [2998,363171,"Vazduh","Libelium","0004A30B0021DF70",44.979,16.7091,"","","Prijedor","",22513001,"2023-10-03T06:51:52",3,"NO ERROR",9.56,100,1007.55,0.71,0.84,0.85],
    [2999,363171,"Vazduh","Libelium","0004A30B0021DF70",44.979,16.7091,"","","Prijedor","",22513520,"2023-10-03T07:52:34",3,"NO ERROR",11.03,100,1007.76,0.53,0.67,0.67],
    [3000,363171,"Vazduh","Libelium","0004A30B0021DF70",44.979,16.7091,"","","Prijedor","",22514048,"2023-10-03T08:53:15",3,"NO ERROR",19.32,84.3,1007.53,0.3,0.41,0.43],
    [3001,363171,"Vazduh","Libelium","0004A30B0021DF70",44.979,16.7091,"","","Prijedor","",22514563,"2023-10-03T09:53:57",3,"NO ERROR",22.52,71.7,1007.33,0.45,0.61,0.76],
    [3002,363171,"Vazduh","Libelium","0004A30B0021DF70",44.979,16.7091,"","","Prijedor","",22515022,"2023-10-03T10:54:38",3,"NO ERROR",25.06,61.7,1007.01,0.15,0.25,0.33],
    [3003,363171,"Vazduh","Libelium","0004A30B0021DF70",44.979,16.7091,"","","Prijedor","",22515568,"2023-10-03T11:55:20",3,"NO ERROR",23.33,67.8,1006.47,0.36,0.46,0.46],
    [3004,363171,"Vazduh","Libelium","0004A30B0021DF70",44.979,16.7091,"","","Prijedor","",22516189,"2023-10-03T12:56:01",3,"NO ERROR",26.77,56.8,1005.83,0.15,0.25,0.31],
    [3005,363171,"Vazduh","Libelium","0004A30B0021DF70",44.979,16.7091,"","","Prijedor","",22516780,"2023-10-03T13:56:43",3,"NO ERROR",29.01,48.9,1005.11,0.17,0.18,0.18],
    [3006,363171,"Vazduh","Libelium","0004A30B0021DF70",44.979,16.7091,"","","Prijedor","",22517387,"2023-10-03T14:57:25",3,"NO ERROR",32.98,41.5,1004.4,0.44,0.5,0.5],
    [3007,363171,"Vazduh","Libelium","0004A30B0021DF70",44.979,16.7091,"","","Prijedor","",22517960,"2023-10-03T15:58:06",3,"NO ERROR",34.43,38.9,1003.79,0.4,0.51,0.52],
    [3008,363171,"Vazduh","Libelium","0004A30B0021DF70",44.979,16.7091,"","","Prijedor","",22518562,"2023-10-03T16:58:48",3,"NO ERROR",29.39,47.6,1003.59,0.44,0.46,0.46],
    [3009,363171,"Vazduh","Libelium","0004A30B0021DF70",44.979,16.7091,"","","Prijedor","",22519128,"2023-10-03T17:59:31",3,"NO ERROR",26.82,59.9,1003.63,0.84,1.32,1.55],
    [3010,363171,"Vazduh","Libelium","0004A30B0021DF70",44.979,16.7091,"","","Prijedor","",22519610,"2023-10-03T19:00:13",3,"NO ERROR",23.15,85.9,1003.95,0.84,1.17,1.27],
    [3011,363171,"Vazduh","Libelium","0004A30B0021DF70",44.979,16.7091,"","","Prijedor","",22520099,"2023-10-03T20:00:55",3,"NO ERROR",20.66,100,1004.32,0.95,1.32,1.43],
    [3012,363171,"Vazduh","Libelium","0004A30B0021DF70",44.979,16.7091,"","","Prijedor","",22520736,"2023-10-03T21:01:36",3,"NO ERROR",18.9,100,1004.76,0.94,1.28,1.51],
    [3013,363171,"Vazduh","Libelium","0004A30B0021DF70",44.979,16.7091,"","","Prijedor","",22521351,"2023-10-03T22:02:24",3,"NO ERROR",17.64,100,1004.9,1.05,1.32,1.35],
    [3014,363171,"Vazduh","Libelium","0004A30B0021DF70",44.979,16.7091,"","","Prijedor","",22521958,"2023-10-03T23:03:06",3,"NO ERROR",16.09,100,1005.24,0.78,0.87,0.87],
    [3015,363171,"Vazduh","Libelium","0004A30B0021DF70",44.979,16.7091,"","","Prijedor","",22522721,"2023-10-04T00:03:48",3,"NO ERROR",15.13,100,1005.24,1.04,1.33,1.34],
    [3016,363171,"Vazduh","Libelium","0004A30B0021DF70",44.979,16.7091,"","","Prijedor","",22523450,"2023-10-04T01:04:30",3,"NO ERROR",13.92,100,1005.43,0.99,1.19,1.19],
    [3017,363171,"Vazduh","Libelium","0004A30B0021DF70",44.979,16.7091,"","","Prijedor","",22524052,"2023-10-04T02:05:11",3,"NO ERROR",13.14,100,1005.74,2.07,3.9,181.95],
    [3018,363171,"Vazduh","Libelium","0004A30B0021DF70",44.979,16.7091,"","","Prijedor","",22524667,"2023-10-04T03:05:53",3,"NO ERROR",12.82,100,1006.22,1.22,1.49,1.63],
    [3019,363171,"Vazduh","Libelium","0004A30B0021DF70",44.979,16.7091,"","","Prijedor","",22525264,"2023-10-04T04:06:41",3,"NO ERROR",12.15,100,1006.64,1.03,1.31,1.32],
    [3020,363171,"Vazduh","Libelium","0004A30B0021DF70",44.979,16.7091,"","","Prijedor","",22525927,"2023-10-04T05:07:22",3,"NO ERROR",12.25,100,1007.58,0.51,0.73,0.74],
    [3021,363171,"Vazduh","Libelium","0004A30B0021DF70",44.979,16.7091,"","","Prijedor","",22526569,"2023-10-04T06:08:05",3,"NO ERROR",12.5,100,1008.49,2.11,2.47,2.48],
    [3022,363171,"Vazduh","Libelium","0004A30B0021DF70",44.979,16.7091,"","","Prijedor","",22527161,"2023-10-04T07:08:47",3,"NO ERROR",12.87,100,1009.34,0.8,1.08,1.09],
    [3023,363171,"Vazduh","Libelium","0004A30B0021DF70",44.979,16.7091,"","","Prijedor","",22527698,"2023-10-04T08:09:29",3,"NO ERROR",13.76,100,1010.24,0.55,0.68,0.68],
    [3024,363171,"Vazduh","Libelium","0004A30B0021DF70",44.979,16.7091,"","","Prijedor","",22528277,"2023-10-04T09:10:10",3,"NO ERROR",17.07,100,1011.15,0.56,0.79,1.35],
    [3025,363171,"Vazduh","Libelium","0004A30B0021DF70",44.979,16.7091,"","","Prijedor","",22528770,"2023-10-04T10:12:00",3,"NO ERROR",17.69,100,1012.04,0.19,0.25,0.27],
    [3026,363171,"Vazduh","Libelium","0004A30B0021DF70",44.979,16.7091,"","","Prijedor","",22528759,"2023-10-04T10:10:51",3,"NO ERROR",17.69,100,1012.04,0.19,0.25,0.27],
    [3027,363171,"Vazduh","Libelium","0004A30B0021DF70",44.979,16.7091,"","","Prijedor","",22529230,"2023-10-04T11:11:33",3,"NO ERROR",21.78,88.6,1011.84,0.17,0.2,0.2],
    [3028,363171,"Vazduh","Libelium","0004A30B0021DF70",44.979,16.7091,"","","Prijedor","",22529779,"2023-10-04T12:12:15",3,"NO ERROR",23.54,55.6,1011.74,0.15,0.2,0.2],
    [3029,363171,"Vazduh","Libelium","0004A30B0021DF70",44.979,16.7091,"","","Prijedor","",22530350,"2023-10-04T13:12:56",3,"NO ERROR",24.33,50.9,1011.43,0.06,0.08,0.08],
    [3030,363171,"Vazduh","Libelium","0004A30B0021DF70",44.979,16.7091,"","","Prijedor","",22530854,"2023-10-04T14:13:38",3,"NO ERROR",23.87,51.5,1011.01,0.18,0.2,0.2],
    [3031,363171,"Vazduh","Libelium","0004A30B0021DF70",44.979,16.7091,"","","Prijedor","",22531413,"2023-10-04T15:14:20",3,"NO ERROR",22.88,52.4,1010.84,0.23,0.31,0.32],
    [3032,363171,"Vazduh","Libelium","0004A30B0021DF70",44.979,16.7091,"","","Prijedor","",22531899,"2023-10-04T16:15:02",3,"NO ERROR",23.24,50.6,1010.73,0.21,0.34,0.41],
    [3033,363171,"Vazduh","Libelium","0004A30B0021DF70",44.979,16.7091,"","","Prijedor","",22532405,"2023-10-04T17:15:44",3,"NO ERROR",20.81,52.9,1010.7,0.07,0.1,0.1],
    [3034,363171,"Vazduh","Libelium","0004A30B0021DF70",44.979,16.7091,"","","Prijedor","",22532893,"2023-10-04T18:16:32",3,"NO ERROR",18.81,56.1,1010.96,0.35,0.6,0.73],
    [3035,363171,"Vazduh","Libelium","0004A30B0021DF70",44.979,16.7091,"","","Prijedor","",22533289,"2023-10-04T19:17:13",3,"NO ERROR",17.27,63.5,1011.24,0.03,0.03,0.03],
    [3036,363171,"Vazduh","Libelium","0004A30B0021DF70",44.979,16.7091,"","","Prijedor","",22533722,"2023-10-04T20:17:55",3,"NO ERROR",16.44,68.9,1011.87,0.16,0.25,0.26],
    [3037,363171,"Vazduh","Libelium","0004A30B0021DF70",44.979,16.7091,"","","Prijedor","",22534296,"2023-10-04T21:18:37",3,"NO ERROR",13.91,94.1,1012.22,0.75,0.99,1],
    [3038,363171,"Vazduh","Libelium","0004A30B0021DF70",44.979,16.7091,"","","Prijedor","",22534793,"2023-10-04T22:19:19",3,"NO ERROR",13.1,100,1012.5,0.1,0.15,0.15],
    [3039,363171,"Vazduh","Libelium","0004A30B0021DF70",44.979,16.7091,"","","Prijedor","",22535311,"2023-10-04T23:20:01",3,"NO ERROR",12.11,100,1012.38,0.23,0.33,0.34],
    [3040,363171,"Vazduh","Libelium","0004A30B0021DF70",44.979,16.7091,"","","Prijedor","",22536114,"2023-10-05T00:20:43",3,"NO ERROR",11.22,100,1011.96,0.38,0.58,0.7],
    [3041,363171,"Vazduh","Libelium","0004A30B0021DF70",44.979,16.7091,"","","Prijedor","",22536654,"2023-10-05T01:21:25",3,"NO ERROR",10.75,100,1011.66,0.59,0.75,0.75],
    [3042,363171,"Vazduh","Libelium","0004A30B0021DF70",44.979,16.7091,"","","Prijedor","",22537113,"2023-10-05T02:22:06",3,"NO ERROR",10.24,100,1011.61,0.9,1.28,1.47],
    [3043,363171,"Vazduh","Libelium","0004A30B0021DF70",44.979,16.7091,"","","Prijedor","",22537572,"2023-10-05T03:22:48",3,"NO ERROR",9.6,100,1011.62,0.27,0.28,0.28],
    [3044,363171,"Vazduh","Libelium","0004A30B0021DF70",44.979,16.7091,"","","Prijedor","",22538035,"2023-10-05T04:23:30",3,"NO ERROR",9.4,100,1011.16,0.1,0.1,0.1],
    [3045,363171,"Vazduh","Libelium","0004A30B0021DF70",44.979,16.7091,"","","Prijedor","",22538598,"2023-10-05T05:24:11",3,"NO ERROR",8.54,100,1011.24,0.73,0.84,0.84],
    [3046,363171,"Vazduh","Libelium","0004A30B0021DF70",44.979,16.7091,"","","Prijedor","",22539120,"2023-10-05T06:24:53",3,"NO ERROR",8.84,100,1010.94,0.71,0.91,0.92],
    [3047,363171,"Vazduh","Libelium","0004A30B0021DF70",44.979,16.7091,"","","Prijedor","",22539617,"2023-10-05T07:25:35",3,"NO ERROR",8.92,100,1011.39,1.81,5.03,60.51],
    [3048,363171,"Vazduh","Libelium","0004A30B0021DF70",44.979,16.7091,"","","Prijedor","",22540109,"2023-10-05T08:26:17",3,"NO ERROR",9.84,100,1011.72,0.83,1.1,1.45],
    [3049,363171,"Vazduh","Libelium","0004A30B0021DF70",44.979,16.7091,"","","Prijedor","",22540649,"2023-10-05T09:26:59",3,"NO ERROR",10.93,100,1012.01,0.35,0.38,0.38],
    [3050,363171,"Vazduh","Libelium","0004A30B0021DF70",44.979,16.7091,"","","Prijedor","",22541096,"2023-10-05T10:27:41",3,"NO ERROR",14.82,100,1011.51,0.21,0.23,0.23],
    [3051,363171,"Vazduh","Libelium","0004A30B0021DF70",44.979,16.7091,"","","Prijedor","",22541545,"2023-10-05T11:28:23",3,"NO ERROR",18.02,74,1011.31,0.39,0.54,0.55],
    [3052,363171,"Vazduh","Libelium","0004A30B0021DF70",44.979,16.7091,"","","Prijedor","",22542068,"2023-10-05T12:29:05",3,"NO ERROR",19.43,62.4,1010.98,0.63,0.71,0.72],
    [3053,363171,"Vazduh","Libelium","0004A30B0021DF70",44.979,16.7091,"","","Prijedor","",22542612,"2023-10-05T13:29:47",3,"NO ERROR",21.54,61.1,1009.81,0.51,0.64,0.64],
    [3054,363171,"Vazduh","Libelium","0004A30B0021DF70",44.979,16.7091,"","","Prijedor","",22543120,"2023-10-05T14:30:29",3,"NO ERROR",23.72,53.3,1008.99,0.37,0.49,0.5],
    [3055,363171,"Vazduh","Libelium","0004A30B0021DF70",44.979,16.7091,"","","Prijedor","",22543702,"2023-10-05T15:31:10",3,"NO ERROR",26.08,47.6,1008.75,0.6,0.7,0.71],
    [3056,363171,"Vazduh","Libelium","0004A30B0021DF70",44.979,16.7091,"","","Prijedor","",22544237,"2023-10-05T16:31:52",3,"NO ERROR",22,51.4,1008.44,0.2,0.35,0.47],
    [3057,363171,"Vazduh","Libelium","0004A30B0021DF70",44.979,16.7091,"","","Prijedor","",22544790,"2023-10-05T17:32:34",3,"NO ERROR",20.53,56,1007.97,0.29,0.36,0.37],
    [3058,363171,"Vazduh","Libelium","0004A30B0021DF70",44.979,16.7091,"","","Prijedor","",22545326,"2023-10-05T18:33:16",3,"NO ERROR",18.38,68.7,1008.58,0.5,0.65,0.67],
    [3059,363171,"Vazduh","Libelium","0004A30B0021DF70",44.979,16.7091,"","","Prijedor","",22545782,"2023-10-05T19:33:59",3,"NO ERROR",16.2,83.9,1008.86,1.12,1.4,1.41],
    [3060,363171,"Vazduh","Libelium","0004A30B0021DF70",44.979,16.7091,"","","Prijedor","",22546244,"2023-10-05T20:34:41",3,"NO ERROR",14.08,100,1009.46,0.89,0.98,0.98],
    [3061,363171,"Vazduh","Libelium","0004A30B0021DF70",44.979,16.7091,"","","Prijedor","",22546831,"2023-10-05T21:35:23",3,"NO ERROR",13.14,100,1009.84,0.99,1.2,1.23],
    [3062,363171,"Vazduh","Libelium","0004A30B0021DF70",44.979,16.7091,"","","Prijedor","",22547382,"2023-10-05T22:36:05",3,"NO ERROR",12.68,100,1010.11,0.75,0.98,1.13],
    [3063,363171,"Vazduh","Libelium","0004A30B0021DF70",44.979,16.7091,"","","Prijedor","",22547898,"2023-10-05T23:36:47",3,"NO ERROR",12.52,100,1010.24,0.32,0.41,0.41],
    [3064,363171,"Vazduh","Libelium","0004A30B0021DF70",44.979,16.7091,"","","Prijedor","",22548680,"2023-10-06T00:37:29",3,"NO ERROR",12.18,100,1010.6,0.42,0.56,0.58],
    [3065,363171,"Vazduh","Libelium","0004A30B0021DF70",44.979,16.7091,"","","Prijedor","",22549280,"2023-10-06T01:38:17",3,"NO ERROR",12.32,100,1010.38,0.5,0.76,0.8],
    [3066,363171,"Vazduh","Libelium","0004A30B0021DF70",44.979,16.7091,"","","Prijedor","",22549848,"2023-10-06T02:38:59",3,"NO ERROR",12.29,100,1009.64,0.3,0.43,0.45],
    [3067,363171,"Vazduh","Libelium","0004A30B0021DF70",44.979,16.7091,"","","Prijedor","",22550385,"2023-10-06T03:39:40",3,"NO ERROR",12.18,100,1010.05,0.52,0.62,0.62],
    [3068,363171,"Vazduh","Libelium","0004A30B0021DF70",44.979,16.7091,"","","Prijedor","",22550934,"2023-10-06T04:40:21",3,"NO ERROR",11.93,100,1010.98,0.62,0.91,1.16],
    [3069,363171,"Vazduh","Libelium","0004A30B0021DF70",44.979,16.7091,"","","Prijedor","",22551517,"2023-10-06T05:41:03",3,"NO ERROR",12.17,100,1011.03,1.19,1.42,1.43],
    [3070,363171,"Vazduh","Libelium","0004A30B0021DF70",44.979,16.7091,"","","Prijedor","",22552099,"2023-10-06T06:41:51",3,"NO ERROR",12.25,100,1011.56,0.39,0.47,0.47],
    [3071,363171,"Vazduh","Libelium","0004A30B0021DF70",44.979,16.7091,"","","Prijedor","",22552690,"2023-10-06T07:42:32",3,"NO ERROR",12.07,100,1012.39,0.37,0.43,0.43],
    [3072,363171,"Vazduh","Libelium","0004A30B0021DF70",44.979,16.7091,"","","Prijedor","",22553266,"2023-10-06T08:43:14",3,"NO ERROR",13.33,100,1012.89,0.35,0.37,0.37],
    [3073,363171,"Vazduh","Libelium","0004A30B0021DF70",44.979,16.7091,"","","Prijedor","",22553839,"2023-10-06T09:43:56",3,"NO ERROR",16.87,97.3,1013.4,0.32,0.5,0.53],
    [3074,363171,"Vazduh","Libelium","0004A30B0021DF70",44.979,16.7091,"","","Prijedor","",22554354,"2023-10-06T10:45:13",3,"NO ERROR",20.63,72.8,1013.42,0.09,0.14,0.17],
    [3075,363171,"Vazduh","Libelium","0004A30B0021DF70",44.979,16.7091,"","","Prijedor","",22554341,"2023-10-06T10:44:37",3,"NO ERROR",20.63,72.8,1013.42,0.09,0.14,0.17],
    [3076,363171,"Vazduh","Libelium","0004A30B0021DF70",44.979,16.7091,"","","Prijedor","",22554874,"2023-10-06T11:45:19",3,"NO ERROR",20.38,72.2,1012.96,0.32,0.39,0.39],
    [3077,363171,"Vazduh","Libelium","0004A30B0021DF70",44.979,16.7091,"","","Prijedor","",22555456,"2023-10-06T12:46:01",3,"NO ERROR",21.89,57.3,1012.46,0.2,0.3,0.36],
    [3078,363171,"Vazduh","Libelium","0004A30B0021DF70",44.979,16.7091,"","","Prijedor","",22556088,"2023-10-06T13:46:42",3,"NO ERROR",22.63,58.7,1011.44,0.16,0.28,0.37],
    [3079,363171,"Vazduh","Libelium","0004A30B0021DF70",44.979,16.7091,"","","Prijedor","",22556662,"2023-10-06T14:47:24",3,"NO ERROR",26.41,47.6,1011.01,0.33,0.35,0.35],
    [3080,363171,"Vazduh","Libelium","0004A30B0021DF70",44.979,16.7091,"","","Prijedor","",22557277,"2023-10-06T15:48:06",3,"NO ERROR",26.37,41.9,1010.33,0.22,0.28,0.29],
    [3081,363171,"Vazduh","Libelium","0004A30B0021DF70",44.979,16.7091,"","","Prijedor","",22557840,"2023-10-06T16:48:47",3,"NO ERROR",22.24,47.2,1010.28,0.49,0.67,0.67],
    [3082,363171,"Vazduh","Libelium","0004A30B0021DF70",44.979,16.7091,"","","Prijedor","",22558423,"2023-10-06T17:49:29",3,"NO ERROR",20.9,53,1010.3,0.31,0.46,0.86],
    [3083,363171,"Vazduh","Libelium","0004A30B0021DF70",44.979,16.7091,"","","Prijedor","",22558922,"2023-10-06T18:50:11",3,"NO ERROR",18.64,66.5,1010.39,1.27,1.66,1.82],
    [3084,363171,"Vazduh","Libelium","0004A30B0021DF70",44.979,16.7091,"","","Prijedor","",22559420,"2023-10-06T19:50:53",3,"NO ERROR",15.91,90.5,1010.53,0.99,1.27,1.28],
    [3085,363171,"Vazduh","Libelium","0004A30B0021DF70",44.979,16.7091,"","","Prijedor","",22560010,"2023-10-06T20:51:36",3,"NO ERROR",13.78,100,1010.83,0.84,1.01,1.02],
    [3086,363171,"Vazduh","Libelium","0004A30B0021DF70",44.979,16.7091,"","","Prijedor","",22560639,"2023-10-06T21:52:18",3,"NO ERROR",12.61,100,1010.66,0.99,1.39,1.93],
    [3087,363171,"Vazduh","Libelium","0004A30B0021DF70",44.979,16.7091,"","","Prijedor","",22561194,"2023-10-06T22:53:00",3,"NO ERROR",11.03,100,1010.89,0.98,1.25,1.27],
    [3088,363171,"Vazduh","Libelium","0004A30B0021DF70",44.979,16.7091,"","","Prijedor","",22561831,"2023-10-06T23:53:42",3,"NO ERROR",10.57,100,1010.96,0.24,0.31,0.31],
    [3089,363171,"Vazduh","Libelium","0004A30B0021DF70",44.979,16.7091,"","","Prijedor","",22562636,"2023-10-07T00:54:23",3,"NO ERROR",10.01,100,1010.8,0.86,1.03,1.03],
    [3090,363171,"Vazduh","Libelium","0004A30B0021DF70",44.979,16.7091,"","","Prijedor","",22563169,"2023-10-07T01:55:05",3,"NO ERROR",8.22,100,1010.74,0.13,0.18,0.19],
    [3091,363171,"Vazduh","Libelium","0004A30B0021DF70",44.979,16.7091,"","","Prijedor","",22563717,"2023-10-07T02:55:46",3,"NO ERROR",7.69,100,1010.28,2.14,3.01,25.75],
    [3092,363171,"Vazduh","Libelium","0004A30B0021DF70",44.979,16.7091,"","","Prijedor","",22564223,"2023-10-07T03:56:28",3,"NO ERROR",8.14,100,1009.96,5.47,16.49,198.06],
    [3093,363171,"Vazduh","Libelium","0004A30B0021DF70",44.979,16.7091,"","","Prijedor","",22564843,"2023-10-07T04:57:10",3,"NO ERROR",8.47,100,1009.85,5.46,18.86,327.22],
    [3094,363171,"Vazduh","Libelium","0004A30B0021DF70",44.979,16.7091,"","","Prijedor","",22565496,"2023-10-07T05:57:51",3,"NO ERROR",8.16,100,1009.82,7.69,19.43,240.65],
    [3095,363171,"Vazduh","Libelium","0004A30B0021DF70",44.979,16.7091,"","","Prijedor","",22566091,"2023-10-07T06:58:33",3,"NO ERROR",7.85,100,1009.78,2.06,10.52,195.49],
    [3096,363171,"Vazduh","Libelium","0004A30B0021DF70",44.979,16.7091,"","","Prijedor","",22566592,"2023-10-07T07:59:16",3,"NO ERROR",7.75,100,1009.94,1.85,13.2,249.34],
    [3097,363171,"Vazduh","Libelium","0004A30B0021DF70",44.979,16.7091,"","","Prijedor","",22567132,"2023-10-07T08:59:58",3,"NO ERROR",8.88,100,1010.13,1.79,9.48,104.12],
    [3098,363171,"Vazduh","Libelium","0004A30B0021DF70",44.979,16.7091,"","","Prijedor","",22567613,"2023-10-07T10:00:40",3,"NO ERROR",18.05,81.7,1010.26,0.17,0.25,0.25],
    [3099,363171,"Vazduh","Libelium","0004A30B0021DF70",44.979,16.7091,"","","Prijedor","",22568084,"2023-10-07T11:01:22",3,"NO ERROR",17.82,69.2,1010.22,0.15,0.2,0.2],
    [3100,363171,"Vazduh","Libelium","0004A30B0021DF70",44.979,16.7091,"","","Prijedor","",22568595,"2023-10-07T12:02:03",3,"NO ERROR",18.93,70.3,1009.86,0.36,0.42,0.42],
    [3101,363171,"Vazduh","Libelium","0004A30B0021DF70",44.979,16.7091,"","","Prijedor","",22569186,"2023-10-07T13:02:45",3,"NO ERROR",21.65,58.5,1008.85,0.21,0.28,0.28],
    [3102,363171,"Vazduh","Libelium","0004A30B0021DF70",44.979,16.7091,"","","Prijedor","",22569760,"2023-10-07T14:03:27",3,"NO ERROR",23.62,49.5,1007.87,0.11,0.13,0.14],
    [3103,363171,"Vazduh","Libelium","0004A30B0021DF70",44.979,16.7091,"","","Prijedor","",22570347,"2023-10-07T15:04:09",3,"NO ERROR",28.95,37.7,1007.26,0.13,0.15,0.15],
    [3104,363171,"Vazduh","Libelium","0004A30B0021DF70",44.979,16.7091,"","","Prijedor","",22570910,"2023-10-07T16:04:51",3,"NO ERROR",28.63,37,1006.87,0.39,0.52,0.54],
    [3105,363171,"Vazduh","Libelium","0004A30B0021DF70",44.979,16.7091,"","","Prijedor","",22571464,"2023-10-07T17:05:33",3,"NO ERROR",25.3,41.2,1006.8,0.35,0.41,0.41],
    [3106,363171,"Vazduh","Libelium","0004A30B0021DF70",44.979,16.7091,"","","Prijedor","",22572004,"2023-10-07T18:06:15",3,"NO ERROR",20.93,51.9,1007.21,0.56,0.77,0.79],
    [3107,363171,"Vazduh","Libelium","0004A30B0021DF70",44.979,16.7091,"","","Prijedor","",22572486,"2023-10-07T19:06:56",3,"NO ERROR",17.53,77.4,1007.41,0.87,1.3,1.35],
    [3108,363171,"Vazduh","Libelium","0004A30B0021DF70",44.979,16.7091,"","","Prijedor","",22572992,"2023-10-07T20:07:39",3,"NO ERROR",15.09,100,1007.39,1.11,1.58,1.78],
    [3109,363171,"Vazduh","Libelium","0004A30B0021DF70",44.979,16.7091,"","","Prijedor","",22573598,"2023-10-07T21:08:20",3,"NO ERROR",13.22,100,1007.74,0.88,1.31,1.36],
    [3110,363171,"Vazduh","Libelium","0004A30B0021DF70",44.979,16.7091,"","","Prijedor","",22574156,"2023-10-07T22:09:02",3,"NO ERROR",12.19,100,1007.74,0.64,0.78,0.79],
    [3111,363171,"Vazduh","Libelium","0004A30B0021DF70",44.979,16.7091,"","","Prijedor","",22574726,"2023-10-07T23:09:44",3,"NO ERROR",11.15,100,1007.86,0.69,0.9,0.93],
    [3112,363171,"Vazduh","Libelium","0004A30B0021DF70",44.979,16.7091,"","","Prijedor","",22575520,"2023-10-08T00:10:25",3,"NO ERROR",11.42,100,1007.65,0.51,0.67,0.69],
    [3113,363171,"Vazduh","Libelium","0004A30B0021DF70",44.979,16.7091,"","","Prijedor","",22576218,"2023-10-08T01:11:07",3,"NO ERROR",10.03,100,1007.57,0.4,0.65,1.22],
    [3114,363171,"Vazduh","Libelium","0004A30B0021DF70",44.979,16.7091,"","","Prijedor","",22576761,"2023-10-08T02:11:48",3,"NO ERROR",11,100,1007.34,0.75,1,1.17],
    [3115,363171,"Vazduh","Libelium","0004A30B0021DF70",44.979,16.7091,"","","Prijedor","",22577267,"2023-10-08T03:12:30",3,"NO ERROR",11.21,100,1006.97,0.46,0.65,0.67],
    [3116,363171,"Vazduh","Libelium","0004A30B0021DF70",44.979,16.7091,"","","Prijedor","",22577752,"2023-10-08T04:13:18",3,"NO ERROR",10.72,100,1006.55,0.67,0.87,0.89],
    [3117,363171,"Vazduh","Libelium","0004A30B0021DF70",44.979,16.7091,"","","Prijedor","",22578353,"2023-10-08T05:13:59",3,"NO ERROR",10.98,100,1006.5,0.17,0.23,0.23],
    [3118,363171,"Vazduh","Libelium","0004A30B0021DF70",44.979,16.7091,"","","Prijedor","",22578921,"2023-10-08T06:14:41",3,"NO ERROR",11.34,100,1006.46,0.28,0.39,0.41],
    [3119,363171,"Vazduh","Libelium","0004A30B0021DF70",44.979,16.7091,"","","Prijedor","",22579457,"2023-10-08T07:15:29",3,"NO ERROR",11.87,100,1006.37,0.48,0.62,0.62],
    [3120,363171,"Vazduh","Libelium","0004A30B0021DF70",44.979,16.7091,"","","Prijedor","",22579990,"2023-10-08T08:16:11",3,"NO ERROR",14.84,92.6,1006.46,0.5,0.71,0.72],
    [3121,363171,"Vazduh","Libelium","0004A30B0021DF70",44.979,16.7091,"","","Prijedor","",22580505,"2023-10-08T09:16:53",3,"NO ERROR",18.24,73.2,1006.5,0.06,0.11,0.24],
    [3122,363171,"Vazduh","Libelium","0004A30B0021DF70",44.979,16.7091,"","","Prijedor","",22580990,"2023-10-08T10:17:35",3,"NO ERROR",17.96,80.5,1006.27,0.55,0.72,0.73],
    [3123,363171,"Vazduh","Libelium","0004A30B0021DF70",44.979,16.7091,"","","Prijedor","",22581429,"2023-10-08T11:18:17",3,"NO ERROR",21.2,62.7,1005.91,0.37,0.57,0.69],
    [3124,363171,"Vazduh","Libelium","0004A30B0021DF70",44.979,16.7091,"","","Prijedor","",22581952,"2023-10-08T12:18:59",3,"NO ERROR",23.79,57.4,1005.6,0.15,0.22,0.23],
    [3125,363171,"Vazduh","Libelium","0004A30B0021DF70",44.979,16.7091,"","","Prijedor","",22582579,"2023-10-08T13:19:41",3,"NO ERROR",26.19,53.2,1005.2,0.41,0.47,0.47],
    [3126,363171,"Vazduh","Libelium","0004A30B0021DF70",44.979,16.7091,"","","Prijedor","",22583152,"2023-10-08T14:20:23",3,"NO ERROR",26.27,57.6,1004.76,0.3,0.44,0.54],
    [3127,363171,"Vazduh","Libelium","0004A30B0021DF70",44.979,16.7091,"","","Prijedor","",22583752,"2023-10-08T15:21:05",3,"NO ERROR",27.8,54.9,1004.31,0.35,0.54,0.69],
    [3128,363171,"Vazduh","Libelium","0004A30B0021DF70",44.979,16.7091,"","","Prijedor","",22584330,"2023-10-08T16:21:47",3,"NO ERROR",26.29,63.5,1004.21,0.49,0.73,0.84],
    [3129,363171,"Vazduh","Libelium","0004A30B0021DF70",44.979,16.7091,"","","Prijedor","",22584929,"2023-10-08T17:22:28",3,"NO ERROR",24.7,74.2,1004.52,0.78,1.03,1.12],
    [3130,363171,"Vazduh","Libelium","0004A30B0021DF70",44.979,16.7091,"","","Prijedor","",22585479,"2023-10-08T18:23:10",3,"NO ERROR",22.96,91.3,1005.01,1.49,1.81,1.92],
    [3131,363171,"Vazduh","Libelium","0004A30B0021DF70",44.979,16.7091,"","","Prijedor","",22585928,"2023-10-08T19:23:52",3,"NO ERROR",22.61,75.3,1006.03,0.82,1.56,9.63],
    [3132,363171,"Vazduh","Libelium","0004A30B0021DF70",44.979,16.7091,"","","Prijedor","",22586416,"2023-10-08T20:24:34",3,"NO ERROR",18.91,78.4,1007.4,0.37,0.99,1.49],
    [3133,363171,"Vazduh","Libelium","0004A30B0021DF70",44.979,16.7091,"","","Prijedor","",22587060,"2023-10-08T21:25:16",3,"NO ERROR",17.5,76.2,1009.08,0.04,0.19,0.27],
    [3134,363171,"Vazduh","Libelium","0004A30B0021DF70",44.979,16.7091,"","","Prijedor","",22587629,"2023-10-08T22:25:57",3,"NO ERROR",16.59,80,1010.06,0.13,0.15,0.15],
    [3135,363171,"Vazduh","Libelium","0004A30B0021DF70",44.979,16.7091,"","","Prijedor","",22588194,"2023-10-08T23:26:38",3,"NO ERROR",16.4,77.1,1011.16,0.35,0.46,0.47],
    [3136,363171,"Vazduh","Libelium","0004A30B0021DF70",44.979,16.7091,"","","Prijedor","",22589013,"2023-10-09T00:27:20",3,"NO ERROR",15.47,80.7,1011.68,0.05,0.08,0.08],
    [3137,363171,"Vazduh","Libelium","0004A30B0021DF70",44.979,16.7091,"","","Prijedor","",22589607,"2023-10-09T01:28:02",3,"NO ERROR",13.93,81.4,1011.69,0.05,0.05,0.05],
    [3138,363171,"Vazduh","Libelium","0004A30B0021DF70",44.979,16.7091,"","","Prijedor","",22590180,"2023-10-09T02:28:44",3,"NO ERROR",13.31,83,1011.41,0.08,0.11,0.11],
    [3139,363171,"Vazduh","Libelium","0004A30B0021DF70",44.979,16.7091,"","","Prijedor","",22590763,"2023-10-09T03:29:25",3,"NO ERROR",12.09,93.3,1010.97,0.08,0.13,0.14],
    [3140,363171,"Vazduh","Libelium","0004A30B0021DF70",44.979,16.7091,"","","Prijedor","",22591358,"2023-10-09T04:30:07",3,"NO ERROR",11.41,98.9,1010.98,0.23,0.28,0.28],
    [3141,363171,"Vazduh","Libelium","0004A30B0021DF70",44.979,16.7091,"","","Prijedor","",22591981,"2023-10-09T05:30:55",3,"NO ERROR",11.18,100,1010.47,0.27,0.43,0.97],
    [3142,363171,"Vazduh","Libelium","0004A30B0021DF70",44.979,16.7091,"","","Prijedor","",22592590,"2023-10-09T06:31:36",3,"NO ERROR",11.3,100,1010.05,0.51,0.65,0.66],
    [3143,363171,"Vazduh","Libelium","0004A30B0021DF70",44.979,16.7091,"","","Prijedor","",22593120,"2023-10-09T07:32:18",3,"NO ERROR",11.24,100,1009.59,0.51,0.69,0.69],
    [3144,363171,"Vazduh","Libelium","0004A30B0021DF70",44.979,16.7091,"","","Prijedor","",22593616,"2023-10-09T08:33:01",3,"NO ERROR",12.04,100,1009.82,0.26,0.55,0.6],
    [3145,363171,"Vazduh","Libelium","0004A30B0021DF70",44.979,16.7091,"","","Prijedor","",22594113,"2023-10-09T09:33:43",3,"NO ERROR",13.09,99.1,1009.21,0.29,0.45,0.58],
    [3146,363171,"Vazduh","Libelium","0004A30B0021DF70",44.979,16.7091,"","","Prijedor","",22594610,"2023-10-09T10:34:25",3,"NO ERROR",17.32,70.4,1008.3,0.1,0.14,0.14],
    [3147,363171,"Vazduh","Libelium","0004A30B0021DF70",44.979,16.7091,"","","Prijedor","",22595086,"2023-10-09T11:35:06",3,"NO ERROR",17.21,73,1007.17,0.06,0.1,0.1],
    [3148,363171,"Vazduh","Libelium","0004A30B0021DF70",44.979,16.7091,"","","Prijedor","",22595619,"2023-10-09T12:35:48",3,"NO ERROR",18.84,70.4,1005.94,0.3,0.53,0.57],
    [3149,363171,"Vazduh","Libelium","0004A30B0021DF70",44.979,16.7091,"","","Prijedor","",22596197,"2023-10-09T13:36:30",3,"NO ERROR",22.09,63.1,1004.56,0.25,0.29,0.29],
    [3150,363171,"Vazduh","Libelium","0004A30B0021DF70",44.979,16.7091,"","","Prijedor","",22596767,"2023-10-09T14:37:12",3,"NO ERROR",26.16,55.3,1003.85,0.37,0.51,0.55],
    [3151,363171,"Vazduh","Libelium","0004A30B0021DF70",44.979,16.7091,"","","Prijedor","",22597372,"2023-10-09T15:37:54",3,"NO ERROR",27.91,50.4,1002.96,1.15,1.44,1.94],
    [3152,363171,"Vazduh","Libelium","0004A30B0021DF70",44.979,16.7091,"","","Prijedor","",22597927,"2023-10-09T16:38:36",3,"NO ERROR",24.28,59.7,1002.31,0.51,0.62,0.62],
    [3153,363171,"Vazduh","Libelium","0004A30B0021DF70",44.979,16.7091,"","","Prijedor","",22598494,"2023-10-09T17:39:18",3,"NO ERROR",23.58,64.9,1002.15,0.42,0.61,0.62],
    [3154,363171,"Vazduh","Libelium","0004A30B0021DF70",44.979,16.7091,"","","Prijedor","",22599047,"2023-10-09T18:40:00",3,"NO ERROR",19.85,77.7,1002.97,0.6,0.9,0.93],
    [3155,363171,"Vazduh","Libelium","0004A30B0021DF70",44.979,16.7091,"","","Prijedor","",22599513,"2023-10-09T19:40:42",3,"NO ERROR",19.12,83.1,1003.79,0.33,0.47,0.49],
    [3156,363171,"Vazduh","Libelium","0004A30B0021DF70",44.979,16.7091,"","","Prijedor","",22600054,"2023-10-09T20:41:24",3,"NO ERROR",18.04,92.7,1004.67,0.66,0.79,0.79],
    [3157,363171,"Vazduh","Libelium","0004A30B0021DF70",44.979,16.7091,"","","Prijedor","",22600701,"2023-10-09T21:42:07",3,"NO ERROR",18.04,94.3,1005.13,0.7,0.96,0.97],
    [3158,363171,"Vazduh","Libelium","0004A30B0021DF70",44.979,16.7091,"","","Prijedor","",22601234,"2023-10-09T22:42:49",3,"NO ERROR",17.54,100,1005.75,0.8,0.99,0.99],
    [3159,363171,"Vazduh","Libelium","0004A30B0021DF70",44.979,16.7091,"","","Prijedor","",22601841,"2023-10-09T23:43:30",3,"NO ERROR",16.49,100,1005.55,0.57,0.89,0.99],
    [3160,363171,"Vazduh","Libelium","0004A30B0021DF70",44.979,16.7091,"","","Prijedor","",22602703,"2023-10-10T00:44:12",3,"NO ERROR",16.04,100,1005.64,0.93,1.24,1.36],
    [3161,363171,"Vazduh","Libelium","0004A30B0021DF70",44.979,16.7091,"","","Prijedor","",22603364,"2023-10-10T01:44:53",3,"NO ERROR",16.01,100,1006.05,0.22,0.33,0.35],
    [3162,363171,"Vazduh","Libelium","0004A30B0021DF70",44.979,16.7091,"","","Prijedor","",22604014,"2023-10-10T02:45:35",3,"NO ERROR",16.02,100,1004.82,0.41,0.56,0.58],
    [3163,363171,"Vazduh","Libelium","0004A30B0021DF70",44.979,16.7091,"","","Prijedor","",22604625,"2023-10-10T03:46:17",3,"NO ERROR",15.57,100,1004.34,0.77,0.98,1.01],
    [3164,363171,"Vazduh","Libelium","0004A30B0021DF70",44.979,16.7091,"","","Prijedor","",22605279,"2023-10-10T04:46:58",3,"NO ERROR",14,100,1004.59,0.82,1.16,1.19],
    [3165,363171,"Vazduh","Libelium","0004A30B0021DF70",44.979,16.7091,"","","Prijedor","",22605994,"2023-10-10T05:47:40",3,"NO ERROR",14.19,100,1004.81,0.35,0.6,0.65],
    [3166,363171,"Vazduh","Libelium","0004A30B0021DF70",44.979,16.7091,"","","Prijedor","",22606619,"2023-10-10T06:48:22",3,"NO ERROR",14.91,100,1005.27,0.63,0.87,0.88],
    [3167,363171,"Vazduh","Libelium","0004A30B0021DF70",44.979,16.7091,"","","Prijedor","",22607213,"2023-10-10T07:49:10",3,"NO ERROR",14.55,100,1005.77,0.42,0.74,0.78],
    [3168,363171,"Vazduh","Libelium","0004A30B0021DF70",44.979,16.7091,"","","Prijedor","",22607781,"2023-10-10T08:49:52",3,"NO ERROR",18.88,99.7,1006.1,0.63,0.83,0.83],
    [3169,363171,"Vazduh","Libelium","0004A30B0021DF70",44.979,16.7091,"","","Prijedor","",22608341,"2023-10-10T09:50:34",3,"NO ERROR",21.12,87,1006.38,0.46,0.66,0.68],
    [3170,363171,"Vazduh","Libelium","0004A30B0021DF70",44.979,16.7091,"","","Prijedor","",22608864,"2023-10-10T10:51:17",3,"NO ERROR",23.22,78.3,1006.13,0.48,0.92,1.17],
    [3171,363171,"Vazduh","Libelium","0004A30B0021DF70",44.979,16.7091,"","","Prijedor","",22609389,"2023-10-10T11:51:59",3,"NO ERROR",22.74,81.7,1006.44,0.6,0.73,0.73],
    [3172,363171,"Vazduh","Libelium","0004A30B0021DF70",44.979,16.7091,"","","Prijedor","",22609970,"2023-10-10T12:52:47",3,"NO ERROR",24.82,72.8,1006.05,0.94,1.54,2.14],
    [3173,363171,"Vazduh","Libelium","0004A30B0021DF70",44.979,16.7091,"","","Prijedor","",22610627,"2023-10-10T13:53:29",3,"NO ERROR",25.63,66.9,1005.54,0.5,0.67,0.68],
    [3174,363171,"Vazduh","Libelium","0004A30B0021DF70",44.979,16.7091,"","","Prijedor","",22611209,"2023-10-10T14:54:11",3,"NO ERROR",26.09,65.3,1005.11,0.58,0.86,0.97],
    [3175,363171,"Vazduh","Libelium","0004A30B0021DF70",44.979,16.7091,"","","Prijedor","",22611753,"2023-10-10T15:54:53",3,"NO ERROR",25.37,67.3,1005.03,0.86,1.18,1.2],
    [3176,363171,"Vazduh","Libelium","0004A30B0021DF70",44.979,16.7091,"","","Prijedor","",22612351,"2023-10-10T16:55:35",3,"NO ERROR",23.87,67.2,1005.56,1.59,2.24,2.72],
    [3177,363171,"Vazduh","Libelium","0004A30B0021DF70",44.979,16.7091,"","","Prijedor","",22612935,"2023-10-10T17:56:17",3,"NO ERROR",22.22,70.2,1005.88,1.21,1.56,1.57],
    [3178,363171,"Vazduh","Libelium","0004A30B0021DF70",44.979,16.7091,"","","Prijedor","",22613430,"2023-10-10T18:56:59",3,"NO ERROR",20.64,77.2,1006.61,0.66,1.03,1.15],
    [3179,363171,"Vazduh","Libelium","0004A30B0021DF70",44.979,16.7091,"","","Prijedor","",22613906,"2023-10-10T19:57:41",3,"NO ERROR",19.35,83.1,1006.8,0.45,0.62,0.65],
    [3180,363171,"Vazduh","Libelium","0004A30B0021DF70",44.979,16.7091,"","","Prijedor","",22614474,"2023-10-10T20:58:23",3,"NO ERROR",17.6,98.4,1007.27,0.9,1.31,1.32],
    [3181,363171,"Vazduh","Libelium","0004A30B0021DF70",44.979,16.7091,"","","Prijedor","",22615064,"2023-10-10T21:59:04",3,"NO ERROR",16.81,100,1007.66,0.95,1.26,1.3],
    [3182,363171,"Vazduh","Libelium","0004A30B0021DF70",44.979,16.7091,"","","Prijedor","",22615626,"2023-10-10T22:59:46",3,"NO ERROR",15.49,100,1007.99,2.64,3.04,3.07],
    [3183,363171,"Vazduh","Libelium","0004A30B0021DF70",44.979,16.7091,"","","Prijedor","",22616356,"2023-10-11T00:00:27",3,"NO ERROR",14.62,100,1008.23,0.86,1.06,1.07],
    [3184,363171,"Vazduh","Libelium","0004A30B0021DF70",44.979,16.7091,"","","Prijedor","",22617161,"2023-10-11T01:01:10",3,"NO ERROR",13.83,100,1008.51,0.84,1.05,1.07],
    [3185,363171,"Vazduh","Libelium","0004A30B0021DF70",44.979,16.7091,"","","Prijedor","",22617792,"2023-10-11T02:01:52",3,"NO ERROR",12.74,100,1008.65,0.72,0.9,0.91],
    [3186,363171,"Vazduh","Libelium","0004A30B0021DF70",44.979,16.7091,"","","Prijedor","",22618413,"2023-10-11T03:02:34",3,"NO ERROR",12.18,100,1008.41,1.05,1.37,1.38],
    [3187,363171,"Vazduh","Libelium","0004A30B0021DF70",44.979,16.7091,"","","Prijedor","",22619015,"2023-10-11T04:03:15",3,"NO ERROR",10.64,100,1008.43,7.09,8.99,27.35],
    [3188,363171,"Vazduh","Libelium","0004A30B0021DF70",44.979,16.7091,"","","Prijedor","",22619687,"2023-10-11T05:03:57",3,"NO ERROR",10.93,100,1008.5,1.41,1.99,6.03],
    [3189,363171,"Vazduh","Libelium","0004A30B0021DF70",44.979,16.7091,"","","Prijedor","",22620299,"2023-10-11T06:04:39",3,"NO ERROR",11.02,100,1008.54,3.19,4.16,26.39],
    [3190,363171,"Vazduh","Libelium","0004A30B0021DF70",44.979,16.7091,"","","Prijedor","",22620885,"2023-10-11T07:05:21",3,"NO ERROR",10.69,100,1008.73,3.97,6.94,61.82],
    [3191,363171,"Vazduh","Libelium","0004A30B0021DF70",44.979,16.7091,"","","Prijedor","",22621450,"2023-10-11T08:06:03",3,"NO ERROR",11.48,100,1009.17,5.21,8.46,32.63],
    [3192,363171,"Vazduh","Libelium","0004A30B0021DF70",44.979,16.7091,"","","Prijedor","",22622031,"2023-10-11T09:06:45",3,"NO ERROR",12.24,100,1009.44,1.3,5.75,37.7],
    [3193,363171,"Vazduh","Libelium","0004A30B0021DF70",44.979,16.7091,"","","Prijedor","",22622539,"2023-10-11T10:07:27",3,"NO ERROR",15.66,100,1009.51,1.36,1.69,1.7],
    [3194,363171,"Vazduh","Libelium","0004A30B0021DF70",44.979,16.7091,"","","Prijedor","",22623049,"2023-10-11T11:08:09",3,"NO ERROR",18.5,96.2,1009.08,0.21,0.28,0.28],
    [3195,363171,"Vazduh","Libelium","0004A30B0021DF70",44.979,16.7091,"","","Prijedor","",22623599,"2023-10-11T12:08:51",3,"NO ERROR",21.04,87.7,1008.74,0.31,0.48,0.49],
    [3196,363171,"Vazduh","Libelium","0004A30B0021DF70",44.979,16.7091,"","","Prijedor","",22624167,"2023-10-11T13:09:33",3,"NO ERROR",23.57,72.2,1008,0.65,0.9,0.92],
    [3197,363171,"Vazduh","Libelium","0004A30B0021DF70",44.979,16.7091,"","","Prijedor","",22624797,"2023-10-11T14:10:15",3,"NO ERROR",25.37,64.9,1007.14,0.74,1.09,1.14],
    [3198,363171,"Vazduh","Libelium","0004A30B0021DF70",44.979,16.7091,"","","Prijedor","",22625471,"2023-10-11T15:10:57",3,"NO ERROR",29.58,50.8,1006.52,0.96,1.6,1.75],
    [3199,363171,"Vazduh","Libelium","0004A30B0021DF70",44.979,16.7091,"","","Prijedor","",22626101,"2023-10-11T16:11:39",3,"NO ERROR",29.26,48.6,1005.95,0.47,0.76,1.73],
    [3200,363171,"Vazduh","Libelium","0004A30B0021DF70",44.979,16.7091,"","","Prijedor","",22626745,"2023-10-11T17:12:27",3,"NO ERROR",24.94,59.6,1005.48,1.24,1.42,1.43],
    [3201,363171,"Vazduh","Libelium","0004A30B0021DF70",44.979,16.7091,"","","Prijedor","",22627386,"2023-10-11T18:13:09",3,"NO ERROR",22.67,70.4,1005.57,1.21,1.61,1.63],
    [3202,363171,"Vazduh","Libelium","0004A30B0021DF70",44.979,16.7091,"","","Prijedor","",22627897,"2023-10-11T19:13:51",3,"NO ERROR",19.68,92.8,1005.96,2.16,2.49,2.52],
    [3203,363171,"Vazduh","Libelium","0004A30B0021DF70",44.979,16.7091,"","","Prijedor","",22628483,"2023-10-11T20:14:39",3,"NO ERROR",17.45,100,1006.02,0.97,1.43,1.95],
    [3204,363171,"Vazduh","Libelium","0004A30B0021DF70",44.979,16.7091,"","","Prijedor","",22629181,"2023-10-11T21:15:21",3,"NO ERROR",15.9,100,1006.2,1.05,1.52,1.56],
    [3205,363171,"Vazduh","Libelium","0004A30B0021DF70",44.979,16.7091,"","","Prijedor","",22629807,"2023-10-11T22:16:02",3,"NO ERROR",15.26,100,1006.18,1.26,1.53,1.54],
    [3206,363171,"Vazduh","Libelium","0004A30B0021DF70",44.979,16.7091,"","","Prijedor","",22630469,"2023-10-11T23:16:44",3,"NO ERROR",13.52,100,1006.24,3.16,3.77,3.82],
    [3207,363171,"Vazduh","Libelium","0004A30B0021DF70",44.979,16.7091,"","","Prijedor","",22631418,"2023-10-12T00:17:26",3,"NO ERROR",13.03,100,1005.95,1.82,2.22,2.22],
    [3208,363171,"Vazduh","Libelium","0004A30B0021DF70",44.979,16.7091,"","","Prijedor","",22632286,"2023-10-12T01:18:09",3,"NO ERROR",12.9,100,1005.95,1.68,2.21,2.47],
    [3209,363171,"Vazduh","Libelium","0004A30B0021DF70",44.979,16.7091,"","","Prijedor","",22632988,"2023-10-12T02:18:51",3,"NO ERROR",10.96,100,1005.92,3,4.59,40.05],
    [3210,363171,"Vazduh","Libelium","0004A30B0021DF70",44.979,16.7091,"","","Prijedor","",22633631,"2023-10-12T03:19:33",3,"NO ERROR",10.79,100,1005.34,16,22.08,99.07],
    [3211,363171,"Vazduh","Libelium","0004A30B0021DF70",44.979,16.7091,"","","Prijedor","",22634307,"2023-10-12T04:20:15",3,"NO ERROR",10.86,100,1005.24,13.93,20.94,159.5],
    [3212,363171,"Vazduh","Libelium","0004A30B0021DF70",44.979,16.7091,"","","Prijedor","",22635050,"2023-10-12T05:20:56",3,"NO ERROR",11.14,100,1005.16,9.3,13.8,139.7],
    [3213,363171,"Vazduh","Libelium","0004A30B0021DF70",44.979,16.7091,"","","Prijedor","",22635747,"2023-10-12T06:21:44",3,"NO ERROR",10.97,100,1005.26,3.83,6.37,56.8],
    [3214,363171,"Vazduh","Libelium","0004A30B0021DF70",44.979,16.7091,"","","Prijedor","",22636409,"2023-10-12T07:22:26",3,"NO ERROR",10.31,100,1005.45,2.33,10.19,139.39],
    [3215,363171,"Vazduh","Libelium","0004A30B0021DF70",44.979,16.7091,"","","Prijedor","",22637039,"2023-10-12T08:23:07",3,"NO ERROR",10.99,100,1005.91,1.94,3.66,47.33],
    [3216,363171,"Vazduh","Libelium","0004A30B0021DF70",44.979,16.7091,"","","Prijedor","",22637668,"2023-10-12T09:23:49",3,"NO ERROR",13.18,100,1006.15,0.48,1.31,44.4],
    [3217,363171,"Vazduh","Libelium","0004A30B0021DF70",44.979,16.7091,"","","Prijedor","",22638256,"2023-10-12T10:24:31",3,"NO ERROR",17.77,100,1006.11,0.24,0.26,0.26],
    [3218,363171,"Vazduh","Libelium","0004A30B0021DF70",44.979,16.7091,"","","Prijedor","",22638871,"2023-10-12T11:25:12",3,"NO ERROR",19.24,89.8,1005.57,0.56,1.01,1.22],
    [3219,363171,"Vazduh","Libelium","0004A30B0021DF70",44.979,16.7091,"","","Prijedor","",22639538,"2023-10-12T12:25:54",3,"NO ERROR",22.35,77.6,1005.01,0.44,0.57,0.57],
    [3220,363171,"Vazduh","Libelium","0004A30B0021DF70",44.979,16.7091,"","","Prijedor","",22640237,"2023-10-12T13:26:36",3,"NO ERROR",25.47,57.3,1004.05,0.69,0.87,0.88],
    [3221,363171,"Vazduh","Libelium","0004A30B0021DF70",44.979,16.7091,"","","Prijedor","",22640894,"2023-10-12T14:27:18",3,"NO ERROR",27.18,48.1,1003.35,0.55,0.86,0.89],
    [3222,363171,"Vazduh","Libelium","0004A30B0021DF70",44.979,16.7091,"","","Prijedor","",22641537,"2023-10-12T15:28:00",3,"NO ERROR",30.93,44.6,1002.82,0.96,1.33,1.35],
    [3223,363171,"Vazduh","Libelium","0004A30B0021DF70",44.979,16.7091,"","","Prijedor","",22642118,"2023-10-12T16:28:42",3,"NO ERROR",27.29,53.5,1002.41,0.6,0.85,3.83],
    [3224,363171,"Vazduh","Libelium","0004A30B0021DF70",44.979,16.7091,"","","Prijedor","",22642777,"2023-10-12T17:29:24",3,"NO ERROR",25.23,66.6,1002.73,0.69,1,1.08],
    [3225,363171,"Vazduh","Libelium","0004A30B0021DF70",44.979,16.7091,"","","Prijedor","",22643387,"2023-10-12T18:30:06",3,"NO ERROR",22.34,84.4,1003.19,0.89,1.42,1.57],
    [3226,363171,"Vazduh","Libelium","0004A30B0021DF70",44.979,16.7091,"","","Prijedor","",22643894,"2023-10-12T19:30:48",3,"NO ERROR",20.01,100,1003.95,0.9,1.39,1.5],
    [3227,363171,"Vazduh","Libelium","0004A30B0021DF70",44.979,16.7091,"","","Prijedor","",22644494,"2023-10-12T20:31:29",3,"NO ERROR",18.92,100,1004.26,0.79,1.15,1.26],
    [3228,363171,"Vazduh","Libelium","0004A30B0021DF70",44.979,16.7091,"","","Prijedor","",22645187,"2023-10-12T21:32:11",3,"NO ERROR",17.28,100,1004.77,1.19,2.08,20.67],
    [3229,363171,"Vazduh","Libelium","0004A30B0021DF70",44.979,16.7091,"","","Prijedor","",22645804,"2023-10-12T22:32:53",3,"NO ERROR",16.41,100,1004.71,1.41,1.8,1.85],
    [3230,363171,"Vazduh","Libelium","0004A30B0021DF70",44.979,16.7091,"","","Prijedor","",22646477,"2023-10-12T23:33:41",3,"NO ERROR",14.7,100,1004.98,1.9,2.7,2.89],
    [3231,363171,"Vazduh","Libelium","0004A30B0021DF70",44.979,16.7091,"","","Prijedor","",22647350,"2023-10-13T00:34:22",3,"NO ERROR",14.26,100,1005.02,1.88,2.59,3.07],
    [3232,363171,"Vazduh","Libelium","0004A30B0021DF70",44.979,16.7091,"","","Prijedor","",22647993,"2023-10-13T01:35:04",3,"NO ERROR",12.84,100,1005.46,2.04,2.21,2.21],
    [3233,363171,"Vazduh","Libelium","0004A30B0021DF70",44.979,16.7091,"","","Prijedor","",22648637,"2023-10-13T02:35:46",3,"NO ERROR",12.14,100,1005.43,1.17,1.34,1.34],
    [3234,363171,"Vazduh","Libelium","0004A30B0021DF70",44.979,16.7091,"","","Prijedor","",22649228,"2023-10-13T03:36:28",3,"NO ERROR",11.87,100,1005.34,5.99,7.01,7.05],
    [3235,363171,"Vazduh","Libelium","0004A30B0021DF70",44.979,16.7091,"","","Prijedor","",22649865,"2023-10-13T04:37:10",3,"NO ERROR",11.37,100,1005.46,13.2,17.28,36.55],
    [3236,363171,"Vazduh","Libelium","0004A30B0021DF70",44.979,16.7091,"","","Prijedor","",22650527,"2023-10-13T05:37:52",3,"NO ERROR",11.3,100,1005.44,23.2,30.52,84.49],
    [3237,363171,"Vazduh","Libelium","0004A30B0021DF70",44.979,16.7091,"","","Prijedor","",22651115,"2023-10-13T06:38:34",3,"NO ERROR",10.97,100,1005.55,1.12,1.38,1.39],
    [3238,363171,"Vazduh","Libelium","0004A30B0021DF70",44.979,16.7091,"","","Prijedor","",22651714,"2023-10-13T07:39:15",3,"NO ERROR",10.48,100,1006.11,1.47,1.84,1.88],
    [3239,363171,"Vazduh","Libelium","0004A30B0021DF70",44.979,16.7091,"","","Prijedor","",22652301,"2023-10-13T08:40:03",3,"NO ERROR",11.82,100,1006.71,1.33,2.05,2.83],
    [3240,363171,"Vazduh","Libelium","0004A30B0021DF70",44.979,16.7091,"","","Prijedor","",22652870,"2023-10-13T09:40:45",3,"NO ERROR",18.86,90.6,1006.94,0.21,0.26,0.26],
    [3241,363171,"Vazduh","Libelium","0004A30B0021DF70",44.979,16.7091,"","","Prijedor","",22653432,"2023-10-13T10:41:27",3,"NO ERROR",21.66,74.9,1006.66,0.82,1.1,1.22],
    [3242,363171,"Vazduh","Libelium","0004A30B0021DF70",44.979,16.7091,"","","Prijedor","",22653940,"2023-10-13T11:42:09",3,"NO ERROR",21.12,75.1,1006.45,0.35,0.65,1.03],
    [3243,363171,"Vazduh","Libelium","0004A30B0021DF70",44.979,16.7091,"","","Prijedor","",22654538,"2023-10-13T12:42:51",3,"NO ERROR",23.65,64.5,1005.76,0.49,0.66,0.67],
    [3244,363171,"Vazduh","Libelium","0004A30B0021DF70",44.979,16.7091,"","","Prijedor","",22655159,"2023-10-13T13:43:33",3,"NO ERROR",25.3,56.8,1005.02,1.12,1.54,1.67],
    [3245,363171,"Vazduh","Libelium","0004A30B0021DF70",44.979,16.7091,"","","Prijedor","",22655738,"2023-10-13T14:44:16",3,"NO ERROR",29.54,47.4,1004.38,0.8,0.99,1],
    [3246,363171,"Vazduh","Libelium","0004A30B0021DF70",44.979,16.7091,"","","Prijedor","",22656323,"2023-10-13T15:45:04",3,"NO ERROR",30.04,48.5,1003.87,1.06,1.65,2.14],
    [3247,363171,"Vazduh","Libelium","0004A30B0021DF70",44.979,16.7091,"","","Prijedor","",22656874,"2023-10-13T16:45:46",3,"NO ERROR",25.4,58.8,1003.38,0.52,0.7,0.72],
    [3248,363171,"Vazduh","Libelium","0004A30B0021DF70",44.979,16.7091,"","","Prijedor","",22657464,"2023-10-13T17:46:28",3,"NO ERROR",23.48,67.7,1003.27,0.79,1.23,1.29],
    [3249,363171,"Vazduh","Libelium","0004A30B0021DF70",44.979,16.7091,"","","Prijedor","",22657966,"2023-10-13T18:47:10",3,"NO ERROR",20.78,93.3,1003.43,1.71,2.33,2.89],
    [3250,363171,"Vazduh","Libelium","0004A30B0021DF70",44.979,16.7091,"","","Prijedor","",22658443,"2023-10-13T19:47:52",3,"NO ERROR",18.29,100,1003.56,1.59,2.01,2.05],
    [3251,363171,"Vazduh","Libelium","0004A30B0021DF70",44.979,16.7091,"","","Prijedor","",22659039,"2023-10-13T20:48:34",3,"NO ERROR",16.96,100,1003.62,1.29,1.61,1.64],
    [3252,363171,"Vazduh","Libelium","0004A30B0021DF70",44.979,16.7091,"","","Prijedor","",22659618,"2023-10-13T21:49:16",3,"NO ERROR",15.55,100,1003.79,3.25,4.05,4.23],
    [3253,363171,"Vazduh","Libelium","0004A30B0021DF70",44.979,16.7091,"","","Prijedor","",22660145,"2023-10-13T22:49:58",3,"NO ERROR",14.66,100,1003.72,2.61,3.11,3.12],
    [3254,363171,"Vazduh","Libelium","0004A30B0021DF70",44.979,16.7091,"","","Prijedor","",22660679,"2023-10-13T23:50:40",3,"NO ERROR",13.81,100,1003.5,1.62,2.02,2.02],
    [3255,363171,"Vazduh","Libelium","0004A30B0021DF70",44.979,16.7091,"","","Prijedor","",22661524,"2023-10-14T00:51:22",3,"NO ERROR",12.85,100,1003.16,4.86,5.61,5.66],
    [3256,363171,"Vazduh","Libelium","0004A30B0021DF70",44.979,16.7091,"","","Prijedor","",22662092,"2023-10-14T01:52:04",3,"NO ERROR",13.28,100,1003.12,2.79,8.39,64.49],
    [3257,363171,"Vazduh","Libelium","0004A30B0021DF70",44.979,16.7091,"","","Prijedor","",22662667,"2023-10-14T02:52:47",3,"NO ERROR",12.95,100,1002.62,2.51,5.16,47.88],
    [3258,363171,"Vazduh","Libelium","0004A30B0021DF70",44.979,16.7091,"","","Prijedor","",22663198,"2023-10-14T03:53:28",3,"NO ERROR",12.76,100,1002.07,2.1,2.78,2.86],
    [3259,363171,"Vazduh","Libelium","0004A30B0021DF70",44.979,16.7091,"","","Prijedor","",22663802,"2023-10-14T04:54:10",3,"NO ERROR",11.68,100,1001.53,0.97,2.09,41],
    [3260,363171,"Vazduh","Libelium","0004A30B0021DF70",44.979,16.7091,"","","Prijedor","",22664427,"2023-10-14T05:54:52",3,"NO ERROR",11.06,100,1001.22,0.67,0.93,7.13],
    [3261,363171,"Vazduh","Libelium","0004A30B0021DF70",44.979,16.7091,"","","Prijedor","",22664967,"2023-10-14T06:55:34",3,"NO ERROR",10.59,100,1000.91,2.18,10.69,451.59],
    [3262,363171,"Vazduh","Libelium","0004A30B0021DF70",44.979,16.7091,"","","Prijedor","",22665525,"2023-10-14T07:56:16",3,"NO ERROR",10.65,100,1000.99,1.83,4.52,15.84],
    [3263,363171,"Vazduh","Libelium","0004A30B0021DF70",44.979,16.7091,"","","Prijedor","",22666123,"2023-10-14T08:56:58",3,"NO ERROR",12.63,100,1001.04,0.72,0.9,0.91],
    [3264,363171,"Vazduh","Libelium","0004A30B0021DF70",44.979,16.7091,"","","Prijedor","",22666686,"2023-10-14T09:57:40",3,"NO ERROR",18.84,88.9,1000.61,0.45,0.68,0.72],
    [3265,363171,"Vazduh","Libelium","0004A30B0021DF70",44.979,16.7091,"","","Prijedor","",22667217,"2023-10-14T10:58:22",3,"NO ERROR",20.41,86,1000.19,0.76,1.09,1.25],
    [3266,363171,"Vazduh","Libelium","0004A30B0021DF70",44.979,16.7091,"","","Prijedor","",22667802,"2023-10-14T11:59:04",3,"NO ERROR",23.03,73,999.47,0.53,0.81,0.84],
    [3267,363171,"Vazduh","Libelium","0004A30B0021DF70",44.979,16.7091,"","","Prijedor","",22668405,"2023-10-14T12:59:46",3,"NO ERROR",25.43,60.4,998.72,0.68,1,1.03],
    [3268,363171,"Vazduh","Libelium","0004A30B0021DF70",44.979,16.7091,"","","Prijedor","",22668997,"2023-10-14T14:00:28",3,"NO ERROR",26.47,59.2,997.97,0.78,1.03,1.04],
    [3269,363171,"Vazduh","Libelium","0004A30B0021DF70",44.979,16.7091,"","","Prijedor","",22669639,"2023-10-14T15:01:11",3,"NO ERROR",30.84,45.2,997.37,0.71,0.93,0.94],
    [3270,363171,"Vazduh","Libelium","0004A30B0021DF70",44.979,16.7091,"","","Prijedor","",22670202,"2023-10-14T16:01:53",3,"NO ERROR",30.36,44.5,996.74,0.54,0.71,0.8],
    [3271,363171,"Vazduh","Libelium","0004A30B0021DF70",44.979,16.7091,"","","Prijedor","",22670797,"2023-10-14T17:02:34",3,"NO ERROR",26.07,53.1,996.42,0.66,1.01,1.04],
    [3272,363171,"Vazduh","Libelium","0004A30B0021DF70",44.979,16.7091,"","","Prijedor","",22671381,"2023-10-14T18:03:16",3,"NO ERROR",23.45,66.3,996.35,0.37,0.56,0.64],
    [3273,363171,"Vazduh","Libelium","0004A30B0021DF70",44.979,16.7091,"","","Prijedor","",22671832,"2023-10-14T19:03:58",3,"NO ERROR",20.55,87.4,996.77,3.36,4.07,4.18],
    [3274,363171,"Vazduh","Libelium","0004A30B0021DF70",44.979,16.7091,"","","Prijedor","",22672328,"2023-10-14T20:04:39",3,"NO ERROR",18.86,100,997.12,2.96,3.62,3.65],
    [3275,363171,"Vazduh","Libelium","0004A30B0021DF70",44.979,16.7091,"","","Prijedor","",22672951,"2023-10-14T21:05:21",3,"NO ERROR",17.05,100,997.45,0.95,1.18,1.2],
    [3276,363171,"Vazduh","Libelium","0004A30B0021DF70",44.979,16.7091,"","","Prijedor","",22673507,"2023-10-14T22:06:02",3,"NO ERROR",15.67,100,997.39,1.87,2.45,2.48],
    [3277,363171,"Vazduh","Libelium","0004A30B0021DF70",44.979,16.7091,"","","Prijedor","",22674086,"2023-10-14T23:06:44",3,"NO ERROR",15.28,100,997.32,1.26,1.77,1.94],
    [3278,363171,"Vazduh","Libelium","0004A30B0021DF70",44.979,16.7091,"","","Prijedor","",22674902,"2023-10-15T00:07:26",3,"NO ERROR",13.57,100,997.19,1.73,2.1,2.12],
    [3279,363171,"Vazduh","Libelium","0004A30B0021DF70",44.979,16.7091,"","","Prijedor","",22675524,"2023-10-15T01:08:08",3,"NO ERROR",13.05,100,997.04,1.09,1.21,1.21],
    [3280,363171,"Vazduh","Libelium","0004A30B0021DF70",44.979,16.7091,"","","Prijedor","",22676036,"2023-10-15T02:08:50",3,"NO ERROR",13.32,100,997.12,1.04,1.47,1.61],
    [3281,363171,"Vazduh","Libelium","0004A30B0021DF70",44.979,16.7091,"","","Prijedor","",22676582,"2023-10-15T03:09:32",3,"NO ERROR",13.5,100,996.66,1.07,1.71,2.09],
    [3282,363171,"Vazduh","Libelium","0004A30B0021DF70",44.979,16.7091,"","","Prijedor","",22677078,"2023-10-15T04:10:15",3,"NO ERROR",13.16,100,996.43,1.58,2.15,2.29],
    [3283,363171,"Vazduh","Libelium","0004A30B0021DF70",44.979,16.7091,"","","Prijedor","",22677708,"2023-10-15T05:10:57",3,"NO ERROR",13.5,100,996.35,0.59,0.67,0.68],
    [3284,363171,"Vazduh","Libelium","0004A30B0021DF70",44.979,16.7091,"","","Prijedor","",22678286,"2023-10-15T06:11:39",3,"NO ERROR",16.3,100,996.64,0.59,0.77,0.78],
    [3285,363171,"Vazduh","Libelium","0004A30B0021DF70",44.979,16.7091,"","","Prijedor","",22678820,"2023-10-15T07:12:21",3,"NO ERROR",14.07,100,996.94,0.1,0.14,0.14],
    [3286,363171,"Vazduh","Libelium","0004A30B0021DF70",44.979,16.7091,"","","Prijedor","",22679356,"2023-10-15T08:13:03",3,"NO ERROR",14.18,100,998.61,0.42,0.7,0.71],
    [3287,363171,"Vazduh","Libelium","0004A30B0021DF70",44.979,16.7091,"","","Prijedor","",22679941,"2023-10-15T09:13:44",3,"NO ERROR",13.42,100,999.93,0.3,0.37,0.37],
    [3288,363171,"Vazduh","Libelium","0004A30B0021DF70",44.979,16.7091,"","","Prijedor","",22680429,"2023-10-15T10:14:26",3,"NO ERROR",13.2,100,1000.44,0.23,0.29,0.29],
    [3289,363171,"Vazduh","Libelium","0004A30B0021DF70",44.979,16.7091,"","","Prijedor","",22680917,"2023-10-15T11:15:07",3,"NO ERROR",11.75,100,1000.95,0.3,0.33,0.33],
    [3290,363171,"Vazduh","Libelium","0004A30B0021DF70",44.979,16.7091,"","","Prijedor","",22681492,"2023-10-15T12:15:49",3,"NO ERROR",11.46,100,1001.46,0.04,0.07,0.07],
    [3291,363171,"Vazduh","Libelium","0004A30B0021DF70",44.979,16.7091,"","","Prijedor","",22682067,"2023-10-15T13:16:31",3,"NO ERROR",11.88,100,1001.66,0.11,0.14,0.14],
    [3292,363171,"Vazduh","Libelium","0004A30B0021DF70",44.979,16.7091,"","","Prijedor","",22682646,"2023-10-15T14:17:19",3,"NO ERROR",10.69,100,1002.1,0.38,0.53,0.53],
    [3293,363171,"Vazduh","Libelium","0004A30B0021DF70",44.979,16.7091,"","","Prijedor","",22683224,"2023-10-15T15:18:00",3,"NO ERROR",10.95,100,1002.22,0.39,0.61,0.64],
    [3294,363171,"Vazduh","Libelium","0004A30B0021DF70",44.979,16.7091,"","","Prijedor","",22683725,"2023-10-15T16:18:42",3,"NO ERROR",10.62,100,1003.03,0.32,0.5,0.59],
    [3295,363171,"Vazduh","Libelium","0004A30B0021DF70",44.979,16.7091,"","","Prijedor","",22684247,"2023-10-15T17:19:24",3,"NO ERROR",9.88,100,1003.63,0.59,0.65,0.65],
    [3296,363171,"Vazduh","Libelium","0004A30B0021DF70",44.979,16.7091,"","","Prijedor","",22684775,"2023-10-15T18:20:06",3,"NO ERROR",9.52,100,1004.23,0.87,1.14,1.15],
    [3297,363171,"Vazduh","Libelium","0004A30B0021DF70",44.979,16.7091,"","","Prijedor","",22685180,"2023-10-15T19:20:48",3,"NO ERROR",9.04,100,1005.26,0.58,0.75,0.76],
    [3298,363171,"Vazduh","Libelium","0004A30B0021DF70",44.979,16.7091,"","","Prijedor","",22685687,"2023-10-15T20:21:29",3,"NO ERROR",8.9,100,1005.24,0.76,1.04,1.05],
    [3299,363171,"Vazduh","Libelium","0004A30B0021DF70",44.979,16.7091,"","","Prijedor","",22686236,"2023-10-15T21:22:11",3,"NO ERROR",9.15,100,1005.59,0.31,0.48,0.49],
    [3300,363171,"Vazduh","Libelium","0004A30B0021DF70",44.979,16.7091,"","","Prijedor","",22686737,"2023-10-15T22:22:53",3,"NO ERROR",9.14,100,1006.08,0.19,0.25,0.25],
    [3301,363171,"Vazduh","Libelium","0004A30B0021DF70",44.979,16.7091,"","","Prijedor","",22687239,"2023-10-15T23:23:35",3,"NO ERROR",8.71,100,1006.24,0.67,0.84,0.84],
    [3302,363171,"Vazduh","Libelium","0004A30B0021DF70",44.979,16.7091,"","","Prijedor","",22687945,"2023-10-16T00:24:17",3,"NO ERROR",7.4,100,1006.72,0.42,0.53,0.54],
    [3303,363171,"Vazduh","Libelium","0004A30B0021DF70",44.979,16.7091,"","","Prijedor","",22688428,"2023-10-16T01:25:05",3,"NO ERROR",6.7,100,1007.21,0.45,0.63,0.66],
    [3304,363171,"Vazduh","Libelium","0004A30B0021DF70",44.979,16.7091,"","","Prijedor","",22688912,"2023-10-16T02:25:47",3,"NO ERROR",6.1,100,1007.69,0.46,0.54,0.54],
    [3305,363171,"Vazduh","Libelium","0004A30B0021DF70",44.979,16.7091,"","","Prijedor","",22689365,"2023-10-16T03:26:35",3,"NO ERROR",5.32,100,1008.16,1.89,2.9,39.29],
    [3306,363171,"Vazduh","Libelium","0004A30B0021DF70",44.979,16.7091,"","","Prijedor","",22689802,"2023-10-16T04:27:17",3,"NO ERROR",5.71,100,1008.23,7.19,21.47,245.98],
    [3307,363171,"Vazduh","Libelium","0004A30B0021DF70",44.979,16.7091,"","","Prijedor","",22690301,"2023-10-16T05:27:58",3,"NO ERROR",6.29,100,1008.64,3.47,11.08,141.41],
    [3308,363171,"Vazduh","Libelium","0004A30B0021DF70",44.979,16.7091,"","","Prijedor","",22690788,"2023-10-16T06:28:40",3,"NO ERROR",5.8,100,1009.06,0.85,2.44,50.46],
    [3309,363171,"Vazduh","Libelium","0004A30B0021DF70",44.979,16.7091,"","","Prijedor","",22691232,"2023-10-16T07:29:22",3,"NO ERROR",6.52,100,1009.24,0.96,1.3,1.48],
    [3310,363171,"Vazduh","Libelium","0004A30B0021DF70",44.979,16.7091,"","","Prijedor","",22691691,"2023-10-16T08:30:04",3,"NO ERROR",6.65,100,1009.82,0.77,1.34,3.29],
    [3311,363171,"Vazduh","Libelium","0004A30B0021DF70",44.979,16.7091,"","","Prijedor","",22692197,"2023-10-16T09:30:46",3,"NO ERROR",7.12,100,1010.05,0.32,0.35,0.35],
    [3312,363171,"Vazduh","Libelium","0004A30B0021DF70",44.979,16.7091,"","","Prijedor","",22692631,"2023-10-16T10:31:28",3,"NO ERROR",7.99,100,1009.99,0.34,0.47,0.47],
    [3313,363171,"Vazduh","Libelium","0004A30B0021DF70",44.979,16.7091,"","","Prijedor","",22693090,"2023-10-16T11:32:11",3,"NO ERROR",9.48,100,1009.58,0.15,0.28,0.36],
    [3314,363171,"Vazduh","Libelium","0004A30B0021DF70",44.979,16.7091,"","","Prijedor","",22693599,"2023-10-16T12:32:59",3,"NO ERROR",12.16,94.5,1008.87,0.13,0.21,0.21],
    [3315,363171,"Vazduh","Libelium","0004A30B0021DF70",44.979,16.7091,"","","Prijedor","",22694113,"2023-10-16T13:33:41",3,"NO ERROR",13.38,81.8,1007.71,0.14,0.19,0.19],
    [3316,363171,"Vazduh","Libelium","0004A30B0021DF70",44.979,16.7091,"","","Prijedor","",22694596,"2023-10-16T14:34:23",3,"NO ERROR",14.18,72.7,1007.04,0.16,0.17,0.17],
    [3317,363171,"Vazduh","Libelium","0004A30B0021DF70",44.979,16.7091,"","","Prijedor","",22695123,"2023-10-16T15:35:04",3,"NO ERROR",13.58,61.7,1006.54,0.01,0.03,0.04],
    [3318,363171,"Vazduh","Libelium","0004A30B0021DF70",44.979,16.7091,"","","Prijedor","",22695585,"2023-10-16T16:35:46",3,"NO ERROR",12.49,67.1,1006.23,0.03,0.05,0.05],
    [3319,363171,"Vazduh","Libelium","0004A30B0021DF70",44.979,16.7091,"","","Prijedor","",22696069,"2023-10-16T17:36:28",3,"NO ERROR",11.23,76.5,1005.91,0.22,0.32,0.33],
    [3320,363171,"Vazduh","Libelium","0004A30B0021DF70",44.979,16.7091,"","","Prijedor","",22696517,"2023-10-16T18:37:10",3,"NO ERROR",9.25,100,1006.06,0.25,0.33,0.35],
    [3321,363171,"Vazduh","Libelium","0004A30B0021DF70",44.979,16.7091,"","","Prijedor","",22696873,"2023-10-16T19:37:51",3,"NO ERROR",7.71,100,1005.91,0.32,0.47,0.48],
    [3322,363171,"Vazduh","Libelium","0004A30B0021DF70",44.979,16.7091,"","","Prijedor","",22697316,"2023-10-16T20:38:32",3,"NO ERROR",6.71,100,1006.12,0.07,0.07,0.07],
    [3323,363171,"Vazduh","Libelium","0004A30B0021DF70",44.979,16.7091,"","","Prijedor","",22697828,"2023-10-16T21:39:14",3,"NO ERROR",5.73,100,1006.56,0.16,0.3,0.35],
    [3324,363171,"Vazduh","Libelium","0004A30B0021DF70",44.979,16.7091,"","","Prijedor","",22698252,"2023-10-16T22:39:57",3,"NO ERROR",5.36,100,1006.79,0.3,0.39,0.39],
    [3325,363171,"Vazduh","Libelium","0004A30B0021DF70",44.979,16.7091,"","","Prijedor","",22698739,"2023-10-16T23:40:39",3,"NO ERROR",4.66,100,1006.76,0.18,0.19,0.2],
    [3326,363171,"Vazduh","Libelium","0004A30B0021DF70",44.979,16.7091,"","","Prijedor","",22699448,"2023-10-17T00:41:20",3,"NO ERROR",4.11,100,1006.59,0.3,0.33,0.33],
    [3327,363171,"Vazduh","Libelium","0004A30B0021DF70",44.979,16.7091,"","","Prijedor","",22699905,"2023-10-17T01:42:02",3,"NO ERROR",3.61,100,1006.52,0.49,0.77,0.92],
    [3328,363171,"Vazduh","Libelium","0004A30B0021DF70",44.979,16.7091,"","","Prijedor","",22700380,"2023-10-17T02:42:44",3,"NO ERROR",2.68,100,1006.32,0.27,0.29,0.29],
    [3329,363171,"Vazduh","Libelium","0004A30B0021DF70",44.979,16.7091,"","","Prijedor","",22700840,"2023-10-17T03:43:26",3,"NO ERROR",2.9,100,1006.26,2.88,4.58,20.89],
    [3330,363171,"Vazduh","Libelium","0004A30B0021DF70",44.979,16.7091,"","","Prijedor","",22701317,"2023-10-17T04:44:07",3,"NO ERROR",3.16,100,1006.46,1.63,7.71,76],
    [3331,363171,"Vazduh","Libelium","0004A30B0021DF70",44.979,16.7091,"","","Prijedor","",22701880,"2023-10-17T05:44:50",3,"NO ERROR",3.19,100,1006.47,0.46,1.27,5.09],
    [3332,363171,"Vazduh","Libelium","0004A30B0021DF70",44.979,16.7091,"","","Prijedor","",22702401,"2023-10-17T06:45:32",3,"NO ERROR",3.53,100,1006.45,1.01,3.42,63.05],
    [3333,363171,"Vazduh","Libelium","0004A30B0021DF70",44.979,16.7091,"","","Prijedor","",22702866,"2023-10-17T07:46:13",3,"NO ERROR",3.49,100,1006.74,0.08,0.14,4.99],
    [3334,363171,"Vazduh","Libelium","0004A30B0021DF70",44.979,16.7091,"","","Prijedor","",22703361,"2023-10-17T08:46:55",3,"NO ERROR",4.47,100,1007.14,0.28,0.31,0.31],
    [3335,363171,"Vazduh","Libelium","0004A30B0021DF70",44.979,16.7091,"","","Prijedor","",22703841,"2023-10-17T09:47:42",3,"NO ERROR",5.37,100,1007.23,0.41,0.46,0.46],
    [3336,363171,"Vazduh","Libelium","0004A30B0021DF70",44.979,16.7091,"","","Prijedor","",22704281,"2023-10-17T10:48:24",3,"NO ERROR",6.6,100,1007.51,0.79,0.95,0.96],
    [3337,363171,"Vazduh","Libelium","0004A30B0021DF70",44.979,16.7091,"","","Prijedor","",22704750,"2023-10-17T11:49:06",3,"NO ERROR",8.6,100,1006.94,0.14,0.29,0.84],
    [3338,363171,"Vazduh","Libelium","0004A30B0021DF70",44.979,16.7091,"","","Prijedor","",22705252,"2023-10-17T12:49:48",3,"NO ERROR",10.69,99.7,1006.08,0.27,0.38,0.39],
    [3339,363171,"Vazduh","Libelium","0004A30B0021DF70",44.979,16.7091,"","","Prijedor","",22705751,"2023-10-17T13:50:31",3,"NO ERROR",13.14,82.8,1005.35,0.13,0.16,0.17],
    [3340,363171,"Vazduh","Libelium","0004A30B0021DF70",44.979,16.7091,"","","Prijedor","",22706274,"2023-10-17T14:51:13",3,"NO ERROR",17.56,64.5,1004.38,0.27,0.35,0.35],
    [3341,363171,"Vazduh","Libelium","0004A30B0021DF70",44.979,16.7091,"","","Prijedor","",22706758,"2023-10-17T15:51:55",3,"NO ERROR",17.27,65.9,1003.81,0.11,0.24,0.54],
    [3342,363171,"Vazduh","Libelium","0004A30B0021DF70",44.979,16.7091,"","","Prijedor","",22707204,"2023-10-17T16:52:37",3,"NO ERROR",14.35,75.8,1003.92,0.2,0.3,0.32],
    [3343,363171,"Vazduh","Libelium","0004A30B0021DF70",44.979,16.7091,"","","Prijedor","",22707718,"2023-10-17T17:53:18",3,"NO ERROR",12.3,84.3,1004.01,0.63,0.78,0.78],
    [3344,363171,"Vazduh","Libelium","0004A30B0021DF70",44.979,16.7091,"","","Prijedor","",22708150,"2023-10-17T18:53:59",3,"NO ERROR",11,100,1004.39,0.73,0.9,0.91],
    [3345,363171,"Vazduh","Libelium","0004A30B0021DF70",44.979,16.7091,"","","Prijedor","",22708541,"2023-10-17T19:54:40",3,"NO ERROR",9.07,100,1004.51,0.58,0.73,0.73],
    [3346,363171,"Vazduh","Libelium","0004A30B0021DF70",44.979,16.7091,"","","Prijedor","",22709065,"2023-10-17T20:55:22",3,"NO ERROR",8.07,100,1004.64,0.58,0.69,0.69],
    [3347,363171,"Vazduh","Libelium","0004A30B0021DF70",44.979,16.7091,"","","Prijedor","",22709590,"2023-10-17T21:56:10",3,"NO ERROR",7.68,100,1004.56,1.09,1.26,1.26],
    [3348,363171,"Vazduh","Libelium","0004A30B0021DF70",44.979,16.7091,"","","Prijedor","",22710040,"2023-10-17T22:56:52",3,"NO ERROR",6.65,100,1004.37,0.65,0.85,0.87],
    [3349,363171,"Vazduh","Libelium","0004A30B0021DF70",44.979,16.7091,"","","Prijedor","",22710635,"2023-10-17T23:57:34",3,"NO ERROR",5.94,100,1004.21,2.66,7.42,55.91],
    [3350,363171,"Vazduh","Libelium","0004A30B0021DF70",44.979,16.7091,"","","Prijedor","",22711237,"2023-10-18T00:58:17",3,"NO ERROR",5.24,100,1004.06,0.9,1.05,1.05],
    [3351,363171,"Vazduh","Libelium","0004A30B0021DF70",44.979,16.7091,"","","Prijedor","",22711689,"2023-10-18T01:58:59",3,"NO ERROR",4.88,100,1004.39,10.07,27.98,336.33],
    [3352,363171,"Vazduh","Libelium","0004A30B0021DF70",44.979,16.7091,"","","Prijedor","",22712165,"2023-10-18T02:59:40",3,"NO ERROR",4.63,100,1004.12,11.39,26.25,638.32],
    [3353,363171,"Vazduh","Libelium","0004A30B0021DF70",44.979,16.7091,"","","Prijedor","",22712640,"2023-10-18T04:00:28",3,"NO ERROR",4.92,100,1003.98,15.84,31.47,375.67],
    [3354,363171,"Vazduh","Libelium","0004A30B0021DF70",44.979,16.7091,"","","Prijedor","",22713174,"2023-10-18T05:01:10",3,"NO ERROR",4.98,100,1004.13,6.64,19.79,307.69],
    [3355,363171,"Vazduh","Libelium","0004A30B0021DF70",44.979,16.7091,"","","Prijedor","",22713765,"2023-10-18T06:01:52",3,"NO ERROR",5.01,100,1003.96,11.34,24.08,318.09],
    [3356,363171,"Vazduh","Libelium","0004A30B0021DF70",44.979,16.7091,"","","Prijedor","",22714245,"2023-10-18T07:02:33",3,"NO ERROR",5.05,100,1003.91,7.17,15.72,363.32],
    [3357,363171,"Vazduh","Libelium","0004A30B0021DF70",44.979,16.7091,"","","Prijedor","",22714705,"2023-10-18T08:03:22",3,"NO ERROR",5.05,100,1004.24,19.23,27.56,145.58],
    [3358,363171,"Vazduh","Libelium","0004A30B0021DF70",44.979,16.7091,"","","Prijedor","",22715253,"2023-10-18T09:04:04",3,"NO ERROR",5.51,100,1004.18,4.93,7.12,24.74],
    [3359,363171,"Vazduh","Libelium","0004A30B0021DF70",44.979,16.7091,"","","Prijedor","",22715682,"2023-10-18T10:04:46",3,"NO ERROR",6.7,100,1004.11,4.16,5.41,10.24],
    [3360,363171,"Vazduh","Libelium","0004A30B0021DF70",44.979,16.7091,"","","Prijedor","",22716102,"2023-10-18T11:05:28",3,"NO ERROR",7.92,100,1003.99,1.76,2.36,33.81],
    [3361,363171,"Vazduh","Libelium","0004A30B0021DF70",44.979,16.7091,"","","Prijedor","",22716580,"2023-10-18T12:06:10",3,"NO ERROR",9.48,100,1003.77,0.7,0.86,0.86],
    [3362,363171,"Vazduh","Libelium","0004A30B0021DF70",44.979,16.7091,"","","Prijedor","",22717075,"2023-10-18T13:06:52",3,"NO ERROR",12.83,96.5,1002.65,0.16,0.19,0.19],
    [3363,363171,"Vazduh","Libelium","0004A30B0021DF70",44.979,16.7091,"","","Prijedor","",22717521,"2023-10-18T14:07:40",3,"NO ERROR",15.03,80.8,1001.39,0.12,0.12,0.12],
    [3364,363171,"Vazduh","Libelium","0004A30B0021DF70",44.979,16.7091,"","","Prijedor","",22718056,"2023-10-18T15:08:22",3,"NO ERROR",17.17,70.7,1000.63,0.25,0.26,0.26],
    [3365,363171,"Vazduh","Libelium","0004A30B0021DF70",44.979,16.7091,"","","Prijedor","",22718522,"2023-10-18T16:09:04",3,"NO ERROR",16.1,73,1000.15,0.19,0.2,0.2],
    [3366,363171,"Vazduh","Libelium","0004A30B0021DF70",44.979,16.7091,"","","Prijedor","",22719023,"2023-10-18T17:09:52",3,"NO ERROR",14.8,85.5,999.46,0.3,0.33,0.33],
    [3367,363171,"Vazduh","Libelium","0004A30B0021DF70",44.979,16.7091,"","","Prijedor","",22719522,"2023-10-18T18:10:34",3,"NO ERROR",14.11,93.8,999.09,0.38,0.51,0.6],
    [3368,363171,"Vazduh","Libelium","0004A30B0021DF70",44.979,16.7091,"","","Prijedor","",22719906,"2023-10-18T19:11:16",3,"NO ERROR",13.76,100,998.78,0.74,0.96,0.98],
    [3369,363171,"Vazduh","Libelium","0004A30B0021DF70",44.979,16.7091,"","","Prijedor","",22720319,"2023-10-18T20:11:59",3,"NO ERROR",13.1,100,998.55,1.38,1.78,2.34],
    [3370,363171,"Vazduh","Libelium","0004A30B0021DF70",44.979,16.7091,"","","Prijedor","",22720860,"2023-10-18T21:12:41",3,"NO ERROR",12.61,100,998.34,2.08,2.24,2.24],
    [3371,363171,"Vazduh","Libelium","0004A30B0021DF70",44.979,16.7091,"","","Prijedor","",22721323,"2023-10-18T22:13:23",3,"NO ERROR",12.72,100,997.71,1.36,1.6,1.6],
    [3372,363171,"Vazduh","Libelium","0004A30B0021DF70",44.979,16.7091,"","","Prijedor","",22721795,"2023-10-18T23:14:05",3,"NO ERROR",12.4,100,997.21,2.13,2.51,2.55],
    [3373,363171,"Vazduh","Libelium","0004A30B0021DF70",44.979,16.7091,"","","Prijedor","",22722530,"2023-10-19T00:14:47",3,"NO ERROR",12.03,100,996.38,1.68,2.05,2.07],
    [3374,363171,"Vazduh","Libelium","0004A30B0021DF70",44.979,16.7091,"","","Prijedor","",22723122,"2023-10-19T01:15:41",3,"NO ERROR",11.55,100,995.87,1.22,1.64,1.83],
    [3375,363171,"Vazduh","Libelium","0004A30B0021DF70",44.979,16.7091,"","","Prijedor","",22723603,"2023-10-19T02:16:22",3,"NO ERROR",11.01,100,995.3,1.49,1.76,1.78],
    [3376,363171,"Vazduh","Libelium","0004A30B0021DF70",44.979,16.7091,"","","Prijedor","",22724071,"2023-10-19T03:17:16",3,"NO ERROR",10.75,100,994.82,1.21,1.54,1.57],
    [3377,363171,"Vazduh","Libelium","0004A30B0021DF70",44.979,16.7091,"","","Prijedor","",22724520,"2023-10-19T04:17:58",3,"NO ERROR",9.83,100,994.71,4.25,4.96,4.97],
    [3378,363171,"Vazduh","Libelium","0004A30B0021DF70",44.979,16.7091,"","","Prijedor","",22725058,"2023-10-19T05:18:40",3,"NO ERROR",9.19,100,994.19,4.06,4.6,4.64],
    [3379,363171,"Vazduh","Libelium","0004A30B0021DF70",44.979,16.7091,"","","Prijedor","",22725641,"2023-10-19T06:19:29",3,"NO ERROR",9.31,100,993.36,4.27,4.75,4.76],
    [3380,363171,"Vazduh","Libelium","0004A30B0021DF70",44.979,16.7091,"","","Prijedor","",22726132,"2023-10-19T07:20:11",3,"NO ERROR",8.27,100,992.71,4.35,5.01,5.02],
    [3381,363171,"Vazduh","Libelium","0004A30B0021DF70",44.979,16.7091,"","","Prijedor","",22726585,"2023-10-19T08:20:53",3,"NO ERROR",9.99,100,992.4,1.11,1.31,1.32],
    [3382,363171,"Vazduh","Libelium","0004A30B0021DF70",44.979,16.7091,"","","Prijedor","",22727089,"2023-10-19T09:21:35",3,"NO ERROR",16.65,98.6,991.89,0.9,1.08,1.09],
    [3383,363171,"Vazduh","Libelium","0004A30B0021DF70",44.979,16.7091,"","","Prijedor","",22727571,"2023-10-19T10:22:17",3,"NO ERROR",19.2,91.3,991.51,0.33,0.46,0.49],
    [3384,363171,"Vazduh","Libelium","0004A30B0021DF70",44.979,16.7091,"","","Prijedor","",22728043,"2023-10-19T11:23:32",3,"NO ERROR",19.14,98,991.18,0.25,0.35,0.36],
    [3385,363171,"Vazduh","Libelium","0004A30B0021DF70",44.979,16.7091,"","","Prijedor","",22728041,"2023-10-19T11:23:32",3,"NO ERROR",19.14,98,991.18,0.25,0.35,0.36],
    [3386,363171,"Vazduh","Libelium","0004A30B0021DF70",44.979,16.7091,"","","Prijedor","",22728028,"2023-10-19T11:22:59",3,"NO ERROR",19.14,98,991.18,0.25,0.35,0.36],
    [3387,363171,"Vazduh","Libelium","0004A30B0021DF70",44.979,16.7091,"","","Prijedor","",22728595,"2023-10-19T12:23:41",3,"NO ERROR",23.5,73.2,990.15,0.45,0.55,0.55],
    [3388,363171,"Vazduh","Libelium","0004A30B0021DF70",44.979,16.7091,"","","Prijedor","",22729202,"2023-10-19T13:24:29",3,"NO ERROR",24.3,70.9,989.39,0.49,0.75,0.78],
    [3389,363171,"Vazduh","Libelium","0004A30B0021DF70",44.979,16.7091,"","","Prijedor","",22729727,"2023-10-19T14:25:11",3,"NO ERROR",25.59,57.8,988.84,0.76,1.27,1.42],
    [3390,363171,"Vazduh","Libelium","0004A30B0021DF70",44.979,16.7091,"","","Prijedor","",22730285,"2023-10-19T15:25:53",3,"NO ERROR",24.77,60,988.54,1.15,1.51,1.65],
    [3391,363171,"Vazduh","Libelium","0004A30B0021DF70",44.979,16.7091,"","","Prijedor","",22730775,"2023-10-19T16:26:35",3,"NO ERROR",23.59,66.1,988.35,0.84,1.3,1.58],
    [3392,363171,"Vazduh","Libelium","0004A30B0021DF70",44.979,16.7091,"","","Prijedor","",22731314,"2023-10-19T17:27:16",3,"NO ERROR",22.04,73.3,988.1,1.07,1.5,1.63],
    [3393,363171,"Vazduh","Libelium","0004A30B0021DF70",44.979,16.7091,"","","Prijedor","",22731849,"2023-10-19T18:27:58",3,"NO ERROR",20.17,85.1,987.86,1.14,1.41,1.42],
    [3394,363171,"Vazduh","Libelium","0004A30B0021DF70",44.979,16.7091,"","","Prijedor","",22732281,"2023-10-19T19:28:39",3,"NO ERROR",19.46,91.4,987.2,1.27,2.04,2.72],
    [3395,363171,"Vazduh","Libelium","0004A30B0021DF70",44.979,16.7091,"","","Prijedor","",22732772,"2023-10-19T20:29:22",3,"NO ERROR",20.15,87.5,986.84,0.81,1.3,1.64],
    [3396,363171,"Vazduh","Libelium","0004A30B0021DF70",44.979,16.7091,"","","Prijedor","",22733424,"2023-10-19T21:30:04",3,"NO ERROR",20.49,88.5,986.64,0.72,1.06,1.18],
    [3397,363171,"Vazduh","Libelium","0004A30B0021DF70",44.979,16.7091,"","","Prijedor","",22733907,"2023-10-19T22:30:45",3,"NO ERROR",19.87,91.3,986.25,1.31,1.77,1.78],
    [3398,363171,"Vazduh","Libelium","0004A30B0021DF70",44.979,16.7091,"","","Prijedor","",22734443,"2023-10-19T23:31:32",3,"NO ERROR",18.24,100,985.85,1.1,1.56,1.71],
    [3399,363171,"Vazduh","Libelium","0004A30B0021DF70",44.979,16.7091,"","","Prijedor","",22735260,"2023-10-20T00:32:14",3,"NO ERROR",20.5,90.8,985.25,1.49,2.18,2.22],
    [3400,363171,"Vazduh","Libelium","0004A30B0021DF70",44.979,16.7091,"","","Prijedor","",22735843,"2023-10-20T01:32:56",3,"NO ERROR",21.19,85.5,984.78,1.58,2.34,2.91],
    [3401,363171,"Vazduh","Libelium","0004A30B0021DF70",44.979,16.7091,"","","Prijedor","",22736379,"2023-10-20T02:33:38",3,"NO ERROR",19.19,99.3,984.93,1.43,2.08,2.12],
    [3402,363171,"Vazduh","Libelium","0004A30B0021DF70",44.979,16.7091,"","","Prijedor","",22736924,"2023-10-20T03:34:20",3,"NO ERROR",19.56,95.7,984.4,1.09,1.57,1.59],
    [3403,363171,"Vazduh","Libelium","0004A30B0021DF70",44.979,16.7091,"","","Prijedor","",22737439,"2023-10-20T04:35:02",3,"NO ERROR",18.12,100,984.03,1.31,2.14,2.24],
    [3404,363171,"Vazduh","Libelium","0004A30B0021DF70",44.979,16.7091,"","","Prijedor","",22738041,"2023-10-20T05:35:44",3,"NO ERROR",17.09,100,984.49,1.19,1.88,2.03],
    [3405,363171,"Vazduh","Libelium","0004A30B0021DF70",44.979,16.7091,"","","Prijedor","",22738622,"2023-10-20T06:36:26",3,"NO ERROR",19.62,90,984,0.88,1.3,1.34],
    [3406,363171,"Vazduh","Libelium","0004A30B0021DF70",44.979,16.7091,"","","Prijedor","",22739169,"2023-10-20T07:37:07",3,"NO ERROR",18.5,95.4,983.66,1.45,2.23,2.8],
    [3407,363171,"Vazduh","Libelium","0004A30B0021DF70",44.979,16.7091,"","","Prijedor","",22739711,"2023-10-20T08:37:49",3,"NO ERROR",21.51,78.3,983.63,1.46,2.22,9.44],
    [3408,363171,"Vazduh","Libelium","0004A30B0021DF70",44.979,16.7091,"","","Prijedor","",22740255,"2023-10-20T09:38:31",3,"NO ERROR",25.99,62.6,983.09,1.63,2.26,2.79],
    [3409,363171,"Vazduh","Libelium","0004A30B0021DF70",44.979,16.7091,"","","Prijedor","",22740878,"2023-10-20T10:39:13",3,"NO ERROR",27.61,56.3,982.48,1.55,2.26,2.51],
    [3410,363171,"Vazduh","Libelium","0004A30B0021DF70",44.979,16.7091,"","","Prijedor","",22741386,"2023-10-20T11:39:55",3,"NO ERROR",27.69,55,982.29,1.43,1.88,2.02],
    [3411,363171,"Vazduh","Libelium","0004A30B0021DF70",44.979,16.7091,"","","Prijedor","",22741980,"2023-10-20T12:40:37",3,"NO ERROR",29.99,47.9,981.21,2.14,3.19,3.36],
    [3412,363171,"Vazduh","Libelium","0004A30B0021DF70",44.979,16.7091,"","","Prijedor","",22742576,"2023-10-20T13:41:18",3,"NO ERROR",29.49,46.2,980.53,1.82,2.78,6.17],
    [3413,363171,"Vazduh","Libelium","0004A30B0021DF70",44.979,16.7091,"","","Prijedor","",22743179,"2023-10-20T14:42:00",3,"NO ERROR",31.36,43.9,980.03,1.55,2.35,2.81],
    [3414,363171,"Vazduh","Libelium","0004A30B0021DF70",44.979,16.7091,"","","Prijedor","",22743770,"2023-10-20T15:42:42",3,"NO ERROR",31.31,43.2,980.22,1.46,2.37,2.92],
    [3415,363171,"Vazduh","Libelium","0004A30B0021DF70",44.979,16.7091,"","","Prijedor","",22744262,"2023-10-20T16:43:24",3,"NO ERROR",28.33,49.3,980.44,2.22,3.49,3.92],
    [3416,363171,"Vazduh","Libelium","0004A30B0021DF70",44.979,16.7091,"","","Prijedor","",22744819,"2023-10-20T17:44:06",3,"NO ERROR",26.24,54.1,980.26,1.33,1.82,1.84],
    [3417,363171,"Vazduh","Libelium","0004A30B0021DF70",44.979,16.7091,"","","Prijedor","",22745307,"2023-10-20T18:44:48",3,"NO ERROR",26.24,52,979.94,1.92,2.67,2.7],
    [3418,363171,"Vazduh","Libelium","0004A30B0021DF70",44.979,16.7091,"","","Prijedor","",22745748,"2023-10-20T19:45:30",3,"NO ERROR",26.19,52.3,979.96,1.4,1.99,2.1],
    [3419,363171,"Vazduh","Libelium","0004A30B0021DF70",44.979,16.7091,"","","Prijedor","",22746269,"2023-10-20T20:46:11",3,"NO ERROR",26.71,50.8,979.72,1.92,2.77,3.11],
    [3420,363171,"Vazduh","Libelium","0004A30B0021DF70",44.979,16.7091,"","","Prijedor","",22746848,"2023-10-20T21:46:53",3,"NO ERROR",26.37,52.5,980.48,1.77,2.61,3.46],
    [3421,363171,"Vazduh","Libelium","0004A30B0021DF70",44.979,16.7091,"","","Prijedor","",22747377,"2023-10-20T22:47:34",3,"NO ERROR",25.99,52.6,980.86,1.91,2.63,2.78],
    [3422,363171,"Vazduh","Libelium","0004A30B0021DF70",44.979,16.7091,"","","Prijedor","",22747926,"2023-10-20T23:48:16",3,"NO ERROR",26.38,50.4,980.9,1.59,2.01,2.02],
    [3423,363171,"Vazduh","Libelium","0004A30B0021DF70",44.979,16.7091,"","","Prijedor","",22748696,"2023-10-21T00:48:57",3,"NO ERROR",26.4,48.6,981.21,1.63,2.47,2.72],
    [3424,363171,"Vazduh","Libelium","0004A30B0021DF70",44.979,16.7091,"","","Prijedor","",22749309,"2023-10-21T01:49:39",3,"NO ERROR",24.96,53,982.19,2.98,4.49,6.1],
    [3425,363171,"Vazduh","Libelium","0004A30B0021DF70",44.979,16.7091,"","","Prijedor","",22749894,"2023-10-21T02:50:21",3,"NO ERROR",25.23,52,982.42,2.9,4.51,4.83],
    [3426,363171,"Vazduh","Libelium","0004A30B0021DF70",44.979,16.7091,"","","Prijedor","",22750452,"2023-10-21T03:51:03",3,"NO ERROR",26.21,51.2,983.05,2.78,4.48,5.33],
    [3427,363171,"Vazduh","Libelium","0004A30B0021DF70",44.979,16.7091,"","","Prijedor","",22751063,"2023-10-21T04:51:45",3,"NO ERROR",20.16,100,985.24,1.43,1.81,1.82],
    [3428,363171,"Vazduh","Libelium","0004A30B0021DF70",44.979,16.7091,"","","Prijedor","",22751751,"2023-10-21T05:52:27",3,"NO ERROR",18.38,100,985.92,1.47,2.02,2.04],
    [3429,363171,"Vazduh","Libelium","0004A30B0021DF70",44.979,16.7091,"","","Prijedor","",22752342,"2023-10-21T06:53:09",3,"NO ERROR",18.53,100,986.14,1.7,2.49,2.52],
    [3430,363171,"Vazduh","Libelium","0004A30B0021DF70",44.979,16.7091,"","","Prijedor","",22752930,"2023-10-21T07:53:51",3,"NO ERROR",18.58,100,987.57,1.72,2.38,2.4],
    [3431,363171,"Vazduh","Libelium","0004A30B0021DF70",44.979,16.7091,"","","Prijedor","",22753552,"2023-10-21T08:54:33",3,"NO ERROR",18.8,100,988.78,1.18,1.67,1.68],
    [3432,363171,"Vazduh","Libelium","0004A30B0021DF70",44.979,16.7091,"","","Prijedor","",22754076,"2023-10-21T09:55:15",3,"NO ERROR",18.88,100,988.88,1.81,2.46,2.48],
    [3433,363171,"Vazduh","Libelium","0004A30B0021DF70",44.979,16.7091,"","","Prijedor","",22754565,"2023-10-21T10:55:57",3,"NO ERROR",18.84,100,990.02,1.11,1.5,1.51],
    [3434,363171,"Vazduh","Libelium","0004A30B0021DF70",44.979,16.7091,"","","Prijedor","",22755120,"2023-10-21T11:56:39",3,"NO ERROR",18.27,100,990.85,2.06,3.02,7.32],
    [3435,363171,"Vazduh","Libelium","0004A30B0021DF70",44.979,16.7091,"","","Prijedor","",22755679,"2023-10-21T12:57:22",3,"NO ERROR",18.2,100,990.25,1.21,1.66,1.7],
    [3436,363171,"Vazduh","Libelium","0004A30B0021DF70",44.979,16.7091,"","","Prijedor","",22756250,"2023-10-21T13:58:04",3,"NO ERROR",19.75,100,989.56,0.76,1.04,1.04],
    [3437,363171,"Vazduh","Libelium","0004A30B0021DF70",44.979,16.7091,"","","Prijedor","",22756831,"2023-10-21T14:58:46",3,"NO ERROR",19.28,100,989.57,1.22,1.6,1.61],
    [3438,363171,"Vazduh","Libelium","0004A30B0021DF70",44.979,16.7091,"","","Prijedor","",22757366,"2023-10-21T15:59:28",3,"NO ERROR",18.35,100,989.34,1.92,2.87,3.52],
    [3439,363171,"Vazduh","Libelium","0004A30B0021DF70",44.979,16.7091,"","","Prijedor","",22757892,"2023-10-21T17:00:10",3,"NO ERROR",18.05,100,989.13,2.01,2.56,2.57],
    [3440,363171,"Vazduh","Libelium","0004A30B0021DF70",44.979,16.7091,"","","Prijedor","",22758414,"2023-10-21T18:00:52",3,"NO ERROR",18.07,100,989.99,1.36,1.96,2.01],
    [3441,363171,"Vazduh","Libelium","0004A30B0021DF70",44.979,16.7091,"","","Prijedor","",22758883,"2023-10-21T19:01:34",3,"NO ERROR",17.82,100,989.86,0.59,0.82,0.82],
    [3442,363171,"Vazduh","Libelium","0004A30B0021DF70",44.979,16.7091,"","","Prijedor","",22759317,"2023-10-21T20:02:16",3,"NO ERROR",17.74,100,989.91,0.29,0.44,0.51],
    [3443,363171,"Vazduh","Libelium","0004A30B0021DF70",44.979,16.7091,"","","Prijedor","",22759910,"2023-10-21T21:02:58",3,"NO ERROR",17.46,100,989.57,1,1.33,1.34],
    [3444,363171,"Vazduh","Libelium","0004A30B0021DF70",44.979,16.7091,"","","Prijedor","",22760455,"2023-10-21T22:03:39",3,"NO ERROR",17.36,100,989.93,0.61,0.8,0.91],
    [3445,363171,"Vazduh","Libelium","0004A30B0021DF70",44.979,16.7091,"","","Prijedor","",22760973,"2023-10-21T23:04:21",3,"NO ERROR",17.01,100,990.57,0.82,1.06,4.42],
    [3446,363171,"Vazduh","Libelium","0004A30B0021DF70",44.979,16.7091,"","","Prijedor","",22761730,"2023-10-22T00:05:03",3,"NO ERROR",16.12,100,991.55,0.71,1.11,1.65],
    [3447,363171,"Vazduh","Libelium","0004A30B0021DF70",44.979,16.7091,"","","Prijedor","",22762417,"2023-10-22T01:05:44",3,"NO ERROR",15.36,100,991.61,0.65,0.85,0.86],
    [3448,363171,"Vazduh","Libelium","0004A30B0021DF70",44.979,16.7091,"","","Prijedor","",22762912,"2023-10-22T02:06:25",3,"NO ERROR",14.8,100,992.16,0.56,0.81,0.81],
    [3449,363171,"Vazduh","Libelium","0004A30B0021DF70",44.979,16.7091,"","","Prijedor","",22763428,"2023-10-22T03:07:08",3,"NO ERROR",14.2,100,992.41,0.71,0.93,0.94],
    [3450,363171,"Vazduh","Libelium","0004A30B0021DF70",44.979,16.7091,"","","Prijedor","",22763924,"2023-10-22T04:07:50",3,"NO ERROR",13.79,100,992.88,1.08,1.61,1.77],
    [3451,363171,"Vazduh","Libelium","0004A30B0021DF70",44.979,16.7091,"","","Prijedor","",22764478,"2023-10-22T05:08:32",3,"NO ERROR",13.37,100,993.57,0.14,0.19,0.19],
    [3452,363171,"Vazduh","Libelium","0004A30B0021DF70",44.979,16.7091,"","","Prijedor","",22765021,"2023-10-22T06:09:14",3,"NO ERROR",12.83,100,994.22,0.51,0.66,0.67],
    [3453,363171,"Vazduh","Libelium","0004A30B0021DF70",44.979,16.7091,"","","Prijedor","",22765563,"2023-10-22T07:09:56",3,"NO ERROR",12.7,100,994.92,0.66,1.1,1.27],
    [3454,363171,"Vazduh","Libelium","0004A30B0021DF70",44.979,16.7091,"","","Prijedor","",22766066,"2023-10-22T08:10:38",3,"NO ERROR",12.87,100,995.61,0.34,0.49,0.49],
    [3455,363171,"Vazduh","Libelium","0004A30B0021DF70",44.979,16.7091,"","","Prijedor","",22766628,"2023-10-22T09:11:20",3,"NO ERROR",17.01,100,996.21,0.16,0.19,0.19],
    [3456,363171,"Vazduh","Libelium","0004A30B0021DF70",44.979,16.7091,"","","Prijedor","",22767124,"2023-10-22T10:12:02",3,"NO ERROR",18.65,100,996.74,0.21,0.36,0.36],
    [3457,363171,"Vazduh","Libelium","0004A30B0021DF70",44.979,16.7091,"","","Prijedor","",22767594,"2023-10-22T11:12:44",3,"NO ERROR",21.25,93.9,997.36,0.29,0.35,0.35],
    [3458,363171,"Vazduh","Libelium","0004A30B0021DF70",44.979,16.7091,"","","Prijedor","",22768186,"2023-10-22T12:13:26",3,"NO ERROR",21.45,91.7,997.63,0.06,0.08,0.08],
    [3459,363171,"Vazduh","Libelium","0004A30B0021DF70",44.979,16.7091,"","","Prijedor","",22768800,"2023-10-22T13:14:08",3,"NO ERROR",21.78,84.1,997.54,0.26,0.34,0.34],
    [3460,363171,"Vazduh","Libelium","0004A30B0021DF70",44.979,16.7091,"","","Prijedor","",22769379,"2023-10-22T14:14:51",3,"NO ERROR",23.25,71.2,997.62,0.11,0.17,0.18],
    [3461,363171,"Vazduh","Libelium","0004A30B0021DF70",44.979,16.7091,"","","Prijedor","",22769975,"2023-10-22T15:15:33",3,"NO ERROR",22.9,70,997.9,0.22,0.26,0.26],
    [3462,363171,"Vazduh","Libelium","0004A30B0021DF70",44.979,16.7091,"","","Prijedor","",22770489,"2023-10-22T16:16:20",3,"NO ERROR",21.54,81,998.26,0.44,0.62,0.62],
    [3463,363171,"Vazduh","Libelium","0004A30B0021DF70",44.979,16.7091,"","","Prijedor","",22771010,"2023-10-22T17:17:01",3,"NO ERROR",19.89,100,998.65,0.36,0.58,0.61],
    [3464,363171,"Vazduh","Libelium","0004A30B0021DF70",44.979,16.7091,"","","Prijedor","",22771602,"2023-10-22T18:17:43",3,"NO ERROR",18.31,100,999.23,0.61,0.77,0.78],
    [3465,363171,"Vazduh","Libelium","0004A30B0021DF70",44.979,16.7091,"","","Prijedor","",22772058,"2023-10-22T19:18:25",3,"NO ERROR",16.87,100,999.77,0.87,1.12,1.15],
    [3466,363171,"Vazduh","Libelium","0004A30B0021DF70",44.979,16.7091,"","","Prijedor","",22772530,"2023-10-22T20:19:07",3,"NO ERROR",15.71,100,1000.13,0.98,1.32,1.36],
    [3467,363171,"Vazduh","Libelium","0004A30B0021DF70",44.979,16.7091,"","","Prijedor","",22773168,"2023-10-22T21:19:49",3,"NO ERROR",15.72,100,1000.59,0.78,1.13,1.28],
    [3468,363171,"Vazduh","Libelium","0004A30B0021DF70",44.979,16.7091,"","","Prijedor","",22773706,"2023-10-22T22:20:31",3,"NO ERROR",15.87,100,1001.06,0.34,0.46,0.47],
    [3469,363171,"Vazduh","Libelium","0004A30B0021DF70",44.979,16.7091,"","","Prijedor","",22774236,"2023-10-22T23:21:13",3,"NO ERROR",15.67,100,1001.1,0.95,1.32,1.5],
    [3470,363171,"Vazduh","Libelium","0004A30B0021DF70",44.979,16.7091,"","","Prijedor","",22774999,"2023-10-23T00:21:55",3,"NO ERROR",14.07,100,1001.33,0.51,0.7,0.72],
    [3471,363171,"Vazduh","Libelium","0004A30B0021DF70",44.979,16.7091,"","","Prijedor","",22775605,"2023-10-23T01:22:37",3,"NO ERROR",14.24,100,1001.49,0.87,1.17,1.19],
    [3472,363171,"Vazduh","Libelium","0004A30B0021DF70",44.979,16.7091,"","","Prijedor","",22776147,"2023-10-23T02:23:19",3,"NO ERROR",13.74,100,1001.78,0.41,0.67,1.18],
    [3473,363171,"Vazduh","Libelium","0004A30B0021DF70",44.979,16.7091,"","","Prijedor","",22776742,"2023-10-23T03:24:00",3,"NO ERROR",12.38,100,1001.75,0.17,0.22,0.22],
    [3474,363171,"Vazduh","Libelium","0004A30B0021DF70",44.979,16.7091,"","","Prijedor","",22777363,"2023-10-23T04:24:42",3,"NO ERROR",11.75,100,1001.87,0.17,0.37,0.75],
    [3475,363171,"Vazduh","Libelium","0004A30B0021DF70",44.979,16.7091,"","","Prijedor","",22778032,"2023-10-23T05:25:23",3,"NO ERROR",11.73,100,1002,7.34,13.59,293.17],
    [3476,363171,"Vazduh","Libelium","0004A30B0021DF70",44.979,16.7091,"","","Prijedor","",22778636,"2023-10-23T06:26:04",3,"NO ERROR",11.99,100,1002.33,3.39,7.82,263.9],
    [3477,363171,"Vazduh","Libelium","0004A30B0021DF70",44.979,16.7091,"","","Prijedor","",22779224,"2023-10-23T07:26:46",3,"NO ERROR",12.08,100,1002.33,4.06,7.17,146.74],
    [3478,363171,"Vazduh","Libelium","0004A30B0021DF70",44.979,16.7091,"","","Prijedor","",22779761,"2023-10-23T08:27:28",3,"NO ERROR",12.36,100,1002.77,1.96,5.99,120.62],
    [3479,363171,"Vazduh","Libelium","0004A30B0021DF70",44.979,16.7091,"","","Prijedor","",22780339,"2023-10-23T09:28:10",3,"NO ERROR",13.46,100,1002.75,1.02,2.72,58.86],
    [3480,363171,"Vazduh","Libelium","0004A30B0021DF70",44.979,16.7091,"","","Prijedor","",22780946,"2023-10-23T10:28:52",3,"NO ERROR",18.32,100,1002.92,0.54,0.76,0.76],
    [3481,363171,"Vazduh","Libelium","0004A30B0021DF70",44.979,16.7091,"","","Prijedor","",22781438,"2023-10-23T11:29:34",3,"NO ERROR",20.08,100,1002.83,1.01,1.34,1.39],
    [3482,363171,"Vazduh","Libelium","0004A30B0021DF70",44.979,16.7091,"","","Prijedor","",22782006,"2023-10-23T12:30:15",3,"NO ERROR",19.54,100,1002.6,0.45,0.58,0.59],
    [3483,363171,"Vazduh","Libelium","0004A30B0021DF70",44.979,16.7091,"","","Prijedor","",22782639,"2023-10-23T13:30:57",3,"NO ERROR",22.03,86,1002.13,0.24,0.26,0.26],
    [3484,363171,"Vazduh","Libelium","0004A30B0021DF70",44.979,16.7091,"","","Prijedor","",22783177,"2023-10-23T14:31:39",3,"NO ERROR",20.11,100,1002.14,0.12,0.2,0.27],
    [3485,363171,"Vazduh","Libelium","0004A30B0021DF70",44.979,16.7091,"","","Prijedor","",22783732,"2023-10-23T15:32:21",3,"NO ERROR",24.28,78.5,1001.54,0.22,0.31,0.31],
    [3486,363171,"Vazduh","Libelium","0004A30B0021DF70",44.979,16.7091,"","","Prijedor","",22784239,"2023-10-23T16:33:03",3,"NO ERROR",21.54,81.3,1001.3,0.39,0.58,0.6],
    [3487,363171,"Vazduh","Libelium","0004A30B0021DF70",44.979,16.7091,"","","Prijedor","",22784786,"2023-10-23T17:33:45",3,"NO ERROR",19.57,97.5,1001.07,0.58,0.82,0.84],
    [3488,363171,"Vazduh","Libelium","0004A30B0021DF70",44.979,16.7091,"","","Prijedor","",22785290,"2023-10-23T18:34:27",3,"NO ERROR",17.78,100,1001.27,1.21,1.66,1.79],
    [3489,363171,"Vazduh","Libelium","0004A30B0021DF70",44.979,16.7091,"","","Prijedor","",22785744,"2023-10-23T19:35:09",3,"NO ERROR",16.44,100,1001.26,1.06,1.39,1.41],
    [3490,363171,"Vazduh","Libelium","0004A30B0021DF70",44.979,16.7091,"","","Prijedor","",22786261,"2023-10-23T20:35:51",3,"NO ERROR",15.2,100,1001.04,0.93,1.21,1.22],
    [3491,363171,"Vazduh","Libelium","0004A30B0021DF70",44.979,16.7091,"","","Prijedor","",22786873,"2023-10-23T21:36:33",3,"NO ERROR",14.16,100,1001.37,0.94,1.23,1.24],
    [3492,363171,"Vazduh","Libelium","0004A30B0021DF70",44.979,16.7091,"","","Prijedor","",22787427,"2023-10-23T22:37:15",3,"NO ERROR",13.75,100,1001.4,0.89,1.1,1.1],
    [3493,363171,"Vazduh","Libelium","0004A30B0021DF70",44.979,16.7091,"","","Prijedor","",22788001,"2023-10-23T23:37:57",3,"NO ERROR",13.47,100,1001,1.27,1.62,1.65],
    [3494,363171,"Vazduh","Libelium","0004A30B0021DF70",44.979,16.7091,"","","Prijedor","",22788855,"2023-10-24T00:38:38",3,"NO ERROR",13.3,100,1000.47,1.63,2.08,2.24],
    [3495,363171,"Vazduh","Libelium","0004A30B0021DF70",44.979,16.7091,"","","Prijedor","",22789499,"2023-10-24T01:39:19",3,"NO ERROR",12.69,100,1000.16,0.58,0.65,0.65],
    [3496,363171,"Vazduh","Libelium","0004A30B0021DF70",44.979,16.7091,"","","Prijedor","",22790073,"2023-10-24T02:40:07",3,"NO ERROR",12.33,100,1000.54,0.49,0.67,0.67],
    [3497,363171,"Vazduh","Libelium","0004A30B0021DF70",44.979,16.7091,"","","Prijedor","",22790612,"2023-10-24T03:40:48",3,"NO ERROR",11.92,100,1000.23,0.46,0.63,0.65],
    [3498,363171,"Vazduh","Libelium","0004A30B0021DF70",44.979,16.7091,"","","Prijedor","",22791179,"2023-10-24T04:41:30",3,"NO ERROR",11.82,100,1000,0.4,0.43,0.43],
    [3499,363171,"Vazduh","Libelium","0004A30B0021DF70",44.979,16.7091,"","","Prijedor","",22791790,"2023-10-24T05:42:12",3,"NO ERROR",11.29,100,999.7,0.41,0.5,0.52],
    [3500,363171,"Vazduh","Libelium","0004A30B0021DF70",44.979,16.7091,"","","Prijedor","",22792374,"2023-10-24T06:42:54",3,"NO ERROR",11.5,100,999.01,0.67,0.94,1.1],
    [3501,363171,"Vazduh","Libelium","0004A30B0021DF70",44.979,16.7091,"","","Prijedor","",22792915,"2023-10-24T07:43:36",3,"NO ERROR",11.32,100,998.79,0.4,0.52,0.57],
    [3502,363171,"Vazduh","Libelium","0004A30B0021DF70",44.979,16.7091,"","","Prijedor","",22793437,"2023-10-24T08:44:17",3,"NO ERROR",12.47,100,998.72,0.44,0.48,0.48],
    [3503,363171,"Vazduh","Libelium","0004A30B0021DF70",44.979,16.7091,"","","Prijedor","",22793949,"2023-10-24T09:44:59",3,"NO ERROR",15.34,100,998.06,0.37,0.51,0.51],
    [3504,363171,"Vazduh","Libelium","0004A30B0021DF70",44.979,16.7091,"","","Prijedor","",22794444,"2023-10-24T10:45:41",3,"NO ERROR",17.45,100,997.02,0.74,1.02,1.07],
    [3505,363171,"Vazduh","Libelium","0004A30B0021DF70",44.979,16.7091,"","","Prijedor","",22794930,"2023-10-24T11:46:23",3,"NO ERROR",18.2,100,996.44,1.18,1.56,1.57],
    [3506,363171,"Vazduh","Libelium","0004A30B0021DF70",44.979,16.7091,"","","Prijedor","",22795497,"2023-10-24T12:47:04",3,"NO ERROR",20.34,95.6,995.14,0.94,1.48,1.65],
    [3507,363171,"Vazduh","Libelium","0004A30B0021DF70",44.979,16.7091,"","","Prijedor","",22796075,"2023-10-24T13:47:46",3,"NO ERROR",23.95,77.3,994.06,0.88,1.57,2.12],
    [3508,363171,"Vazduh","Libelium","0004A30B0021DF70",44.979,16.7091,"","","Prijedor","",22796622,"2023-10-24T14:48:28",3,"NO ERROR",25.52,66.9,993.44,1.54,2.42,2.95],
    [3509,363171,"Vazduh","Libelium","0004A30B0021DF70",44.979,16.7091,"","","Prijedor","",22797171,"2023-10-24T15:49:17",3,"NO ERROR",26.37,63.5,992.37,1.49,2.2,2.6],
    [3510,363171,"Vazduh","Libelium","0004A30B0021DF70",44.979,16.7091,"","","Prijedor","",22797705,"2023-10-24T16:49:58",3,"NO ERROR",23.43,75.7,991.42,2.17,3.5,3.91],
    [3511,363171,"Vazduh","Libelium","0004A30B0021DF70",44.979,16.7091,"","","Prijedor","",22798248,"2023-10-24T17:50:41",3,"NO ERROR",20.71,100,990.77,2.16,3.25,5.02],
    [3512,363171,"Vazduh","Libelium","0004A30B0021DF70",44.979,16.7091,"","","Prijedor","",22798724,"2023-10-24T18:51:23",3,"NO ERROR",19.48,100,991.02,2.59,3.79,5.03],
    [3513,363171,"Vazduh","Libelium","0004A30B0021DF70",44.979,16.7091,"","","Prijedor","",22799158,"2023-10-24T19:52:05",3,"NO ERROR",20.38,88.3,989.31,1.7,2.7,3.04],
    [3514,363171,"Vazduh","Libelium","0004A30B0021DF70",44.979,16.7091,"","","Prijedor","",22799705,"2023-10-24T20:52:46",3,"NO ERROR",21.97,61.9,988.91,2.75,4.48,5.28],
    [3515,363171,"Vazduh","Libelium","0004A30B0021DF70",44.979,16.7091,"","","Prijedor","",22800279,"2023-10-24T21:53:27",3,"NO ERROR",22.56,64.5,987.94,1.51,2.29,2.46],
    [3516,363171,"Vazduh","Libelium","0004A30B0021DF70",44.979,16.7091,"","","Prijedor","",22800794,"2023-10-24T22:54:09",3,"NO ERROR",20.99,75.3,988.47,0.66,0.98,1],
    [3517,363171,"Vazduh","Libelium","0004A30B0021DF70",44.979,16.7091,"","","Prijedor","",22801405,"2023-10-24T23:54:50",3,"NO ERROR",20.32,83.8,987.73,0.46,0.63,0.64],
    [3518,363171,"Vazduh","Libelium","0004A30B0021DF70",44.979,16.7091,"","","Prijedor","",22802110,"2023-10-25T00:55:32",3,"NO ERROR",19.6,95.6,988.59,0.11,0.13,0.13],
    [3519,363171,"Vazduh","Libelium","0004A30B0021DF70",44.979,16.7091,"","","Prijedor","",22802622,"2023-10-25T01:56:14",3,"NO ERROR",19.79,67,988.94,0.05,0.06,0.06],
    [3520,363171,"Vazduh","Libelium","0004A30B0021DF70",44.979,16.7091,"","","Prijedor","",22803112,"2023-10-25T02:56:55",3,"NO ERROR",18.58,69.2,989.14,0.05,0.05,0.05],
    [3521,363171,"Vazduh","Libelium","0004A30B0021DF70",44.979,16.7091,"","","Prijedor","",22803585,"2023-10-25T03:57:37",3,"NO ERROR",16.49,82.7,989.52,0.17,0.27,0.3],
    [3522,363171,"Vazduh","Libelium","0004A30B0021DF70",44.979,16.7091,"","","Prijedor","",22804136,"2023-10-25T04:58:18",3,"NO ERROR",15.4,97.8,990.16,0.41,0.56,0.59],
    [3523,363171,"Vazduh","Libelium","0004A30B0021DF70",44.979,16.7091,"","","Prijedor","",22804698,"2023-10-25T05:59:00",3,"NO ERROR",13.75,100,990.53,0.15,0.24,0.24],
    [3524,363171,"Vazduh","Libelium","0004A30B0021DF70",44.979,16.7091,"","","Prijedor","",22805227,"2023-10-25T06:59:42",3,"NO ERROR",14.53,100,991.14,0.48,0.97,1.19],
    [3525,363171,"Vazduh","Libelium","0004A30B0021DF70",44.979,16.7091,"","","Prijedor","",22805748,"2023-10-25T08:00:24",3,"NO ERROR",14.27,100,991.69,0.87,1.23,1.29],
    [3526,363171,"Vazduh","Libelium","0004A30B0021DF70",44.979,16.7091,"","","Prijedor","",22806321,"2023-10-25T09:01:06",3,"NO ERROR",21.81,70.8,992.14,1.19,1.39,1.4],
    [3527,363171,"Vazduh","Libelium","0004A30B0021DF70",44.979,16.7091,"","","Prijedor","",22806821,"2023-10-25T10:01:54",3,"NO ERROR",22.8,58.6,992.55,0.43,0.69,0.71],
    [3528,363171,"Vazduh","Libelium","0004A30B0021DF70",44.979,16.7091,"","","Prijedor","",22807306,"2023-10-25T11:02:35",3,"NO ERROR",22.58,56.8,992.4,0.41,0.54,0.54],
    [3529,363171,"Vazduh","Libelium","0004A30B0021DF70",44.979,16.7091,"","","Prijedor","",22807832,"2023-10-25T12:03:17",3,"NO ERROR",24.03,53.2,991.97,0.4,0.54,0.55],
    [3530,363171,"Vazduh","Libelium","0004A30B0021DF70",44.979,16.7091,"","","Prijedor","",22808429,"2023-10-25T13:03:59",3,"NO ERROR",23.01,59.1,991.21,0.43,0.58,0.58],
    [3531,363171,"Vazduh","Libelium","0004A30B0021DF70",44.979,16.7091,"","","Prijedor","",22808984,"2023-10-25T14:04:41",3,"NO ERROR",21.9,75.7,990.35,0.75,1.2,1.22],
    [3532,363171,"Vazduh","Libelium","0004A30B0021DF70",44.979,16.7091,"","","Prijedor","",22809567,"2023-10-25T15:05:22",3,"NO ERROR",26.88,54.2,989.83,0.41,0.6,0.62],
    [3533,363171,"Vazduh","Libelium","0004A30B0021DF70",44.979,16.7091,"","","Prijedor","",22810064,"2023-10-25T16:06:04",3,"NO ERROR",22,70.2,989.32,0.54,0.81,0.93],
    [3534,363171,"Vazduh","Libelium","0004A30B0021DF70",44.979,16.7091,"","","Prijedor","",22810581,"2023-10-25T17:06:45",3,"NO ERROR",20.8,75.8,989.32,0.53,0.69,0.69],
    [3535,363171,"Vazduh","Libelium","0004A30B0021DF70",44.979,16.7091,"","","Prijedor","",22811114,"2023-10-25T18:07:27",3,"NO ERROR",19.71,81.8,989.06,0.41,0.57,0.59],
    [3536,363171,"Vazduh","Libelium","0004A30B0021DF70",44.979,16.7091,"","","Prijedor","",22811569,"2023-10-25T19:08:15",3,"NO ERROR",18.67,85.2,989.44,0.36,0.51,0.53],
    [3537,363171,"Vazduh","Libelium","0004A30B0021DF70",44.979,16.7091,"","","Prijedor","",22812080,"2023-10-25T20:08:56",3,"NO ERROR",17.36,95.4,989.35,0.5,0.69,0.7],
    [3538,363171,"Vazduh","Libelium","0004A30B0021DF70",44.979,16.7091,"","","Prijedor","",22812670,"2023-10-25T21:09:39",3,"NO ERROR",16.79,100,989.27,2.04,2.62,2.67],
    [3539,363171,"Vazduh","Libelium","0004A30B0021DF70",44.979,16.7091,"","","Prijedor","",22813235,"2023-10-25T22:10:20",3,"NO ERROR",17.07,99.8,989.17,0.45,0.55,0.56],
    [3540,363171,"Vazduh","Libelium","0004A30B0021DF70",44.979,16.7091,"","","Prijedor","",22813759,"2023-10-25T23:11:01",3,"NO ERROR",16.9,100,988.89,0.19,0.28,0.29],
    [3541,363171,"Vazduh","Libelium","0004A30B0021DF70",44.979,16.7091,"","","Prijedor","",22814473,"2023-10-26T00:11:42",3,"NO ERROR",16.04,100,988.39,0.38,0.54,0.57],
    [3542,363171,"Vazduh","Libelium","0004A30B0021DF70",44.979,16.7091,"","","Prijedor","",22815054,"2023-10-26T01:12:24",3,"NO ERROR",16.43,100,988.23,0.4,0.66,0.8],
    [3543,363171,"Vazduh","Libelium","0004A30B0021DF70",44.979,16.7091,"","","Prijedor","",22815584,"2023-10-26T02:13:06",3,"NO ERROR",15.48,100,987.55,0.54,0.69,0.71],
    [3544,363171,"Vazduh","Libelium","0004A30B0021DF70",44.979,16.7091,"","","Prijedor","",22816119,"2023-10-26T03:13:47",3,"NO ERROR",15.29,100,987.42,0.09,0.12,0.13],
    [3545,363171,"Vazduh","Libelium","0004A30B0021DF70",44.979,16.7091,"","","Prijedor","",22816663,"2023-10-26T04:14:28",3,"NO ERROR",14.26,100,987.12,0.49,0.64,0.66],
    [3546,363171,"Vazduh","Libelium","0004A30B0021DF70",44.979,16.7091,"","","Prijedor","",22817305,"2023-10-26T05:15:09",3,"NO ERROR",14.03,100,987.1,0.22,0.34,0.35],
    [3547,363171,"Vazduh","Libelium","0004A30B0021DF70",44.979,16.7091,"","","Prijedor","",22817898,"2023-10-26T06:15:51",3,"NO ERROR",14.67,100,987.03,0.27,0.48,0.51],
    [3548,363171,"Vazduh","Libelium","0004A30B0021DF70",44.979,16.7091,"","","Prijedor","",22818432,"2023-10-26T07:16:32",3,"NO ERROR",15.23,100,986.86,0.28,0.46,0.48],
    [3549,363171,"Vazduh","Libelium","0004A30B0021DF70",44.979,16.7091,"","","Prijedor","",22818934,"2023-10-26T08:17:14",3,"NO ERROR",15.24,100,987.23,1.18,1.49,1.54],
    [3550,363171,"Vazduh","Libelium","0004A30B0021DF70",44.979,16.7091,"","","Prijedor","",22819486,"2023-10-26T09:17:56",3,"NO ERROR",22.65,73.1,987.37,0.12,0.14,0.14],
    [3551,363171,"Vazduh","Libelium","0004A30B0021DF70",44.979,16.7091,"","","Prijedor","",22819974,"2023-10-26T10:18:38",3,"NO ERROR",22.12,73.5,987.48,0.46,0.59,0.59],
    [3552,363171,"Vazduh","Libelium","0004A30B0021DF70",44.979,16.7091,"","","Prijedor","",22820448,"2023-10-26T11:19:20",3,"NO ERROR",23.41,65.3,987.16,0.14,0.26,0.27],
    [3553,363171,"Vazduh","Libelium","0004A30B0021DF70",44.979,16.7091,"","","Prijedor","",22821089,"2023-10-26T12:20:02",3,"NO ERROR",24.41,59.2,986.96,0.07,0.12,0.13],
    [3554,363171,"Vazduh","Libelium","0004A30B0021DF70",44.979,16.7091,"","","Prijedor","",22821724,"2023-10-26T13:20:44",3,"NO ERROR",23.99,58.4,986.99,0.06,0.07,0.07],
    [3555,363171,"Vazduh","Libelium","0004A30B0021DF70",44.979,16.7091,"","","Prijedor","",22822261,"2023-10-26T14:21:26",3,"NO ERROR",24.3,58.6,986.82,0.05,0.1,0.11],
    [3556,363171,"Vazduh","Libelium","0004A30B0021DF70",44.979,16.7091,"","","Prijedor","",22822882,"2023-10-26T15:22:07",3,"NO ERROR",25.24,55.7,986.89,0.14,0.2,0.2],
    [3557,363171,"Vazduh","Libelium","0004A30B0021DF70",44.979,16.7091,"","","Prijedor","",22823414,"2023-10-26T16:22:49",3,"NO ERROR",23.72,56.9,986.67,0.26,0.32,0.32],
    [3558,363171,"Vazduh","Libelium","0004A30B0021DF70",44.979,16.7091,"","","Prijedor","",22823994,"2023-10-26T17:23:31",3,"NO ERROR",21.17,65.9,986.8,0.21,0.32,0.33],
    [3559,363171,"Vazduh","Libelium","0004A30B0021DF70",44.979,16.7091,"","","Prijedor","",22824508,"2023-10-26T18:24:13",3,"NO ERROR",20.03,70.8,986.99,0.15,0.27,0.34],
    [3560,363171,"Vazduh","Libelium","0004A30B0021DF70",44.979,16.7091,"","","Prijedor","",22824966,"2023-10-26T19:24:55",3,"NO ERROR",19.72,73.2,987.47,0.55,0.78,0.78],
    [3561,363171,"Vazduh","Libelium","0004A30B0021DF70",44.979,16.7091,"","","Prijedor","",22825462,"2023-10-26T20:25:37",3,"NO ERROR",19.63,73.5,987.42,0.52,0.78,0.81],
    [3562,363171,"Vazduh","Libelium","0004A30B0021DF70",44.979,16.7091,"","","Prijedor","",22826122,"2023-10-26T21:26:26",3,"NO ERROR",19.2,77.4,986.76,0.46,0.59,0.61],
    [3563,363171,"Vazduh","Libelium","0004A30B0021DF70",44.979,16.7091,"","","Prijedor","",22826654,"2023-10-26T22:27:07",3,"NO ERROR",18.8,80.4,986.5,0.25,0.37,0.39],
    [3564,363171,"Vazduh","Libelium","0004A30B0021DF70",44.979,16.7091,"","","Prijedor","",22827219,"2023-10-26T23:27:49",3,"NO ERROR",18.65,81.9,985.79,0.17,0.19,0.19],
    [3565,363171,"Vazduh","Libelium","0004A30B0021DF70",44.979,16.7091,"","","Prijedor","",22827960,"2023-10-27T00:28:31",3,"NO ERROR",18.87,74.5,984.93,0.05,0.12,0.14],
    [3566,363171,"Vazduh","Libelium","0004A30B0021DF70",44.979,16.7091,"","","Prijedor","",22828513,"2023-10-27T01:29:13",3,"NO ERROR",18.27,86.7,984.27,0.23,0.31,0.32],
    [3567,363171,"Vazduh","Libelium","0004A30B0021DF70",44.979,16.7091,"","","Prijedor","",22829040,"2023-10-27T02:29:55",3,"NO ERROR",17.8,96.1,983.48,0.16,0.39,0.43],
    [3568,363171,"Vazduh","Libelium","0004A30B0021DF70",44.979,16.7091,"","","Prijedor","",22829534,"2023-10-27T03:30:37",3,"NO ERROR",18.21,90.9,982.34,0.09,0.12,0.12],
    [3569,363171,"Vazduh","Libelium","0004A30B0021DF70",44.979,16.7091,"","","Prijedor","",22830070,"2023-10-27T04:31:19",3,"NO ERROR",19.24,82.1,981.13,0.12,0.16,0.16],
    [3570,363171,"Vazduh","Libelium","0004A30B0021DF70",44.979,16.7091,"","","Prijedor","",22830692,"2023-10-27T05:32:01",3,"NO ERROR",20.17,77.5,980.17,0.17,0.25,0.25],
    [3571,363171,"Vazduh","Libelium","0004A30B0021DF70",44.979,16.7091,"","","Prijedor","",22831251,"2023-10-27T06:32:43",3,"NO ERROR",20.43,77.1,979.17,0.14,0.15,0.15],
    [3572,363171,"Vazduh","Libelium","0004A30B0021DF70",44.979,16.7091,"","","Prijedor","",22831785,"2023-10-27T07:33:25",3,"NO ERROR",21.07,75.4,978.56,0.43,0.86,0.92],
    [3573,363171,"Vazduh","Libelium","0004A30B0021DF70",44.979,16.7091,"","","Prijedor","",22832309,"2023-10-27T08:34:07",3,"NO ERROR",21.18,75.2,978.41,0.41,0.88,3.01],
    [3574,363171,"Vazduh","Libelium","0004A30B0021DF70",44.979,16.7091,"","","Prijedor","",22832856,"2023-10-27T09:34:49",3,"NO ERROR",21.85,72.2,977.56,0.48,0.6,0.6],
    [3575,363171,"Vazduh","Libelium","0004A30B0021DF70",44.979,16.7091,"","","Prijedor","",22833374,"2023-10-27T10:35:30",3,"NO ERROR",24.36,63.4,977.67,0.58,0.78,2.14],
    [3576,363171,"Vazduh","Libelium","0004A30B0021DF70",44.979,16.7091,"","","Prijedor","",22833874,"2023-10-27T11:36:11",3,"NO ERROR",22.15,85.9,978,0.42,0.6,1.01],
    [3577,363171,"Vazduh","Libelium","0004A30B0021DF70",44.979,16.7091,"","","Prijedor","",22834448,"2023-10-27T12:36:53",3,"NO ERROR",18.55,100,978.78,0.44,0.64,0.65],
    [3578,363171,"Vazduh","Libelium","0004A30B0021DF70",44.979,16.7091,"","","Prijedor","",22835051,"2023-10-27T13:37:36",3,"NO ERROR",20.72,100,979.34,0.15,0.16,0.16],
    [3579,363171,"Vazduh","Libelium","0004A30B0021DF70",44.979,16.7091,"","","Prijedor","",22835598,"2023-10-27T14:38:18",3,"NO ERROR",24.39,80.7,979.92,0.14,0.17,0.17],
    [3580,363171,"Vazduh","Libelium","0004A30B0021DF70",44.979,16.7091,"","","Prijedor","",22836201,"2023-10-27T15:39:00",3,"NO ERROR",24.61,63.7,980.79,0.41,0.62,0.71],
    [3581,363171,"Vazduh","Libelium","0004A30B0021DF70",44.979,16.7091,"","","Prijedor","",22836737,"2023-10-27T16:39:42",3,"NO ERROR",20.56,88.6,981.92,0.21,0.25,0.25],
    [3582,363171,"Vazduh","Libelium","0004A30B0021DF70",44.979,16.7091,"","","Prijedor","",22837286,"2023-10-27T17:40:23",3,"NO ERROR",18.13,89.8,983.23,0,0,0],
    [3583,363171,"Vazduh","Libelium","0004A30B0021DF70",44.979,16.7091,"","","Prijedor","",22837808,"2023-10-27T18:41:04",3,"NO ERROR",16.68,100,984.47,0.24,0.37,0.37],
    [3584,363171,"Vazduh","Libelium","0004A30B0021DF70",44.979,16.7091,"","","Prijedor","",22838278,"2023-10-27T19:41:52",3,"NO ERROR",15.31,100,985.36,0.25,0.36,0.42],
    [3585,363171,"Vazduh","Libelium","0004A30B0021DF70",44.979,16.7091,"","","Prijedor","",22838770,"2023-10-27T20:42:33",3,"NO ERROR",15.05,100,985.98,0.16,0.23,0.37],
    [3586,363171,"Vazduh","Libelium","0004A30B0021DF70",44.979,16.7091,"","","Prijedor","",22839319,"2023-10-27T21:43:15",3,"NO ERROR",14.05,100,987.01,0.36,0.52,0.55],
    [3587,363171,"Vazduh","Libelium","0004A30B0021DF70",44.979,16.7091,"","","Prijedor","",22839799,"2023-10-27T22:43:56",3,"NO ERROR",13.55,100,987.24,0.48,0.76,0.8],
    [3588,363171,"Vazduh","Libelium","0004A30B0021DF70",44.979,16.7091,"","","Prijedor","",22840315,"2023-10-27T23:44:44",3,"NO ERROR",13.08,100,987.87,0.53,0.7,0.71],
    [3589,363171,"Vazduh","Libelium","0004A30B0021DF70",44.979,16.7091,"","","Prijedor","",22841046,"2023-10-28T00:45:25",3,"NO ERROR",12.75,100,988.42,0.44,0.55,0.56],
    [3590,363171,"Vazduh","Libelium","0004A30B0021DF70",44.979,16.7091,"","","Prijedor","",22841553,"2023-10-28T01:46:14",3,"NO ERROR",11.68,100,988.77,0.86,1.3,1.47],
    [3591,363171,"Vazduh","Libelium","0004A30B0021DF70",44.979,16.7091,"","","Prijedor","",22842030,"2023-10-28T02:46:55",3,"NO ERROR",10.43,100,988.97,0.17,0.27,0.27],
    [3592,363171,"Vazduh","Libelium","0004A30B0021DF70",44.979,16.7091,"","","Prijedor","",22842496,"2023-10-28T03:47:37",3,"NO ERROR",9.84,100,989.38,0.84,1.13,1.14],
    [3593,363171,"Vazduh","Libelium","0004A30B0021DF70",44.979,16.7091,"","","Prijedor","",22842974,"2023-10-28T04:48:19",3,"NO ERROR",10.11,100,989.61,0.95,1.31,1.35],
    [3594,363171,"Vazduh","Libelium","0004A30B0021DF70",44.979,16.7091,"","","Prijedor","",22843545,"2023-10-28T05:49:06",3,"NO ERROR",8.99,100,989.89,0.86,1.13,1.15],
    [3595,363171,"Vazduh","Libelium","0004A30B0021DF70",44.979,16.7091,"","","Prijedor","",22844022,"2023-10-28T06:49:48",3,"NO ERROR",8.98,100,990.02,1.41,1.83,1.84],
    [3596,363171,"Vazduh","Libelium","0004A30B0021DF70",44.979,16.7091,"","","Prijedor","",22844503,"2023-10-28T07:50:30",3,"NO ERROR",9.71,100,990.77,2.25,2.75,2.78],
    [3597,363171,"Vazduh","Libelium","0004A30B0021DF70",44.979,16.7091,"","","Prijedor","",22845011,"2023-10-28T08:51:12",3,"NO ERROR",9.67,100,991.61,2.72,4.31,39.56],
    [3598,363171,"Vazduh","Libelium","0004A30B0021DF70",44.979,16.7091,"","","Prijedor","",22845493,"2023-10-28T09:51:54",3,"NO ERROR",12.11,100,992.24,1.4,1.76,1.87],
    [3599,363171,"Vazduh","Libelium","0004A30B0021DF70",44.979,16.7091,"","","Prijedor","",22845925,"2023-10-28T10:52:36",3,"NO ERROR",14.24,100,992.92,0.99,1.32,1.35],
    [3600,363171,"Vazduh","Libelium","0004A30B0021DF70",44.979,16.7091,"","","Prijedor","",22846435,"2023-10-28T11:53:18",3,"NO ERROR",16.46,100,992.84,0.7,0.84,0.86],
    [3601,363171,"Vazduh","Libelium","0004A30B0021DF70",44.979,16.7091,"","","Prijedor","",22846979,"2023-10-28T12:54:01",3,"NO ERROR",19.99,81.3,992.66,0.66,1.08,1.39],
    [3602,363171,"Vazduh","Libelium","0004A30B0021DF70",44.979,16.7091,"","","Prijedor","",22847591,"2023-10-28T13:54:43",3,"NO ERROR",22.64,63.8,992.44,0.38,0.67,0.82],
    [3603,363171,"Vazduh","Libelium","0004A30B0021DF70",44.979,16.7091,"","","Prijedor","",22848171,"2023-10-28T14:55:25",3,"NO ERROR",26.16,52.6,992.53,0.74,0.94,0.94],
    [3604,363171,"Vazduh","Libelium","0004A30B0021DF70",44.979,16.7091,"","","Prijedor","",22848740,"2023-10-28T15:56:13",3,"NO ERROR",24.72,51.8,992.66,0.2,0.3,0.38],
    [3605,363171,"Vazduh","Libelium","0004A30B0021DF70",44.979,16.7091,"","","Prijedor","",22849309,"2023-10-28T16:56:54",3,"NO ERROR",20.9,62.7,992.97,0.52,0.79,1.22],
    [3606,363171,"Vazduh","Libelium","0004A30B0021DF70",44.979,16.7091,"","","Prijedor","",22849892,"2023-10-28T17:57:36",3,"NO ERROR",18.55,60.2,993.71,0.45,0.52,0.52],
    [3607,363171,"Vazduh","Libelium","0004A30B0021DF70",44.979,16.7091,"","","Prijedor","",22850360,"2023-10-28T18:58:18",3,"NO ERROR",16.97,66.9,994.65,0.78,1.22,1.67],
    [3608,363171,"Vazduh","Libelium","0004A30B0021DF70",44.979,16.7091,"","","Prijedor","",22850835,"2023-10-28T19:59:00",3,"NO ERROR",14.48,99,995.21,1.19,1.42,1.44],
    [3609,363171,"Vazduh","Libelium","0004A30B0021DF70",44.979,16.7091,"","","Prijedor","",22851450,"2023-10-28T20:59:42",3,"NO ERROR",14.41,99.3,995.63,1.01,1.31,1.34],
    [3610,363171,"Vazduh","Libelium","0004A30B0021DF70",44.979,16.7091,"","","Prijedor","",22851997,"2023-10-28T22:00:24",3,"NO ERROR",12.85,100,996.8,1.24,1.58,1.6],
    [3611,363171,"Vazduh","Libelium","0004A30B0021DF70",44.979,16.7091,"","","Prijedor","",22852583,"2023-10-28T23:01:12",3,"NO ERROR",11.53,100,997.47,0.46,0.68,0.7],
    [3612,363171,"Vazduh","Libelium","0004A30B0021DF70",44.979,16.7091,"","","Prijedor","",22853346,"2023-10-29T00:02:00",3,"NO ERROR",10.69,100,997.6,1.04,1.44,1.47],
    [3613,363171,"Vazduh","Libelium","0004A30B0021DF70",44.979,16.7091,"","","Prijedor","",22854087,"2023-10-29T01:02:41",3,"NO ERROR",11.26,100,997.5,0.96,1.44,1.47],
    [3614,363171,"Vazduh","Libelium","0004A30B0021DF70",44.979,16.7091,"","","Prijedor","",22855518,"2023-10-29T02:04:05",3,"NO ERROR",9.82,100,997.72,0.56,0.93,1.54],
    [3615,363171,"Vazduh","Libelium","0004A30B0021DF70",44.979,16.7091,"","","Prijedor","",22854674,"2023-10-29T02:03:24",3,"NO ERROR",10.51,100,997.42,1.02,1.43,1.47],
    [3616,363171,"Vazduh","Libelium","0004A30B0021DF70",44.979,16.7091,"","","Prijedor","",22856258,"2023-10-29T03:04:47",3,"NO ERROR",9.1,100,997.94,0.24,0.41,0.51],
    [3617,363171,"Vazduh","Libelium","0004A30B0021DF70",44.979,16.7091,"","","Prijedor","",22857006,"2023-10-29T04:05:28",3,"NO ERROR",9.66,100,998.31,0.71,1.12,2.73],
    [3618,363171,"Vazduh","Libelium","0004A30B0021DF70",44.979,16.7091,"","","Prijedor","",22857720,"2023-10-29T05:06:10",3,"NO ERROR",7.97,100,998.64,0.84,1.07,1.07],
    [3619,363171,"Vazduh","Libelium","0004A30B0021DF70",44.979,16.7091,"","","Prijedor","",22858374,"2023-10-29T06:06:52",3,"NO ERROR",7.82,100,998.45,0.78,1.06,1.06],
    [3620,363171,"Vazduh","Libelium","0004A30B0021DF70",44.979,16.7091,"","","Prijedor","",22858969,"2023-10-29T07:07:33",3,"NO ERROR",8.4,100,999.02,0.12,0.19,0.19],
    [3621,363171,"Vazduh","Libelium","0004A30B0021DF70",44.979,16.7091,"","","Prijedor","",22859540,"2023-10-29T08:08:15",3,"NO ERROR",15.38,88.4,999.46,0.5,0.81,1.01],
    [3622,363171,"Vazduh","Libelium","0004A30B0021DF70",44.979,16.7091,"","","Prijedor","",22860059,"2023-10-29T09:08:57",3,"NO ERROR",16.94,86.5,999.18,0.52,0.71,0.71],
    [3623,363171,"Vazduh","Libelium","0004A30B0021DF70",44.979,16.7091,"","","Prijedor","",22860568,"2023-10-29T10:09:39",3,"NO ERROR",18.8,80.9,999.1,0.43,0.54,0.55],
    [3624,363171,"Vazduh","Libelium","0004A30B0021DF70",44.979,16.7091,"","","Prijedor","",22861141,"2023-10-29T11:10:21",3,"NO ERROR",22.26,63.8,998.83,0.31,0.41,0.42],
    [3625,363171,"Vazduh","Libelium","0004A30B0021DF70",44.979,16.7091,"","","Prijedor","",22861746,"2023-10-29T12:11:04",3,"NO ERROR",24.17,51,998.53,0.16,0.28,0.39],
    [3626,363171,"Vazduh","Libelium","0004A30B0021DF70",44.979,16.7091,"","","Prijedor","",22862305,"2023-10-29T13:11:45",3,"NO ERROR",24.49,48.7,998.72,0.1,0.1,0.1],
    [3627,363171,"Vazduh","Libelium","0004A30B0021DF70",44.979,16.7091,"","","Prijedor","",22862917,"2023-10-29T14:12:27",3,"NO ERROR",27.76,43,998.43,0.08,0.11,0.11],
    [3628,363171,"Vazduh","Libelium","0004A30B0021DF70",44.979,16.7091,"","","Prijedor","",22863477,"2023-10-29T15:13:08",3,"NO ERROR",24.52,49.1,998.4,0.25,0.36,0.38],
    [3629,363171,"Vazduh","Libelium","0004A30B0021DF70",44.979,16.7091,"","","Prijedor","",22864072,"2023-10-29T16:13:50",3,"NO ERROR",21.21,59.4,998.49,0.44,0.63,0.64],
    [3630,363171,"Vazduh","Libelium","0004A30B0021DF70",44.979,16.7091,"","","Prijedor","",22864633,"2023-10-29T17:14:31",3,"NO ERROR",20.86,57.4,998.76,0.09,0.13,0.14],
    [3631,363171,"Vazduh","Libelium","0004A30B0021DF70",44.979,16.7091,"","","Prijedor","",22865094,"2023-10-29T18:15:19",3,"NO ERROR",19.94,60.5,999.29,0.4,0.5,0.5],
    [3632,363171,"Vazduh","Libelium","0004A30B0021DF70",44.979,16.7091,"","","Prijedor","",22865611,"2023-10-29T19:16:00",3,"NO ERROR",18.54,69.5,999.41,0.46,0.59,0.61],
    [3633,363171,"Vazduh","Libelium","0004A30B0021DF70",44.979,16.7091,"","","Prijedor","",22866234,"2023-10-29T20:16:42",3,"NO ERROR",17.27,78.9,999.42,0.19,0.35,0.38],
    [3634,363171,"Vazduh","Libelium","0004A30B0021DF70",44.979,16.7091,"","","Prijedor","",22866762,"2023-10-29T21:17:23",3,"NO ERROR",16.86,83.1,999.53,0.27,0.36,0.36],
    [3635,363171,"Vazduh","Libelium","0004A30B0021DF70",44.979,16.7091,"","","Prijedor","",22867294,"2023-10-29T22:18:04",3,"NO ERROR",16.38,83.7,999.86,0.31,0.54,0.98],
    [3636,363171,"Vazduh","Libelium","0004A30B0021DF70",44.979,16.7091,"","","Prijedor","",22867863,"2023-10-29T23:18:46",3,"NO ERROR",15.89,82.8,999.7,0.55,0.76,0.77],
    [3637,363171,"Vazduh","Libelium","0004A30B0021DF70",44.979,16.7091,"","","Prijedor","",22868613,"2023-10-30T00:19:27",3,"NO ERROR",14.35,94.5,999.84,0.38,0.65,0.81],
    [3638,363171,"Vazduh","Libelium","0004A30B0021DF70",44.979,16.7091,"","","Prijedor","",22869158,"2023-10-30T01:20:09",3,"NO ERROR",13.82,99,1000.04,0.39,0.5,0.51],
    [3639,363171,"Vazduh","Libelium","0004A30B0021DF70",44.979,16.7091,"","","Prijedor","",22869682,"2023-10-30T02:20:51",3,"NO ERROR",14.19,93.9,999.8,0.37,0.5,0.5],
    [3640,363171,"Vazduh","Libelium","0004A30B0021DF70",44.979,16.7091,"","","Prijedor","",22870240,"2023-10-30T03:21:33",3,"NO ERROR",13.2,100,999.52,0.29,0.43,0.44],
    [3641,363171,"Vazduh","Libelium","0004A30B0021DF70",44.979,16.7091,"","","Prijedor","",22870890,"2023-10-30T04:22:20",3,"NO ERROR",12.57,100,999.28,0.31,0.46,0.47],
    [3642,363171,"Vazduh","Libelium","0004A30B0021DF70",44.979,16.7091,"","","Prijedor","",22871503,"2023-10-30T05:23:02",3,"NO ERROR",11.58,100,999.34,0.42,0.52,0.52],
    [3643,363171,"Vazduh","Libelium","0004A30B0021DF70",44.979,16.7091,"","","Prijedor","",22872070,"2023-10-30T06:23:44",3,"NO ERROR",11.05,100,999.13,0.37,0.56,0.74],
    [3644,363171,"Vazduh","Libelium","0004A30B0021DF70",44.979,16.7091,"","","Prijedor","",22872648,"2023-10-30T07:24:26",3,"NO ERROR",11.64,100,999.36,1.02,1.5,1.55],
    [3645,363171,"Vazduh","Libelium","0004A30B0021DF70",44.979,16.7091,"","","Prijedor","",22873190,"2023-10-30T08:25:08",3,"NO ERROR",18,79.8,999.27,0.69,1.12,1.18],
    [3646,363171,"Vazduh","Libelium","0004A30B0021DF70",44.979,16.7091,"","","Prijedor","",22873717,"2023-10-30T09:25:49",3,"NO ERROR",19.99,71,999.05,0.67,0.96,0.99],
    [3647,363171,"Vazduh","Libelium","0004A30B0021DF70",44.979,16.7091,"","","Prijedor","",22874204,"2023-10-30T10:26:31",3,"NO ERROR",19.89,76.6,999.06,0.23,0.27,0.27],
    [3648,363171,"Vazduh","Libelium","0004A30B0021DF70",44.979,16.7091,"","","Prijedor","",22874783,"2023-10-30T11:27:12",3,"NO ERROR",21.3,67.9,998.58,0.45,0.77,0.92],
    [3649,363171,"Vazduh","Libelium","0004A30B0021DF70",44.979,16.7091,"","","Prijedor","",22875432,"2023-10-30T12:27:54",3,"NO ERROR",23.5,62,997.84,0.81,0.96,0.98],
    [3650,363171,"Vazduh","Libelium","0004A30B0021DF70",44.979,16.7091,"","","Prijedor","",22876003,"2023-10-30T13:28:37",3,"NO ERROR",24.92,54.5,996.74,0.4,0.43,0.43],
    [3651,363171,"Vazduh","Libelium","0004A30B0021DF70",44.979,16.7091,"","","Prijedor","",22876614,"2023-10-30T14:29:19",3,"NO ERROR",25.26,48.7,996.07,0.15,0.19,0.19],
    [3652,363171,"Vazduh","Libelium","0004A30B0021DF70",44.979,16.7091,"","","Prijedor","",22877154,"2023-10-30T15:30:01",3,"NO ERROR",23.76,52.3,995.55,0.17,0.33,3.56],
    [3653,363171,"Vazduh","Libelium","0004A30B0021DF70",44.979,16.7091,"","","Prijedor","",22877727,"2023-10-30T16:30:43",3,"NO ERROR",22.07,53.7,994.93,0.68,0.78,0.78],
    [3654,363171,"Vazduh","Libelium","0004A30B0021DF70",44.979,16.7091,"","","Prijedor","",22878251,"2023-10-30T17:31:25",3,"NO ERROR",22.49,48.6,994.97,0.41,0.56,0.56],
    [3655,363171,"Vazduh","Libelium","0004A30B0021DF70",44.979,16.7091,"","","Prijedor","",22878726,"2023-10-30T18:32:07",3,"NO ERROR",21.33,51.2,994.85,0.16,0.34,0.43],
    [3656,363171,"Vazduh","Libelium","0004A30B0021DF70",44.979,16.7091,"","","Prijedor","",22879246,"2023-10-30T19:32:49",3,"NO ERROR",21.13,51.1,994.21,0.25,0.39,0.4],
    [3657,363171,"Vazduh","Libelium","0004A30B0021DF70",44.979,16.7091,"","","Prijedor","",22879893,"2023-10-30T20:33:30",3,"NO ERROR",21.67,45.1,993.59,0.18,0.28,0.28],
    [3658,363171,"Vazduh","Libelium","0004A30B0021DF70",44.979,16.7091,"","","Prijedor","",22880444,"2023-10-30T21:34:11",3,"NO ERROR",21.67,42.8,992.66,0.19,0.39,0.91],
    [3659,363171,"Vazduh","Libelium","0004A30B0021DF70",44.979,16.7091,"","","Prijedor","",22880968,"2023-10-30T22:34:53",3,"NO ERROR",22.3,39.5,991.55,0.13,0.28,0.42],
    [3660,363171,"Vazduh","Libelium","0004A30B0021DF70",44.979,16.7091,"","","Prijedor","",22881513,"2023-10-30T23:35:35",3,"NO ERROR",22.45,37.1,990.81,0.04,0.12,0.14],
    [3661,363171,"Vazduh","Libelium","0004A30B0021DF70",44.979,16.7091,"","","Prijedor","",22882270,"2023-10-31T00:36:17",3,"NO ERROR",23.04,34.8,990.58,0.07,0.11,0.12],
    [3662,363171,"Vazduh","Libelium","0004A30B0021DF70",44.979,16.7091,"","","Prijedor","",22882856,"2023-10-31T01:37:05",3,"NO ERROR",22.79,37.8,989.66,0.03,0.04,0.04],
    [3663,363171,"Vazduh","Libelium","0004A30B0021DF70",44.979,16.7091,"","","Prijedor","",22883440,"2023-10-31T02:37:46",3,"NO ERROR",23.4,36.7,988.21,0.36,0.64,0.77],
    [3664,363171,"Vazduh","Libelium","0004A30B0021DF70",44.979,16.7091,"","","Prijedor","",22884004,"2023-10-31T03:38:28",3,"NO ERROR",23.32,42.2,989.18,0.25,0.37,0.39],
    [3665,363171,"Vazduh","Libelium","0004A30B0021DF70",44.979,16.7091,"","","Prijedor","",22884598,"2023-10-31T04:39:10",3,"NO ERROR",21.27,53.6,989.06,0.73,0.97,0.97],
    [3666,363171,"Vazduh","Libelium","0004A30B0021DF70",44.979,16.7091,"","","Prijedor","",22885360,"2023-10-31T05:39:52",3,"NO ERROR",20.28,62.8,988.62,0.49,0.68,0.68],
    [3667,363171,"Vazduh","Libelium","0004A30B0021DF70",44.979,16.7091,"","","Prijedor","",22886166,"2023-10-31T06:40:40",3,"NO ERROR",20.4,69.7,988.49,0.5,0.58,0.59],
    [3668,363171,"Vazduh","Libelium","0004A30B0021DF70",44.979,16.7091,"","","Prijedor","",22886860,"2023-10-31T07:41:22",3,"NO ERROR",22.08,67.1,987.69,0.56,0.84,0.96],
    [3669,363171,"Vazduh","Libelium","0004A30B0021DF70",44.979,16.7091,"","","Prijedor","",22887560,"2023-10-31T08:42:04",3,"NO ERROR",22.81,67.3,987.17,0.68,1.07,1.11],
    [3670,363171,"Vazduh","Libelium","0004A30B0021DF70",44.979,16.7091,"","","Prijedor","",22888212,"2023-10-31T09:42:45",3,"NO ERROR",23.06,68.8,986.51,0.95,1.44,1.93],
    [3671,363171,"Vazduh","Libelium","0004A30B0021DF70",44.979,16.7091,"","","Prijedor","",22888844,"2023-10-31T10:43:27",3,"NO ERROR",22.55,79.2,986.74,1.63,2.32,3.21],
    [3672,363171,"Vazduh","Libelium","0004A30B0021DF70",44.979,16.7091,"","","Prijedor","",22889503,"2023-10-31T11:44:09",3,"NO ERROR",23.24,73.1,986.95,1.02,1.51,1.66],
    [3673,363171,"Vazduh","Libelium","0004A30B0021DF70",44.979,16.7091,"","","Prijedor","",22890245,"2023-10-31T12:44:51",3,"NO ERROR",18.7,81.7,988.5,0.14,0.15,0.15],
    [3674,363171,"Vazduh","Libelium","0004A30B0021DF70",44.979,16.7091,"","","Prijedor","",22890918,"2023-10-31T13:45:39",3,"NO ERROR",23.12,65.7,987.9,0.33,0.48,0.49],
    [3675,363171,"Vazduh","Libelium","0004A30B0021DF70",44.979,16.7091,"","","Prijedor","",22891631,"2023-10-31T14:46:21",3,"NO ERROR",26.97,41.9,989.03,0.14,0.15,0.15],
    [3676,363171,"Vazduh","Libelium","0004A30B0021DF70",44.979,16.7091,"","","Prijedor","",22892295,"2023-10-31T15:47:03",3,"NO ERROR",20.91,44.8,990.22,0.14,0.24,0.31],
    [3677,363171,"Vazduh","Libelium","0004A30B0021DF70",44.979,16.7091,"","","Prijedor","",22892971,"2023-10-31T16:47:44",3,"NO ERROR",18.97,50.1,991.29,0.03,0.03,0.03],
    [3678,363171,"Vazduh","Libelium","0004A30B0021DF70",44.979,16.7091,"","","Prijedor","",22893554,"2023-10-31T17:48:26",3,"NO ERROR",18.14,49.8,992.42,0.27,0.38,0.4],
    [3679,363171,"Vazduh","Libelium","0004A30B0021DF70",44.979,16.7091,"","","Prijedor","",22894136,"2023-10-31T18:49:08",3,"NO ERROR",16.3,57.6,993.2,0.21,0.3,0.31],
    [3680,363171,"Vazduh","Libelium","0004A30B0021DF70",44.979,16.7091,"","","Prijedor","",22894834,"2023-10-31T19:49:50",3,"NO ERROR",15.46,66.9,994.65,0.36,0.42,0.42],
    [3681,363171,"Vazduh","Libelium","0004A30B0021DF70",44.979,16.7091,"","","Prijedor","",22895550,"2023-10-31T20:50:32",3,"NO ERROR",15.92,72.7,995.56,0.7,0.92,0.95],
    [3682,363171,"Vazduh","Libelium","0004A30B0021DF70",44.979,16.7091,"","","Prijedor","",22896204,"2023-10-31T21:51:13",3,"NO ERROR",11.96,97.5,997.27,0.15,0.16,0.16],
    [3683,363171,"Vazduh","Libelium","0004A30B0021DF70",44.979,16.7091,"","","Prijedor","",22896914,"2023-10-31T22:51:54",3,"NO ERROR",11.16,100,998.19,0.03,0.03,0.03],
    [3684,363171,"Vazduh","Libelium","0004A30B0021DF70",44.979,16.7091,"","","Prijedor","",22897596,"2023-10-31T23:52:35",3,"NO ERROR",10.42,100,999.51,0.02,0.02,0.02],
    [3685,363171,"Vazduh","Libelium","0004A30B0021DF70",44.979,16.7091,"","","Prijedor","",22898578,"2023-11-01T00:53:16",3,"NO ERROR",9.55,100,1000.38,0.03,0.03,0.03],
    [3686,363171,"Vazduh","Libelium","0004A30B0021DF70",44.979,16.7091,"","","Prijedor","",22899231,"2023-11-01T01:53:57",3,"NO ERROR",8.45,100,1001.03,0.24,0.33,0.33],
    [3687,363171,"Vazduh","Libelium","0004A30B0021DF70",44.979,16.7091,"","","Prijedor","",22899856,"2023-11-01T02:54:45",3,"NO ERROR",8.53,100,1000.56,0.16,0.18,0.18],
    [3688,363171,"Vazduh","Libelium","0004A30B0021DF70",44.979,16.7091,"","","Prijedor","",22900544,"2023-11-01T03:55:26",3,"NO ERROR",7.55,100,1000.99,0.12,0.21,0.23],
    [3689,363171,"Vazduh","Libelium","0004A30B0021DF70",44.979,16.7091,"","","Prijedor","",22901286,"2023-11-01T04:56:09",3,"NO ERROR",7.59,100,1000.81,0.31,0.53,0.56],
    [3690,363171,"Vazduh","Libelium","0004A30B0021DF70",44.979,16.7091,"","","Prijedor","",22901889,"2023-11-01T05:57:03",3,"NO ERROR",6.66,100,1000.61,1.37,3.06,32.61],
    [3691,363171,"Vazduh","Libelium","0004A30B0021DF70",44.979,16.7091,"","","Prijedor","",22902454,"2023-11-01T06:57:45",3,"NO ERROR",6.98,100,1000.81,2.85,15.11,327.47],
    [3692,363171,"Vazduh","Libelium","0004A30B0021DF70",44.979,16.7091,"","","Prijedor","",22903091,"2023-11-01T07:58:27",3,"NO ERROR",7.73,100,1001.32,1,1.32,1.35],
    [3693,363171,"Vazduh","Libelium","0004A30B0021DF70",44.979,16.7091,"","","Prijedor","",22903710,"2023-11-01T08:59:08",3,"NO ERROR",10.44,100,1000.96,0.15,0.17,0.17],
    [3694,363171,"Vazduh","Libelium","0004A30B0021DF70",44.979,16.7091,"","","Prijedor","",22904305,"2023-11-01T09:59:49",3,"NO ERROR",13.08,95.7,1000.64,0.06,0.17,0.26],
    [3695,363171,"Vazduh","Libelium","0004A30B0021DF70",44.979,16.7091,"","","Prijedor","",22904857,"2023-11-01T11:00:31",3,"NO ERROR",16.12,80.7,1000.08,0.34,0.4,0.4],
    [3696,363171,"Vazduh","Libelium","0004A30B0021DF70",44.979,16.7091,"","","Prijedor","",22905547,"2023-11-01T12:01:13",3,"NO ERROR",18.17,73,998.94,0.35,0.42,0.42],
    [3697,363171,"Vazduh","Libelium","0004A30B0021DF70",44.979,16.7091,"","","Prijedor","",22906230,"2023-11-01T13:01:55",3,"NO ERROR",19.12,66.3,998.31,0.13,0.17,0.17],
    [3698,363171,"Vazduh","Libelium","0004A30B0021DF70",44.979,16.7091,"","","Prijedor","",22906935,"2023-11-01T14:02:37",3,"NO ERROR",20.43,59.4,997.68,0.19,0.58,0.8],
    [3699,363171,"Vazduh","Libelium","0004A30B0021DF70",44.979,16.7091,"","","Prijedor","",22907579,"2023-11-01T15:03:19",3,"NO ERROR",18.53,67.2,997.24,0.05,0.14,0.22],
    [3700,363171,"Vazduh","Libelium","0004A30B0021DF70",44.979,16.7091,"","","Prijedor","",22908230,"2023-11-01T16:04:01",3,"NO ERROR",16.81,82.7,996.99,0.23,0.4,0.48],
    [3701,363171,"Vazduh","Libelium","0004A30B0021DF70",44.979,16.7091,"","","Prijedor","",22908845,"2023-11-01T17:04:44",3,"NO ERROR",15.55,90.2,996.88,0.02,0.14,0.21],
    [3702,363171,"Vazduh","Libelium","0004A30B0021DF70",44.979,16.7091,"","","Prijedor","",22909427,"2023-11-01T18:05:25",3,"NO ERROR",14.75,100,996.76,0.97,1.29,1.32],
    [3703,363171,"Vazduh","Libelium","0004A30B0021DF70",44.979,16.7091,"","","Prijedor","",22910013,"2023-11-01T19:06:07",3,"NO ERROR",13.8,100,996.62,0.85,1.06,1.09],
    [3704,363171,"Vazduh","Libelium","0004A30B0021DF70",44.979,16.7091,"","","Prijedor","",22910748,"2023-11-01T20:06:48",3,"NO ERROR",13.19,100,996.64,1.01,1.27,1.41],
    [3705,363171,"Vazduh","Libelium","0004A30B0021DF70",44.979,16.7091,"","","Prijedor","",22911381,"2023-11-01T21:07:29",3,"NO ERROR",12.88,100,996.29,0.76,0.95,0.98],
    [3706,363171,"Vazduh","Libelium","0004A30B0021DF70",44.979,16.7091,"","","Prijedor","",22912019,"2023-11-01T22:08:10",3,"NO ERROR",12.62,100,995.68,0.78,0.95,0.96],
    [3707,363171,"Vazduh","Libelium","0004A30B0021DF70",44.979,16.7091,"","","Prijedor","",22912690,"2023-11-01T23:08:52",3,"NO ERROR",12.36,100,995.15,0.27,0.35,0.35],
    [3708,363171,"Vazduh","Libelium","0004A30B0021DF70",44.979,16.7091,"","","Prijedor","",22913551,"2023-11-02T00:09:33",3,"NO ERROR",12.45,100,994.58,0.9,1.08,1.08],
    [3709,363171,"Vazduh","Libelium","0004A30B0021DF70",44.979,16.7091,"","","Prijedor","",22914275,"2023-11-02T01:10:15",3,"NO ERROR",10.96,100,995.2,0.38,0.52,4.39],
    [3710,363171,"Vazduh","Libelium","0004A30B0021DF70",44.979,16.7091,"","","Prijedor","",22914913,"2023-11-02T02:10:57",3,"NO ERROR",11.55,100,994.87,0.67,0.74,0.74],
    [3711,363171,"Vazduh","Libelium","0004A30B0021DF70",44.979,16.7091,"","","Prijedor","",22915560,"2023-11-02T03:11:38",3,"NO ERROR",11.41,100,994.39,0.82,1.01,1.02],
    [3712,363171,"Vazduh","Libelium","0004A30B0021DF70",44.979,16.7091,"","","Prijedor","",22916271,"2023-11-02T04:12:19",3,"NO ERROR",11.41,100,993.86,0.75,1.13,1.19],
    [3713,363171,"Vazduh","Libelium","0004A30B0021DF70",44.979,16.7091,"","","Prijedor","",22916972,"2023-11-02T05:13:08",3,"NO ERROR",10.25,100,993.11,0.39,0.55,0.67],
    [3714,363171,"Vazduh","Libelium","0004A30B0021DF70",44.979,16.7091,"","","Prijedor","",22917622,"2023-11-02T06:13:49",3,"NO ERROR",9.21,100,992.95,0.58,0.72,0.73],
    [3715,363171,"Vazduh","Libelium","0004A30B0021DF70",44.979,16.7091,"","","Prijedor","",22918270,"2023-11-02T07:14:31",3,"NO ERROR",8.58,100,992.89,0.48,0.9,1.06],
    [3716,363171,"Vazduh","Libelium","0004A30B0021DF70",44.979,16.7091,"","","Prijedor","",22918978,"2023-11-02T08:15:13",3,"NO ERROR",14.47,97.1,992.69,0.26,0.35,0.36],
    [3717,363171,"Vazduh","Libelium","0004A30B0021DF70",44.979,16.7091,"","","Prijedor","",22919607,"2023-11-02T09:15:54",3,"NO ERROR",14.79,93.2,992.35,0.12,0.13,0.13],
    [3718,363171,"Vazduh","Libelium","0004A30B0021DF70",44.979,16.7091,"","","Prijedor","",22920187,"2023-11-02T10:16:36",3,"NO ERROR",17.81,72.3,991.35,0.29,0.32,0.32],
    [3719,363171,"Vazduh","Libelium","0004A30B0021DF70",44.979,16.7091,"","","Prijedor","",22920864,"2023-11-02T11:17:18",3,"NO ERROR",19.56,63.4,989.93,0.07,0.11,0.12],
    [3720,363171,"Vazduh","Libelium","0004A30B0021DF70",44.979,16.7091,"","","Prijedor","",22921610,"2023-11-02T12:17:59",3,"NO ERROR",21.66,51.3,988.47,0.17,0.22,0.22],
    [3721,363171,"Vazduh","Libelium","0004A30B0021DF70",44.979,16.7091,"","","Prijedor","",22922263,"2023-11-02T13:18:41",3,"NO ERROR",21.9,49.5,987.53,0.12,0.28,0.53],
    [3722,363171,"Vazduh","Libelium","0004A30B0021DF70",44.979,16.7091,"","","Prijedor","",22922950,"2023-11-02T14:19:36",3,"NO ERROR",20.73,52.8,986.75,0.13,0.15,0.15],
    [3723,363171,"Vazduh","Libelium","0004A30B0021DF70",44.979,16.7091,"","","Prijedor","",22923582,"2023-11-02T15:20:17",3,"NO ERROR",19.81,54.3,986.2,0.13,0.24,0.65],
    [3724,363171,"Vazduh","Libelium","0004A30B0021DF70",44.979,16.7091,"","","Prijedor","",22924280,"2023-11-02T16:20:59",3,"NO ERROR",18.91,56.6,985,0.3,0.49,0.51],
    [3725,363171,"Vazduh","Libelium","0004A30B0021DF70",44.979,16.7091,"","","Prijedor","",22924901,"2023-11-02T17:21:42",3,"NO ERROR",18.07,58.3,984.08,0.43,0.61,0.62],
    [3726,363171,"Vazduh","Libelium","0004A30B0021DF70",44.979,16.7091,"","","Prijedor","",22925430,"2023-11-02T18:22:24",3,"NO ERROR",18.77,58.8,983.6,0.08,0.11,0.11],
    [3727,363171,"Vazduh","Libelium","0004A30B0021DF70",44.979,16.7091,"","","Prijedor","",22926040,"2023-11-02T19:23:06",3,"NO ERROR",18.71,59.7,982.27,0.03,0.03,0.03],
    [3728,363171,"Vazduh","Libelium","0004A30B0021DF70",44.979,16.7091,"","","Prijedor","",22926765,"2023-11-02T20:23:48",3,"NO ERROR",18.99,62.5,981.67,0.11,0.15,0.15],
    [3729,363171,"Vazduh","Libelium","0004A30B0021DF70",44.979,16.7091,"","","Prijedor","",22927396,"2023-11-02T21:24:29",3,"NO ERROR",19.26,63.4,980.21,0.06,0.11,0.11],
    [3730,363171,"Vazduh","Libelium","0004A30B0021DF70",44.979,16.7091,"","","Prijedor","",22928049,"2023-11-02T22:25:10",3,"NO ERROR",20.15,63.7,979.36,0.15,0.35,2.71],
    [3731,363171,"Vazduh","Libelium","0004A30B0021DF70",44.979,16.7091,"","","Prijedor","",22928668,"2023-11-02T23:25:51",3,"NO ERROR",20.19,66.1,978.64,0.08,0.13,0.14],
    [3732,363171,"Vazduh","Libelium","0004A30B0021DF70",44.979,16.7091,"","","Prijedor","",22929848,"2023-11-03T00:26:32",3,"NO ERROR",20.29,65.7,977.02,0.14,0.3,0.4],
    [3733,363171,"Vazduh","Libelium","0004A30B0021DF70",44.979,16.7091,"","","Prijedor","",22930543,"2023-11-03T01:27:14",3,"NO ERROR",20.89,60.4,975.5,0.22,0.26,0.27],
    [3734,363171,"Vazduh","Libelium","0004A30B0021DF70",44.979,16.7091,"","","Prijedor","",22931128,"2023-11-03T02:27:56",3,"NO ERROR",21.46,58.2,973.95,0.18,0.24,0.24],
    [3735,363171,"Vazduh","Libelium","0004A30B0021DF70",44.979,16.7091,"","","Prijedor","",22931724,"2023-11-03T03:28:37",3,"NO ERROR",21.55,59.6,972.13,0.58,0.76,0.77],
    [3736,363171,"Vazduh","Libelium","0004A30B0021DF70",44.979,16.7091,"","","Prijedor","",22932400,"2023-11-03T04:29:19",3,"NO ERROR",22.48,54,970.57,0.56,0.96,1.01],
    [3737,363171,"Vazduh","Libelium","0004A30B0021DF70",44.979,16.7091,"","","Prijedor","",22933016,"2023-11-03T05:30:01",3,"NO ERROR",22.75,52.2,970.53,0.23,0.31,0.32],
    [3738,363171,"Vazduh","Libelium","0004A30B0021DF70",44.979,16.7091,"","","Prijedor","",22933592,"2023-11-03T06:30:42",3,"NO ERROR",22.46,55.6,971,0.21,0.31,0.33],
    [3739,363171,"Vazduh","Libelium","0004A30B0021DF70",44.979,16.7091,"","","Prijedor","",22934175,"2023-11-03T07:31:24",3,"NO ERROR",17.21,100,973.89,0.29,0.68,0.96],
    [3740,363171,"Vazduh","Libelium","0004A30B0021DF70",44.979,16.7091,"","","Prijedor","",22934809,"2023-11-03T08:32:06",3,"NO ERROR",13.91,100,974.13,0.83,1.1,1.1],
    [3741,363171,"Vazduh","Libelium","0004A30B0021DF70",44.979,16.7091,"","","Prijedor","",22935397,"2023-11-03T09:33:00",3,"NO ERROR",15.37,100,973.2,0.16,0.27,0.27],
    [3742,363171,"Vazduh","Libelium","0004A30B0021DF70",44.979,16.7091,"","","Prijedor","",22935968,"2023-11-03T10:33:42",3,"NO ERROR",16.7,100,973.7,0.21,0.27,0.27],
    [3743,363171,"Vazduh","Libelium","0004A30B0021DF70",44.979,16.7091,"","","Prijedor","",22936592,"2023-11-03T11:34:24",3,"NO ERROR",14.46,100,976.17,0.13,0.15,0.15],
    [3744,363171,"Vazduh","Libelium","0004A30B0021DF70",44.979,16.7091,"","","Prijedor","",22937241,"2023-11-03T12:35:06",3,"NO ERROR",16.26,78.2,976.58,0.12,0.22,0.24],
    [3745,363171,"Vazduh","Libelium","0004A30B0021DF70",44.979,16.7091,"","","Prijedor","",22937840,"2023-11-03T13:35:48",3,"NO ERROR",17.29,62.6,976.45,0.1,0.18,0.2],
    [3746,363171,"Vazduh","Libelium","0004A30B0021DF70",44.979,16.7091,"","","Prijedor","",22938483,"2023-11-03T14:36:30",3,"NO ERROR",20.38,48.4,976.64,0.21,0.36,0.47],
    [3747,363171,"Vazduh","Libelium","0004A30B0021DF70",44.979,16.7091,"","","Prijedor","",22939061,"2023-11-03T15:37:11",3,"NO ERROR",17.3,50.1,977.71,0.15,0.28,0.29],
    [3748,363171,"Vazduh","Libelium","0004A30B0021DF70",44.979,16.7091,"","","Prijedor","",22939653,"2023-11-03T16:37:53",3,"NO ERROR",15.18,57.4,978.23,0.17,0.2,0.2],
    [3749,363171,"Vazduh","Libelium","0004A30B0021DF70",44.979,16.7091,"","","Prijedor","",22940215,"2023-11-03T17:38:34",3,"NO ERROR",14.29,60.7,978.91,0.44,0.63,0.64],
    [3750,363171,"Vazduh","Libelium","0004A30B0021DF70",44.979,16.7091,"","","Prijedor","",22940745,"2023-11-03T18:39:15",3,"NO ERROR",13.19,65.5,979.5,0.58,0.69,0.69],
    [3751,363171,"Vazduh","Libelium","0004A30B0021DF70",44.979,16.7091,"","","Prijedor","",22941337,"2023-11-03T19:39:56",3,"NO ERROR",13.09,69.9,979.7,0.45,0.67,0.7],
    [3752,363171,"Vazduh","Libelium","0004A30B0021DF70",44.979,16.7091,"","","Prijedor","",22942028,"2023-11-03T20:40:39",3,"NO ERROR",11.79,79,980.32,1.69,2.11,2.12],
    [3753,363171,"Vazduh","Libelium","0004A30B0021DF70",44.979,16.7091,"","","Prijedor","",22942587,"2023-11-03T21:41:21",3,"NO ERROR",11.32,88.2,980.45,0.71,0.89,0.91],
    [3754,363171,"Vazduh","Libelium","0004A30B0021DF70",44.979,16.7091,"","","Prijedor","",22943143,"2023-11-03T22:42:02",3,"NO ERROR",10.15,95.3,980.48,0.49,0.72,0.73],
    [3755,363171,"Vazduh","Libelium","0004A30B0021DF70",44.979,16.7091,"","","Prijedor","",22943702,"2023-11-03T23:42:44",3,"NO ERROR",9.56,100,980.17,0.15,0.2,0.21],
    [3756,363171,"Vazduh","Libelium","0004A30B0021DF70",44.979,16.7091,"","","Prijedor","",22944586,"2023-11-04T00:43:26",3,"NO ERROR",10.86,100,981.95,0.25,0.29,0.3],
    [3757,363171,"Vazduh","Libelium","0004A30B0021DF70",44.979,16.7091,"","","Prijedor","",22945234,"2023-11-04T01:44:07",3,"NO ERROR",9.9,100,983.2,0.19,0.4,4.79],
    [3758,363171,"Vazduh","Libelium","0004A30B0021DF70",44.979,16.7091,"","","Prijedor","",22945821,"2023-11-04T02:44:48",3,"NO ERROR",9.9,100,983.09,0.39,0.57,0.57],
    [3759,363171,"Vazduh","Libelium","0004A30B0021DF70",44.979,16.7091,"","","Prijedor","",22946421,"2023-11-04T03:45:30",3,"NO ERROR",9.6,100,982.77,0.65,0.88,0.88],
    [3760,363171,"Vazduh","Libelium","0004A30B0021DF70",44.979,16.7091,"","","Prijedor","",22947047,"2023-11-04T04:46:12",3,"NO ERROR",9.73,100,983.11,0.51,0.86,1.03],
    [3761,363171,"Vazduh","Libelium","0004A30B0021DF70",44.979,16.7091,"","","Prijedor","",22947636,"2023-11-04T05:46:53",3,"NO ERROR",9.47,100,982.68,0.24,0.33,0.33],
    [3762,363171,"Vazduh","Libelium","0004A30B0021DF70",44.979,16.7091,"","","Prijedor","",22948227,"2023-11-04T06:47:36",3,"NO ERROR",8.74,100,982.94,0.31,0.47,0.47],
    [3763,363171,"Vazduh","Libelium","0004A30B0021DF70",44.979,16.7091,"","","Prijedor","",22948865,"2023-11-04T07:48:18",3,"NO ERROR",9.1,100,983.73,0.71,0.85,0.85],
    [3764,363171,"Vazduh","Libelium","0004A30B0021DF70",44.979,16.7091,"","","Prijedor","",22949473,"2023-11-04T08:48:59",3,"NO ERROR",10.35,100,984.24,0.04,0.08,0.08],
    [3765,363171,"Vazduh","Libelium","0004A30B0021DF70",44.979,16.7091,"","","Prijedor","",22949998,"2023-11-04T09:49:46",3,"NO ERROR",10.5,100,984.81,0.05,0.05,0.05],
    [3766,363171,"Vazduh","Libelium","0004A30B0021DF70",44.979,16.7091,"","","Prijedor","",22950532,"2023-11-04T10:50:27",3,"NO ERROR",12.58,100,984.34,0.06,0.21,0.36],
    [3767,363171,"Vazduh","Libelium","0004A30B0021DF70",44.979,16.7091,"","","Prijedor","",22951112,"2023-11-04T11:51:08",3,"NO ERROR",14.02,100,983.95,0.03,0.04,0.04],
    [3768,363171,"Vazduh","Libelium","0004A30B0021DF70",44.979,16.7091,"","","Prijedor","",22951695,"2023-11-04T12:51:50",3,"NO ERROR",14.95,92.5,983.75,0.05,0.08,0.08],
    [3769,363171,"Vazduh","Libelium","0004A30B0021DF70",44.979,16.7091,"","","Prijedor","",22952257,"2023-11-04T13:52:32",3,"NO ERROR",18.76,71.1,983.63,0,0,0],
    [3770,363171,"Vazduh","Libelium","0004A30B0021DF70",44.979,16.7091,"","","Prijedor","",22952823,"2023-11-04T14:53:26",3,"NO ERROR",19.96,61.3,983.38,0.05,0.05,0.05],
    [3771,363171,"Vazduh","Libelium","0004A30B0021DF70",44.979,16.7091,"","","Prijedor","",22953363,"2023-11-04T15:54:08",3,"NO ERROR",14.82,81.1,983.68,0.25,0.45,0.58],
    [3772,363171,"Vazduh","Libelium","0004A30B0021DF70",44.979,16.7091,"","","Prijedor","",22953901,"2023-11-04T16:54:56",3,"NO ERROR",13.04,97.2,983.7,0.16,0.4,0.86],
    [3773,363171,"Vazduh","Libelium","0004A30B0021DF70",44.979,16.7091,"","","Prijedor","",22954334,"2023-11-04T17:55:37",3,"NO ERROR",11.36,100,983.85,0.23,0.33,0.39],
    [3774,363171,"Vazduh","Libelium","0004A30B0021DF70",44.979,16.7091,"","","Prijedor","",22954787,"2023-11-04T18:56:18",3,"NO ERROR",10.9,100,983.72,0.39,0.59,0.71],
    [3775,363171,"Vazduh","Libelium","0004A30B0021DF70",44.979,16.7091,"","","Prijedor","",22955348,"2023-11-04T19:57:01",3,"NO ERROR",10.28,100,983.68,0.26,0.33,0.33],
    [3776,363171,"Vazduh","Libelium","0004A30B0021DF70",44.979,16.7091,"","","Prijedor","",22955935,"2023-11-04T20:57:42",3,"NO ERROR",10.55,100,983.25,0.91,1.28,1.43],
    [3777,363171,"Vazduh","Libelium","0004A30B0021DF70",44.979,16.7091,"","","Prijedor","",22956466,"2023-11-04T21:58:23",3,"NO ERROR",10.43,100,983.02,0.73,1.1,1.11],
    [3778,363171,"Vazduh","Libelium","0004A30B0021DF70",44.979,16.7091,"","","Prijedor","",22957028,"2023-11-04T22:59:04",3,"NO ERROR",12.34,93.1,982.25,0.71,0.95,0.96],
    [3779,363171,"Vazduh","Libelium","0004A30B0021DF70",44.979,16.7091,"","","Prijedor","",22957707,"2023-11-04T23:59:45",3,"NO ERROR",13.31,79.1,981.64,0.21,0.29,0.31],
    [3780,363171,"Vazduh","Libelium","0004A30B0021DF70",44.979,16.7091,"","","Prijedor","",22958320,"2023-11-05T01:00:26",3,"NO ERROR",14.51,71.4,980.01,0.07,0.12,0.12],
    [3781,363171,"Vazduh","Libelium","0004A30B0021DF70",44.979,16.7091,"","","Prijedor","",22958900,"2023-11-05T02:01:07",3,"NO ERROR",15.2,68,978.99,0.2,0.29,0.29],
    [3782,363171,"Vazduh","Libelium","0004A30B0021DF70",44.979,16.7091,"","","Prijedor","",22959407,"2023-11-05T03:01:49",3,"NO ERROR",15.32,70.1,976.85,0.35,0.44,0.44],
    [3783,363171,"Vazduh","Libelium","0004A30B0021DF70",44.979,16.7091,"","","Prijedor","",22959993,"2023-11-05T04:02:30",3,"NO ERROR",16.8,69,975.85,0.55,0.81,0.84],
    [3784,363171,"Vazduh","Libelium","0004A30B0021DF70",44.979,16.7091,"","","Prijedor","",22960607,"2023-11-05T05:03:12",3,"NO ERROR",17.68,69.3,974.92,0.21,0.38,0.4],
    [3785,363171,"Vazduh","Libelium","0004A30B0021DF70",44.979,16.7091,"","","Prijedor","",22961204,"2023-11-05T06:03:54",3,"NO ERROR",17.98,70.5,973.87,0,0,0],
    [3786,363171,"Vazduh","Libelium","0004A30B0021DF70",44.979,16.7091,"","","Prijedor","",22961774,"2023-11-05T07:04:35",3,"NO ERROR",18.6,70.8,972.68,0.08,0.22,0.3],
    [3787,363171,"Vazduh","Libelium","0004A30B0021DF70",44.979,16.7091,"","","Prijedor","",22962376,"2023-11-05T08:05:18",3,"NO ERROR",21.97,65.3,972.5,0.32,0.54,0.58],
    [3788,363171,"Vazduh","Libelium","0004A30B0021DF70",44.979,16.7091,"","","Prijedor","",22962899,"2023-11-05T09:06:00",3,"NO ERROR",18.5,84.8,972.6,0.04,0.04,0.04],
    [3789,363171,"Vazduh","Libelium","0004A30B0021DF70",44.979,16.7091,"","","Prijedor","",22963364,"2023-11-05T10:06:41",3,"NO ERROR",13.44,100,975.48,0.22,0.27,0.27],
    [3790,363171,"Vazduh","Libelium","0004A30B0021DF70",44.979,16.7091,"","","Prijedor","",22963917,"2023-11-05T11:07:23",3,"NO ERROR",18.69,100,976.38,0.37,0.46,0.46],
    [3791,363171,"Vazduh","Libelium","0004A30B0021DF70",44.979,16.7091,"","","Prijedor","",22964540,"2023-11-05T12:08:04",3,"NO ERROR",20.57,67.8,976.23,0.28,0.46,0.54],
    [3792,363171,"Vazduh","Libelium","0004A30B0021DF70",44.979,16.7091,"","","Prijedor","",22965109,"2023-11-05T13:08:51",3,"NO ERROR",21,61,977.46,0.38,0.58,0.7],
    [3793,363171,"Vazduh","Libelium","0004A30B0021DF70",44.979,16.7091,"","","Prijedor","",22965749,"2023-11-05T14:09:32",3,"NO ERROR",24.17,48.9,978.42,0.3,0.38,0.39],
    [3794,363171,"Vazduh","Libelium","0004A30B0021DF70",44.979,16.7091,"","","Prijedor","",22966360,"2023-11-05T15:10:14",3,"NO ERROR",23.69,44.8,979.5,0.53,0.71,0.74],
    [3795,363171,"Vazduh","Libelium","0004A30B0021DF70",44.979,16.7091,"","","Prijedor","",22966939,"2023-11-05T16:10:55",3,"NO ERROR",19.14,53.3,980.45,0.26,0.32,0.32],
    [3796,363171,"Vazduh","Libelium","0004A30B0021DF70",44.979,16.7091,"","","Prijedor","",22967511,"2023-11-05T17:11:36",3,"NO ERROR",16.83,64.3,981.17,0.47,0.6,0.61],
    [3797,363171,"Vazduh","Libelium","0004A30B0021DF70",44.979,16.7091,"","","Prijedor","",22967996,"2023-11-05T18:12:18",3,"NO ERROR",16.11,71.4,982.24,0.67,0.84,0.85],
    [3798,363171,"Vazduh","Libelium","0004A30B0021DF70",44.979,16.7091,"","","Prijedor","",22968533,"2023-11-05T19:12:59",3,"NO ERROR",15.85,72.8,982.99,0.52,0.79,0.81],
    [3799,363171,"Vazduh","Libelium","0004A30B0021DF70",44.979,16.7091,"","","Prijedor","",22969159,"2023-11-05T20:13:41",3,"NO ERROR",12.58,97,984.2,0.42,0.64,0.73],
    [3800,363171,"Vazduh","Libelium","0004A30B0021DF70",44.979,16.7091,"","","Prijedor","",22969722,"2023-11-05T21:14:24",3,"NO ERROR",12.01,98.9,985.44,0.63,0.82,0.83],
    [3801,363171,"Vazduh","Libelium","0004A30B0021DF70",44.979,16.7091,"","","Prijedor","",22970246,"2023-11-05T22:15:06",3,"NO ERROR",11.27,100,986.29,1.13,1.98,2.41],
    [3802,363171,"Vazduh","Libelium","0004A30B0021DF70",44.979,16.7091,"","","Prijedor","",22970782,"2023-11-05T23:15:48",3,"NO ERROR",10.36,100,987.18,1.06,1.57,6.52],
    [3803,363171,"Vazduh","Libelium","0004A30B0021DF70",44.979,16.7091,"","","Prijedor","",22971537,"2023-11-06T00:16:29",3,"NO ERROR",10.06,100,988.24,1.05,1.45,1.47],
    [3804,363171,"Vazduh","Libelium","0004A30B0021DF70",44.979,16.7091,"","","Prijedor","",22972090,"2023-11-06T01:17:10",3,"NO ERROR",9.77,100,989.53,0.39,0.61,0.71],
    [3805,363171,"Vazduh","Libelium","0004A30B0021DF70",44.979,16.7091,"","","Prijedor","",22972598,"2023-11-06T02:17:52",3,"NO ERROR",8.94,100,990.69,0.81,1.53,7.29],
    [3806,363171,"Vazduh","Libelium","0004A30B0021DF70",44.979,16.7091,"","","Prijedor","",22973137,"2023-11-06T03:18:34",3,"NO ERROR",7.92,100,991.51,1.15,1.73,1.77],
    [3807,363171,"Vazduh","Libelium","0004A30B0021DF70",44.979,16.7091,"","","Prijedor","",22973764,"2023-11-06T04:19:15",3,"NO ERROR",7.64,100,992.36,0.38,0.62,0.65],
    [3808,363171,"Vazduh","Libelium","0004A30B0021DF70",44.979,16.7091,"","","Prijedor","",22974411,"2023-11-06T05:19:57",3,"NO ERROR",7.17,100,993.63,0.92,1.46,1.51],
    [3809,363171,"Vazduh","Libelium","0004A30B0021DF70",44.979,16.7091,"","","Prijedor","",22975007,"2023-11-06T06:20:38",3,"NO ERROR",6.93,100,993.99,0.59,0.86,0.89],
    [3810,363171,"Vazduh","Libelium","0004A30B0021DF70",44.979,16.7091,"","","Prijedor","",22975615,"2023-11-06T07:21:20",3,"NO ERROR",7.37,100,994.92,0.64,1.26,5.66],
    [3811,363171,"Vazduh","Libelium","0004A30B0021DF70",44.979,16.7091,"","","Prijedor","",22976229,"2023-11-06T08:22:02",3,"NO ERROR",10.71,100,996.01,1.13,1.45,1.46],
    [3812,363171,"Vazduh","Libelium","0004A30B0021DF70",44.979,16.7091,"","","Prijedor","",22976763,"2023-11-06T09:22:44",3,"NO ERROR",14.29,93.1,996.38,1.27,1.87,2.15],
    [3813,363171,"Vazduh","Libelium","0004A30B0021DF70",44.979,16.7091,"","","Prijedor","",22977319,"2023-11-06T10:23:25",3,"NO ERROR",16.65,81.8,996.65,0.72,1.07,1.1],
    [3814,363171,"Vazduh","Libelium","0004A30B0021DF70",44.979,16.7091,"","","Prijedor","",22977971,"2023-11-06T11:24:07",3,"NO ERROR",19.93,62,996.28,0.31,0.4,0.4],
    [3815,363171,"Vazduh","Libelium","0004A30B0021DF70",44.979,16.7091,"","","Prijedor","",22978637,"2023-11-06T12:24:49",3,"NO ERROR",22.53,50.8,996.32,0.22,0.31,0.32],
    [3816,363171,"Vazduh","Libelium","0004A30B0021DF70",44.979,16.7091,"","","Prijedor","",22979258,"2023-11-06T13:25:30",3,"NO ERROR",21.71,50.5,996.54,0.38,0.66,0.77],
    [3817,363171,"Vazduh","Libelium","0004A30B0021DF70",44.979,16.7091,"","","Prijedor","",22979894,"2023-11-06T14:26:12",3,"NO ERROR",24.63,44.1,996.71,0.29,0.4,0.48],
    [3818,363171,"Vazduh","Libelium","0004A30B0021DF70",44.979,16.7091,"","","Prijedor","",22980474,"2023-11-06T15:26:54",3,"NO ERROR",22.06,44.3,997.25,0.21,0.24,0.24],
    [3819,363171,"Vazduh","Libelium","0004A30B0021DF70",44.979,16.7091,"","","Prijedor","",22981094,"2023-11-06T16:27:35",3,"NO ERROR",17.79,53.8,997.84,0.63,0.96,2.47],
    [3820,363171,"Vazduh","Libelium","0004A30B0021DF70",44.979,16.7091,"","","Prijedor","",22981670,"2023-11-06T17:28:17",3,"NO ERROR",15.44,68.4,998.76,1.09,1.55,1.7],
    [3821,363171,"Vazduh","Libelium","0004A30B0021DF70",44.979,16.7091,"","","Prijedor","",22982156,"2023-11-06T18:28:58",3,"NO ERROR",13.87,78.7,999.45,0.61,0.76,0.76],
    [3822,363171,"Vazduh","Libelium","0004A30B0021DF70",44.979,16.7091,"","","Prijedor","",22982724,"2023-11-06T19:29:40",3,"NO ERROR",12.07,92.2,1000.03,1.39,1.74,1.75],
    [3823,363171,"Vazduh","Libelium","0004A30B0021DF70",44.979,16.7091,"","","Prijedor","",22983414,"2023-11-06T20:30:21",3,"NO ERROR",12.23,88.7,1000.37,0.66,0.78,0.79],
    [3824,363171,"Vazduh","Libelium","0004A30B0021DF70",44.979,16.7091,"","","Prijedor","",22984023,"2023-11-06T21:31:02",3,"NO ERROR",12.39,87.3,1000.55,0.72,0.79,0.79],
    [3825,363171,"Vazduh","Libelium","0004A30B0021DF70",44.979,16.7091,"","","Prijedor","",22984614,"2023-11-06T22:31:44",3,"NO ERROR",10.7,98.3,1000.7,0.33,0.35,0.35],
    [3826,363171,"Vazduh","Libelium","0004A30B0021DF70",44.979,16.7091,"","","Prijedor","",22985237,"2023-11-06T23:32:26",3,"NO ERROR",11.92,92.6,1000.87,0.83,1.3,1.36],
    [3827,363171,"Vazduh","Libelium","0004A30B0021DF70",44.979,16.7091,"","","Prijedor","",22986094,"2023-11-07T00:33:07",3,"NO ERROR",9.76,100,1001.43,0.68,0.95,0.98],
    [3828,363171,"Vazduh","Libelium","0004A30B0021DF70",44.979,16.7091,"","","Prijedor","",22986678,"2023-11-07T01:33:48",3,"NO ERROR",9.47,100,1001.59,0.34,0.41,0.41],
    [3829,363171,"Vazduh","Libelium","0004A30B0021DF70",44.979,16.7091,"","","Prijedor","",22987259,"2023-11-07T02:34:30",3,"NO ERROR",9.56,100,1002.07,0.57,0.93,0.95],
    [3830,363171,"Vazduh","Libelium","0004A30B0021DF70",44.979,16.7091,"","","Prijedor","",22987845,"2023-11-07T03:35:12",3,"NO ERROR",10.1,100,1001.85,0.54,0.87,1.02],
    [3831,363171,"Vazduh","Libelium","0004A30B0021DF70",44.979,16.7091,"","","Prijedor","",22988531,"2023-11-07T04:35:54",3,"NO ERROR",9.64,100,1001.79,0.65,0.79,0.8],
    [3832,363171,"Vazduh","Libelium","0004A30B0021DF70",44.979,16.7091,"","","Prijedor","",22989168,"2023-11-07T05:36:35",3,"NO ERROR",9.59,100,1001.87,0.42,0.65,0.7],
    [3833,363171,"Vazduh","Libelium","0004A30B0021DF70",44.979,16.7091,"","","Prijedor","",22989755,"2023-11-07T06:37:17",3,"NO ERROR",9.47,100,1001.88,0.59,0.73,0.75],
    [3834,363171,"Vazduh","Libelium","0004A30B0021DF70",44.979,16.7091,"","","Prijedor","",22990376,"2023-11-07T07:37:59",3,"NO ERROR",10.2,100,1002.24,0.75,1,1],
    [3835,363171,"Vazduh","Libelium","0004A30B0021DF70",44.979,16.7091,"","","Prijedor","",22991016,"2023-11-07T08:38:41",3,"NO ERROR",10.92,100,1002.72,1.28,1.66,1.69],
    [3836,363171,"Vazduh","Libelium","0004A30B0021DF70",44.979,16.7091,"","","Prijedor","",22991567,"2023-11-07T09:39:23",3,"NO ERROR",10.71,100,1002.82,0.73,0.91,0.93],
    [3837,363171,"Vazduh","Libelium","0004A30B0021DF70",44.979,16.7091,"","","Prijedor","",22992073,"2023-11-07T10:40:05",3,"NO ERROR",12.53,100,1002.6,0.83,1.18,1.2],
    [3838,363171,"Vazduh","Libelium","0004A30B0021DF70",44.979,16.7091,"","","Prijedor","",22992743,"2023-11-07T11:40:46",3,"NO ERROR",12.25,100,1002.13,0.7,1.02,1.03],
    [3839,363171,"Vazduh","Libelium","0004A30B0021DF70",44.979,16.7091,"","","Prijedor","",22993342,"2023-11-07T12:41:28",3,"NO ERROR",12.89,100,1001.63,0.56,0.83,0.87],
    [3840,363171,"Vazduh","Libelium","0004A30B0021DF70",44.979,16.7091,"","","Prijedor","",22993924,"2023-11-07T13:42:10",3,"NO ERROR",13.96,100,1000.6,0.67,1.06,1.18],
    [3841,363171,"Vazduh","Libelium","0004A30B0021DF70",44.979,16.7091,"","","Prijedor","",22994542,"2023-11-07T14:42:51",3,"NO ERROR",13.38,100,1000.49,1.62,2.68,4.86],
    [3842,363171,"Vazduh","Libelium","0004A30B0021DF70",44.979,16.7091,"","","Prijedor","",22995095,"2023-11-07T15:43:33",3,"NO ERROR",12.47,100,1000.52,1.55,2.28,2.57],
    [3843,363171,"Vazduh","Libelium","0004A30B0021DF70",44.979,16.7091,"","","Prijedor","",22995618,"2023-11-07T16:44:15",3,"NO ERROR",12.31,100,1000.34,1.55,2.33,2.37],
    [3844,363171,"Vazduh","Libelium","0004A30B0021DF70",44.979,16.7091,"","","Prijedor","",22996087,"2023-11-07T17:44:57",3,"NO ERROR",12.3,100,1000.93,3.3,4.75,4.85],
    [3845,363171,"Vazduh","Libelium","0004A30B0021DF70",44.979,16.7091,"","","Prijedor","",22996527,"2023-11-07T18:45:40",3,"NO ERROR",12.15,100,1000.92,2.93,3.58,3.59],
    [3846,363171,"Vazduh","Libelium","0004A30B0021DF70",44.979,16.7091,"","","Prijedor","",22996993,"2023-11-07T19:46:22",3,"NO ERROR",12.27,100,1000.97,5.39,6.63,6.66],
    [3847,363171,"Vazduh","Libelium","0004A30B0021DF70",44.979,16.7091,"","","Prijedor","",22997482,"2023-11-07T20:47:04",3,"NO ERROR",12.27,100,1000.97,14.24,17.43,17.52],
    [3848,363171,"Vazduh","Libelium","0004A30B0021DF70",44.979,16.7091,"","","Prijedor","",22997915,"2023-11-07T21:47:46",3,"NO ERROR",12.27,100,1001.2,7,8.36,8.42],
    [3849,363171,"Vazduh","Libelium","0004A30B0021DF70",44.979,16.7091,"","","Prijedor","",22998343,"2023-11-07T22:48:28",3,"NO ERROR",12.05,100,1001.11,10.75,13.19,20.38],
    [3850,363171,"Vazduh","Libelium","0004A30B0021DF70",44.979,16.7091,"","","Prijedor","",22998774,"2023-11-07T23:49:10",3,"NO ERROR",11.86,100,1001.05,7.79,9.43,9.46],
    [3851,363171,"Vazduh","Libelium","0004A30B0021DF70",44.979,16.7091,"","","Prijedor","",22999414,"2023-11-08T00:49:52",3,"NO ERROR",11.63,100,1001.17,23.62,30.75,63.77],
    [3852,363171,"Vazduh","Libelium","0004A30B0021DF70",44.979,16.7091,"","","Prijedor","",22999891,"2023-11-08T01:50:40",3,"NO ERROR",11.36,100,1001.52,34.28,64.91,1072.0399],
    [3853,363171,"Vazduh","Libelium","0004A30B0021DF70",44.979,16.7091,"","","Prijedor","",23000349,"2023-11-08T02:51:22",3,"NO ERROR",11.33,100,1001.41,13.23,24.59,331.54],
    [3854,363171,"Vazduh","Libelium","0004A30B0021DF70",44.979,16.7091,"","","Prijedor","",23000828,"2023-11-08T03:52:11",3,"NO ERROR",10.81,100,1002.35,5.59,10.12,70.87],
    [3855,363171,"Vazduh","Libelium","0004A30B0021DF70",44.979,16.7091,"","","Prijedor","",23001346,"2023-11-08T04:52:52",3,"NO ERROR",10.06,100,1002.8,8.55,21.51,181.34],
    [3856,363171,"Vazduh","Libelium","0004A30B0021DF70",44.979,16.7091,"","","Prijedor","",23001750,"2023-11-08T05:53:35",3,"NO ERROR",9.85,100,1003.42,6.37,13.04,241.23],
    [3857,363171,"Vazduh","Libelium","0004A30B0021DF70",44.979,16.7091,"","","Prijedor","",23002125,"2023-11-08T06:54:17",3,"NO ERROR",9.02,100,1004.13,0.25,0.35,0.35],
    [3858,363171,"Vazduh","Libelium","0004A30B0021DF70",44.979,16.7091,"","","Prijedor","",23002661,"2023-11-08T07:54:59",3,"NO ERROR",8.89,100,1005.24,0.54,0.65,0.67],
    [3859,363171,"Vazduh","Libelium","0004A30B0021DF70",44.979,16.7091,"","","Prijedor","",23003185,"2023-11-08T08:55:40",3,"NO ERROR",10.39,100,1005.69,0.28,0.31,0.31],
    [3860,363171,"Vazduh","Libelium","0004A30B0021DF70",44.979,16.7091,"","","Prijedor","",23003623,"2023-11-08T09:56:21",3,"NO ERROR",12.77,100,1006.1,0.25,0.33,0.33],
    [3861,363171,"Vazduh","Libelium","0004A30B0021DF70",44.979,16.7091,"","","Prijedor","",23004152,"2023-11-08T10:57:02",3,"NO ERROR",13.49,100,1006.08,0.16,0.19,0.19],
    [3862,363171,"Vazduh","Libelium","0004A30B0021DF70",44.979,16.7091,"","","Prijedor","",23004745,"2023-11-08T11:57:43",3,"NO ERROR",14.72,94.9,1005.77,0.16,0.22,0.23],
    [3863,363171,"Vazduh","Libelium","0004A30B0021DF70",44.979,16.7091,"","","Prijedor","",23005293,"2023-11-08T12:58:24",3,"NO ERROR",16.55,76,1005.27,0.08,0.12,0.12],
    [3864,363171,"Vazduh","Libelium","0004A30B0021DF70",44.979,16.7091,"","","Prijedor","",23005865,"2023-11-08T13:59:05",3,"NO ERROR",20.55,56.3,1005.56,0.07,0.09,0.09],
    [3865,363171,"Vazduh","Libelium","0004A30B0021DF70",44.979,16.7091,"","","Prijedor","",23006403,"2023-11-08T14:59:47",3,"NO ERROR",18.31,56,1005.22,0.09,0.1,0.1],
    [3866,363171,"Vazduh","Libelium","0004A30B0021DF70",44.979,16.7091,"","","Prijedor","",23006946,"2023-11-08T16:00:29",3,"NO ERROR",13.74,80,1005.44,0.1,0.13,0.13],
    [3867,363171,"Vazduh","Libelium","0004A30B0021DF70",44.979,16.7091,"","","Prijedor","",23007453,"2023-11-08T17:01:12",3,"NO ERROR",12.1,89.8,1005.54,0.45,0.58,0.58],
    [3868,363171,"Vazduh","Libelium","0004A30B0021DF70",44.979,16.7091,"","","Prijedor","",23007912,"2023-11-08T18:01:54",3,"NO ERROR",9.55,100,1005.8,1.43,1.67,1.67],
    [3869,363171,"Vazduh","Libelium","0004A30B0021DF70",44.979,16.7091,"","","Prijedor","",23008354,"2023-11-08T19:02:35",3,"NO ERROR",8.24,100,1006.14,0.53,0.7,0.71],
    [3870,363171,"Vazduh","Libelium","0004A30B0021DF70",44.979,16.7091,"","","Prijedor","",23008930,"2023-11-08T20:03:17",3,"NO ERROR",7.27,100,1006.26,1.52,1.81,1.82],
    [3871,363171,"Vazduh","Libelium","0004A30B0021DF70",44.979,16.7091,"","","Prijedor","",23009530,"2023-11-08T21:03:59",3,"NO ERROR",6.8,100,1006.57,0.51,0.6,0.61],
    [3872,363171,"Vazduh","Libelium","0004A30B0021DF70",44.979,16.7091,"","","Prijedor","",23010085,"2023-11-08T22:04:41",3,"NO ERROR",5.78,100,1006.59,0.88,1.13,1.24],
    [3873,363171,"Vazduh","Libelium","0004A30B0021DF70",44.979,16.7091,"","","Prijedor","",23010625,"2023-11-08T23:05:23",3,"NO ERROR",5.06,100,1006.44,1.17,1.55,1.58],
    [3874,363171,"Vazduh","Libelium","0004A30B0021DF70",44.979,16.7091,"","","Prijedor","",23011363,"2023-11-09T00:06:05",3,"NO ERROR",4.19,100,1006.24,0.44,0.54,0.54],
    [3875,363171,"Vazduh","Libelium","0004A30B0021DF70",44.979,16.7091,"","","Prijedor","",23012003,"2023-11-09T01:06:47",3,"NO ERROR",2.81,100,1006.07,0.8,0.89,0.89],
    [3876,363171,"Vazduh","Libelium","0004A30B0021DF70",44.979,16.7091,"","","Prijedor","",23012686,"2023-11-09T02:07:29",3,"NO ERROR",2.65,100,1005.95,6.46,13.37,74.27],
    [3877,363171,"Vazduh","Libelium","0004A30B0021DF70",44.979,16.7091,"","","Prijedor","",23013296,"2023-11-09T03:08:11",3,"NO ERROR",2.9,100,1005.78,7.22,19.04,393.01],
    [3878,363171,"Vazduh","Libelium","0004A30B0021DF70",44.979,16.7091,"","","Prijedor","",23013984,"2023-11-09T04:08:52",3,"NO ERROR",3.24,100,1005.77,11.16,30.19,434.99],
    [3879,363171,"Vazduh","Libelium","0004A30B0021DF70",44.979,16.7091,"","","Prijedor","",23014612,"2023-11-09T05:09:33",3,"NO ERROR",3.15,100,1005.51,3.58,16.59,301.72],
    [3880,363171,"Vazduh","Libelium","0004A30B0021DF70",44.979,16.7091,"","","Prijedor","",23015206,"2023-11-09T06:10:15",3,"NO ERROR",2.83,100,1005.18,2.88,17.51,330.61],
    [3881,363171,"Vazduh","Libelium","0004A30B0021DF70",44.979,16.7091,"","","Prijedor","",23015766,"2023-11-09T07:10:57",3,"NO ERROR",2.19,100,1005.4,1.59,10.05,276.77],
    [3882,363171,"Vazduh","Libelium","0004A30B0021DF70",44.979,16.7091,"","","Prijedor","",23016415,"2023-11-09T08:11:38",3,"NO ERROR",3.07,100,1005.28,3.63,11.43,78.53],
    [3883,363171,"Vazduh","Libelium","0004A30B0021DF70",44.979,16.7091,"","","Prijedor","",23016985,"2023-11-09T09:12:20",3,"NO ERROR",5.08,100,1005.14,0.74,1.36,13.28],
    [3884,363171,"Vazduh","Libelium","0004A30B0021DF70",44.979,16.7091,"","","Prijedor","",23017535,"2023-11-09T10:13:08",3,"NO ERROR",6.5,100,1004.67,0.35,0.46,0.46],
    [3885,363171,"Vazduh","Libelium","0004A30B0021DF70",44.979,16.7091,"","","Prijedor","",23018127,"2023-11-09T11:13:50",3,"NO ERROR",10.39,100,1003.99,0.2,0.28,0.3],
    [3886,363171,"Vazduh","Libelium","0004A30B0021DF70",44.979,16.7091,"","","Prijedor","",23018798,"2023-11-09T12:14:32",3,"NO ERROR",14.1,87.1,1002.99,0.17,0.2,0.2],
    [3887,363171,"Vazduh","Libelium","0004A30B0021DF70",44.979,16.7091,"","","Prijedor","",23019414,"2023-11-09T13:15:13",3,"NO ERROR",16.58,74.4,1002.22,0.34,0.51,0.62],
    [3888,363171,"Vazduh","Libelium","0004A30B0021DF70",44.979,16.7091,"","","Prijedor","",23020040,"2023-11-09T14:15:55",3,"NO ERROR",20.41,50.9,1001.5,0.45,0.66,0.68],
    [3889,363171,"Vazduh","Libelium","0004A30B0021DF70",44.979,16.7091,"","","Prijedor","",23020620,"2023-11-09T15:16:36",3,"NO ERROR",19.08,51.8,1000.98,0.32,0.58,0.74],
    [3890,363171,"Vazduh","Libelium","0004A30B0021DF70",44.979,16.7091,"","","Prijedor","",23021230,"2023-11-09T16:17:18",3,"NO ERROR",14.68,67.4,1000.6,0.36,0.47,0.48],
    [3891,363171,"Vazduh","Libelium","0004A30B0021DF70",44.979,16.7091,"","","Prijedor","",23021779,"2023-11-09T17:18:00",3,"NO ERROR",12.58,82.3,1000.66,0.84,1.28,1.42],
    [3892,363171,"Vazduh","Libelium","0004A30B0021DF70",44.979,16.7091,"","","Prijedor","",23022255,"2023-11-09T18:18:42",3,"NO ERROR",10.61,100,1000.6,1.82,2.19,2.3],
    [3893,363171,"Vazduh","Libelium","0004A30B0021DF70",44.979,16.7091,"","","Prijedor","",23022783,"2023-11-09T19:19:24",3,"NO ERROR",9.65,100,1000.37,1.68,2.17,2.35],
    [3894,363171,"Vazduh","Libelium","0004A30B0021DF70",44.979,16.7091,"","","Prijedor","",23023441,"2023-11-09T20:20:06",3,"NO ERROR",8.82,100,1000.28,1.96,2.64,2.69],
    [3895,363171,"Vazduh","Libelium","0004A30B0021DF70",44.979,16.7091,"","","Prijedor","",23024053,"2023-11-09T21:20:48",3,"NO ERROR",8.56,100,1000.12,0.29,0.36,0.36],
    [3896,363171,"Vazduh","Libelium","0004A30B0021DF70",44.979,16.7091,"","","Prijedor","",23024644,"2023-11-09T22:21:29",3,"NO ERROR",7.12,100,999.45,0.64,0.98,1.01],
    [3897,363171,"Vazduh","Libelium","0004A30B0021DF70",44.979,16.7091,"","","Prijedor","",23025284,"2023-11-09T23:22:11",3,"NO ERROR",8.45,100,999.1,0.51,0.64,0.64],
    [3898,363171,"Vazduh","Libelium","0004A30B0021DF70",44.979,16.7091,"","","Prijedor","",23026115,"2023-11-10T00:22:53",3,"NO ERROR",6.12,100,998.57,1.27,1.51,1.51],
    [3899,363171,"Vazduh","Libelium","0004A30B0021DF70",44.979,16.7091,"","","Prijedor","",23026638,"2023-11-10T01:23:35",3,"NO ERROR",5.37,100,998.11,0.7,0.97,1.11],
    [3900,363171,"Vazduh","Libelium","0004A30B0021DF70",44.979,16.7091,"","","Prijedor","",23027114,"2023-11-10T02:24:17",3,"NO ERROR",4.91,100,997.41,0.88,1.16,1.17],
    [3901,363171,"Vazduh","Libelium","0004A30B0021DF70",44.979,16.7091,"","","Prijedor","",23027560,"2023-11-10T03:24:59",3,"NO ERROR",5.37,100,996.28,0.53,0.81,0.98],
    [3902,363171,"Vazduh","Libelium","0004A30B0021DF70",44.979,16.7091,"","","Prijedor","",23028025,"2023-11-10T04:25:41",3,"NO ERROR",5.57,100,995.42,0.36,0.5,0.5],
    [3903,363171,"Vazduh","Libelium","0004A30B0021DF70",44.979,16.7091,"","","Prijedor","",23028515,"2023-11-10T05:26:23",3,"NO ERROR",7.13,100,994.7,0.82,0.93,0.93],
    [3904,363171,"Vazduh","Libelium","0004A30B0021DF70",44.979,16.7091,"","","Prijedor","",23028946,"2023-11-10T06:27:05",3,"NO ERROR",7.59,100,994.22,0.1,0.2,0.28],
    [3905,363171,"Vazduh","Libelium","0004A30B0021DF70",44.979,16.7091,"","","Prijedor","",23029470,"2023-11-10T07:27:46",3,"NO ERROR",7.61,100,993.84,0.32,0.34,0.34],
    [3906,363171,"Vazduh","Libelium","0004A30B0021DF70",44.979,16.7091,"","","Prijedor","",23030123,"2023-11-10T08:28:28",3,"NO ERROR",8.74,100,993.47,0.54,0.62,0.62],
    [3907,363171,"Vazduh","Libelium","0004A30B0021DF70",44.979,16.7091,"","","Prijedor","",23030704,"2023-11-10T09:29:09",3,"NO ERROR",8.93,100,993.08,0.6,0.76,0.77],
    [3908,363171,"Vazduh","Libelium","0004A30B0021DF70",44.979,16.7091,"","","Prijedor","",23031267,"2023-11-10T10:29:51",3,"NO ERROR",10.3,100,992.39,1.29,1.64,1.8],
    [3909,363171,"Vazduh","Libelium","0004A30B0021DF70",44.979,16.7091,"","","Prijedor","",23031924,"2023-11-10T11:30:33",3,"NO ERROR",11.56,100,991.69,0.57,0.73,0.73],
    [3910,363171,"Vazduh","Libelium","0004A30B0021DF70",44.979,16.7091,"","","Prijedor","",23032614,"2023-11-10T12:31:15",3,"NO ERROR",12.2,100,990.12,0.14,0.21,0.76],
    [3911,363171,"Vazduh","Libelium","0004A30B0021DF70",44.979,16.7091,"","","Prijedor","",23033263,"2023-11-10T13:31:57",3,"NO ERROR",12.18,100,989.66,0.46,0.63,0.64],
    [3912,363171,"Vazduh","Libelium","0004A30B0021DF70",44.979,16.7091,"","","Prijedor","",23033945,"2023-11-10T14:32:39",3,"NO ERROR",11.61,100,989.71,1.24,1.66,5.8],
    [3913,363171,"Vazduh","Libelium","0004A30B0021DF70",44.979,16.7091,"","","Prijedor","",23034557,"2023-11-10T15:33:20",3,"NO ERROR",11.1,100,989.75,7.02,8.86,9.06],
    [3914,363171,"Vazduh","Libelium","0004A30B0021DF70",44.979,16.7091,"","","Prijedor","",23035136,"2023-11-10T16:34:02",3,"NO ERROR",10.85,100,989.58,1.34,1.57,1.57],
    [3915,363171,"Vazduh","Libelium","0004A30B0021DF70",44.979,16.7091,"","","Prijedor","",23035612,"2023-11-10T17:34:55",3,"NO ERROR",10.81,100,989.87,1.76,2,2.01],
    [3916,363171,"Vazduh","Libelium","0004A30B0021DF70",44.979,16.7091,"","","Prijedor","",23036046,"2023-11-10T18:35:37",3,"NO ERROR",10.24,100,989.53,2.36,2.92,2.93],
    [3917,363171,"Vazduh","Libelium","0004A30B0021DF70",44.979,16.7091,"","","Prijedor","",23036545,"2023-11-10T19:36:19",3,"NO ERROR",10.09,100,989.45,1.4,1.62,1.63],
    [3918,363171,"Vazduh","Libelium","0004A30B0021DF70",44.979,16.7091,"","","Prijedor","",23037168,"2023-11-10T20:37:01",3,"NO ERROR",9.29,100,988.97,4.88,5.71,5.72],
    [3919,363171,"Vazduh","Libelium","0004A30B0021DF70",44.979,16.7091,"","","Prijedor","",23037714,"2023-11-10T21:37:42",3,"NO ERROR",9.06,100,988.99,5.95,7.2,7.22],
    [3920,363171,"Vazduh","Libelium","0004A30B0021DF70",44.979,16.7091,"","","Prijedor","",23038331,"2023-11-10T22:38:30",3,"NO ERROR",9.31,100,988.65,6.68,7.87,8.02],
    [3921,363171,"Vazduh","Libelium","0004A30B0021DF70",44.979,16.7091,"","","Prijedor","",23039005,"2023-11-10T23:39:11",3,"NO ERROR",9.16,100,988.29,1.91,2.31,2.82],
    [3922,363171,"Vazduh","Libelium","0004A30B0021DF70",44.979,16.7091,"","","Prijedor","",23039927,"2023-11-11T00:39:52",3,"NO ERROR",9.25,100,988.12,4.16,4.94,4.96],
    [3923,363171,"Vazduh","Libelium","0004A30B0021DF70",44.979,16.7091,"","","Prijedor","",23040657,"2023-11-11T01:40:34",3,"NO ERROR",8.96,100,987.7,4,4.57,4.6],
    [3924,363171,"Vazduh","Libelium","0004A30B0021DF70",44.979,16.7091,"","","Prijedor","",23041396,"2023-11-11T02:41:15",3,"NO ERROR",9.05,100,987.15,2.59,3.05,3.05],
    [3925,363171,"Vazduh","Libelium","0004A30B0021DF70",44.979,16.7091,"","","Prijedor","",23042126,"2023-11-11T03:41:57",3,"NO ERROR",8.97,100,986.23,4.05,4.78,4.79],
    [3926,363171,"Vazduh","Libelium","0004A30B0021DF70",44.979,16.7091,"","","Prijedor","",23042843,"2023-11-11T04:42:39",3,"NO ERROR",8.8,100,985.6,1.29,1.41,1.41],
    [3927,363171,"Vazduh","Libelium","0004A30B0021DF70",44.979,16.7091,"","","Prijedor","",23043560,"2023-11-11T05:43:21",3,"NO ERROR",8.76,100,984.95,5.92,7.28,7.35],
    [3928,363171,"Vazduh","Libelium","0004A30B0021DF70",44.979,16.7091,"","","Prijedor","",23044160,"2023-11-11T06:44:02",3,"NO ERROR",9.01,100,985.55,2.95,3.41,3.42],
    [3929,363171,"Vazduh","Libelium","0004A30B0021DF70",44.979,16.7091,"","","Prijedor","",23044833,"2023-11-11T07:44:44",3,"NO ERROR",8.89,100,986.23,5.42,6.36,6.39],
    [3930,363171,"Vazduh","Libelium","0004A30B0021DF70",44.979,16.7091,"","","Prijedor","",23045508,"2023-11-11T08:45:26",3,"NO ERROR",9.03,100,987.28,0.38,0.46,0.46],
    [3931,363171,"Vazduh","Libelium","0004A30B0021DF70",44.979,16.7091,"","","Prijedor","",23046112,"2023-11-11T09:46:07",3,"NO ERROR",8.12,100,988.93,0.1,0.11,0.12],
    [3932,363171,"Vazduh","Libelium","0004A30B0021DF70",44.979,16.7091,"","","Prijedor","",23046701,"2023-11-11T10:46:48",3,"NO ERROR",7.43,100,990.88,0.19,0.25,0.25],
    [3933,363171,"Vazduh","Libelium","0004A30B0021DF70",44.979,16.7091,"","","Prijedor","",23047352,"2023-11-11T11:47:29",3,"NO ERROR",7.26,100,991.73,0.21,0.27,0.27],
    [3934,363171,"Vazduh","Libelium","0004A30B0021DF70",44.979,16.7091,"","","Prijedor","",23047975,"2023-11-11T12:48:11",3,"NO ERROR",7.78,100,992.2,0.14,0.15,0.15],
    [3935,363171,"Vazduh","Libelium","0004A30B0021DF70",44.979,16.7091,"","","Prijedor","",23048569,"2023-11-11T13:48:52",3,"NO ERROR",8.12,100,992.11,0.02,0.02,0.02],
    [3936,363171,"Vazduh","Libelium","0004A30B0021DF70",44.979,16.7091,"","","Prijedor","",23049133,"2023-11-11T14:49:39",3,"NO ERROR",9.6,100,992.64,0,0,0],
    [3937,363171,"Vazduh","Libelium","0004A30B0021DF70",44.979,16.7091,"","","Prijedor","",23049690,"2023-11-11T15:50:20",3,"NO ERROR",8.42,100,993.17,0.02,0.1,0.4],
    [3938,363171,"Vazduh","Libelium","0004A30B0021DF70",44.979,16.7091,"","","Prijedor","",23050211,"2023-11-11T16:51:02",3,"NO ERROR",7.37,100,993.81,0.38,0.41,0.41],
    [3939,363171,"Vazduh","Libelium","0004A30B0021DF70",44.979,16.7091,"","","Prijedor","",23050617,"2023-11-11T17:51:43",3,"NO ERROR",6.04,100,994.28,1.24,1.39,1.39],
    [3940,363171,"Vazduh","Libelium","0004A30B0021DF70",44.979,16.7091,"","","Prijedor","",23051011,"2023-11-11T18:52:26",3,"NO ERROR",5.06,100,994.68,1,1.49,1.7],
    [3941,363171,"Vazduh","Libelium","0004A30B0021DF70",44.979,16.7091,"","","Prijedor","",23051486,"2023-11-11T19:53:07",3,"NO ERROR",4.86,100,995.18,2.4,2.93,2.94],
    [3942,363171,"Vazduh","Libelium","0004A30B0021DF70",44.979,16.7091,"","","Prijedor","",23052015,"2023-11-11T20:53:48",3,"NO ERROR",3.93,100,995.28,3.91,4.62,4.63],
    [3943,363171,"Vazduh","Libelium","0004A30B0021DF70",44.979,16.7091,"","","Prijedor","",23052487,"2023-11-11T21:54:30",3,"NO ERROR",3.44,100,995.6,7,9.08,9.12],
    [3944,363171,"Vazduh","Libelium","0004A30B0021DF70",44.979,16.7091,"","","Prijedor","",23053006,"2023-11-11T22:55:11",3,"NO ERROR",2.58,100,996.03,6.31,7.81,7.86],
    [3945,363171,"Vazduh","Libelium","0004A30B0021DF70",44.979,16.7091,"","","Prijedor","",23053569,"2023-11-11T23:55:52",3,"NO ERROR",1.79,100,996.23,5.07,8.66,90.51],
    [3946,363171,"Vazduh","Libelium","0004A30B0021DF70",44.979,16.7091,"","","Prijedor","",23054288,"2023-11-12T00:56:33",3,"NO ERROR",1.28,100,996.27,82.2,127.8,549.32],
    [3947,363171,"Vazduh","Libelium","0004A30B0021DF70",44.979,16.7091,"","","Prijedor","",23054877,"2023-11-12T01:57:15",3,"NO ERROR",1.34,100,996.27,16.85,55.32,705.88],
    [3948,363171,"Vazduh","Libelium","0004A30B0021DF70",44.979,16.7091,"","","Prijedor","",23055335,"2023-11-12T02:57:57",3,"NO ERROR",0.83,100,996.54,6,19.46,389.94],
    [3949,363171,"Vazduh","Libelium","0004A30B0021DF70",44.979,16.7091,"","","Prijedor","",23055828,"2023-11-12T03:58:38",3,"NO ERROR",0.9,100,996.59,4.86,10.56,77.78],
    [3950,363171,"Vazduh","Libelium","0004A30B0021DF70",44.979,16.7091,"","","Prijedor","",23056350,"2023-11-12T04:59:19",3,"NO ERROR",0.52,100,996.61,2.69,11.06,87.29],
    [3951,363171,"Vazduh","Libelium","0004A30B0021DF70",44.979,16.7091,"","","Prijedor","",23056851,"2023-11-12T06:00:00",3,"NO ERROR",0.27,100,996.92,2.35,9.28,208.03],
    [3952,363171,"Vazduh","Libelium","0004A30B0021DF70",44.979,16.7091,"","","Prijedor","",23057314,"2023-11-12T07:00:42",3,"NO ERROR",0.28,100,996.83,2.05,8.52,111.1],
    [3953,363171,"Vazduh","Libelium","0004A30B0021DF70",44.979,16.7091,"","","Prijedor","",23057820,"2023-11-12T08:01:25",3,"NO ERROR",0.75,100,997.34,8.18,31.32,584.93],
    [3954,363171,"Vazduh","Libelium","0004A30B0021DF70",44.979,16.7091,"","","Prijedor","",23058287,"2023-11-12T09:02:06",3,"NO ERROR",1.86,100,997.33,1.1,2.81,34.49],
    [3955,363171,"Vazduh","Libelium","0004A30B0021DF70",44.979,16.7091,"","","Prijedor","",23058722,"2023-11-12T10:02:48",3,"NO ERROR",4.08,100,997.58,3.82,4.44,4.44],
    [3956,363171,"Vazduh","Libelium","0004A30B0021DF70",44.979,16.7091,"","","Prijedor","",23059246,"2023-11-12T11:03:30",3,"NO ERROR",6.8,100,996.91,1.29,1.43,1.43],
    [3957,363171,"Vazduh","Libelium","0004A30B0021DF70",44.979,16.7091,"","","Prijedor","",23059883,"2023-11-12T12:04:11",3,"NO ERROR",9.59,100,996.62,0.37,0.4,0.4],
    [3958,363171,"Vazduh","Libelium","0004A30B0021DF70",44.979,16.7091,"","","Prijedor","",23060499,"2023-11-12T13:04:53",3,"NO ERROR",12.35,91.4,995.89,0.27,0.31,0.31],
    [3959,363171,"Vazduh","Libelium","0004A30B0021DF70",44.979,16.7091,"","","Prijedor","",23061256,"2023-11-12T14:05:35",3,"NO ERROR",12.95,87.2,995.41,0.34,0.47,0.48],
    [3960,363171,"Vazduh","Libelium","0004A30B0021DF70",44.979,16.7091,"","","Prijedor","",23061925,"2023-11-12T15:06:23",3,"NO ERROR",11.59,100,996.14,0.26,0.33,0.34],
    [3961,363171,"Vazduh","Libelium","0004A30B0021DF70",44.979,16.7091,"","","Prijedor","",23062572,"2023-11-12T16:07:05",3,"NO ERROR",10.92,100,996.71,0.18,0.33,0.41],
    [3962,363171,"Vazduh","Libelium","0004A30B0021DF70",44.979,16.7091,"","","Prijedor","",23063134,"2023-11-12T17:07:46",3,"NO ERROR",10.16,100,996.85,0.87,1.02,1.02],
    [3963,363171,"Vazduh","Libelium","0004A30B0021DF70",44.979,16.7091,"","","Prijedor","",23063577,"2023-11-12T18:08:28",3,"NO ERROR",9.36,100,997.1,0.36,0.44,0.44],
    [3964,363171,"Vazduh","Libelium","0004A30B0021DF70",44.979,16.7091,"","","Prijedor","",23064049,"2023-11-12T19:09:10",3,"NO ERROR",8.64,100,997.5,0.56,0.72,0.72],
    [3965,363171,"Vazduh","Libelium","0004A30B0021DF70",44.979,16.7091,"","","Prijedor","",23064666,"2023-11-12T20:09:52",3,"NO ERROR",8.19,100,997.82,2.05,2.52,2.56],
    [3966,363171,"Vazduh","Libelium","0004A30B0021DF70",44.979,16.7091,"","","Prijedor","",23065260,"2023-11-12T21:10:39",3,"NO ERROR",6.46,100,998.3,2.19,2.7,3.24],
    [3967,363171,"Vazduh","Libelium","0004A30B0021DF70",44.979,16.7091,"","","Prijedor","",23065808,"2023-11-12T22:11:20",3,"NO ERROR",5.97,100,998.58,1.66,2.23,2.85],
    [3968,363171,"Vazduh","Libelium","0004A30B0021DF70",44.979,16.7091,"","","Prijedor","",23066356,"2023-11-12T23:12:02",3,"NO ERROR",5.83,100,998.47,1.08,1.28,1.28],
    [3969,363171,"Vazduh","Libelium","0004A30B0021DF70",44.979,16.7091,"","","Prijedor","",23067158,"2023-11-13T00:12:44",3,"NO ERROR",5.33,100,998.87,0.74,0.89,0.9],
    [3970,363171,"Vazduh","Libelium","0004A30B0021DF70",44.979,16.7091,"","","Prijedor","",23067883,"2023-11-13T01:13:26",3,"NO ERROR",4.88,100,999.03,1.92,2.39,2.45],
    [3971,363171,"Vazduh","Libelium","0004A30B0021DF70",44.979,16.7091,"","","Prijedor","",23068497,"2023-11-13T02:14:07",3,"NO ERROR",4.7,100,999.5,4.87,6.39,19.97],
    [3972,363171,"Vazduh","Libelium","0004A30B0021DF70",44.979,16.7091,"","","Prijedor","",23069124,"2023-11-13T03:14:48",3,"NO ERROR",5.24,100,999.78,1.32,1.71,1.72],
    [3973,363171,"Vazduh","Libelium","0004A30B0021DF70",44.979,16.7091,"","","Prijedor","",23069774,"2023-11-13T04:15:31",3,"NO ERROR",4.88,100,999.11,0.69,0.76,0.76],
    [3974,363171,"Vazduh","Libelium","0004A30B0021DF70",44.979,16.7091,"","","Prijedor","",23070419,"2023-11-13T05:16:12",3,"NO ERROR",4.95,100,1000.26,0.18,0.21,0.21],
    [3975,363171,"Vazduh","Libelium","0004A30B0021DF70",44.979,16.7091,"","","Prijedor","",23071026,"2023-11-13T06:16:53",3,"NO ERROR",3.55,100,1000.21,21.82,51.83,938.3],
    [3976,363171,"Vazduh","Libelium","0004A30B0021DF70",44.979,16.7091,"","","Prijedor","",23071599,"2023-11-13T07:17:34",3,"NO ERROR",3.47,100,1000.88,14.08,23.15,285.17],
    [3977,363171,"Vazduh","Libelium","0004A30B0021DF70",44.979,16.7091,"","","Prijedor","",23072162,"2023-11-13T08:18:15",3,"NO ERROR",5.38,100,1000.96,2.9,4.36,11.33],
    [3978,363171,"Vazduh","Libelium","0004A30B0021DF70",44.979,16.7091,"","","Prijedor","",23072633,"2023-11-13T09:19:02",3,"NO ERROR",8.42,100,1001.34,0.63,0.72,0.72],
    [3979,363171,"Vazduh","Libelium","0004A30B0021DF70",44.979,16.7091,"","","Prijedor","",23073094,"2023-11-13T10:19:43",3,"NO ERROR",10.03,100,1000.86,0.37,0.57,0.6],
    [3980,363171,"Vazduh","Libelium","0004A30B0021DF70",44.979,16.7091,"","","Prijedor","",23073710,"2023-11-13T11:20:24",3,"NO ERROR",13.56,94.5,1000.83,0.24,0.33,19.56],
    [3981,363171,"Vazduh","Libelium","0004A30B0021DF70",44.979,16.7091,"","","Prijedor","",23074421,"2023-11-13T12:21:12",3,"NO ERROR",15.99,80.5,1000.59,0.25,0.34,0.34],
    [3982,363171,"Vazduh","Libelium","0004A30B0021DF70",44.979,16.7091,"","","Prijedor","",23075034,"2023-11-13T13:21:53",3,"NO ERROR",16.19,79.5,1000.02,0.37,0.55,0.57],
    [3983,363171,"Vazduh","Libelium","0004A30B0021DF70",44.979,16.7091,"","","Prijedor","",23075722,"2023-11-13T14:22:35",3,"NO ERROR",17.21,69.9,999.29,0.1,0.16,0.23],
    [3984,363171,"Vazduh","Libelium","0004A30B0021DF70",44.979,16.7091,"","","Prijedor","",23076326,"2023-11-13T15:23:16",3,"NO ERROR",16.03,79.4,999.64,2.03,2.69,2.84],
    [3985,363171,"Vazduh","Libelium","0004A30B0021DF70",44.979,16.7091,"","","Prijedor","",23076900,"2023-11-13T16:23:57",3,"NO ERROR",14.36,92.5,999.55,1.66,2.43,2.68],
    [3986,363171,"Vazduh","Libelium","0004A30B0021DF70",44.979,16.7091,"","","Prijedor","",23077380,"2023-11-13T17:24:38",3,"NO ERROR",12.92,100,999.55,1.27,1.61,1.75],
    [3987,363171,"Vazduh","Libelium","0004A30B0021DF70",44.979,16.7091,"","","Prijedor","",23077820,"2023-11-13T18:25:19",3,"NO ERROR",11.7,100,999.79,1.85,2.22,2.59],
    [3988,363171,"Vazduh","Libelium","0004A30B0021DF70",44.979,16.7091,"","","Prijedor","",23078346,"2023-11-13T19:26:00",3,"NO ERROR",11.6,100,999.64,2.63,3.12,3.16],
    [3989,363171,"Vazduh","Libelium","0004A30B0021DF70",44.979,16.7091,"","","Prijedor","",23079005,"2023-11-13T20:26:42",3,"NO ERROR",11.39,100,999.43,0.8,0.97,0.98],
    [3990,363171,"Vazduh","Libelium","0004A30B0021DF70",44.979,16.7091,"","","Prijedor","",23079574,"2023-11-13T21:27:24",3,"NO ERROR",10.72,100,999.78,2.05,2.36,2.37],
    [3991,363171,"Vazduh","Libelium","0004A30B0021DF70",44.979,16.7091,"","","Prijedor","",23080152,"2023-11-13T22:28:05",3,"NO ERROR",10.77,100,999.87,1.61,2.11,2.24],
    [3992,363171,"Vazduh","Libelium","0004A30B0021DF70",44.979,16.7091,"","","Prijedor","",23080770,"2023-11-13T23:28:47",3,"NO ERROR",10.41,100,999.64,1.8,2.21,2.23],
    [3993,363171,"Vazduh","Libelium","0004A30B0021DF70",44.979,16.7091,"","","Prijedor","",23081588,"2023-11-14T00:29:28",3,"NO ERROR",10.34,100,999.08,0.77,1.03,1.08],
    [3994,363171,"Vazduh","Libelium","0004A30B0021DF70",44.979,16.7091,"","","Prijedor","",23082185,"2023-11-14T01:30:16",3,"NO ERROR",9.95,100,998.98,0.92,1.03,1.04],
    [3995,363171,"Vazduh","Libelium","0004A30B0021DF70",44.979,16.7091,"","","Prijedor","",23082783,"2023-11-14T02:30:57",3,"NO ERROR",9,100,998.96,1.4,1.75,1.78],
    [3996,363171,"Vazduh","Libelium","0004A30B0021DF70",44.979,16.7091,"","","Prijedor","",23083375,"2023-11-14T03:31:45",3,"NO ERROR",8.5,100,998.71,1.26,1.4,1.41],
    [3997,363171,"Vazduh","Libelium","0004A30B0021DF70",44.979,16.7091,"","","Prijedor","",23083984,"2023-11-14T04:32:26",3,"NO ERROR",8.4,100,998.72,0.93,1.24,1.27],
    [3998,363171,"Vazduh","Libelium","0004A30B0021DF70",44.979,16.7091,"","","Prijedor","",23084557,"2023-11-14T05:33:07",3,"NO ERROR",7.7,100,998.45,1.03,1.31,1.32],
    [3999,363171,"Vazduh","Libelium","0004A30B0021DF70",44.979,16.7091,"","","Prijedor","",23085110,"2023-11-14T06:33:48",3,"NO ERROR",7.6,100,998.37,1.2,1.57,1.62],
    [4000,363171,"Vazduh","Libelium","0004A30B0021DF70",44.979,16.7091,"","","Prijedor","",23085621,"2023-11-14T07:34:29",3,"NO ERROR",7.88,100,998.34,1.79,2.24,2.37],
    [4001,363171,"Vazduh","Libelium","0004A30B0021DF70",44.979,16.7091,"","","Prijedor","",23086711,"2023-11-14T09:35:53",3,"NO ERROR",12.17,100,998.12,0.58,0.66,0.66],
    [4002,363171,"Vazduh","Libelium","0004A30B0021DF70",44.979,16.7091,"","","Prijedor","",23087978,"2023-11-14T11:37:16",3,"NO ERROR",18.92,91.7,998.4,0.64,0.72,0.72],
    [4003,363171,"Vazduh","Libelium","0004A30B0021DF70",44.979,16.7091,"","","Prijedor","",23088646,"2023-11-14T12:37:57",3,"NO ERROR",21.62,76.9,998.36,0.27,0.35,0.37],
    [4004,363171,"Vazduh","Libelium","0004A30B0021DF70",44.979,16.7091,"","","Prijedor","",23089885,"2023-11-14T14:39:20",3,"NO ERROR",19.79,80.5,997.68,1.09,2.05,2.7],
    [4005,363171,"Vazduh","Libelium","0004A30B0021DF70",44.979,16.7091,"","","Prijedor","",23092514,"2023-11-14T19:42:47",3,"NO ERROR",16.35,100,995.71,1.04,1.47,1.61],
    [4006,363171,"Vazduh","Libelium","0004A30B0021DF70",44.979,16.7091,"","","Prijedor","",23099040,"2023-11-15T06:50:27",3,"NO ERROR",14.05,100,995.15,0.07,0.09,0.09],
    [4007,363171,"Vazduh","Libelium","0004A30B0021DF70",44.979,16.7091,"","","Prijedor","",23099606,"2023-11-15T07:51:09",3,"NO ERROR",14.23,100,995.75,0.11,0.11,0.11],
    [4008,363171,"Vazduh","Libelium","0004A30B0021DF70",44.979,16.7091,"","","Prijedor","",23100188,"2023-11-15T08:51:51",3,"NO ERROR",14.68,100,997.03,0.66,0.71,0.71],
    [4009,363171,"Vazduh","Libelium","0004A30B0021DF70",44.979,16.7091,"","","Prijedor","",23100716,"2023-11-15T09:52:32",3,"NO ERROR",15.01,100,997.7,0.18,0.19,0.2],
    [4010,363171,"Vazduh","Libelium","0004A30B0021DF70",44.979,16.7091,"","","Prijedor","",23101281,"2023-11-15T10:53:14",3,"NO ERROR",15.26,100,998.36,0.07,0.09,0.09],
    [4011,363171,"Vazduh","Libelium","0004A30B0021DF70",44.979,16.7091,"","","Prijedor","",23101910,"2023-11-15T11:53:56",3,"NO ERROR",15.39,100,998.56,0.07,0.08,0.08],
    [4012,363171,"Vazduh","Libelium","0004A30B0021DF70",44.979,16.7091,"","","Prijedor","",23102495,"2023-11-15T12:54:37",3,"NO ERROR",15.81,100,998.78,0.02,0.02,0.02],
    [4013,363171,"Vazduh","Libelium","0004A30B0021DF70",44.979,16.7091,"","","Prijedor","",23103049,"2023-11-15T13:55:19",3,"NO ERROR",17.02,100,999.49,0.14,0.16,0.16],
    [4014,363171,"Vazduh","Libelium","0004A30B0021DF70",44.979,16.7091,"","","Prijedor","",23103600,"2023-11-15T14:56:02",3,"NO ERROR",19.01,86.5,999.75,0.02,0.02,0.02],
    [4015,363171,"Vazduh","Libelium","0004A30B0021DF70",44.979,16.7091,"","","Prijedor","",23104130,"2023-11-15T15:56:43",3,"NO ERROR",15.4,100,1000.46,0.11,0.23,0.31],
    [4016,363171,"Vazduh","Libelium","0004A30B0021DF70",44.979,16.7091,"","","Prijedor","",23104653,"2023-11-15T16:57:24",3,"NO ERROR",13.8,100,1001.3,0.54,0.68,0.69],
    [4017,363171,"Vazduh","Libelium","0004A30B0021DF70",44.979,16.7091,"","","Prijedor","",23105071,"2023-11-15T17:58:05",3,"NO ERROR",12.86,100,1002.16,0.62,1.06,2.03],
    [4018,363171,"Vazduh","Libelium","0004A30B0021DF70",44.979,16.7091,"","","Prijedor","",23105505,"2023-11-15T18:58:46",3,"NO ERROR",11.59,100,1002.73,1.16,1.36,1.37],
    [4019,363171,"Vazduh","Libelium","0004A30B0021DF70",44.979,16.7091,"","","Prijedor","",23106047,"2023-11-15T19:59:28",3,"NO ERROR",10.2,100,1003.56,0.79,0.92,0.92],
    [4020,363171,"Vazduh","Libelium","0004A30B0021DF70",44.979,16.7091,"","","Prijedor","",23106582,"2023-11-15T21:00:09",3,"NO ERROR",8.8,100,1004.35,1.99,2.37,2.38],
    [4021,363171,"Vazduh","Libelium","0004A30B0021DF70",44.979,16.7091,"","","Prijedor","",23107102,"2023-11-15T22:00:50",3,"NO ERROR",8.67,100,1004.66,2.66,3.21,3.32],
    [4022,363171,"Vazduh","Libelium","0004A30B0021DF70",44.979,16.7091,"","","Prijedor","",23107583,"2023-11-15T23:01:32",3,"NO ERROR",7.79,100,1005.17,0.68,0.82,0.84],
    [4023,363171,"Vazduh","Libelium","0004A30B0021DF70",44.979,16.7091,"","","Prijedor","",23108128,"2023-11-16T00:02:14",3,"NO ERROR",7.53,100,1005.74,0.77,0.93,0.95],
    [4024,363171,"Vazduh","Libelium","0004A30B0021DF70",44.979,16.7091,"","","Prijedor","",23108603,"2023-11-16T01:02:55",3,"NO ERROR",6.65,100,1005.83,0.48,0.63,0.64],
    [4025,363171,"Vazduh","Libelium","0004A30B0021DF70",44.979,16.7091,"","","Prijedor","",23109041,"2023-11-16T02:03:43",3,"NO ERROR",5.65,100,1006.06,1.58,1.9,1.91],
    [4026,363171,"Vazduh","Libelium","0004A30B0021DF70",44.979,16.7091,"","","Prijedor","",23109466,"2023-11-16T03:04:24",3,"NO ERROR",4.12,100,1006.09,0.38,0.48,0.49],
    [4027,363171,"Vazduh","Libelium","0004A30B0021DF70",44.979,16.7091,"","","Prijedor","",23109904,"2023-11-16T04:05:11",3,"NO ERROR",3.88,100,1006.33,6.54,9.53,56.79],
    [4028,363171,"Vazduh","Libelium","0004A30B0021DF70",44.979,16.7091,"","","Prijedor","",23110323,"2023-11-16T05:05:52",3,"NO ERROR",4.26,100,1006.65,5.85,9.42,57.79],
    [4029,363171,"Vazduh","Libelium","0004A30B0021DF70",44.979,16.7091,"","","Prijedor","",23110770,"2023-11-16T06:06:33",3,"NO ERROR",3.71,100,1006.89,8.47,20.61,81.17],
    [4030,363171,"Vazduh","Libelium","0004A30B0021DF70",44.979,16.7091,"","","Prijedor","",23111189,"2023-11-16T07:07:14",3,"NO ERROR",3.15,100,1007.22,1.91,8.46,70],
    [4031,363171,"Vazduh","Libelium","0004A30B0021DF70",44.979,16.7091,"","","Prijedor","",23111731,"2023-11-16T08:07:55",3,"NO ERROR",3.8,100,1007.5,2.5,3.11,3.12],
    [4032,363171,"Vazduh","Libelium","0004A30B0021DF70",44.979,16.7091,"","","Prijedor","",23112235,"2023-11-16T09:08:37",3,"NO ERROR",6.9,100,1007.29,0.36,0.48,0.48],
    [4033,363171,"Vazduh","Libelium","0004A30B0021DF70",44.979,16.7091,"","","Prijedor","",23112690,"2023-11-16T10:09:19",3,"NO ERROR",9.28,100,1006.78,0.03,0.03,0.03],
    [4034,363171,"Vazduh","Libelium","0004A30B0021DF70",44.979,16.7091,"","","Prijedor","",23113331,"2023-11-16T11:10:00",3,"NO ERROR",11.33,100,1005.74,0.03,0.03,0.03],
    [4035,363171,"Vazduh","Libelium","0004A30B0021DF70",44.979,16.7091,"","","Prijedor","",23114005,"2023-11-16T12:10:41",3,"NO ERROR",13.98,94.5,1004.45,0.02,0.02,0.02],
    [4036,363171,"Vazduh","Libelium","0004A30B0021DF70",44.979,16.7091,"","","Prijedor","",23114601,"2023-11-16T13:11:29",3,"NO ERROR",16.12,83.7,1003.25,0.3,0.34,0.34],
    [4037,363171,"Vazduh","Libelium","0004A30B0021DF70",44.979,16.7091,"","","Prijedor","",23115220,"2023-11-16T14:12:11",3,"NO ERROR",15.96,68.5,1002.4,0.37,0.66,0.71],
    [4038,363171,"Vazduh","Libelium","0004A30B0021DF70",44.979,16.7091,"","","Prijedor","",23115791,"2023-11-16T15:12:53",3,"NO ERROR",15.15,71.5,1001.59,0.03,0.12,11.18],
    [4039,363171,"Vazduh","Libelium","0004A30B0021DF70",44.979,16.7091,"","","Prijedor","",23116374,"2023-11-16T16:13:34",3,"NO ERROR",13.48,84.8,1000.53,0.17,0.23,0.23],
    [4040,363171,"Vazduh","Libelium","0004A30B0021DF70",44.979,16.7091,"","","Prijedor","",23116889,"2023-11-16T17:14:15",3,"NO ERROR",12.47,92.5,999.24,0.1,0.13,0.13],
    [4041,363171,"Vazduh","Libelium","0004A30B0021DF70",44.979,16.7091,"","","Prijedor","",23117317,"2023-11-16T18:14:56",3,"NO ERROR",12.02,98.7,999.31,0.22,0.36,0.45],
    [4042,363171,"Vazduh","Libelium","0004A30B0021DF70",44.979,16.7091,"","","Prijedor","",23117817,"2023-11-16T19:15:40",3,"NO ERROR",10.2,100,998.78,0.94,1.21,1.37],
    [4043,363171,"Vazduh","Libelium","0004A30B0021DF70",44.979,16.7091,"","","Prijedor","",23118427,"2023-11-16T20:16:21",3,"NO ERROR",9.18,100,997.85,2.16,2.5,2.51],
    [4044,363171,"Vazduh","Libelium","0004A30B0021DF70",44.979,16.7091,"","","Prijedor","",23119000,"2023-11-16T21:17:02",3,"NO ERROR",9.4,100,997.22,1.45,1.71,1.72],
    [4045,363171,"Vazduh","Libelium","0004A30B0021DF70",44.979,16.7091,"","","Prijedor","",23119577,"2023-11-16T22:18:19",3,"NO ERROR",9.25,100,996.4,0.78,0.93,0.94],
    [4046,363171,"Vazduh","Libelium","0004A30B0021DF70",44.979,16.7091,"","","Prijedor","",23120156,"2023-11-16T23:19:00",3,"NO ERROR",9.15,100,995.09,1.18,1.52,1.53],
    [4047,363171,"Vazduh","Libelium","0004A30B0021DF70",44.979,16.7091,"","","Prijedor","",23120990,"2023-11-17T00:19:42",3,"NO ERROR",9.96,100,994.4,0.72,0.79,0.79],
    [4048,363171,"Vazduh","Libelium","0004A30B0021DF70",44.979,16.7091,"","","Prijedor","",23121578,"2023-11-17T01:20:23",3,"NO ERROR",10.49,100,993.98,0.27,0.33,0.33],
    [4049,363171,"Vazduh","Libelium","0004A30B0021DF70",44.979,16.7091,"","","Prijedor","",23122141,"2023-11-17T02:21:05",3,"NO ERROR",10.62,100,993.53,0.5,0.59,0.59],
    [4050,363171,"Vazduh","Libelium","0004A30B0021DF70",44.979,16.7091,"","","Prijedor","",23122720,"2023-11-17T03:21:47",3,"NO ERROR",10.36,100,992.82,0.19,0.22,0.22],
    [4051,363171,"Vazduh","Libelium","0004A30B0021DF70",44.979,16.7091,"","","Prijedor","",23123328,"2023-11-17T04:22:29",3,"NO ERROR",11.72,100,992.4,0.45,0.54,0.54],
    [4052,363171,"Vazduh","Libelium","0004A30B0021DF70",44.979,16.7091,"","","Prijedor","",23123922,"2023-11-17T05:23:10",3,"NO ERROR",10.92,100,991.6,0.17,0.24,0.26],
    [4053,363171,"Vazduh","Libelium","0004A30B0021DF70",44.979,16.7091,"","","Prijedor","",23124443,"2023-11-17T06:23:53",3,"NO ERROR",11.19,100,991.57,0.97,1.34,1.82],
    [4054,363171,"Vazduh","Libelium","0004A30B0021DF70",44.979,16.7091,"","","Prijedor","",23125019,"2023-11-17T07:24:35",3,"NO ERROR",10,100,991.91,0.49,0.85,0.91],
    [4055,363171,"Vazduh","Libelium","0004A30B0021DF70",44.979,16.7091,"","","Prijedor","",23125623,"2023-11-17T08:25:17",3,"NO ERROR",10.2,100,992.38,0.08,0.09,0.09],
    [4056,363171,"Vazduh","Libelium","0004A30B0021DF70",44.979,16.7091,"","","Prijedor","",23126156,"2023-11-17T09:25:59",3,"NO ERROR",10.34,100,992.58,0.43,0.58,0.61],
    [4057,363171,"Vazduh","Libelium","0004A30B0021DF70",44.979,16.7091,"","","Prijedor","",23126617,"2023-11-17T10:26:41",3,"NO ERROR",12.26,100,994.14,0.05,0.05,0.05],
    [4058,363171,"Vazduh","Libelium","0004A30B0021DF70",44.979,16.7091,"","","Prijedor","",23127234,"2023-11-17T11:27:22",3,"NO ERROR",13.26,100,994.04,0.19,0.22,0.22],
    [4059,363171,"Vazduh","Libelium","0004A30B0021DF70",44.979,16.7091,"","","Prijedor","",23127852,"2023-11-17T12:28:10",3,"NO ERROR",10.49,100,995.25,0.46,0.67,0.68],
    [4060,363171,"Vazduh","Libelium","0004A30B0021DF70",44.979,16.7091,"","","Prijedor","",23128425,"2023-11-17T13:28:52",3,"NO ERROR",11.76,100,996.32,0.13,0.14,0.14],
    [4061,363171,"Vazduh","Libelium","0004A30B0021DF70",44.979,16.7091,"","","Prijedor","",23129016,"2023-11-17T14:29:34",3,"NO ERROR",11.19,87.5,997.83,0.13,0.22,0.23],
    [4062,363171,"Vazduh","Libelium","0004A30B0021DF70",44.979,16.7091,"","","Prijedor","",23129581,"2023-11-17T15:30:16",3,"NO ERROR",10.28,87.8,998.75,0.11,0.19,0.21],
    [4063,363171,"Vazduh","Libelium","0004A30B0021DF70",44.979,16.7091,"","","Prijedor","",23130129,"2023-11-17T16:30:58",3,"NO ERROR",8.59,99.9,999.56,0.28,0.39,0.41],
    [4064,363171,"Vazduh","Libelium","0004A30B0021DF70",44.979,16.7091,"","","Prijedor","",23130561,"2023-11-17T17:31:40",3,"NO ERROR",7.5,100,1000.7,1.55,1.98,2.02],
    [4065,363171,"Vazduh","Libelium","0004A30B0021DF70",44.979,16.7091,"","","Prijedor","",23130952,"2023-11-17T18:32:22",3,"NO ERROR",5.94,100,1001.33,0.4,0.49,0.52],
    [4066,363171,"Vazduh","Libelium","0004A30B0021DF70",44.979,16.7091,"","","Prijedor","",23131412,"2023-11-17T19:33:03",3,"NO ERROR",4.22,100,1002.03,0.8,1.15,1.17],
    [4067,363171,"Vazduh","Libelium","0004A30B0021DF70",44.979,16.7091,"","","Prijedor","",23131966,"2023-11-17T20:33:45",3,"NO ERROR",3.16,100,1002.86,0.17,0.25,0.26],
    [4068,363171,"Vazduh","Libelium","0004A30B0021DF70",44.979,16.7091,"","","Prijedor","",23132441,"2023-11-17T21:34:27",3,"NO ERROR",2.31,100,1003.07,0.1,0.18,0.25],
    [4069,363171,"Vazduh","Libelium","0004A30B0021DF70",44.979,16.7091,"","","Prijedor","",23132943,"2023-11-17T22:35:08",3,"NO ERROR",1.58,100,1003.73,0.07,0.07,0.07],
    [4070,363171,"Vazduh","Libelium","0004A30B0021DF70",44.979,16.7091,"","","Prijedor","",23133475,"2023-11-17T23:35:55",3,"NO ERROR",0.53,100,1004.61,0.38,0.46,0.46],
    [4071,363171,"Vazduh","Libelium","0004A30B0021DF70",44.979,16.7091,"","","Prijedor","",23134154,"2023-11-18T00:36:36",3,"NO ERROR",-0.12,100,1005.44,0.46,0.48,0.48],
    [4072,363171,"Vazduh","Libelium","0004A30B0021DF70",44.979,16.7091,"","","Prijedor","",23134626,"2023-11-18T01:37:17",3,"NO ERROR",-0.43,100,1006.24,0.56,0.65,0.65],
    [4073,363171,"Vazduh","Libelium","0004A30B0021DF70",44.979,16.7091,"","","Prijedor","",23135126,"2023-11-18T02:37:59",3,"NO ERROR",-1.1,100,1006.68,0.41,0.43,0.43],
    [4074,363171,"Vazduh","Libelium","0004A30B0021DF70",44.979,16.7091,"","","Prijedor","",23135600,"2023-11-18T03:38:41",3,"NO ERROR",-1.26,100,1007.27,0.17,0.2,0.2],
    [4075,363171,"Vazduh","Libelium","0004A30B0021DF70",44.979,16.7091,"","","Prijedor","",23136140,"2023-11-18T04:39:23",3,"NO ERROR",-2.08,100,1007.88,0.06,0.08,0.08],
    [4076,363171,"Vazduh","Libelium","0004A30B0021DF70",44.979,16.7091,"","","Prijedor","",23136673,"2023-11-18T05:40:04",3,"NO ERROR",-1.97,100,1008.39,2.29,5.1,49.69],
    [4077,363171,"Vazduh","Libelium","0004A30B0021DF70",44.979,16.7091,"","","Prijedor","",23137119,"2023-11-18T06:40:46",3,"NO ERROR",-1.76,100,1008.8,2.43,3.59,14.04],
    [4078,363171,"Vazduh","Libelium","0004A30B0021DF70",44.979,16.7091,"","","Prijedor","",23137604,"2023-11-18T07:41:34",3,"NO ERROR",-1.77,100,1009.28,6.49,13.18,42.3],
    [4079,363171,"Vazduh","Libelium","0004A30B0021DF70",44.979,16.7091,"","","Prijedor","",23138110,"2023-11-18T08:42:15",3,"NO ERROR",-0.43,100,1009.92,18.17,23.24,24.92],
    [4080,363171,"Vazduh","Libelium","0004A30B0021DF70",44.979,16.7091,"","","Prijedor","",23138568,"2023-11-18T09:42:57",3,"NO ERROR",1.38,100,1009.99,13.7,17.05,19.9],
    [4081,363171,"Vazduh","Libelium","0004A30B0021DF70",44.979,16.7091,"","","Prijedor","",23139019,"2023-11-18T10:43:39",3,"NO ERROR",2.73,100,1009.62,0.98,1.19,1.19],
    [4082,363171,"Vazduh","Libelium","0004A30B0021DF70",44.979,16.7091,"","","Prijedor","",23139581,"2023-11-18T11:44:21",3,"NO ERROR",5.29,100,1009.32,0.48,0.66,0.67],
    [4083,363171,"Vazduh","Libelium","0004A30B0021DF70",44.979,16.7091,"","","Prijedor","",23140144,"2023-11-18T12:45:02",3,"NO ERROR",9.19,85.8,1008.94,0,0,0],
    [4084,363171,"Vazduh","Libelium","0004A30B0021DF70",44.979,16.7091,"","","Prijedor","",23140785,"2023-11-18T13:45:43",3,"NO ERROR",9.92,64.2,1008.78,0.05,0.05,0.05],
    [4085,363171,"Vazduh","Libelium","0004A30B0021DF70",44.979,16.7091,"","","Prijedor","",23141467,"2023-11-18T14:46:24",3,"NO ERROR",11.73,56.9,1008.85,0.08,0.09,0.09],
    [4086,363171,"Vazduh","Libelium","0004A30B0021DF70",44.979,16.7091,"","","Prijedor","",23142106,"2023-11-18T15:47:05",3,"NO ERROR",7.89,71.8,1008.86,0.06,0.13,0.14],
    [4087,363171,"Vazduh","Libelium","0004A30B0021DF70",44.979,16.7091,"","","Prijedor","",23142649,"2023-11-18T16:47:46",3,"NO ERROR",5.95,88.4,1009.01,0.91,1.11,1.12],
    [4088,363171,"Vazduh","Libelium","0004A30B0021DF70",44.979,16.7091,"","","Prijedor","",23143107,"2023-11-18T17:48:27",3,"NO ERROR",4.09,100,1009.95,1.24,1.63,1.82],
    [4089,363171,"Vazduh","Libelium","0004A30B0021DF70",44.979,16.7091,"","","Prijedor","",23143543,"2023-11-18T18:49:15",3,"NO ERROR",2.34,100,1010.73,1.1,1.21,1.21],
    [4090,363171,"Vazduh","Libelium","0004A30B0021DF70",44.979,16.7091,"","","Prijedor","",23144031,"2023-11-18T19:49:57",3,"NO ERROR",1.54,100,1010.83,1.67,1.91,1.91],
    [4091,363171,"Vazduh","Libelium","0004A30B0021DF70",44.979,16.7091,"","","Prijedor","",23144563,"2023-11-18T20:50:40",3,"NO ERROR",0.36,100,1011.13,0.94,1.05,1.05],
    [4092,363171,"Vazduh","Libelium","0004A30B0021DF70",44.979,16.7091,"","","Prijedor","",23145024,"2023-11-18T21:51:21",3,"NO ERROR",-0.09,100,1011.13,0.22,0.23,0.23],
    [4093,363171,"Vazduh","Libelium","0004A30B0021DF70",44.979,16.7091,"","","Prijedor","",23145504,"2023-11-18T22:52:02",3,"NO ERROR",-0.18,100,1010.82,2.76,3.24,3.25],
    [4094,363171,"Vazduh","Libelium","0004A30B0021DF70",44.979,16.7091,"","","Prijedor","",23146003,"2023-11-18T23:52:43",3,"NO ERROR",-1.34,100,1010.77,0.68,0.93,0.96],
    [4095,363171,"Vazduh","Libelium","0004A30B0021DF70",44.979,16.7091,"","","Prijedor","",23146754,"2023-11-19T00:53:31",3,"NO ERROR",-0.62,100,1010.27,2.12,2.5,2.51],
    [4096,363171,"Vazduh","Libelium","0004A30B0021DF70",44.979,16.7091,"","","Prijedor","",23147341,"2023-11-19T01:54:13",3,"NO ERROR",-0.38,100,1009.79,3.44,4.03,4.04],
    [4097,363171,"Vazduh","Libelium","0004A30B0021DF70",44.979,16.7091,"","","Prijedor","",23147867,"2023-11-19T02:54:55",3,"NO ERROR",0.03,100,1009.46,0.68,0.77,0.77],
    [4098,363171,"Vazduh","Libelium","0004A30B0021DF70",44.979,16.7091,"","","Prijedor","",23148444,"2023-11-19T03:55:36",3,"NO ERROR",-1.63,100,1008.69,0.8,0.93,0.93],
    [4099,363171,"Vazduh","Libelium","0004A30B0021DF70",44.979,16.7091,"","","Prijedor","",23149062,"2023-11-19T04:56:18",3,"NO ERROR",-1.37,100,1007.53,1.06,1.18,1.18],
    [4100,363171,"Vazduh","Libelium","0004A30B0021DF70",44.979,16.7091,"","","Prijedor","",23149620,"2023-11-19T05:56:59",3,"NO ERROR",-0.52,100,1006.87,0.68,0.71,0.71],
    [4101,363171,"Vazduh","Libelium","0004A30B0021DF70",44.979,16.7091,"","","Prijedor","",23150149,"2023-11-19T06:57:40",3,"NO ERROR",-0.91,100,1006.49,0.17,0.17,0.17],
    [4102,363171,"Vazduh","Libelium","0004A30B0021DF70",44.979,16.7091,"","","Prijedor","",23150680,"2023-11-19T07:58:22",3,"NO ERROR",0.73,100,1006.23,0.37,0.52,0.53],
    [4103,363171,"Vazduh","Libelium","0004A30B0021DF70",44.979,16.7091,"","","Prijedor","",23151155,"2023-11-19T08:59:04",3,"NO ERROR",2.57,100,1005.91,0.02,0.05,0.05],
    [4104,363171,"Vazduh","Libelium","0004A30B0021DF70",44.979,16.7091,"","","Prijedor","",23151578,"2023-11-19T09:59:45",3,"NO ERROR",5.39,98.6,1005.87,0.03,0.06,0.06],
    [4105,363171,"Vazduh","Libelium","0004A30B0021DF70",44.979,16.7091,"","","Prijedor","",23152041,"2023-11-19T11:00:32",3,"NO ERROR",7.14,83.5,1004.76,0.07,0.08,0.08],
    [4106,363171,"Vazduh","Libelium","0004A30B0021DF70",44.979,16.7091,"","","Prijedor","",23152640,"2023-11-19T12:01:13",3,"NO ERROR",8.69,76,1003.44,0.03,0.03,0.03],
    [4107,363171,"Vazduh","Libelium","0004A30B0021DF70",44.979,16.7091,"","","Prijedor","",23153240,"2023-11-19T13:01:55",3,"NO ERROR",10.28,67.1,1002.62,0.06,0.08,0.08],
    [4108,363171,"Vazduh","Libelium","0004A30B0021DF70",44.979,16.7091,"","","Prijedor","",23153821,"2023-11-19T14:02:36",3,"NO ERROR",10.52,65.7,1001.78,0.03,0.08,0.09],
    [4109,363171,"Vazduh","Libelium","0004A30B0021DF70",44.979,16.7091,"","","Prijedor","",23154386,"2023-11-19T15:03:18",3,"NO ERROR",14.58,56,1001.8,0.08,0.09,0.09],
    [4110,363171,"Vazduh","Libelium","0004A30B0021DF70",44.979,16.7091,"","","Prijedor","",23154941,"2023-11-19T16:03:59",3,"NO ERROR",9.3,70.9,1001.36,0.3,0.32,0.32],
    [4111,363171,"Vazduh","Libelium","0004A30B0021DF70",44.979,16.7091,"","","Prijedor","",23155441,"2023-11-19T17:04:47",3,"NO ERROR",6.94,94,1001.56,1.56,2.01,2.04],
    [4112,363171,"Vazduh","Libelium","0004A30B0021DF70",44.979,16.7091,"","","Prijedor","",23155870,"2023-11-19T18:05:29",3,"NO ERROR",5.04,100,1002.05,0.77,0.96,0.99],
    [4113,363171,"Vazduh","Libelium","0004A30B0021DF70",44.979,16.7091,"","","Prijedor","",23156349,"2023-11-19T19:06:11",3,"NO ERROR",4.12,100,1002.17,1.44,1.95,2.11],
    [4114,363171,"Vazduh","Libelium","0004A30B0021DF70",44.979,16.7091,"","","Prijedor","",23156866,"2023-11-19T20:06:53",3,"NO ERROR",3.3,100,1002.13,0.74,0.92,0.92],
    [4115,363171,"Vazduh","Libelium","0004A30B0021DF70",44.979,16.7091,"","","Prijedor","",23157387,"2023-11-19T21:07:34",3,"NO ERROR",2.67,100,1002.3,1.88,2.3,2.31],
    [4116,363171,"Vazduh","Libelium","0004A30B0021DF70",44.979,16.7091,"","","Prijedor","",23157884,"2023-11-19T22:08:16",3,"NO ERROR",1.54,100,1002.01,0.83,1.06,1.06],
    [4117,363171,"Vazduh","Libelium","0004A30B0021DF70",44.979,16.7091,"","","Prijedor","",23158365,"2023-11-19T23:08:57",3,"NO ERROR",0.97,100,1002.24,0.52,0.67,0.69],
    [4118,363171,"Vazduh","Libelium","0004A30B0021DF70",44.979,16.7091,"","","Prijedor","",23159106,"2023-11-20T00:09:39",3,"NO ERROR",0.69,100,1002.18,0.3,0.38,0.39],
    [4119,363171,"Vazduh","Libelium","0004A30B0021DF70",44.979,16.7091,"","","Prijedor","",23159692,"2023-11-20T01:10:21",3,"NO ERROR",0.68,100,1001.88,0.63,0.98,1.01],
    [4120,363171,"Vazduh","Libelium","0004A30B0021DF70",44.979,16.7091,"","","Prijedor","",23160208,"2023-11-20T02:11:03",3,"NO ERROR",0.38,100,1002.09,0.58,0.69,0.69],
    [4121,363171,"Vazduh","Libelium","0004A30B0021DF70",44.979,16.7091,"","","Prijedor","",23160717,"2023-11-20T03:11:44",3,"NO ERROR",0.22,100,1001.95,0.48,0.61,0.93],
    [4122,363171,"Vazduh","Libelium","0004A30B0021DF70",44.979,16.7091,"","","Prijedor","",23161274,"2023-11-20T04:12:31",3,"NO ERROR",0.05,100,1001.76,0.73,0.8,0.8],
    [4123,363171,"Vazduh","Libelium","0004A30B0021DF70",44.979,16.7091,"","","Prijedor","",23161844,"2023-11-20T05:13:12",3,"NO ERROR",0.05,100,1001.81,0.71,0.78,0.78],
    [4124,363171,"Vazduh","Libelium","0004A30B0021DF70",44.979,16.7091,"","","Prijedor","",23162383,"2023-11-20T06:13:53",3,"NO ERROR",0.44,100,1001.48,1.19,1.44,1.45],
    [4125,363171,"Vazduh","Libelium","0004A30B0021DF70",44.979,16.7091,"","","Prijedor","",23162871,"2023-11-20T07:14:42",3,"NO ERROR",-0.03,100,1001.86,0.66,1.01,1.19],
    [4126,363171,"Vazduh","Libelium","0004A30B0021DF70",44.979,16.7091,"","","Prijedor","",23163367,"2023-11-20T08:15:24",3,"NO ERROR",1.58,100,1001.95,0.29,0.33,0.33],
    [4127,363171,"Vazduh","Libelium","0004A30B0021DF70",44.979,16.7091,"","","Prijedor","",23163841,"2023-11-20T09:16:12",3,"NO ERROR",2.3,100,1002.06,0.7,0.76,0.76],
    [4128,363171,"Vazduh","Libelium","0004A30B0021DF70",44.979,16.7091,"","","Prijedor","",23164223,"2023-11-20T10:16:54",3,"NO ERROR",4.6,100,1001.83,1.05,1.46,1.59],
    [4129,363171,"Vazduh","Libelium","0004A30B0021DF70",44.979,16.7091,"","","Prijedor","",23164701,"2023-11-20T11:17:36",3,"NO ERROR",7.01,100,1000.91,0.89,1.32,1.38],
    [4130,363171,"Vazduh","Libelium","0004A30B0021DF70",44.979,16.7091,"","","Prijedor","",23165264,"2023-11-20T12:18:18",3,"NO ERROR",8.67,100,999.9,1.28,2.06,7.03],
    [4131,363171,"Vazduh","Libelium","0004A30B0021DF70",44.979,16.7091,"","","Prijedor","",23165768,"2023-11-20T13:18:59",3,"NO ERROR",10.59,100,999.33,0.61,0.93,0.95],
    [4132,363171,"Vazduh","Libelium","0004A30B0021DF70",44.979,16.7091,"","","Prijedor","",23166265,"2023-11-20T14:19:42",3,"NO ERROR",11.13,100,998.68,1.51,1.95,2.11],
    [4133,363171,"Vazduh","Libelium","0004A30B0021DF70",44.979,16.7091,"","","Prijedor","",23166738,"2023-11-20T15:20:23",3,"NO ERROR",10.76,100,998.29,1.26,1.47,1.49],
    [4134,363171,"Vazduh","Libelium","0004A30B0021DF70",44.979,16.7091,"","","Prijedor","",23167200,"2023-11-20T16:21:05",3,"NO ERROR",10.08,100,998.02,2.2,2.59,2.59],
    [4135,363171,"Vazduh","Libelium","0004A30B0021DF70",44.979,16.7091,"","","Prijedor","",23167625,"2023-11-20T17:21:46",3,"NO ERROR",9.74,100,997.93,0.77,0.91,0.92],
    [4136,363171,"Vazduh","Libelium","0004A30B0021DF70",44.979,16.7091,"","","Prijedor","",23168050,"2023-11-20T18:22:27",3,"NO ERROR",9.5,100,998.05,1.89,2.55,2.71],
    [4137,363171,"Vazduh","Libelium","0004A30B0021DF70",44.979,16.7091,"","","Prijedor","",23168500,"2023-11-20T19:23:09",3,"NO ERROR",9.02,100,997.84,1.85,2.2,2.21],
    [4138,363171,"Vazduh","Libelium","0004A30B0021DF70",44.979,16.7091,"","","Prijedor","",23169078,"2023-11-20T20:23:50",3,"NO ERROR",8.1,100,997.58,3.13,3.62,3.62],
    [4139,363171,"Vazduh","Libelium","0004A30B0021DF70",44.979,16.7091,"","","Prijedor","",23169599,"2023-11-20T21:24:31",3,"NO ERROR",7.93,100,997.37,1.74,2.09,2.11],
    [4140,363171,"Vazduh","Libelium","0004A30B0021DF70",44.979,16.7091,"","","Prijedor","",23170090,"2023-11-20T22:25:12",3,"NO ERROR",7.57,100,997.02,1.97,2.51,3.21],
    [4141,363171,"Vazduh","Libelium","0004A30B0021DF70",44.979,16.7091,"","","Prijedor","",23170616,"2023-11-20T23:25:53",3,"NO ERROR",7.53,100,996.72,2.17,2.61,2.65],
    [4142,363171,"Vazduh","Libelium","0004A30B0021DF70",44.979,16.7091,"","","Prijedor","",23171437,"2023-11-21T00:26:35",3,"NO ERROR",6.65,100,996.45,1.82,2.16,2.17],
    [4143,363171,"Vazduh","Libelium","0004A30B0021DF70",44.979,16.7091,"","","Prijedor","",23171997,"2023-11-21T01:27:17",3,"NO ERROR",6.58,100,996.04,1.53,1.86,1.98],
    [4144,363171,"Vazduh","Libelium","0004A30B0021DF70",44.979,16.7091,"","","Prijedor","",23172504,"2023-11-21T02:27:58",3,"NO ERROR",6.52,100,995.6,1.54,1.91,1.94],
    [4145,363171,"Vazduh","Libelium","0004A30B0021DF70",44.979,16.7091,"","","Prijedor","",23173022,"2023-11-21T03:28:39",3,"NO ERROR",8.21,100,994.79,1.82,2.1,2.11],
    [4146,363171,"Vazduh","Libelium","0004A30B0021DF70",44.979,16.7091,"","","Prijedor","",23173586,"2023-11-21T04:29:20",3,"NO ERROR",7.5,100,995.07,4.11,4.89,4.94],
    [4147,363171,"Vazduh","Libelium","0004A30B0021DF70",44.979,16.7091,"","","Prijedor","",23174098,"2023-11-21T05:30:01",3,"NO ERROR",8.23,100,995.08,6.19,7.13,7.14],
    [4148,363171,"Vazduh","Libelium","0004A30B0021DF70",44.979,16.7091,"","","Prijedor","",23174572,"2023-11-21T06:30:42",3,"NO ERROR",8.69,100,995.14,9.91,11.74,11.77],
    [4149,363171,"Vazduh","Libelium","0004A30B0021DF70",44.979,16.7091,"","","Prijedor","",23175015,"2023-11-21T07:31:24",3,"NO ERROR",8.5,100,995.22,11.98,14.06,14.69],
    [4150,363171,"Vazduh","Libelium","0004A30B0021DF70",44.979,16.7091,"","","Prijedor","",23175505,"2023-11-21T08:32:05",3,"NO ERROR",8.9,100,995.52,17.7,20.37,20.41],
    [4151,363171,"Vazduh","Libelium","0004A30B0021DF70",44.979,16.7091,"","","Prijedor","",23175961,"2023-11-21T09:32:47",3,"NO ERROR",8.85,100,995.58,23.43,27.87,27.93],
    [4152,363171,"Vazduh","Libelium","0004A30B0021DF70",44.979,16.7091,"","","Prijedor","",23176358,"2023-11-21T10:33:29",3,"NO ERROR",9.25,100,995.46,1.43,1.54,1.54],
    [4153,363171,"Vazduh","Libelium","0004A30B0021DF70",44.979,16.7091,"","","Prijedor","",23176855,"2023-11-21T11:34:11",3,"NO ERROR",9.29,100,995.41,10.23,11.73,11.76],
    [4154,363171,"Vazduh","Libelium","0004A30B0021DF70",44.979,16.7091,"","","Prijedor","",23177413,"2023-11-21T12:34:53",3,"NO ERROR",9.49,100,995.5,9.42,10.99,11.01],
    [4155,363171,"Vazduh","Libelium","0004A30B0021DF70",44.979,16.7091,"","","Prijedor","",23177899,"2023-11-21T13:35:34",3,"NO ERROR",9.12,100,995.62,0.07,0.08,0.08],
    [4156,363171,"Vazduh","Libelium","0004A30B0021DF70",44.979,16.7091,"","","Prijedor","",23178372,"2023-11-21T14:36:16",3,"NO ERROR",8.96,100,995.61,0.38,0.45,0.45],
    [4157,363171,"Vazduh","Libelium","0004A30B0021DF70",44.979,16.7091,"","","Prijedor","",23178827,"2023-11-21T15:36:57",3,"NO ERROR",8.9,100,995.88,0.42,0.48,0.48],
    [4158,363171,"Vazduh","Libelium","0004A30B0021DF70",44.979,16.7091,"","","Prijedor","",23179262,"2023-11-21T16:37:38",3,"NO ERROR",8.47,100,996.27,0.51,0.6,0.6],
    [4159,363171,"Vazduh","Libelium","0004A30B0021DF70",44.979,16.7091,"","","Prijedor","",23179658,"2023-11-21T17:38:19",3,"NO ERROR",8.12,100,996.39,1.16,1.46,1.49],
    [4160,363171,"Vazduh","Libelium","0004A30B0021DF70",44.979,16.7091,"","","Prijedor","",23180074,"2023-11-21T18:39:00",3,"NO ERROR",8.16,100,996.67,1.74,2.1,2.24],
    [4161,363171,"Vazduh","Libelium","0004A30B0021DF70",44.979,16.7091,"","","Prijedor","",23180509,"2023-11-21T19:39:42",3,"NO ERROR",7.87,100,996.75,0.28,0.32,0.32],
    [4162,363171,"Vazduh","Libelium","0004A30B0021DF70",44.979,16.7091,"","","Prijedor","",23181025,"2023-11-21T20:40:24",3,"NO ERROR",7.94,100,997.02,0.23,0.28,0.29],
    [4163,363171,"Vazduh","Libelium","0004A30B0021DF70",44.979,16.7091,"","","Prijedor","",23181475,"2023-11-21T21:41:06",3,"NO ERROR",8.01,100,997.21,0.66,0.86,1.06],
    [4164,363171,"Vazduh","Libelium","0004A30B0021DF70",44.979,16.7091,"","","Prijedor","",23181917,"2023-11-21T22:41:53",3,"NO ERROR",8.18,100,997.51,0.22,0.25,0.25],
    [4165,363171,"Vazduh","Libelium","0004A30B0021DF70",44.979,16.7091,"","","Prijedor","",23182359,"2023-11-21T23:42:35",3,"NO ERROR",8.05,100,997.56,0.35,0.41,0.41],
    [4166,363171,"Vazduh","Libelium","0004A30B0021DF70",44.979,16.7091,"","","Prijedor","",23183062,"2023-11-22T00:43:17",3,"NO ERROR",7.94,100,997.73,0.96,1.29,1.48],
    [4167,363171,"Vazduh","Libelium","0004A30B0021DF70",44.979,16.7091,"","","Prijedor","",23183506,"2023-11-22T01:43:58",3,"NO ERROR",7.79,100,997.83,1.39,1.59,1.59],
    [4168,363171,"Vazduh","Libelium","0004A30B0021DF70",44.979,16.7091,"","","Prijedor","",23183968,"2023-11-22T02:44:39",3,"NO ERROR",7.68,100,997.75,2.27,2.85,2.86],
    [4169,363171,"Vazduh","Libelium","0004A30B0021DF70",44.979,16.7091,"","","Prijedor","",23184466,"2023-11-22T03:45:20",3,"NO ERROR",7.57,100,997.92,1.56,2,2.01],
    [4170,363171,"Vazduh","Libelium","0004A30B0021DF70",44.979,16.7091,"","","Prijedor","",23184990,"2023-11-22T04:46:01",3,"NO ERROR",7.38,100,998.26,1.48,1.72,1.73],
    [4171,363171,"Vazduh","Libelium","0004A30B0021DF70",44.979,16.7091,"","","Prijedor","",23185422,"2023-11-22T05:46:42",3,"NO ERROR",7.26,100,998.91,1.01,1.15,1.15],
    [4172,363171,"Vazduh","Libelium","0004A30B0021DF70",44.979,16.7091,"","","Prijedor","",23185871,"2023-11-22T06:47:24",3,"NO ERROR",7.1,100,999.48,1.85,2.18,2.19],
    [4173,363171,"Vazduh","Libelium","0004A30B0021DF70",44.979,16.7091,"","","Prijedor","",23186317,"2023-11-22T07:48:06",3,"NO ERROR",7.13,100,1000.17,1.5,1.76,1.77],
    [4174,363171,"Vazduh","Libelium","0004A30B0021DF70",44.979,16.7091,"","","Prijedor","",23186776,"2023-11-22T08:48:47",3,"NO ERROR",7.22,100,1001.03,2.92,3.3,3.3],
    [4175,363171,"Vazduh","Libelium","0004A30B0021DF70",44.979,16.7091,"","","Prijedor","",23187193,"2023-11-22T09:49:29",3,"NO ERROR",7.34,100,1001.68,0.96,1.17,1.18],
    [4176,363171,"Vazduh","Libelium","0004A30B0021DF70",44.979,16.7091,"","","Prijedor","",23187640,"2023-11-22T10:50:10",3,"NO ERROR",7.78,100,1002.63,0.32,0.34,0.34],
    [4177,363171,"Vazduh","Libelium","0004A30B0021DF70",44.979,16.7091,"","","Prijedor","",23188138,"2023-11-22T11:50:51",3,"NO ERROR",7.83,100,1003.26,0.07,0.07,0.07],
    [4178,363171,"Vazduh","Libelium","0004A30B0021DF70",44.979,16.7091,"","","Prijedor","",23188663,"2023-11-22T12:51:32",3,"NO ERROR",7.72,100,1003.67,0.38,0.45,0.46],
    [4179,363171,"Vazduh","Libelium","0004A30B0021DF70",44.979,16.7091,"","","Prijedor","",23189123,"2023-11-22T13:52:20",3,"NO ERROR",8.14,100,1004.38,0.69,0.81,0.81],
    [4180,363171,"Vazduh","Libelium","0004A30B0021DF70",44.979,16.7091,"","","Prijedor","",23189590,"2023-11-22T14:53:02",3,"NO ERROR",8.38,100,1005.12,0.13,0.14,0.14],
    [4181,363171,"Vazduh","Libelium","0004A30B0021DF70",44.979,16.7091,"","","Prijedor","",23190062,"2023-11-22T15:53:44",3,"NO ERROR",7.73,100,1005.98,0.33,0.41,0.42],
    [4182,363171,"Vazduh","Libelium","0004A30B0021DF70",44.979,16.7091,"","","Prijedor","",23190514,"2023-11-22T16:54:26",3,"NO ERROR",7.48,100,1006.79,0.09,0.14,0.15],
    [4183,363171,"Vazduh","Libelium","0004A30B0021DF70",44.979,16.7091,"","","Prijedor","",23190866,"2023-11-22T17:55:14",3,"NO ERROR",7.36,100,1007.9,0.12,0.2,0.27],
    [4184,363171,"Vazduh","Libelium","0004A30B0021DF70",44.979,16.7091,"","","Prijedor","",23191260,"2023-11-22T18:55:55",3,"NO ERROR",6.95,100,1008.77,0.07,0.07,0.07],
    [4185,363171,"Vazduh","Libelium","0004A30B0021DF70",44.979,16.7091,"","","Prijedor","",23191709,"2023-11-22T19:56:37",3,"NO ERROR",6.64,100,1009.74,0.05,0.12,0.2],
    [4186,363171,"Vazduh","Libelium","0004A30B0021DF70",44.979,16.7091,"","","Prijedor","",23192182,"2023-11-22T20:57:18",3,"NO ERROR",6.37,100,1010.28,0.03,0.04,0.05],
    [4187,363171,"Vazduh","Libelium","0004A30B0021DF70",44.979,16.7091,"","","Prijedor","",23192633,"2023-11-22T21:57:59",3,"NO ERROR",5.66,100,1010.78,0.2,0.27,0.27],
    [4188,363171,"Vazduh","Libelium","0004A30B0021DF70",44.979,16.7091,"","","Prijedor","",23193084,"2023-11-22T22:58:40",3,"NO ERROR",5.47,100,1011.11,0.1,0.13,0.13],
    [4189,363171,"Vazduh","Libelium","0004A30B0021DF70",44.979,16.7091,"","","Prijedor","",23193647,"2023-11-22T23:59:21",3,"NO ERROR",5.05,100,1011.04,0.03,0.03,0.03],
    [4190,363171,"Vazduh","Libelium","0004A30B0021DF70",44.979,16.7091,"","","Prijedor","",23194164,"2023-11-23T01:00:03",3,"NO ERROR",4.62,100,1011.26,0.2,0.26,0.26],
    [4191,363171,"Vazduh","Libelium","0004A30B0021DF70",44.979,16.7091,"","","Prijedor","",23194650,"2023-11-23T02:00:51",3,"NO ERROR",4.39,100,1011.44,0.29,0.32,0.32],
    [4192,363171,"Vazduh","Libelium","0004A30B0021DF70",44.979,16.7091,"","","Prijedor","",23195120,"2023-11-23T03:01:32",3,"NO ERROR",4.22,100,1011.64,0.17,0.19,0.19],
    [4193,363171,"Vazduh","Libelium","0004A30B0021DF70",44.979,16.7091,"","","Prijedor","",23195671,"2023-11-23T04:02:17",3,"NO ERROR",4.13,100,1011.19,0,0,0],
    [4194,363171,"Vazduh","Libelium","0004A30B0021DF70",44.979,16.7091,"","","Prijedor","",23196210,"2023-11-23T05:02:59",3,"NO ERROR",4.27,100,1011.49,0.25,0.28,0.28],
    [4195,363171,"Vazduh","Libelium","0004A30B0021DF70",44.979,16.7091,"","","Prijedor","",23196706,"2023-11-23T06:03:41",3,"NO ERROR",4.03,100,1011.36,0.17,0.22,0.22],
    [4196,363171,"Vazduh","Libelium","0004A30B0021DF70",44.979,16.7091,"","","Prijedor","",23197162,"2023-11-23T07:04:23",3,"NO ERROR",3.86,100,1011.43,0.13,0.21,0.23],
    [4197,363171,"Vazduh","Libelium","0004A30B0021DF70",44.979,16.7091,"","","Prijedor","",23197644,"2023-11-23T08:05:04",3,"NO ERROR",4.18,100,1011.64,0.53,0.57,0.57],
    [4198,363171,"Vazduh","Libelium","0004A30B0021DF70",44.979,16.7091,"","","Prijedor","",23198078,"2023-11-23T09:05:45",3,"NO ERROR",5.12,100,1011.31,0.47,0.53,0.53],
    [4199,363171,"Vazduh","Libelium","0004A30B0021DF70",44.979,16.7091,"","","Prijedor","",23198497,"2023-11-23T10:06:33",3,"NO ERROR",6.07,100,1011.67,0.17,0.2,0.2],
    [4200,363171,"Vazduh","Libelium","0004A30B0021DF70",44.979,16.7091,"","","Prijedor","",23198981,"2023-11-23T11:07:15",3,"NO ERROR",7.17,100,1010.62,0.35,0.45,0.46],
    [4201,363171,"Vazduh","Libelium","0004A30B0021DF70",44.979,16.7091,"","","Prijedor","",23199525,"2023-11-23T12:07:57",3,"NO ERROR",7.32,100,1009.69,0.22,0.22,0.22],
    [4202,363171,"Vazduh","Libelium","0004A30B0021DF70",44.979,16.7091,"","","Prijedor","",23200024,"2023-11-23T13:08:38",3,"NO ERROR",7.9,99.4,1008.42,0.58,0.65,0.65],
    [4203,363171,"Vazduh","Libelium","0004A30B0021DF70",44.979,16.7091,"","","Prijedor","",23200553,"2023-11-23T14:09:19",3,"NO ERROR",7.83,100,1007.52,0.71,0.75,0.75],
    [4204,363171,"Vazduh","Libelium","0004A30B0021DF70",44.979,16.7091,"","","Prijedor","",23201052,"2023-11-23T15:10:06",3,"NO ERROR",7.45,100,1006.76,0.53,0.6,0.6],
    [4205,363171,"Vazduh","Libelium","0004A30B0021DF70",44.979,16.7091,"","","Prijedor","",23201544,"2023-11-23T16:10:47",3,"NO ERROR",6.86,100,1006.33,0.75,0.87,0.87],
    [4206,363171,"Vazduh","Libelium","0004A30B0021DF70",44.979,16.7091,"","","Prijedor","",23201982,"2023-11-23T17:11:28",3,"NO ERROR",6.76,100,1005.69,0.88,1.27,2.02],
    [4207,363171,"Vazduh","Libelium","0004A30B0021DF70",44.979,16.7091,"","","Prijedor","",23202352,"2023-11-23T18:12:10",3,"NO ERROR",6.29,100,1005.24,0.78,0.97,0.98],
    [4208,363171,"Vazduh","Libelium","0004A30B0021DF70",44.979,16.7091,"","","Prijedor","",23202774,"2023-11-23T19:12:52",3,"NO ERROR",6.22,100,1004.54,0.38,0.47,2.93],
    [4209,363171,"Vazduh","Libelium","0004A30B0021DF70",44.979,16.7091,"","","Prijedor","",23203259,"2023-11-23T20:13:34",3,"NO ERROR",5.93,100,1003.52,0.72,0.83,0.85],
    [4210,363171,"Vazduh","Libelium","0004A30B0021DF70",44.979,16.7091,"","","Prijedor","",23203744,"2023-11-23T21:14:15",3,"NO ERROR",5.91,100,1002.62,0.93,1.08,1.08],
    [4211,363171,"Vazduh","Libelium","0004A30B0021DF70",44.979,16.7091,"","","Prijedor","",23204201,"2023-11-23T22:14:57",3,"NO ERROR",5.52,100,1001.38,1.05,1.23,1.23],
    [4212,363171,"Vazduh","Libelium","0004A30B0021DF70",44.979,16.7091,"","","Prijedor","",23204686,"2023-11-23T23:15:38",3,"NO ERROR",5.46,100,1000.19,1.05,1.3,1.33],
    [4213,363171,"Vazduh","Libelium","0004A30B0021DF70",44.979,16.7091,"","","Prijedor","",23205435,"2023-11-24T00:16:19",3,"NO ERROR",5.52,100,999.09,1.34,1.47,1.47],
    [4214,363171,"Vazduh","Libelium","0004A30B0021DF70",44.979,16.7091,"","","Prijedor","",23205957,"2023-11-24T01:17:00",3,"NO ERROR",5.3,100,997.71,1.45,1.77,1.91],
    [4215,363171,"Vazduh","Libelium","0004A30B0021DF70",44.979,16.7091,"","","Prijedor","",23206368,"2023-11-24T02:17:41",3,"NO ERROR",5.43,100,996.55,0.9,1,1],
    [4216,363171,"Vazduh","Libelium","0004A30B0021DF70",44.979,16.7091,"","","Prijedor","",23206825,"2023-11-24T03:18:22",3,"NO ERROR",4.85,100,995.19,1.22,1.32,1.32],
    [4217,363171,"Vazduh","Libelium","0004A30B0021DF70",44.979,16.7091,"","","Prijedor","",23207389,"2023-11-24T04:19:04",3,"NO ERROR",4.65,100,994.03,2.75,3.14,3.15],
    [4218,363171,"Vazduh","Libelium","0004A30B0021DF70",44.979,16.7091,"","","Prijedor","",23207881,"2023-11-24T05:19:45",3,"NO ERROR",4.35,100,992.86,3.71,4.26,4.27],
    [4219,363171,"Vazduh","Libelium","0004A30B0021DF70",44.979,16.7091,"","","Prijedor","",23208384,"2023-11-24T06:20:26",3,"NO ERROR",4.12,100,992.08,11.39,69.1,707.12],
    [4220,363171,"Vazduh","Libelium","0004A30B0021DF70",44.979,16.7091,"","","Prijedor","",23208884,"2023-11-24T07:21:07",3,"NO ERROR",4.18,100,991.86,13.37,34.47,396.84],
    [4221,363171,"Vazduh","Libelium","0004A30B0021DF70",44.979,16.7091,"","","Prijedor","",23209407,"2023-11-24T08:21:49",3,"NO ERROR",4.1,100,991.52,6.26,19.27,218.64],
    [4222,363171,"Vazduh","Libelium","0004A30B0021DF70",44.979,16.7091,"","","Prijedor","",23209847,"2023-11-24T09:22:31",3,"NO ERROR",4.76,100,990.65,5.7,18.58,331.42],
    [4223,363171,"Vazduh","Libelium","0004A30B0021DF70",44.979,16.7091,"","","Prijedor","",23210251,"2023-11-24T10:23:12",3,"NO ERROR",5.38,100,989.81,2.51,3.99,41.24],
    [4224,363171,"Vazduh","Libelium","0004A30B0021DF70",44.979,16.7091,"","","Prijedor","",23210769,"2023-11-24T11:23:55",3,"NO ERROR",7.42,100,988.22,1.69,1.89,1.89],
    [4225,363171,"Vazduh","Libelium","0004A30B0021DF70",44.979,16.7091,"","","Prijedor","",23211351,"2023-11-24T12:24:43",3,"NO ERROR",11.25,100,987.05,1.14,1.22,1.22],
    [4226,363171,"Vazduh","Libelium","0004A30B0021DF70",44.979,16.7091,"","","Prijedor","",23211894,"2023-11-24T13:25:25",3,"NO ERROR",13.36,100,986.1,0.74,0.95,1.06],
    [4227,363171,"Vazduh","Libelium","0004A30B0021DF70",44.979,16.7091,"","","Prijedor","",23212445,"2023-11-24T14:26:06",3,"NO ERROR",12.57,99.1,985.34,0.07,0.08,0.08],
    [4228,363171,"Vazduh","Libelium","0004A30B0021DF70",44.979,16.7091,"","","Prijedor","",23212983,"2023-11-24T15:26:48",3,"NO ERROR",11.81,100,984.94,0.93,1.12,1.13],
    [4229,363171,"Vazduh","Libelium","0004A30B0021DF70",44.979,16.7091,"","","Prijedor","",23213574,"2023-11-24T16:27:30",3,"NO ERROR",11.12,100,984.58,0.25,0.55,0.69],
    [4230,363171,"Vazduh","Libelium","0004A30B0021DF70",44.979,16.7091,"","","Prijedor","",23214068,"2023-11-24T17:28:11",3,"NO ERROR",10.72,100,984.81,0.08,0.16,1.46],
    [4231,363171,"Vazduh","Libelium","0004A30B0021DF70",44.979,16.7091,"","","Prijedor","",23214554,"2023-11-24T18:28:52",3,"NO ERROR",8.02,100,985.92,0.2,0.21,0.21],
    [4232,363171,"Vazduh","Libelium","0004A30B0021DF70",44.979,16.7091,"","","Prijedor","",23215007,"2023-11-24T19:29:34",3,"NO ERROR",6.52,100,986.36,0.96,1.14,1.15],
    [4233,363171,"Vazduh","Libelium","0004A30B0021DF70",44.979,16.7091,"","","Prijedor","",23215527,"2023-11-24T20:30:15",3,"NO ERROR",6.29,100,986.36,1.05,1.16,1.17],
    [4234,363171,"Vazduh","Libelium","0004A30B0021DF70",44.979,16.7091,"","","Prijedor","",23216037,"2023-11-24T21:30:57",3,"NO ERROR",6.24,100,986.26,0.3,0.33,0.33],
    [4235,363171,"Vazduh","Libelium","0004A30B0021DF70",44.979,16.7091,"","","Prijedor","",23216500,"2023-11-24T22:31:39",3,"NO ERROR",5.97,100,986.26,0.06,0.06,0.06],
    [4236,363171,"Vazduh","Libelium","0004A30B0021DF70",44.979,16.7091,"","","Prijedor","",23216984,"2023-11-24T23:32:21",3,"NO ERROR",5.42,100,986.73,0.29,0.41,0.43],
    [4237,363171,"Vazduh","Libelium","0004A30B0021DF70",44.979,16.7091,"","","Prijedor","",23217736,"2023-11-25T00:33:03",3,"NO ERROR",5.28,100,986.1,0.25,0.31,0.31],
    [4238,363171,"Vazduh","Libelium","0004A30B0021DF70",44.979,16.7091,"","","Prijedor","",23218280,"2023-11-25T01:33:44",3,"NO ERROR",5.07,100,985.29,0.71,0.74,0.74],
    [4239,363171,"Vazduh","Libelium","0004A30B0021DF70",44.979,16.7091,"","","Prijedor","",23218793,"2023-11-25T02:34:31",3,"NO ERROR",4.97,100,985.84,0.2,0.23,0.23],
    [4240,363171,"Vazduh","Libelium","0004A30B0021DF70",44.979,16.7091,"","","Prijedor","",23219293,"2023-11-25T03:35:13",3,"NO ERROR",4.97,100,985.6,1.1,1.29,1.29],
    [4241,363171,"Vazduh","Libelium","0004A30B0021DF70",44.979,16.7091,"","","Prijedor","",23219851,"2023-11-25T04:35:54",3,"NO ERROR",2.67,100,985.83,0.02,0.02,0.02],
    [4242,363171,"Vazduh","Libelium","0004A30B0021DF70",44.979,16.7091,"","","Prijedor","",23220388,"2023-11-25T05:36:36",3,"NO ERROR",2.79,100,985.3,0,0,0],
    [4243,363171,"Vazduh","Libelium","0004A30B0021DF70",44.979,16.7091,"","","Prijedor","",23220919,"2023-11-25T06:37:19",3,"NO ERROR",2.97,100,985.4,0.08,0.09,0.09],
    [4244,363171,"Vazduh","Libelium","0004A30B0021DF70",44.979,16.7091,"","","Prijedor","",23221459,"2023-11-25T07:38:01",3,"NO ERROR",3.43,100,986.18,0.16,0.17,0.17],
    [4245,363171,"Vazduh","Libelium","0004A30B0021DF70",44.979,16.7091,"","","Prijedor","",23221996,"2023-11-25T08:38:43",3,"NO ERROR",3.46,100,986.64,0.29,0.4,0.43],
    [4246,363171,"Vazduh","Libelium","0004A30B0021DF70",44.979,16.7091,"","","Prijedor","",23222530,"2023-11-25T09:39:24",3,"NO ERROR",4.23,100,987,0.11,0.13,0.13],
    [4247,363171,"Vazduh","Libelium","0004A30B0021DF70",44.979,16.7091,"","","Prijedor","",23223020,"2023-11-25T10:40:06",3,"NO ERROR",5.17,100,987.06,0.03,0.05,0.05],
    [4248,363171,"Vazduh","Libelium","0004A30B0021DF70",44.979,16.7091,"","","Prijedor","",23223551,"2023-11-25T11:40:47",3,"NO ERROR",5.33,100,986.57,0.02,0.02,0.02],
    [4249,363171,"Vazduh","Libelium","0004A30B0021DF70",44.979,16.7091,"","","Prijedor","",23224112,"2023-11-25T12:41:29",3,"NO ERROR",1.5,100,987.1,0.03,0.03,0.03],
    [4250,363171,"Vazduh","Libelium","0004A30B0021DF70",44.979,16.7091,"","","Prijedor","",23224635,"2023-11-25T13:42:12",3,"NO ERROR",3.06,100,987.12,0.01,0.03,0.04],
    [4251,363171,"Vazduh","Libelium","0004A30B0021DF70",44.979,16.7091,"","","Prijedor","",23225148,"2023-11-25T14:42:53",3,"NO ERROR",3.61,100,987.71,0.03,0.06,0.06],
    [4252,363171,"Vazduh","Libelium","0004A30B0021DF70",44.979,16.7091,"","","Prijedor","",23225642,"2023-11-25T15:43:34",3,"NO ERROR",3.59,100,988.18,0.04,0.07,0.07],
    [4253,363171,"Vazduh","Libelium","0004A30B0021DF70",44.979,16.7091,"","","Prijedor","",23226108,"2023-11-25T16:44:16",3,"NO ERROR",2.86,100,989.09,0.17,0.18,0.18],
    [4254,363171,"Vazduh","Libelium","0004A30B0021DF70",44.979,16.7091,"","","Prijedor","",23245014,"2023-11-27T04:08:42",3,"NO ERROR",-3.2,100,1001.35,0.32,0.39,0.39],
    [4255,363171,"Vazduh","Libelium","0004A30B0021DF70",44.979,16.7091,"","","Prijedor","",23245607,"2023-11-27T05:09:24",3,"NO ERROR",-3.55,100,1000.95,0.15,0.19,0.19],
    [4256,363171,"Vazduh","Libelium","0004A30B0021DF70",44.979,16.7091,"","","Prijedor","",23246163,"2023-11-27T06:10:06",3,"NO ERROR",-3.74,100,1000.47,0.1,0.15,0.15],
    [4257,363171,"Vazduh","Libelium","0004A30B0021DF70",44.979,16.7091,"","","Prijedor","",23246730,"2023-11-27T07:10:48",3,"NO ERROR",-3.4,100,1000.52,0.13,0.16,0.16],
    [4258,363171,"Vazduh","Libelium","0004A30B0021DF70",44.979,16.7091,"","","Prijedor","",23247353,"2023-11-27T08:11:29",3,"NO ERROR",-2.53,100,1000.43,0.36,0.48,0.5],
    [4259,363171,"Vazduh","Libelium","0004A30B0021DF70",44.979,16.7091,"","","Prijedor","",23247939,"2023-11-27T09:12:12",3,"NO ERROR",0.41,100,999.6,0.1,0.13,0.13],
    [4260,363171,"Vazduh","Libelium","0004A30B0021DF70",44.979,16.7091,"","","Prijedor","",23248446,"2023-11-27T10:12:54",3,"NO ERROR",1.64,100,999.49,0.31,0.37,0.37],
    [4261,363171,"Vazduh","Libelium","0004A30B0021DF70",44.979,16.7091,"","","Prijedor","",23249045,"2023-11-27T11:13:36",3,"NO ERROR",4.24,87.2,998.55,0.21,0.27,0.27],
    [4262,363171,"Vazduh","Libelium","0004A30B0021DF70",44.979,16.7091,"","","Prijedor","",23249749,"2023-11-27T12:14:18",3,"NO ERROR",6.67,83.4,997.03,0.24,0.4,0.43],
    [4263,363171,"Vazduh","Libelium","0004A30B0021DF70",44.979,16.7091,"","","Prijedor","",23250415,"2023-11-27T13:14:59",3,"NO ERROR",7.98,84.7,996.12,0.25,0.4,0.51],
    [4264,363171,"Vazduh","Libelium","0004A30B0021DF70",44.979,16.7091,"","","Prijedor","",23251041,"2023-11-27T14:15:41",3,"NO ERROR",8.34,91,995.43,0.6,0.74,0.76],
    [4265,363171,"Vazduh","Libelium","0004A30B0021DF70",44.979,16.7091,"","","Prijedor","",23251644,"2023-11-27T15:16:23",3,"NO ERROR",8.29,100,994.79,1.06,1.41,1.61],
    [4266,363171,"Vazduh","Libelium","0004A30B0021DF70",44.979,16.7091,"","","Prijedor","",23252294,"2023-11-27T16:17:05",3,"NO ERROR",7.92,100,993.96,0.27,0.29,0.29],
    [4267,363171,"Vazduh","Libelium","0004A30B0021DF70",44.979,16.7091,"","","Prijedor","",23252778,"2023-11-27T17:17:46",3,"NO ERROR",7,100,993.11,0.76,0.89,0.89],
    [4268,363171,"Vazduh","Libelium","0004A30B0021DF70",44.979,16.7091,"","","Prijedor","",23253192,"2023-11-27T18:18:28",3,"NO ERROR",5.61,100,992.35,1.3,1.63,1.66],
    [4269,363171,"Vazduh","Libelium","0004A30B0021DF70",44.979,16.7091,"","","Prijedor","",23253712,"2023-11-27T19:19:15",3,"NO ERROR",5.2,100,991.46,1.42,1.7,1.73],
    [4270,363171,"Vazduh","Libelium","0004A30B0021DF70",44.979,16.7091,"","","Prijedor","",23254287,"2023-11-27T20:19:56",3,"NO ERROR",6.27,100,990.45,0.12,0.19,0.27],
    [4271,363171,"Vazduh","Libelium","0004A30B0021DF70",44.979,16.7091,"","","Prijedor","",23254837,"2023-11-27T21:20:37",3,"NO ERROR",7.3,93.5,989.22,0.34,0.41,0.41],
    [4272,363171,"Vazduh","Libelium","0004A30B0021DF70",44.979,16.7091,"","","Prijedor","",23255391,"2023-11-27T22:21:18",3,"NO ERROR",7.87,82.4,987.78,0.64,1.11,1.29],
    [4273,363171,"Vazduh","Libelium","0004A30B0021DF70",44.979,16.7091,"","","Prijedor","",23255954,"2023-11-27T23:21:59",3,"NO ERROR",8.14,77.4,986.91,0.15,0.23,0.23],
    [4274,363171,"Vazduh","Libelium","0004A30B0021DF70",44.979,16.7091,"","","Prijedor","",23256725,"2023-11-28T00:22:40",3,"NO ERROR",8.55,82.2,985.21,0.39,0.47,0.48],
    [4275,363171,"Vazduh","Libelium","0004A30B0021DF70",44.979,16.7091,"","","Prijedor","",23257297,"2023-11-28T01:23:21",3,"NO ERROR",8.88,87.7,983.75,0.02,0.02,0.02],
    [4276,363171,"Vazduh","Libelium","0004A30B0021DF70",44.979,16.7091,"","","Prijedor","",23257806,"2023-11-28T02:24:02",3,"NO ERROR",9.14,88.3,982.46,0.02,0.02,0.02],
    [4277,363171,"Vazduh","Libelium","0004A30B0021DF70",44.979,16.7091,"","","Prijedor","",23258342,"2023-11-28T03:24:43",3,"NO ERROR",7.96,98.6,981.27,0.29,0.39,0.4],
    [4278,363171,"Vazduh","Libelium","0004A30B0021DF70",44.979,16.7091,"","","Prijedor","",23258984,"2023-11-28T04:25:26",3,"NO ERROR",6.92,100,980.02,0.24,0.28,0.29],
    [4279,363171,"Vazduh","Libelium","0004A30B0021DF70",44.979,16.7091,"","","Prijedor","",23259564,"2023-11-28T05:26:08",3,"NO ERROR",6.71,100,978.98,0.29,0.34,0.34],
    [4280,363171,"Vazduh","Libelium","0004A30B0021DF70",44.979,16.7091,"","","Prijedor","",23260084,"2023-11-28T06:26:56",3,"NO ERROR",5.95,100,978.1,0.3,0.36,0.36],
    [4281,363171,"Vazduh","Libelium","0004A30B0021DF70",44.979,16.7091,"","","Prijedor","",23260651,"2023-11-28T07:27:37",3,"NO ERROR",6.64,100,977.2,0.71,0.87,0.87],
    [4282,363171,"Vazduh","Libelium","0004A30B0021DF70",44.979,16.7091,"","","Prijedor","",23261265,"2023-11-28T08:28:24",3,"NO ERROR",6.57,100,977.01,1.12,1.57,1.59],
    [4283,363171,"Vazduh","Libelium","0004A30B0021DF70",44.979,16.7091,"","","Prijedor","",23261814,"2023-11-28T09:29:06",3,"NO ERROR",7.3,100,976.69,1.81,2.15,2.16],
    [4284,363171,"Vazduh","Libelium","0004A30B0021DF70",44.979,16.7091,"","","Prijedor","",23262343,"2023-11-28T10:29:48",3,"NO ERROR",8.03,100,976.94,0.79,0.9,0.9],
    [4285,363171,"Vazduh","Libelium","0004A30B0021DF70",44.979,16.7091,"","","Prijedor","",23262967,"2023-11-28T11:30:30",3,"NO ERROR",8.14,100,977.02,0.79,0.91,0.91],
    [4286,363171,"Vazduh","Libelium","0004A30B0021DF70",44.979,16.7091,"","","Prijedor","",23263661,"2023-11-28T12:31:12",3,"NO ERROR",8.22,100,977.36,0.16,0.28,0.31],
    [4287,363171,"Vazduh","Libelium","0004A30B0021DF70",44.979,16.7091,"","","Prijedor","",23264234,"2023-11-28T13:31:53",3,"NO ERROR",7.78,100,977.85,0.07,0.07,0.07],
    [4288,363171,"Vazduh","Libelium","0004A30B0021DF70",44.979,16.7091,"","","Prijedor","",23264802,"2023-11-28T14:32:42",3,"NO ERROR",8.67,100,978.71,0.01,0.03,0.03],
    [4289,363171,"Vazduh","Libelium","0004A30B0021DF70",44.979,16.7091,"","","Prijedor","",23265329,"2023-11-28T15:33:24",3,"NO ERROR",9.08,100,979.39,0.26,0.27,0.27],
    [4290,363171,"Vazduh","Libelium","0004A30B0021DF70",44.979,16.7091,"","","Prijedor","",23265919,"2023-11-28T16:34:05",3,"NO ERROR",7.46,100,980.02,0.26,0.28,0.28],
    [4291,363171,"Vazduh","Libelium","0004A30B0021DF70",44.979,16.7091,"","","Prijedor","",23266376,"2023-11-28T17:34:47",3,"NO ERROR",6.05,100,981.33,0.82,0.97,0.97],
    [4292,363171,"Vazduh","Libelium","0004A30B0021DF70",44.979,16.7091,"","","Prijedor","",23266845,"2023-11-28T18:35:28",3,"NO ERROR",5.33,100,982.02,4.69,5.4,5.41],
    [4293,363171,"Vazduh","Libelium","0004A30B0021DF70",44.979,16.7091,"","","Prijedor","",23267370,"2023-11-28T19:36:10",3,"NO ERROR",4.31,100,982.58,0.75,0.88,0.88],
    [4294,363171,"Vazduh","Libelium","0004A30B0021DF70",44.979,16.7091,"","","Prijedor","",23268031,"2023-11-28T20:36:52",3,"NO ERROR",3.33,100,983.73,4.39,4.85,4.85],
    [4295,363171,"Vazduh","Libelium","0004A30B0021DF70",44.979,16.7091,"","","Prijedor","",23268578,"2023-11-28T21:37:33",3,"NO ERROR",4.26,100,984.74,2.37,2.85,2.86],
    [4296,363171,"Vazduh","Libelium","0004A30B0021DF70",44.979,16.7091,"","","Prijedor","",23269106,"2023-11-28T22:38:15",3,"NO ERROR",4.12,100,985.76,3.26,3.67,3.67],
    [4297,363171,"Vazduh","Libelium","0004A30B0021DF70",44.979,16.7091,"","","Prijedor","",23269659,"2023-11-28T23:39:03",3,"NO ERROR",3.81,100,987.3,0.06,0.07,0.07],
    [4298,363171,"Vazduh","Libelium","0004A30B0021DF70",44.979,16.7091,"","","Prijedor","",23270394,"2023-11-29T00:39:45",3,"NO ERROR",3.4,100,988.92,0,0,0],
    [4299,363171,"Vazduh","Libelium","0004A30B0021DF70",44.979,16.7091,"","","Prijedor","",23270875,"2023-11-29T01:40:26",3,"NO ERROR",3.31,100,990.3,0.41,0.47,0.47],
    [4300,363171,"Vazduh","Libelium","0004A30B0021DF70",44.979,16.7091,"","","Prijedor","",23271363,"2023-11-29T02:41:07",3,"NO ERROR",3,100,991.5,0.21,0.27,0.28],
    [4301,363171,"Vazduh","Libelium","0004A30B0021DF70",44.979,16.7091,"","","Prijedor","",23271881,"2023-11-29T03:41:48",3,"NO ERROR",2.42,100,991.51,0.05,0.13,0.43],
    [4302,363171,"Vazduh","Libelium","0004A30B0021DF70",44.979,16.7091,"","","Prijedor","",23272440,"2023-11-29T04:42:29",3,"NO ERROR",2.45,100,992.16,0.03,0.03,0.03],
    [4303,363171,"Vazduh","Libelium","0004A30B0021DF70",44.979,16.7091,"","","Prijedor","",23272956,"2023-11-29T05:43:11",3,"NO ERROR",2.5,100,992.94,0.15,0.18,0.18],
    [4304,363171,"Vazduh","Libelium","0004A30B0021DF70",44.979,16.7091,"","","Prijedor","",23273492,"2023-11-29T06:43:54",3,"NO ERROR",2.53,100,993.43,0.47,0.57,0.57],
    [4305,363171,"Vazduh","Libelium","0004A30B0021DF70",44.979,16.7091,"","","Prijedor","",23274010,"2023-11-29T07:44:35",3,"NO ERROR",2.18,100,994.32,0.11,0.13,0.14],
    [4306,363171,"Vazduh","Libelium","0004A30B0021DF70",44.979,16.7091,"","","Prijedor","",23274541,"2023-11-29T08:45:16",3,"NO ERROR",2.9,100,995.01,0.02,0.02,0.02],
    [4307,363171,"Vazduh","Libelium","0004A30B0021DF70",44.979,16.7091,"","","Prijedor","",23275043,"2023-11-29T09:45:58",3,"NO ERROR",4.79,100,995.58,0.07,0.08,0.08],
    [4308,363171,"Vazduh","Libelium","0004A30B0021DF70",44.979,16.7091,"","","Prijedor","",23275606,"2023-11-29T10:46:39",3,"NO ERROR",4.43,100,996.46,0.03,0.03,0.03],
    [4309,363171,"Vazduh","Libelium","0004A30B0021DF70",44.979,16.7091,"","","Prijedor","",23276247,"2023-11-29T11:47:21",3,"NO ERROR",5.67,100,995.89,0.02,0.02,0.02],
    [4310,363171,"Vazduh","Libelium","0004A30B0021DF70",44.979,16.7091,"","","Prijedor","",23276916,"2023-11-29T12:48:02",3,"NO ERROR",7.1,100,995.95,0.02,0.02,0.02],
    [4311,363171,"Vazduh","Libelium","0004A30B0021DF70",44.979,16.7091,"","","Prijedor","",23277551,"2023-11-29T13:48:43",3,"NO ERROR",7.33,81.6,995.74,0.06,0.07,0.07],
    [4312,363171,"Vazduh","Libelium","0004A30B0021DF70",44.979,16.7091,"","","Prijedor","",23278156,"2023-11-29T14:49:24",3,"NO ERROR",8.81,67.5,995.87,0.02,0.02,0.02],
    [4313,363171,"Vazduh","Libelium","0004A30B0021DF70",44.979,16.7091,"","","Prijedor","",23278771,"2023-11-29T15:50:19",3,"NO ERROR",6.08,68.7,996.05,0.07,0.23,0.33],
    [4314,363171,"Vazduh","Libelium","0004A30B0021DF70",44.979,16.7091,"","","Prijedor","",23279318,"2023-11-29T16:51:01",3,"NO ERROR",4.06,76.7,996.27,0.49,0.9,0.94],
    [4315,363171,"Vazduh","Libelium","0004A30B0021DF70",44.979,16.7091,"","","Prijedor","",23279742,"2023-11-29T17:51:42",3,"NO ERROR",2.58,89.1,996.69,0.07,0.09,0.09],
    [4316,363171,"Vazduh","Libelium","0004A30B0021DF70",44.979,16.7091,"","","Prijedor","",23280204,"2023-11-29T18:52:23",3,"NO ERROR",2.28,89.9,996.88,0.05,0.05,0.05],
    [4317,363171,"Vazduh","Libelium","0004A30B0021DF70",44.979,16.7091,"","","Prijedor","",23280732,"2023-11-29T19:53:04",3,"NO ERROR",0.99,100,997.1,0.78,0.99,0.99],
    [4318,363171,"Vazduh","Libelium","0004A30B0021DF70",44.979,16.7091,"","","Prijedor","",23281307,"2023-11-29T20:53:45",3,"NO ERROR",0.17,100,997.14,0.25,0.27,0.27],
    [4319,363171,"Vazduh","Libelium","0004A30B0021DF70",44.979,16.7091,"","","Prijedor","",23281852,"2023-11-29T21:54:33",3,"NO ERROR",-0.22,100,997.23,0.26,0.35,0.35],
    [4320,363171,"Vazduh","Libelium","0004A30B0021DF70",44.979,16.7091,"","","Prijedor","",23282389,"2023-11-29T22:55:13",3,"NO ERROR",0.43,100,997.08,0.31,0.37,0.37],
    [4321,363171,"Vazduh","Libelium","0004A30B0021DF70",44.979,16.7091,"","","Prijedor","",23283007,"2023-11-29T23:55:55",3,"NO ERROR",0.09,100,996.96,0.3,0.36,0.36],
    [4322,363171,"Vazduh","Libelium","0004A30B0021DF70",44.979,16.7091,"","","Prijedor","",23283768,"2023-11-30T00:56:36",3,"NO ERROR",0.59,100,996.45,0.42,0.52,0.55],
    [4323,363171,"Vazduh","Libelium","0004A30B0021DF70",44.979,16.7091,"","","Prijedor","",23284250,"2023-11-30T01:57:17",3,"NO ERROR",1.01,100,995.84,0.2,0.22,0.22],
    [4324,363171,"Vazduh","Libelium","0004A30B0021DF70",44.979,16.7091,"","","Prijedor","",23284706,"2023-11-30T02:58:10",3,"NO ERROR",1.37,100,995.46,0.04,0.07,0.07],
    [4325,363171,"Vazduh","Libelium","0004A30B0021DF70",44.979,16.7091,"","","Prijedor","",23285268,"2023-11-30T03:58:51",3,"NO ERROR",1.76,100,995.13,0.22,0.29,0.29],
    [4326,363171,"Vazduh","Libelium","0004A30B0021DF70",44.979,16.7091,"","","Prijedor","",23285801,"2023-11-30T04:59:32",3,"NO ERROR",1.39,100,993.83,0.1,0.13,0.13],
    [4327,363171,"Vazduh","Libelium","0004A30B0021DF70",44.979,16.7091,"","","Prijedor","",23286308,"2023-11-30T06:00:14",3,"NO ERROR",1.44,100,993.23,0.48,0.64,0.64],
    [4328,363171,"Vazduh","Libelium","0004A30B0021DF70",44.979,16.7091,"","","Prijedor","",23286818,"2023-11-30T07:00:55",3,"NO ERROR",2.16,100,992.56,0.06,0.1,0.11],
    [4329,363171,"Vazduh","Libelium","0004A30B0021DF70",44.979,16.7091,"","","Prijedor","",23287447,"2023-11-30T08:01:42",3,"NO ERROR",1.76,100,992.51,0.1,0.16,0.17],
    [4330,363171,"Vazduh","Libelium","0004A30B0021DF70",44.979,16.7091,"","","Prijedor","",23288012,"2023-11-30T09:02:23",3,"NO ERROR",2.49,100,992.08,0.04,0.07,0.08],
    [4331,363171,"Vazduh","Libelium","0004A30B0021DF70",44.979,16.7091,"","","Prijedor","",23288564,"2023-11-30T10:03:10",3,"NO ERROR",3.45,100,992.25,0.14,0.19,0.19],
    [4332,363171,"Vazduh","Libelium","0004A30B0021DF70",44.979,16.7091,"","","Prijedor","",23289135,"2023-11-30T11:03:52",3,"NO ERROR",4.66,100,991.29,0.24,0.36,0.38],
    [4333,363171,"Vazduh","Libelium","0004A30B0021DF70",44.979,16.7091,"","","Prijedor","",23289773,"2023-11-30T12:04:33",3,"NO ERROR",5.77,100,990.25,0.47,0.67,0.69],
    [4334,363171,"Vazduh","Libelium","0004A30B0021DF70",44.979,16.7091,"","","Prijedor","",23290342,"2023-11-30T13:05:14",3,"NO ERROR",8.24,100,989.17,1.68,2.03,2.07],
    [4335,363171,"Vazduh","Libelium","0004A30B0021DF70",44.979,16.7091,"","","Prijedor","",23290889,"2023-11-30T14:05:56",3,"NO ERROR",9.09,100,988.13,0.96,1.21,1.31],
    [4336,363171,"Vazduh","Libelium","0004A30B0021DF70",44.979,16.7091,"","","Prijedor","",23291472,"2023-11-30T15:06:38",3,"NO ERROR",9.39,100,987.18,1.7,2.35,2.4],
    [4337,363171,"Vazduh","Libelium","0004A30B0021DF70",44.979,16.7091,"","","Prijedor","",23292132,"2023-11-30T16:07:20",3,"NO ERROR",9.97,100,986.89,1.45,2.08,2.17],
    [4338,363171,"Vazduh","Libelium","0004A30B0021DF70",44.979,16.7091,"","","Prijedor","",23292627,"2023-11-30T17:08:01",3,"NO ERROR",14.15,92.3,986.43,0.23,0.53,0.73],
    [4339,363171,"Vazduh","Libelium","0004A30B0021DF70",44.979,16.7091,"","","Prijedor","",23293063,"2023-11-30T18:08:42",3,"NO ERROR",14.71,90.5,986.16,0.41,0.67,1.34],
    [4340,363171,"Vazduh","Libelium","0004A30B0021DF70",44.979,16.7091,"","","Prijedor","",23293586,"2023-11-30T19:09:29",3,"NO ERROR",15.51,87.9,985.87,0.36,0.42,0.42],
    [4341,363171,"Vazduh","Libelium","0004A30B0021DF70",44.979,16.7091,"","","Prijedor","",23294196,"2023-11-30T20:10:10",3,"NO ERROR",15.01,93.1,985.46,0.11,0.16,0.16],
    [4342,363171,"Vazduh","Libelium","0004A30B0021DF70",44.979,16.7091,"","","Prijedor","",23294787,"2023-11-30T21:10:52",3,"NO ERROR",14.63,98.9,985.76,0.08,0.13,0.27],
    [4343,363171,"Vazduh","Libelium","0004A30B0021DF70",44.979,16.7091,"","","Prijedor","",23295346,"2023-11-30T22:11:33",3,"NO ERROR",17.35,86.7,985.85,0.31,0.48,0.61],
    [4344,363171,"Vazduh","Libelium","0004A30B0021DF70",44.979,16.7091,"","","Prijedor","",23295963,"2023-11-30T23:12:14",3,"NO ERROR",17.89,84.4,985.63,0.07,0.09,0.09],
    [4345,363171,"Vazduh","Libelium","0004A30B0021DF70",44.979,16.7091,"","","Prijedor","",23296762,"2023-12-01T00:12:55",3,"NO ERROR",18.76,81.9,985.97,0.39,0.46,0.46],
    [4346,363171,"Vazduh","Libelium","0004A30B0021DF70",44.979,16.7091,"","","Prijedor","",23297375,"2023-12-01T01:13:36",3,"NO ERROR",18.48,81.5,986.18,0.2,0.21,0.21],
    [4347,363171,"Vazduh","Libelium","0004A30B0021DF70",44.979,16.7091,"","","Prijedor","",23297952,"2023-12-01T02:14:18",3,"NO ERROR",18.48,81.1,986.17,0.15,0.19,0.19],
    [4348,363171,"Vazduh","Libelium","0004A30B0021DF70",44.979,16.7091,"","","Prijedor","",23298546,"2023-12-01T03:15:01",3,"NO ERROR",18.26,80.5,985.51,0.23,0.31,0.32],
    [4349,363171,"Vazduh","Libelium","0004A30B0021DF70",44.979,16.7091,"","","Prijedor","",23299243,"2023-12-01T04:15:43",3,"NO ERROR",16.47,90.5,985.1,0.35,0.38,0.38],
    [4350,363171,"Vazduh","Libelium","0004A30B0021DF70",44.979,16.7091,"","","Prijedor","",23299903,"2023-12-01T05:16:25",3,"NO ERROR",18.3,80,985.16,0.41,0.62,0.63],
    [4351,363171,"Vazduh","Libelium","0004A30B0021DF70",44.979,16.7091,"","","Prijedor","",23300513,"2023-12-01T06:17:07",3,"NO ERROR",18.87,76.1,985.38,0.27,0.46,0.55],
    [4352,363171,"Vazduh","Libelium","0004A30B0021DF70",44.979,16.7091,"","","Prijedor","",23301125,"2023-12-01T07:17:49",3,"NO ERROR",18.56,77.3,985.2,0.39,0.55,0.56],
    [4353,363171,"Vazduh","Libelium","0004A30B0021DF70",44.979,16.7091,"","","Prijedor","",23301748,"2023-12-01T08:18:31",3,"NO ERROR",18.76,76.1,985.15,0.26,0.46,0.48],
    [4354,363171,"Vazduh","Libelium","0004A30B0021DF70",44.979,16.7091,"","","Prijedor","",23302297,"2023-12-01T09:19:12",3,"NO ERROR",22.05,61.3,985.33,0.67,0.85,0.85],
    [4355,363171,"Vazduh","Libelium","0004A30B0021DF70",44.979,16.7091,"","","Prijedor","",23302861,"2023-12-01T10:19:54",3,"NO ERROR",20.77,64.2,985.55,0.71,1,1.1],
    [4356,363171,"Vazduh","Libelium","0004A30B0021DF70",44.979,16.7091,"","","Prijedor","",23303488,"2023-12-01T11:20:35",3,"NO ERROR",21.92,59.7,984.72,0.62,0.85,0.87],
    [4357,363171,"Vazduh","Libelium","0004A30B0021DF70",44.979,16.7091,"","","Prijedor","",23304170,"2023-12-01T12:21:16",3,"NO ERROR",22.91,56.4,984.47,0.52,0.78,0.8],
    [4358,363171,"Vazduh","Libelium","0004A30B0021DF70",44.979,16.7091,"","","Prijedor","",23304759,"2023-12-01T13:21:57",3,"NO ERROR",22.23,56.7,984.56,0.85,1.11,1.12],
    [4359,363171,"Vazduh","Libelium","0004A30B0021DF70",44.979,16.7091,"","","Prijedor","",23305284,"2023-12-01T14:22:39",3,"NO ERROR",22.69,53.3,984.68,0.38,0.52,0.53],
    [4360,363171,"Vazduh","Libelium","0004A30B0021DF70",44.979,16.7091,"","","Prijedor","",23305813,"2023-12-01T15:23:20",3,"NO ERROR",21.92,51.2,984.15,0.91,1.16,1.17],
    [4361,363171,"Vazduh","Libelium","0004A30B0021DF70",44.979,16.7091,"","","Prijedor","",23306362,"2023-12-01T16:24:02",3,"NO ERROR",19.45,56,984.41,0.8,1.17,1.2],
    [4362,363171,"Vazduh","Libelium","0004A30B0021DF70",44.979,16.7091,"","","Prijedor","",23306828,"2023-12-01T17:24:44",3,"NO ERROR",19.05,57.8,984.05,1.12,1.56,1.69],
    [4363,363171,"Vazduh","Libelium","0004A30B0021DF70",44.979,16.7091,"","","Prijedor","",23307269,"2023-12-01T18:25:26",3,"NO ERROR",17.34,62.1,983.96,1.19,1.87,4.15],
    [4364,363171,"Vazduh","Libelium","0004A30B0021DF70",44.979,16.7091,"","","Prijedor","",23307793,"2023-12-01T19:26:08",3,"NO ERROR",18.12,57.8,983.34,0.97,1.31,1.43],
    [4365,363171,"Vazduh","Libelium","0004A30B0021DF70",44.979,16.7091,"","","Prijedor","",23308378,"2023-12-01T20:26:50",3,"NO ERROR",18.19,56.2,982.97,0.99,1.51,2.17],
    [4366,363171,"Vazduh","Libelium","0004A30B0021DF70",44.979,16.7091,"","","Prijedor","",23308896,"2023-12-01T21:27:32",3,"NO ERROR",16.9,59.2,982.86,0.86,1.3,1.45],
    [4367,363171,"Vazduh","Libelium","0004A30B0021DF70",44.979,16.7091,"","","Prijedor","",23309411,"2023-12-01T22:28:14",3,"NO ERROR",16,61.4,982.7,1.51,1.94,1.96],
    [4368,363171,"Vazduh","Libelium","0004A30B0021DF70",44.979,16.7091,"","","Prijedor","",23309917,"2023-12-01T23:28:55",3,"NO ERROR",15.68,64.1,982.67,1.9,2.38,2.42],
    [4369,363171,"Vazduh","Libelium","0004A30B0021DF70",44.979,16.7091,"","","Prijedor","",23310682,"2023-12-02T00:29:37",3,"NO ERROR",17.27,55,982.41,1.01,1.32,1.32],
    [4370,363171,"Vazduh","Libelium","0004A30B0021DF70",44.979,16.7091,"","","Prijedor","",23311256,"2023-12-02T01:30:24",3,"NO ERROR",15.78,58.8,981.64,0.81,1.01,1.02],
    [4371,363171,"Vazduh","Libelium","0004A30B0021DF70",44.979,16.7091,"","","Prijedor","",23311790,"2023-12-02T02:31:05",3,"NO ERROR",14.18,67.3,981.84,0.69,1.04,1.49],
    [4372,363171,"Vazduh","Libelium","0004A30B0021DF70",44.979,16.7091,"","","Prijedor","",23312370,"2023-12-02T03:31:47",3,"NO ERROR",13.45,72.3,981.32,0.98,1.3,1.31],
    [4373,363171,"Vazduh","Libelium","0004A30B0021DF70",44.979,16.7091,"","","Prijedor","",23313059,"2023-12-02T04:32:28",3,"NO ERROR",14.49,69.2,981.11,1.36,1.87,1.88],
    [4374,363171,"Vazduh","Libelium","0004A30B0021DF70",44.979,16.7091,"","","Prijedor","",23313642,"2023-12-02T05:33:10",3,"NO ERROR",15.93,61,980.7,1.61,2,2.01],
    [4375,363171,"Vazduh","Libelium","0004A30B0021DF70",44.979,16.7091,"","","Prijedor","",23314218,"2023-12-02T06:33:52",3,"NO ERROR",18.78,55.4,980.49,1.76,2.53,2.72],
    [4376,363171,"Vazduh","Libelium","0004A30B0021DF70",44.979,16.7091,"","","Prijedor","",23314760,"2023-12-02T07:34:34",3,"NO ERROR",19.21,54,979.87,1.85,2.26,2.27],
    [4377,363171,"Vazduh","Libelium","0004A30B0021DF70",44.979,16.7091,"","","Prijedor","",23315314,"2023-12-02T08:35:16",3,"NO ERROR",19.86,50.7,981.17,2.8,3.65,3.68],
    [4378,363171,"Vazduh","Libelium","0004A30B0021DF70",44.979,16.7091,"","","Prijedor","",23315794,"2023-12-02T09:35:58",3,"NO ERROR",19.82,53.9,980.58,2.02,2.82,2.87],
    [4379,363171,"Vazduh","Libelium","0004A30B0021DF70",44.979,16.7091,"","","Prijedor","",23316315,"2023-12-02T10:36:40",3,"NO ERROR",19.34,57.7,980.55,2.02,2.67,2.82],
    [4380,363171,"Vazduh","Libelium","0004A30B0021DF70",44.979,16.7091,"","","Prijedor","",23316861,"2023-12-02T11:37:22",3,"NO ERROR",19.6,57.6,980.23,1.88,2.58,2.62],
    [4381,363171,"Vazduh","Libelium","0004A30B0021DF70",44.979,16.7091,"","","Prijedor","",23317495,"2023-12-02T12:38:04",3,"NO ERROR",16.92,80.6,980.42,2.68,3.55,3.58],
    [4382,363171,"Vazduh","Libelium","0004A30B0021DF70",44.979,16.7091,"","","Prijedor","",23318065,"2023-12-02T13:38:46",3,"NO ERROR",11.7,100,981.98,0.42,0.84,2.26],
    [4383,363171,"Vazduh","Libelium","0004A30B0021DF70",44.979,16.7091,"","","Prijedor","",23318619,"2023-12-02T14:39:28",3,"NO ERROR",13.48,100,981.29,0.1,0.15,0.15],
    [4384,363171,"Vazduh","Libelium","0004A30B0021DF70",44.979,16.7091,"","","Prijedor","",23319144,"2023-12-02T15:40:09",3,"NO ERROR",11.38,100,982.08,0.67,0.88,0.89],
    [4385,363171,"Vazduh","Libelium","0004A30B0021DF70",44.979,16.7091,"","","Prijedor","",23319653,"2023-12-02T16:40:50",3,"NO ERROR",7.51,100,983.76,1.29,1.54,1.54],
    [4386,363171,"Vazduh","Libelium","0004A30B0021DF70",44.979,16.7091,"","","Prijedor","",23320065,"2023-12-02T17:41:31",3,"NO ERROR",5.31,100,986.99,0.17,0.19,0.19],
    [4387,363171,"Vazduh","Libelium","0004A30B0021DF70",44.979,16.7091,"","","Prijedor","",23320448,"2023-12-02T18:42:13",3,"NO ERROR",4.32,100,988.59,0.02,0.02,0.02],
    [4388,363171,"Vazduh","Libelium","0004A30B0021DF70",44.979,16.7091,"","","Prijedor","",23320920,"2023-12-02T19:42:55",3,"NO ERROR",3.19,100,991.22,0.02,0.02,0.02],
    [4389,363171,"Vazduh","Libelium","0004A30B0021DF70",44.979,16.7091,"","","Prijedor","",23321430,"2023-12-02T20:43:36",3,"NO ERROR",3.01,100,992.55,0.03,0.03,0.03],
    [4390,363171,"Vazduh","Libelium","0004A30B0021DF70",44.979,16.7091,"","","Prijedor","",23321920,"2023-12-02T21:44:17",3,"NO ERROR",2.84,100,994.64,0.14,0.16,0.16],
    [4391,363171,"Vazduh","Libelium","0004A30B0021DF70",44.979,16.7091,"","","Prijedor","",23322389,"2023-12-02T22:45:04",3,"NO ERROR",2.87,100,996.75,0.03,0.03,0.03],
    [4392,363171,"Vazduh","Libelium","0004A30B0021DF70",44.979,16.7091,"","","Prijedor","",23322842,"2023-12-02T23:45:46",3,"NO ERROR",2.79,100,998.08,0,0.04,0.06],
    [4393,363171,"Vazduh","Libelium","0004A30B0021DF70",44.979,16.7091,"","","Prijedor","",23323585,"2023-12-03T00:46:28",3,"NO ERROR",1.77,100,999.32,0.05,0.05,0.05],
    [4394,363171,"Vazduh","Libelium","0004A30B0021DF70",44.979,16.7091,"","","Prijedor","",23324128,"2023-12-03T01:47:11",3,"NO ERROR",1.89,100,1000.83,0.03,0.03,0.03],
    [4395,363171,"Vazduh","Libelium","0004A30B0021DF70",44.979,16.7091,"","","Prijedor","",23324635,"2023-12-03T02:47:53",3,"NO ERROR",2.26,100,1001.75,0.03,0.03,0.03],
    [4396,363171,"Vazduh","Libelium","0004A30B0021DF70",44.979,16.7091,"","","Prijedor","",23325189,"2023-12-03T03:48:34",3,"NO ERROR",2.55,86.8,1002.63,0.03,0.03,0.03],
    [4397,363171,"Vazduh","Libelium","0004A30B0021DF70",44.979,16.7091,"","","Prijedor","",23325792,"2023-12-03T04:49:16",3,"NO ERROR",2.95,79.7,1003.46,0.02,0.02,0.02],
    [4398,363171,"Vazduh","Libelium","0004A30B0021DF70",44.979,16.7091,"","","Prijedor","",23326330,"2023-12-03T05:49:57",3,"NO ERROR",2.62,84.7,1004.54,0.15,0.17,0.17],
    [4399,363171,"Vazduh","Libelium","0004A30B0021DF70",44.979,16.7091,"","","Prijedor","",23326881,"2023-12-03T06:50:39",3,"NO ERROR",2.69,81.2,1005.51,0.03,0.03,0.03],
    [4400,363171,"Vazduh","Libelium","0004A30B0021DF70",44.979,16.7091,"","","Prijedor","",23327457,"2023-12-03T07:51:21",3,"NO ERROR",2.57,98.5,1006.29,0.07,0.07,0.07],
    [4401,363171,"Vazduh","Libelium","0004A30B0021DF70",44.979,16.7091,"","","Prijedor","",23327996,"2023-12-03T08:52:04",3,"NO ERROR",2.76,100,1007.27,0.03,0.03,0.03],
    [4402,363171,"Vazduh","Libelium","0004A30B0021DF70",44.979,16.7091,"","","Prijedor","",23328496,"2023-12-03T09:52:46",3,"NO ERROR",2.91,88.5,1008.17,0.08,0.09,0.09],
    [4403,363171,"Vazduh","Libelium","0004A30B0021DF70",44.979,16.7091,"","","Prijedor","",23329036,"2023-12-03T10:53:34",3,"NO ERROR",3.83,76.2,1008.38,0.07,0.1,0.1],
    [4404,363171,"Vazduh","Libelium","0004A30B0021DF70",44.979,16.7091,"","","Prijedor","",23329582,"2023-12-03T11:54:16",3,"NO ERROR",3.89,72.9,1008.4,0.11,0.13,0.13],
    [4405,363171,"Vazduh","Libelium","0004A30B0021DF70",44.979,16.7091,"","","Prijedor","",23330163,"2023-12-03T12:54:58",3,"NO ERROR",3.81,81.3,1008.61,0,0,0],
    [4406,363171,"Vazduh","Libelium","0004A30B0021DF70",44.979,16.7091,"","","Prijedor","",23330711,"2023-12-03T13:55:39",3,"NO ERROR",4.01,70.8,1008.65,0.12,0.17,0.17],
    [4407,363171,"Vazduh","Libelium","0004A30B0021DF70",44.979,16.7091,"","","Prijedor","",23331233,"2023-12-03T14:56:21",3,"NO ERROR",3.46,76.5,1008.98,0.17,0.2,0.2],
    [4408,363171,"Vazduh","Libelium","0004A30B0021DF70",44.979,16.7091,"","","Prijedor","",23331783,"2023-12-03T15:57:03",3,"NO ERROR",2.27,75.1,1009.31,0.31,0.4,0.4],
    [4409,363171,"Vazduh","Libelium","0004A30B0021DF70",44.979,16.7091,"","","Prijedor","",23332270,"2023-12-03T16:57:46",3,"NO ERROR",0.88,88,1009.87,0.22,0.3,0.31],
    [4410,363171,"Vazduh","Libelium","0004A30B0021DF70",44.979,16.7091,"","","Prijedor","",23332632,"2023-12-03T17:58:27",3,"NO ERROR",0.13,92.8,1010.36,0.27,0.3,0.3],
    [4411,363171,"Vazduh","Libelium","0004A30B0021DF70",44.979,16.7091,"","","Prijedor","",23333063,"2023-12-03T18:59:14",3,"NO ERROR",-0.9,100,1011.07,0.19,0.22,0.22],
    [4412,363171,"Vazduh","Libelium","0004A30B0021DF70",44.979,16.7091,"","","Prijedor","",23333610,"2023-12-03T19:59:56",3,"NO ERROR",-1.85,100,1011.63,0.31,0.4,0.42],
    [4413,363171,"Vazduh","Libelium","0004A30B0021DF70",44.979,16.7091,"","","Prijedor","",23334169,"2023-12-03T21:00:37",3,"NO ERROR",-2.43,100,1011.85,0.15,0.18,0.18],
    [4414,363171,"Vazduh","Libelium","0004A30B0021DF70",44.979,16.7091,"","","Prijedor","",23334690,"2023-12-03T22:01:19",3,"NO ERROR",-2.66,100,1011.87,0.22,0.29,0.3],
    [4415,363171,"Vazduh","Libelium","0004A30B0021DF70",44.979,16.7091,"","","Prijedor","",23335239,"2023-12-03T23:02:01",3,"NO ERROR",-3.55,100,1012.04,1.5,1.65,1.65],
    [4416,363171,"Vazduh","Libelium","0004A30B0021DF70",44.979,16.7091,"","","Prijedor","",23335894,"2023-12-04T00:02:42",3,"NO ERROR",-4.15,100,1012.05,0.18,0.2,0.2],
    [4417,363171,"Vazduh","Libelium","0004A30B0021DF70",44.979,16.7091,"","","Prijedor","",23336498,"2023-12-04T01:03:24",3,"NO ERROR",-4.42,100,1011.81,0.2,0.22,0.22],
    [4418,363171,"Vazduh","Libelium","0004A30B0021DF70",44.979,16.7091,"","","Prijedor","",23337014,"2023-12-04T02:04:06",3,"NO ERROR",-4.84,100,1011.92,0.29,0.34,0.35],
    [4419,363171,"Vazduh","Libelium","0004A30B0021DF70",44.979,16.7091,"","","Prijedor","",23337565,"2023-12-04T03:04:47",3,"NO ERROR",-4.67,100,1011.91,1.65,2.06,2.08],
    [4420,363171,"Vazduh","Libelium","0004A30B0021DF70",44.979,16.7091,"","","Prijedor","",23338172,"2023-12-04T04:05:29",3,"NO ERROR",-4.57,100,1011.89,27.36,52.63,241.23],
    [4421,363171,"Vazduh","Libelium","0004A30B0021DF70",44.979,16.7091,"","","Prijedor","",23338751,"2023-12-04T05:06:11",3,"NO ERROR",-4.41,100,1011.37,4.63,10.93,214.41],
    [4422,363171,"Vazduh","Libelium","0004A30B0021DF70",44.979,16.7091,"","","Prijedor","",23339298,"2023-12-04T06:06:53",3,"NO ERROR",-3.9,100,1011.19,2.79,6,98.82],
    [4423,363171,"Vazduh","Libelium","0004A30B0021DF70",44.979,16.7091,"","","Prijedor","",23339858,"2023-12-04T07:07:36",3,"NO ERROR",-4.68,100,1011.47,4.52,8.05,22.6],
    [4424,363171,"Vazduh","Libelium","0004A30B0021DF70",44.979,16.7091,"","","Prijedor","",23340505,"2023-12-04T08:08:18",3,"NO ERROR",-4.17,100,1011.19,6.18,8.09,43.82],
    [4425,363171,"Vazduh","Libelium","0004A30B0021DF70",44.979,16.7091,"","","Prijedor","",23341077,"2023-12-04T09:09:00",3,"NO ERROR",-3.93,100,1011.56,3.1,4.8,22.53],
    [4426,363171,"Vazduh","Libelium","0004A30B0021DF70",44.979,16.7091,"","","Prijedor","",23341572,"2023-12-04T10:09:42",3,"NO ERROR",-2.82,100,1010.6,1.78,2.07,2.07],
    [4427,363171,"Vazduh","Libelium","0004A30B0021DF70",44.979,16.7091,"","","Prijedor","",23342141,"2023-12-04T11:10:24",3,"NO ERROR",-1.45,100,1010.08,1.54,1.71,1.72],
    [4428,363171,"Vazduh","Libelium","0004A30B0021DF70",44.979,16.7091,"","","Prijedor","",23342917,"2023-12-04T12:11:07",3,"NO ERROR",0,100,1008.82,0.11,0.14,0.14],
    [4429,363171,"Vazduh","Libelium","0004A30B0021DF70",44.979,16.7091,"","","Prijedor","",23343721,"2023-12-04T13:11:48",3,"NO ERROR",0.83,85.5,1007.73,0.16,0.21,0.22],
    [4430,363171,"Vazduh","Libelium","0004A30B0021DF70",44.979,16.7091,"","","Prijedor","",23344738,"2023-12-04T14:12:30",3,"NO ERROR",1.54,84.6,1006.84,0.09,0.19,0.29],
    [4431,363171,"Vazduh","Libelium","0004A30B0021DF70",44.979,16.7091,"","","Prijedor","",23345709,"2023-12-04T15:13:11",3,"NO ERROR",1.28,85.9,1006.34,0.2,0.26,0.26],
    [4432,363171,"Vazduh","Libelium","0004A30B0021DF70",44.979,16.7091,"","","Prijedor","",23346659,"2023-12-04T16:13:53",3,"NO ERROR",0.57,99.2,1005.65,0.25,0.47,1.06],
    [4433,363171,"Vazduh","Libelium","0004A30B0021DF70",44.979,16.7091,"","","Prijedor","",23347527,"2023-12-04T17:14:34",3,"NO ERROR",0.28,100,1006.02,0.17,0.19,0.19],
    [4434,363171,"Vazduh","Libelium","0004A30B0021DF70",44.979,16.7091,"","","Prijedor","",23348282,"2023-12-04T18:15:15",3,"NO ERROR",0.54,99.1,1005.15,0.3,0.49,0.53],
    [4435,363171,"Vazduh","Libelium","0004A30B0021DF70",44.979,16.7091,"","","Prijedor","",23349154,"2023-12-04T19:15:56",3,"NO ERROR",0.19,100,1005.33,0.43,0.5,0.5],
    [4436,363171,"Vazduh","Libelium","0004A30B0021DF70",44.979,16.7091,"","","Prijedor","",23350131,"2023-12-04T20:16:38",3,"NO ERROR",0.21,100,1004.8,0.1,0.13,0.13],
    [4437,363171,"Vazduh","Libelium","0004A30B0021DF70",44.979,16.7091,"","","Prijedor","",23351094,"2023-12-04T21:17:19",3,"NO ERROR",0.51,100,1004.15,0.29,0.32,0.33],
    [4438,363171,"Vazduh","Libelium","0004A30B0021DF70",44.979,16.7091,"","","Prijedor","",23352070,"2023-12-04T22:18:00",3,"NO ERROR",0.71,100,1003.58,0.31,0.44,0.44],
    [4439,363171,"Vazduh","Libelium","0004A30B0021DF70",44.979,16.7091,"","","Prijedor","",23353006,"2023-12-04T23:18:42",3,"NO ERROR",0.51,100,1002.67,0.54,0.64,0.64],
    [4440,363171,"Vazduh","Libelium","0004A30B0021DF70",44.979,16.7091,"","","Prijedor","",23354157,"2023-12-05T00:19:24",3,"NO ERROR",0.45,100,1002.02,0.38,0.44,0.44],
    [4441,363171,"Vazduh","Libelium","0004A30B0021DF70",44.979,16.7091,"","","Prijedor","",23355103,"2023-12-05T01:20:05",3,"NO ERROR",0.75,100,1001.37,0.51,0.68,0.68],
    [4442,363171,"Vazduh","Libelium","0004A30B0021DF70",44.979,16.7091,"","","Prijedor","",23355988,"2023-12-05T02:20:46",3,"NO ERROR",0.56,100,1001.06,0.22,0.27,0.27],
    [4443,363171,"Vazduh","Libelium","0004A30B0021DF70",44.979,16.7091,"","","Prijedor","",23356898,"2023-12-05T03:21:27",3,"NO ERROR",0.13,100,1000.29,0.54,0.71,0.71],
    [4444,363171,"Vazduh","Libelium","0004A30B0021DF70",44.979,16.7091,"","","Prijedor","",23357871,"2023-12-05T04:22:09",3,"NO ERROR",-0.38,100,999.81,1.06,1.12,1.12],
    [4445,363171,"Vazduh","Libelium","0004A30B0021DF70",44.979,16.7091,"","","Prijedor","",23358802,"2023-12-05T05:22:50",3,"NO ERROR",-0.62,100,999.61,0.61,0.69,0.7],
    [4446,363171,"Vazduh","Libelium","0004A30B0021DF70",44.979,16.7091,"","","Prijedor","",23359770,"2023-12-05T06:23:32",3,"NO ERROR",-0.62,100,999.76,0.44,0.65,0.65],
    [4447,363171,"Vazduh","Libelium","0004A30B0021DF70",44.979,16.7091,"","","Prijedor","",23360691,"2023-12-05T07:24:14",3,"NO ERROR",0.15,100,999.35,0.45,0.54,0.54],
    [4448,363171,"Vazduh","Libelium","0004A30B0021DF70",44.979,16.7091,"","","Prijedor","",23361663,"2023-12-05T08:24:56",3,"NO ERROR",0.83,100,999.22,0.6,0.64,0.64],
    [4449,363171,"Vazduh","Libelium","0004A30B0021DF70",44.979,16.7091,"","","Prijedor","",23362600,"2023-12-05T09:25:44",3,"NO ERROR",2.16,100,998.89,0.67,0.86,0.87],
    [4450,363171,"Vazduh","Libelium","0004A30B0021DF70",44.979,16.7091,"","","Prijedor","",23363499,"2023-12-05T10:26:25",3,"NO ERROR",2.4,100,998.83,0.61,0.73,0.73],
    [4451,363171,"Vazduh","Libelium","0004A30B0021DF70",44.979,16.7091,"","","Prijedor","",23364526,"2023-12-05T11:27:07",3,"NO ERROR",2.73,100,998.07,0.64,0.84,0.86],
    [4452,363171,"Vazduh","Libelium","0004A30B0021DF70",44.979,16.7091,"","","Prijedor","",23365583,"2023-12-05T12:27:49",3,"NO ERROR",2.78,100,997.19,1.57,1.87,1.88],
    [4453,363171,"Vazduh","Libelium","0004A30B0021DF70",44.979,16.7091,"","","Prijedor","",23366571,"2023-12-05T13:28:31",3,"NO ERROR",3.26,100,997,3.88,4.59,4.61],
    [4454,363171,"Vazduh","Libelium","0004A30B0021DF70",44.979,16.7091,"","","Prijedor","",23367578,"2023-12-05T14:29:13",3,"NO ERROR",2.62,100,996.91,5.74,6.72,6.9],
    [4455,363171,"Vazduh","Libelium","0004A30B0021DF70",44.979,16.7091,"","","Prijedor","",23368522,"2023-12-05T15:29:54",3,"NO ERROR",2.49,100,997.1,11.23,12.96,12.98],
    [4456,363171,"Vazduh","Libelium","0004A30B0021DF70",44.979,16.7091,"","","Prijedor","",23369464,"2023-12-05T16:30:36",3,"NO ERROR",2.46,100,996.61,9.14,10.7,10.72],
    [4457,363171,"Vazduh","Libelium","0004A30B0021DF70",44.979,16.7091,"","","Prijedor","",23370332,"2023-12-05T17:31:17",3,"NO ERROR",2.25,100,996.6,9.86,11.96,37.26],
    [4458,363171,"Vazduh","Libelium","0004A30B0021DF70",44.979,16.7091,"","","Prijedor","",23371151,"2023-12-05T18:31:59",3,"NO ERROR",2.33,100,996.69,11.38,13.25,13.27],
    [4459,363171,"Vazduh","Libelium","0004A30B0021DF70",44.979,16.7091,"","","Prijedor","",23372080,"2023-12-05T19:32:41",3,"NO ERROR",2.26,100,996.81,7.63,9.05,9.07],
    [4460,363171,"Vazduh","Libelium","0004A30B0021DF70",44.979,16.7091,"","","Prijedor","",23373091,"2023-12-05T20:33:22",3,"NO ERROR",2.36,100,997.06,5.93,7.93,23.44],
    [4461,363171,"Vazduh","Libelium","0004A30B0021DF70",44.979,16.7091,"","","Prijedor","",23374032,"2023-12-05T21:34:04",3,"NO ERROR",2.19,100,996.51,7.74,9.06,9.08],
    [4462,363171,"Vazduh","Libelium","0004A30B0021DF70",44.979,16.7091,"","","Prijedor","",23374997,"2023-12-05T22:34:45",3,"NO ERROR",2.07,100,996.01,7.54,8.82,8.85],
    [4463,363171,"Vazduh","Libelium","0004A30B0021DF70",44.979,16.7091,"","","Prijedor","",23377129,"2023-12-06T00:36:08",3,"NO ERROR",1.25,100,994.97,8.58,9.81,9.83],
    [4464,363171,"Vazduh","Libelium","0004A30B0021DF70",44.979,16.7091,"","","Prijedor","",23378090,"2023-12-06T01:36:49",3,"NO ERROR",0.67,100,993.6,23.67,28.77,28.85],
    [4465,363171,"Vazduh","Libelium","0004A30B0021DF70",44.979,16.7091,"","","Prijedor","",23379032,"2023-12-06T02:37:30",3,"NO ERROR",0.75,100,993.82,5.69,6.88,6.91],
    [4466,363171,"Vazduh","Libelium","0004A30B0021DF70",44.979,16.7091,"","","Prijedor","",23380008,"2023-12-06T03:38:11",3,"NO ERROR",1.05,100,994.68,3.53,4.11,4.12],
    [4467,363171,"Vazduh","Libelium","0004A30B0021DF70",44.979,16.7091,"","","Prijedor","",23381002,"2023-12-06T04:38:52",3,"NO ERROR",1.15,100,994.88,6.02,6.94,6.95],
    [4468,363171,"Vazduh","Libelium","0004A30B0021DF70",44.979,16.7091,"","","Prijedor","",23381933,"2023-12-06T05:39:34",3,"NO ERROR",1.16,100,995.03,3.74,4.57,4.58],
    [4469,363171,"Vazduh","Libelium","0004A30B0021DF70",44.979,16.7091,"","","Prijedor","",23382863,"2023-12-06T06:40:15",3,"NO ERROR",1.25,100,995.39,2.4,2.86,2.87],
    [4470,363171,"Vazduh","Libelium","0004A30B0021DF70",44.979,16.7091,"","","Prijedor","",23383781,"2023-12-06T07:40:59",3,"NO ERROR",1.46,100,997.76,1.4,1.72,1.75],
    [4471,363171,"Vazduh","Libelium","0004A30B0021DF70",44.979,16.7091,"","","Prijedor","",23384754,"2023-12-06T08:41:41",3,"NO ERROR",1.69,100,998.47,1.25,1.48,1.49],
    [4472,363171,"Vazduh","Libelium","0004A30B0021DF70",44.979,16.7091,"","","Prijedor","",23385675,"2023-12-06T09:42:22",3,"NO ERROR",1.79,100,998.85,2.68,3.05,3.05],
    [4473,363171,"Vazduh","Libelium","0004A30B0021DF70",44.979,16.7091,"","","Prijedor","",23386594,"2023-12-06T10:43:04",3,"NO ERROR",2.11,100,998.95,1.63,1.91,1.91],
    [4474,363171,"Vazduh","Libelium","0004A30B0021DF70",44.979,16.7091,"","","Prijedor","",23387613,"2023-12-06T11:43:45",3,"NO ERROR",2.48,100,998.64,1.08,1.36,1.36],
    [4475,363171,"Vazduh","Libelium","0004A30B0021DF70",44.979,16.7091,"","","Prijedor","",23388636,"2023-12-06T12:44:26",3,"NO ERROR",2.51,100,998.57,2.09,2.32,2.32],
    [4476,363171,"Vazduh","Libelium","0004A30B0021DF70",44.979,16.7091,"","","Prijedor","",23389587,"2023-12-06T13:45:08",3,"NO ERROR",2.5,100,998.52,0.71,0.77,0.77],
    [4477,363171,"Vazduh","Libelium","0004A30B0021DF70",44.979,16.7091,"","","Prijedor","",23390511,"2023-12-06T14:45:56",3,"NO ERROR",2.79,100,998.78,2.35,2.56,2.56],
    [4478,363171,"Vazduh","Libelium","0004A30B0021DF70",44.979,16.7091,"","","Prijedor","",23391412,"2023-12-06T15:46:38",3,"NO ERROR",2.78,100,999.47,2.57,2.79,2.79],
    [4479,363171,"Vazduh","Libelium","0004A30B0021DF70",44.979,16.7091,"","","Prijedor","",23392287,"2023-12-06T16:47:25",3,"NO ERROR",2.7,100,999.83,5.95,6.68,6.68],
    [4480,363171,"Vazduh","Libelium","0004A30B0021DF70",44.979,16.7091,"","","Prijedor","",23393130,"2023-12-06T17:48:06",3,"NO ERROR",2.67,100,1000.45,8.05,9.13,9.14],
    [4481,363171,"Vazduh","Libelium","0004A30B0021DF70",44.979,16.7091,"","","Prijedor","",23393996,"2023-12-06T18:48:47",3,"NO ERROR",2.81,100,1001.02,5.87,6.98,7],
    [4482,363171,"Vazduh","Libelium","0004A30B0021DF70",44.979,16.7091,"","","Prijedor","",23394894,"2023-12-06T19:49:28",3,"NO ERROR",2.91,100,1001.47,6.82,8.09,8.13],
    [4483,363171,"Vazduh","Libelium","0004A30B0021DF70",44.979,16.7091,"","","Prijedor","",23395812,"2023-12-06T20:50:09",3,"NO ERROR",2.95,100,1001.54,5.04,5.83,5.85],
    [4484,363171,"Vazduh","Libelium","0004A30B0021DF70",44.979,16.7091,"","","Prijedor","",23396703,"2023-12-06T21:50:51",3,"NO ERROR",2.9,100,1002.14,2.35,2.62,2.63],
    [4485,363171,"Vazduh","Libelium","0004A30B0021DF70",44.979,16.7091,"","","Prijedor","",23397600,"2023-12-06T22:51:39",3,"NO ERROR",2.96,100,1002.44,1.94,2.26,2.26],
    [4486,363171,"Vazduh","Libelium","0004A30B0021DF70",44.979,16.7091,"","","Prijedor","",23398527,"2023-12-06T23:52:21",3,"NO ERROR",2.97,100,1002.74,1.38,1.54,1.55],
    [4487,363171,"Vazduh","Libelium","0004A30B0021DF70",44.979,16.7091,"","","Prijedor","",23399757,"2023-12-07T00:53:03",3,"NO ERROR",2.91,100,1002.85,1.13,1.24,1.24],
    [4488,363171,"Vazduh","Libelium","0004A30B0021DF70",44.979,16.7091,"","","Prijedor","",23400665,"2023-12-07T01:53:45",3,"NO ERROR",3.07,100,1003.03,1.76,1.95,1.95],
    [4489,363171,"Vazduh","Libelium","0004A30B0021DF70",44.979,16.7091,"","","Prijedor","",23401595,"2023-12-07T02:54:26",3,"NO ERROR",3.09,100,1003.04,1.44,1.67,1.69],
    [4490,363171,"Vazduh","Libelium","0004A30B0021DF70",44.979,16.7091,"","","Prijedor","",23402588,"2023-12-07T03:55:07",3,"NO ERROR",3.13,100,1003.19,1.34,1.54,1.55],
    [4491,363171,"Vazduh","Libelium","0004A30B0021DF70",44.979,16.7091,"","","Prijedor","",23403628,"2023-12-07T04:55:49",3,"NO ERROR",2.78,100,1003.47,1.4,1.59,1.59],
    [4492,363171,"Vazduh","Libelium","0004A30B0021DF70",44.979,16.7091,"","","Prijedor","",23404592,"2023-12-07T05:56:30",3,"NO ERROR",2.44,100,1003.83,2.27,2.51,2.52],
    [4493,363171,"Vazduh","Libelium","0004A30B0021DF70",44.979,16.7091,"","","Prijedor","",23405568,"2023-12-07T06:57:19",3,"NO ERROR",2.23,100,1004.23,2.3,2.66,2.82],
    [4494,363171,"Vazduh","Libelium","0004A30B0021DF70",44.979,16.7091,"","","Prijedor","",23406514,"2023-12-07T07:58:06",3,"NO ERROR",2.03,100,1004.84,4.5,5.12,5.16],
    [4495,363171,"Vazduh","Libelium","0004A30B0021DF70",44.979,16.7091,"","","Prijedor","",23407502,"2023-12-07T08:58:48",3,"NO ERROR",2.82,100,1004.88,2.13,2.38,2.39],
    [4496,363171,"Vazduh","Libelium","0004A30B0021DF70",44.979,16.7091,"","","Prijedor","",23408453,"2023-12-07T09:59:29",3,"NO ERROR",3.41,100,1005.52,2.5,2.79,2.8],
    [4497,363171,"Vazduh","Libelium","0004A30B0021DF70",44.979,16.7091,"","","Prijedor","",23409431,"2023-12-07T11:00:10",3,"NO ERROR",4.5,100,1005.5,1.07,1.17,1.18],
    [4498,363171,"Vazduh","Libelium","0004A30B0021DF70",44.979,16.7091,"","","Prijedor","",23410493,"2023-12-07T12:00:58",3,"NO ERROR",4.86,100,1005.31,0.63,0.73,0.73],
    [4499,363171,"Vazduh","Libelium","0004A30B0021DF70",44.979,16.7091,"","","Prijedor","",23411622,"2023-12-07T13:01:39",3,"NO ERROR",6.85,100,1005.04,0.25,0.43,0.46],
    [4500,363171,"Vazduh","Libelium","0004A30B0021DF70",44.979,16.7091,"","","Prijedor","",23412676,"2023-12-07T14:02:21",3,"NO ERROR",8.88,91.7,1004.98,0.07,0.09,0.09],
    [4501,363171,"Vazduh","Libelium","0004A30B0021DF70",44.979,16.7091,"","","Prijedor","",23413822,"2023-12-07T15:03:03",3,"NO ERROR",8.38,88.7,1005.19,0.02,0.02,0.02],
    [4502,363171,"Vazduh","Libelium","0004A30B0021DF70",44.979,16.7091,"","","Prijedor","",23414862,"2023-12-07T16:03:44",3,"NO ERROR",5.55,100,1005.71,0.4,0.65,1.13],
    [4503,363171,"Vazduh","Libelium","0004A30B0021DF70",44.979,16.7091,"","","Prijedor","",23415800,"2023-12-07T17:04:26",3,"NO ERROR",3.37,100,1006.19,0.07,0.08,0.08],
    [4504,363171,"Vazduh","Libelium","0004A30B0021DF70",44.979,16.7091,"","","Prijedor","",23416743,"2023-12-07T18:05:08",3,"NO ERROR",2.36,100,1006.56,0.22,0.29,0.3],
    [4505,363171,"Vazduh","Libelium","0004A30B0021DF70",44.979,16.7091,"","","Prijedor","",23417671,"2023-12-07T19:05:49",3,"NO ERROR",0.84,100,1006.84,0.25,0.28,0.28],
    [4506,363171,"Vazduh","Libelium","0004A30B0021DF70",44.979,16.7091,"","","Prijedor","",23418680,"2023-12-07T20:06:31",3,"NO ERROR",-0.05,100,1006.8,3.86,4.39,4.4],
    [4507,363171,"Vazduh","Libelium","0004A30B0021DF70",44.979,16.7091,"","","Prijedor","",23419682,"2023-12-07T21:07:12",3,"NO ERROR",-0.49,100,1007.15,3.77,4.73,5.5],
    [4508,363171,"Vazduh","Libelium","0004A30B0021DF70",44.979,16.7091,"","","Prijedor","",23420711,"2023-12-07T22:07:54",3,"NO ERROR",-1.62,100,1007.36,2.7,3.02,3.03],
    [4509,363171,"Vazduh","Libelium","0004A30B0021DF70",44.979,16.7091,"","","Prijedor","",23421701,"2023-12-07T23:08:36",3,"NO ERROR",-1.51,100,1007.31,1.57,1.83,1.84],
    [4510,363171,"Vazduh","Libelium","0004A30B0021DF70",44.979,16.7091,"","","Prijedor","",23422834,"2023-12-08T00:09:18",3,"NO ERROR",-1.03,100,1007.02,38.97,71.25,274.5],
    [4511,363171,"Vazduh","Libelium","0004A30B0021DF70",44.979,16.7091,"","","Prijedor","",23423849,"2023-12-08T01:09:59",3,"NO ERROR",-1.38,100,1006.76,13.81,49.9,471.84],
    [4512,363171,"Vazduh","Libelium","0004A30B0021DF70",44.979,16.7091,"","","Prijedor","",23424808,"2023-12-08T02:10:40",3,"NO ERROR",-1.81,100,1007.07,12.78,31.13,277.28],
    [4513,363171,"Vazduh","Libelium","0004A30B0021DF70",44.979,16.7091,"","","Prijedor","",23425773,"2023-12-08T03:11:22",3,"NO ERROR",-2.49,100,1006.48,6.56,23.9,354.77],
    [4514,363171,"Vazduh","Libelium","0004A30B0021DF70",44.979,16.7091,"","","Prijedor","",23426814,"2023-12-08T04:12:04",3,"NO ERROR",-2.91,100,1006.28,6.07,32.65,338.02],
    [4515,363171,"Vazduh","Libelium","0004A30B0021DF70",44.979,16.7091,"","","Prijedor","",23427837,"2023-12-08T05:12:47",3,"NO ERROR",-2.84,100,1005.57,9.18,34.95,318.39],
    [4516,363171,"Vazduh","Libelium","0004A30B0021DF70",44.979,16.7091,"","","Prijedor","",23428806,"2023-12-08T06:13:29",3,"NO ERROR",-2.64,100,1005.58,14.77,35.42,376.75],
    [4517,363171,"Vazduh","Libelium","0004A30B0021DF70",44.979,16.7091,"","","Prijedor","",23429772,"2023-12-08T07:14:11",3,"NO ERROR",-2.74,100,1005.47,46.63,74.57,193.96],
    [4518,363171,"Vazduh","Libelium","0004A30B0021DF70",44.979,16.7091,"","","Prijedor","",23430794,"2023-12-08T08:14:53",3,"NO ERROR",-3.3,100,1005.24,12.8,21.53,89.21],
    [4519,363171,"Vazduh","Libelium","0004A30B0021DF70",44.979,16.7091,"","","Prijedor","",23431769,"2023-12-08T09:15:34",3,"NO ERROR",-2.25,100,1005.18,2.28,2.83,2.84],
    [4520,363171,"Vazduh","Libelium","0004A30B0021DF70",44.979,16.7091,"","","Prijedor","",23432682,"2023-12-08T10:16:16",3,"NO ERROR",-0.29,100,1004.78,2.47,2.83,2.84],
    [4521,363171,"Vazduh","Libelium","0004A30B0021DF70",44.979,16.7091,"","","Prijedor","",23433725,"2023-12-08T11:16:57",3,"NO ERROR",0.29,100,1004.27,0.84,0.96,0.96],
    [4522,363171,"Vazduh","Libelium","0004A30B0021DF70",44.979,16.7091,"","","Prijedor","",23434558,"2023-12-08T12:17:39",3,"NO ERROR",3.59,100,1003.31,0.5,0.56,0.56],
    [4523,363171,"Vazduh","Libelium","0004A30B0021DF70",44.979,16.7091,"","","Prijedor","",23435249,"2023-12-08T13:18:21",3,"NO ERROR",4.15,100,1002.53,0.15,0.2,0.21],
    [4524,363171,"Vazduh","Libelium","0004A30B0021DF70",44.979,16.7091,"","","Prijedor","",23436054,"2023-12-08T14:19:02",3,"NO ERROR",6.26,95.7,1001.85,0.37,0.4,0.4],
    [4525,363171,"Vazduh","Libelium","0004A30B0021DF70",44.979,16.7091,"","","Prijedor","",23436821,"2023-12-08T15:19:43",3,"NO ERROR",5.67,95.7,1001.73,0.36,0.48,0.6],
    [4526,363171,"Vazduh","Libelium","0004A30B0021DF70",44.979,16.7091,"","","Prijedor","",23437939,"2023-12-08T16:20:24",3,"NO ERROR",2.91,100,1001.72,0.73,1.22,1.91],
    [4527,363171,"Vazduh","Libelium","0004A30B0021DF70",44.979,16.7091,"","","Prijedor","",23438690,"2023-12-08T17:21:05",3,"NO ERROR",1.93,100,1001.67,1.68,2.2,2.38],
    [4528,363171,"Vazduh","Libelium","0004A30B0021DF70",44.979,16.7091,"","","Prijedor","",23439370,"2023-12-08T18:21:53",3,"NO ERROR",0.67,100,1002.09,0.82,1.03,1.12],
    [4529,363171,"Vazduh","Libelium","0004A30B0021DF70",44.979,16.7091,"","","Prijedor","",23440105,"2023-12-08T19:22:34",3,"NO ERROR",-0.29,100,1002.37,0.95,1.14,1.14],
    [4530,363171,"Vazduh","Libelium","0004A30B0021DF70",44.979,16.7091,"","","Prijedor","",23441043,"2023-12-08T20:23:16",3,"NO ERROR",-0.78,100,1002.83,1.36,1.64,1.65],
    [4531,363171,"Vazduh","Libelium","0004A30B0021DF70",44.979,16.7091,"","","Prijedor","",23441908,"2023-12-08T21:23:58",3,"NO ERROR",-1.43,100,1003.31,1.81,2.01,2.01],
    [4532,363171,"Vazduh","Libelium","0004A30B0021DF70",44.979,16.7091,"","","Prijedor","",23442790,"2023-12-08T22:24:46",3,"NO ERROR",-1.17,100,1003.33,1.96,2.4,2.89],
    [4533,363171,"Vazduh","Libelium","0004A30B0021DF70",44.979,16.7091,"","","Prijedor","",23443668,"2023-12-08T23:25:26",3,"NO ERROR",-2.1,100,1003.91,2.44,2.75,2.75],
    [4534,363171,"Vazduh","Libelium","0004A30B0021DF70",44.979,16.7091,"","","Prijedor","",23444787,"2023-12-09T00:26:09",3,"NO ERROR",-2.01,100,1003.76,1.95,2.39,2.4],
    [4535,363171,"Vazduh","Libelium","0004A30B0021DF70",44.979,16.7091,"","","Prijedor","",23445711,"2023-12-09T01:26:50",3,"NO ERROR",-2.28,100,1004.04,1.41,1.54,1.54],
    [4536,363171,"Vazduh","Libelium","0004A30B0021DF70",44.979,16.7091,"","","Prijedor","",23446526,"2023-12-09T02:27:32",3,"NO ERROR",-3.05,100,1004.37,0.63,0.66,0.66],
    [4537,363171,"Vazduh","Libelium","0004A30B0021DF70",44.979,16.7091,"","","Prijedor","",23447400,"2023-12-09T03:28:14",3,"NO ERROR",-2.73,100,1004.21,1.08,1.18,1.18],
    [4538,363171,"Vazduh","Libelium","0004A30B0021DF70",44.979,16.7091,"","","Prijedor","",23448350,"2023-12-09T04:28:56",3,"NO ERROR",-1.75,100,1004.69,0.5,0.65,0.65],
    [4539,363171,"Vazduh","Libelium","0004A30B0021DF70",44.979,16.7091,"","","Prijedor","",23449235,"2023-12-09T05:29:38",3,"NO ERROR",-1.4,100,1005.07,1.88,2.15,2.18],
    [4540,363171,"Vazduh","Libelium","0004A30B0021DF70",44.979,16.7091,"","","Prijedor","",23450075,"2023-12-09T06:30:20",3,"NO ERROR",-1.27,100,1005.36,6.71,8.07,8.25],
    [4541,363171,"Vazduh","Libelium","0004A30B0021DF70",44.979,16.7091,"","","Prijedor","",23450932,"2023-12-09T07:31:01",3,"NO ERROR",-1.23,100,1006.08,5.36,6.73,24.45],
    [4542,363171,"Vazduh","Libelium","0004A30B0021DF70",44.979,16.7091,"","","Prijedor","",23451831,"2023-12-09T08:31:43",3,"NO ERROR",-0.65,100,1006.25,0.89,0.99,0.99],
    [4543,363171,"Vazduh","Libelium","0004A30B0021DF70",44.979,16.7091,"","","Prijedor","",23452692,"2023-12-09T09:32:25",3,"NO ERROR",-0.51,100,1006.47,2.37,2.76,2.77],
    [4544,363171,"Vazduh","Libelium","0004A30B0021DF70",44.979,16.7091,"","","Prijedor","",23453519,"2023-12-09T10:33:07",3,"NO ERROR",0.08,100,1006.31,1.97,2.31,2.31],
    [4545,363171,"Vazduh","Libelium","0004A30B0021DF70",44.979,16.7091,"","","Prijedor","",23454451,"2023-12-09T11:33:49",3,"NO ERROR",0.03,100,1005.39,1.05,1.23,1.23],
    [4546,363171,"Vazduh","Libelium","0004A30B0021DF70",44.979,16.7091,"","","Prijedor","",23455422,"2023-12-09T12:34:31",3,"NO ERROR",0.15,100,1005.14,1.87,2.09,2.11],
    [4547,363171,"Vazduh","Libelium","0004A30B0021DF70",44.979,16.7091,"","","Prijedor","",23456328,"2023-12-09T13:35:12",3,"NO ERROR",0.42,100,1004.82,2.08,2.48,2.49],
    [4548,363171,"Vazduh","Libelium","0004A30B0021DF70",44.979,16.7091,"","","Prijedor","",23457241,"2023-12-09T14:35:54",3,"NO ERROR",1.63,100,1004.67,1.34,1.53,1.53],
    [4549,363171,"Vazduh","Libelium","0004A30B0021DF70",44.979,16.7091,"","","Prijedor","",23458094,"2023-12-09T15:36:41",3,"NO ERROR",1.13,100,1004.66,1.17,1.38,1.38],
    [4550,363171,"Vazduh","Libelium","0004A30B0021DF70",44.979,16.7091,"","","Prijedor","",23458956,"2023-12-09T16:37:23",3,"NO ERROR",0.9,100,1004.3,1.34,1.53,1.53],
    [4551,363171,"Vazduh","Libelium","0004A30B0021DF70",44.979,16.7091,"","","Prijedor","",23459759,"2023-12-09T17:38:05",3,"NO ERROR",0.56,100,1003.87,2.77,3.04,3.05],
    [4552,363171,"Vazduh","Libelium","0004A30B0021DF70",44.979,16.7091,"","","Prijedor","",23460577,"2023-12-09T18:38:46",3,"NO ERROR",0.69,100,1003.41,1.81,2.07,2.07],
    [4553,363171,"Vazduh","Libelium","0004A30B0021DF70",44.979,16.7091,"","","Prijedor","",23461434,"2023-12-09T19:39:28",3,"NO ERROR",0.58,100,1002.79,0.84,0.92,0.92],
    [4554,363171,"Vazduh","Libelium","0004A30B0021DF70",44.979,16.7091,"","","Prijedor","",23462332,"2023-12-09T20:40:10",3,"NO ERROR",0.53,100,1001.79,1.35,1.47,1.47],
    [4555,363171,"Vazduh","Libelium","0004A30B0021DF70",44.979,16.7091,"","","Prijedor","",23463178,"2023-12-09T21:40:51",3,"NO ERROR",0.16,100,1001.4,0.6,0.66,0.66],
    [4556,363171,"Vazduh","Libelium","0004A30B0021DF70",44.979,16.7091,"","","Prijedor","",23464032,"2023-12-09T22:41:32",3,"NO ERROR",-0.17,100,1000.6,1.62,1.95,1.96],
    [4557,363171,"Vazduh","Libelium","0004A30B0021DF70",44.979,16.7091,"","","Prijedor","",23464900,"2023-12-09T23:42:14",3,"NO ERROR",-0.35,100,999.92,1.73,2.07,2.07],
    [4558,363171,"Vazduh","Libelium","0004A30B0021DF70",44.979,16.7091,"","","Prijedor","",23465972,"2023-12-10T00:42:55",3,"NO ERROR",-0.44,100,999.72,2.32,2.49,2.49],
    [4559,363171,"Vazduh","Libelium","0004A30B0021DF70",44.979,16.7091,"","","Prijedor","",23466812,"2023-12-10T01:43:36",3,"NO ERROR",-0.31,100,998.43,1.32,1.55,1.55],
    [4560,363171,"Vazduh","Libelium","0004A30B0021DF70",44.979,16.7091,"","","Prijedor","",23467653,"2023-12-10T02:44:17",3,"NO ERROR",-0.14,100,997.59,2.01,2.3,2.31],
    [4561,363171,"Vazduh","Libelium","0004A30B0021DF70",44.979,16.7091,"","","Prijedor","",23468541,"2023-12-10T03:44:59",3,"NO ERROR",0.2,100,996.6,0.79,0.85,0.85],
    [4562,363171,"Vazduh","Libelium","0004A30B0021DF70",44.979,16.7091,"","","Prijedor","",23469446,"2023-12-10T04:45:40",3,"NO ERROR",0.08,100,997.27,4.4,5.09,5.1],
    [4563,363171,"Vazduh","Libelium","0004A30B0021DF70",44.979,16.7091,"","","Prijedor","",23470332,"2023-12-10T05:46:21",3,"NO ERROR",0.23,100,997.08,6.08,7.37,7.55],
    [4564,363171,"Vazduh","Libelium","0004A30B0021DF70",44.979,16.7091,"","","Prijedor","",23471207,"2023-12-10T06:47:03",3,"NO ERROR",0.45,100,997.32,12,14.33,14.39],
    [4565,363171,"Vazduh","Libelium","0004A30B0021DF70",44.979,16.7091,"","","Prijedor","",23472059,"2023-12-10T07:47:45",3,"NO ERROR",0.69,100,997.56,11.91,13.8,13.83],
    [4566,363171,"Vazduh","Libelium","0004A30B0021DF70",44.979,16.7091,"","","Prijedor","",23472914,"2023-12-10T08:48:33",3,"NO ERROR",1.17,100,998.08,15.99,19.38,19.44],
    [4567,363171,"Vazduh","Libelium","0004A30B0021DF70",44.979,16.7091,"","","Prijedor","",23473723,"2023-12-10T09:49:15",3,"NO ERROR",1.34,100,999.3,12.3,15.07,15.13],
    [4568,363171,"Vazduh","Libelium","0004A30B0021DF70",44.979,16.7091,"","","Prijedor","",23474576,"2023-12-10T10:49:58",3,"NO ERROR",1.98,100,999.24,10.06,11.78,11.81],
    [4569,363171,"Vazduh","Libelium","0004A30B0021DF70",44.979,16.7091,"","","Prijedor","",23475491,"2023-12-10T11:50:40",3,"NO ERROR",3.23,100,999.85,3.88,4.55,4.56],
    [4570,363171,"Vazduh","Libelium","0004A30B0021DF70",44.979,16.7091,"","","Prijedor","",23476409,"2023-12-10T12:51:21",3,"NO ERROR",4.07,100,1000.47,4.68,5.34,5.35],
    [4571,363171,"Vazduh","Libelium","0004A30B0021DF70",44.979,16.7091,"","","Prijedor","",23477347,"2023-12-10T13:52:02",3,"NO ERROR",4.86,100,1001.08,4.99,5.89,5.92],
    [4572,363171,"Vazduh","Libelium","0004A30B0021DF70",44.979,16.7091,"","","Prijedor","",23478282,"2023-12-10T14:52:44",3,"NO ERROR",4.79,100,1001.63,2.49,2.92,2.94],
    [4573,363171,"Vazduh","Libelium","0004A30B0021DF70",44.979,16.7091,"","","Prijedor","",23479193,"2023-12-10T15:53:32",3,"NO ERROR",3.93,100,1002.4,5.79,6.84,6.85],
    [4574,363171,"Vazduh","Libelium","0004A30B0021DF70",44.979,16.7091,"","","Prijedor","",23480088,"2023-12-10T16:54:14",3,"NO ERROR",3.43,100,1003.45,16.24,26.41,158.02],
    [4575,363171,"Vazduh","Libelium","0004A30B0021DF70",44.979,16.7091,"","","Prijedor","",23480935,"2023-12-10T17:54:55",3,"NO ERROR",3.18,100,1003.96,44.24,97.56,581.65],
    [4576,363171,"Vazduh","Libelium","0004A30B0021DF70",44.979,16.7091,"","","Prijedor","",23481764,"2023-12-10T18:55:36",3,"NO ERROR",2.93,100,1004.76,20.95,52.67,674.77],
    [4577,363171,"Vazduh","Libelium","0004A30B0021DF70",44.979,16.7091,"","","Prijedor","",23482665,"2023-12-10T19:56:18",3,"NO ERROR",2.66,100,1004.77,25.06,51.59,449.89],
    [4578,363171,"Vazduh","Libelium","0004A30B0021DF70",44.979,16.7091,"","","Prijedor","",23483550,"2023-12-10T20:57:00",3,"NO ERROR",2.18,100,1004.89,13.8,42.47,491.63],
    [4579,363171,"Vazduh","Libelium","0004A30B0021DF70",44.979,16.7091,"","","Prijedor","",23484371,"2023-12-10T21:57:41",3,"NO ERROR",1.94,100,1004.09,19.9,32.83,152.3],
    [4580,363171,"Vazduh","Libelium","0004A30B0021DF70",44.979,16.7091,"","","Prijedor","",23485230,"2023-12-10T22:58:23",3,"NO ERROR",1.93,100,1004.14,49.36,106.32,729.3],
    [4581,363171,"Vazduh","Libelium","0004A30B0021DF70",44.979,16.7091,"","","Prijedor","",23486178,"2023-12-10T23:59:05",3,"NO ERROR",1.47,100,1003.97,13.42,36.88,621.89],
    [4582,363171,"Vazduh","Libelium","0004A30B0021DF70",44.979,16.7091,"","","Prijedor","",23487071,"2023-12-11T00:59:47",3,"NO ERROR",1.14,100,1002.83,6.33,27.74,261.31],
    [4583,363171,"Vazduh","Libelium","0004A30B0021DF70",44.979,16.7091,"","","Prijedor","",23487932,"2023-12-11T02:00:28",3,"NO ERROR",0.96,100,1002.51,11.28,28.38,266.61],
    [4584,363171,"Vazduh","Libelium","0004A30B0021DF70",44.979,16.7091,"","","Prijedor","",23488768,"2023-12-11T03:01:09",3,"NO ERROR",0.53,100,1002.04,33.53,61.01,596.37],
    [4585,363171,"Vazduh","Libelium","0004A30B0021DF70",44.979,16.7091,"","","Prijedor","",23489656,"2023-12-11T04:01:51",3,"NO ERROR",0.02,100,1001.21,9.52,29.15,320.67],
    [4586,363171,"Vazduh","Libelium","0004A30B0021DF70",44.979,16.7091,"","","Prijedor","",23490535,"2023-12-11T05:02:32",3,"NO ERROR",-0.22,100,1000.34,5.65,15.67,174.16],
    [4587,363171,"Vazduh","Libelium","0004A30B0021DF70",44.979,16.7091,"","","Prijedor","",23491394,"2023-12-11T06:03:13",3,"NO ERROR",-0.11,100,999.12,1.05,1.26,1.42],
    [4588,363171,"Vazduh","Libelium","0004A30B0021DF70",44.979,16.7091,"","","Prijedor","",23492217,"2023-12-11T07:03:57",3,"NO ERROR",-0.2,100,999,1.89,2.17,2.17],
    [4589,363171,"Vazduh","Libelium","0004A30B0021DF70",44.979,16.7091,"","","Prijedor","",23493114,"2023-12-11T08:04:39",3,"NO ERROR",-0.07,100,999.28,1.66,1.95,2.07],
    [4590,363171,"Vazduh","Libelium","0004A30B0021DF70",44.979,16.7091,"","","Prijedor","",23493991,"2023-12-11T09:05:26",3,"NO ERROR",1.08,100,1000.37,0.33,0.56,0.74],
    [4591,363171,"Vazduh","Libelium","0004A30B0021DF70",44.979,16.7091,"","","Prijedor","",23494826,"2023-12-11T10:06:07",3,"NO ERROR",2.84,100,1000.15,0.27,0.39,0.39],
    [4592,363171,"Vazduh","Libelium","0004A30B0021DF70",44.979,16.7091,"","","Prijedor","",23495752,"2023-12-11T11:06:49",3,"NO ERROR",4.56,100,999.4,0.21,0.22,0.22],
    [4593,363171,"Vazduh","Libelium","0004A30B0021DF70",44.979,16.7091,"","","Prijedor","",23496722,"2023-12-11T12:07:31",3,"NO ERROR",5.73,100,999.04,0.05,0.05,0.05],
    [4594,363171,"Vazduh","Libelium","0004A30B0021DF70",44.979,16.7091,"","","Prijedor","",23497710,"2023-12-11T13:08:19",3,"NO ERROR",7.46,100,997.65,0.45,0.53,0.53],
    [4595,363171,"Vazduh","Libelium","0004A30B0021DF70",44.979,16.7091,"","","Prijedor","",23498667,"2023-12-11T14:09:00",3,"NO ERROR",7.64,100,997.22,0.36,0.43,0.43],
    [4596,363171,"Vazduh","Libelium","0004A30B0021DF70",44.979,16.7091,"","","Prijedor","",23499592,"2023-12-11T15:09:42",3,"NO ERROR",7.71,100,996.79,0.28,0.36,0.36],
    [4597,363171,"Vazduh","Libelium","0004A30B0021DF70",44.979,16.7091,"","","Prijedor","",23500498,"2023-12-11T16:10:23",3,"NO ERROR",7.47,100,996.59,1.69,1.89,1.9],
    [4598,363171,"Vazduh","Libelium","0004A30B0021DF70",44.979,16.7091,"","","Prijedor","",23501361,"2023-12-11T17:11:05",3,"NO ERROR",7.26,100,996.32,4.22,5.03,5.05],
    [4599,363171,"Vazduh","Libelium","0004A30B0021DF70",44.979,16.7091,"","","Prijedor","",23502202,"2023-12-11T18:11:47",3,"NO ERROR",7.07,100,996.38,2.67,3.31,3.45],
    [4600,363171,"Vazduh","Libelium","0004A30B0021DF70",44.979,16.7091,"","","Prijedor","",23503203,"2023-12-11T19:12:34",3,"NO ERROR",7.03,100,996.98,1.52,1.87,1.89],
    [4601,363171,"Vazduh","Libelium","0004A30B0021DF70",44.979,16.7091,"","","Prijedor","",23504313,"2023-12-11T20:13:16",3,"NO ERROR",7.15,100,997.33,0.13,0.15,0.16],
    [4602,363171,"Vazduh","Libelium","0004A30B0021DF70",44.979,16.7091,"","","Prijedor","",23505215,"2023-12-11T21:13:58",3,"NO ERROR",7.2,100,996.9,1.59,1.93,1.97],
    [4603,363171,"Vazduh","Libelium","0004A30B0021DF70",44.979,16.7091,"","","Prijedor","",23506091,"2023-12-11T22:14:40",3,"NO ERROR",7.24,100,996.68,2.3,2.74,2.75],
    [4604,363171,"Vazduh","Libelium","0004A30B0021DF70",44.979,16.7091,"","","Prijedor","",23506979,"2023-12-11T23:15:21",3,"NO ERROR",7.3,100,997.24,1.82,2.12,2.13],
    [4605,363171,"Vazduh","Libelium","0004A30B0021DF70",44.979,16.7091,"","","Prijedor","",23510117,"2023-12-12T00:16:03",3,"NO ERROR",7.38,100,997.49,1.54,1.82,1.83],
    [4606,363171,"Vazduh","Libelium","0004A30B0021DF70",44.979,16.7091,"","","Prijedor","",23511010,"2023-12-12T01:16:44",3,"NO ERROR",7.45,100,997.81,1.52,1.96,2.43],
    [4607,363171,"Vazduh","Libelium","0004A30B0021DF70",44.979,16.7091,"","","Prijedor","",23511888,"2023-12-12T02:17:25",3,"NO ERROR",7.46,100,997.71,1.4,1.67,1.67],
    [4608,363171,"Vazduh","Libelium","0004A30B0021DF70",44.979,16.7091,"","","Prijedor","",23512761,"2023-12-12T03:18:06",3,"NO ERROR",7.77,100,997.51,1.88,2.1,2.11],
    [4609,363171,"Vazduh","Libelium","0004A30B0021DF70",44.979,16.7091,"","","Prijedor","",23513676,"2023-12-12T04:18:47",3,"NO ERROR",7.36,100,997.78,1.5,1.93,1.95],
    [4610,363171,"Vazduh","Libelium","0004A30B0021DF70",44.979,16.7091,"","","Prijedor","",23514573,"2023-12-12T05:19:28",3,"NO ERROR",7.84,100,997.96,1.56,1.74,1.75],
    [4611,363171,"Vazduh","Libelium","0004A30B0021DF70",44.979,16.7091,"","","Prijedor","",23515530,"2023-12-12T06:20:09",3,"NO ERROR",7.6,100,998.46,0.73,0.95,0.95],
    [4612,363171,"Vazduh","Libelium","0004A30B0021DF70",44.979,16.7091,"","","Prijedor","",23516428,"2023-12-12T07:20:50",3,"NO ERROR",7.71,100,998.86,1.66,1.93,1.94],
    [4613,363171,"Vazduh","Libelium","0004A30B0021DF70",44.979,16.7091,"","","Prijedor","",23517365,"2023-12-12T08:21:31",3,"NO ERROR",8.14,100,999.2,1.22,1.52,1.66],
    [4614,363171,"Vazduh","Libelium","0004A30B0021DF70",44.979,16.7091,"","","Prijedor","",23518268,"2023-12-12T09:22:13",3,"NO ERROR",8.71,100,999.43,1.17,1.42,1.42],
    [4615,363171,"Vazduh","Libelium","0004A30B0021DF70",44.979,16.7091,"","","Prijedor","",23519149,"2023-12-12T10:22:56",3,"NO ERROR",10.14,100,999.13,1.83,2.15,2.15],
    [4616,363171,"Vazduh","Libelium","0004A30B0021DF70",44.979,16.7091,"","","Prijedor","",23520065,"2023-12-12T11:23:37",3,"NO ERROR",11.12,100,998.82,2.94,3.33,3.35],
    [4617,363171,"Vazduh","Libelium","0004A30B0021DF70",44.979,16.7091,"","","Prijedor","",23521084,"2023-12-12T12:24:19",3,"NO ERROR",11.67,100,998.12,2.06,2.4,2.4],
    [4618,363171,"Vazduh","Libelium","0004A30B0021DF70",44.979,16.7091,"","","Prijedor","",23522038,"2023-12-12T13:25:07",3,"NO ERROR",11.54,100,997.56,1.26,1.41,1.41],
    [4619,363171,"Vazduh","Libelium","0004A30B0021DF70",44.979,16.7091,"","","Prijedor","",23522983,"2023-12-12T14:25:48",3,"NO ERROR",11.59,100,996.85,1.17,1.31,1.31],
    [4620,363171,"Vazduh","Libelium","0004A30B0021DF70",44.979,16.7091,"","","Prijedor","",23523940,"2023-12-12T15:26:29",3,"NO ERROR",11.47,100,996.26,3.97,4.69,4.72],
    [4621,363171,"Vazduh","Libelium","0004A30B0021DF70",44.979,16.7091,"","","Prijedor","",23524842,"2023-12-12T16:27:17",3,"NO ERROR",10.86,100,996.23,2.46,2.92,2.93],
    [4622,363171,"Vazduh","Libelium","0004A30B0021DF70",44.979,16.7091,"","","Prijedor","",23525709,"2023-12-12T17:27:59",3,"NO ERROR",10.18,100,995.82,1.87,2.07,2.07],
    [4623,363171,"Vazduh","Libelium","0004A30B0021DF70",44.979,16.7091,"","","Prijedor","",23526551,"2023-12-12T18:28:41",3,"NO ERROR",9.63,100,995.26,3.4,3.91,3.92],
    [4624,363171,"Vazduh","Libelium","0004A30B0021DF70",44.979,16.7091,"","","Prijedor","",23527407,"2023-12-12T19:29:22",3,"NO ERROR",9.01,100,994.9,5.46,6.15,6.16],
    [4625,363171,"Vazduh","Libelium","0004A30B0021DF70",44.979,16.7091,"","","Prijedor","",23528378,"2023-12-12T20:30:04",3,"NO ERROR",8.32,100,994.31,3.45,4.05,4.09],
    [4626,363171,"Vazduh","Libelium","0004A30B0021DF70",44.979,16.7091,"","","Prijedor","",23529305,"2023-12-12T21:30:47",3,"NO ERROR",8.01,100,993.74,5.56,6.57,8.28],
    [4627,363171,"Vazduh","Libelium","0004A30B0021DF70",44.979,16.7091,"","","Prijedor","",23530200,"2023-12-12T22:31:29",3,"NO ERROR",7.53,100,993.33,4.69,5.45,5.58],
    [4628,363171,"Vazduh","Libelium","0004A30B0021DF70",44.979,16.7091,"","","Prijedor","",23531051,"2023-12-12T23:32:11",3,"NO ERROR",8.21,100,992.98,2.51,2.9,2.92],
    [4629,363171,"Vazduh","Libelium","0004A30B0021DF70",44.979,16.7091,"","","Prijedor","",23532145,"2023-12-13T00:32:52",3,"NO ERROR",7.97,100,991.8,2.3,2.52,2.53],
    [4630,363171,"Vazduh","Libelium","0004A30B0021DF70",44.979,16.7091,"","","Prijedor","",23532996,"2023-12-13T01:33:34",3,"NO ERROR",7.8,100,991.1,2.18,2.48,2.49],
    [4631,363171,"Vazduh","Libelium","0004A30B0021DF70",44.979,16.7091,"","","Prijedor","",23533825,"2023-12-13T02:34:16",3,"NO ERROR",7.9,100,990.66,2.24,2.61,2.62],
    [4632,363171,"Vazduh","Libelium","0004A30B0021DF70",44.979,16.7091,"","","Prijedor","",23534685,"2023-12-13T03:34:58",3,"NO ERROR",8.3,100,989.91,1.96,2.24,2.24],
    [4633,363171,"Vazduh","Libelium","0004A30B0021DF70",44.979,16.7091,"","","Prijedor","",23535584,"2023-12-13T04:35:39",3,"NO ERROR",8.7,100,988.8,1.18,1.37,1.38],
    [4634,363171,"Vazduh","Libelium","0004A30B0021DF70",44.979,16.7091,"","","Prijedor","",23536477,"2023-12-13T05:36:20",3,"NO ERROR",8.19,100,988.55,1.48,1.88,1.89],
    [4635,363171,"Vazduh","Libelium","0004A30B0021DF70",44.979,16.7091,"","","Prijedor","",23537315,"2023-12-13T06:37:01",3,"NO ERROR",9.85,100,988.01,2.27,2.79,2.93],
    [4636,363171,"Vazduh","Libelium","0004A30B0021DF70",44.979,16.7091,"","","Prijedor","",23538165,"2023-12-13T07:37:44",3,"NO ERROR",9.29,100,988.06,1.7,2.09,2.1],
    [4637,363171,"Vazduh","Libelium","0004A30B0021DF70",44.979,16.7091,"","","Prijedor","",23539060,"2023-12-13T08:38:25",3,"NO ERROR",10.17,100,987.33,1.51,1.69,1.7],
    [4638,363171,"Vazduh","Libelium","0004A30B0021DF70",44.979,16.7091,"","","Prijedor","",23539900,"2023-12-13T09:39:06",3,"NO ERROR",10.58,100,987,1.4,1.67,1.68],
    [4639,363171,"Vazduh","Libelium","0004A30B0021DF70",44.979,16.7091,"","","Prijedor","",23540759,"2023-12-13T10:39:47",3,"NO ERROR",10.76,100,987.15,1.02,1.28,1.31],
    [4640,363171,"Vazduh","Libelium","0004A30B0021DF70",44.979,16.7091,"","","Prijedor","",23541731,"2023-12-13T11:40:29",3,"NO ERROR",11.41,100,986.38,0.05,0.05,0.05],
    [4641,363171,"Vazduh","Libelium","0004A30B0021DF70",44.979,16.7091,"","","Prijedor","",23542710,"2023-12-13T12:41:10",3,"NO ERROR",11.18,100,986.2,0.24,0.28,0.28],
    [4642,363171,"Vazduh","Libelium","0004A30B0021DF70",44.979,16.7091,"","","Prijedor","",23543654,"2023-12-13T13:41:51",3,"NO ERROR",11.25,100,985.87,0.05,0.05,0.05],
    [4643,363171,"Vazduh","Libelium","0004A30B0021DF70",44.979,16.7091,"","","Prijedor","",23544662,"2023-12-13T14:42:33",3,"NO ERROR",10.88,100,985.6,0.02,0.02,0.02],
    [4644,363171,"Vazduh","Libelium","0004A30B0021DF70",44.979,16.7091,"","","Prijedor","",23545580,"2023-12-13T15:43:21",3,"NO ERROR",10.28,100,985.17,0.06,0.08,0.08],
    [4645,363171,"Vazduh","Libelium","0004A30B0021DF70",44.979,16.7091,"","","Prijedor","",23546457,"2023-12-13T16:44:03",3,"NO ERROR",9.67,100,985.02,0.38,0.52,0.53],
    [4646,363171,"Vazduh","Libelium","0004A30B0021DF70",44.979,16.7091,"","","Prijedor","",23547316,"2023-12-13T17:44:45",3,"NO ERROR",9.17,100,985.79,0.09,0.11,0.11],
    [4647,363171,"Vazduh","Libelium","0004A30B0021DF70",44.979,16.7091,"","","Prijedor","",23548184,"2023-12-13T18:45:27",3,"NO ERROR",8.87,100,986.44,0.07,0.09,0.09],
    [4648,363171,"Vazduh","Libelium","0004A30B0021DF70",44.979,16.7091,"","","Prijedor","",23549086,"2023-12-13T19:46:09",3,"NO ERROR",8.76,100,987.23,0.04,0.06,0.06],
    [4649,363171,"Vazduh","Libelium","0004A30B0021DF70",44.979,16.7091,"","","Prijedor","",23550016,"2023-12-13T20:46:57",3,"NO ERROR",8.79,100,987.55,0.62,0.76,0.76],
    [4650,363171,"Vazduh","Libelium","0004A30B0021DF70",44.979,16.7091,"","","Prijedor","",23550894,"2023-12-13T21:47:38",3,"NO ERROR",8.81,100,988.11,3.31,3.73,3.73],
    [4651,363171,"Vazduh","Libelium","0004A30B0021DF70",44.979,16.7091,"","","Prijedor","",23551750,"2023-12-13T22:48:20",3,"NO ERROR",8.79,100,988.31,7.75,8.99,9.01],
    [4652,363171,"Vazduh","Libelium","0004A30B0021DF70",44.979,16.7091,"","","Prijedor","",23552637,"2023-12-13T23:49:02",3,"NO ERROR",8.46,100,987.38,4.96,5.75,5.76],
    [4653,363171,"Vazduh","Libelium","0004A30B0021DF70",44.979,16.7091,"","","Prijedor","",23553764,"2023-12-14T00:49:44",3,"NO ERROR",8.44,100,988.38,9.59,10.98,11],
    [4654,363171,"Vazduh","Libelium","0004A30B0021DF70",44.979,16.7091,"","","Prijedor","",23554659,"2023-12-14T01:50:26",3,"NO ERROR",8.52,100,988.55,4.61,5.4,5.41],
    [4655,363171,"Vazduh","Libelium","0004A30B0021DF70",44.979,16.7091,"","","Prijedor","",23555534,"2023-12-14T02:51:07",3,"NO ERROR",8.51,100,989.51,12.95,15.64,15.71],
    [4656,363171,"Vazduh","Libelium","0004A30B0021DF70",44.979,16.7091,"","","Prijedor","",23556453,"2023-12-14T03:51:49",3,"NO ERROR",8.34,100,990.01,10.32,11.95,11.97],
    [4657,363171,"Vazduh","Libelium","0004A30B0021DF70",44.979,16.7091,"","","Prijedor","",23557395,"2023-12-14T04:52:32",3,"NO ERROR",8.28,100,990.64,3.13,3.79,3.8],
    [4658,363171,"Vazduh","Libelium","0004A30B0021DF70",44.979,16.7091,"","","Prijedor","",23558455,"2023-12-14T05:53:20",3,"NO ERROR",8.2,100,991.49,1.78,1.9,1.9],
    [4659,363171,"Vazduh","Libelium","0004A30B0021DF70",44.979,16.7091,"","","Prijedor","",23559351,"2023-12-14T06:54:02",3,"NO ERROR",7.99,100,992.55,1.1,1.2,1.2],
    [4660,363171,"Vazduh","Libelium","0004A30B0021DF70",44.979,16.7091,"","","Prijedor","",23560423,"2023-12-14T07:54:44",3,"NO ERROR",7.7,100,993.58,1.81,2.12,2.12],
    [4661,363171,"Vazduh","Libelium","0004A30B0021DF70",44.979,16.7091,"","","Prijedor","",23561297,"2023-12-14T08:55:25",3,"NO ERROR",7.4,100,994.8,0.15,0.15,0.15],
    [4662,363171,"Vazduh","Libelium","0004A30B0021DF70",44.979,16.7091,"","","Prijedor","",23562160,"2023-12-14T09:56:07",3,"NO ERROR",7.61,100,995.76,0.1,0.12,0.12],
    [4663,363171,"Vazduh","Libelium","0004A30B0021DF70",44.979,16.7091,"","","Prijedor","",23563044,"2023-12-14T10:56:49",3,"NO ERROR",8.14,100,996.17,0.05,0.05,0.05],
    [4664,363171,"Vazduh","Libelium","0004A30B0021DF70",44.979,16.7091,"","","Prijedor","",23564020,"2023-12-14T11:57:30",3,"NO ERROR",8.76,100,996.5,0.02,0.02,0.02],
    [4665,363171,"Vazduh","Libelium","0004A30B0021DF70",44.979,16.7091,"","","Prijedor","",23565779,"2023-12-14T12:58:12",3,"NO ERROR",9.46,100,996.68,0,0,0],
    [4666,363171,"Vazduh","Libelium","0004A30B0021DF70",44.979,16.7091,"","","Prijedor","",23566691,"2023-12-14T13:58:54",3,"NO ERROR",9.41,100,996.89,0,0,0],
    [4667,363171,"Vazduh","Libelium","0004A30B0021DF70",44.979,16.7091,"","","Prijedor","",23567556,"2023-12-14T14:59:36",3,"NO ERROR",9.08,100,997.66,0.02,0.02,0.02],
    [4668,363171,"Vazduh","Libelium","0004A30B0021DF70",44.979,16.7091,"","","Prijedor","",23568431,"2023-12-14T16:00:25",3,"NO ERROR",8.66,100,998.88,0.02,0.04,0.04],
    [4669,363171,"Vazduh","Libelium","0004A30B0021DF70",44.979,16.7091,"","","Prijedor","",23569295,"2023-12-14T17:01:06",3,"NO ERROR",8.27,100,999.93,0.52,0.63,0.64],
    [4670,363171,"Vazduh","Libelium","0004A30B0021DF70",44.979,16.7091,"","","Prijedor","",23570114,"2023-12-14T18:01:54",3,"NO ERROR",8.08,100,1000.96,0.16,0.19,0.19],
    [4671,363171,"Vazduh","Libelium","0004A30B0021DF70",44.979,16.7091,"","","Prijedor","",23570952,"2023-12-14T19:02:36",3,"NO ERROR",7.9,100,1001.84,0.14,0.15,0.15],
    [4672,363171,"Vazduh","Libelium","0004A30B0021DF70",44.979,16.7091,"","","Prijedor","",23571847,"2023-12-14T20:03:17",3,"NO ERROR",7.15,100,1002.99,0.96,1.15,1.16],
    [4673,363171,"Vazduh","Libelium","0004A30B0021DF70",44.979,16.7091,"","","Prijedor","",23572700,"2023-12-14T21:03:59",3,"NO ERROR",6.99,100,1003.79,0.68,0.75,0.75],
    [4674,363171,"Vazduh","Libelium","0004A30B0021DF70",44.979,16.7091,"","","Prijedor","",23573554,"2023-12-14T22:04:40",3,"NO ERROR",7.12,100,1004.71,0.75,1.04,1.1],
    [4675,363171,"Vazduh","Libelium","0004A30B0021DF70",44.979,16.7091,"","","Prijedor","",23574392,"2023-12-14T23:05:21",3,"NO ERROR",5.81,100,1005.44,1.54,1.77,1.78],
    [4676,363171,"Vazduh","Libelium","0004A30B0021DF70",44.979,16.7091,"","","Prijedor","",23575455,"2023-12-15T00:06:03",3,"NO ERROR",4.76,100,1006.14,9,20.79,218.55],
    [4677,363171,"Vazduh","Libelium","0004A30B0021DF70",44.979,16.7091,"","","Prijedor","",23578076,"2023-12-15T03:08:09",3,"NO ERROR",4.07,100,1007.73,1.21,1.4,1.4],
    [4678,363171,"Vazduh","Libelium","0004A30B0021DF70",44.979,16.7091,"","","Prijedor","",23578951,"2023-12-15T04:08:50",3,"NO ERROR",4.1,100,1008.33,1.09,1.31,1.31],
    [4679,363171,"Vazduh","Libelium","0004A30B0021DF70",44.979,16.7091,"","","Prijedor","",23579832,"2023-12-15T05:09:31",3,"NO ERROR",4.17,100,1008.7,1.07,1.37,1.56],
    [4680,363171,"Vazduh","Libelium","0004A30B0021DF70",44.979,16.7091,"","","Prijedor","",23580676,"2023-12-15T06:10:12",3,"NO ERROR",3.79,100,1009.46,0.58,0.66,0.66],
    [4681,363171,"Vazduh","Libelium","0004A30B0021DF70",44.979,16.7091,"","","Prijedor","",23581493,"2023-12-15T07:10:54",3,"NO ERROR",3.4,100,1010.38,3.01,3.82,9.45],
    [4682,363171,"Vazduh","Libelium","0004A30B0021DF70",44.979,16.7091,"","","Prijedor","",23582367,"2023-12-15T08:11:35",3,"NO ERROR",3.52,100,1011.28,1.14,1.37,1.37],
    [4683,363171,"Vazduh","Libelium","0004A30B0021DF70",44.979,16.7091,"","","Prijedor","",23583246,"2023-12-15T09:12:16",3,"NO ERROR",5.9,100,1012.22,0.35,0.37,0.37],
    [4684,363171,"Vazduh","Libelium","0004A30B0021DF70",44.979,16.7091,"","","Prijedor","",23584025,"2023-12-15T10:12:57",3,"NO ERROR",7.25,100,1013.38,0.13,0.15,0.15],
    [4685,363171,"Vazduh","Libelium","0004A30B0021DF70",44.979,16.7091,"","","Prijedor","",23584887,"2023-12-15T11:13:39",3,"NO ERROR",7.41,100,1013.86,0.02,0.02,0.02],
    [4686,363171,"Vazduh","Libelium","0004A30B0021DF70",44.979,16.7091,"","","Prijedor","",23585820,"2023-12-15T12:14:20",3,"NO ERROR",8.16,100,1014.06,0.02,0.02,0.02],
    [4687,363171,"Vazduh","Libelium","0004A30B0021DF70",44.979,16.7091,"","","Prijedor","",23586699,"2023-12-15T13:15:01",3,"NO ERROR",8.71,100,1014.14,0.02,0.09,0.17],
    [4688,363171,"Vazduh","Libelium","0004A30B0021DF70",44.979,16.7091,"","","Prijedor","",23659614,"2023-12-19T01:13:34",3,"NO ERROR",-1.57,100,1015.9,1.48,1.83,1.87],
    [4689,363171,"Vazduh","Libelium","0004A30B0021DF70",44.979,16.7091,"","","Prijedor","",23660537,"2023-12-19T02:14:15",3,"NO ERROR",-2.48,100,1015.76,1.19,1.47,1.49],
    [4690,363171,"Vazduh","Libelium","0004A30B0021DF70",44.979,16.7091,"","","Prijedor","",23661438,"2023-12-19T03:14:56",3,"NO ERROR",-2.66,100,1015.18,0.2,0.23,0.23],
    [4691,363171,"Vazduh","Libelium","0004A30B0021DF70",44.979,16.7091,"","","Prijedor","",23662444,"2023-12-19T04:15:39",3,"NO ERROR",-2.77,100,1014.91,1.23,1.39,1.39],
    [4692,363171,"Vazduh","Libelium","0004A30B0021DF70",44.979,16.7091,"","","Prijedor","",23663434,"2023-12-19T05:16:21",3,"NO ERROR",-2.93,100,1014.57,1.26,1.47,1.48],
    [4693,363171,"Vazduh","Libelium","0004A30B0021DF70",44.979,16.7091,"","","Prijedor","",23664371,"2023-12-19T06:17:03",3,"NO ERROR",-3.36,100,1014.54,9.02,11.22,11.55],
    [4694,363171,"Vazduh","Libelium","0004A30B0021DF70",44.979,16.7091,"","","Prijedor","",23665266,"2023-12-19T07:17:45",3,"NO ERROR",-3.73,100,1014.33,2.4,2.82,2.84],
    [4695,363171,"Vazduh","Libelium","0004A30B0021DF70",44.979,16.7091,"","","Prijedor","",23666177,"2023-12-19T08:18:27",3,"NO ERROR",-3.45,100,1014.25,3.85,4.63,4.79],
    [4696,363171,"Vazduh","Libelium","0004A30B0021DF70",44.979,16.7091,"","","Prijedor","",23667076,"2023-12-19T09:19:08",3,"NO ERROR",-1.95,100,1014.03,4.98,6.77,14.59],
    [4697,363171,"Vazduh","Libelium","0004A30B0021DF70",44.979,16.7091,"","","Prijedor","",23667897,"2023-12-19T10:19:50",3,"NO ERROR",1.03,100,1013.35,0.86,1.12,1.59],
    [4698,363171,"Vazduh","Libelium","0004A30B0021DF70",44.979,16.7091,"","","Prijedor","",23668880,"2023-12-19T11:20:31",3,"NO ERROR",3.98,100,1011.72,0.67,0.75,0.76],
    [4699,363171,"Vazduh","Libelium","0004A30B0021DF70",44.979,16.7091,"","","Prijedor","",23669859,"2023-12-19T12:21:13",3,"NO ERROR",6.71,100,1010.48,0.64,0.69,0.69],
    [4700,363171,"Vazduh","Libelium","0004A30B0021DF70",44.979,16.7091,"","","Prijedor","",23670817,"2023-12-19T13:22:01",3,"NO ERROR",10.08,82.6,1009.14,0.3,0.35,0.35],
    [4701,363171,"Vazduh","Libelium","0004A30B0021DF70",44.979,16.7091,"","","Prijedor","",23671808,"2023-12-19T14:22:43",3,"NO ERROR",13.38,67.9,1008.21,0.12,0.14,0.14],
    [4702,363171,"Vazduh","Libelium","0004A30B0021DF70",44.979,16.7091,"","","Prijedor","",23672745,"2023-12-19T15:23:24",3,"NO ERROR",13.7,69.5,1007.71,0.65,0.91,1.04],
    [4703,363171,"Vazduh","Libelium","0004A30B0021DF70",44.979,16.7091,"","","Prijedor","",23673634,"2023-12-19T16:24:06",3,"NO ERROR",8.26,94.2,1007.09,1,1.44,1.6],
    [4704,363171,"Vazduh","Libelium","0004A30B0021DF70",44.979,16.7091,"","","Prijedor","",23674517,"2023-12-19T17:24:47",3,"NO ERROR",4.76,100,1006.75,1.99,2.39,2.4],
    [4705,363171,"Vazduh","Libelium","0004A30B0021DF70",44.979,16.7091,"","","Prijedor","",23675352,"2023-12-19T18:25:28",3,"NO ERROR",3.21,100,1006.3,1.85,2.31,2.33],
    [4706,363171,"Vazduh","Libelium","0004A30B0021DF70",44.979,16.7091,"","","Prijedor","",23676215,"2023-12-19T19:26:16",3,"NO ERROR",1.95,100,1006.23,1.83,2.06,2.09],
    [4707,363171,"Vazduh","Libelium","0004A30B0021DF70",44.979,16.7091,"","","Prijedor","",23677143,"2023-12-19T20:26:57",3,"NO ERROR",0.91,100,1005.79,1.74,2.22,5.28],
    [4708,363171,"Vazduh","Libelium","0004A30B0021DF70",44.979,16.7091,"","","Prijedor","",23678077,"2023-12-19T21:27:38",3,"NO ERROR",0.03,100,1005.13,1.76,2.07,2.07],
    [4709,363171,"Vazduh","Libelium","0004A30B0021DF70",44.979,16.7091,"","","Prijedor","",23679443,"2023-12-19T22:28:19",3,"NO ERROR",-0.12,100,1004.35,1.92,2.31,2.32],
    [4710,363171,"Vazduh","Libelium","0004A30B0021DF70",44.979,16.7091,"","","Prijedor","",23680316,"2023-12-19T23:29:00",3,"NO ERROR",-1.08,100,1003.74,2.18,2.55,2.56],
    [4711,363171,"Vazduh","Libelium","0004A30B0021DF70",44.979,16.7091,"","","Prijedor","",23681448,"2023-12-20T00:29:48",3,"NO ERROR",-1.88,100,1002.98,2.7,3.11,3.12],
    [4712,363171,"Vazduh","Libelium","0004A30B0021DF70",44.979,16.7091,"","","Prijedor","",23682368,"2023-12-20T01:30:30",3,"NO ERROR",-1.91,100,1002.32,1.07,1.29,1.3],
    [4713,363171,"Vazduh","Libelium","0004A30B0021DF70",44.979,16.7091,"","","Prijedor","",23683248,"2023-12-20T02:31:11",3,"NO ERROR",-2.46,100,1001.78,10.56,16.7,53.13],
    [4714,363171,"Vazduh","Libelium","0004A30B0021DF70",44.979,16.7091,"","","Prijedor","",23684160,"2023-12-20T03:31:53",3,"NO ERROR",-2.72,100,1000.98,5.2,6.08,6.1],
    [4715,363171,"Vazduh","Libelium","0004A30B0021DF70",44.979,16.7091,"","","Prijedor","",23685117,"2023-12-20T04:32:34",3,"NO ERROR",-2.2,100,1000.3,18.86,35.52,310.68],
    [4716,363171,"Vazduh","Libelium","0004A30B0021DF70",44.979,16.7091,"","","Prijedor","",23686053,"2023-12-20T05:33:16",3,"NO ERROR",-2.42,100,999.83,6.64,15.91,175.11],
    [4717,363171,"Vazduh","Libelium","0004A30B0021DF70",44.979,16.7091,"","","Prijedor","",23686990,"2023-12-20T06:33:57",3,"NO ERROR",-2.79,100,999.44,3.93,5.33,7.9],
    [4718,363171,"Vazduh","Libelium","0004A30B0021DF70",44.979,16.7091,"","","Prijedor","",23687850,"2023-12-20T07:34:39",3,"NO ERROR",-2.59,100,999.25,21.17,28.66,83.33],
    [4719,363171,"Vazduh","Libelium","0004A30B0021DF70",44.979,16.7091,"","","Prijedor","",23688763,"2023-12-20T08:35:20",3,"NO ERROR",-2.46,100,999.03,32.82,52.1,321.14],
    [4720,363171,"Vazduh","Libelium","0004A30B0021DF70",44.979,16.7091,"","","Prijedor","",23689621,"2023-12-20T09:36:02",3,"NO ERROR",-1.56,100,998.91,49.48,72.98,191.32],
    [4721,363171,"Vazduh","Libelium","0004A30B0021DF70",44.979,16.7091,"","","Prijedor","",23690442,"2023-12-20T10:36:44",3,"NO ERROR",-0.57,100,998.56,11.36,15.58,29.09],
    [4722,363171,"Vazduh","Libelium","0004A30B0021DF70",44.979,16.7091,"","","Prijedor","",23691333,"2023-12-20T11:37:25",3,"NO ERROR",3.23,100,998.01,0.85,1.25,1.41],
    [4723,363171,"Vazduh","Libelium","0004A30B0021DF70",44.979,16.7091,"","","Prijedor","",23692364,"2023-12-20T12:38:06",3,"NO ERROR",6.93,100,997.38,0.31,0.43,0.53],
    [4724,363171,"Vazduh","Libelium","0004A30B0021DF70",44.979,16.7091,"","","Prijedor","",23693305,"2023-12-20T13:38:48",3,"NO ERROR",11.07,75.9,996.73,0.16,0.21,0.21],
    [4725,363171,"Vazduh","Libelium","0004A30B0021DF70",44.979,16.7091,"","","Prijedor","",23694262,"2023-12-20T14:39:30",3,"NO ERROR",11.71,67.9,996.93,0.05,0.05,0.05],
    [4726,363171,"Vazduh","Libelium","0004A30B0021DF70",44.979,16.7091,"","","Prijedor","",23695205,"2023-12-20T15:40:12",3,"NO ERROR",8.19,98.7,997.33,0.93,1.07,1.09],
    [4727,363171,"Vazduh","Libelium","0004A30B0021DF70",44.979,16.7091,"","","Prijedor","",23696082,"2023-12-20T16:40:54",3,"NO ERROR",6.65,100,998.15,2.62,3.15,3.18],
    [4728,363171,"Vazduh","Libelium","0004A30B0021DF70",44.979,16.7091,"","","Prijedor","",23696886,"2023-12-20T17:41:35",3,"NO ERROR",6.16,100,998.75,0.66,0.81,0.82],
    [4729,363171,"Vazduh","Libelium","0004A30B0021DF70",44.979,16.7091,"","","Prijedor","",23697693,"2023-12-20T18:42:17",3,"NO ERROR",5.17,100,999.72,0.62,0.73,0.73],
    [4730,363171,"Vazduh","Libelium","0004A30B0021DF70",44.979,16.7091,"","","Prijedor","",23698541,"2023-12-20T19:42:58",3,"NO ERROR",5.29,100,1000.29,1.26,1.58,1.59],
    [4731,363171,"Vazduh","Libelium","0004A30B0021DF70",44.979,16.7091,"","","Prijedor","",23699446,"2023-12-20T20:43:46",3,"NO ERROR",4.38,100,1000.84,1.77,1.99,1.99],
    [4732,363171,"Vazduh","Libelium","0004A30B0021DF70",44.979,16.7091,"","","Prijedor","",23700378,"2023-12-20T21:44:27",3,"NO ERROR",3.94,100,1000.8,0.98,1.13,1.13],
    [4733,363171,"Vazduh","Libelium","0004A30B0021DF70",44.979,16.7091,"","","Prijedor","",23701286,"2023-12-20T22:45:08",3,"NO ERROR",3.7,100,1000.94,1.43,1.59,1.59],
    [4734,363171,"Vazduh","Libelium","0004A30B0021DF70",44.979,16.7091,"","","Prijedor","",23702174,"2023-12-20T23:45:50",3,"NO ERROR",3.12,100,1000.81,0.83,0.92,0.92],
    [4735,363171,"Vazduh","Libelium","0004A30B0021DF70",44.979,16.7091,"","","Prijedor","",23703286,"2023-12-21T00:46:37",3,"NO ERROR",3.49,100,1000.31,1.15,1.48,1.48],
    [4736,363171,"Vazduh","Libelium","0004A30B0021DF70",44.979,16.7091,"","","Prijedor","",23704282,"2023-12-21T01:47:25",3,"NO ERROR",3.12,100,1000.26,1.46,1.6,1.6],
    [4737,363171,"Vazduh","Libelium","0004A30B0021DF70",44.979,16.7091,"","","Prijedor","",23705141,"2023-12-21T02:48:06",3,"NO ERROR",3.3,100,999.83,0.45,0.53,0.53],
    [4738,363171,"Vazduh","Libelium","0004A30B0021DF70",44.979,16.7091,"","","Prijedor","",23706051,"2023-12-21T03:48:47",3,"NO ERROR",2.77,100,999.26,0.3,0.36,0.37],
    [4739,363171,"Vazduh","Libelium","0004A30B0021DF70",44.979,16.7091,"","","Prijedor","",23707399,"2023-12-21T04:49:28",3,"NO ERROR",1.95,100,999.23,1.41,1.54,1.54],
    [4740,363171,"Vazduh","Libelium","0004A30B0021DF70",44.979,16.7091,"","","Prijedor","",23708423,"2023-12-21T05:50:09",3,"NO ERROR",1.51,100,999.12,1.77,1.97,1.97],
    [4741,363171,"Vazduh","Libelium","0004A30B0021DF70",44.979,16.7091,"","","Prijedor","",23710221,"2023-12-21T06:50:50",3,"NO ERROR",0.81,100,999.37,6.72,7.67,7.83],
    [4742,363171,"Vazduh","Libelium","0004A30B0021DF70",44.979,16.7091,"","","Prijedor","",23711131,"2023-12-21T07:51:32",3,"NO ERROR",0.57,100,998.92,4.96,5.54,5.55],
    [4743,363171,"Vazduh","Libelium","0004A30B0021DF70",44.979,16.7091,"","","Prijedor","",23711980,"2023-12-21T08:52:14",3,"NO ERROR",1.62,100,998.58,2.3,2.57,2.57],
    [4744,363171,"Vazduh","Libelium","0004A30B0021DF70",44.979,16.7091,"","","Prijedor","",23712843,"2023-12-21T09:52:56",3,"NO ERROR",3.11,100,997.84,0.79,0.88,0.88],
    [4745,363171,"Vazduh","Libelium","0004A30B0021DF70",44.979,16.7091,"","","Prijedor","",23713731,"2023-12-21T10:53:37",3,"NO ERROR",5.96,100,996.98,0.11,0.12,0.12],
    [4746,363171,"Vazduh","Libelium","0004A30B0021DF70",44.979,16.7091,"","","Prijedor","",23714685,"2023-12-21T11:54:19",3,"NO ERROR",7.76,100,995.49,0.17,0.17,0.17],
    [4747,363171,"Vazduh","Libelium","0004A30B0021DF70",44.979,16.7091,"","","Prijedor","",23715661,"2023-12-21T12:55:00",3,"NO ERROR",10.21,87.5,993.68,0.61,0.66,0.66],
    [4748,363171,"Vazduh","Libelium","0004A30B0021DF70",44.979,16.7091,"","","Prijedor","",23716671,"2023-12-21T13:55:48",3,"NO ERROR",10.96,76.8,992.07,0.13,0.14,0.14],
    [4749,363171,"Vazduh","Libelium","0004A30B0021DF70",44.979,16.7091,"","","Prijedor","",23717574,"2023-12-21T14:56:28",3,"NO ERROR",10.11,81.6,991.48,0.33,0.44,0.44],
    [4750,363171,"Vazduh","Libelium","0004A30B0021DF70",44.979,16.7091,"","","Prijedor","",23718505,"2023-12-21T15:57:09",3,"NO ERROR",8.88,87.7,989.64,0.61,1.11,1.68],
    [4751,363171,"Vazduh","Libelium","0004A30B0021DF70",44.979,16.7091,"","","Prijedor","",23719400,"2023-12-21T16:57:51",3,"NO ERROR",7.82,90,988.16,0.43,0.54,0.55],
    [4752,363171,"Vazduh","Libelium","0004A30B0021DF70",44.979,16.7091,"","","Prijedor","",23720243,"2023-12-21T17:58:32",3,"NO ERROR",7.68,100,987.41,2.32,2.73,2.73],
    [4753,363171,"Vazduh","Libelium","0004A30B0021DF70",44.979,16.7091,"","","Prijedor","",23721091,"2023-12-21T18:59:13",3,"NO ERROR",6.6,100,986.75,1.73,2.21,2.25],
    [4754,363171,"Vazduh","Libelium","0004A30B0021DF70",44.979,16.7091,"","","Prijedor","",23722037,"2023-12-21T19:59:54",3,"NO ERROR",6.72,100,985.9,1.4,1.75,3.05],
    [4755,363171,"Vazduh","Libelium","0004A30B0021DF70",44.979,16.7091,"","","Prijedor","",23722947,"2023-12-21T21:00:35",3,"NO ERROR",6.12,100,984.93,2.45,2.86,3],
    [4756,363171,"Vazduh","Libelium","0004A30B0021DF70",44.979,16.7091,"","","Prijedor","",23723861,"2023-12-21T22:01:22",3,"NO ERROR",5.53,100,984.47,0.84,1.1,1.13],
    [4757,363171,"Vazduh","Libelium","0004A30B0021DF70",44.979,16.7091,"","","Prijedor","",23724798,"2023-12-21T23:02:03",3,"NO ERROR",5.84,100,983.27,2.22,2.55,2.58],
    [4758,363171,"Vazduh","Libelium","0004A30B0021DF70",44.979,16.7091,"","","Prijedor","",23725841,"2023-12-22T00:02:44",3,"NO ERROR",5.01,100,982.68,1.19,1.36,1.36],
    [4759,363171,"Vazduh","Libelium","0004A30B0021DF70",44.979,16.7091,"","","Prijedor","",23726770,"2023-12-22T01:03:25",3,"NO ERROR",5.06,100,981.38,0.9,1.02,1.02],
    [4760,363171,"Vazduh","Libelium","0004A30B0021DF70",44.979,16.7091,"","","Prijedor","",23727662,"2023-12-22T02:04:06",3,"NO ERROR",4.95,100,982.49,0.96,1.09,1.09],
    [4761,363171,"Vazduh","Libelium","0004A30B0021DF70",44.979,16.7091,"","","Prijedor","",23728531,"2023-12-22T03:04:48",3,"NO ERROR",4.07,100,983.41,0.71,0.77,0.77],
    [4762,363171,"Vazduh","Libelium","0004A30B0021DF70",44.979,16.7091,"","","Prijedor","",23729476,"2023-12-22T04:05:29",3,"NO ERROR",3.66,100,983.3,0.19,0.2,0.2],
    [4763,363171,"Vazduh","Libelium","0004A30B0021DF70",44.979,16.7091,"","","Prijedor","",23730485,"2023-12-22T05:06:10",3,"NO ERROR",4.48,100,983.49,0.92,1.02,1.02],
    [4764,363171,"Vazduh","Libelium","0004A30B0021DF70",44.979,16.7091,"","","Prijedor","",23731559,"2023-12-22T06:06:51",3,"NO ERROR",4.44,100,984.25,0.68,0.74,0.75],
    [4765,363171,"Vazduh","Libelium","0004A30B0021DF70",44.979,16.7091,"","","Prijedor","",23732466,"2023-12-22T07:07:33",3,"NO ERROR",5.43,100,984.76,0.42,0.59,0.61],
    [4766,363171,"Vazduh","Libelium","0004A30B0021DF70",44.979,16.7091,"","","Prijedor","",23733390,"2023-12-22T08:08:14",3,"NO ERROR",6.65,100,986.1,0.84,1.03,1.03],
    [4767,363171,"Vazduh","Libelium","0004A30B0021DF70",44.979,16.7091,"","","Prijedor","",23734246,"2023-12-22T09:08:56",3,"NO ERROR",7.64,100,986.39,0.88,1.13,1.13],
    [4768,363171,"Vazduh","Libelium","0004A30B0021DF70",44.979,16.7091,"","","Prijedor","",23735084,"2023-12-22T10:09:38",3,"NO ERROR",7.57,100,987.51,1.94,2.32,2.35],
    [4769,363171,"Vazduh","Libelium","0004A30B0021DF70",44.979,16.7091,"","","Prijedor","",23736012,"2023-12-22T11:10:20",3,"NO ERROR",8.56,100,986.63,0.31,0.33,0.33],
    [4770,363171,"Vazduh","Libelium","0004A30B0021DF70",44.979,16.7091,"","","Prijedor","",23736955,"2023-12-22T12:11:02",3,"NO ERROR",9.01,100,985.81,0.29,0.39,0.39],
    [4771,363171,"Vazduh","Libelium","0004A30B0021DF70",44.979,16.7091,"","","Prijedor","",23737905,"2023-12-22T13:11:43",3,"NO ERROR",10.19,100,985.75,0.02,0.02,0.02],
    [4772,363171,"Vazduh","Libelium","0004A30B0021DF70",44.979,16.7091,"","","Prijedor","",23738873,"2023-12-22T14:12:24",3,"NO ERROR",11.05,100,986.84,0.26,0.34,0.35],
    [4773,363171,"Vazduh","Libelium","0004A30B0021DF70",44.979,16.7091,"","","Prijedor","",23739867,"2023-12-22T15:13:06",3,"NO ERROR",8.78,100,987.04,0.06,0.08,0.09],
    [4774,363171,"Vazduh","Libelium","0004A30B0021DF70",44.979,16.7091,"","","Prijedor","",23741332,"2023-12-22T16:13:47",3,"NO ERROR",7.36,100,987.49,0.32,0.37,0.37],
    [4775,363171,"Vazduh","Libelium","0004A30B0021DF70",44.979,16.7091,"","","Prijedor","",23742235,"2023-12-22T17:14:28",3,"NO ERROR",6.68,100,987.46,0.16,0.18,0.18],
    [4776,363171,"Vazduh","Libelium","0004A30B0021DF70",44.979,16.7091,"","","Prijedor","",23743045,"2023-12-22T18:15:09",3,"NO ERROR",7.11,100,987.66,0.13,0.14,0.14],
    [4777,363171,"Vazduh","Libelium","0004A30B0021DF70",44.979,16.7091,"","","Prijedor","",23743904,"2023-12-22T19:15:51",3,"NO ERROR",7.1,100,987.21,0.05,0.07,0.07],
    [4778,363171,"Vazduh","Libelium","0004A30B0021DF70",44.979,16.7091,"","","Prijedor","",23744837,"2023-12-22T20:16:33",3,"NO ERROR",6.71,100,986.92,0.17,0.22,0.23],
    [4779,363171,"Vazduh","Libelium","0004A30B0021DF70",44.979,16.7091,"","","Prijedor","",23745748,"2023-12-22T21:17:15",3,"NO ERROR",6.41,100,986.56,0.75,1,1.17],
    [4780,363171,"Vazduh","Libelium","0004A30B0021DF70",44.979,16.7091,"","","Prijedor","",23746644,"2023-12-22T22:17:57",3,"NO ERROR",5.07,100,986.54,0.92,1.03,1.04],
    [4781,363171,"Vazduh","Libelium","0004A30B0021DF70",44.979,16.7091,"","","Prijedor","",23747582,"2023-12-22T23:18:39",3,"NO ERROR",4.26,100,986.22,0.91,1,1.01],
    [4782,363171,"Vazduh","Libelium","0004A30B0021DF70",44.979,16.7091,"","","Prijedor","",23748645,"2023-12-23T00:19:20",3,"NO ERROR",3.03,100,986.14,6.75,8.05,8.07],
    [4783,363171,"Vazduh","Libelium","0004A30B0021DF70",44.979,16.7091,"","","Prijedor","",23749562,"2023-12-23T01:20:01",3,"NO ERROR",2.23,100,985.85,25.03,35.73,220.83],
    [4784,363171,"Vazduh","Libelium","0004A30B0021DF70",44.979,16.7091,"","","Prijedor","",23750418,"2023-12-23T02:20:43",3,"NO ERROR",1.52,100,985.81,17.45,40.54,794.04],
    [4785,363171,"Vazduh","Libelium","0004A30B0021DF70",44.979,16.7091,"","","Prijedor","",23751264,"2023-12-23T03:21:24",3,"NO ERROR",1.06,100,986.22,40.89,64.47,627.83],
    [4786,363171,"Vazduh","Libelium","0004A30B0021DF70",44.979,16.7091,"","","Prijedor","",23752181,"2023-12-23T04:22:06",3,"NO ERROR",1.19,100,986.91,20.78,33.61,235.52],
    [4787,363171,"Vazduh","Libelium","0004A30B0021DF70",44.979,16.7091,"","","Prijedor","",23753078,"2023-12-23T05:22:47",3,"NO ERROR",0.34,100,987.28,36.21,54.67,391.38],
    [4788,363171,"Vazduh","Libelium","0004A30B0021DF70",44.979,16.7091,"","","Prijedor","",23753945,"2023-12-23T06:23:29",3,"NO ERROR",-0.43,100,988.73,1.65,1.86,1.86],
    [4789,363171,"Vazduh","Libelium","0004A30B0021DF70",44.979,16.7091,"","","Prijedor","",23754790,"2023-12-23T07:24:10",3,"NO ERROR",-0.01,100,990.57,0.24,0.27,0.27],
    [4790,363171,"Vazduh","Libelium","0004A30B0021DF70",44.979,16.7091,"","","Prijedor","",23755895,"2023-12-23T08:24:52",3,"NO ERROR",0.38,100,992.35,0.56,0.65,0.65],
    [4791,363171,"Vazduh","Libelium","0004A30B0021DF70",44.979,16.7091,"","","Prijedor","",23757075,"2023-12-23T09:25:34",3,"NO ERROR",4.75,100,992.81,0.72,0.78,0.78],
    [4792,363171,"Vazduh","Libelium","0004A30B0021DF70",44.979,16.7091,"","","Prijedor","",23757879,"2023-12-23T10:26:15",3,"NO ERROR",6.57,100,993.16,1.02,1.2,1.2],
    [4793,363171,"Vazduh","Libelium","0004A30B0021DF70",44.979,16.7091,"","","Prijedor","",23758815,"2023-12-23T11:26:57",3,"NO ERROR",9.2,100,992.51,0.14,0.16,0.16],
    [4794,363171,"Vazduh","Libelium","0004A30B0021DF70",44.979,16.7091,"","","Prijedor","",23759813,"2023-12-23T12:27:38",3,"NO ERROR",11.02,100,991.57,0.07,0.07,0.07],
    [4795,363171,"Vazduh","Libelium","0004A30B0021DF70",44.979,16.7091,"","","Prijedor","",23761132,"2023-12-23T13:28:19",3,"NO ERROR",11.37,87.3,991,0.23,0.24,0.24],
    [4796,363171,"Vazduh","Libelium","0004A30B0021DF70",44.979,16.7091,"","","Prijedor","",23762075,"2023-12-23T14:29:01",3,"NO ERROR",11.76,86.1,990.34,0.37,0.47,0.47],
    [4797,363171,"Vazduh","Libelium","0004A30B0021DF70",44.979,16.7091,"","","Prijedor","",23762981,"2023-12-23T15:29:43",3,"NO ERROR",12.03,80.1,990.1,0.28,0.36,0.37],
    [4798,363171,"Vazduh","Libelium","0004A30B0021DF70",44.979,16.7091,"","","Prijedor","",23763935,"2023-12-23T16:30:24",3,"NO ERROR",8.26,100,990.29,0.45,0.49,0.49],
    [4799,363171,"Vazduh","Libelium","0004A30B0021DF70",44.979,16.7091,"","","Prijedor","",23764797,"2023-12-23T17:31:05",3,"NO ERROR",6.39,100,990.76,1.44,1.89,1.94],
    [4800,363171,"Vazduh","Libelium","0004A30B0021DF70",44.979,16.7091,"","","Prijedor","",23765643,"2023-12-23T18:31:47",3,"NO ERROR",4.95,100,991.76,0.85,0.94,0.94],
    [4801,363171,"Vazduh","Libelium","0004A30B0021DF70",44.979,16.7091,"","","Prijedor","",23766489,"2023-12-23T19:32:28",3,"NO ERROR",4.03,100,993.03,0.18,0.22,0.22],
    [4802,363171,"Vazduh","Libelium","0004A30B0021DF70",44.979,16.7091,"","","Prijedor","",23767426,"2023-12-23T20:33:09",3,"NO ERROR",3.4,100,994.02,0.77,0.87,0.87],
    [4803,363171,"Vazduh","Libelium","0004A30B0021DF70",44.979,16.7091,"","","Prijedor","",23768553,"2023-12-23T21:33:56",3,"NO ERROR",3.77,100,994.57,1.25,1.6,1.77],
    [4804,363171,"Vazduh","Libelium","0004A30B0021DF70",44.979,16.7091,"","","Prijedor","",23769633,"2023-12-23T22:34:37",3,"NO ERROR",3.27,100,994.69,0.44,0.56,0.56],
    [4805,363171,"Vazduh","Libelium","0004A30B0021DF70",44.979,16.7091,"","","Prijedor","",23770536,"2023-12-23T23:35:19",3,"NO ERROR",3.91,100,994.84,0.96,1.19,1.2],
    [4806,363171,"Vazduh","Libelium","0004A30B0021DF70",44.979,16.7091,"","","Prijedor","",23771649,"2023-12-24T00:36:01",3,"NO ERROR",3.32,100,995.16,1.24,1.38,1.39],
    [4807,363171,"Vazduh","Libelium","0004A30B0021DF70",44.979,16.7091,"","","Prijedor","",23772535,"2023-12-24T01:36:43",3,"NO ERROR",3.62,100,995.28,0.6,0.78,0.93],
    [4808,363171,"Vazduh","Libelium","0004A30B0021DF70",44.979,16.7091,"","","Prijedor","",23773419,"2023-12-24T02:37:25",3,"NO ERROR",3.75,100,995.65,0.53,0.68,0.68],
    [4809,363171,"Vazduh","Libelium","0004A30B0021DF70",44.979,16.7091,"","","Prijedor","",23774343,"2023-12-24T03:38:06",3,"NO ERROR",3.1,100,995.85,1.04,1.19,1.19],
    [4810,363171,"Vazduh","Libelium","0004A30B0021DF70",44.979,16.7091,"","","Prijedor","",23775258,"2023-12-24T04:38:53",3,"NO ERROR",2.18,100,995.58,0.55,0.64,0.64],
    [4811,363171,"Vazduh","Libelium","0004A30B0021DF70",44.979,16.7091,"","","Prijedor","",23776169,"2023-12-24T05:39:34",3,"NO ERROR",1.82,100,996.44,1.57,1.89,1.89],
    [4812,363171,"Vazduh","Libelium","0004A30B0021DF70",44.979,16.7091,"","","Prijedor","",23777046,"2023-12-24T06:40:16",3,"NO ERROR",1.77,100,996.61,0.84,1.03,1.04],
    [4813,363171,"Vazduh","Libelium","0004A30B0021DF70",44.979,16.7091,"","","Prijedor","",23777935,"2023-12-24T07:40:57",3,"NO ERROR",1.54,100,997.32,0.61,0.69,0.69],
    [4814,363171,"Vazduh","Libelium","0004A30B0021DF70",44.979,16.7091,"","","Prijedor","",23778849,"2023-12-24T08:41:39",3,"NO ERROR",2.15,100,998.21,0.39,0.48,0.48],
    [4815,363171,"Vazduh","Libelium","0004A30B0021DF70",44.979,16.7091,"","","Prijedor","",23779741,"2023-12-24T09:42:21",3,"NO ERROR",5.68,100,999,0.28,0.41,0.44],
    [4816,363171,"Vazduh","Libelium","0004A30B0021DF70",44.979,16.7091,"","","Prijedor","",23780626,"2023-12-24T10:43:03",3,"NO ERROR",8.66,100,999.18,0.13,0.14,0.14],
    [4817,363171,"Vazduh","Libelium","0004A30B0021DF70",44.979,16.7091,"","","Prijedor","",23781600,"2023-12-24T11:43:45",3,"NO ERROR",11.89,91.9,998.35,0.23,0.25,0.25],
    [4818,363171,"Vazduh","Libelium","0004A30B0021DF70",44.979,16.7091,"","","Prijedor","",23782595,"2023-12-24T12:44:27",3,"NO ERROR",14.81,82.9,997.23,0.74,0.98,4.75],
    [4819,363171,"Vazduh","Libelium","0004A30B0021DF70",44.979,16.7091,"","","Prijedor","",23783548,"2023-12-24T13:45:08",3,"NO ERROR",14.44,84.6,996.37,0.37,0.44,0.44],
    [4820,363171,"Vazduh","Libelium","0004A30B0021DF70",44.979,16.7091,"","","Prijedor","",23784486,"2023-12-24T14:45:56",3,"NO ERROR",20.45,65.5,996.4,1.27,1.7,2.21],
    [4821,363171,"Vazduh","Libelium","0004A30B0021DF70",44.979,16.7091,"","","Prijedor","",23785416,"2023-12-24T15:46:38",3,"NO ERROR",15.77,80.5,996.52,0.71,0.91,1.01],
    [4822,363171,"Vazduh","Libelium","0004A30B0021DF70",44.979,16.7091,"","","Prijedor","",23786304,"2023-12-24T16:47:27",3,"NO ERROR",12.97,100,996.71,1.73,2.12,2.25],
    [4823,363171,"Vazduh","Libelium","0004A30B0021DF70",44.979,16.7091,"","","Prijedor","",23787147,"2023-12-24T17:48:07",3,"NO ERROR",11.8,100,997.2,2.73,3.15,3.27],
    [4824,363171,"Vazduh","Libelium","0004A30B0021DF70",44.979,16.7091,"","","Prijedor","",23788007,"2023-12-24T18:48:49",3,"NO ERROR",10.49,100,997.71,4.48,5.49,5.74],
    [4825,363171,"Vazduh","Libelium","0004A30B0021DF70",44.979,16.7091,"","","Prijedor","",23788916,"2023-12-24T19:49:31",3,"NO ERROR",9.29,100,998.08,4.61,5.38,5.5],
    [4826,363171,"Vazduh","Libelium","0004A30B0021DF70",44.979,16.7091,"","","Prijedor","",23789878,"2023-12-24T20:50:12",3,"NO ERROR",8.77,100,998.39,1.59,1.76,1.76],
    [4827,363171,"Vazduh","Libelium","0004A30B0021DF70",44.979,16.7091,"","","Prijedor","",23790866,"2023-12-24T21:50:54",3,"NO ERROR",7.15,100,998.92,2.69,3.19,3.22],
    [4828,363171,"Vazduh","Libelium","0004A30B0021DF70",44.979,16.7091,"","","Prijedor","",23791794,"2023-12-24T22:51:36",3,"NO ERROR",6.82,100,999.01,1.9,2.48,2.5],
    [4829,363171,"Vazduh","Libelium","0004A30B0021DF70",44.979,16.7091,"","","Prijedor","",23792712,"2023-12-24T23:52:17",3,"NO ERROR",5.63,100,998.73,2.37,2.85,2.96],
    [4830,363171,"Vazduh","Libelium","0004A30B0021DF70",44.979,16.7091,"","","Prijedor","",23793814,"2023-12-25T00:52:58",3,"NO ERROR",5.04,100,998.58,2.25,2.69,2.71],
    [4831,363171,"Vazduh","Libelium","0004A30B0021DF70",44.979,16.7091,"","","Prijedor","",23794707,"2023-12-25T01:53:39",3,"NO ERROR",3.99,100,999.02,1.82,2.31,2.44],
    [4832,363171,"Vazduh","Libelium","0004A30B0021DF70",44.979,16.7091,"","","Prijedor","",23795541,"2023-12-25T02:54:20",3,"NO ERROR",3.88,100,998.75,0.92,1.2,1.22],
    [4833,363171,"Vazduh","Libelium","0004A30B0021DF70",44.979,16.7091,"","","Prijedor","",23796429,"2023-12-25T03:55:02",3,"NO ERROR",2.99,100,999,1.12,1.56,2.07],
    [4834,363171,"Vazduh","Libelium","0004A30B0021DF70",44.979,16.7091,"","","Prijedor","",23797368,"2023-12-25T04:55:51",3,"NO ERROR",2.44,100,999.03,1.69,2.04,2.05],
    [4835,363171,"Vazduh","Libelium","0004A30B0021DF70",44.979,16.7091,"","","Prijedor","",23798264,"2023-12-25T05:56:32",3,"NO ERROR",2.02,100,999.26,0.74,0.97,0.98],
    [4836,363171,"Vazduh","Libelium","0004A30B0021DF70",44.979,16.7091,"","","Prijedor","",23799145,"2023-12-25T06:57:13",3,"NO ERROR",1.61,100,999.82,1.14,1.59,1.79],
    [4837,363171,"Vazduh","Libelium","0004A30B0021DF70",44.979,16.7091,"","","Prijedor","",23800018,"2023-12-25T07:57:54",3,"NO ERROR",2.13,100,1000.28,1.29,1.62,1.63],
    [4838,363171,"Vazduh","Libelium","0004A30B0021DF70",44.979,16.7091,"","","Prijedor","",23800876,"2023-12-25T08:58:35",3,"NO ERROR",3.36,100,1000.46,0.85,1.1,1.11],
    [4839,363171,"Vazduh","Libelium","0004A30B0021DF70",44.979,16.7091,"","","Prijedor","",23803656,"2023-12-25T12:00:53",3,"NO ERROR",15.22,87,1000.06,0.85,0.96,0.97],
    [4840,363171,"Vazduh","Libelium","0004A30B0021DF70",44.979,16.7091,"","","Prijedor","",23804641,"2023-12-25T13:01:34",3,"NO ERROR",18.95,58.9,999.64,0.6,0.72,0.72],
    [4841,363171,"Vazduh","Libelium","0004A30B0021DF70",44.979,16.7091,"","","Prijedor","",23806537,"2023-12-25T15:03:02",3,"NO ERROR",20.18,53.2,999.27,0.37,0.48,0.49],
    [4842,363171,"Vazduh","Libelium","0004A30B0021DF70",44.979,16.7091,"","","Prijedor","",23807458,"2023-12-25T16:03:44",3,"NO ERROR",16.27,63.2,999.3,0.71,0.94,0.95],
    [4843,363171,"Vazduh","Libelium","0004A30B0021DF70",44.979,16.7091,"","","Prijedor","",23808349,"2023-12-25T17:04:26",3,"NO ERROR",13.38,78.6,999.63,0.91,1.28,1.31],
    [4844,363171,"Vazduh","Libelium","0004A30B0021DF70",44.979,16.7091,"","","Prijedor","",23809169,"2023-12-25T18:05:07",3,"NO ERROR",11.94,88.2,1000.62,0.64,0.93,1.08],
    [4845,363171,"Vazduh","Libelium","0004A30B0021DF70",44.979,16.7091,"","","Prijedor","",23860498,"2023-12-28T01:44:06",3,"NO ERROR",0.61,100,1010.97,22.35,30.65,71.48],
    [4846,363171,"Vazduh","Libelium","0004A30B0021DF70",44.979,16.7091,"","","Prijedor","",23861394,"2023-12-28T02:44:48",3,"NO ERROR",0.95,100,1011.16,39.27,59.43,508.43],
    [4847,363171,"Vazduh","Libelium","0004A30B0021DF70",44.979,16.7091,"","","Prijedor","",23862263,"2023-12-28T03:45:30",3,"NO ERROR",0.73,100,1010.76,5.83,18.38,271.27],
    [4848,363171,"Vazduh","Libelium","0004A30B0021DF70",44.979,16.7091,"","","Prijedor","",23863140,"2023-12-28T04:46:12",3,"NO ERROR",0.92,100,1010.59,20.65,37.39,402.89],
    [4849,363171,"Vazduh","Libelium","0004A30B0021DF70",44.979,16.7091,"","","Prijedor","",23864031,"2023-12-28T05:46:53",3,"NO ERROR",0.8,100,1010.65,8.24,24.66,438.91],
    [4850,363171,"Vazduh","Libelium","0004A30B0021DF70",44.979,16.7091,"","","Prijedor","",23864850,"2023-12-28T06:47:34",3,"NO ERROR",-0.22,100,1010.59,3.9,13.39,135.89],
    [4851,363171,"Vazduh","Libelium","0004A30B0021DF70",44.979,16.7091,"","","Prijedor","",23865710,"2023-12-28T07:48:16",3,"NO ERROR",-0.5,100,1010.73,10.88,66.46,766.74],
    [4852,363171,"Vazduh","Libelium","0004A30B0021DF70",44.979,16.7091,"","","Prijedor","",23866558,"2023-12-28T08:48:58",3,"NO ERROR",-0.07,100,1010.93,3.89,21.59,206.66],
    [4853,363171,"Vazduh","Libelium","0004A30B0021DF70",44.979,16.7091,"","","Prijedor","",23867389,"2023-12-28T09:49:40",3,"NO ERROR",0.52,100,1011,3.01,10.85,61.55],
    [4854,363171,"Vazduh","Libelium","0004A30B0021DF70",44.979,16.7091,"","","Prijedor","",23868233,"2023-12-28T10:50:22",3,"NO ERROR",1.94,100,1010.32,1.93,3.3,23.44],
    [4855,363171,"Vazduh","Libelium","0004A30B0021DF70",44.979,16.7091,"","","Prijedor","",23869090,"2023-12-28T11:51:09",3,"NO ERROR",3.48,100,1009.43,2.62,3.15,3.18],
    [4856,363171,"Vazduh","Libelium","0004A30B0021DF70",44.979,16.7091,"","","Prijedor","",23869960,"2023-12-28T12:51:51",3,"NO ERROR",4.16,100,1009.09,2.04,2.41,2.42],
    [4857,363171,"Vazduh","Libelium","0004A30B0021DF70",44.979,16.7091,"","","Prijedor","",23870842,"2023-12-28T13:52:32",3,"NO ERROR",6.1,100,1008.59,1.75,2.09,2.1],
    [4858,363171,"Vazduh","Libelium","0004A30B0021DF70",44.979,16.7091,"","","Prijedor","",23871710,"2023-12-28T14:53:19",3,"NO ERROR",10.62,97.6,1008.12,1.46,1.84,1.97],
    [4859,363171,"Vazduh","Libelium","0004A30B0021DF70",44.979,16.7091,"","","Prijedor","",23872568,"2023-12-28T15:54:07",3,"NO ERROR",7.29,100,1008.36,1.23,1.48,1.49],
    [4860,363171,"Vazduh","Libelium","0004A30B0021DF70",44.979,16.7091,"","","Prijedor","",23873446,"2023-12-28T16:54:47",3,"NO ERROR",5.68,100,1008.45,1.4,1.84,2.02],
    [4861,363171,"Vazduh","Libelium","0004A30B0021DF70",44.979,16.7091,"","","Prijedor","",23874224,"2023-12-28T17:55:29",3,"NO ERROR",4.68,100,1008.66,2.87,3.29,3.31],
    [4862,363171,"Vazduh","Libelium","0004A30B0021DF70",44.979,16.7091,"","","Prijedor","",23875035,"2023-12-28T18:56:11",3,"NO ERROR",4.09,100,1009.02,2.76,3.11,3.12],
    [4863,363171,"Vazduh","Libelium","0004A30B0021DF70",44.979,16.7091,"","","Prijedor","",23875951,"2023-12-28T19:56:52",3,"NO ERROR",3.13,100,1009.16,3.87,4.4,4.4],
    [4864,363171,"Vazduh","Libelium","0004A30B0021DF70",44.979,16.7091,"","","Prijedor","",23876869,"2023-12-28T20:57:34",3,"NO ERROR",2.34,100,1009.45,8.63,10.11,10.18],
    [4865,363171,"Vazduh","Libelium","0004A30B0021DF70",44.979,16.7091,"","","Prijedor","",23877787,"2023-12-28T21:58:15",3,"NO ERROR",2,100,1009.6,6.27,7.06,7.09],
    [4866,363171,"Vazduh","Libelium","0004A30B0021DF70",44.979,16.7091,"","","Prijedor","",23878711,"2023-12-28T22:58:56",3,"NO ERROR",0.96,100,1009.78,6.95,7.99,8.02],
    [4867,363171,"Vazduh","Libelium","0004A30B0021DF70",44.979,16.7091,"","","Prijedor","",23879742,"2023-12-28T23:59:37",3,"NO ERROR",1.15,100,1009.39,18.36,26.51,112.27],
    [4868,363171,"Vazduh","Libelium","0004A30B0021DF70",44.979,16.7091,"","","Prijedor","",23880744,"2023-12-29T01:00:25",3,"NO ERROR",1.47,100,1008.58,6.21,7.71,7.74],
    [4869,363171,"Vazduh","Libelium","0004A30B0021DF70",44.979,16.7091,"","","Prijedor","",23881661,"2023-12-29T02:01:07",3,"NO ERROR",1.47,100,1008.12,1.52,1.74,1.74],
    [4870,363171,"Vazduh","Libelium","0004A30B0021DF70",44.979,16.7091,"","","Prijedor","",23882536,"2023-12-29T03:01:49",3,"NO ERROR",2.67,100,1008.02,0.98,1.07,1.07],
    [4871,363171,"Vazduh","Libelium","0004A30B0021DF70",44.979,16.7091,"","","Prijedor","",23883439,"2023-12-29T04:02:30",3,"NO ERROR",2.47,100,1007.73,1.37,1.43,1.43],
    [4872,363171,"Vazduh","Libelium","0004A30B0021DF70",44.979,16.7091,"","","Prijedor","",23884377,"2023-12-29T05:03:11",3,"NO ERROR",3.12,100,1007.42,0.48,0.53,0.53],
    [4873,363171,"Vazduh","Libelium","0004A30B0021DF70",44.979,16.7091,"","","Prijedor","",23885293,"2023-12-29T06:03:52",3,"NO ERROR",3.65,100,1007.07,1.37,1.58,1.58],
    [4874,363171,"Vazduh","Libelium","0004A30B0021DF70",44.979,16.7091,"","","Prijedor","",23886159,"2023-12-29T07:04:40",3,"NO ERROR",3.36,100,1007,0.59,0.66,0.66],
    [4875,363171,"Vazduh","Libelium","0004A30B0021DF70",44.979,16.7091,"","","Prijedor","",23887066,"2023-12-29T08:05:21",3,"NO ERROR",4.13,100,1006.87,0.41,0.49,0.49],
    [4876,363171,"Vazduh","Libelium","0004A30B0021DF70",44.979,16.7091,"","","Prijedor","",23887892,"2023-12-29T09:06:03",3,"NO ERROR",4.42,100,1007.42,1.36,1.67,1.67],
    [4877,363171,"Vazduh","Libelium","0004A30B0021DF70",44.979,16.7091,"","","Prijedor","",23888732,"2023-12-29T10:06:44",3,"NO ERROR",5.6,100,1007.73,0.85,1.07,1.07],
    [4878,363171,"Vazduh","Libelium","0004A30B0021DF70",44.979,16.7091,"","","Prijedor","",23889591,"2023-12-29T11:07:25",3,"NO ERROR",7.21,100,1007.44,1.35,1.83,1.98],
    [4879,363171,"Vazduh","Libelium","0004A30B0021DF70",44.979,16.7091,"","","Prijedor","",23890572,"2023-12-29T12:08:06",3,"NO ERROR",8.26,100,1006.86,1.02,1.44,1.62],
    [4880,363171,"Vazduh","Libelium","0004A30B0021DF70",44.979,16.7091,"","","Prijedor","",23891481,"2023-12-29T13:08:47",3,"NO ERROR",8.9,100,1006.17,1.19,1.37,1.38],
    [4881,363171,"Vazduh","Libelium","0004A30B0021DF70",44.979,16.7091,"","","Prijedor","",23892418,"2023-12-29T14:09:29",3,"NO ERROR",8.66,100,1005.87,0.52,0.72,0.8],
    [4882,363171,"Vazduh","Libelium","0004A30B0021DF70",44.979,16.7091,"","","Prijedor","",23893350,"2023-12-29T15:10:10",3,"NO ERROR",9.18,100,1005.81,1.56,1.85,1.86],
    [4883,363171,"Vazduh","Libelium","0004A30B0021DF70",44.979,16.7091,"","","Prijedor","",23894197,"2023-12-29T16:10:58",3,"NO ERROR",9.07,100,1005.54,1.94,2.29,2.32],
    [4884,363171,"Vazduh","Libelium","0004A30B0021DF70",44.979,16.7091,"","","Prijedor","",23895011,"2023-12-29T17:11:40",3,"NO ERROR",8.8,100,1005.55,2.69,3.06,3.16],
    [4885,363171,"Vazduh","Libelium","0004A30B0021DF70",44.979,16.7091,"","","Prijedor","",23895790,"2023-12-29T18:12:22",3,"NO ERROR",8.58,100,1005.48,2.52,3.11,3.37],
    [4886,363171,"Vazduh","Libelium","0004A30B0021DF70",44.979,16.7091,"","","Prijedor","",23896567,"2023-12-29T19:13:10",3,"NO ERROR",9.2,100,1005.63,0.89,1.12,1.15],
    [4887,363171,"Vazduh","Libelium","0004A30B0021DF70",44.979,16.7091,"","","Prijedor","",23897458,"2023-12-29T20:13:58",3,"NO ERROR",9.38,100,1005.43,2.57,2.88,2.88],
    [4888,363171,"Vazduh","Libelium","0004A30B0021DF70",44.979,16.7091,"","","Prijedor","",23898339,"2023-12-29T21:14:46",3,"NO ERROR",8.61,100,1005.38,0.95,1.11,1.11],
    [4889,363171,"Vazduh","Libelium","0004A30B0021DF70",44.979,16.7091,"","","Prijedor","",23899213,"2023-12-29T22:15:30",3,"NO ERROR",7.22,100,1005.11,1.08,1.27,1.27],
    [4890,363171,"Vazduh","Libelium","0004A30B0021DF70",44.979,16.7091,"","","Prijedor","",23900139,"2023-12-29T23:16:24",3,"NO ERROR",7.42,100,1004.83,0.6,0.72,0.72],
    [4891,363171,"Vazduh","Libelium","0004A30B0021DF70",44.979,16.7091,"","","Prijedor","",23901216,"2023-12-30T00:17:05",3,"NO ERROR",6.28,100,1004.58,0.94,1.09,1.09],
    [4892,363171,"Vazduh","Libelium","0004A30B0021DF70",44.979,16.7091,"","","Prijedor","",23902108,"2023-12-30T01:17:46",3,"NO ERROR",6.31,100,1004.44,0.18,0.19,0.19],
    [4893,363171,"Vazduh","Libelium","0004A30B0021DF70",44.979,16.7091,"","","Prijedor","",23902979,"2023-12-30T02:18:27",3,"NO ERROR",6.92,100,1004.61,0.35,0.43,0.43],
    [4894,363171,"Vazduh","Libelium","0004A30B0021DF70",44.979,16.7091,"","","Prijedor","",23903848,"2023-12-30T03:19:09",3,"NO ERROR",6.74,100,1004.64,0.91,0.97,0.97],
    [4895,363171,"Vazduh","Libelium","0004A30B0021DF70",44.979,16.7091,"","","Prijedor","",23904766,"2023-12-30T04:19:51",3,"NO ERROR",6.91,100,1004.39,0.53,0.64,0.65],
    [4896,363171,"Vazduh","Libelium","0004A30B0021DF70",44.979,16.7091,"","","Prijedor","",23905691,"2023-12-30T05:20:33",3,"NO ERROR",6.39,100,1004.66,0.25,0.27,0.27],
    [4897,363171,"Vazduh","Libelium","0004A30B0021DF70",44.979,16.7091,"","","Prijedor","",23906597,"2023-12-30T06:21:21",3,"NO ERROR",6.44,100,1004.87,0.33,0.37,0.37],
    [4898,363171,"Vazduh","Libelium","0004A30B0021DF70",44.979,16.7091,"","","Prijedor","",23907423,"2023-12-30T07:22:03",3,"NO ERROR",6.51,100,1005.07,0.83,1.02,1.02],
    [4899,363171,"Vazduh","Libelium","0004A30B0021DF70",44.979,16.7091,"","","Prijedor","",23908321,"2023-12-30T08:22:44",3,"NO ERROR",5.97,100,1005.75,1.74,2.15,2.27],
    [4900,363171,"Vazduh","Libelium","0004A30B0021DF70",44.979,16.7091,"","","Prijedor","",23909179,"2023-12-30T09:23:26",3,"NO ERROR",8.26,100,1006.05,0.69,0.87,0.87],
    [4901,363171,"Vazduh","Libelium","0004A30B0021DF70",44.979,16.7091,"","","Prijedor","",23909990,"2023-12-30T10:24:19",3,"NO ERROR",10.96,100,1006.25,0.65,0.77,0.77],
    [4902,363171,"Vazduh","Libelium","0004A30B0021DF70",44.979,16.7091,"","","Prijedor","",23910939,"2023-12-30T11:25:00",3,"NO ERROR",11.52,100,1005.95,0.79,1.02,1.15],
    [4903,363171,"Vazduh","Libelium","0004A30B0021DF70",44.979,16.7091,"","","Prijedor","",23911912,"2023-12-30T12:25:42",3,"NO ERROR",13.01,94.1,1005.19,0.63,0.66,0.66],
    [4904,363171,"Vazduh","Libelium","0004A30B0021DF70",44.979,16.7091,"","","Prijedor","",23912879,"2023-12-30T13:26:23",3,"NO ERROR",13.6,92.9,1004.67,1.06,1.25,1.27],
    [4905,363171,"Vazduh","Libelium","0004A30B0021DF70",44.979,16.7091,"","","Prijedor","",23913821,"2023-12-30T14:27:04",3,"NO ERROR",13.64,96.2,1004.53,1.56,1.95,1.98],
    [4906,363171,"Vazduh","Libelium","0004A30B0021DF70",44.979,16.7091,"","","Prijedor","",23914719,"2023-12-30T15:27:45",3,"NO ERROR",13,99,1004.8,1.81,2.26,2.39],
    [4907,363171,"Vazduh","Libelium","0004A30B0021DF70",44.979,16.7091,"","","Prijedor","",23915584,"2023-12-30T16:28:27",3,"NO ERROR",12.34,100,1005.08,1.27,1.55,1.56],
    [4908,363171,"Vazduh","Libelium","0004A30B0021DF70",44.979,16.7091,"","","Prijedor","",23916470,"2023-12-30T17:29:09",3,"NO ERROR",10.8,100,1005.16,1.73,2.24,2.35],
    [4909,363171,"Vazduh","Libelium","0004A30B0021DF70",44.979,16.7091,"","","Prijedor","",23917304,"2023-12-30T18:29:50",3,"NO ERROR",9.19,100,1005.18,1.93,2.13,2.14],
    [4910,363171,"Vazduh","Libelium","0004A30B0021DF70",44.979,16.7091,"","","Prijedor","",23918131,"2023-12-30T19:30:32",3,"NO ERROR",7.92,100,1005.56,2.93,3.88,4.19],
    [4911,363171,"Vazduh","Libelium","0004A30B0021DF70",44.979,16.7091,"","","Prijedor","",23919079,"2023-12-30T20:31:13",3,"NO ERROR",6.72,100,1005.56,1.55,1.93,1.95],
    [4912,363171,"Vazduh","Libelium","0004A30B0021DF70",44.979,16.7091,"","","Prijedor","",23919983,"2023-12-30T21:31:54",3,"NO ERROR",6.02,100,1005.67,1.82,1.99,1.99],
    [4913,363171,"Vazduh","Libelium","0004A30B0021DF70",44.979,16.7091,"","","Prijedor","",23920856,"2023-12-30T22:32:36",3,"NO ERROR",5.52,100,1005.74,3,3.5,3.51],
    [4914,363171,"Vazduh","Libelium","0004A30B0021DF70",44.979,16.7091,"","","Prijedor","",23921746,"2023-12-30T23:33:17",3,"NO ERROR",5.11,100,1005.77,1.25,1.66,2.17],
    [4915,363171,"Vazduh","Libelium","0004A30B0021DF70",44.979,16.7091,"","","Prijedor","",23922828,"2023-12-31T00:33:58",3,"NO ERROR",5.21,100,1005.39,0.58,0.69,0.69],
    [4916,363171,"Vazduh","Libelium","0004A30B0021DF70",44.979,16.7091,"","","Prijedor","",23923684,"2023-12-31T01:34:39",3,"NO ERROR",5.2,100,1005,2.06,2.45,2.61],
    [4917,363171,"Vazduh","Libelium","0004A30B0021DF70",44.979,16.7091,"","","Prijedor","",23924527,"2023-12-31T02:35:20",3,"NO ERROR",5.01,100,1004.82,1.17,1.4,1.41],
    [4918,363171,"Vazduh","Libelium","0004A30B0021DF70",44.979,16.7091,"","","Prijedor","",23925385,"2023-12-31T03:36:02",3,"NO ERROR",5.42,100,1004.28,1.35,1.67,1.69],
    [4919,363171,"Vazduh","Libelium","0004A30B0021DF70",44.979,16.7091,"","","Prijedor","",23926300,"2023-12-31T04:36:43",3,"NO ERROR",5.58,100,1004.05,1.14,1.29,1.3],
    [4920,363171,"Vazduh","Libelium","0004A30B0021DF70",44.979,16.7091,"","","Prijedor","",23927234,"2023-12-31T05:37:24",3,"NO ERROR",5.82,100,1003.71,0.77,0.89,0.9],
    [4921,363171,"Vazduh","Libelium","0004A30B0021DF70",44.979,16.7091,"","","Prijedor","",23928115,"2023-12-31T06:38:05",3,"NO ERROR",6.27,100,1003.25,0.19,0.22,0.22],
    [4922,363171,"Vazduh","Libelium","0004A30B0021DF70",44.979,16.7091,"","","Prijedor","",23928970,"2023-12-31T07:38:46",3,"NO ERROR",5.45,100,1003.21,0.46,0.54,0.54],
    [4923,363171,"Vazduh","Libelium","0004A30B0021DF70",44.979,16.7091,"","","Prijedor","",23929875,"2023-12-31T08:39:27",3,"NO ERROR",5.93,100,1003.18,0.59,0.73,0.75],
    [4924,363171,"Vazduh","Libelium","0004A30B0021DF70",44.979,16.7091,"","","Prijedor","",23930753,"2023-12-31T09:40:09",3,"NO ERROR",8.48,100,1003.25,0.52,0.6,0.61],
    [4925,363171,"Vazduh","Libelium","0004A30B0021DF70",44.979,16.7091,"","","Prijedor","",23931570,"2023-12-31T10:40:57",3,"NO ERROR",11.12,100,1002.56,0.18,0.19,0.19],
    [4926,363171,"Vazduh","Libelium","0004A30B0021DF70",44.979,16.7091,"","","Prijedor","",23932526,"2023-12-31T11:41:37",3,"NO ERROR",13.94,95.7,1001.48,0.1,0.15,0.15],
    [4927,363171,"Vazduh","Libelium","0004A30B0021DF70",44.979,16.7091,"","","Prijedor","",23933533,"2023-12-31T12:42:19",3,"NO ERROR",16.86,75.9,1000.31,0.22,0.36,0.48],
    [4928,363171,"Vazduh","Libelium","0004A30B0021DF70",44.979,16.7091,"","","Prijedor","",23934481,"2023-12-31T13:43:01",3,"NO ERROR",17.78,60.3,999.33,0.26,0.31,0.31],
    [4929,363171,"Vazduh","Libelium","0004A30B0021DF70",44.979,16.7091,"","","Prijedor","",23935391,"2023-12-31T14:43:42",3,"NO ERROR",17.16,63.1,998.98,0.07,0.08,0.08],
    [4930,363171,"Vazduh","Libelium","0004A30B0021DF70",44.979,16.7091,"","","Prijedor","",23936296,"2023-12-31T15:44:23",3,"NO ERROR",15.9,63.9,998.78,2.99,3.34,3.34],
    [4931,363171,"Vazduh","Libelium","0004A30B0021DF70",44.979,16.7091,"","","Prijedor","",23937161,"2023-12-31T16:45:04",3,"NO ERROR",13.21,72.7,998.63,0.52,0.55,0.55],
    [4932,363171,"Vazduh","Libelium","0004A30B0021DF70",44.979,16.7091,"","","Prijedor","",23937990,"2023-12-31T17:45:45",3,"NO ERROR",12.26,78.1,998.4,0.77,1.19,1.4],
    [4933,363171,"Vazduh","Libelium","0004A30B0021DF70",44.979,16.7091,"","","Prijedor","",23938761,"2023-12-31T18:46:33",3,"NO ERROR",11.93,79.2,998.2,0.27,0.45,0.61],
    [4934,363171,"Vazduh","Libelium","0004A30B0021DF70",44.979,16.7091,"","","Prijedor","",23939611,"2023-12-31T19:47:14",3,"NO ERROR",10.7,87.8,998.24,0.33,0.42,0.43],
    [4935,363171,"Vazduh","Libelium","0004A30B0021DF70",44.979,16.7091,"","","Prijedor","",23940524,"2023-12-31T20:47:56",3,"NO ERROR",10.62,88.4,997.88,0.4,0.56,0.7],
    [4936,363171,"Vazduh","Libelium","0004A30B0021DF70",44.979,16.7091,"","","Prijedor","",23941412,"2023-12-31T21:48:37",3,"NO ERROR",9.05,95.8,997.67,0.61,0.79,1.22],
    [4937,363171,"Vazduh","Libelium","0004A30B0021DF70",44.979,16.7091,"","","Prijedor","",23942273,"2023-12-31T22:49:18",3,"NO ERROR",11.38,83.9,997.37,1.34,1.48,1.48]
]}
